<?xml version="1.0" encoding="utf-8"?>
<gpx xsi:schemaLocation="http://www.topografix.com/GPX/1/1 http://www.topografix.com/GPX/1/1/gpx.xsd http://www.garmin.com/xmlschemas/GpxExtensions/v3 http://www.garmin.com/xmlschemas/GpxExtensionsv3.xsd http://www.garmin.com/xmlschemas/TrackPointExtension/v1 http://www.garmin.com/xmlschemas/TrackPointExtensionv1.xsd" version="1.1" creator="Sports Tracker" xmlns="http://www.topografix.com/GPX/1/1" xmlns:xsi="http://www.w3.org/2001/XMLSchema-instance" xmlns:gpxtpx="http://www.garmin.com/xmlschemas/TrackPointExtension/v1" xmlns:gpxx="http://www.garmin.com/xmlschemas/GpxExtensions/v3">
  <metadata>
    <name>Cycling 24/08/2014/08:47:41.19</name>
    <desc></desc>
    <author>
      <name>Juan Jose Picazo Perez</name>
    </author>
    <link href="www.sports-tracker.com">
      <text>Sports Tracker</text>
    </link>
  </metadata>
  <trk>
    <trkseg>
      <trkpt lat="38.368355" lon="-2.31977">
        <ele>975</ele>
        <time>2014-08-24T08:47:41.19</time>
      </trkpt>
      <trkpt lat="38.368355" lon="-2.31977">
        <ele>975</ele>
        <time>2014-08-24T08:47:45.19</time>
      </trkpt>
      <trkpt lat="38.36843" lon="-2.3198366666666668">
        <ele>976</ele>
        <time>2014-08-24T08:47:49.21</time>
      </trkpt>
      <trkpt lat="38.36849" lon="-2.3199083333333332">
        <ele>974</ele>
        <time>2014-08-24T08:47:52.23</time>
      </trkpt>
      <trkpt lat="38.368535" lon="-2.319995">
        <ele>978</ele>
        <time>2014-08-24T08:47:55.27</time>
      </trkpt>
      <trkpt lat="38.36855833333333" lon="-2.32012">
        <ele>979</ele>
        <time>2014-08-24T08:47:58.26</time>
      </trkpt>
      <trkpt lat="38.368535" lon="-2.32025">
        <ele>972</ele>
        <time>2014-08-24T08:48:01.22</time>
      </trkpt>
      <trkpt lat="38.368471666666665" lon="-2.3203300000000002">
        <ele>972</ele>
        <time>2014-08-24T08:48:03.19</time>
      </trkpt>
      <trkpt lat="38.368395" lon="-2.32038">
        <ele>973</ele>
        <time>2014-08-24T08:48:05.21</time>
      </trkpt>
      <trkpt lat="38.3683" lon="-2.320385">
        <ele>972</ele>
        <time>2014-08-24T08:48:07.19</time>
      </trkpt>
      <trkpt lat="38.36821" lon="-2.32037">
        <ele>972</ele>
        <time>2014-08-24T08:48:09.19</time>
      </trkpt>
      <trkpt lat="38.36812" lon="-2.32035">
        <ele>971</ele>
        <time>2014-08-24T08:48:11.20</time>
      </trkpt>
      <trkpt lat="38.368035" lon="-2.320335">
        <ele>971</ele>
        <time>2014-08-24T08:48:13.23</time>
      </trkpt>
      <trkpt lat="38.367945" lon="-2.32032">
        <ele>973</ele>
        <time>2014-08-24T08:48:15.34</time>
      </trkpt>
      <trkpt lat="38.367855" lon="-2.3203300000000002">
        <ele>973</ele>
        <time>2014-08-24T08:48:17.21</time>
      </trkpt>
      <trkpt lat="38.36776" lon="-2.32041">
        <ele>972</ele>
        <time>2014-08-24T08:48:19.23</time>
      </trkpt>
      <trkpt lat="38.36768" lon="-2.3204700000000003">
        <ele>971</ele>
        <time>2014-08-24T08:48:21.25</time>
      </trkpt>
      <trkpt lat="38.367605" lon="-2.320535">
        <ele>970</ele>
        <time>2014-08-24T08:48:23.27</time>
      </trkpt>
      <trkpt lat="38.36753" lon="-2.3206183333333334">
        <ele>970</ele>
        <time>2014-08-24T08:48:25.27</time>
      </trkpt>
      <trkpt lat="38.36745" lon="-2.320695">
        <ele>971</ele>
        <time>2014-08-24T08:48:27.24</time>
      </trkpt>
      <trkpt lat="38.367375" lon="-2.32077">
        <ele>972</ele>
        <time>2014-08-24T08:48:29.23</time>
      </trkpt>
      <trkpt lat="38.36731" lon="-2.320845">
        <ele>973</ele>
        <time>2014-08-24T08:48:31.22</time>
      </trkpt>
      <trkpt lat="38.367245" lon="-2.320935">
        <ele>973</ele>
        <time>2014-08-24T08:48:33.19</time>
      </trkpt>
      <trkpt lat="38.3672" lon="-2.32103">
        <ele>973</ele>
        <time>2014-08-24T08:48:35.23</time>
      </trkpt>
      <trkpt lat="38.367155" lon="-2.321125">
        <ele>973</ele>
        <time>2014-08-24T08:48:37.24</time>
      </trkpt>
      <trkpt lat="38.367115" lon="-2.321225">
        <ele>972</ele>
        <time>2014-08-24T08:48:39.23</time>
      </trkpt>
      <trkpt lat="38.367075" lon="-2.32132">
        <ele>972</ele>
        <time>2014-08-24T08:48:42.19</time>
      </trkpt>
      <trkpt lat="38.367035" lon="-2.32142">
        <ele>972</ele>
        <time>2014-08-24T08:48:46.24</time>
      </trkpt>
      <trkpt lat="38.36699" lon="-2.3215">
        <ele>972</ele>
        <time>2014-08-24T08:48:50.20</time>
      </trkpt>
      <trkpt lat="38.36694" lon="-2.32159">
        <ele>972</ele>
        <time>2014-08-24T08:48:53.25</time>
      </trkpt>
      <trkpt lat="38.36687833333333" lon="-2.3216966666666665">
        <ele>972</ele>
        <time>2014-08-24T08:48:56.24</time>
      </trkpt>
      <trkpt lat="38.36684" lon="-2.32178">
        <ele>972</ele>
        <time>2014-08-24T08:48:58.24</time>
      </trkpt>
      <trkpt lat="38.36681" lon="-2.32187">
        <ele>971</ele>
        <time>2014-08-24T08:49:00.24</time>
      </trkpt>
      <trkpt lat="38.36678" lon="-2.321965">
        <ele>971</ele>
        <time>2014-08-24T08:49:02.24</time>
      </trkpt>
      <trkpt lat="38.366745" lon="-2.322051666666667">
        <ele>972</ele>
        <time>2014-08-24T08:49:04.24</time>
      </trkpt>
      <trkpt lat="38.36671" lon="-2.32214">
        <ele>973</ele>
        <time>2014-08-24T08:49:06.24</time>
      </trkpt>
      <trkpt lat="38.36669" lon="-2.322235">
        <ele>974</ele>
        <time>2014-08-24T08:49:08.25</time>
      </trkpt>
      <trkpt lat="38.366675" lon="-2.32233">
        <ele>973</ele>
        <time>2014-08-24T08:49:10.24</time>
      </trkpt>
      <trkpt lat="38.366641666666666" lon="-2.32246">
        <ele>972</ele>
        <time>2014-08-24T08:49:13.25</time>
      </trkpt>
      <trkpt lat="38.366615" lon="-2.32255">
        <ele>973</ele>
        <time>2014-08-24T08:49:15.31</time>
      </trkpt>
      <trkpt lat="38.36658666666667" lon="-2.322645">
        <ele>974</ele>
        <time>2014-08-24T08:49:17.24</time>
      </trkpt>
      <trkpt lat="38.366555" lon="-2.3227349999999998">
        <ele>975</ele>
        <time>2014-08-24T08:49:19.25</time>
      </trkpt>
      <trkpt lat="38.366525" lon="-2.32283">
        <ele>975</ele>
        <time>2014-08-24T08:49:21.36</time>
      </trkpt>
      <trkpt lat="38.36649" lon="-2.32292">
        <ele>976</ele>
        <time>2014-08-24T08:49:23.18</time>
      </trkpt>
      <trkpt lat="38.36645" lon="-2.32301">
        <ele>976</ele>
        <time>2014-08-24T08:49:25.26</time>
      </trkpt>
      <trkpt lat="38.36641" lon="-2.3231">
        <ele>977</ele>
        <time>2014-08-24T08:49:27.24</time>
      </trkpt>
      <trkpt lat="38.36638" lon="-2.32319">
        <ele>977</ele>
        <time>2014-08-24T08:49:29.32</time>
      </trkpt>
      <trkpt lat="38.366355" lon="-2.3232749999999998">
        <ele>977</ele>
        <time>2014-08-24T08:49:31.23</time>
      </trkpt>
      <trkpt lat="38.366315" lon="-2.3234">
        <ele>978</ele>
        <time>2014-08-24T08:49:34.23</time>
      </trkpt>
      <trkpt lat="38.366278333333334" lon="-2.3234916666666665">
        <ele>978</ele>
        <time>2014-08-24T08:49:36.23</time>
      </trkpt>
      <trkpt lat="38.366245" lon="-2.323595">
        <ele>978</ele>
        <time>2014-08-24T08:49:38.24</time>
      </trkpt>
      <trkpt lat="38.366215" lon="-2.323695">
        <ele>977</ele>
        <time>2014-08-24T08:49:40.24</time>
      </trkpt>
      <trkpt lat="38.36618" lon="-2.32379">
        <ele>978</ele>
        <time>2014-08-24T08:49:42.23</time>
      </trkpt>
      <trkpt lat="38.366145" lon="-2.32389">
        <ele>978</ele>
        <time>2014-08-24T08:49:44.23</time>
      </trkpt>
      <trkpt lat="38.366115" lon="-2.323985">
        <ele>978</ele>
        <time>2014-08-24T08:49:46.23</time>
      </trkpt>
      <trkpt lat="38.366085" lon="-2.32408">
        <ele>977</ele>
        <time>2014-08-24T08:49:48.23</time>
      </trkpt>
      <trkpt lat="38.366045" lon="-2.32417">
        <ele>978</ele>
        <time>2014-08-24T08:49:50.24</time>
      </trkpt>
      <trkpt lat="38.366" lon="-2.324255">
        <ele>978</ele>
        <time>2014-08-24T08:49:52.30</time>
      </trkpt>
      <trkpt lat="38.365961666666664" lon="-2.324345">
        <ele>979</ele>
        <time>2014-08-24T08:49:54.32</time>
      </trkpt>
      <trkpt lat="38.36594" lon="-2.3244350000000003">
        <ele>979</ele>
        <time>2014-08-24T08:49:56.30</time>
      </trkpt>
      <trkpt lat="38.36591" lon="-2.324525">
        <ele>980</ele>
        <time>2014-08-24T08:49:58.31</time>
      </trkpt>
      <trkpt lat="38.36588" lon="-2.324615">
        <ele>981</ele>
        <time>2014-08-24T08:50:00.26</time>
      </trkpt>
      <trkpt lat="38.36585" lon="-2.324705">
        <ele>981</ele>
        <time>2014-08-24T08:50:02.24</time>
      </trkpt>
      <trkpt lat="38.365813333333335" lon="-2.324796666666667">
        <ele>982</ele>
        <time>2014-08-24T08:50:04.24</time>
      </trkpt>
      <trkpt lat="38.36578" lon="-2.32489">
        <ele>982</ele>
        <time>2014-08-24T08:50:06.24</time>
      </trkpt>
      <trkpt lat="38.36575" lon="-2.324985">
        <ele>982</ele>
        <time>2014-08-24T08:50:08.24</time>
      </trkpt>
      <trkpt lat="38.365725" lon="-2.32508">
        <ele>983</ele>
        <time>2014-08-24T08:50:10.18</time>
      </trkpt>
      <trkpt lat="38.3657" lon="-2.3251749999999998">
        <ele>983</ele>
        <time>2014-08-24T08:50:12.22</time>
      </trkpt>
      <trkpt lat="38.36569" lon="-2.325275">
        <ele>984</ele>
        <time>2014-08-24T08:50:14.23</time>
      </trkpt>
      <trkpt lat="38.365675" lon="-2.32537">
        <ele>984</ele>
        <time>2014-08-24T08:50:16.23</time>
      </trkpt>
      <trkpt lat="38.365656666666666" lon="-2.32546">
        <ele>985</ele>
        <time>2014-08-24T08:50:19.26</time>
      </trkpt>
      <trkpt lat="38.365655" lon="-2.325455">
        <ele>984</ele>
        <time>2014-08-24T08:50:26.24</time>
      </trkpt>
      <trkpt lat="38.365635" lon="-2.325545">
        <ele>984</ele>
        <time>2014-08-24T08:50:32.24</time>
      </trkpt>
      <trkpt lat="38.36561" lon="-2.32565">
        <ele>986</ele>
        <time>2014-08-24T08:50:36.38</time>
      </trkpt>
      <trkpt lat="38.36558" lon="-2.3257316666666665">
        <ele>987</ele>
        <time>2014-08-24T08:50:39.25</time>
      </trkpt>
      <trkpt lat="38.365545" lon="-2.32577">
        <ele>988</ele>
        <time>2014-08-24T08:50:46.29</time>
      </trkpt>
      <trkpt lat="38.36554" lon="-2.325765">
        <ele>988</ele>
        <time>2014-08-24T08:50:49.32</time>
      </trkpt>
      <trkpt lat="38.36551" lon="-2.325775">
        <ele>991</ele>
        <time>2014-08-24T08:50:59.24</time>
      </trkpt>
      <trkpt lat="38.36551" lon="-2.32577">
        <ele>990</ele>
        <time>2014-08-24T08:51:00.25</time>
      </trkpt>
      <trkpt lat="38.365495" lon="-2.325805">
        <ele>992</ele>
        <time>2014-08-24T08:51:12.30</time>
      </trkpt>
      <trkpt lat="38.365495" lon="-2.325805">
        <ele>992</ele>
        <time>2014-08-24T08:51:13.28</time>
      </trkpt>
      <trkpt lat="38.365495" lon="-2.325825">
        <ele>995</ele>
        <time>2014-08-24T08:51:23.28</time>
      </trkpt>
      <trkpt lat="38.365495" lon="-2.325825">
        <ele>995</ele>
        <time>2014-08-24T08:51:24.28</time>
      </trkpt>
      <trkpt lat="38.36555" lon="-2.32576">
        <ele>992</ele>
        <time>2014-08-24T08:51:49.25</time>
      </trkpt>
      <trkpt lat="38.365555" lon="-2.32576">
        <ele>993</ele>
        <time>2014-08-24T08:51:56.24</time>
      </trkpt>
      <trkpt lat="38.365555" lon="-2.325775">
        <ele>993</ele>
        <time>2014-08-24T08:52:09.30</time>
      </trkpt>
      <trkpt lat="38.365555" lon="-2.325775">
        <ele>993</ele>
        <time>2014-08-24T08:52:10.27</time>
      </trkpt>
      <trkpt lat="38.36555" lon="-2.32579">
        <ele>994</ele>
        <time>2014-08-24T08:53:04.25</time>
      </trkpt>
      <trkpt lat="38.36555" lon="-2.32579">
        <ele>994</ele>
        <time>2014-08-24T08:53:05.29</time>
      </trkpt>
      <trkpt lat="38.36553" lon="-2.325805">
        <ele>992</ele>
        <time>2014-08-24T08:53:19.32</time>
      </trkpt>
      <trkpt lat="38.36553" lon="-2.325805">
        <ele>992</ele>
        <time>2014-08-24T08:53:20.31</time>
      </trkpt>
      <trkpt lat="38.36556" lon="-2.32578">
        <ele>996</ele>
        <time>2014-08-24T08:53:38.26</time>
      </trkpt>
      <trkpt lat="38.36556" lon="-2.325775">
        <ele>997</ele>
        <time>2014-08-24T08:53:39.18</time>
      </trkpt>
      <trkpt lat="38.36556" lon="-2.325775">
        <ele>996</ele>
        <time>2014-08-24T08:53:50.23</time>
      </trkpt>
      <trkpt lat="38.365555" lon="-2.32578">
        <ele>996</ele>
        <time>2014-08-24T08:53:51.30</time>
      </trkpt>
      <trkpt lat="38.365545" lon="-2.325775">
        <ele>995</ele>
        <time>2014-08-24T08:54:02.42</time>
      </trkpt>
      <trkpt lat="38.365545" lon="-2.32578">
        <ele>995</ele>
        <time>2014-08-24T08:54:03.30</time>
      </trkpt>
      <trkpt lat="38.365485" lon="-2.32587">
        <ele>994</ele>
        <time>2014-08-24T08:54:08.29</time>
      </trkpt>
      <trkpt lat="38.36544" lon="-2.32598">
        <ele>994</ele>
        <time>2014-08-24T08:54:10.30</time>
      </trkpt>
      <trkpt lat="38.36541" lon="-2.326075">
        <ele>993</ele>
        <time>2014-08-24T08:54:11.25</time>
      </trkpt>
      <trkpt lat="38.365375" lon="-2.32623">
        <ele>990</ele>
        <time>2014-08-24T08:54:13.28</time>
      </trkpt>
      <trkpt lat="38.365345" lon="-2.32638">
        <ele>990</ele>
        <time>2014-08-24T08:54:15.30</time>
      </trkpt>
      <trkpt lat="38.365305" lon="-2.326525">
        <ele>988</ele>
        <time>2014-08-24T08:54:17.29</time>
      </trkpt>
      <trkpt lat="38.365265" lon="-2.32668">
        <ele>988</ele>
        <time>2014-08-24T08:54:19.28</time>
      </trkpt>
      <trkpt lat="38.36520333333333" lon="-2.326845">
        <ele>987</ele>
        <time>2014-08-24T08:54:21.30</time>
      </trkpt>
      <trkpt lat="38.36517" lon="-2.326931666666667">
        <ele>986</ele>
        <time>2014-08-24T08:54:22.29</time>
      </trkpt>
      <trkpt lat="38.36513" lon="-2.327035">
        <ele>986</ele>
        <time>2014-08-24T08:54:23.25</time>
      </trkpt>
      <trkpt lat="38.365095" lon="-2.32713">
        <ele>985</ele>
        <time>2014-08-24T08:54:24.25</time>
      </trkpt>
      <trkpt lat="38.36506" lon="-2.327235">
        <ele>985</ele>
        <time>2014-08-24T08:54:25.22</time>
      </trkpt>
      <trkpt lat="38.36502" lon="-2.32735">
        <ele>984</ele>
        <time>2014-08-24T08:54:26.23</time>
      </trkpt>
      <trkpt lat="38.36498" lon="-2.327455">
        <ele>983</ele>
        <time>2014-08-24T08:54:27.23</time>
      </trkpt>
      <trkpt lat="38.364945" lon="-2.32757">
        <ele>983</ele>
        <time>2014-08-24T08:54:28.30</time>
      </trkpt>
      <trkpt lat="38.3649" lon="-2.3277">
        <ele>982</ele>
        <time>2014-08-24T08:54:29.25</time>
      </trkpt>
      <trkpt lat="38.364855" lon="-2.32782">
        <ele>981</ele>
        <time>2014-08-24T08:54:30.31</time>
      </trkpt>
      <trkpt lat="38.36481" lon="-2.327945">
        <ele>981</ele>
        <time>2014-08-24T08:54:31.31</time>
      </trkpt>
      <trkpt lat="38.36475166666666" lon="-2.3280666666666665">
        <ele>981</ele>
        <time>2014-08-24T08:54:32.18</time>
      </trkpt>
      <trkpt lat="38.3647" lon="-2.328195">
        <ele>980</ele>
        <time>2014-08-24T08:54:33.18</time>
      </trkpt>
      <trkpt lat="38.364635" lon="-2.328315">
        <ele>979</ele>
        <time>2014-08-24T08:54:34.18</time>
      </trkpt>
      <trkpt lat="38.36457" lon="-2.3284233333333333">
        <ele>978</ele>
        <time>2014-08-24T08:54:35.23</time>
      </trkpt>
      <trkpt lat="38.364495" lon="-2.32852">
        <ele>978</ele>
        <time>2014-08-24T08:54:36.22</time>
      </trkpt>
      <trkpt lat="38.36442" lon="-2.328605">
        <ele>978</ele>
        <time>2014-08-24T08:54:37.24</time>
      </trkpt>
      <trkpt lat="38.36434" lon="-2.32868">
        <ele>978</ele>
        <time>2014-08-24T08:54:38.37</time>
      </trkpt>
      <trkpt lat="38.36424" lon="-2.32874">
        <ele>978</ele>
        <time>2014-08-24T08:54:39.26</time>
      </trkpt>
      <trkpt lat="38.36414666666667" lon="-2.32878">
        <ele>976</ele>
        <time>2014-08-24T08:54:40.18</time>
      </trkpt>
      <trkpt lat="38.364045" lon="-2.328805">
        <ele>975</ele>
        <time>2014-08-24T08:54:41.18</time>
      </trkpt>
      <trkpt lat="38.363935" lon="-2.328825">
        <ele>974</ele>
        <time>2014-08-24T08:54:42.19</time>
      </trkpt>
      <trkpt lat="38.36383" lon="-2.328825">
        <ele>973</ele>
        <time>2014-08-24T08:54:43.19</time>
      </trkpt>
      <trkpt lat="38.36372" lon="-2.32883">
        <ele>972</ele>
        <time>2014-08-24T08:54:44.36</time>
      </trkpt>
      <trkpt lat="38.36361" lon="-2.32884">
        <ele>970</ele>
        <time>2014-08-24T08:54:45.18</time>
      </trkpt>
      <trkpt lat="38.363505" lon="-2.32882">
        <ele>969</ele>
        <time>2014-08-24T08:54:46.18</time>
      </trkpt>
      <trkpt lat="38.363405" lon="-2.3287750000000003">
        <ele>968</ele>
        <time>2014-08-24T08:54:47.29</time>
      </trkpt>
      <trkpt lat="38.363308333333336" lon="-2.32873">
        <ele>967</ele>
        <time>2014-08-24T08:54:48.38</time>
      </trkpt>
      <trkpt lat="38.36322" lon="-2.32868">
        <ele>966</ele>
        <time>2014-08-24T08:54:49.24</time>
      </trkpt>
      <trkpt lat="38.36313" lon="-2.328655">
        <ele>966</ele>
        <time>2014-08-24T08:54:50.25</time>
      </trkpt>
      <trkpt lat="38.36302666666667" lon="-2.328645">
        <ele>965</ele>
        <time>2014-08-24T08:54:51.25</time>
      </trkpt>
      <trkpt lat="38.36294" lon="-2.328645">
        <ele>965</ele>
        <time>2014-08-24T08:54:52.25</time>
      </trkpt>
      <trkpt lat="38.36285" lon="-2.32865">
        <ele>964</ele>
        <time>2014-08-24T08:54:53.29</time>
      </trkpt>
      <trkpt lat="38.362775" lon="-2.328645">
        <ele>964</ele>
        <time>2014-08-24T08:54:54.28</time>
      </trkpt>
      <trkpt lat="38.3627" lon="-2.328645">
        <ele>964</ele>
        <time>2014-08-24T08:54:55.42</time>
      </trkpt>
      <trkpt lat="38.36256" lon="-2.3286350000000002">
        <ele>963</ele>
        <time>2014-08-24T08:54:57.24</time>
      </trkpt>
      <trkpt lat="38.36249" lon="-2.32862">
        <ele>962</ele>
        <time>2014-08-24T08:54:58.23</time>
      </trkpt>
      <trkpt lat="38.362415" lon="-2.3286">
        <ele>961</ele>
        <time>2014-08-24T08:54:59.19</time>
      </trkpt>
      <trkpt lat="38.362285" lon="-2.328535">
        <ele>961</ele>
        <time>2014-08-24T08:55:01.23</time>
      </trkpt>
      <trkpt lat="38.36219" lon="-2.32841">
        <ele>961</ele>
        <time>2014-08-24T08:55:03.32</time>
      </trkpt>
      <trkpt lat="38.362155" lon="-2.328325">
        <ele>960</ele>
        <time>2014-08-24T08:55:04.37</time>
      </trkpt>
      <trkpt lat="38.36213" lon="-2.32823">
        <ele>960</ele>
        <time>2014-08-24T08:55:05.24</time>
      </trkpt>
      <trkpt lat="38.362105" lon="-2.32813">
        <ele>960</ele>
        <time>2014-08-24T08:55:06.24</time>
      </trkpt>
      <trkpt lat="38.362095" lon="-2.328015">
        <ele>961</ele>
        <time>2014-08-24T08:55:07.29</time>
      </trkpt>
      <trkpt lat="38.362075" lon="-2.327905">
        <ele>961</ele>
        <time>2014-08-24T08:55:08.18</time>
      </trkpt>
      <trkpt lat="38.36204333333333" lon="-2.32781">
        <ele>960</ele>
        <time>2014-08-24T08:55:09.24</time>
      </trkpt>
      <trkpt lat="38.362005" lon="-2.327635">
        <ele>961</ele>
        <time>2014-08-24T08:55:11.24</time>
      </trkpt>
      <trkpt lat="38.361985" lon="-2.32754">
        <ele>961</ele>
        <time>2014-08-24T08:55:12.27</time>
      </trkpt>
      <trkpt lat="38.361955" lon="-2.327455">
        <ele>961</ele>
        <time>2014-08-24T08:55:13.38</time>
      </trkpt>
      <trkpt lat="38.36192" lon="-2.32736">
        <ele>961</ele>
        <time>2014-08-24T08:55:14.24</time>
      </trkpt>
      <trkpt lat="38.361885" lon="-2.32728">
        <ele>961</ele>
        <time>2014-08-24T08:55:15.23</time>
      </trkpt>
      <trkpt lat="38.36182" lon="-2.327185">
        <ele>960</ele>
        <time>2014-08-24T08:55:16.25</time>
      </trkpt>
      <trkpt lat="38.361755" lon="-2.3271100000000002">
        <ele>959</ele>
        <time>2014-08-24T08:55:17.24</time>
      </trkpt>
      <trkpt lat="38.36169" lon="-2.32704">
        <ele>959</ele>
        <time>2014-08-24T08:55:18.30</time>
      </trkpt>
      <trkpt lat="38.36161" lon="-2.326975">
        <ele>959</ele>
        <time>2014-08-24T08:55:19.25</time>
      </trkpt>
      <trkpt lat="38.36152" lon="-2.326915">
        <ele>957</ele>
        <time>2014-08-24T08:55:20.29</time>
      </trkpt>
      <trkpt lat="38.36142" lon="-2.32687">
        <ele>957</ele>
        <time>2014-08-24T08:55:21.23</time>
      </trkpt>
      <trkpt lat="38.36133" lon="-2.326855">
        <ele>956</ele>
        <time>2014-08-24T08:55:22.26</time>
      </trkpt>
      <trkpt lat="38.36123" lon="-2.32685">
        <ele>956</ele>
        <time>2014-08-24T08:55:23.32</time>
      </trkpt>
      <trkpt lat="38.361126666666664" lon="-2.32686">
        <ele>955</ele>
        <time>2014-08-24T08:55:24.24</time>
      </trkpt>
      <trkpt lat="38.36103" lon="-2.32689">
        <ele>954</ele>
        <time>2014-08-24T08:55:25.29</time>
      </trkpt>
      <trkpt lat="38.360925" lon="-2.32693">
        <ele>953</ele>
        <time>2014-08-24T08:55:26.24</time>
      </trkpt>
      <trkpt lat="38.360825" lon="-2.327">
        <ele>953</ele>
        <time>2014-08-24T08:55:27.24</time>
      </trkpt>
      <trkpt lat="38.360731666666666" lon="-2.3270833333333334">
        <ele>952</ele>
        <time>2014-08-24T08:55:28.24</time>
      </trkpt>
      <trkpt lat="38.360655" lon="-2.32719">
        <ele>951</ele>
        <time>2014-08-24T08:55:29.29</time>
      </trkpt>
      <trkpt lat="38.36058" lon="-2.3273099999999998">
        <ele>951</ele>
        <time>2014-08-24T08:55:30.32</time>
      </trkpt>
      <trkpt lat="38.360506666666666" lon="-2.32743">
        <ele>951</ele>
        <time>2014-08-24T08:55:31.26</time>
      </trkpt>
      <trkpt lat="38.36045" lon="-2.327565">
        <ele>951</ele>
        <time>2014-08-24T08:55:32.30</time>
      </trkpt>
      <trkpt lat="38.360385" lon="-2.327695">
        <ele>950</ele>
        <time>2014-08-24T08:55:33.24</time>
      </trkpt>
      <trkpt lat="38.36032" lon="-2.327825">
        <ele>949</ele>
        <time>2014-08-24T08:55:34.31</time>
      </trkpt>
      <trkpt lat="38.360265" lon="-2.32795">
        <ele>949</ele>
        <time>2014-08-24T08:55:35.32</time>
      </trkpt>
      <trkpt lat="38.3602" lon="-2.328065">
        <ele>948</ele>
        <time>2014-08-24T08:55:36.28</time>
      </trkpt>
      <trkpt lat="38.360135" lon="-2.328175">
        <ele>948</ele>
        <time>2014-08-24T08:55:37.31</time>
      </trkpt>
      <trkpt lat="38.36005333333333" lon="-2.32827">
        <ele>947</ele>
        <time>2014-08-24T08:55:38.27</time>
      </trkpt>
      <trkpt lat="38.35997" lon="-2.3283533333333333">
        <ele>947</ele>
        <time>2014-08-24T08:55:39.31</time>
      </trkpt>
      <trkpt lat="38.359885" lon="-2.32844">
        <ele>947</ele>
        <time>2014-08-24T08:55:40.24</time>
      </trkpt>
      <trkpt lat="38.359795" lon="-2.328525">
        <ele>947</ele>
        <time>2014-08-24T08:55:41.32</time>
      </trkpt>
      <trkpt lat="38.35972" lon="-2.328605">
        <ele>947</ele>
        <time>2014-08-24T08:55:42.28</time>
      </trkpt>
      <trkpt lat="38.35964" lon="-2.328691666666667">
        <ele>946</ele>
        <time>2014-08-24T08:55:43.43</time>
      </trkpt>
      <trkpt lat="38.35956" lon="-2.3287816666666665">
        <ele>946</ele>
        <time>2014-08-24T08:55:44.30</time>
      </trkpt>
      <trkpt lat="38.359485" lon="-2.328865">
        <ele>946</ele>
        <time>2014-08-24T08:55:45.29</time>
      </trkpt>
      <trkpt lat="38.359415" lon="-2.32895">
        <ele>946</ele>
        <time>2014-08-24T08:55:46.20</time>
      </trkpt>
      <trkpt lat="38.35935" lon="-2.32905">
        <ele>946</ele>
        <time>2014-08-24T08:55:47.27</time>
      </trkpt>
      <trkpt lat="38.35929" lon="-2.32916">
        <ele>945</ele>
        <time>2014-08-24T08:55:48.23</time>
      </trkpt>
      <trkpt lat="38.359255" lon="-2.329275">
        <ele>944</ele>
        <time>2014-08-24T08:55:49.22</time>
      </trkpt>
      <trkpt lat="38.359235" lon="-2.3294">
        <ele>944</ele>
        <time>2014-08-24T08:55:50.22</time>
      </trkpt>
      <trkpt lat="38.359228333333334" lon="-2.329535">
        <ele>943</ele>
        <time>2014-08-24T08:55:51.22</time>
      </trkpt>
      <trkpt lat="38.359245" lon="-2.32966">
        <ele>943</ele>
        <time>2014-08-24T08:55:52.30</time>
      </trkpt>
      <trkpt lat="38.359275" lon="-2.329775">
        <ele>943</ele>
        <time>2014-08-24T08:55:53.30</time>
      </trkpt>
      <trkpt lat="38.359298333333335" lon="-2.32989">
        <ele>942</ele>
        <time>2014-08-24T08:55:54.25</time>
      </trkpt>
      <trkpt lat="38.359325" lon="-2.330005">
        <ele>942</ele>
        <time>2014-08-24T08:55:55.30</time>
      </trkpt>
      <trkpt lat="38.359345" lon="-2.330125">
        <ele>942</ele>
        <time>2014-08-24T08:55:56.24</time>
      </trkpt>
      <trkpt lat="38.359355" lon="-2.33024">
        <ele>942</ele>
        <time>2014-08-24T08:55:57.31</time>
      </trkpt>
      <trkpt lat="38.35936" lon="-2.330355">
        <ele>942</ele>
        <time>2014-08-24T08:55:58.24</time>
      </trkpt>
      <trkpt lat="38.359355" lon="-2.3304650000000002">
        <ele>942</ele>
        <time>2014-08-24T08:55:59.43</time>
      </trkpt>
      <trkpt lat="38.35935" lon="-2.3305783333333334">
        <ele>942</ele>
        <time>2014-08-24T08:56:00.23</time>
      </trkpt>
      <trkpt lat="38.35935" lon="-2.330685">
        <ele>941</ele>
        <time>2014-08-24T08:56:01.27</time>
      </trkpt>
      <trkpt lat="38.359335" lon="-2.33079">
        <ele>941</ele>
        <time>2014-08-24T08:56:02.30</time>
      </trkpt>
      <trkpt lat="38.359285" lon="-2.33093">
        <ele>941</ele>
        <time>2014-08-24T08:56:04.30</time>
      </trkpt>
      <trkpt lat="38.359195" lon="-2.33101">
        <ele>941</ele>
        <time>2014-08-24T08:56:06.27</time>
      </trkpt>
      <trkpt lat="38.35908" lon="-2.33101">
        <ele>942</ele>
        <time>2014-08-24T08:56:08.29</time>
      </trkpt>
      <trkpt lat="38.35896" lon="-2.330955">
        <ele>941</ele>
        <time>2014-08-24T08:56:10.32</time>
      </trkpt>
      <trkpt lat="38.35883" lon="-2.33092">
        <ele>941</ele>
        <time>2014-08-24T08:56:12.24</time>
      </trkpt>
      <trkpt lat="38.35869" lon="-2.330925">
        <ele>941</ele>
        <time>2014-08-24T08:56:14.29</time>
      </trkpt>
      <trkpt lat="38.35856" lon="-2.330965">
        <ele>940</ele>
        <time>2014-08-24T08:56:16.43</time>
      </trkpt>
      <trkpt lat="38.35842" lon="-2.331005">
        <ele>940</ele>
        <time>2014-08-24T08:56:18.29</time>
      </trkpt>
      <trkpt lat="38.358285" lon="-2.331005">
        <ele>940</ele>
        <time>2014-08-24T08:56:20.31</time>
      </trkpt>
      <trkpt lat="38.358155" lon="-2.331">
        <ele>939</ele>
        <time>2014-08-24T08:56:22.44</time>
      </trkpt>
      <trkpt lat="38.35803" lon="-2.331">
        <ele>938</ele>
        <time>2014-08-24T08:56:24.28</time>
      </trkpt>
      <trkpt lat="38.35791" lon="-2.33101">
        <ele>938</ele>
        <time>2014-08-24T08:56:26.27</time>
      </trkpt>
      <trkpt lat="38.35779" lon="-2.331055">
        <ele>938</ele>
        <time>2014-08-24T08:56:28.23</time>
      </trkpt>
      <trkpt lat="38.35768" lon="-2.33114">
        <ele>938</ele>
        <time>2014-08-24T08:56:30.20</time>
      </trkpt>
      <trkpt lat="38.35758" lon="-2.3312283333333332">
        <ele>938</ele>
        <time>2014-08-24T08:56:32.22</time>
      </trkpt>
      <trkpt lat="38.35749" lon="-2.331325">
        <ele>938</ele>
        <time>2014-08-24T08:56:34.18</time>
      </trkpt>
      <trkpt lat="38.35741" lon="-2.331435">
        <ele>938</ele>
        <time>2014-08-24T08:56:36.32</time>
      </trkpt>
      <trkpt lat="38.357328333333335" lon="-2.331545">
        <ele>938</ele>
        <time>2014-08-24T08:56:38.22</time>
      </trkpt>
      <trkpt lat="38.357245" lon="-2.33165">
        <ele>937</ele>
        <time>2014-08-24T08:56:40.23</time>
      </trkpt>
      <trkpt lat="38.357165" lon="-2.33175">
        <ele>937</ele>
        <time>2014-08-24T08:56:42.23</time>
      </trkpt>
      <trkpt lat="38.35708" lon="-2.331845">
        <ele>938</ele>
        <time>2014-08-24T08:56:44.23</time>
      </trkpt>
      <trkpt lat="38.35699" lon="-2.33196">
        <ele>937</ele>
        <time>2014-08-24T08:56:46.23</time>
      </trkpt>
      <trkpt lat="38.356895" lon="-2.332075">
        <ele>937</ele>
        <time>2014-08-24T08:56:48.23</time>
      </trkpt>
      <trkpt lat="38.356815" lon="-2.33218">
        <ele>938</ele>
        <time>2014-08-24T08:56:50.29</time>
      </trkpt>
      <trkpt lat="38.35673" lon="-2.3323">
        <ele>938</ele>
        <time>2014-08-24T08:56:52.30</time>
      </trkpt>
      <trkpt lat="38.35664" lon="-2.33242">
        <ele>938</ele>
        <time>2014-08-24T08:56:54.28</time>
      </trkpt>
      <trkpt lat="38.356545" lon="-2.332545">
        <ele>938</ele>
        <time>2014-08-24T08:56:56.29</time>
      </trkpt>
      <trkpt lat="38.35648" lon="-2.3327">
        <ele>938</ele>
        <time>2014-08-24T08:56:58.26</time>
      </trkpt>
      <trkpt lat="38.35645" lon="-2.332865">
        <ele>937</ele>
        <time>2014-08-24T08:57:00.23</time>
      </trkpt>
      <trkpt lat="38.356455" lon="-2.33304">
        <ele>937</ele>
        <time>2014-08-24T08:57:02.27</time>
      </trkpt>
      <trkpt lat="38.35646" lon="-2.33322">
        <ele>936</ele>
        <time>2014-08-24T08:57:04.27</time>
      </trkpt>
      <trkpt lat="38.35645" lon="-2.33339">
        <ele>936</ele>
        <time>2014-08-24T08:57:06.28</time>
      </trkpt>
      <trkpt lat="38.356425" lon="-2.333555">
        <ele>936</ele>
        <time>2014-08-24T08:57:08.29</time>
      </trkpt>
      <trkpt lat="38.356375" lon="-2.3337">
        <ele>936</ele>
        <time>2014-08-24T08:57:10.30</time>
      </trkpt>
      <trkpt lat="38.35627" lon="-2.333815">
        <ele>936</ele>
        <time>2014-08-24T08:57:12.27</time>
      </trkpt>
      <trkpt lat="38.356155" lon="-2.333895">
        <ele>936</ele>
        <time>2014-08-24T08:57:14.23</time>
      </trkpt>
      <trkpt lat="38.35602" lon="-2.333935">
        <ele>937</ele>
        <time>2014-08-24T08:57:16.23</time>
      </trkpt>
      <trkpt lat="38.35588666666666" lon="-2.33393">
        <ele>937</ele>
        <time>2014-08-24T08:57:18.26</time>
      </trkpt>
      <trkpt lat="38.355765" lon="-2.33388">
        <ele>938</ele>
        <time>2014-08-24T08:57:20.29</time>
      </trkpt>
      <trkpt lat="38.355635" lon="-2.3338200000000002">
        <ele>938</ele>
        <time>2014-08-24T08:57:22.30</time>
      </trkpt>
      <trkpt lat="38.355505" lon="-2.33378">
        <ele>939</ele>
        <time>2014-08-24T08:57:24.26</time>
      </trkpt>
      <trkpt lat="38.35537" lon="-2.333745">
        <ele>939</ele>
        <time>2014-08-24T08:57:26.28</time>
      </trkpt>
      <trkpt lat="38.355235" lon="-2.333711666666667">
        <ele>938</ele>
        <time>2014-08-24T08:57:28.29</time>
      </trkpt>
      <trkpt lat="38.355095" lon="-2.333685">
        <ele>938</ele>
        <time>2014-08-24T08:57:30.23</time>
      </trkpt>
      <trkpt lat="38.35497" lon="-2.33362">
        <ele>938</ele>
        <time>2014-08-24T08:57:32.22</time>
      </trkpt>
      <trkpt lat="38.35486" lon="-2.33354">
        <ele>938</ele>
        <time>2014-08-24T08:57:34.22</time>
      </trkpt>
      <trkpt lat="38.35474" lon="-2.333495">
        <ele>938</ele>
        <time>2014-08-24T08:57:36.22</time>
      </trkpt>
      <trkpt lat="38.354596666666666" lon="-2.33349">
        <ele>938</ele>
        <time>2014-08-24T08:57:38.22</time>
      </trkpt>
      <trkpt lat="38.354475" lon="-2.3335383333333333">
        <ele>938</ele>
        <time>2014-08-24T08:57:40.30</time>
      </trkpt>
      <trkpt lat="38.35436" lon="-2.333625">
        <ele>938</ele>
        <time>2014-08-24T08:57:42.40</time>
      </trkpt>
      <trkpt lat="38.35426" lon="-2.33373">
        <ele>938</ele>
        <time>2014-08-24T08:57:44.23</time>
      </trkpt>
      <trkpt lat="38.354165" lon="-2.333845">
        <ele>937</ele>
        <time>2014-08-24T08:57:46.18</time>
      </trkpt>
      <trkpt lat="38.3541" lon="-2.333965">
        <ele>938</ele>
        <time>2014-08-24T08:57:48.23</time>
      </trkpt>
      <trkpt lat="38.354035" lon="-2.334085">
        <ele>937</ele>
        <time>2014-08-24T08:57:50.23</time>
      </trkpt>
      <trkpt lat="38.35399" lon="-2.334205">
        <ele>937</ele>
        <time>2014-08-24T08:57:52.23</time>
      </trkpt>
      <trkpt lat="38.353955" lon="-2.3343433333333334">
        <ele>936</ele>
        <time>2014-08-24T08:57:54.23</time>
      </trkpt>
      <trkpt lat="38.353915" lon="-2.33447">
        <ele>935</ele>
        <time>2014-08-24T08:57:56.47</time>
      </trkpt>
      <trkpt lat="38.35388" lon="-2.33461">
        <ele>934</ele>
        <time>2014-08-24T08:57:58.20</time>
      </trkpt>
      <trkpt lat="38.35385" lon="-2.33476">
        <ele>932</ele>
        <time>2014-08-24T08:58:00.23</time>
      </trkpt>
      <trkpt lat="38.353825" lon="-2.33491">
        <ele>930</ele>
        <time>2014-08-24T08:58:02.20</time>
      </trkpt>
      <trkpt lat="38.35378" lon="-2.335045">
        <ele>929</ele>
        <time>2014-08-24T08:58:04.22</time>
      </trkpt>
      <trkpt lat="38.353685" lon="-2.3351566666666668">
        <ele>929</ele>
        <time>2014-08-24T08:58:06.21</time>
      </trkpt>
      <trkpt lat="38.353565" lon="-2.33522">
        <ele>928</ele>
        <time>2014-08-24T08:58:08.19</time>
      </trkpt>
      <trkpt lat="38.35344" lon="-2.335245">
        <ele>927</ele>
        <time>2014-08-24T08:58:10.26</time>
      </trkpt>
      <trkpt lat="38.3533" lon="-2.33522">
        <ele>926</ele>
        <time>2014-08-24T08:58:12.19</time>
      </trkpt>
      <trkpt lat="38.353225" lon="-2.33522">
        <ele>926</ele>
        <time>2014-08-24T08:58:13.18</time>
      </trkpt>
      <trkpt lat="38.353155" lon="-2.335205">
        <ele>927</ele>
        <time>2014-08-24T08:58:14.23</time>
      </trkpt>
      <trkpt lat="38.353078333333336" lon="-2.335165">
        <ele>928</ele>
        <time>2014-08-24T08:58:15.21</time>
      </trkpt>
      <trkpt lat="38.35303" lon="-2.33509">
        <ele>928</ele>
        <time>2014-08-24T08:58:16.21</time>
      </trkpt>
      <trkpt lat="38.353" lon="-2.334995">
        <ele>928</ele>
        <time>2014-08-24T08:58:17.21</time>
      </trkpt>
      <trkpt lat="38.35299" lon="-2.3348883333333332">
        <ele>929</ele>
        <time>2014-08-24T08:58:18.21</time>
      </trkpt>
      <trkpt lat="38.35298" lon="-2.33479">
        <ele>928</ele>
        <time>2014-08-24T08:58:19.17</time>
      </trkpt>
      <trkpt lat="38.35297" lon="-2.33469">
        <ele>928</ele>
        <time>2014-08-24T08:58:20.18</time>
      </trkpt>
      <trkpt lat="38.35296" lon="-2.33458">
        <ele>928</ele>
        <time>2014-08-24T08:58:21.28</time>
      </trkpt>
      <trkpt lat="38.35295" lon="-2.33447">
        <ele>929</ele>
        <time>2014-08-24T08:58:22.19</time>
      </trkpt>
      <trkpt lat="38.352945" lon="-2.334355">
        <ele>929</ele>
        <time>2014-08-24T08:58:23.20</time>
      </trkpt>
      <trkpt lat="38.35293333333333" lon="-2.33425">
        <ele>930</ele>
        <time>2014-08-24T08:58:24.20</time>
      </trkpt>
      <trkpt lat="38.352925" lon="-2.33415">
        <ele>930</ele>
        <time>2014-08-24T08:58:25.19</time>
      </trkpt>
      <trkpt lat="38.352925" lon="-2.334035">
        <ele>930</ele>
        <time>2014-08-24T08:58:26.58</time>
      </trkpt>
      <trkpt lat="38.35293333333333" lon="-2.333925">
        <ele>930</ele>
        <time>2014-08-24T08:58:27.31</time>
      </trkpt>
      <trkpt lat="38.352955" lon="-2.3338083333333333">
        <ele>931</ele>
        <time>2014-08-24T08:58:28.23</time>
      </trkpt>
      <trkpt lat="38.35299" lon="-2.3337">
        <ele>931</ele>
        <time>2014-08-24T08:58:29.23</time>
      </trkpt>
      <trkpt lat="38.35303" lon="-2.333595">
        <ele>931</ele>
        <time>2014-08-24T08:58:30.22</time>
      </trkpt>
      <trkpt lat="38.353075" lon="-2.333485">
        <ele>931</ele>
        <time>2014-08-24T08:58:31.35</time>
      </trkpt>
      <trkpt lat="38.35312" lon="-2.33338">
        <ele>930</ele>
        <time>2014-08-24T08:58:32.18</time>
      </trkpt>
      <trkpt lat="38.35317" lon="-2.333285">
        <ele>930</ele>
        <time>2014-08-24T08:58:33.18</time>
      </trkpt>
      <trkpt lat="38.353215" lon="-2.333165">
        <ele>928</ele>
        <time>2014-08-24T08:58:34.22</time>
      </trkpt>
      <trkpt lat="38.353265" lon="-2.33306">
        <ele>928</ele>
        <time>2014-08-24T08:58:35.22</time>
      </trkpt>
      <trkpt lat="38.35331" lon="-2.33295">
        <ele>928</ele>
        <time>2014-08-24T08:58:36.18</time>
      </trkpt>
      <trkpt lat="38.35334" lon="-2.33283">
        <ele>927</ele>
        <time>2014-08-24T08:58:37.37</time>
      </trkpt>
      <trkpt lat="38.35337" lon="-2.33271">
        <ele>927</ele>
        <time>2014-08-24T08:58:38.22</time>
      </trkpt>
      <trkpt lat="38.353386666666665" lon="-2.332585">
        <ele>927</ele>
        <time>2014-08-24T08:58:39.21</time>
      </trkpt>
      <trkpt lat="38.353415" lon="-2.332465">
        <ele>926</ele>
        <time>2014-08-24T08:58:40.22</time>
      </trkpt>
      <trkpt lat="38.353435" lon="-2.33234">
        <ele>926</ele>
        <time>2014-08-24T08:58:41.22</time>
      </trkpt>
      <trkpt lat="38.353456666666666" lon="-2.33221">
        <ele>925</ele>
        <time>2014-08-24T08:58:42.19</time>
      </trkpt>
      <trkpt lat="38.35348" lon="-2.33208">
        <ele>925</ele>
        <time>2014-08-24T08:58:43.19</time>
      </trkpt>
      <trkpt lat="38.35351" lon="-2.331955">
        <ele>926</ele>
        <time>2014-08-24T08:58:44.20</time>
      </trkpt>
      <trkpt lat="38.35354" lon="-2.3318316666666665">
        <ele>925</ele>
        <time>2014-08-24T08:58:45.23</time>
      </trkpt>
      <trkpt lat="38.353575" lon="-2.33172">
        <ele>925</ele>
        <time>2014-08-24T08:58:46.23</time>
      </trkpt>
      <trkpt lat="38.353613333333335" lon="-2.331595">
        <ele>924</ele>
        <time>2014-08-24T08:58:47.23</time>
      </trkpt>
      <trkpt lat="38.35366" lon="-2.331475">
        <ele>924</ele>
        <time>2014-08-24T08:58:48.23</time>
      </trkpt>
      <trkpt lat="38.35369" lon="-2.331365">
        <ele>924</ele>
        <time>2014-08-24T08:58:49.36</time>
      </trkpt>
      <trkpt lat="38.353698333333334" lon="-2.33126">
        <ele>923</ele>
        <time>2014-08-24T08:58:50.23</time>
      </trkpt>
      <trkpt lat="38.353698333333334" lon="-2.331165">
        <ele>924</ele>
        <time>2014-08-24T08:58:51.30</time>
      </trkpt>
      <trkpt lat="38.353675" lon="-2.3310750000000002">
        <ele>923</ele>
        <time>2014-08-24T08:58:52.28</time>
      </trkpt>
      <trkpt lat="38.35362" lon="-2.33101">
        <ele>923</ele>
        <time>2014-08-24T08:58:53.22</time>
      </trkpt>
      <trkpt lat="38.35353666666666" lon="-2.330985">
        <ele>924</ele>
        <time>2014-08-24T08:58:54.22</time>
      </trkpt>
      <trkpt lat="38.35345" lon="-2.330965">
        <ele>923</ele>
        <time>2014-08-24T08:58:55.22</time>
      </trkpt>
      <trkpt lat="38.35336" lon="-2.33095">
        <ele>922</ele>
        <time>2014-08-24T08:58:56.22</time>
      </trkpt>
      <trkpt lat="38.35326" lon="-2.330935">
        <ele>921</ele>
        <time>2014-08-24T08:58:57.22</time>
      </trkpt>
      <trkpt lat="38.35315833333333" lon="-2.330925">
        <ele>920</ele>
        <time>2014-08-24T08:58:58.22</time>
      </trkpt>
      <trkpt lat="38.353055" lon="-2.330915">
        <ele>920</ele>
        <time>2014-08-24T08:58:59.22</time>
      </trkpt>
      <trkpt lat="38.352945" lon="-2.330905">
        <ele>919</ele>
        <time>2014-08-24T08:59:00.22</time>
      </trkpt>
      <trkpt lat="38.352835" lon="-2.3308983333333333">
        <ele>918</ele>
        <time>2014-08-24T08:59:01.22</time>
      </trkpt>
      <trkpt lat="38.35273" lon="-2.330895">
        <ele>917</ele>
        <time>2014-08-24T08:59:02.23</time>
      </trkpt>
      <trkpt lat="38.35262" lon="-2.330885">
        <ele>916</ele>
        <time>2014-08-24T08:59:03.22</time>
      </trkpt>
      <trkpt lat="38.352505" lon="-2.330875">
        <ele>915</ele>
        <time>2014-08-24T08:59:04.22</time>
      </trkpt>
      <trkpt lat="38.35239" lon="-2.33087">
        <ele>914</ele>
        <time>2014-08-24T08:59:05.22</time>
      </trkpt>
      <trkpt lat="38.35227" lon="-2.330861666666667">
        <ele>913</ele>
        <time>2014-08-24T08:59:06.39</time>
      </trkpt>
      <trkpt lat="38.35215" lon="-2.33086">
        <ele>912</ele>
        <time>2014-08-24T08:59:07.22</time>
      </trkpt>
      <trkpt lat="38.352035" lon="-2.330853333333333">
        <ele>911</ele>
        <time>2014-08-24T08:59:08.22</time>
      </trkpt>
      <trkpt lat="38.351925" lon="-2.330845">
        <ele>910</ele>
        <time>2014-08-24T08:59:09.18</time>
      </trkpt>
      <trkpt lat="38.35181" lon="-2.330835">
        <ele>910</ele>
        <time>2014-08-24T08:59:10.21</time>
      </trkpt>
      <trkpt lat="38.3517" lon="-2.330835">
        <ele>909</ele>
        <time>2014-08-24T08:59:11.21</time>
      </trkpt>
      <trkpt lat="38.351585" lon="-2.3308400000000002">
        <ele>907</ele>
        <time>2014-08-24T08:59:12.22</time>
      </trkpt>
      <trkpt lat="38.351475" lon="-2.330865">
        <ele>907</ele>
        <time>2014-08-24T08:59:13.22</time>
      </trkpt>
      <trkpt lat="38.351365" lon="-2.330905">
        <ele>906</ele>
        <time>2014-08-24T08:59:14.22</time>
      </trkpt>
      <trkpt lat="38.351255" lon="-2.330955">
        <ele>905</ele>
        <time>2014-08-24T08:59:15.22</time>
      </trkpt>
      <trkpt lat="38.35116" lon="-2.330985">
        <ele>905</ele>
        <time>2014-08-24T08:59:16.22</time>
      </trkpt>
      <trkpt lat="38.351075" lon="-2.331015">
        <ele>903</ele>
        <time>2014-08-24T08:59:17.30</time>
      </trkpt>
      <trkpt lat="38.350955" lon="-2.33102">
        <ele>903</ele>
        <time>2014-08-24T08:59:19.23</time>
      </trkpt>
      <trkpt lat="38.35086" lon="-2.3309100000000003">
        <ele>903</ele>
        <time>2014-08-24T08:59:21.28</time>
      </trkpt>
      <trkpt lat="38.35088" lon="-2.330725">
        <ele>903</ele>
        <time>2014-08-24T08:59:23.23</time>
      </trkpt>
      <trkpt lat="38.35093" lon="-2.33063">
        <ele>903</ele>
        <time>2014-08-24T08:59:24.22</time>
      </trkpt>
      <trkpt lat="38.35099" lon="-2.33055">
        <ele>902</ele>
        <time>2014-08-24T08:59:25.23</time>
      </trkpt>
      <trkpt lat="38.35105333333333" lon="-2.3304650000000002">
        <ele>902</ele>
        <time>2014-08-24T08:59:26.23</time>
      </trkpt>
      <trkpt lat="38.351115" lon="-2.330375">
        <ele>901</ele>
        <time>2014-08-24T08:59:27.23</time>
      </trkpt>
      <trkpt lat="38.35118" lon="-2.330275">
        <ele>901</ele>
        <time>2014-08-24T08:59:28.23</time>
      </trkpt>
      <trkpt lat="38.351245" lon="-2.330185">
        <ele>900</ele>
        <time>2014-08-24T08:59:29.24</time>
      </trkpt>
      <trkpt lat="38.351304999999996" lon="-2.330085">
        <ele>899</ele>
        <time>2014-08-24T08:59:30.23</time>
      </trkpt>
      <trkpt lat="38.35137" lon="-2.3299716666666668">
        <ele>899</ele>
        <time>2014-08-24T08:59:31.22</time>
      </trkpt>
      <trkpt lat="38.351416666666665" lon="-2.32986">
        <ele>898</ele>
        <time>2014-08-24T08:59:32.23</time>
      </trkpt>
      <trkpt lat="38.35146" lon="-2.329735">
        <ele>897</ele>
        <time>2014-08-24T08:59:33.23</time>
      </trkpt>
      <trkpt lat="38.3515" lon="-2.329605">
        <ele>897</ele>
        <time>2014-08-24T08:59:34.22</time>
      </trkpt>
      <trkpt lat="38.35152" lon="-2.329475">
        <ele>896</ele>
        <time>2014-08-24T08:59:35.23</time>
      </trkpt>
      <trkpt lat="38.351535" lon="-2.329355">
        <ele>895</ele>
        <time>2014-08-24T08:59:36.23</time>
      </trkpt>
      <trkpt lat="38.351525" lon="-2.32925">
        <ele>894</ele>
        <time>2014-08-24T08:59:37.23</time>
      </trkpt>
      <trkpt lat="38.351495" lon="-2.3291466666666665">
        <ele>894</ele>
        <time>2014-08-24T08:59:38.23</time>
      </trkpt>
      <trkpt lat="38.35145" lon="-2.3290683333333333">
        <ele>894</ele>
        <time>2014-08-24T08:59:39.23</time>
      </trkpt>
      <trkpt lat="38.351365" lon="-2.329025">
        <ele>893</ele>
        <time>2014-08-24T08:59:40.23</time>
      </trkpt>
      <trkpt lat="38.351276666666664" lon="-2.329015">
        <ele>892</ele>
        <time>2014-08-24T08:59:41.25</time>
      </trkpt>
      <trkpt lat="38.3512" lon="-2.329025">
        <ele>891</ele>
        <time>2014-08-24T08:59:42.23</time>
      </trkpt>
      <trkpt lat="38.35112" lon="-2.32905">
        <ele>890</ele>
        <time>2014-08-24T08:59:43.23</time>
      </trkpt>
      <trkpt lat="38.351045" lon="-2.329075">
        <ele>889</ele>
        <time>2014-08-24T08:59:44.29</time>
      </trkpt>
      <trkpt lat="38.35096" lon="-2.329095">
        <ele>888</ele>
        <time>2014-08-24T08:59:45.25</time>
      </trkpt>
      <trkpt lat="38.35087" lon="-2.32912">
        <ele>888</ele>
        <time>2014-08-24T08:59:46.28</time>
      </trkpt>
      <trkpt lat="38.350795" lon="-2.329135">
        <ele>887</ele>
        <time>2014-08-24T08:59:47.22</time>
      </trkpt>
      <trkpt lat="38.35068" lon="-2.3291">
        <ele>886</ele>
        <time>2014-08-24T08:59:49.21</time>
      </trkpt>
      <trkpt lat="38.350625" lon="-2.328945">
        <ele>886</ele>
        <time>2014-08-24T08:59:51.21</time>
      </trkpt>
      <trkpt lat="38.350625" lon="-2.32885">
        <ele>885</ele>
        <time>2014-08-24T08:59:52.21</time>
      </trkpt>
      <trkpt lat="38.350635" lon="-2.32875">
        <ele>884</ele>
        <time>2014-08-24T08:59:53.21</time>
      </trkpt>
      <trkpt lat="38.350656666666666" lon="-2.328645">
        <ele>884</ele>
        <time>2014-08-24T08:59:54.22</time>
      </trkpt>
      <trkpt lat="38.350685" lon="-2.328526666666667">
        <ele>883</ele>
        <time>2014-08-24T08:59:55.21</time>
      </trkpt>
      <trkpt lat="38.35072" lon="-2.32842">
        <ele>882</ele>
        <time>2014-08-24T08:59:56.22</time>
      </trkpt>
      <trkpt lat="38.35075" lon="-2.3283">
        <ele>882</ele>
        <time>2014-08-24T08:59:57.21</time>
      </trkpt>
      <trkpt lat="38.350775" lon="-2.328175">
        <ele>881</ele>
        <time>2014-08-24T08:59:58.21</time>
      </trkpt>
      <trkpt lat="38.35080833333333" lon="-2.32806">
        <ele>880</ele>
        <time>2014-08-24T08:59:59.21</time>
      </trkpt>
      <trkpt lat="38.35086" lon="-2.32794">
        <ele>879</ele>
        <time>2014-08-24T09:00:00.21</time>
      </trkpt>
      <trkpt lat="38.350925" lon="-2.327845">
        <ele>878</ele>
        <time>2014-08-24T09:00:01.21</time>
      </trkpt>
      <trkpt lat="38.350985" lon="-2.32776">
        <ele>877</ele>
        <time>2014-08-24T09:00:02.21</time>
      </trkpt>
      <trkpt lat="38.351045" lon="-2.32767">
        <ele>877</ele>
        <time>2014-08-24T09:00:03.21</time>
      </trkpt>
      <trkpt lat="38.351085" lon="-2.32756">
        <ele>876</ele>
        <time>2014-08-24T09:00:04.21</time>
      </trkpt>
      <trkpt lat="38.351105" lon="-2.327435">
        <ele>876</ele>
        <time>2014-08-24T09:00:05.23</time>
      </trkpt>
      <trkpt lat="38.35112" lon="-2.3273099999999998">
        <ele>875</ele>
        <time>2014-08-24T09:00:06.23</time>
      </trkpt>
      <trkpt lat="38.35112" lon="-2.327175">
        <ele>874</ele>
        <time>2014-08-24T09:00:07.21</time>
      </trkpt>
      <trkpt lat="38.351105" lon="-2.32705">
        <ele>874</ele>
        <time>2014-08-24T09:00:08.23</time>
      </trkpt>
      <trkpt lat="38.35108" lon="-2.32693">
        <ele>873</ele>
        <time>2014-08-24T09:00:09.23</time>
      </trkpt>
      <trkpt lat="38.35107" lon="-2.3268050000000002">
        <ele>873</ele>
        <time>2014-08-24T09:00:10.23</time>
      </trkpt>
      <trkpt lat="38.351085" lon="-2.32667">
        <ele>872</ele>
        <time>2014-08-24T09:00:11.24</time>
      </trkpt>
      <trkpt lat="38.351105" lon="-2.32654">
        <ele>871</ele>
        <time>2014-08-24T09:00:12.23</time>
      </trkpt>
      <trkpt lat="38.351135" lon="-2.32641">
        <ele>871</ele>
        <time>2014-08-24T09:00:13.23</time>
      </trkpt>
      <trkpt lat="38.351155" lon="-2.32627">
        <ele>870</ele>
        <time>2014-08-24T09:00:14.23</time>
      </trkpt>
      <trkpt lat="38.351165" lon="-2.326135">
        <ele>870</ele>
        <time>2014-08-24T09:00:15.23</time>
      </trkpt>
      <trkpt lat="38.35115" lon="-2.326">
        <ele>869</ele>
        <time>2014-08-24T09:00:16.23</time>
      </trkpt>
      <trkpt lat="38.35112" lon="-2.32588">
        <ele>869</ele>
        <time>2014-08-24T09:00:17.22</time>
      </trkpt>
      <trkpt lat="38.351095" lon="-2.32578">
        <ele>869</ele>
        <time>2014-08-24T09:00:18.21</time>
      </trkpt>
      <trkpt lat="38.351038333333335" lon="-2.32564">
        <ele>868</ele>
        <time>2014-08-24T09:00:20.21</time>
      </trkpt>
      <trkpt lat="38.351005" lon="-2.325555">
        <ele>868</ele>
        <time>2014-08-24T09:00:22.22</time>
      </trkpt>
      <trkpt lat="38.35095" lon="-2.32549">
        <ele>868</ele>
        <time>2014-08-24T09:00:25.27</time>
      </trkpt>
      <trkpt lat="38.35087" lon="-2.32545">
        <ele>867</ele>
        <time>2014-08-24T09:00:28.21</time>
      </trkpt>
      <trkpt lat="38.35081" lon="-2.325395">
        <ele>867</ele>
        <time>2014-08-24T09:00:30.21</time>
      </trkpt>
      <trkpt lat="38.350765" lon="-2.325285">
        <ele>868</ele>
        <time>2014-08-24T09:00:33.21</time>
      </trkpt>
      <trkpt lat="38.35075" lon="-2.32516">
        <ele>868</ele>
        <time>2014-08-24T09:00:36.22</time>
      </trkpt>
      <trkpt lat="38.35077" lon="-2.32503">
        <ele>867</ele>
        <time>2014-08-24T09:00:39.28</time>
      </trkpt>
      <trkpt lat="38.35073" lon="-2.324955">
        <ele>866</ele>
        <time>2014-08-24T09:00:46.23</time>
      </trkpt>
      <trkpt lat="38.35071" lon="-2.32495">
        <ele>865</ele>
        <time>2014-08-24T09:00:50.29</time>
      </trkpt>
      <trkpt lat="38.350695" lon="-2.324955">
        <ele>864</ele>
        <time>2014-08-24T09:01:01.28</time>
      </trkpt>
      <trkpt lat="38.3507" lon="-2.324955">
        <ele>864</ele>
        <time>2014-08-24T09:01:02.24</time>
      </trkpt>
      <trkpt lat="38.350715" lon="-2.32495">
        <ele>864</ele>
        <time>2014-08-24T09:01:14.24</time>
      </trkpt>
      <trkpt lat="38.350715" lon="-2.32495">
        <ele>864</ele>
        <time>2014-08-24T09:01:15.24</time>
      </trkpt>
      <trkpt lat="38.3507" lon="-2.3249283333333333">
        <ele>862</ele>
        <time>2014-08-24T09:01:39.22</time>
      </trkpt>
      <trkpt lat="38.350695" lon="-2.3249283333333333">
        <ele>861</ele>
        <time>2014-08-24T09:01:40.17</time>
      </trkpt>
      <trkpt lat="38.35069" lon="-2.324925">
        <ele>861</ele>
        <time>2014-08-24T09:01:53.26</time>
      </trkpt>
      <trkpt lat="38.35069" lon="-2.324925">
        <ele>861</ele>
        <time>2014-08-24T09:01:54.31</time>
      </trkpt>
      <trkpt lat="38.35065" lon="-2.32482">
        <ele>862</ele>
        <time>2014-08-24T09:02:12.23</time>
      </trkpt>
      <trkpt lat="38.350615" lon="-2.324735">
        <ele>862</ele>
        <time>2014-08-24T09:02:15.23</time>
      </trkpt>
      <trkpt lat="38.350575" lon="-2.32465">
        <ele>863</ele>
        <time>2014-08-24T09:02:18.22</time>
      </trkpt>
      <trkpt lat="38.350535" lon="-2.32456">
        <ele>863</ele>
        <time>2014-08-24T09:02:21.23</time>
      </trkpt>
      <trkpt lat="38.350485" lon="-2.32446">
        <ele>863</ele>
        <time>2014-08-24T09:02:24.29</time>
      </trkpt>
      <trkpt lat="38.350426666666664" lon="-2.324395">
        <ele>863</ele>
        <time>2014-08-24T09:02:26.18</time>
      </trkpt>
      <trkpt lat="38.350355" lon="-2.32435">
        <ele>862</ele>
        <time>2014-08-24T09:02:28.23</time>
      </trkpt>
      <trkpt lat="38.350245" lon="-2.3243650000000002">
        <ele>862</ele>
        <time>2014-08-24T09:02:30.23</time>
      </trkpt>
      <trkpt lat="38.350155" lon="-2.3244116666666668">
        <ele>861</ele>
        <time>2014-08-24T09:02:32.23</time>
      </trkpt>
      <trkpt lat="38.350065" lon="-2.324475">
        <ele>860</ele>
        <time>2014-08-24T09:02:34.22</time>
      </trkpt>
      <trkpt lat="38.34997" lon="-2.324535">
        <ele>860</ele>
        <time>2014-08-24T09:02:36.23</time>
      </trkpt>
      <trkpt lat="38.349865" lon="-2.32457">
        <ele>860</ele>
        <time>2014-08-24T09:02:38.23</time>
      </trkpt>
      <trkpt lat="38.349758333333334" lon="-2.3245883333333333">
        <ele>859</ele>
        <time>2014-08-24T09:02:40.23</time>
      </trkpt>
      <trkpt lat="38.34965" lon="-2.32461">
        <ele>858</ele>
        <time>2014-08-24T09:02:42.23</time>
      </trkpt>
      <trkpt lat="38.349545" lon="-2.324625">
        <ele>858</ele>
        <time>2014-08-24T09:02:44.41</time>
      </trkpt>
      <trkpt lat="38.349435" lon="-2.3246583333333333">
        <ele>858</ele>
        <time>2014-08-24T09:02:46.27</time>
      </trkpt>
      <trkpt lat="38.349325" lon="-2.32468">
        <ele>858</ele>
        <time>2014-08-24T09:02:48.29</time>
      </trkpt>
      <trkpt lat="38.34921833333333" lon="-2.32469">
        <ele>857</ele>
        <time>2014-08-24T09:02:50.39</time>
      </trkpt>
      <trkpt lat="38.34912" lon="-2.324685">
        <ele>857</ele>
        <time>2014-08-24T09:02:52.23</time>
      </trkpt>
      <trkpt lat="38.349015" lon="-2.324675">
        <ele>857</ele>
        <time>2014-08-24T09:02:54.25</time>
      </trkpt>
      <trkpt lat="38.348905" lon="-2.3246683333333333">
        <ele>857</ele>
        <time>2014-08-24T09:02:56.23</time>
      </trkpt>
      <trkpt lat="38.34879" lon="-2.32466">
        <ele>857</ele>
        <time>2014-08-24T09:02:58.30</time>
      </trkpt>
      <trkpt lat="38.348675" lon="-2.324645">
        <ele>857</ele>
        <time>2014-08-24T09:03:00.30</time>
      </trkpt>
      <trkpt lat="38.348555" lon="-2.32464">
        <ele>856</ele>
        <time>2014-08-24T09:03:02.40</time>
      </trkpt>
      <trkpt lat="38.348435" lon="-2.32464">
        <ele>855</ele>
        <time>2014-08-24T09:03:04.28</time>
      </trkpt>
      <trkpt lat="38.348305" lon="-2.3246583333333333">
        <ele>854</ele>
        <time>2014-08-24T09:03:06.25</time>
      </trkpt>
      <trkpt lat="38.34817" lon="-2.324685">
        <ele>854</ele>
        <time>2014-08-24T09:03:08.23</time>
      </trkpt>
      <trkpt lat="38.34804" lon="-2.32472">
        <ele>853</ele>
        <time>2014-08-24T09:03:10.23</time>
      </trkpt>
      <trkpt lat="38.347915" lon="-2.32476">
        <ele>852</ele>
        <time>2014-08-24T09:03:12.27</time>
      </trkpt>
      <trkpt lat="38.34781" lon="-2.32482">
        <ele>852</ele>
        <time>2014-08-24T09:03:14.42</time>
      </trkpt>
      <trkpt lat="38.347715" lon="-2.324915">
        <ele>851</ele>
        <time>2014-08-24T09:03:16.29</time>
      </trkpt>
      <trkpt lat="38.34765" lon="-2.3250450000000003">
        <ele>850</ele>
        <time>2014-08-24T09:03:18.27</time>
      </trkpt>
      <trkpt lat="38.347585" lon="-2.32519">
        <ele>848</ele>
        <time>2014-08-24T09:03:20.42</time>
      </trkpt>
      <trkpt lat="38.347525" lon="-2.32533">
        <ele>847</ele>
        <time>2014-08-24T09:03:22.24</time>
      </trkpt>
      <trkpt lat="38.34745" lon="-2.325455">
        <ele>847</ele>
        <time>2014-08-24T09:03:24.24</time>
      </trkpt>
      <trkpt lat="38.347345" lon="-2.32554">
        <ele>846</ele>
        <time>2014-08-24T09:03:26.23</time>
      </trkpt>
      <trkpt lat="38.34722" lon="-2.32559">
        <ele>845</ele>
        <time>2014-08-24T09:03:28.25</time>
      </trkpt>
      <trkpt lat="38.34708" lon="-2.325625">
        <ele>844</ele>
        <time>2014-08-24T09:03:30.23</time>
      </trkpt>
      <trkpt lat="38.34701" lon="-2.32564">
        <ele>843</ele>
        <time>2014-08-24T09:03:31.24</time>
      </trkpt>
      <trkpt lat="38.346865" lon="-2.325641666666667">
        <ele>843</ele>
        <time>2014-08-24T09:03:33.25</time>
      </trkpt>
      <trkpt lat="38.34679" lon="-2.325635">
        <ele>842</ele>
        <time>2014-08-24T09:03:34.30</time>
      </trkpt>
      <trkpt lat="38.346713333333334" lon="-2.32562">
        <ele>842</ele>
        <time>2014-08-24T09:03:35.28</time>
      </trkpt>
      <trkpt lat="38.34664" lon="-2.3256">
        <ele>842</ele>
        <time>2014-08-24T09:03:36.27</time>
      </trkpt>
      <trkpt lat="38.34656" lon="-2.32558">
        <ele>841</ele>
        <time>2014-08-24T09:03:37.39</time>
      </trkpt>
      <trkpt lat="38.346475" lon="-2.325565">
        <ele>841</ele>
        <time>2014-08-24T09:03:38.25</time>
      </trkpt>
      <trkpt lat="38.34639" lon="-2.32557">
        <ele>842</ele>
        <time>2014-08-24T09:03:39.31</time>
      </trkpt>
      <trkpt lat="38.34631" lon="-2.325595">
        <ele>842</ele>
        <time>2014-08-24T09:03:40.23</time>
      </trkpt>
      <trkpt lat="38.34624" lon="-2.325641666666667">
        <ele>841</ele>
        <time>2014-08-24T09:03:41.22</time>
      </trkpt>
      <trkpt lat="38.346165" lon="-2.325705">
        <ele>840</ele>
        <time>2014-08-24T09:03:42.23</time>
      </trkpt>
      <trkpt lat="38.346095" lon="-2.32577">
        <ele>839</ele>
        <time>2014-08-24T09:03:43.23</time>
      </trkpt>
      <trkpt lat="38.34603" lon="-2.3258433333333333">
        <ele>839</ele>
        <time>2014-08-24T09:03:44.23</time>
      </trkpt>
      <trkpt lat="38.345985" lon="-2.325921666666667">
        <ele>838</ele>
        <time>2014-08-24T09:03:45.27</time>
      </trkpt>
      <trkpt lat="38.345955000000004" lon="-2.3260033333333334">
        <ele>838</ele>
        <time>2014-08-24T09:03:46.23</time>
      </trkpt>
      <trkpt lat="38.34588333333333" lon="-2.32615">
        <ele>837</ele>
        <time>2014-08-24T09:03:48.43</time>
      </trkpt>
      <trkpt lat="38.34576" lon="-2.3261916666666664">
        <ele>837</ele>
        <time>2014-08-24T09:03:50.27</time>
      </trkpt>
      <trkpt lat="38.345645" lon="-2.32612">
        <ele>837</ele>
        <time>2014-08-24T09:03:52.28</time>
      </trkpt>
      <trkpt lat="38.34559" lon="-2.32604">
        <ele>836</ele>
        <time>2014-08-24T09:03:53.30</time>
      </trkpt>
      <trkpt lat="38.345535" lon="-2.3259600000000002">
        <ele>836</ele>
        <time>2014-08-24T09:03:54.25</time>
      </trkpt>
      <trkpt lat="38.345485" lon="-2.32588">
        <ele>836</ele>
        <time>2014-08-24T09:03:55.23</time>
      </trkpt>
      <trkpt lat="38.34543" lon="-2.325795">
        <ele>836</ele>
        <time>2014-08-24T09:03:56.23</time>
      </trkpt>
      <trkpt lat="38.345345" lon="-2.32571">
        <ele>835</ele>
        <time>2014-08-24T09:03:57.23</time>
      </trkpt>
      <trkpt lat="38.345265" lon="-2.32562">
        <ele>834</ele>
        <time>2014-08-24T09:03:58.23</time>
      </trkpt>
      <trkpt lat="38.34518" lon="-2.325555">
        <ele>833</ele>
        <time>2014-08-24T09:03:59.23</time>
      </trkpt>
      <trkpt lat="38.34509" lon="-2.32549">
        <ele>832</ele>
        <time>2014-08-24T09:04:00.21</time>
      </trkpt>
      <trkpt lat="38.345005" lon="-2.32545">
        <ele>832</ele>
        <time>2014-08-24T09:04:01.21</time>
      </trkpt>
      <trkpt lat="38.34491833333333" lon="-2.32543">
        <ele>832</ele>
        <time>2014-08-24T09:04:02.21</time>
      </trkpt>
      <trkpt lat="38.344845" lon="-2.325445">
        <ele>831</ele>
        <time>2014-08-24T09:04:03.21</time>
      </trkpt>
      <trkpt lat="38.34478" lon="-2.325495">
        <ele>829</ele>
        <time>2014-08-24T09:04:04.21</time>
      </trkpt>
      <trkpt lat="38.344725" lon="-2.325555">
        <ele>828</ele>
        <time>2014-08-24T09:04:05.21</time>
      </trkpt>
      <trkpt lat="38.344625" lon="-2.3256683333333332">
        <ele>826</ele>
        <time>2014-08-24T09:04:07.24</time>
      </trkpt>
      <trkpt lat="38.344485" lon="-2.32568">
        <ele>826</ele>
        <time>2014-08-24T09:04:09.23</time>
      </trkpt>
      <trkpt lat="38.344355" lon="-2.3256">
        <ele>825</ele>
        <time>2014-08-24T09:04:11.29</time>
      </trkpt>
      <trkpt lat="38.344285" lon="-2.32555">
        <ele>825</ele>
        <time>2014-08-24T09:04:12.30</time>
      </trkpt>
      <trkpt lat="38.344195" lon="-2.32552">
        <ele>825</ele>
        <time>2014-08-24T09:04:13.27</time>
      </trkpt>
      <trkpt lat="38.34411" lon="-2.32551">
        <ele>824</ele>
        <time>2014-08-24T09:04:14.24</time>
      </trkpt>
      <trkpt lat="38.34402" lon="-2.32549">
        <ele>824</ele>
        <time>2014-08-24T09:04:15.24</time>
      </trkpt>
      <trkpt lat="38.34394" lon="-2.3255">
        <ele>824</ele>
        <time>2014-08-24T09:04:16.24</time>
      </trkpt>
      <trkpt lat="38.34388" lon="-2.3255566666666665">
        <ele>824</ele>
        <time>2014-08-24T09:04:17.23</time>
      </trkpt>
      <trkpt lat="38.34383" lon="-2.325635">
        <ele>824</ele>
        <time>2014-08-24T09:04:18.25</time>
      </trkpt>
      <trkpt lat="38.34382" lon="-2.32573">
        <ele>822</ele>
        <time>2014-08-24T09:04:19.23</time>
      </trkpt>
      <trkpt lat="38.34382" lon="-2.325835">
        <ele>820</ele>
        <time>2014-08-24T09:04:20.29</time>
      </trkpt>
      <trkpt lat="38.343835" lon="-2.3259366666666668">
        <ele>819</ele>
        <time>2014-08-24T09:04:21.31</time>
      </trkpt>
      <trkpt lat="38.343845" lon="-2.32604">
        <ele>819</ele>
        <time>2014-08-24T09:04:22.30</time>
      </trkpt>
      <trkpt lat="38.34387" lon="-2.326145">
        <ele>818</ele>
        <time>2014-08-24T09:04:23.30</time>
      </trkpt>
      <trkpt lat="38.34389" lon="-2.326235">
        <ele>818</ele>
        <time>2014-08-24T09:04:24.25</time>
      </trkpt>
      <trkpt lat="38.343905" lon="-2.32635">
        <ele>818</ele>
        <time>2014-08-24T09:04:25.23</time>
      </trkpt>
      <trkpt lat="38.34391" lon="-2.32646">
        <ele>817</ele>
        <time>2014-08-24T09:04:26.20</time>
      </trkpt>
      <trkpt lat="38.3439" lon="-2.326565">
        <ele>816</ele>
        <time>2014-08-24T09:04:27.24</time>
      </trkpt>
      <trkpt lat="38.34387" lon="-2.326665">
        <ele>815</ele>
        <time>2014-08-24T09:04:28.23</time>
      </trkpt>
      <trkpt lat="38.34382" lon="-2.326755">
        <ele>815</ele>
        <time>2014-08-24T09:04:29.23</time>
      </trkpt>
      <trkpt lat="38.343755" lon="-2.326825">
        <ele>815</ele>
        <time>2014-08-24T09:04:30.23</time>
      </trkpt>
      <trkpt lat="38.3437" lon="-2.326905">
        <ele>815</ele>
        <time>2014-08-24T09:04:31.23</time>
      </trkpt>
      <trkpt lat="38.34364" lon="-2.326985">
        <ele>814</ele>
        <time>2014-08-24T09:04:32.17</time>
      </trkpt>
      <trkpt lat="38.343575" lon="-2.32706">
        <ele>814</ele>
        <time>2014-08-24T09:04:33.17</time>
      </trkpt>
      <trkpt lat="38.3435" lon="-2.327135">
        <ele>814</ele>
        <time>2014-08-24T09:04:34.17</time>
      </trkpt>
      <trkpt lat="38.343435" lon="-2.327205">
        <ele>813</ele>
        <time>2014-08-24T09:04:35.23</time>
      </trkpt>
      <trkpt lat="38.343325" lon="-2.3272500000000003">
        <ele>813</ele>
        <time>2014-08-24T09:04:36.22</time>
      </trkpt>
      <trkpt lat="38.34324" lon="-2.327275">
        <ele>813</ele>
        <time>2014-08-24T09:04:37.22</time>
      </trkpt>
      <trkpt lat="38.34315" lon="-2.32728">
        <ele>812</ele>
        <time>2014-08-24T09:04:38.23</time>
      </trkpt>
      <trkpt lat="38.34306" lon="-2.32727">
        <ele>811</ele>
        <time>2014-08-24T09:04:39.22</time>
      </trkpt>
      <trkpt lat="38.34297" lon="-2.3272399999999998">
        <ele>810</ele>
        <time>2014-08-24T09:04:40.19</time>
      </trkpt>
      <trkpt lat="38.34289" lon="-2.3271766666666664">
        <ele>809</ele>
        <time>2014-08-24T09:04:41.19</time>
      </trkpt>
      <trkpt lat="38.34281" lon="-2.3270983333333333">
        <ele>809</ele>
        <time>2014-08-24T09:04:42.16</time>
      </trkpt>
      <trkpt lat="38.342735" lon="-2.32702">
        <ele>809</ele>
        <time>2014-08-24T09:04:43.16</time>
      </trkpt>
      <trkpt lat="38.342655" lon="-2.32695">
        <ele>808</ele>
        <time>2014-08-24T09:04:44.16</time>
      </trkpt>
      <trkpt lat="38.342575" lon="-2.32688">
        <ele>808</ele>
        <time>2014-08-24T09:04:45.16</time>
      </trkpt>
      <trkpt lat="38.342483333333334" lon="-2.326825">
        <ele>807</ele>
        <time>2014-08-24T09:04:46.16</time>
      </trkpt>
      <trkpt lat="38.34239" lon="-2.32679">
        <ele>806</ele>
        <time>2014-08-24T09:04:47.16</time>
      </trkpt>
      <trkpt lat="38.342295" lon="-2.326755">
        <ele>805</ele>
        <time>2014-08-24T09:04:48.16</time>
      </trkpt>
      <trkpt lat="38.342195" lon="-2.32673">
        <ele>804</ele>
        <time>2014-08-24T09:04:49.17</time>
      </trkpt>
      <trkpt lat="38.342095" lon="-2.326715">
        <ele>803</ele>
        <time>2014-08-24T09:04:50.22</time>
      </trkpt>
      <trkpt lat="38.34199" lon="-2.32674">
        <ele>802</ele>
        <time>2014-08-24T09:04:51.17</time>
      </trkpt>
      <trkpt lat="38.34189" lon="-2.32679">
        <ele>801</ele>
        <time>2014-08-24T09:04:52.24</time>
      </trkpt>
      <trkpt lat="38.341788333333334" lon="-2.32685">
        <ele>800</ele>
        <time>2014-08-24T09:04:53.18</time>
      </trkpt>
      <trkpt lat="38.3417" lon="-2.326915">
        <ele>800</ele>
        <time>2014-08-24T09:04:54.22</time>
      </trkpt>
      <trkpt lat="38.3416" lon="-2.32698">
        <ele>799</ele>
        <time>2014-08-24T09:04:55.41</time>
      </trkpt>
      <trkpt lat="38.341505" lon="-2.32705">
        <ele>799</ele>
        <time>2014-08-24T09:04:56.27</time>
      </trkpt>
      <trkpt lat="38.34141" lon="-2.327105">
        <ele>798</ele>
        <time>2014-08-24T09:04:57.29</time>
      </trkpt>
      <trkpt lat="38.34133" lon="-2.327135">
        <ele>798</ele>
        <time>2014-08-24T09:04:58.25</time>
      </trkpt>
      <trkpt lat="38.34124" lon="-2.327135">
        <ele>797</ele>
        <time>2014-08-24T09:04:59.26</time>
      </trkpt>
      <trkpt lat="38.34116" lon="-2.3270833333333334">
        <ele>797</ele>
        <time>2014-08-24T09:05:00.23</time>
      </trkpt>
      <trkpt lat="38.341085" lon="-2.327015">
        <ele>796</ele>
        <time>2014-08-24T09:05:01.26</time>
      </trkpt>
      <trkpt lat="38.341015" lon="-2.32693">
        <ele>795</ele>
        <time>2014-08-24T09:05:02.26</time>
      </trkpt>
      <trkpt lat="38.340935" lon="-2.32684">
        <ele>794</ele>
        <time>2014-08-24T09:05:03.28</time>
      </trkpt>
      <trkpt lat="38.340845" lon="-2.326755">
        <ele>794</ele>
        <time>2014-08-24T09:05:04.25</time>
      </trkpt>
      <trkpt lat="38.340755" lon="-2.32666">
        <ele>794</ele>
        <time>2014-08-24T09:05:05.22</time>
      </trkpt>
      <trkpt lat="38.34066" lon="-2.326585">
        <ele>793</ele>
        <time>2014-08-24T09:05:06.24</time>
      </trkpt>
      <trkpt lat="38.340555" lon="-2.326525">
        <ele>793</ele>
        <time>2014-08-24T09:05:07.41</time>
      </trkpt>
      <trkpt lat="38.34044166666666" lon="-2.32648">
        <ele>792</ele>
        <time>2014-08-24T09:05:08.16</time>
      </trkpt>
      <trkpt lat="38.34032" lon="-2.326445">
        <ele>792</ele>
        <time>2014-08-24T09:05:09.23</time>
      </trkpt>
      <trkpt lat="38.340196666666664" lon="-2.32644">
        <ele>791</ele>
        <time>2014-08-24T09:05:10.23</time>
      </trkpt>
      <trkpt lat="38.34007" lon="-2.326445">
        <ele>789</ele>
        <time>2014-08-24T09:05:11.23</time>
      </trkpt>
      <trkpt lat="38.339955" lon="-2.32646">
        <ele>789</ele>
        <time>2014-08-24T09:05:12.24</time>
      </trkpt>
      <trkpt lat="38.339835" lon="-2.32649">
        <ele>788</ele>
        <time>2014-08-24T09:05:13.27</time>
      </trkpt>
      <trkpt lat="38.33972" lon="-2.32652">
        <ele>787</ele>
        <time>2014-08-24T09:05:14.22</time>
      </trkpt>
      <trkpt lat="38.33961" lon="-2.326555">
        <ele>786</ele>
        <time>2014-08-24T09:05:15.23</time>
      </trkpt>
      <trkpt lat="38.339515" lon="-2.3266">
        <ele>786</ele>
        <time>2014-08-24T09:05:16.24</time>
      </trkpt>
      <trkpt lat="38.339435" lon="-2.3266533333333332">
        <ele>785</ele>
        <time>2014-08-24T09:05:17.26</time>
      </trkpt>
      <trkpt lat="38.339373333333334" lon="-2.32673">
        <ele>784</ele>
        <time>2014-08-24T09:05:18.22</time>
      </trkpt>
      <trkpt lat="38.33934" lon="-2.326825">
        <ele>784</ele>
        <time>2014-08-24T09:05:19.23</time>
      </trkpt>
      <trkpt lat="38.33933" lon="-2.3269333333333333">
        <ele>784</ele>
        <time>2014-08-24T09:05:20.23</time>
      </trkpt>
      <trkpt lat="38.33934" lon="-2.32705">
        <ele>783</ele>
        <time>2014-08-24T09:05:21.22</time>
      </trkpt>
      <trkpt lat="38.339355" lon="-2.32716">
        <ele>783</ele>
        <time>2014-08-24T09:05:22.27</time>
      </trkpt>
      <trkpt lat="38.33938" lon="-2.327275">
        <ele>783</ele>
        <time>2014-08-24T09:05:23.23</time>
      </trkpt>
      <trkpt lat="38.339415" lon="-2.327395">
        <ele>782</ele>
        <time>2014-08-24T09:05:24.39</time>
      </trkpt>
      <trkpt lat="38.33944" lon="-2.32752">
        <ele>782</ele>
        <time>2014-08-24T09:05:25.23</time>
      </trkpt>
      <trkpt lat="38.339465" lon="-2.327645">
        <ele>781</ele>
        <time>2014-08-24T09:05:26.23</time>
      </trkpt>
      <trkpt lat="38.33948" lon="-2.32777">
        <ele>781</ele>
        <time>2014-08-24T09:05:27.23</time>
      </trkpt>
      <trkpt lat="38.3395" lon="-2.32789">
        <ele>781</ele>
        <time>2014-08-24T09:05:28.22</time>
      </trkpt>
      <trkpt lat="38.3395" lon="-2.327986666666667">
        <ele>780</ele>
        <time>2014-08-24T09:05:29.23</time>
      </trkpt>
      <trkpt lat="38.33948" lon="-2.328081666666667">
        <ele>780</ele>
        <time>2014-08-24T09:05:30.23</time>
      </trkpt>
      <trkpt lat="38.33943" lon="-2.3281633333333334">
        <ele>780</ele>
        <time>2014-08-24T09:05:31.23</time>
      </trkpt>
      <trkpt lat="38.339365" lon="-2.32824">
        <ele>779</ele>
        <time>2014-08-24T09:05:32.23</time>
      </trkpt>
      <trkpt lat="38.339285" lon="-2.328215">
        <ele>779</ele>
        <time>2014-08-24T09:05:33.23</time>
      </trkpt>
      <trkpt lat="38.33917" lon="-2.328135">
        <ele>778</ele>
        <time>2014-08-24T09:05:35.23</time>
      </trkpt>
      <trkpt lat="38.33913" lon="-2.328045">
        <ele>778</ele>
        <time>2014-08-24T09:05:36.23</time>
      </trkpt>
      <trkpt lat="38.339095" lon="-2.327945">
        <ele>777</ele>
        <time>2014-08-24T09:05:37.22</time>
      </trkpt>
      <trkpt lat="38.33907" lon="-2.327835">
        <ele>777</ele>
        <time>2014-08-24T09:05:38.22</time>
      </trkpt>
      <trkpt lat="38.33904" lon="-2.327725">
        <ele>776</ele>
        <time>2014-08-24T09:05:39.22</time>
      </trkpt>
      <trkpt lat="38.339005" lon="-2.32761">
        <ele>776</ele>
        <time>2014-08-24T09:05:40.21</time>
      </trkpt>
      <trkpt lat="38.338975" lon="-2.32749">
        <ele>776</ele>
        <time>2014-08-24T09:05:41.22</time>
      </trkpt>
      <trkpt lat="38.338935" lon="-2.3273683333333333">
        <ele>776</ele>
        <time>2014-08-24T09:05:42.21</time>
      </trkpt>
      <trkpt lat="38.338895" lon="-2.3272500000000003">
        <ele>775</ele>
        <time>2014-08-24T09:05:43.17</time>
      </trkpt>
      <trkpt lat="38.33885166666666" lon="-2.32713">
        <ele>774</ele>
        <time>2014-08-24T09:05:44.16</time>
      </trkpt>
      <trkpt lat="38.338815" lon="-2.327001666666667">
        <ele>774</ele>
        <time>2014-08-24T09:05:45.23</time>
      </trkpt>
      <trkpt lat="38.338765" lon="-2.326885">
        <ele>774</ele>
        <time>2014-08-24T09:05:46.24</time>
      </trkpt>
      <trkpt lat="38.338725" lon="-2.326755">
        <ele>773</ele>
        <time>2014-08-24T09:05:47.33</time>
      </trkpt>
      <trkpt lat="38.33868" lon="-2.326625">
        <ele>772</ele>
        <time>2014-08-24T09:05:48.23</time>
      </trkpt>
      <trkpt lat="38.33864" lon="-2.3265000000000002">
        <ele>772</ele>
        <time>2014-08-24T09:05:49.22</time>
      </trkpt>
      <trkpt lat="38.3386" lon="-2.32636">
        <ele>771</ele>
        <time>2014-08-24T09:05:50.23</time>
      </trkpt>
      <trkpt lat="38.338555" lon="-2.326225">
        <ele>770</ele>
        <time>2014-08-24T09:05:51.22</time>
      </trkpt>
      <trkpt lat="38.33852" lon="-2.326085">
        <ele>769</ele>
        <time>2014-08-24T09:05:52.23</time>
      </trkpt>
      <trkpt lat="38.338485" lon="-2.325955">
        <ele>769</ele>
        <time>2014-08-24T09:05:53.22</time>
      </trkpt>
      <trkpt lat="38.338455" lon="-2.325825">
        <ele>768</ele>
        <time>2014-08-24T09:05:54.23</time>
      </trkpt>
      <trkpt lat="38.33844" lon="-2.325685">
        <ele>768</ele>
        <time>2014-08-24T09:05:55.23</time>
      </trkpt>
      <trkpt lat="38.33845" lon="-2.325545">
        <ele>767</ele>
        <time>2014-08-24T09:05:56.23</time>
      </trkpt>
      <trkpt lat="38.338455" lon="-2.325395">
        <ele>765</ele>
        <time>2014-08-24T09:05:57.23</time>
      </trkpt>
      <trkpt lat="38.338465" lon="-2.325255">
        <ele>764</ele>
        <time>2014-08-24T09:05:58.23</time>
      </trkpt>
      <trkpt lat="38.33849" lon="-2.32511">
        <ele>764</ele>
        <time>2014-08-24T09:05:59.25</time>
      </trkpt>
      <trkpt lat="38.338505" lon="-2.324965">
        <ele>763</ele>
        <time>2014-08-24T09:06:00.27</time>
      </trkpt>
      <trkpt lat="38.338525" lon="-2.32483">
        <ele>762</ele>
        <time>2014-08-24T09:06:01.23</time>
      </trkpt>
      <trkpt lat="38.33855" lon="-2.324715">
        <ele>761</ele>
        <time>2014-08-24T09:06:02.27</time>
      </trkpt>
      <trkpt lat="38.33856" lon="-2.324605">
        <ele>761</ele>
        <time>2014-08-24T09:06:03.23</time>
      </trkpt>
      <trkpt lat="38.338565" lon="-2.32451">
        <ele>760</ele>
        <time>2014-08-24T09:06:04.23</time>
      </trkpt>
      <trkpt lat="38.338535" lon="-2.32442">
        <ele>761</ele>
        <time>2014-08-24T09:06:05.27</time>
      </trkpt>
      <trkpt lat="38.338515" lon="-2.324325">
        <ele>759</ele>
        <time>2014-08-24T09:06:06.24</time>
      </trkpt>
      <trkpt lat="38.33842" lon="-2.3243">
        <ele>760</ele>
        <time>2014-08-24T09:06:07.27</time>
      </trkpt>
      <trkpt lat="38.33835" lon="-2.324285">
        <ele>760</ele>
        <time>2014-08-24T09:06:08.28</time>
      </trkpt>
      <trkpt lat="38.338265" lon="-2.32432">
        <ele>759</ele>
        <time>2014-08-24T09:06:09.27</time>
      </trkpt>
      <trkpt lat="38.33819" lon="-2.32437">
        <ele>759</ele>
        <time>2014-08-24T09:06:10.27</time>
      </trkpt>
      <trkpt lat="38.338145" lon="-2.32447">
        <ele>758</ele>
        <time>2014-08-24T09:06:11.17</time>
      </trkpt>
      <trkpt lat="38.338091666666664" lon="-2.3245649999999998">
        <ele>757</ele>
        <time>2014-08-24T09:06:12.27</time>
      </trkpt>
      <trkpt lat="38.33805" lon="-2.324665">
        <ele>756</ele>
        <time>2014-08-24T09:06:13.23</time>
      </trkpt>
      <trkpt lat="38.338" lon="-2.324765">
        <ele>755</ele>
        <time>2014-08-24T09:06:14.22</time>
      </trkpt>
      <trkpt lat="38.33795" lon="-2.3248699999999998">
        <ele>754</ele>
        <time>2014-08-24T09:06:15.23</time>
      </trkpt>
      <trkpt lat="38.3379" lon="-2.3249750000000002">
        <ele>754</ele>
        <time>2014-08-24T09:06:16.34</time>
      </trkpt>
      <trkpt lat="38.337845" lon="-2.325075">
        <ele>753</ele>
        <time>2014-08-24T09:06:17.23</time>
      </trkpt>
      <trkpt lat="38.33778" lon="-2.32518">
        <ele>752</ele>
        <time>2014-08-24T09:06:18.23</time>
      </trkpt>
      <trkpt lat="38.33773" lon="-2.325285">
        <ele>751</ele>
        <time>2014-08-24T09:06:19.24</time>
      </trkpt>
      <trkpt lat="38.337675" lon="-2.32539">
        <ele>750</ele>
        <time>2014-08-24T09:06:20.23</time>
      </trkpt>
      <trkpt lat="38.33764" lon="-2.32551">
        <ele>750</ele>
        <time>2014-08-24T09:06:21.23</time>
      </trkpt>
      <trkpt lat="38.33762" lon="-2.325635">
        <ele>749</ele>
        <time>2014-08-24T09:06:22.23</time>
      </trkpt>
      <trkpt lat="38.3376" lon="-2.32577">
        <ele>749</ele>
        <time>2014-08-24T09:06:23.24</time>
      </trkpt>
      <trkpt lat="38.337585" lon="-2.3259">
        <ele>748</ele>
        <time>2014-08-24T09:06:24.23</time>
      </trkpt>
      <trkpt lat="38.337565" lon="-2.326035">
        <ele>747</ele>
        <time>2014-08-24T09:06:25.22</time>
      </trkpt>
      <trkpt lat="38.337545" lon="-2.32617">
        <ele>746</ele>
        <time>2014-08-24T09:06:26.27</time>
      </trkpt>
      <trkpt lat="38.33753" lon="-2.32629">
        <ele>745</ele>
        <time>2014-08-24T09:06:27.22</time>
      </trkpt>
      <trkpt lat="38.337515" lon="-2.3264">
        <ele>744</ele>
        <time>2014-08-24T09:06:28.32</time>
      </trkpt>
      <trkpt lat="38.33749" lon="-2.326495">
        <ele>743</ele>
        <time>2014-08-24T09:06:29.23</time>
      </trkpt>
      <trkpt lat="38.337455" lon="-2.326585">
        <ele>743</ele>
        <time>2014-08-24T09:06:30.27</time>
      </trkpt>
      <trkpt lat="38.337415" lon="-2.326665">
        <ele>743</ele>
        <time>2014-08-24T09:06:31.27</time>
      </trkpt>
      <trkpt lat="38.33735" lon="-2.326715">
        <ele>741</ele>
        <time>2014-08-24T09:06:32.27</time>
      </trkpt>
      <trkpt lat="38.33728" lon="-2.32674">
        <ele>741</ele>
        <time>2014-08-24T09:06:33.27</time>
      </trkpt>
      <trkpt lat="38.337205" lon="-2.326715">
        <ele>741</ele>
        <time>2014-08-24T09:06:34.23</time>
      </trkpt>
      <trkpt lat="38.337135" lon="-2.326665">
        <ele>741</ele>
        <time>2014-08-24T09:06:35.23</time>
      </trkpt>
      <trkpt lat="38.33709" lon="-2.32658">
        <ele>741</ele>
        <time>2014-08-24T09:06:36.22</time>
      </trkpt>
      <trkpt lat="38.33706" lon="-2.326485">
        <ele>742</ele>
        <time>2014-08-24T09:06:37.27</time>
      </trkpt>
      <trkpt lat="38.33705" lon="-2.32638">
        <ele>741</ele>
        <time>2014-08-24T09:06:38.27</time>
      </trkpt>
      <trkpt lat="38.33704" lon="-2.32627">
        <ele>741</ele>
        <time>2014-08-24T09:06:39.41</time>
      </trkpt>
      <trkpt lat="38.33703" lon="-2.326155">
        <ele>741</ele>
        <time>2014-08-24T09:06:40.24</time>
      </trkpt>
      <trkpt lat="38.33701" lon="-2.326045">
        <ele>742</ele>
        <time>2014-08-24T09:06:41.22</time>
      </trkpt>
      <trkpt lat="38.33699" lon="-2.32592">
        <ele>741</ele>
        <time>2014-08-24T09:06:42.23</time>
      </trkpt>
      <trkpt lat="38.33698" lon="-2.325805">
        <ele>741</ele>
        <time>2014-08-24T09:06:43.22</time>
      </trkpt>
      <trkpt lat="38.33697" lon="-2.325685">
        <ele>740</ele>
        <time>2014-08-24T09:06:44.20</time>
      </trkpt>
      <trkpt lat="38.336965" lon="-2.325555">
        <ele>740</ele>
        <time>2014-08-24T09:06:45.23</time>
      </trkpt>
      <trkpt lat="38.336953333333334" lon="-2.32543">
        <ele>739</ele>
        <time>2014-08-24T09:06:46.22</time>
      </trkpt>
      <trkpt lat="38.336951666666664" lon="-2.325301666666667">
        <ele>739</ele>
        <time>2014-08-24T09:06:47.23</time>
      </trkpt>
      <trkpt lat="38.336938333333336" lon="-2.32517">
        <ele>738</ele>
        <time>2014-08-24T09:06:48.22</time>
      </trkpt>
      <trkpt lat="38.336925" lon="-2.3250450000000003">
        <ele>738</ele>
        <time>2014-08-24T09:06:49.23</time>
      </trkpt>
      <trkpt lat="38.336875" lon="-2.32492">
        <ele>737</ele>
        <time>2014-08-24T09:06:50.23</time>
      </trkpt>
      <trkpt lat="38.33681" lon="-2.3248100000000003">
        <ele>737</ele>
        <time>2014-08-24T09:06:51.22</time>
      </trkpt>
      <trkpt lat="38.336726666666664" lon="-2.32472">
        <ele>736</ele>
        <time>2014-08-24T09:06:52.22</time>
      </trkpt>
      <trkpt lat="38.33664" lon="-2.32464">
        <ele>736</ele>
        <time>2014-08-24T09:06:53.22</time>
      </trkpt>
      <trkpt lat="38.33657" lon="-2.32455">
        <ele>735</ele>
        <time>2014-08-24T09:06:54.21</time>
      </trkpt>
      <trkpt lat="38.3365" lon="-2.324475">
        <ele>735</ele>
        <time>2014-08-24T09:06:55.19</time>
      </trkpt>
      <trkpt lat="38.33644" lon="-2.324405">
        <ele>735</ele>
        <time>2014-08-24T09:06:56.21</time>
      </trkpt>
      <trkpt lat="38.33639" lon="-2.324325">
        <ele>735</ele>
        <time>2014-08-24T09:06:57.22</time>
      </trkpt>
      <trkpt lat="38.33634833333333" lon="-2.3242233333333333">
        <ele>734</ele>
        <time>2014-08-24T09:06:58.22</time>
      </trkpt>
      <trkpt lat="38.336331666666666" lon="-2.324115">
        <ele>734</ele>
        <time>2014-08-24T09:06:59.22</time>
      </trkpt>
      <trkpt lat="38.33634833333333" lon="-2.323995">
        <ele>733</ele>
        <time>2014-08-24T09:07:00.20</time>
      </trkpt>
      <trkpt lat="38.336375" lon="-2.3238733333333332">
        <ele>733</ele>
        <time>2014-08-24T09:07:01.22</time>
      </trkpt>
      <trkpt lat="38.336395" lon="-2.32376">
        <ele>732</ele>
        <time>2014-08-24T09:07:02.24</time>
      </trkpt>
      <trkpt lat="38.33641166666666" lon="-2.32366">
        <ele>731</ele>
        <time>2014-08-24T09:07:03.41</time>
      </trkpt>
      <trkpt lat="38.336385" lon="-2.323505">
        <ele>730</ele>
        <time>2014-08-24T09:07:05.28</time>
      </trkpt>
      <trkpt lat="38.3363" lon="-2.32339">
        <ele>729</ele>
        <time>2014-08-24T09:07:07.27</time>
      </trkpt>
      <trkpt lat="38.336193333333334" lon="-2.32339">
        <ele>729</ele>
        <time>2014-08-24T09:07:08.22</time>
      </trkpt>
      <trkpt lat="38.3361" lon="-2.323385">
        <ele>728</ele>
        <time>2014-08-24T09:07:09.22</time>
      </trkpt>
      <trkpt lat="38.336005" lon="-2.3233800000000002">
        <ele>728</ele>
        <time>2014-08-24T09:07:10.79</time>
      </trkpt>
      <trkpt lat="38.33591" lon="-2.323365">
        <ele>728</ele>
        <time>2014-08-24T09:07:11.77</time>
      </trkpt>
      <trkpt lat="38.33582" lon="-2.32334">
        <ele>727</ele>
        <time>2014-08-24T09:07:12.78</time>
      </trkpt>
      <trkpt lat="38.335735" lon="-2.323285">
        <ele>726</ele>
        <time>2014-08-24T09:07:13.78</time>
      </trkpt>
      <trkpt lat="38.33565" lon="-2.32322">
        <ele>725</ele>
        <time>2014-08-24T09:07:14.77</time>
      </trkpt>
      <trkpt lat="38.33558" lon="-2.32314">
        <ele>725</ele>
        <time>2014-08-24T09:07:15.84</time>
      </trkpt>
      <trkpt lat="38.33551" lon="-2.323045">
        <ele>724</ele>
        <time>2014-08-24T09:07:16.85</time>
      </trkpt>
      <trkpt lat="38.33543" lon="-2.322965">
        <ele>724</ele>
        <time>2014-08-24T09:07:17.85</time>
      </trkpt>
      <trkpt lat="38.33534" lon="-2.32292">
        <ele>723</ele>
        <time>2014-08-24T09:07:18.85</time>
      </trkpt>
      <trkpt lat="38.33524" lon="-2.322905">
        <ele>723</ele>
        <time>2014-08-24T09:07:19.84</time>
      </trkpt>
      <trkpt lat="38.335121666666666" lon="-2.32292">
        <ele>722</ele>
        <time>2014-08-24T09:07:20.85</time>
      </trkpt>
      <trkpt lat="38.33503" lon="-2.32294">
        <ele>721</ele>
        <time>2014-08-24T09:07:21.84</time>
      </trkpt>
      <trkpt lat="38.33494" lon="-2.322945">
        <ele>721</ele>
        <time>2014-08-24T09:07:22.85</time>
      </trkpt>
      <trkpt lat="38.334855" lon="-2.322915">
        <ele>721</ele>
        <time>2014-08-24T09:07:23.83</time>
      </trkpt>
      <trkpt lat="38.33478" lon="-2.322855">
        <ele>720</ele>
        <time>2014-08-24T09:07:24.77</time>
      </trkpt>
      <trkpt lat="38.334715" lon="-2.322775">
        <ele>718</ele>
        <time>2014-08-24T09:07:25.77</time>
      </trkpt>
      <trkpt lat="38.334655" lon="-2.32268">
        <ele>717</ele>
        <time>2014-08-24T09:07:26.77</time>
      </trkpt>
      <trkpt lat="38.3346" lon="-2.322575">
        <ele>716</ele>
        <time>2014-08-24T09:07:27.84</time>
      </trkpt>
      <trkpt lat="38.33455" lon="-2.32247">
        <ele>716</ele>
        <time>2014-08-24T09:07:28.94</time>
      </trkpt>
      <trkpt lat="38.334485" lon="-2.32238">
        <ele>716</ele>
        <time>2014-08-24T09:07:29.77</time>
      </trkpt>
      <trkpt lat="38.334405" lon="-2.32232">
        <ele>715</ele>
        <time>2014-08-24T09:07:30.77</time>
      </trkpt>
      <trkpt lat="38.33430833333333" lon="-2.32228">
        <ele>715</ele>
        <time>2014-08-24T09:07:31.77</time>
      </trkpt>
      <trkpt lat="38.33421" lon="-2.32226">
        <ele>716</ele>
        <time>2014-08-24T09:07:32.77</time>
      </trkpt>
      <trkpt lat="38.334125" lon="-2.32222">
        <ele>714</ele>
        <time>2014-08-24T09:07:33.84</time>
      </trkpt>
      <trkpt lat="38.33406" lon="-2.3221433333333334">
        <ele>712</ele>
        <time>2014-08-24T09:07:34.84</time>
      </trkpt>
      <trkpt lat="38.33401" lon="-2.32206">
        <ele>712</ele>
        <time>2014-08-24T09:07:35.84</time>
      </trkpt>
      <trkpt lat="38.33397" lon="-2.3219683333333334">
        <ele>712</ele>
        <time>2014-08-24T09:07:36.84</time>
      </trkpt>
      <trkpt lat="38.333925" lon="-2.321885">
        <ele>712</ele>
        <time>2014-08-24T09:07:37.98</time>
      </trkpt>
      <trkpt lat="38.33389" lon="-2.321805">
        <ele>712</ele>
        <time>2014-08-24T09:07:38.84</time>
      </trkpt>
      <trkpt lat="38.333825" lon="-2.321655">
        <ele>711</ele>
        <time>2014-08-24T09:07:40.84</time>
      </trkpt>
      <trkpt lat="38.333758333333336" lon="-2.3215233333333334">
        <ele>710</ele>
        <time>2014-08-24T09:07:42.84</time>
      </trkpt>
      <trkpt lat="38.333715" lon="-2.321395">
        <ele>710</ele>
        <time>2014-08-24T09:07:44.90</time>
      </trkpt>
      <trkpt lat="38.33365" lon="-2.321265">
        <ele>710</ele>
        <time>2014-08-24T09:07:46.91</time>
      </trkpt>
      <trkpt lat="38.33356" lon="-2.32115">
        <ele>709</ele>
        <time>2014-08-24T09:07:48.84</time>
      </trkpt>
      <trkpt lat="38.333495" lon="-2.321105">
        <ele>709</ele>
        <time>2014-08-24T09:07:49.89</time>
      </trkpt>
      <trkpt lat="38.33342" lon="-2.3210783333333334">
        <ele>709</ele>
        <time>2014-08-24T09:07:50.84</time>
      </trkpt>
      <trkpt lat="38.333335" lon="-2.321066666666667">
        <ele>708</ele>
        <time>2014-08-24T09:07:51.84</time>
      </trkpt>
      <trkpt lat="38.33326" lon="-2.321065">
        <ele>707</ele>
        <time>2014-08-24T09:07:52.85</time>
      </trkpt>
      <trkpt lat="38.333115" lon="-2.32102">
        <ele>706</ele>
        <time>2014-08-24T09:07:54.87</time>
      </trkpt>
      <trkpt lat="38.33306" lon="-2.32095">
        <ele>705</ele>
        <time>2014-08-24T09:07:55.84</time>
      </trkpt>
      <trkpt lat="38.33302" lon="-2.32087">
        <ele>705</ele>
        <time>2014-08-24T09:07:56.85</time>
      </trkpt>
      <trkpt lat="38.332985" lon="-2.3207649999999997">
        <ele>705</ele>
        <time>2014-08-24T09:07:57.90</time>
      </trkpt>
      <trkpt lat="38.332965" lon="-2.32067">
        <ele>704</ele>
        <time>2014-08-24T09:07:58.91</time>
      </trkpt>
      <trkpt lat="38.33294" lon="-2.32057">
        <ele>704</ele>
        <time>2014-08-24T09:07:59.89</time>
      </trkpt>
      <trkpt lat="38.332915" lon="-2.3204700000000003">
        <ele>704</ele>
        <time>2014-08-24T09:08:00.85</time>
      </trkpt>
      <trkpt lat="38.33288" lon="-2.320375">
        <ele>703</ele>
        <time>2014-08-24T09:08:01.84</time>
      </trkpt>
      <trkpt lat="38.332825" lon="-2.3202949999999998">
        <ele>702</ele>
        <time>2014-08-24T09:08:02.84</time>
      </trkpt>
      <trkpt lat="38.33276" lon="-2.320221666666667">
        <ele>702</ele>
        <time>2014-08-24T09:08:03.91</time>
      </trkpt>
      <trkpt lat="38.332685" lon="-2.32017">
        <ele>701</ele>
        <time>2014-08-24T09:08:04.84</time>
      </trkpt>
      <trkpt lat="38.3326" lon="-2.320135">
        <ele>701</ele>
        <time>2014-08-24T09:08:05.96</time>
      </trkpt>
      <trkpt lat="38.33251" lon="-2.32009">
        <ele>700</ele>
        <time>2014-08-24T09:08:06.90</time>
      </trkpt>
      <trkpt lat="38.33243" lon="-2.3200250000000002">
        <ele>699</ele>
        <time>2014-08-24T09:08:07.85</time>
      </trkpt>
      <trkpt lat="38.33235" lon="-2.31995">
        <ele>698</ele>
        <time>2014-08-24T09:08:08.90</time>
      </trkpt>
      <trkpt lat="38.33227" lon="-2.31987">
        <ele>697</ele>
        <time>2014-08-24T09:08:09.91</time>
      </trkpt>
      <trkpt lat="38.33218166666666" lon="-2.3197900000000002">
        <ele>696</ele>
        <time>2014-08-24T09:08:10.87</time>
      </trkpt>
      <trkpt lat="38.332095" lon="-2.31971">
        <ele>695</ele>
        <time>2014-08-24T09:08:11.85</time>
      </trkpt>
      <trkpt lat="38.33201" lon="-2.31963">
        <ele>694</ele>
        <time>2014-08-24T09:08:12.85</time>
      </trkpt>
      <trkpt lat="38.331935" lon="-2.31955">
        <ele>693</ele>
        <time>2014-08-24T09:08:13.85</time>
      </trkpt>
      <trkpt lat="38.33186" lon="-2.31947">
        <ele>693</ele>
        <time>2014-08-24T09:08:14.84</time>
      </trkpt>
      <trkpt lat="38.331786666666666" lon="-2.319405">
        <ele>692</ele>
        <time>2014-08-24T09:08:15.83</time>
      </trkpt>
      <trkpt lat="38.331725" lon="-2.31933">
        <ele>691</ele>
        <time>2014-08-24T09:08:16.85</time>
      </trkpt>
      <trkpt lat="38.33166" lon="-2.31926">
        <ele>691</ele>
        <time>2014-08-24T09:08:17.85</time>
      </trkpt>
      <trkpt lat="38.3316" lon="-2.31917">
        <ele>690</ele>
        <time>2014-08-24T09:08:18.85</time>
      </trkpt>
      <trkpt lat="38.331555" lon="-2.31907">
        <ele>689</ele>
        <time>2014-08-24T09:08:19.85</time>
      </trkpt>
      <trkpt lat="38.33151" lon="-2.31896">
        <ele>688</ele>
        <time>2014-08-24T09:08:20.85</time>
      </trkpt>
      <trkpt lat="38.331475" lon="-2.3188383333333333">
        <ele>688</ele>
        <time>2014-08-24T09:08:21.90</time>
      </trkpt>
      <trkpt lat="38.331435" lon="-2.31872">
        <ele>687</ele>
        <time>2014-08-24T09:08:22.91</time>
      </trkpt>
      <trkpt lat="38.331395" lon="-2.318595">
        <ele>686</ele>
        <time>2014-08-24T09:08:23.99</time>
      </trkpt>
      <trkpt lat="38.33135" lon="-2.31847">
        <ele>685</ele>
        <time>2014-08-24T09:08:24.89</time>
      </trkpt>
      <trkpt lat="38.331305" lon="-2.3183350000000003">
        <ele>684</ele>
        <time>2014-08-24T09:08:25.89</time>
      </trkpt>
      <trkpt lat="38.33126" lon="-2.3182">
        <ele>683</ele>
        <time>2014-08-24T09:08:26.91</time>
      </trkpt>
      <trkpt lat="38.33119833333333" lon="-2.31808">
        <ele>682</ele>
        <time>2014-08-24T09:08:27.84</time>
      </trkpt>
      <trkpt lat="38.331135" lon="-2.31797">
        <ele>682</ele>
        <time>2014-08-24T09:08:28.91</time>
      </trkpt>
      <trkpt lat="38.33106" lon="-2.31786">
        <ele>681</ele>
        <time>2014-08-24T09:08:29.85</time>
      </trkpt>
      <trkpt lat="38.330995" lon="-2.317755">
        <ele>680</ele>
        <time>2014-08-24T09:08:30.85</time>
      </trkpt>
      <trkpt lat="38.330925" lon="-2.3176550000000002">
        <ele>680</ele>
        <time>2014-08-24T09:08:31.85</time>
      </trkpt>
      <trkpt lat="38.330855" lon="-2.3175499999999998">
        <ele>679</ele>
        <time>2014-08-24T09:08:32.86</time>
      </trkpt>
      <trkpt lat="38.330795" lon="-2.31744">
        <ele>678</ele>
        <time>2014-08-24T09:08:33.84</time>
      </trkpt>
      <trkpt lat="38.33072666666666" lon="-2.317335">
        <ele>678</ele>
        <time>2014-08-24T09:08:34.84</time>
      </trkpt>
      <trkpt lat="38.33066" lon="-2.317215">
        <ele>676</ele>
        <time>2014-08-24T09:08:35.85</time>
      </trkpt>
      <trkpt lat="38.330605" lon="-2.3171150000000003">
        <ele>676</ele>
        <time>2014-08-24T09:08:36.84</time>
      </trkpt>
      <trkpt lat="38.330545" lon="-2.317">
        <ele>675</ele>
        <time>2014-08-24T09:08:37.86</time>
      </trkpt>
      <trkpt lat="38.33049" lon="-2.316895">
        <ele>675</ele>
        <time>2014-08-24T09:08:38.85</time>
      </trkpt>
      <trkpt lat="38.330436666666664" lon="-2.3167866666666668">
        <ele>674</ele>
        <time>2014-08-24T09:08:39.92</time>
      </trkpt>
      <trkpt lat="38.330385" lon="-2.31669">
        <ele>673</ele>
        <time>2014-08-24T09:08:40.99</time>
      </trkpt>
      <trkpt lat="38.330335" lon="-2.316595">
        <ele>672</ele>
        <time>2014-08-24T09:08:41.87</time>
      </trkpt>
      <trkpt lat="38.330275" lon="-2.316515">
        <ele>672</ele>
        <time>2014-08-24T09:08:42.89</time>
      </trkpt>
      <trkpt lat="38.330205" lon="-2.31645">
        <ele>671</ele>
        <time>2014-08-24T09:08:43.90</time>
      </trkpt>
      <trkpt lat="38.33012" lon="-2.316405">
        <ele>671</ele>
        <time>2014-08-24T09:08:44.91</time>
      </trkpt>
      <trkpt lat="38.33002" lon="-2.31639">
        <ele>672</ele>
        <time>2014-08-24T09:08:45.92</time>
      </trkpt>
      <trkpt lat="38.329935" lon="-2.316395">
        <ele>672</ele>
        <time>2014-08-24T09:08:46.84</time>
      </trkpt>
      <trkpt lat="38.32985" lon="-2.316405">
        <ele>673</ele>
        <time>2014-08-24T09:08:47.84</time>
      </trkpt>
      <trkpt lat="38.32977" lon="-2.316395">
        <ele>673</ele>
        <time>2014-08-24T09:08:48.86</time>
      </trkpt>
      <trkpt lat="38.329635" lon="-2.316385">
        <ele>673</ele>
        <time>2014-08-24T09:08:50.85</time>
      </trkpt>
      <trkpt lat="38.32954" lon="-2.316295">
        <ele>673</ele>
        <time>2014-08-24T09:08:52.85</time>
      </trkpt>
      <trkpt lat="38.3295" lon="-2.316135">
        <ele>674</ele>
        <time>2014-08-24T09:08:54.86</time>
      </trkpt>
      <trkpt lat="38.329485" lon="-2.315975">
        <ele>674</ele>
        <time>2014-08-24T09:08:56.88</time>
      </trkpt>
      <trkpt lat="38.329445" lon="-2.31583">
        <ele>673</ele>
        <time>2014-08-24T09:08:58.84</time>
      </trkpt>
      <trkpt lat="38.32934" lon="-2.31576">
        <ele>673</ele>
        <time>2014-08-24T09:09:00.83</time>
      </trkpt>
      <trkpt lat="38.32922833333333" lon="-2.31581">
        <ele>674</ele>
        <time>2014-08-24T09:09:02.86</time>
      </trkpt>
      <trkpt lat="38.329155" lon="-2.31595">
        <ele>674</ele>
        <time>2014-08-24T09:09:04.84</time>
      </trkpt>
      <trkpt lat="38.329095" lon="-2.316095">
        <ele>673</ele>
        <time>2014-08-24T09:09:06.84</time>
      </trkpt>
      <trkpt lat="38.32904" lon="-2.31625">
        <ele>672</ele>
        <time>2014-08-24T09:09:08.84</time>
      </trkpt>
      <trkpt lat="38.328975" lon="-2.3164">
        <ele>672</ele>
        <time>2014-08-24T09:09:11.28</time>
      </trkpt>
      <trkpt lat="38.328915" lon="-2.316535">
        <ele>672</ele>
        <time>2014-08-24T09:09:12.88</time>
      </trkpt>
      <trkpt lat="38.32886" lon="-2.316665">
        <ele>673</ele>
        <time>2014-08-24T09:09:14.86</time>
      </trkpt>
      <trkpt lat="38.328815" lon="-2.316785">
        <ele>671</ele>
        <time>2014-08-24T09:09:16.90</time>
      </trkpt>
      <trkpt lat="38.328755" lon="-2.316905">
        <ele>670</ele>
        <time>2014-08-24T09:09:18.91</time>
      </trkpt>
      <trkpt lat="38.328715" lon="-2.31702">
        <ele>669</ele>
        <time>2014-08-24T09:09:20.84</time>
      </trkpt>
      <trkpt lat="38.32866" lon="-2.31713">
        <ele>668</ele>
        <time>2014-08-24T09:09:22.84</time>
      </trkpt>
      <trkpt lat="38.3286" lon="-2.3172449999999998">
        <ele>668</ele>
        <time>2014-08-24T09:09:24.90</time>
      </trkpt>
      <trkpt lat="38.32855" lon="-2.3173500000000002">
        <ele>668</ele>
        <time>2014-08-24T09:09:26.87</time>
      </trkpt>
      <trkpt lat="38.3285" lon="-2.317445">
        <ele>667</ele>
        <time>2014-08-24T09:09:29.8</time>
      </trkpt>
      <trkpt lat="38.32845" lon="-2.31754">
        <ele>666</ele>
        <time>2014-08-24T09:09:30.90</time>
      </trkpt>
      <trkpt lat="38.328381666666665" lon="-2.317635">
        <ele>666</ele>
        <time>2014-08-24T09:09:32.91</time>
      </trkpt>
      <trkpt lat="38.32830833333333" lon="-2.31773">
        <ele>666</ele>
        <time>2014-08-24T09:09:34.86</time>
      </trkpt>
      <trkpt lat="38.32824333333333" lon="-2.317815">
        <ele>666</ele>
        <time>2014-08-24T09:09:36.88</time>
      </trkpt>
      <trkpt lat="38.32817" lon="-2.317925">
        <ele>667</ele>
        <time>2014-08-24T09:09:38.92</time>
      </trkpt>
      <trkpt lat="38.32811" lon="-2.3180283333333334">
        <ele>666</ele>
        <time>2014-08-24T09:09:40.84</time>
      </trkpt>
      <trkpt lat="38.32804" lon="-2.3181233333333333">
        <ele>665</ele>
        <time>2014-08-24T09:09:42.89</time>
      </trkpt>
      <trkpt lat="38.327955" lon="-2.3182183333333333">
        <ele>664</ele>
        <time>2014-08-24T09:09:44.90</time>
      </trkpt>
      <trkpt lat="38.327895" lon="-2.31831">
        <ele>664</ele>
        <time>2014-08-24T09:09:46.84</time>
      </trkpt>
      <trkpt lat="38.32782" lon="-2.31841">
        <ele>664</ele>
        <time>2014-08-24T09:09:48.88</time>
      </trkpt>
      <trkpt lat="38.32774" lon="-2.318515">
        <ele>663</ele>
        <time>2014-08-24T09:09:50.90</time>
      </trkpt>
      <trkpt lat="38.32768" lon="-2.318626666666667">
        <ele>662</ele>
        <time>2014-08-24T09:09:53.18</time>
      </trkpt>
      <trkpt lat="38.327615" lon="-2.31874">
        <ele>662</ele>
        <time>2014-08-24T09:09:54.86</time>
      </trkpt>
      <trkpt lat="38.327535" lon="-2.318855">
        <ele>661</ele>
        <time>2014-08-24T09:09:56.90</time>
      </trkpt>
      <trkpt lat="38.327465" lon="-2.31896">
        <ele>659</ele>
        <time>2014-08-24T09:09:58.84</time>
      </trkpt>
      <trkpt lat="38.32739" lon="-2.319065">
        <ele>658</ele>
        <time>2014-08-24T09:10:00.85</time>
      </trkpt>
      <trkpt lat="38.327315" lon="-2.3191800000000002">
        <ele>658</ele>
        <time>2014-08-24T09:10:02.84</time>
      </trkpt>
      <trkpt lat="38.32723" lon="-2.31928">
        <ele>657</ele>
        <time>2014-08-24T09:10:04.84</time>
      </trkpt>
      <trkpt lat="38.32715" lon="-2.319375">
        <ele>659</ele>
        <time>2014-08-24T09:10:06.84</time>
      </trkpt>
      <trkpt lat="38.327065" lon="-2.3194850000000002">
        <ele>660</ele>
        <time>2014-08-24T09:10:08.87</time>
      </trkpt>
      <trkpt lat="38.32698" lon="-2.319585">
        <ele>659</ele>
        <time>2014-08-24T09:10:10.84</time>
      </trkpt>
      <trkpt lat="38.3269" lon="-2.31968">
        <ele>658</ele>
        <time>2014-08-24T09:10:12.84</time>
      </trkpt>
      <trkpt lat="38.326825" lon="-2.319765">
        <ele>658</ele>
        <time>2014-08-24T09:10:14.83</time>
      </trkpt>
      <trkpt lat="38.32675" lon="-2.319855">
        <ele>657</ele>
        <time>2014-08-24T09:10:16.84</time>
      </trkpt>
      <trkpt lat="38.32666" lon="-2.319955">
        <ele>658</ele>
        <time>2014-08-24T09:10:18.89</time>
      </trkpt>
      <trkpt lat="38.326585" lon="-2.32005">
        <ele>658</ele>
        <time>2014-08-24T09:10:20.85</time>
      </trkpt>
      <trkpt lat="38.326505" lon="-2.32014">
        <ele>658</ele>
        <time>2014-08-24T09:10:22.88</time>
      </trkpt>
      <trkpt lat="38.326435" lon="-2.320245">
        <ele>658</ele>
        <time>2014-08-24T09:10:24.84</time>
      </trkpt>
      <trkpt lat="38.32636" lon="-2.320345">
        <ele>657</ele>
        <time>2014-08-24T09:10:26.79</time>
      </trkpt>
      <trkpt lat="38.326295" lon="-2.320455">
        <ele>658</ele>
        <time>2014-08-24T09:10:28.90</time>
      </trkpt>
      <trkpt lat="38.32624" lon="-2.32057">
        <ele>659</ele>
        <time>2014-08-24T09:10:30.87</time>
      </trkpt>
      <trkpt lat="38.3262" lon="-2.32069">
        <ele>659</ele>
        <time>2014-08-24T09:10:32.86</time>
      </trkpt>
      <trkpt lat="38.326155" lon="-2.32082">
        <ele>659</ele>
        <time>2014-08-24T09:10:34.84</time>
      </trkpt>
      <trkpt lat="38.32612" lon="-2.320945">
        <ele>659</ele>
        <time>2014-08-24T09:10:36.84</time>
      </trkpt>
      <trkpt lat="38.32608" lon="-2.321065">
        <ele>659</ele>
        <time>2014-08-24T09:10:38.84</time>
      </trkpt>
      <trkpt lat="38.326031666666665" lon="-2.32119">
        <ele>659</ele>
        <time>2014-08-24T09:10:40.83</time>
      </trkpt>
      <trkpt lat="38.325985" lon="-2.3213150000000002">
        <ele>660</ele>
        <time>2014-08-24T09:10:42.84</time>
      </trkpt>
      <trkpt lat="38.32594" lon="-2.32144">
        <ele>661</ele>
        <time>2014-08-24T09:10:44.84</time>
      </trkpt>
      <trkpt lat="38.325895" lon="-2.321575">
        <ele>662</ele>
        <time>2014-08-24T09:10:46.86</time>
      </trkpt>
      <trkpt lat="38.325865" lon="-2.3216900000000003">
        <ele>662</ele>
        <time>2014-08-24T09:10:48.85</time>
      </trkpt>
      <trkpt lat="38.325825" lon="-2.3218199999999998">
        <ele>661</ele>
        <time>2014-08-24T09:10:50.91</time>
      </trkpt>
      <trkpt lat="38.32579" lon="-2.321955">
        <ele>661</ele>
        <time>2014-08-24T09:10:52.88</time>
      </trkpt>
      <trkpt lat="38.32575" lon="-2.322085">
        <ele>661</ele>
        <time>2014-08-24T09:10:54.88</time>
      </trkpt>
      <trkpt lat="38.325705" lon="-2.322235">
        <ele>661</ele>
        <time>2014-08-24T09:10:56.91</time>
      </trkpt>
      <trkpt lat="38.325665" lon="-2.32238">
        <ele>661</ele>
        <time>2014-08-24T09:10:58.89</time>
      </trkpt>
      <trkpt lat="38.32563" lon="-2.3225350000000002">
        <ele>660</ele>
        <time>2014-08-24T09:11:00.84</time>
      </trkpt>
      <trkpt lat="38.32559" lon="-2.3226883333333332">
        <ele>661</ele>
        <time>2014-08-24T09:11:02.90</time>
      </trkpt>
      <trkpt lat="38.32557" lon="-2.3228400000000002">
        <ele>659</ele>
        <time>2014-08-24T09:11:04.91</time>
      </trkpt>
      <trkpt lat="38.32554" lon="-2.322995">
        <ele>660</ele>
        <time>2014-08-24T09:11:06.85</time>
      </trkpt>
      <trkpt lat="38.32551333333333" lon="-2.3231416666666664">
        <ele>660</ele>
        <time>2014-08-24T09:11:08.91</time>
      </trkpt>
      <trkpt lat="38.325495" lon="-2.32329">
        <ele>659</ele>
        <time>2014-08-24T09:11:10.86</time>
      </trkpt>
      <trkpt lat="38.325465" lon="-2.32343">
        <ele>660</ele>
        <time>2014-08-24T09:11:12.86</time>
      </trkpt>
      <trkpt lat="38.325435" lon="-2.323576666666667">
        <ele>660</ele>
        <time>2014-08-24T09:11:14.84</time>
      </trkpt>
      <trkpt lat="38.3254" lon="-2.323725">
        <ele>660</ele>
        <time>2014-08-24T09:11:16.90</time>
      </trkpt>
      <trkpt lat="38.32535166666667" lon="-2.323865">
        <ele>660</ele>
        <time>2014-08-24T09:11:18.84</time>
      </trkpt>
      <trkpt lat="38.32531" lon="-2.324005">
        <ele>660</ele>
        <time>2014-08-24T09:11:20.83</time>
      </trkpt>
      <trkpt lat="38.32526" lon="-2.324135">
        <ele>659</ele>
        <time>2014-08-24T09:11:22.86</time>
      </trkpt>
      <trkpt lat="38.3252" lon="-2.324265">
        <ele>659</ele>
        <time>2014-08-24T09:11:24.84</time>
      </trkpt>
      <trkpt lat="38.32514" lon="-2.324385">
        <ele>659</ele>
        <time>2014-08-24T09:11:26.84</time>
      </trkpt>
      <trkpt lat="38.325075" lon="-2.32449">
        <ele>660</ele>
        <time>2014-08-24T09:11:28.83</time>
      </trkpt>
      <trkpt lat="38.32502" lon="-2.3245883333333333">
        <ele>661</ele>
        <time>2014-08-24T09:11:30.83</time>
      </trkpt>
      <trkpt lat="38.32495" lon="-2.32469">
        <ele>660</ele>
        <time>2014-08-24T09:11:32.83</time>
      </trkpt>
      <trkpt lat="38.324885" lon="-2.324785">
        <ele>658</ele>
        <time>2014-08-24T09:11:34.83</time>
      </trkpt>
      <trkpt lat="38.324805" lon="-2.324875">
        <ele>660</ele>
        <time>2014-08-24T09:11:36.84</time>
      </trkpt>
      <trkpt lat="38.32475" lon="-2.32499">
        <ele>660</ele>
        <time>2014-08-24T09:11:38.84</time>
      </trkpt>
      <trkpt lat="38.32469" lon="-2.325095">
        <ele>661</ele>
        <time>2014-08-24T09:11:40.83</time>
      </trkpt>
      <trkpt lat="38.324635" lon="-2.3251983333333333">
        <ele>661</ele>
        <time>2014-08-24T09:11:42.88</time>
      </trkpt>
      <trkpt lat="38.32459333333333" lon="-2.325315">
        <ele>662</ele>
        <time>2014-08-24T09:11:44.88</time>
      </trkpt>
      <trkpt lat="38.324565" lon="-2.32543">
        <ele>660</ele>
        <time>2014-08-24T09:11:46.92</time>
      </trkpt>
      <trkpt lat="38.324525" lon="-2.32554">
        <ele>661</ele>
        <time>2014-08-24T09:11:48.88</time>
      </trkpt>
      <trkpt lat="38.324495" lon="-2.3256533333333334">
        <ele>662</ele>
        <time>2014-08-24T09:11:50.83</time>
      </trkpt>
      <trkpt lat="38.324485" lon="-2.32577">
        <ele>660</ele>
        <time>2014-08-24T09:11:52.83</time>
      </trkpt>
      <trkpt lat="38.324475" lon="-2.3258900000000002">
        <ele>660</ele>
        <time>2014-08-24T09:11:54.89</time>
      </trkpt>
      <trkpt lat="38.324465000000004" lon="-2.326015">
        <ele>660</ele>
        <time>2014-08-24T09:11:56.88</time>
      </trkpt>
      <trkpt lat="38.32445833333333" lon="-2.32613">
        <ele>661</ele>
        <time>2014-08-24T09:11:58.95</time>
      </trkpt>
      <trkpt lat="38.324455" lon="-2.3262549999999997">
        <ele>660</ele>
        <time>2014-08-24T09:12:00.79</time>
      </trkpt>
      <trkpt lat="38.324441666666665" lon="-2.326375">
        <ele>660</ele>
        <time>2014-08-24T09:12:02.88</time>
      </trkpt>
      <trkpt lat="38.32443" lon="-2.326495">
        <ele>660</ele>
        <time>2014-08-24T09:12:04.90</time>
      </trkpt>
      <trkpt lat="38.32441" lon="-2.32661">
        <ele>659</ele>
        <time>2014-08-24T09:12:06.86</time>
      </trkpt>
      <trkpt lat="38.32438" lon="-2.3267183333333334">
        <ele>659</ele>
        <time>2014-08-24T09:12:08.88</time>
      </trkpt>
      <trkpt lat="38.32434" lon="-2.326835">
        <ele>659</ele>
        <time>2014-08-24T09:12:10.89</time>
      </trkpt>
      <trkpt lat="38.3243" lon="-2.3269450000000003">
        <ele>659</ele>
        <time>2014-08-24T09:12:12.93</time>
      </trkpt>
      <trkpt lat="38.32426" lon="-2.327055">
        <ele>659</ele>
        <time>2014-08-24T09:12:14.87</time>
      </trkpt>
      <trkpt lat="38.324215" lon="-2.32716">
        <ele>660</ele>
        <time>2014-08-24T09:12:16.91</time>
      </trkpt>
      <trkpt lat="38.32419" lon="-2.327275">
        <ele>659</ele>
        <time>2014-08-24T09:12:18.90</time>
      </trkpt>
      <trkpt lat="38.324155" lon="-2.3274">
        <ele>659</ele>
        <time>2014-08-24T09:12:20.84</time>
      </trkpt>
      <trkpt lat="38.324125" lon="-2.32752">
        <ele>659</ele>
        <time>2014-08-24T09:12:22.89</time>
      </trkpt>
      <trkpt lat="38.324095" lon="-2.327645">
        <ele>658</ele>
        <time>2014-08-24T09:12:24.90</time>
      </trkpt>
      <trkpt lat="38.32404" lon="-2.32776">
        <ele>659</ele>
        <time>2014-08-24T09:12:26.85</time>
      </trkpt>
      <trkpt lat="38.323985" lon="-2.32788">
        <ele>659</ele>
        <time>2014-08-24T09:12:28.82</time>
      </trkpt>
      <trkpt lat="38.32392" lon="-2.327995">
        <ele>658</ele>
        <time>2014-08-24T09:12:30.89</time>
      </trkpt>
      <trkpt lat="38.32385" lon="-2.328115">
        <ele>659</ele>
        <time>2014-08-24T09:12:32.86</time>
      </trkpt>
      <trkpt lat="38.323775" lon="-2.32823">
        <ele>659</ele>
        <time>2014-08-24T09:12:34.90</time>
      </trkpt>
      <trkpt lat="38.323683333333335" lon="-2.3283383333333334">
        <ele>658</ele>
        <time>2014-08-24T09:12:36.89</time>
      </trkpt>
      <trkpt lat="38.323605" lon="-2.3284333333333334">
        <ele>656</ele>
        <time>2014-08-24T09:12:38.91</time>
      </trkpt>
      <trkpt lat="38.323505" lon="-2.328526666666667">
        <ele>657</ele>
        <time>2014-08-24T09:12:40.84</time>
      </trkpt>
      <trkpt lat="38.32342" lon="-2.32862">
        <ele>656</ele>
        <time>2014-08-24T09:12:42.89</time>
      </trkpt>
      <trkpt lat="38.323315" lon="-2.328725">
        <ele>657</ele>
        <time>2014-08-24T09:12:44.83</time>
      </trkpt>
      <trkpt lat="38.323215" lon="-2.32884">
        <ele>658</ele>
        <time>2014-08-24T09:12:46.87</time>
      </trkpt>
      <trkpt lat="38.32316" lon="-2.3289">
        <ele>658</ele>
        <time>2014-08-24T09:12:47.87</time>
      </trkpt>
      <trkpt lat="38.32309" lon="-2.32897">
        <ele>657</ele>
        <time>2014-08-24T09:12:48.90</time>
      </trkpt>
      <trkpt lat="38.32304" lon="-2.329035">
        <ele>657</ele>
        <time>2014-08-24T09:12:49.91</time>
      </trkpt>
      <trkpt lat="38.32298" lon="-2.32909">
        <ele>657</ele>
        <time>2014-08-24T09:12:50.86</time>
      </trkpt>
      <trkpt lat="38.322915" lon="-2.329145">
        <ele>657</ele>
        <time>2014-08-24T09:12:51.91</time>
      </trkpt>
      <trkpt lat="38.32279" lon="-2.32921">
        <ele>656</ele>
        <time>2014-08-24T09:12:53.84</time>
      </trkpt>
      <trkpt lat="38.322685" lon="-2.329275">
        <ele>656</ele>
        <time>2014-08-24T09:12:55.95</time>
      </trkpt>
      <trkpt lat="38.322575" lon="-2.32932">
        <ele>656</ele>
        <time>2014-08-24T09:12:57.92</time>
      </trkpt>
      <trkpt lat="38.32247" lon="-2.329371666666667">
        <ele>658</ele>
        <time>2014-08-24T09:12:59.86</time>
      </trkpt>
      <trkpt lat="38.32239" lon="-2.329415">
        <ele>658</ele>
        <time>2014-08-24T09:13:01.91</time>
      </trkpt>
      <trkpt lat="38.322305" lon="-2.329495">
        <ele>659</ele>
        <time>2014-08-24T09:13:03.92</time>
      </trkpt>
      <trkpt lat="38.32222" lon="-2.329585">
        <ele>659</ele>
        <time>2014-08-24T09:13:05.84</time>
      </trkpt>
      <trkpt lat="38.322125" lon="-2.32966">
        <ele>661</ele>
        <time>2014-08-24T09:13:07.84</time>
      </trkpt>
      <trkpt lat="38.322035" lon="-2.32972">
        <ele>662</ele>
        <time>2014-08-24T09:13:09.90</time>
      </trkpt>
      <trkpt lat="38.32193" lon="-2.329755">
        <ele>662</ele>
        <time>2014-08-24T09:13:11.83</time>
      </trkpt>
      <trkpt lat="38.321835" lon="-2.32978">
        <ele>662</ele>
        <time>2014-08-24T09:13:13.86</time>
      </trkpt>
      <trkpt lat="38.321725" lon="-2.32979">
        <ele>663</ele>
        <time>2014-08-24T09:13:15.84</time>
      </trkpt>
      <trkpt lat="38.321615" lon="-2.32979">
        <ele>663</ele>
        <time>2014-08-24T09:13:17.83</time>
      </trkpt>
      <trkpt lat="38.321515" lon="-2.3298">
        <ele>665</ele>
        <time>2014-08-24T09:13:19.84</time>
      </trkpt>
      <trkpt lat="38.321435" lon="-2.32979">
        <ele>667</ele>
        <time>2014-08-24T09:13:21.83</time>
      </trkpt>
      <trkpt lat="38.321345" lon="-2.329815">
        <ele>668</ele>
        <time>2014-08-24T09:13:23.89</time>
      </trkpt>
      <trkpt lat="38.32123" lon="-2.32986">
        <ele>664</ele>
        <time>2014-08-24T09:13:25.85</time>
      </trkpt>
      <trkpt lat="38.321145" lon="-2.32991">
        <ele>666</ele>
        <time>2014-08-24T09:13:27.88</time>
      </trkpt>
      <trkpt lat="38.321055" lon="-2.329945">
        <ele>666</ele>
        <time>2014-08-24T09:13:29.89</time>
      </trkpt>
      <trkpt lat="38.32098" lon="-2.32999">
        <ele>667</ele>
        <time>2014-08-24T09:13:31.90</time>
      </trkpt>
      <trkpt lat="38.320905" lon="-2.33002">
        <ele>667</ele>
        <time>2014-08-24T09:13:33.79</time>
      </trkpt>
      <trkpt lat="38.320811666666664" lon="-2.33005">
        <ele>667</ele>
        <time>2014-08-24T09:13:35.83</time>
      </trkpt>
      <trkpt lat="38.32074" lon="-2.33009">
        <ele>667</ele>
        <time>2014-08-24T09:13:37.90</time>
      </trkpt>
      <trkpt lat="38.32067" lon="-2.33012">
        <ele>668</ele>
        <time>2014-08-24T09:13:39.87</time>
      </trkpt>
      <trkpt lat="38.32058" lon="-2.3301483333333333">
        <ele>669</ele>
        <time>2014-08-24T09:13:41.79</time>
      </trkpt>
      <trkpt lat="38.32049" lon="-2.330185">
        <ele>669</ele>
        <time>2014-08-24T09:13:43.79</time>
      </trkpt>
      <trkpt lat="38.32041" lon="-2.330215">
        <ele>670</ele>
        <time>2014-08-24T09:13:45.90</time>
      </trkpt>
      <trkpt lat="38.320315" lon="-2.33025">
        <ele>671</ele>
        <time>2014-08-24T09:13:47.89</time>
      </trkpt>
      <trkpt lat="38.3202" lon="-2.33028">
        <ele>669</ele>
        <time>2014-08-24T09:13:49.79</time>
      </trkpt>
      <trkpt lat="38.320115" lon="-2.33032">
        <ele>669</ele>
        <time>2014-08-24T09:13:51.83</time>
      </trkpt>
      <trkpt lat="38.320035" lon="-2.33038">
        <ele>671</ele>
        <time>2014-08-24T09:13:53.83</time>
      </trkpt>
      <trkpt lat="38.319945" lon="-2.33044">
        <ele>672</ele>
        <time>2014-08-24T09:13:55.84</time>
      </trkpt>
      <trkpt lat="38.319855" lon="-2.330505">
        <ele>672</ele>
        <time>2014-08-24T09:13:57.88</time>
      </trkpt>
      <trkpt lat="38.31979" lon="-2.33056">
        <ele>674</ele>
        <time>2014-08-24T09:13:59.99</time>
      </trkpt>
      <trkpt lat="38.31972" lon="-2.3306050000000003">
        <ele>674</ele>
        <time>2014-08-24T09:14:01.89</time>
      </trkpt>
      <trkpt lat="38.319635" lon="-2.33064">
        <ele>675</ele>
        <time>2014-08-24T09:14:03.90</time>
      </trkpt>
      <trkpt lat="38.31955" lon="-2.33065">
        <ele>674</ele>
        <time>2014-08-24T09:14:05.87</time>
      </trkpt>
      <trkpt lat="38.31946" lon="-2.3306633333333333">
        <ele>673</ele>
        <time>2014-08-24T09:14:07.88</time>
      </trkpt>
      <trkpt lat="38.319385" lon="-2.33067">
        <ele>673</ele>
        <time>2014-08-24T09:14:09.83</time>
      </trkpt>
      <trkpt lat="38.319305" lon="-2.3306883333333333">
        <ele>674</ele>
        <time>2014-08-24T09:14:11.83</time>
      </trkpt>
      <trkpt lat="38.319235" lon="-2.3307">
        <ele>673</ele>
        <time>2014-08-24T09:14:12.83</time>
      </trkpt>
      <trkpt lat="38.31915333333333" lon="-2.330715">
        <ele>674</ele>
        <time>2014-08-24T09:14:14.83</time>
      </trkpt>
      <trkpt lat="38.319075" lon="-2.33074">
        <ele>674</ele>
        <time>2014-08-24T09:14:16.84</time>
      </trkpt>
      <trkpt lat="38.31899833333333" lon="-2.330775">
        <ele>674</ele>
        <time>2014-08-24T09:14:18.84</time>
      </trkpt>
      <trkpt lat="38.31893" lon="-2.330825">
        <ele>674</ele>
        <time>2014-08-24T09:14:20.86</time>
      </trkpt>
      <trkpt lat="38.31887" lon="-2.3308983333333333">
        <ele>675</ele>
        <time>2014-08-24T09:14:23.28</time>
      </trkpt>
      <trkpt lat="38.318825" lon="-2.330995">
        <ele>676</ele>
        <time>2014-08-24T09:14:24.89</time>
      </trkpt>
      <trkpt lat="38.318795" lon="-2.33109">
        <ele>675</ele>
        <time>2014-08-24T09:14:26.84</time>
      </trkpt>
      <trkpt lat="38.31877" lon="-2.331185">
        <ele>676</ele>
        <time>2014-08-24T09:14:28.85</time>
      </trkpt>
      <trkpt lat="38.31874" lon="-2.331271666666667">
        <ele>676</ele>
        <time>2014-08-24T09:14:30.89</time>
      </trkpt>
      <trkpt lat="38.3187" lon="-2.33135">
        <ele>677</ele>
        <time>2014-08-24T09:14:32.84</time>
      </trkpt>
      <trkpt lat="38.318615" lon="-2.33143">
        <ele>678</ele>
        <time>2014-08-24T09:14:35.86</time>
      </trkpt>
      <trkpt lat="38.318545" lon="-2.33146">
        <ele>678</ele>
        <time>2014-08-24T09:14:37.84</time>
      </trkpt>
      <trkpt lat="38.31847" lon="-2.3314966666666668">
        <ele>680</ele>
        <time>2014-08-24T09:14:39.88</time>
      </trkpt>
      <trkpt lat="38.31839333333333" lon="-2.331545">
        <ele>681</ele>
        <time>2014-08-24T09:14:41.88</time>
      </trkpt>
      <trkpt lat="38.31833" lon="-2.3316">
        <ele>682</ele>
        <time>2014-08-24T09:14:43.84</time>
      </trkpt>
      <trkpt lat="38.318275" lon="-2.33167">
        <ele>682</ele>
        <time>2014-08-24T09:14:45.87</time>
      </trkpt>
      <trkpt lat="38.31823" lon="-2.33176">
        <ele>682</ele>
        <time>2014-08-24T09:14:47.87</time>
      </trkpt>
      <trkpt lat="38.3182" lon="-2.33186">
        <ele>683</ele>
        <time>2014-08-24T09:14:49.90</time>
      </trkpt>
      <trkpt lat="38.31816666666667" lon="-2.33196">
        <ele>682</ele>
        <time>2014-08-24T09:14:51.87</time>
      </trkpt>
      <trkpt lat="38.31813" lon="-2.332065">
        <ele>682</ele>
        <time>2014-08-24T09:14:53.83</time>
      </trkpt>
      <trkpt lat="38.31809" lon="-2.33217">
        <ele>682</ele>
        <time>2014-08-24T09:14:55.84</time>
      </trkpt>
      <trkpt lat="38.318035" lon="-2.33229">
        <ele>682</ele>
        <time>2014-08-24T09:14:57.84</time>
      </trkpt>
      <trkpt lat="38.317985" lon="-2.332386666666667">
        <ele>682</ele>
        <time>2014-08-24T09:14:59.85</time>
      </trkpt>
      <trkpt lat="38.317926666666665" lon="-2.332491666666667">
        <ele>681</ele>
        <time>2014-08-24T09:15:01.86</time>
      </trkpt>
      <trkpt lat="38.31787" lon="-2.3326000000000002">
        <ele>680</ele>
        <time>2014-08-24T09:15:03.89</time>
      </trkpt>
      <trkpt lat="38.317795" lon="-2.33271">
        <ele>679</ele>
        <time>2014-08-24T09:15:05.86</time>
      </trkpt>
      <trkpt lat="38.317701666666665" lon="-2.332815">
        <ele>678</ele>
        <time>2014-08-24T09:15:07.83</time>
      </trkpt>
      <trkpt lat="38.317616666666666" lon="-2.33291">
        <ele>676</ele>
        <time>2014-08-24T09:15:09.85</time>
      </trkpt>
      <trkpt lat="38.3175" lon="-2.332995">
        <ele>675</ele>
        <time>2014-08-24T09:15:11.84</time>
      </trkpt>
      <trkpt lat="38.317365" lon="-2.333065">
        <ele>674</ele>
        <time>2014-08-24T09:15:13.83</time>
      </trkpt>
      <trkpt lat="38.317295" lon="-2.3330933333333332">
        <ele>674</ele>
        <time>2014-08-24T09:15:14.84</time>
      </trkpt>
      <trkpt lat="38.31722" lon="-2.333125">
        <ele>674</ele>
        <time>2014-08-24T09:15:15.84</time>
      </trkpt>
      <trkpt lat="38.31714" lon="-2.333155">
        <ele>674</ele>
        <time>2014-08-24T09:15:16.83</time>
      </trkpt>
      <trkpt lat="38.317055" lon="-2.333165">
        <ele>674</ele>
        <time>2014-08-24T09:15:17.84</time>
      </trkpt>
      <trkpt lat="38.31696" lon="-2.33317">
        <ele>674</ele>
        <time>2014-08-24T09:15:18.84</time>
      </trkpt>
      <trkpt lat="38.316871666666664" lon="-2.333155">
        <ele>673</ele>
        <time>2014-08-24T09:15:19.84</time>
      </trkpt>
      <trkpt lat="38.31678" lon="-2.33315">
        <ele>673</ele>
        <time>2014-08-24T09:15:20.83</time>
      </trkpt>
      <trkpt lat="38.316695" lon="-2.333155">
        <ele>673</ele>
        <time>2014-08-24T09:15:21.84</time>
      </trkpt>
      <trkpt lat="38.316605" lon="-2.333155">
        <ele>672</ele>
        <time>2014-08-24T09:15:22.84</time>
      </trkpt>
      <trkpt lat="38.31652" lon="-2.33317">
        <ele>673</ele>
        <time>2014-08-24T09:15:23.84</time>
      </trkpt>
      <trkpt lat="38.316445" lon="-2.33319">
        <ele>672</ele>
        <time>2014-08-24T09:15:24.84</time>
      </trkpt>
      <trkpt lat="38.316365" lon="-2.333205">
        <ele>673</ele>
        <time>2014-08-24T09:15:25.84</time>
      </trkpt>
      <trkpt lat="38.316235" lon="-2.33325">
        <ele>671</ele>
        <time>2014-08-24T09:15:27.83</time>
      </trkpt>
      <trkpt lat="38.316105" lon="-2.33331">
        <ele>670</ele>
        <time>2014-08-24T09:15:29.85</time>
      </trkpt>
      <trkpt lat="38.31599" lon="-2.333406666666667">
        <ele>670</ele>
        <time>2014-08-24T09:15:31.84</time>
      </trkpt>
      <trkpt lat="38.315935" lon="-2.33347">
        <ele>670</ele>
        <time>2014-08-24T09:15:32.84</time>
      </trkpt>
      <trkpt lat="38.315835" lon="-2.33359">
        <ele>671</ele>
        <time>2014-08-24T09:15:34.84</time>
      </trkpt>
      <trkpt lat="38.31575" lon="-2.3337149999999998">
        <ele>671</ele>
        <time>2014-08-24T09:15:36.84</time>
      </trkpt>
      <trkpt lat="38.31568" lon="-2.333855">
        <ele>670</ele>
        <time>2014-08-24T09:15:38.83</time>
      </trkpt>
      <trkpt lat="38.31562" lon="-2.33399">
        <ele>671</ele>
        <time>2014-08-24T09:15:40.83</time>
      </trkpt>
      <trkpt lat="38.31557" lon="-2.33407">
        <ele>671</ele>
        <time>2014-08-24T09:15:41.83</time>
      </trkpt>
      <trkpt lat="38.31548" lon="-2.334225">
        <ele>669</ele>
        <time>2014-08-24T09:15:43.87</time>
      </trkpt>
      <trkpt lat="38.315445" lon="-2.334305">
        <ele>669</ele>
        <time>2014-08-24T09:15:44.88</time>
      </trkpt>
      <trkpt lat="38.315395" lon="-2.33447">
        <ele>669</ele>
        <time>2014-08-24T09:15:46.84</time>
      </trkpt>
      <trkpt lat="38.31536" lon="-2.334645">
        <ele>669</ele>
        <time>2014-08-24T09:15:48.86</time>
      </trkpt>
      <trkpt lat="38.315345" lon="-2.33481">
        <ele>670</ele>
        <time>2014-08-24T09:15:50.83</time>
      </trkpt>
      <trkpt lat="38.31534" lon="-2.33497">
        <ele>670</ele>
        <time>2014-08-24T09:15:52.83</time>
      </trkpt>
      <trkpt lat="38.31534833333333" lon="-2.335125">
        <ele>668</ele>
        <time>2014-08-24T09:15:54.90</time>
      </trkpt>
      <trkpt lat="38.315345" lon="-2.33527">
        <ele>668</ele>
        <time>2014-08-24T09:15:56.90</time>
      </trkpt>
      <trkpt lat="38.315351666666665" lon="-2.335405">
        <ele>668</ele>
        <time>2014-08-24T09:15:58.91</time>
      </trkpt>
      <trkpt lat="38.31538" lon="-2.33555">
        <ele>669</ele>
        <time>2014-08-24T09:16:00.88</time>
      </trkpt>
      <trkpt lat="38.315405" lon="-2.335675">
        <ele>670</ele>
        <time>2014-08-24T09:16:02.91</time>
      </trkpt>
      <trkpt lat="38.31542" lon="-2.335815">
        <ele>669</ele>
        <time>2014-08-24T09:16:04.91</time>
      </trkpt>
      <trkpt lat="38.31543" lon="-2.335945">
        <ele>669</ele>
        <time>2014-08-24T09:16:06.84</time>
      </trkpt>
      <trkpt lat="38.315445" lon="-2.33608">
        <ele>668</ele>
        <time>2014-08-24T09:16:08.90</time>
      </trkpt>
      <trkpt lat="38.315455" lon="-2.336215">
        <ele>670</ele>
        <time>2014-08-24T09:16:10.87</time>
      </trkpt>
      <trkpt lat="38.315485" lon="-2.336355">
        <ele>669</ele>
        <time>2014-08-24T09:16:12.87</time>
      </trkpt>
      <trkpt lat="38.315515" lon="-2.33649">
        <ele>668</ele>
        <time>2014-08-24T09:16:14.91</time>
      </trkpt>
      <trkpt lat="38.315555" lon="-2.336625">
        <ele>667</ele>
        <time>2014-08-24T09:16:16.87</time>
      </trkpt>
      <trkpt lat="38.315575" lon="-2.336755">
        <ele>666</ele>
        <time>2014-08-24T09:16:18.89</time>
      </trkpt>
      <trkpt lat="38.315605" lon="-2.336865">
        <ele>667</ele>
        <time>2014-08-24T09:16:20.90</time>
      </trkpt>
      <trkpt lat="38.315661666666664" lon="-2.336975">
        <ele>667</ele>
        <time>2014-08-24T09:16:22.92</time>
      </trkpt>
      <trkpt lat="38.315715" lon="-2.337085">
        <ele>669</ele>
        <time>2014-08-24T09:16:24.79</time>
      </trkpt>
      <trkpt lat="38.315745" lon="-2.33723">
        <ele>668</ele>
        <time>2014-08-24T09:16:26.79</time>
      </trkpt>
      <trkpt lat="38.315715" lon="-2.33738">
        <ele>668</ele>
        <time>2014-08-24T09:16:28.88</time>
      </trkpt>
      <trkpt lat="38.315675" lon="-2.33752">
        <ele>669</ele>
        <time>2014-08-24T09:16:30.90</time>
      </trkpt>
      <trkpt lat="38.31564" lon="-2.337655">
        <ele>669</ele>
        <time>2014-08-24T09:16:32.86</time>
      </trkpt>
      <trkpt lat="38.315615" lon="-2.33778">
        <ele>668</ele>
        <time>2014-08-24T09:16:34.89</time>
      </trkpt>
      <trkpt lat="38.31557333333333" lon="-2.337895">
        <ele>669</ele>
        <time>2014-08-24T09:16:36.90</time>
      </trkpt>
      <trkpt lat="38.31554" lon="-2.338">
        <ele>669</ele>
        <time>2014-08-24T09:16:38.87</time>
      </trkpt>
      <trkpt lat="38.315493333333336" lon="-2.3381">
        <ele>671</ele>
        <time>2014-08-24T09:16:40.83</time>
      </trkpt>
      <trkpt lat="38.315455" lon="-2.3382">
        <ele>671</ele>
        <time>2014-08-24T09:16:42.83</time>
      </trkpt>
      <trkpt lat="38.315405" lon="-2.338305">
        <ele>671</ele>
        <time>2014-08-24T09:16:44.91</time>
      </trkpt>
      <trkpt lat="38.31536" lon="-2.33841">
        <ele>672</ele>
        <time>2014-08-24T09:16:46.85</time>
      </trkpt>
      <trkpt lat="38.315305" lon="-2.3385">
        <ele>675</ele>
        <time>2014-08-24T09:16:48.84</time>
      </trkpt>
      <trkpt lat="38.31528" lon="-2.3386">
        <ele>676</ele>
        <time>2014-08-24T09:16:50.90</time>
      </trkpt>
      <trkpt lat="38.315275" lon="-2.3387000000000002">
        <ele>676</ele>
        <time>2014-08-24T09:16:52.89</time>
      </trkpt>
      <trkpt lat="38.315281666666664" lon="-2.338795">
        <ele>675</ele>
        <time>2014-08-24T09:16:54.88</time>
      </trkpt>
      <trkpt lat="38.31529" lon="-2.33893">
        <ele>677</ele>
        <time>2014-08-24T09:16:57.90</time>
      </trkpt>
      <trkpt lat="38.31525" lon="-2.33906">
        <ele>678</ele>
        <time>2014-08-24T09:17:00.88</time>
      </trkpt>
      <trkpt lat="38.315195" lon="-2.33913">
        <ele>679</ele>
        <time>2014-08-24T09:17:02.84</time>
      </trkpt>
      <trkpt lat="38.31512333333333" lon="-2.33917">
        <ele>677</ele>
        <time>2014-08-24T09:17:04.83</time>
      </trkpt>
      <trkpt lat="38.31504" lon="-2.339175">
        <ele>679</ele>
        <time>2014-08-24T09:17:06.84</time>
      </trkpt>
      <trkpt lat="38.314955" lon="-2.33915">
        <ele>680</ele>
        <time>2014-08-24T09:17:08.84</time>
      </trkpt>
      <trkpt lat="38.31487" lon="-2.3391083333333333">
        <ele>681</ele>
        <time>2014-08-24T09:17:10.83</time>
      </trkpt>
      <trkpt lat="38.31479" lon="-2.33907">
        <ele>681</ele>
        <time>2014-08-24T09:17:12.86</time>
      </trkpt>
      <trkpt lat="38.314715" lon="-2.33904">
        <ele>683</ele>
        <time>2014-08-24T09:17:14.88</time>
      </trkpt>
      <trkpt lat="38.31463" lon="-2.339025">
        <ele>683</ele>
        <time>2014-08-24T09:17:16.84</time>
      </trkpt>
      <trkpt lat="38.31454" lon="-2.339045">
        <ele>683</ele>
        <time>2014-08-24T09:17:19.18</time>
      </trkpt>
      <trkpt lat="38.314438333333335" lon="-2.339105">
        <ele>683</ele>
        <time>2014-08-24T09:17:20.90</time>
      </trkpt>
      <trkpt lat="38.31434" lon="-2.33914">
        <ele>684</ele>
        <time>2014-08-24T09:17:22.84</time>
      </trkpt>
      <trkpt lat="38.31424" lon="-2.33918">
        <ele>684</ele>
        <time>2014-08-24T09:17:24.83</time>
      </trkpt>
      <trkpt lat="38.31413" lon="-2.33921">
        <ele>683</ele>
        <time>2014-08-24T09:17:26.83</time>
      </trkpt>
      <trkpt lat="38.31402" lon="-2.33926">
        <ele>683</ele>
        <time>2014-08-24T09:17:28.90</time>
      </trkpt>
      <trkpt lat="38.31391" lon="-2.339295">
        <ele>683</ele>
        <time>2014-08-24T09:17:30.78</time>
      </trkpt>
      <trkpt lat="38.31379" lon="-2.33932">
        <ele>682</ele>
        <time>2014-08-24T09:17:32.78</time>
      </trkpt>
      <trkpt lat="38.31366" lon="-2.33934">
        <ele>682</ele>
        <time>2014-08-24T09:17:34.84</time>
      </trkpt>
      <trkpt lat="38.313585" lon="-2.339345">
        <ele>681</ele>
        <time>2014-08-24T09:17:35.83</time>
      </trkpt>
      <trkpt lat="38.313505" lon="-2.339355">
        <ele>681</ele>
        <time>2014-08-24T09:17:36.84</time>
      </trkpt>
      <trkpt lat="38.31342" lon="-2.3393683333333333">
        <ele>680</ele>
        <time>2014-08-24T09:17:37.78</time>
      </trkpt>
      <trkpt lat="38.313275" lon="-2.33941">
        <ele>679</ele>
        <time>2014-08-24T09:17:39.83</time>
      </trkpt>
      <trkpt lat="38.3132" lon="-2.339435">
        <ele>679</ele>
        <time>2014-08-24T09:17:40.83</time>
      </trkpt>
      <trkpt lat="38.313125" lon="-2.3394633333333332">
        <ele>679</ele>
        <time>2014-08-24T09:17:41.78</time>
      </trkpt>
      <trkpt lat="38.313003333333334" lon="-2.339535">
        <ele>678</ele>
        <time>2014-08-24T09:17:43.83</time>
      </trkpt>
      <trkpt lat="38.312885" lon="-2.33962">
        <ele>678</ele>
        <time>2014-08-24T09:17:45.84</time>
      </trkpt>
      <trkpt lat="38.31276" lon="-2.33969">
        <ele>678</ele>
        <time>2014-08-24T09:17:47.83</time>
      </trkpt>
      <trkpt lat="38.31265" lon="-2.33977">
        <ele>679</ele>
        <time>2014-08-24T09:17:49.78</time>
      </trkpt>
      <trkpt lat="38.31256" lon="-2.339855">
        <ele>680</ele>
        <time>2014-08-24T09:17:51.83</time>
      </trkpt>
      <trkpt lat="38.312466666666666" lon="-2.33994">
        <ele>680</ele>
        <time>2014-08-24T09:17:53.87</time>
      </trkpt>
      <trkpt lat="38.31239333333333" lon="-2.340025">
        <ele>679</ele>
        <time>2014-08-24T09:17:55.82</time>
      </trkpt>
      <trkpt lat="38.312295" lon="-2.34009">
        <ele>679</ele>
        <time>2014-08-24T09:17:57.83</time>
      </trkpt>
      <trkpt lat="38.312205" lon="-2.340155">
        <ele>680</ele>
        <time>2014-08-24T09:17:59.83</time>
      </trkpt>
      <trkpt lat="38.312095" lon="-2.340205">
        <ele>681</ele>
        <time>2014-08-24T09:18:01.84</time>
      </trkpt>
      <trkpt lat="38.311975" lon="-2.34024">
        <ele>683</ele>
        <time>2014-08-24T09:18:03.82</time>
      </trkpt>
      <trkpt lat="38.311885" lon="-2.3402950000000002">
        <ele>684</ele>
        <time>2014-08-24T09:18:05.92</time>
      </trkpt>
      <trkpt lat="38.31179" lon="-2.34036">
        <ele>684</ele>
        <time>2014-08-24T09:18:07.89</time>
      </trkpt>
      <trkpt lat="38.31172" lon="-2.340455">
        <ele>684</ele>
        <time>2014-08-24T09:18:09.83</time>
      </trkpt>
      <trkpt lat="38.31167" lon="-2.34055">
        <ele>685</ele>
        <time>2014-08-24T09:18:11.83</time>
      </trkpt>
      <trkpt lat="38.31161" lon="-2.340648333333333">
        <ele>685</ele>
        <time>2014-08-24T09:18:13.85</time>
      </trkpt>
      <trkpt lat="38.31154" lon="-2.34075">
        <ele>685</ele>
        <time>2014-08-24T09:18:15.84</time>
      </trkpt>
      <trkpt lat="38.311475" lon="-2.34085">
        <ele>686</ele>
        <time>2014-08-24T09:18:17.89</time>
      </trkpt>
      <trkpt lat="38.31143" lon="-2.340955">
        <ele>686</ele>
        <time>2014-08-24T09:18:19.84</time>
      </trkpt>
      <trkpt lat="38.31139" lon="-2.34106">
        <ele>685</ele>
        <time>2014-08-24T09:18:21.88</time>
      </trkpt>
      <trkpt lat="38.31136" lon="-2.34118">
        <ele>685</ele>
        <time>2014-08-24T09:18:23.90</time>
      </trkpt>
      <trkpt lat="38.31132" lon="-2.341295">
        <ele>685</ele>
        <time>2014-08-24T09:18:25.83</time>
      </trkpt>
      <trkpt lat="38.31129" lon="-2.341415">
        <ele>684</ele>
        <time>2014-08-24T09:18:27.83</time>
      </trkpt>
      <trkpt lat="38.31125" lon="-2.34153">
        <ele>683</ele>
        <time>2014-08-24T09:18:29.83</time>
      </trkpt>
      <trkpt lat="38.311205" lon="-2.34164">
        <ele>684</ele>
        <time>2014-08-24T09:18:31.83</time>
      </trkpt>
      <trkpt lat="38.31116" lon="-2.341755">
        <ele>683</ele>
        <time>2014-08-24T09:18:33.83</time>
      </trkpt>
      <trkpt lat="38.311103333333335" lon="-2.34186">
        <ele>682</ele>
        <time>2014-08-24T09:18:35.89</time>
      </trkpt>
      <trkpt lat="38.311045" lon="-2.341965">
        <ele>682</ele>
        <time>2014-08-24T09:18:37.84</time>
      </trkpt>
      <trkpt lat="38.31099" lon="-2.34207">
        <ele>681</ele>
        <time>2014-08-24T09:18:39.83</time>
      </trkpt>
      <trkpt lat="38.310935" lon="-2.34219">
        <ele>681</ele>
        <time>2014-08-24T09:18:41.84</time>
      </trkpt>
      <trkpt lat="38.310876666666665" lon="-2.3423249999999998">
        <ele>680</ele>
        <time>2014-08-24T09:18:43.83</time>
      </trkpt>
      <trkpt lat="38.310825" lon="-2.342465">
        <ele>681</ele>
        <time>2014-08-24T09:18:45.83</time>
      </trkpt>
      <trkpt lat="38.3108" lon="-2.3426">
        <ele>679</ele>
        <time>2014-08-24T09:18:47.83</time>
      </trkpt>
      <trkpt lat="38.310755" lon="-2.342745">
        <ele>679</ele>
        <time>2014-08-24T09:18:49.82</time>
      </trkpt>
      <trkpt lat="38.310715" lon="-2.342895">
        <ele>678</ele>
        <time>2014-08-24T09:18:51.83</time>
      </trkpt>
      <trkpt lat="38.31068" lon="-2.343055">
        <ele>677</ele>
        <time>2014-08-24T09:18:53.83</time>
      </trkpt>
      <trkpt lat="38.31065" lon="-2.3432283333333332">
        <ele>676</ele>
        <time>2014-08-24T09:18:55.84</time>
      </trkpt>
      <trkpt lat="38.31064" lon="-2.343325">
        <ele>676</ele>
        <time>2014-08-24T09:18:56.83</time>
      </trkpt>
      <trkpt lat="38.310615" lon="-2.34342">
        <ele>676</ele>
        <time>2014-08-24T09:18:57.86</time>
      </trkpt>
      <trkpt lat="38.31059" lon="-2.343515">
        <ele>676</ele>
        <time>2014-08-24T09:18:58.83</time>
      </trkpt>
      <trkpt lat="38.310565" lon="-2.34361">
        <ele>676</ele>
        <time>2014-08-24T09:18:59.83</time>
      </trkpt>
      <trkpt lat="38.31054" lon="-2.3437083333333333">
        <ele>676</ele>
        <time>2014-08-24T09:19:00.83</time>
      </trkpt>
      <trkpt lat="38.31051" lon="-2.343805">
        <ele>675</ele>
        <time>2014-08-24T09:19:01.84</time>
      </trkpt>
      <trkpt lat="38.31047" lon="-2.343895">
        <ele>675</ele>
        <time>2014-08-24T09:19:02.89</time>
      </trkpt>
      <trkpt lat="38.310435" lon="-2.343985">
        <ele>675</ele>
        <time>2014-08-24T09:19:04.38</time>
      </trkpt>
      <trkpt lat="38.31039" lon="-2.34408">
        <ele>674</ele>
        <time>2014-08-24T09:19:04.91</time>
      </trkpt>
      <trkpt lat="38.31035" lon="-2.344175">
        <ele>674</ele>
        <time>2014-08-24T09:19:05.89</time>
      </trkpt>
      <trkpt lat="38.310315" lon="-2.344265">
        <ele>673</ele>
        <time>2014-08-24T09:19:06.86</time>
      </trkpt>
      <trkpt lat="38.31028" lon="-2.34437">
        <ele>673</ele>
        <time>2014-08-24T09:19:07.84</time>
      </trkpt>
      <trkpt lat="38.310255" lon="-2.344475">
        <ele>672</ele>
        <time>2014-08-24T09:19:08.84</time>
      </trkpt>
      <trkpt lat="38.310235" lon="-2.34458">
        <ele>672</ele>
        <time>2014-08-24T09:19:09.84</time>
      </trkpt>
      <trkpt lat="38.310235" lon="-2.3446816666666668">
        <ele>673</ele>
        <time>2014-08-24T09:19:10.84</time>
      </trkpt>
      <trkpt lat="38.31023" lon="-2.344795">
        <ele>673</ele>
        <time>2014-08-24T09:19:11.84</time>
      </trkpt>
      <trkpt lat="38.31023" lon="-2.3449">
        <ele>673</ele>
        <time>2014-08-24T09:19:12.83</time>
      </trkpt>
      <trkpt lat="38.31022" lon="-2.34499">
        <ele>673</ele>
        <time>2014-08-24T09:19:13.83</time>
      </trkpt>
      <trkpt lat="38.310195" lon="-2.34509">
        <ele>673</ele>
        <time>2014-08-24T09:19:14.84</time>
      </trkpt>
      <trkpt lat="38.31015" lon="-2.34517">
        <ele>673</ele>
        <time>2014-08-24T09:19:15.85</time>
      </trkpt>
      <trkpt lat="38.31009" lon="-2.34523">
        <ele>673</ele>
        <time>2014-08-24T09:19:16.89</time>
      </trkpt>
      <trkpt lat="38.309985" lon="-2.34535">
        <ele>673</ele>
        <time>2014-08-24T09:19:18.90</time>
      </trkpt>
      <trkpt lat="38.309935" lon="-2.345415">
        <ele>673</ele>
        <time>2014-08-24T09:19:19.83</time>
      </trkpt>
      <trkpt lat="38.309855" lon="-2.3455500000000002">
        <ele>673</ele>
        <time>2014-08-24T09:19:21.84</time>
      </trkpt>
      <trkpt lat="38.309795" lon="-2.345675">
        <ele>674</ele>
        <time>2014-08-24T09:19:23.84</time>
      </trkpt>
      <trkpt lat="38.309745" lon="-2.345795">
        <ele>675</ele>
        <time>2014-08-24T09:19:25.78</time>
      </trkpt>
      <trkpt lat="38.3097" lon="-2.34593">
        <ele>674</ele>
        <time>2014-08-24T09:19:27.78</time>
      </trkpt>
      <trkpt lat="38.309635" lon="-2.346075">
        <ele>674</ele>
        <time>2014-08-24T09:19:29.84</time>
      </trkpt>
      <trkpt lat="38.30958" lon="-2.3462300000000003">
        <ele>673</ele>
        <time>2014-08-24T09:19:31.84</time>
      </trkpt>
      <trkpt lat="38.309555" lon="-2.346315">
        <ele>672</ele>
        <time>2014-08-24T09:19:32.84</time>
      </trkpt>
      <trkpt lat="38.309535" lon="-2.346405">
        <ele>672</ele>
        <time>2014-08-24T09:19:33.83</time>
      </trkpt>
      <trkpt lat="38.309505" lon="-2.34649">
        <ele>671</ele>
        <time>2014-08-24T09:19:34.84</time>
      </trkpt>
      <trkpt lat="38.309475" lon="-2.34659">
        <ele>671</ele>
        <time>2014-08-24T09:19:35.84</time>
      </trkpt>
      <trkpt lat="38.309441666666665" lon="-2.34669">
        <ele>671</ele>
        <time>2014-08-24T09:19:36.84</time>
      </trkpt>
      <trkpt lat="38.309415" lon="-2.346795">
        <ele>670</ele>
        <time>2014-08-24T09:19:37.83</time>
      </trkpt>
      <trkpt lat="38.30938" lon="-2.346895">
        <ele>670</ele>
        <time>2014-08-24T09:19:38.84</time>
      </trkpt>
      <trkpt lat="38.309345" lon="-2.347">
        <ele>669</ele>
        <time>2014-08-24T09:19:39.83</time>
      </trkpt>
      <trkpt lat="38.309309999999996" lon="-2.347105">
        <ele>668</ele>
        <time>2014-08-24T09:19:40.84</time>
      </trkpt>
      <trkpt lat="38.309265" lon="-2.3472049999999998">
        <ele>668</ele>
        <time>2014-08-24T09:19:41.83</time>
      </trkpt>
      <trkpt lat="38.309215" lon="-2.3473100000000002">
        <ele>669</ele>
        <time>2014-08-24T09:19:42.83</time>
      </trkpt>
      <trkpt lat="38.309165" lon="-2.347405">
        <ele>669</ele>
        <time>2014-08-24T09:19:43.83</time>
      </trkpt>
      <trkpt lat="38.309115" lon="-2.34749">
        <ele>669</ele>
        <time>2014-08-24T09:19:44.84</time>
      </trkpt>
      <trkpt lat="38.30905666666666" lon="-2.347555">
        <ele>669</ele>
        <time>2014-08-24T09:19:45.97</time>
      </trkpt>
      <trkpt lat="38.30899" lon="-2.3476216666666665">
        <ele>671</ele>
        <time>2014-08-24T09:19:46.82</time>
      </trkpt>
      <trkpt lat="38.30893" lon="-2.3476850000000002">
        <ele>672</ele>
        <time>2014-08-24T09:19:47.84</time>
      </trkpt>
      <trkpt lat="38.30887" lon="-2.347741666666667">
        <ele>672</ele>
        <time>2014-08-24T09:19:48.84</time>
      </trkpt>
      <trkpt lat="38.30876833333333" lon="-2.347845">
        <ele>673</ele>
        <time>2014-08-24T09:19:50.86</time>
      </trkpt>
      <trkpt lat="38.308681666666665" lon="-2.347935">
        <ele>672</ele>
        <time>2014-08-24T09:19:52.83</time>
      </trkpt>
      <trkpt lat="38.308595" lon="-2.348015">
        <ele>674</ele>
        <time>2014-08-24T09:19:54.84</time>
      </trkpt>
      <trkpt lat="38.308515" lon="-2.34809">
        <ele>674</ele>
        <time>2014-08-24T09:19:56.83</time>
      </trkpt>
      <trkpt lat="38.308465" lon="-2.3481783333333333">
        <ele>674</ele>
        <time>2014-08-24T09:19:58.83</time>
      </trkpt>
      <trkpt lat="38.308405" lon="-2.34829">
        <ele>675</ele>
        <time>2014-08-24T09:20:00.78</time>
      </trkpt>
      <trkpt lat="38.308345" lon="-2.348385">
        <ele>675</ele>
        <time>2014-08-24T09:20:02.83</time>
      </trkpt>
      <trkpt lat="38.308275" lon="-2.348455">
        <ele>675</ele>
        <time>2014-08-24T09:20:04.84</time>
      </trkpt>
      <trkpt lat="38.308185" lon="-2.348475">
        <ele>676</ele>
        <time>2014-08-24T09:20:06.78</time>
      </trkpt>
      <trkpt lat="38.308085" lon="-2.34846">
        <ele>677</ele>
        <time>2014-08-24T09:20:08.84</time>
      </trkpt>
      <trkpt lat="38.30802" lon="-2.34838">
        <ele>678</ele>
        <time>2014-08-24T09:20:10.89</time>
      </trkpt>
      <trkpt lat="38.30793833333333" lon="-2.3483">
        <ele>678</ele>
        <time>2014-08-24T09:20:12.84</time>
      </trkpt>
      <trkpt lat="38.30786" lon="-2.34824">
        <ele>679</ele>
        <time>2014-08-24T09:20:14.88</time>
      </trkpt>
      <trkpt lat="38.30776" lon="-2.348175">
        <ele>678</ele>
        <time>2014-08-24T09:20:16.89</time>
      </trkpt>
      <trkpt lat="38.307685" lon="-2.348116666666667">
        <ele>678</ele>
        <time>2014-08-24T09:20:18.83</time>
      </trkpt>
      <trkpt lat="38.3076" lon="-2.348055">
        <ele>678</ele>
        <time>2014-08-24T09:20:21.83</time>
      </trkpt>
      <trkpt lat="38.307565" lon="-2.347925">
        <ele>679</ele>
        <time>2014-08-24T09:20:24.83</time>
      </trkpt>
      <trkpt lat="38.307555" lon="-2.34782">
        <ele>679</ele>
        <time>2014-08-24T09:20:26.83</time>
      </trkpt>
      <trkpt lat="38.30753" lon="-2.347715">
        <ele>678</ele>
        <time>2014-08-24T09:20:28.84</time>
      </trkpt>
      <trkpt lat="38.307505" lon="-2.34761">
        <ele>678</ele>
        <time>2014-08-24T09:20:30.84</time>
      </trkpt>
      <trkpt lat="38.307471666666665" lon="-2.347506666666667">
        <ele>677</ele>
        <time>2014-08-24T09:20:32.84</time>
      </trkpt>
      <trkpt lat="38.30745" lon="-2.347405">
        <ele>677</ele>
        <time>2014-08-24T09:20:34.84</time>
      </trkpt>
      <trkpt lat="38.30743" lon="-2.347295">
        <ele>675</ele>
        <time>2014-08-24T09:20:36.84</time>
      </trkpt>
      <trkpt lat="38.3074" lon="-2.34719">
        <ele>675</ele>
        <time>2014-08-24T09:20:38.84</time>
      </trkpt>
      <trkpt lat="38.30738" lon="-2.347095">
        <ele>675</ele>
        <time>2014-08-24T09:20:40.84</time>
      </trkpt>
      <trkpt lat="38.307355" lon="-2.346985">
        <ele>675</ele>
        <time>2014-08-24T09:20:42.83</time>
      </trkpt>
      <trkpt lat="38.30733" lon="-2.34688">
        <ele>674</ele>
        <time>2014-08-24T09:20:44.83</time>
      </trkpt>
      <trkpt lat="38.307275" lon="-2.346785">
        <ele>673</ele>
        <time>2014-08-24T09:20:46.88</time>
      </trkpt>
      <trkpt lat="38.307215" lon="-2.3467000000000002">
        <ele>673</ele>
        <time>2014-08-24T09:20:48.90</time>
      </trkpt>
      <trkpt lat="38.307156666666664" lon="-2.346635">
        <ele>673</ele>
        <time>2014-08-24T09:20:50.88</time>
      </trkpt>
      <trkpt lat="38.30708" lon="-2.346555">
        <ele>674</ele>
        <time>2014-08-24T09:20:53.88</time>
      </trkpt>
      <trkpt lat="38.307" lon="-2.34649">
        <ele>674</ele>
        <time>2014-08-24T09:20:56.90</time>
      </trkpt>
      <trkpt lat="38.306931666666664" lon="-2.34644">
        <ele>675</ele>
        <time>2014-08-24T09:20:58.86</time>
      </trkpt>
      <trkpt lat="38.306866666666664" lon="-2.34638">
        <ele>676</ele>
        <time>2014-08-24T09:21:00.83</time>
      </trkpt>
      <trkpt lat="38.306805" lon="-2.346335">
        <ele>676</ele>
        <time>2014-08-24T09:21:02.83</time>
      </trkpt>
      <trkpt lat="38.30671" lon="-2.346315">
        <ele>676</ele>
        <time>2014-08-24T09:21:05.83</time>
      </trkpt>
      <trkpt lat="38.306605" lon="-2.346325">
        <ele>675</ele>
        <time>2014-08-24T09:21:08.83</time>
      </trkpt>
      <trkpt lat="38.306525" lon="-2.346345">
        <ele>672</ele>
        <time>2014-08-24T09:21:10.83</time>
      </trkpt>
      <trkpt lat="38.30645" lon="-2.346375">
        <ele>671</ele>
        <time>2014-08-24T09:21:12.83</time>
      </trkpt>
      <trkpt lat="38.306375" lon="-2.346425">
        <ele>670</ele>
        <time>2014-08-24T09:21:14.84</time>
      </trkpt>
      <trkpt lat="38.3063" lon="-2.346475">
        <ele>670</ele>
        <time>2014-08-24T09:21:16.83</time>
      </trkpt>
      <trkpt lat="38.306215" lon="-2.34654">
        <ele>671</ele>
        <time>2014-08-24T09:21:18.83</time>
      </trkpt>
      <trkpt lat="38.30615" lon="-2.346585">
        <ele>672</ele>
        <time>2014-08-24T09:21:19.99</time>
      </trkpt>
      <trkpt lat="38.306065" lon="-2.346625">
        <ele>672</ele>
        <time>2014-08-24T09:21:21.83</time>
      </trkpt>
      <trkpt lat="38.30598" lon="-2.346665">
        <ele>672</ele>
        <time>2014-08-24T09:21:23.83</time>
      </trkpt>
      <trkpt lat="38.305895" lon="-2.3467000000000002">
        <ele>672</ele>
        <time>2014-08-24T09:21:25.83</time>
      </trkpt>
      <trkpt lat="38.305805" lon="-2.34675">
        <ele>672</ele>
        <time>2014-08-24T09:21:27.83</time>
      </trkpt>
      <trkpt lat="38.305715" lon="-2.3468">
        <ele>673</ele>
        <time>2014-08-24T09:21:29.83</time>
      </trkpt>
      <trkpt lat="38.30562" lon="-2.346845">
        <ele>673</ele>
        <time>2014-08-24T09:21:31.96</time>
      </trkpt>
      <trkpt lat="38.305525" lon="-2.346885">
        <ele>674</ele>
        <time>2014-08-24T09:21:33.83</time>
      </trkpt>
      <trkpt lat="38.305425" lon="-2.346896666666667">
        <ele>674</ele>
        <time>2014-08-24T09:21:35.83</time>
      </trkpt>
      <trkpt lat="38.305315" lon="-2.3469066666666665">
        <ele>674</ele>
        <time>2014-08-24T09:21:37.83</time>
      </trkpt>
      <trkpt lat="38.305205" lon="-2.346945">
        <ele>673</ele>
        <time>2014-08-24T09:21:39.82</time>
      </trkpt>
      <trkpt lat="38.30511" lon="-2.347">
        <ele>673</ele>
        <time>2014-08-24T09:21:41.83</time>
      </trkpt>
      <trkpt lat="38.305015" lon="-2.34706">
        <ele>673</ele>
        <time>2014-08-24T09:21:43.78</time>
      </trkpt>
      <trkpt lat="38.30491" lon="-2.34712">
        <ele>675</ele>
        <time>2014-08-24T09:21:45.83</time>
      </trkpt>
      <trkpt lat="38.304825" lon="-2.347165">
        <ele>675</ele>
        <time>2014-08-24T09:21:47.83</time>
      </trkpt>
      <trkpt lat="38.304735" lon="-2.34719">
        <ele>675</ele>
        <time>2014-08-24T09:21:49.94</time>
      </trkpt>
      <trkpt lat="38.304656666666666" lon="-2.34719">
        <ele>676</ele>
        <time>2014-08-24T09:21:51.86</time>
      </trkpt>
      <trkpt lat="38.30458" lon="-2.347185">
        <ele>677</ele>
        <time>2014-08-24T09:21:53.86</time>
      </trkpt>
      <trkpt lat="38.3045" lon="-2.34722">
        <ele>678</ele>
        <time>2014-08-24T09:21:55.87</time>
      </trkpt>
      <trkpt lat="38.304445" lon="-2.3473100000000002">
        <ele>677</ele>
        <time>2014-08-24T09:21:57.81</time>
      </trkpt>
      <trkpt lat="38.30441" lon="-2.34741">
        <ele>677</ele>
        <time>2014-08-24T09:21:59.81</time>
      </trkpt>
      <trkpt lat="38.304363333333335" lon="-2.347531666666667">
        <ele>677</ele>
        <time>2014-08-24T09:22:01.81</time>
      </trkpt>
      <trkpt lat="38.30432" lon="-2.347655">
        <ele>678</ele>
        <time>2014-08-24T09:22:03.83</time>
      </trkpt>
      <trkpt lat="38.304285" lon="-2.347785">
        <ele>678</ele>
        <time>2014-08-24T09:22:05.83</time>
      </trkpt>
      <trkpt lat="38.304255" lon="-2.347915">
        <ele>677</ele>
        <time>2014-08-24T09:22:07.81</time>
      </trkpt>
      <trkpt lat="38.304215" lon="-2.348045">
        <ele>679</ele>
        <time>2014-08-24T09:22:09.81</time>
      </trkpt>
      <trkpt lat="38.304195" lon="-2.34817">
        <ele>677</ele>
        <time>2014-08-24T09:22:11.81</time>
      </trkpt>
      <trkpt lat="38.30416" lon="-2.348305">
        <ele>676</ele>
        <time>2014-08-24T09:22:13.81</time>
      </trkpt>
      <trkpt lat="38.30413" lon="-2.348415">
        <ele>676</ele>
        <time>2014-08-24T09:22:15.81</time>
      </trkpt>
      <trkpt lat="38.30411" lon="-2.3485266666666664">
        <ele>676</ele>
        <time>2014-08-24T09:22:17.83</time>
      </trkpt>
      <trkpt lat="38.304095" lon="-2.34864">
        <ele>673</ele>
        <time>2014-08-24T09:22:19.81</time>
      </trkpt>
      <trkpt lat="38.30402" lon="-2.34876">
        <ele>672</ele>
        <time>2014-08-24T09:22:21.81</time>
      </trkpt>
      <trkpt lat="38.30392" lon="-2.348885">
        <ele>672</ele>
        <time>2014-08-24T09:22:23.81</time>
      </trkpt>
      <trkpt lat="38.30385" lon="-2.34894">
        <ele>674</ele>
        <time>2014-08-24T09:22:24.77</time>
      </trkpt>
      <trkpt lat="38.303745" lon="-2.349045">
        <ele>675</ele>
        <time>2014-08-24T09:22:26.77</time>
      </trkpt>
      <trkpt lat="38.303671666666666" lon="-2.3491049999999998">
        <ele>675</ele>
        <time>2014-08-24T09:22:27.77</time>
      </trkpt>
      <trkpt lat="38.303565" lon="-2.349195">
        <ele>674</ele>
        <time>2014-08-24T09:22:29.83</time>
      </trkpt>
      <trkpt lat="38.303445" lon="-2.349265">
        <ele>674</ele>
        <time>2014-08-24T09:22:31.81</time>
      </trkpt>
      <trkpt lat="38.303335" lon="-2.349315">
        <ele>674</ele>
        <time>2014-08-24T09:22:33.81</time>
      </trkpt>
      <trkpt lat="38.30323" lon="-2.349395">
        <ele>673</ele>
        <time>2014-08-24T09:22:35.83</time>
      </trkpt>
      <trkpt lat="38.30314" lon="-2.349475">
        <ele>672</ele>
        <time>2014-08-24T09:22:37.81</time>
      </trkpt>
      <trkpt lat="38.30304" lon="-2.349545">
        <ele>673</ele>
        <time>2014-08-24T09:22:39.85</time>
      </trkpt>
      <trkpt lat="38.302945" lon="-2.349615">
        <ele>674</ele>
        <time>2014-08-24T09:22:41.93</time>
      </trkpt>
      <trkpt lat="38.30285" lon="-2.34968">
        <ele>674</ele>
        <time>2014-08-24T09:22:43.80</time>
      </trkpt>
      <trkpt lat="38.302755" lon="-2.34973">
        <ele>673</ele>
        <time>2014-08-24T09:22:45.82</time>
      </trkpt>
      <trkpt lat="38.302665" lon="-2.34978">
        <ele>672</ele>
        <time>2014-08-24T09:22:47.84</time>
      </trkpt>
      <trkpt lat="38.30258" lon="-2.34985">
        <ele>673</ele>
        <time>2014-08-24T09:22:49.87</time>
      </trkpt>
      <trkpt lat="38.30252" lon="-2.349935">
        <ele>672</ele>
        <time>2014-08-24T09:22:51.83</time>
      </trkpt>
      <trkpt lat="38.302425" lon="-2.3500366666666666">
        <ele>672</ele>
        <time>2014-08-24T09:22:53.83</time>
      </trkpt>
      <trkpt lat="38.30237" lon="-2.35012">
        <ele>673</ele>
        <time>2014-08-24T09:22:55.84</time>
      </trkpt>
      <trkpt lat="38.302275" lon="-2.35022">
        <ele>674</ele>
        <time>2014-08-24T09:22:57.85</time>
      </trkpt>
      <trkpt lat="38.30222" lon="-2.3503">
        <ele>674</ele>
        <time>2014-08-24T09:22:59.82</time>
      </trkpt>
      <trkpt lat="38.30214" lon="-2.350385">
        <ele>676</ele>
        <time>2014-08-24T09:23:01.82</time>
      </trkpt>
      <trkpt lat="38.302095" lon="-2.35047">
        <ele>675</ele>
        <time>2014-08-24T09:23:04.48</time>
      </trkpt>
      <trkpt lat="38.30205" lon="-2.3505766666666665">
        <ele>677</ele>
        <time>2014-08-24T09:23:05.83</time>
      </trkpt>
      <trkpt lat="38.302005" lon="-2.350695">
        <ele>677</ele>
        <time>2014-08-24T09:23:07.88</time>
      </trkpt>
      <trkpt lat="38.301965" lon="-2.35081">
        <ele>677</ele>
        <time>2014-08-24T09:23:09.88</time>
      </trkpt>
      <trkpt lat="38.301905" lon="-2.350915">
        <ele>678</ele>
        <time>2014-08-24T09:23:11.85</time>
      </trkpt>
      <trkpt lat="38.30185" lon="-2.351">
        <ele>679</ele>
        <time>2014-08-24T09:23:13.86</time>
      </trkpt>
      <trkpt lat="38.301775" lon="-2.35106">
        <ele>679</ele>
        <time>2014-08-24T09:23:15.87</time>
      </trkpt>
      <trkpt lat="38.3017" lon="-2.3510999999999997">
        <ele>679</ele>
        <time>2014-08-24T09:23:17.89</time>
      </trkpt>
      <trkpt lat="38.30163" lon="-2.351135">
        <ele>679</ele>
        <time>2014-08-24T09:23:19.81</time>
      </trkpt>
      <trkpt lat="38.30155" lon="-2.35116">
        <ele>680</ele>
        <time>2014-08-24T09:23:21.83</time>
      </trkpt>
      <trkpt lat="38.301475" lon="-2.351195">
        <ele>681</ele>
        <time>2014-08-24T09:23:23.83</time>
      </trkpt>
      <trkpt lat="38.3014" lon="-2.351211666666667">
        <ele>681</ele>
        <time>2014-08-24T09:23:25.83</time>
      </trkpt>
      <trkpt lat="38.3013" lon="-2.35125">
        <ele>682</ele>
        <time>2014-08-24T09:23:28.84</time>
      </trkpt>
      <trkpt lat="38.3012" lon="-2.351285">
        <ele>683</ele>
        <time>2014-08-24T09:23:31.83</time>
      </trkpt>
      <trkpt lat="38.301095" lon="-2.35133">
        <ele>684</ele>
        <time>2014-08-24T09:23:34.83</time>
      </trkpt>
      <trkpt lat="38.300995" lon="-2.35136">
        <ele>685</ele>
        <time>2014-08-24T09:23:37.88</time>
      </trkpt>
      <trkpt lat="38.300925" lon="-2.351375">
        <ele>685</ele>
        <time>2014-08-24T09:23:39.81</time>
      </trkpt>
      <trkpt lat="38.30085" lon="-2.35138">
        <ele>686</ele>
        <time>2014-08-24T09:23:41.77</time>
      </trkpt>
      <trkpt lat="38.30078" lon="-2.35138">
        <ele>686</ele>
        <time>2014-08-24T09:23:43.83</time>
      </trkpt>
      <trkpt lat="38.300705" lon="-2.351375">
        <ele>687</ele>
        <time>2014-08-24T09:23:45.83</time>
      </trkpt>
      <trkpt lat="38.30061" lon="-2.351365">
        <ele>688</ele>
        <time>2014-08-24T09:23:48.84</time>
      </trkpt>
      <trkpt lat="38.30052" lon="-2.351355">
        <ele>689</ele>
        <time>2014-08-24T09:23:51.83</time>
      </trkpt>
      <trkpt lat="38.30043" lon="-2.35133">
        <ele>691</ele>
        <time>2014-08-24T09:23:54.86</time>
      </trkpt>
      <trkpt lat="38.300345" lon="-2.351305">
        <ele>693</ele>
        <time>2014-08-24T09:23:57.84</time>
      </trkpt>
      <trkpt lat="38.30026333333333" lon="-2.35129">
        <ele>694</ele>
        <time>2014-08-24T09:24:00.84</time>
      </trkpt>
      <trkpt lat="38.300175" lon="-2.351296666666667">
        <ele>695</ele>
        <time>2014-08-24T09:24:04.88</time>
      </trkpt>
      <trkpt lat="38.3001" lon="-2.351315">
        <ele>696</ele>
        <time>2014-08-24T09:24:07.83</time>
      </trkpt>
      <trkpt lat="38.30002" lon="-2.35133">
        <ele>697</ele>
        <time>2014-08-24T09:24:10.84</time>
      </trkpt>
      <trkpt lat="38.29994" lon="-2.35134">
        <ele>698</ele>
        <time>2014-08-24T09:24:13.84</time>
      </trkpt>
      <trkpt lat="38.29986" lon="-2.35134">
        <ele>699</ele>
        <time>2014-08-24T09:24:16.83</time>
      </trkpt>
      <trkpt lat="38.29979" lon="-2.351305">
        <ele>701</ele>
        <time>2014-08-24T09:24:19.83</time>
      </trkpt>
      <trkpt lat="38.29972" lon="-2.351255">
        <ele>701</ele>
        <time>2014-08-24T09:24:22.83</time>
      </trkpt>
      <trkpt lat="38.29966" lon="-2.35119">
        <ele>702</ele>
        <time>2014-08-24T09:24:25.82</time>
      </trkpt>
      <trkpt lat="38.299605" lon="-2.3511183333333334">
        <ele>703</ele>
        <time>2014-08-24T09:24:28.83</time>
      </trkpt>
      <trkpt lat="38.299555" lon="-2.351053333333333">
        <ele>704</ele>
        <time>2014-08-24T09:24:31.83</time>
      </trkpt>
      <trkpt lat="38.299495" lon="-2.3509583333333333">
        <ele>705</ele>
        <time>2014-08-24T09:24:35.82</time>
      </trkpt>
      <trkpt lat="38.299465" lon="-2.3508466666666665">
        <ele>708</ele>
        <time>2014-08-24T09:24:39.82</time>
      </trkpt>
      <trkpt lat="38.29948" lon="-2.35074">
        <ele>709</ele>
        <time>2014-08-24T09:24:43.92</time>
      </trkpt>
      <trkpt lat="38.29947" lon="-2.350635">
        <ele>711</ele>
        <time>2014-08-24T09:24:47.83</time>
      </trkpt>
      <trkpt lat="38.29941" lon="-2.350556666666667">
        <ele>713</ele>
        <time>2014-08-24T09:24:51.83</time>
      </trkpt>
      <trkpt lat="38.29932" lon="-2.350535">
        <ele>715</ele>
        <time>2014-08-24T09:24:55.83</time>
      </trkpt>
      <trkpt lat="38.299245" lon="-2.350565">
        <ele>716</ele>
        <time>2014-08-24T09:24:58.83</time>
      </trkpt>
      <trkpt lat="38.299195" lon="-2.350635">
        <ele>717</ele>
        <time>2014-08-24T09:25:01.83</time>
      </trkpt>
      <trkpt lat="38.29914" lon="-2.350705">
        <ele>719</ele>
        <time>2014-08-24T09:25:04.83</time>
      </trkpt>
      <trkpt lat="38.29911" lon="-2.35079">
        <ele>723</ele>
        <time>2014-08-24T09:25:08.83</time>
      </trkpt>
      <trkpt lat="38.299095" lon="-2.350885">
        <ele>723</ele>
        <time>2014-08-24T09:25:12.82</time>
      </trkpt>
      <trkpt lat="38.29907" lon="-2.35099">
        <ele>724</ele>
        <time>2014-08-24T09:25:16.83</time>
      </trkpt>
      <trkpt lat="38.299065" lon="-2.351085">
        <ele>725</ele>
        <time>2014-08-24T09:25:20.83</time>
      </trkpt>
      <trkpt lat="38.299080000000004" lon="-2.351185">
        <ele>725</ele>
        <time>2014-08-24T09:25:24.77</time>
      </trkpt>
      <trkpt lat="38.299095" lon="-2.35128">
        <ele>725</ele>
        <time>2014-08-24T09:25:28.88</time>
      </trkpt>
      <trkpt lat="38.299105" lon="-2.35137">
        <ele>722</ele>
        <time>2014-08-24T09:25:32.82</time>
      </trkpt>
      <trkpt lat="38.29915" lon="-2.35147">
        <ele>723</ele>
        <time>2014-08-24T09:25:36.85</time>
      </trkpt>
      <trkpt lat="38.29918" lon="-2.351585">
        <ele>722</ele>
        <time>2014-08-24T09:25:40.83</time>
      </trkpt>
      <trkpt lat="38.299205" lon="-2.351695">
        <ele>723</ele>
        <time>2014-08-24T09:25:44.82</time>
      </trkpt>
      <trkpt lat="38.29923" lon="-2.351805">
        <ele>723</ele>
        <time>2014-08-24T09:25:48.86</time>
      </trkpt>
      <trkpt lat="38.29920833333333" lon="-2.351915">
        <ele>723</ele>
        <time>2014-08-24T09:25:52.83</time>
      </trkpt>
      <trkpt lat="38.299125" lon="-2.35196">
        <ele>723</ele>
        <time>2014-08-24T09:25:56.83</time>
      </trkpt>
      <trkpt lat="38.299051666666664" lon="-2.35192">
        <ele>724</ele>
        <time>2014-08-24T09:25:59.83</time>
      </trkpt>
      <trkpt lat="38.29899" lon="-2.351865">
        <ele>725</ele>
        <time>2014-08-24T09:26:02.83</time>
      </trkpt>
      <trkpt lat="38.29893" lon="-2.35181">
        <ele>726</ele>
        <time>2014-08-24T09:26:05.83</time>
      </trkpt>
      <trkpt lat="38.298875" lon="-2.351751666666667">
        <ele>726</ele>
        <time>2014-08-24T09:26:08.83</time>
      </trkpt>
      <trkpt lat="38.298795" lon="-2.35169">
        <ele>728</ele>
        <time>2014-08-24T09:26:12.82</time>
      </trkpt>
      <trkpt lat="38.298715" lon="-2.351635">
        <ele>729</ele>
        <time>2014-08-24T09:26:16.83</time>
      </trkpt>
      <trkpt lat="38.29863" lon="-2.351575">
        <ele>731</ele>
        <time>2014-08-24T09:26:20.83</time>
      </trkpt>
      <trkpt lat="38.29857" lon="-2.351525">
        <ele>731</ele>
        <time>2014-08-24T09:26:23.83</time>
      </trkpt>
      <trkpt lat="38.298505" lon="-2.351471666666667">
        <ele>732</ele>
        <time>2014-08-24T09:26:26.82</time>
      </trkpt>
      <trkpt lat="38.29844" lon="-2.351435">
        <ele>733</ele>
        <time>2014-08-24T09:26:29.84</time>
      </trkpt>
      <trkpt lat="38.29835" lon="-2.3513866666666665">
        <ele>735</ele>
        <time>2014-08-24T09:26:33.83</time>
      </trkpt>
      <trkpt lat="38.298255" lon="-2.351385">
        <ele>737</ele>
        <time>2014-08-24T09:26:37.83</time>
      </trkpt>
      <trkpt lat="38.29817" lon="-2.35138">
        <ele>738</ele>
        <time>2014-08-24T09:26:41.83</time>
      </trkpt>
      <trkpt lat="38.298125" lon="-2.351285">
        <ele>742</ele>
        <time>2014-08-24T09:26:45.82</time>
      </trkpt>
      <trkpt lat="38.298165" lon="-2.3512">
        <ele>743</ele>
        <time>2014-08-24T09:26:48.83</time>
      </trkpt>
      <trkpt lat="38.298215" lon="-2.3511333333333333">
        <ele>744</ele>
        <time>2014-08-24T09:26:51.84</time>
      </trkpt>
      <trkpt lat="38.29829" lon="-2.351053333333333">
        <ele>746</ele>
        <time>2014-08-24T09:26:55.83</time>
      </trkpt>
      <trkpt lat="38.29829333333333" lon="-2.350965">
        <ele>747</ele>
        <time>2014-08-24T09:26:58.83</time>
      </trkpt>
      <trkpt lat="38.298226666666665" lon="-2.35091">
        <ele>748</ele>
        <time>2014-08-24T09:27:01.83</time>
      </trkpt>
      <trkpt lat="38.29815" lon="-2.350925">
        <ele>749</ele>
        <time>2014-08-24T09:27:04.82</time>
      </trkpt>
      <trkpt lat="38.29807" lon="-2.350965">
        <ele>750</ele>
        <time>2014-08-24T09:27:07.84</time>
      </trkpt>
      <trkpt lat="38.298" lon="-2.350975">
        <ele>751</ele>
        <time>2014-08-24T09:27:10.83</time>
      </trkpt>
      <trkpt lat="38.297905" lon="-2.350975">
        <ele>752</ele>
        <time>2014-08-24T09:27:14.82</time>
      </trkpt>
      <trkpt lat="38.297835" lon="-2.35095">
        <ele>753</ele>
        <time>2014-08-24T09:27:17.82</time>
      </trkpt>
      <trkpt lat="38.29777" lon="-2.35092">
        <ele>754</ele>
        <time>2014-08-24T09:27:20.83</time>
      </trkpt>
      <trkpt lat="38.29768833333333" lon="-2.3509">
        <ele>754</ele>
        <time>2014-08-24T09:27:23.82</time>
      </trkpt>
      <trkpt lat="38.2976" lon="-2.35089">
        <ele>755</ele>
        <time>2014-08-24T09:27:26.82</time>
      </trkpt>
      <trkpt lat="38.297515" lon="-2.35089">
        <ele>756</ele>
        <time>2014-08-24T09:27:29.82</time>
      </trkpt>
      <trkpt lat="38.297445" lon="-2.350905">
        <ele>757</ele>
        <time>2014-08-24T09:27:32.82</time>
      </trkpt>
      <trkpt lat="38.29736" lon="-2.350905">
        <ele>759</ele>
        <time>2014-08-24T09:27:36.82</time>
      </trkpt>
      <trkpt lat="38.29732666666666" lon="-2.350791666666667">
        <ele>761</ele>
        <time>2014-08-24T09:27:40.83</time>
      </trkpt>
      <trkpt lat="38.29738" lon="-2.350685">
        <ele>762</ele>
        <time>2014-08-24T09:27:43.83</time>
      </trkpt>
      <trkpt lat="38.29746" lon="-2.350595">
        <ele>763</ele>
        <time>2014-08-24T09:27:46.82</time>
      </trkpt>
      <trkpt lat="38.297545" lon="-2.35052">
        <ele>763</ele>
        <time>2014-08-24T09:27:49.83</time>
      </trkpt>
      <trkpt lat="38.29764" lon="-2.350486666666667">
        <ele>764</ele>
        <time>2014-08-24T09:27:52.82</time>
      </trkpt>
      <trkpt lat="38.297725" lon="-2.350495">
        <ele>765</ele>
        <time>2014-08-24T09:27:55.90</time>
      </trkpt>
      <trkpt lat="38.2978" lon="-2.35047">
        <ele>766</ele>
        <time>2014-08-24T09:27:58.83</time>
      </trkpt>
      <trkpt lat="38.297846666666665" lon="-2.35039">
        <ele>767</ele>
        <time>2014-08-24T09:28:01.83</time>
      </trkpt>
      <trkpt lat="38.297855" lon="-2.35028">
        <ele>769</ele>
        <time>2014-08-24T09:28:04.82</time>
      </trkpt>
      <trkpt lat="38.2978" lon="-2.35019">
        <ele>770</ele>
        <time>2014-08-24T09:28:07.83</time>
      </trkpt>
      <trkpt lat="38.29772" lon="-2.350138333333333">
        <ele>771</ele>
        <time>2014-08-24T09:28:10.82</time>
      </trkpt>
      <trkpt lat="38.297645" lon="-2.350115">
        <ele>771</ele>
        <time>2014-08-24T09:28:13.81</time>
      </trkpt>
      <trkpt lat="38.29758" lon="-2.350065">
        <ele>772</ele>
        <time>2014-08-24T09:28:16.88</time>
      </trkpt>
      <trkpt lat="38.29755" lon="-2.34998">
        <ele>774</ele>
        <time>2014-08-24T09:28:19.82</time>
      </trkpt>
      <trkpt lat="38.297565" lon="-2.34986">
        <ele>775</ele>
        <time>2014-08-24T09:28:23.81</time>
      </trkpt>
      <trkpt lat="38.2976" lon="-2.34978">
        <ele>776</ele>
        <time>2014-08-24T09:28:26.77</time>
      </trkpt>
      <trkpt lat="38.297635" lon="-2.349686666666667">
        <ele>777</ele>
        <time>2014-08-24T09:28:29.82</time>
      </trkpt>
      <trkpt lat="38.29767" lon="-2.349605">
        <ele>778</ele>
        <time>2014-08-24T09:28:32.82</time>
      </trkpt>
      <trkpt lat="38.29770666666667" lon="-2.349525">
        <ele>779</ele>
        <time>2014-08-24T09:28:35.82</time>
      </trkpt>
      <trkpt lat="38.297745" lon="-2.34944">
        <ele>780</ele>
        <time>2014-08-24T09:28:38.82</time>
      </trkpt>
      <trkpt lat="38.297795" lon="-2.349345">
        <ele>782</ele>
        <time>2014-08-24T09:28:42.83</time>
      </trkpt>
      <trkpt lat="38.297835" lon="-2.3492333333333333">
        <ele>784</ele>
        <time>2014-08-24T09:28:46.77</time>
      </trkpt>
      <trkpt lat="38.29789" lon="-2.349145">
        <ele>786</ele>
        <time>2014-08-24T09:28:50.82</time>
      </trkpt>
      <trkpt lat="38.29793166666666" lon="-2.34905">
        <ele>787</ele>
        <time>2014-08-24T09:28:54.83</time>
      </trkpt>
      <trkpt lat="38.297965" lon="-2.34894">
        <ele>789</ele>
        <time>2014-08-24T09:28:58.82</time>
      </trkpt>
      <trkpt lat="38.297925" lon="-2.34884">
        <ele>791</ele>
        <time>2014-08-24T09:29:02.85</time>
      </trkpt>
      <trkpt lat="38.29784333333333" lon="-2.348855">
        <ele>792</ele>
        <time>2014-08-24T09:29:05.82</time>
      </trkpt>
      <trkpt lat="38.297795" lon="-2.34894">
        <ele>793</ele>
        <time>2014-08-24T09:29:08.76</time>
      </trkpt>
      <trkpt lat="38.297735" lon="-2.349015">
        <ele>792</ele>
        <time>2014-08-24T09:29:11.82</time>
      </trkpt>
      <trkpt lat="38.297675" lon="-2.34908">
        <ele>793</ele>
        <time>2014-08-24T09:29:14.82</time>
      </trkpt>
      <trkpt lat="38.2976" lon="-2.3491400000000002">
        <ele>794</ele>
        <time>2014-08-24T09:29:18.82</time>
      </trkpt>
      <trkpt lat="38.297515" lon="-2.34918">
        <ele>795</ele>
        <time>2014-08-24T09:29:22.84</time>
      </trkpt>
      <trkpt lat="38.29742" lon="-2.349205">
        <ele>796</ele>
        <time>2014-08-24T09:29:26.83</time>
      </trkpt>
      <trkpt lat="38.29735" lon="-2.349185">
        <ele>797</ele>
        <time>2014-08-24T09:29:29.86</time>
      </trkpt>
      <trkpt lat="38.297275" lon="-2.349175">
        <ele>798</ele>
        <time>2014-08-24T09:29:32.83</time>
      </trkpt>
      <trkpt lat="38.2972" lon="-2.34917">
        <ele>800</ele>
        <time>2014-08-24T09:29:35.88</time>
      </trkpt>
      <trkpt lat="38.29712" lon="-2.34917">
        <ele>799</ele>
        <time>2014-08-24T09:29:38.84</time>
      </trkpt>
      <trkpt lat="38.297045" lon="-2.34918">
        <ele>799</ele>
        <time>2014-08-24T09:29:41.88</time>
      </trkpt>
      <trkpt lat="38.296965" lon="-2.3492100000000002">
        <ele>800</ele>
        <time>2014-08-24T09:29:44.84</time>
      </trkpt>
      <trkpt lat="38.296895" lon="-2.34924">
        <ele>801</ele>
        <time>2014-08-24T09:29:47.88</time>
      </trkpt>
      <trkpt lat="38.296805" lon="-2.349255">
        <ele>802</ele>
        <time>2014-08-24T09:29:51.83</time>
      </trkpt>
      <trkpt lat="38.296715" lon="-2.3492683333333333">
        <ele>803</ele>
        <time>2014-08-24T09:29:56.28</time>
      </trkpt>
      <trkpt lat="38.296635" lon="-2.349275">
        <ele>804</ele>
        <time>2014-08-24T09:29:58.84</time>
      </trkpt>
      <trkpt lat="38.296551666666666" lon="-2.349285">
        <ele>806</ele>
        <time>2014-08-24T09:30:01.83</time>
      </trkpt>
      <trkpt lat="38.29647" lon="-2.34932">
        <ele>806</ele>
        <time>2014-08-24T09:30:04.83</time>
      </trkpt>
      <trkpt lat="38.296395" lon="-2.3494">
        <ele>806</ele>
        <time>2014-08-24T09:30:08.18</time>
      </trkpt>
      <trkpt lat="38.29634" lon="-2.3495">
        <ele>806</ele>
        <time>2014-08-24T09:30:10.83</time>
      </trkpt>
      <trkpt lat="38.296305" lon="-2.349606666666667">
        <ele>808</ele>
        <time>2014-08-24T09:30:13.86</time>
      </trkpt>
      <trkpt lat="38.296255" lon="-2.349695">
        <ele>808</ele>
        <time>2014-08-24T09:30:16.83</time>
      </trkpt>
      <trkpt lat="38.296165" lon="-2.3497149999999998">
        <ele>809</ele>
        <time>2014-08-24T09:30:20.81</time>
      </trkpt>
      <trkpt lat="38.29614" lon="-2.349615">
        <ele>811</ele>
        <time>2014-08-24T09:30:23.83</time>
      </trkpt>
      <trkpt lat="38.296165" lon="-2.349495">
        <ele>812</ele>
        <time>2014-08-24T09:30:26.77</time>
      </trkpt>
      <trkpt lat="38.296225" lon="-2.34939">
        <ele>813</ele>
        <time>2014-08-24T09:30:29.84</time>
      </trkpt>
      <trkpt lat="38.296285" lon="-2.349285">
        <ele>814</ele>
        <time>2014-08-24T09:30:32.83</time>
      </trkpt>
      <trkpt lat="38.296335" lon="-2.34918">
        <ele>815</ele>
        <time>2014-08-24T09:30:35.86</time>
      </trkpt>
      <trkpt lat="38.296385" lon="-2.3491049999999998">
        <ele>816</ele>
        <time>2014-08-24T09:30:37.83</time>
      </trkpt>
      <trkpt lat="38.29644" lon="-2.34904">
        <ele>817</ele>
        <time>2014-08-24T09:30:39.82</time>
      </trkpt>
      <trkpt lat="38.29653" lon="-2.3489750000000003">
        <ele>818</ele>
        <time>2014-08-24T09:30:42.83</time>
      </trkpt>
      <trkpt lat="38.29661" lon="-2.34894">
        <ele>819</ele>
        <time>2014-08-24T09:30:45.86</time>
      </trkpt>
      <trkpt lat="38.296685" lon="-2.3489050000000002">
        <ele>821</ele>
        <time>2014-08-24T09:30:48.88</time>
      </trkpt>
      <trkpt lat="38.29676" lon="-2.348845">
        <ele>822</ele>
        <time>2014-08-24T09:30:51.82</time>
      </trkpt>
      <trkpt lat="38.296825" lon="-2.34876">
        <ele>823</ele>
        <time>2014-08-24T09:30:54.88</time>
      </trkpt>
      <trkpt lat="38.29688" lon="-2.348665">
        <ele>823</ele>
        <time>2014-08-24T09:30:57.83</time>
      </trkpt>
      <trkpt lat="38.296945" lon="-2.348565">
        <ele>824</ele>
        <time>2014-08-24T09:31:00.83</time>
      </trkpt>
      <trkpt lat="38.297025" lon="-2.348485">
        <ele>825</ele>
        <time>2014-08-24T09:31:03.82</time>
      </trkpt>
      <trkpt lat="38.29707" lon="-2.348405">
        <ele>825</ele>
        <time>2014-08-24T09:31:05.83</time>
      </trkpt>
      <trkpt lat="38.29710333333333" lon="-2.34832">
        <ele>825</ele>
        <time>2014-08-24T09:31:07.83</time>
      </trkpt>
      <trkpt lat="38.29715" lon="-2.34823">
        <ele>826</ele>
        <time>2014-08-24T09:31:09.83</time>
      </trkpt>
      <trkpt lat="38.297205" lon="-2.34815">
        <ele>826</ele>
        <time>2014-08-24T09:31:11.82</time>
      </trkpt>
      <trkpt lat="38.297255" lon="-2.348065">
        <ele>826</ele>
        <time>2014-08-24T09:31:13.86</time>
      </trkpt>
      <trkpt lat="38.2973" lon="-2.347985">
        <ele>826</ele>
        <time>2014-08-24T09:31:15.88</time>
      </trkpt>
      <trkpt lat="38.297345" lon="-2.3479">
        <ele>827</ele>
        <time>2014-08-24T09:31:17.82</time>
      </trkpt>
      <trkpt lat="38.297381666666666" lon="-2.347805">
        <ele>827</ele>
        <time>2014-08-24T09:31:19.84</time>
      </trkpt>
      <trkpt lat="38.29742" lon="-2.3477083333333333">
        <ele>827</ele>
        <time>2014-08-24T09:31:21.88</time>
      </trkpt>
      <trkpt lat="38.297455" lon="-2.3476150000000002">
        <ele>827</ele>
        <time>2014-08-24T09:31:23.83</time>
      </trkpt>
      <trkpt lat="38.29748" lon="-2.347515">
        <ele>828</ele>
        <time>2014-08-24T09:31:25.77</time>
      </trkpt>
      <trkpt lat="38.297505" lon="-2.347415">
        <ele>828</ele>
        <time>2014-08-24T09:31:27.77</time>
      </trkpt>
      <trkpt lat="38.29753" lon="-2.3473100000000002">
        <ele>827</ele>
        <time>2014-08-24T09:31:29.82</time>
      </trkpt>
      <trkpt lat="38.297545" lon="-2.347201666666667">
        <ele>827</ele>
        <time>2014-08-24T09:31:31.94</time>
      </trkpt>
      <trkpt lat="38.29755166666666" lon="-2.347095">
        <ele>827</ele>
        <time>2014-08-24T09:31:33.90</time>
      </trkpt>
      <trkpt lat="38.29755" lon="-2.346985">
        <ele>828</ele>
        <time>2014-08-24T09:31:35.82</time>
      </trkpt>
      <trkpt lat="38.29755" lon="-2.346875">
        <ele>828</ele>
        <time>2014-08-24T09:31:37.83</time>
      </trkpt>
      <trkpt lat="38.29755" lon="-2.346775">
        <ele>828</ele>
        <time>2014-08-24T09:31:39.82</time>
      </trkpt>
      <trkpt lat="38.29755" lon="-2.346645">
        <ele>828</ele>
        <time>2014-08-24T09:31:42.81</time>
      </trkpt>
      <trkpt lat="38.297555" lon="-2.34651">
        <ele>828</ele>
        <time>2014-08-24T09:31:45.82</time>
      </trkpt>
      <trkpt lat="38.29752" lon="-2.34639">
        <ele>829</ele>
        <time>2014-08-24T09:31:48.83</time>
      </trkpt>
      <trkpt lat="38.29744" lon="-2.3464">
        <ele>828</ele>
        <time>2014-08-24T09:31:51.82</time>
      </trkpt>
      <trkpt lat="38.29738" lon="-2.34646">
        <ele>828</ele>
        <time>2014-08-24T09:31:54.82</time>
      </trkpt>
      <trkpt lat="38.29732666666666" lon="-2.346515">
        <ele>829</ele>
        <time>2014-08-24T09:31:57.82</time>
      </trkpt>
      <trkpt lat="38.297265" lon="-2.34658">
        <ele>829</ele>
        <time>2014-08-24T09:32:00.87</time>
      </trkpt>
      <trkpt lat="38.297205" lon="-2.346635">
        <ele>829</ele>
        <time>2014-08-24T09:32:02.77</time>
      </trkpt>
      <trkpt lat="38.29715" lon="-2.346705">
        <ele>829</ele>
        <time>2014-08-24T09:32:04.83</time>
      </trkpt>
      <trkpt lat="38.29708" lon="-2.346795">
        <ele>830</ele>
        <time>2014-08-24T09:32:07.81</time>
      </trkpt>
      <trkpt lat="38.297025" lon="-2.34688">
        <ele>832</ele>
        <time>2014-08-24T09:32:10.83</time>
      </trkpt>
      <trkpt lat="38.297" lon="-2.34698">
        <ele>832</ele>
        <time>2014-08-24T09:32:13.90</time>
      </trkpt>
      <trkpt lat="38.29699" lon="-2.3470750000000002">
        <ele>833</ele>
        <time>2014-08-24T09:32:16.89</time>
      </trkpt>
      <trkpt lat="38.29698" lon="-2.347175">
        <ele>833</ele>
        <time>2014-08-24T09:32:19.86</time>
      </trkpt>
      <trkpt lat="38.296975" lon="-2.34728">
        <ele>834</ele>
        <time>2014-08-24T09:32:22.83</time>
      </trkpt>
      <trkpt lat="38.29694833333333" lon="-2.347385">
        <ele>834</ele>
        <time>2014-08-24T09:32:25.83</time>
      </trkpt>
      <trkpt lat="38.296925" lon="-2.347485">
        <ele>834</ele>
        <time>2014-08-24T09:32:28.83</time>
      </trkpt>
      <trkpt lat="38.29687" lon="-2.34759">
        <ele>835</ele>
        <time>2014-08-24T09:32:31.82</time>
      </trkpt>
      <trkpt lat="38.296815" lon="-2.347655">
        <ele>834</ele>
        <time>2014-08-24T09:32:33.83</time>
      </trkpt>
      <trkpt lat="38.296765" lon="-2.347715">
        <ele>834</ele>
        <time>2014-08-24T09:32:35.87</time>
      </trkpt>
      <trkpt lat="38.296685" lon="-2.34776">
        <ele>835</ele>
        <time>2014-08-24T09:32:38.83</time>
      </trkpt>
      <trkpt lat="38.296615" lon="-2.34783">
        <ele>835</ele>
        <time>2014-08-24T09:32:42.88</time>
      </trkpt>
      <trkpt lat="38.29655" lon="-2.3478849999999998">
        <ele>835</ele>
        <time>2014-08-24T09:32:46.83</time>
      </trkpt>
      <trkpt lat="38.296495" lon="-2.347945">
        <ele>835</ele>
        <time>2014-08-24T09:32:50.85</time>
      </trkpt>
      <trkpt lat="38.29643" lon="-2.348003333333333">
        <ele>836</ele>
        <time>2014-08-24T09:32:55.88</time>
      </trkpt>
      <trkpt lat="38.296385" lon="-2.34809">
        <ele>837</ele>
        <time>2014-08-24T09:32:59.88</time>
      </trkpt>
      <trkpt lat="38.296315" lon="-2.34817">
        <ele>837</ele>
        <time>2014-08-24T09:33:03.90</time>
      </trkpt>
      <trkpt lat="38.29625" lon="-2.348245">
        <ele>836</ele>
        <time>2014-08-24T09:33:06.87</time>
      </trkpt>
      <trkpt lat="38.296185" lon="-2.348335">
        <ele>836</ele>
        <time>2014-08-24T09:33:09.89</time>
      </trkpt>
      <trkpt lat="38.29611833333333" lon="-2.348421666666667">
        <ele>836</ele>
        <time>2014-08-24T09:33:12.85</time>
      </trkpt>
      <trkpt lat="38.296045" lon="-2.348505">
        <ele>836</ele>
        <time>2014-08-24T09:33:15.91</time>
      </trkpt>
      <trkpt lat="38.29597" lon="-2.348595">
        <ele>836</ele>
        <time>2014-08-24T09:33:18.87</time>
      </trkpt>
      <trkpt lat="38.295915" lon="-2.3486583333333333">
        <ele>836</ele>
        <time>2014-08-24T09:33:20.89</time>
      </trkpt>
      <trkpt lat="38.29584" lon="-2.348755">
        <ele>836</ele>
        <time>2014-08-24T09:33:23.82</time>
      </trkpt>
      <trkpt lat="38.295765" lon="-2.348845">
        <ele>837</ele>
        <time>2014-08-24T09:33:26.86</time>
      </trkpt>
      <trkpt lat="38.295695" lon="-2.34894">
        <ele>838</ele>
        <time>2014-08-24T09:33:29.86</time>
      </trkpt>
      <trkpt lat="38.29563" lon="-2.34904">
        <ele>837</ele>
        <time>2014-08-24T09:33:32.83</time>
      </trkpt>
      <trkpt lat="38.29555" lon="-2.34913">
        <ele>837</ele>
        <time>2014-08-24T09:33:35.89</time>
      </trkpt>
      <trkpt lat="38.295505" lon="-2.3492">
        <ele>837</ele>
        <time>2014-08-24T09:33:37.84</time>
      </trkpt>
      <trkpt lat="38.29545" lon="-2.349265">
        <ele>838</ele>
        <time>2014-08-24T09:33:39.89</time>
      </trkpt>
      <trkpt lat="38.2954" lon="-2.3493233333333334">
        <ele>838</ele>
        <time>2014-08-24T09:33:41.90</time>
      </trkpt>
      <trkpt lat="38.295341666666666" lon="-2.349395">
        <ele>838</ele>
        <time>2014-08-24T09:33:43.83</time>
      </trkpt>
      <trkpt lat="38.295265" lon="-2.34948">
        <ele>837</ele>
        <time>2014-08-24T09:33:46.91</time>
      </trkpt>
      <trkpt lat="38.295175" lon="-2.349555">
        <ele>837</ele>
        <time>2014-08-24T09:33:49.87</time>
      </trkpt>
      <trkpt lat="38.295105" lon="-2.34963">
        <ele>838</ele>
        <time>2014-08-24T09:33:52.82</time>
      </trkpt>
      <trkpt lat="38.295035" lon="-2.3497149999999998">
        <ele>840</ele>
        <time>2014-08-24T09:33:55.88</time>
      </trkpt>
      <trkpt lat="38.29497" lon="-2.3498200000000002">
        <ele>840</ele>
        <time>2014-08-24T09:33:58.85</time>
      </trkpt>
      <trkpt lat="38.29493" lon="-2.349895">
        <ele>841</ele>
        <time>2014-08-24T09:34:00.96</time>
      </trkpt>
      <trkpt lat="38.294875" lon="-2.350015">
        <ele>841</ele>
        <time>2014-08-24T09:34:03.83</time>
      </trkpt>
      <trkpt lat="38.29482" lon="-2.35013">
        <ele>842</ele>
        <time>2014-08-24T09:34:06.82</time>
      </trkpt>
      <trkpt lat="38.294775" lon="-2.35021">
        <ele>842</ele>
        <time>2014-08-24T09:34:08.83</time>
      </trkpt>
      <trkpt lat="38.29471" lon="-2.350265">
        <ele>842</ele>
        <time>2014-08-24T09:34:10.82</time>
      </trkpt>
      <trkpt lat="38.294635" lon="-2.3503066666666665">
        <ele>844</ele>
        <time>2014-08-24T09:34:12.82</time>
      </trkpt>
      <trkpt lat="38.294555" lon="-2.350345">
        <ele>843</ele>
        <time>2014-08-24T09:34:14.86</time>
      </trkpt>
      <trkpt lat="38.29447" lon="-2.350365">
        <ele>844</ele>
        <time>2014-08-24T09:34:16.84</time>
      </trkpt>
      <trkpt lat="38.294395" lon="-2.35038">
        <ele>844</ele>
        <time>2014-08-24T09:34:18.87</time>
      </trkpt>
      <trkpt lat="38.29432" lon="-2.350395">
        <ele>844</ele>
        <time>2014-08-24T09:34:20.85</time>
      </trkpt>
      <trkpt lat="38.294245" lon="-2.35041">
        <ele>845</ele>
        <time>2014-08-24T09:34:23.8</time>
      </trkpt>
      <trkpt lat="38.294175" lon="-2.35042">
        <ele>845</ele>
        <time>2014-08-24T09:34:24.77</time>
      </trkpt>
      <trkpt lat="38.29407" lon="-2.350435">
        <ele>845</ele>
        <time>2014-08-24T09:34:27.79</time>
      </trkpt>
      <trkpt lat="38.29397" lon="-2.35045">
        <ele>845</ele>
        <time>2014-08-24T09:34:30.76</time>
      </trkpt>
      <trkpt lat="38.29387" lon="-2.350465">
        <ele>846</ele>
        <time>2014-08-24T09:34:33.82</time>
      </trkpt>
      <trkpt lat="38.293775" lon="-2.350465">
        <ele>846</ele>
        <time>2014-08-24T09:34:36.83</time>
      </trkpt>
      <trkpt lat="38.293675" lon="-2.350455">
        <ele>847</ele>
        <time>2014-08-24T09:34:39.81</time>
      </trkpt>
      <trkpt lat="38.29358" lon="-2.350455">
        <ele>849</ele>
        <time>2014-08-24T09:34:42.82</time>
      </trkpt>
      <trkpt lat="38.29349" lon="-2.350445">
        <ele>849</ele>
        <time>2014-08-24T09:34:45.82</time>
      </trkpt>
      <trkpt lat="38.293405" lon="-2.350445">
        <ele>849</ele>
        <time>2014-08-24T09:34:48.82</time>
      </trkpt>
      <trkpt lat="38.29332" lon="-2.350445">
        <ele>851</ele>
        <time>2014-08-24T09:34:51.81</time>
      </trkpt>
      <trkpt lat="38.29323333333333" lon="-2.35045">
        <ele>853</ele>
        <time>2014-08-24T09:34:54.81</time>
      </trkpt>
      <trkpt lat="38.293145" lon="-2.350475">
        <ele>856</ele>
        <time>2014-08-24T09:34:57.82</time>
      </trkpt>
      <trkpt lat="38.293065" lon="-2.350535">
        <ele>857</ele>
        <time>2014-08-24T09:35:00.82</time>
      </trkpt>
      <trkpt lat="38.293015" lon="-2.3506">
        <ele>858</ele>
        <time>2014-08-24T09:35:02.83</time>
      </trkpt>
      <trkpt lat="38.29297" lon="-2.3506716666666665">
        <ele>858</ele>
        <time>2014-08-24T09:35:04.81</time>
      </trkpt>
      <trkpt lat="38.29291833333333" lon="-2.35075">
        <ele>859</ele>
        <time>2014-08-24T09:35:06.82</time>
      </trkpt>
      <trkpt lat="38.292875" lon="-2.35082">
        <ele>856</ele>
        <time>2014-08-24T09:35:08.83</time>
      </trkpt>
      <trkpt lat="38.29281" lon="-2.35092">
        <ele>856</ele>
        <time>2014-08-24T09:35:11.81</time>
      </trkpt>
      <trkpt lat="38.292755" lon="-2.351035">
        <ele>857</ele>
        <time>2014-08-24T09:35:14.83</time>
      </trkpt>
      <trkpt lat="38.292725" lon="-2.351165">
        <ele>856</ele>
        <time>2014-08-24T09:35:17.82</time>
      </trkpt>
      <trkpt lat="38.292705" lon="-2.35129">
        <ele>857</ele>
        <time>2014-08-24T09:35:20.82</time>
      </trkpt>
      <trkpt lat="38.29269166666667" lon="-2.3514150000000003">
        <ele>858</ele>
        <time>2014-08-24T09:35:23.82</time>
      </trkpt>
      <trkpt lat="38.29269" lon="-2.35153">
        <ele>859</ele>
        <time>2014-08-24T09:35:26.83</time>
      </trkpt>
      <trkpt lat="38.29269" lon="-2.351635">
        <ele>860</ele>
        <time>2014-08-24T09:35:29.81</time>
      </trkpt>
      <trkpt lat="38.29269" lon="-2.351735">
        <ele>861</ele>
        <time>2014-08-24T09:35:32.95</time>
      </trkpt>
      <trkpt lat="38.29269" lon="-2.351845">
        <ele>862</ele>
        <time>2014-08-24T09:35:35.82</time>
      </trkpt>
      <trkpt lat="38.29269" lon="-2.35196">
        <ele>862</ele>
        <time>2014-08-24T09:35:38.82</time>
      </trkpt>
      <trkpt lat="38.29269333333333" lon="-2.3520849999999998">
        <ele>862</ele>
        <time>2014-08-24T09:35:41.86</time>
      </trkpt>
      <trkpt lat="38.29271" lon="-2.35218">
        <ele>862</ele>
        <time>2014-08-24T09:35:43.82</time>
      </trkpt>
      <trkpt lat="38.292735" lon="-2.35227">
        <ele>862</ele>
        <time>2014-08-24T09:35:45.83</time>
      </trkpt>
      <trkpt lat="38.292775" lon="-2.35235">
        <ele>862</ele>
        <time>2014-08-24T09:35:47.82</time>
      </trkpt>
      <trkpt lat="38.292845" lon="-2.35245">
        <ele>862</ele>
        <time>2014-08-24T09:35:50.82</time>
      </trkpt>
      <trkpt lat="38.292915" lon="-2.352535">
        <ele>864</ele>
        <time>2014-08-24T09:35:53.82</time>
      </trkpt>
      <trkpt lat="38.292975" lon="-2.35263">
        <ele>864</ele>
        <time>2014-08-24T09:35:56.82</time>
      </trkpt>
      <trkpt lat="38.29303" lon="-2.352725">
        <ele>865</ele>
        <time>2014-08-24T09:35:59.83</time>
      </trkpt>
      <trkpt lat="38.293075" lon="-2.35282">
        <ele>866</ele>
        <time>2014-08-24T09:36:02.82</time>
      </trkpt>
      <trkpt lat="38.29311" lon="-2.352905">
        <ele>868</ele>
        <time>2014-08-24T09:36:05.82</time>
      </trkpt>
      <trkpt lat="38.29316166666667" lon="-2.353005">
        <ele>869</ele>
        <time>2014-08-24T09:36:09.82</time>
      </trkpt>
      <trkpt lat="38.29321" lon="-2.353085">
        <ele>870</ele>
        <time>2014-08-24T09:36:12.82</time>
      </trkpt>
      <trkpt lat="38.293265" lon="-2.35316">
        <ele>872</ele>
        <time>2014-08-24T09:36:15.83</time>
      </trkpt>
      <trkpt lat="38.29334" lon="-2.353215">
        <ele>874</ele>
        <time>2014-08-24T09:36:18.83</time>
      </trkpt>
      <trkpt lat="38.29341" lon="-2.353265">
        <ele>878</ele>
        <time>2014-08-24T09:36:21.83</time>
      </trkpt>
      <trkpt lat="38.293475" lon="-2.3533033333333333">
        <ele>880</ele>
        <time>2014-08-24T09:36:24.82</time>
      </trkpt>
      <trkpt lat="38.29354" lon="-2.353355">
        <ele>882</ele>
        <time>2014-08-24T09:36:27.82</time>
      </trkpt>
      <trkpt lat="38.29361" lon="-2.353435">
        <ele>884</ele>
        <time>2014-08-24T09:36:31.82</time>
      </trkpt>
      <trkpt lat="38.29364" lon="-2.353525">
        <ele>884</ele>
        <time>2014-08-24T09:36:34.82</time>
      </trkpt>
      <trkpt lat="38.293655" lon="-2.35364">
        <ele>885</ele>
        <time>2014-08-24T09:36:37.81</time>
      </trkpt>
      <trkpt lat="38.293655" lon="-2.353765">
        <ele>886</ele>
        <time>2014-08-24T09:36:40.82</time>
      </trkpt>
      <trkpt lat="38.293655" lon="-2.353885">
        <ele>887</ele>
        <time>2014-08-24T09:36:43.81</time>
      </trkpt>
      <trkpt lat="38.29367" lon="-2.354">
        <ele>887</ele>
        <time>2014-08-24T09:36:47.28</time>
      </trkpt>
      <trkpt lat="38.293681666666664" lon="-2.35412">
        <ele>887</ele>
        <time>2014-08-24T09:36:49.82</time>
      </trkpt>
      <trkpt lat="38.29372" lon="-2.354216666666667">
        <ele>889</ele>
        <time>2014-08-24T09:36:52.82</time>
      </trkpt>
      <trkpt lat="38.293751666666665" lon="-2.35432">
        <ele>889</ele>
        <time>2014-08-24T09:36:55.82</time>
      </trkpt>
      <trkpt lat="38.293795" lon="-2.354415">
        <ele>890</ele>
        <time>2014-08-24T09:36:58.82</time>
      </trkpt>
      <trkpt lat="38.29385" lon="-2.354505">
        <ele>892</ele>
        <time>2014-08-24T09:37:01.84</time>
      </trkpt>
      <trkpt lat="38.29390333333333" lon="-2.35459">
        <ele>895</ele>
        <time>2014-08-24T09:37:04.83</time>
      </trkpt>
      <trkpt lat="38.29396" lon="-2.354675">
        <ele>897</ele>
        <time>2014-08-24T09:37:07.84</time>
      </trkpt>
      <trkpt lat="38.294" lon="-2.35478">
        <ele>896</ele>
        <time>2014-08-24T09:37:10.90</time>
      </trkpt>
      <trkpt lat="38.29403" lon="-2.354895">
        <ele>897</ele>
        <time>2014-08-24T09:37:13.83</time>
      </trkpt>
      <trkpt lat="38.29405" lon="-2.3550050000000002">
        <ele>897</ele>
        <time>2014-08-24T09:37:16.82</time>
      </trkpt>
      <trkpt lat="38.29406" lon="-2.35512">
        <ele>897</ele>
        <time>2014-08-24T09:37:19.86</time>
      </trkpt>
      <trkpt lat="38.29406" lon="-2.355225">
        <ele>896</ele>
        <time>2014-08-24T09:37:21.82</time>
      </trkpt>
      <trkpt lat="38.29406" lon="-2.3553800000000003">
        <ele>895</ele>
        <time>2014-08-24T09:37:23.82</time>
      </trkpt>
      <trkpt lat="38.294025" lon="-2.355545">
        <ele>893</ele>
        <time>2014-08-24T09:37:25.85</time>
      </trkpt>
      <trkpt lat="38.293955" lon="-2.35568">
        <ele>893</ele>
        <time>2014-08-24T09:37:27.91</time>
      </trkpt>
      <trkpt lat="38.29386" lon="-2.355801666666667">
        <ele>892</ele>
        <time>2014-08-24T09:37:29.87</time>
      </trkpt>
      <trkpt lat="38.293775" lon="-2.3558833333333333">
        <ele>894</ele>
        <time>2014-08-24T09:37:31.87</time>
      </trkpt>
      <trkpt lat="38.293715" lon="-2.3559633333333334">
        <ele>895</ele>
        <time>2014-08-24T09:37:33.82</time>
      </trkpt>
      <trkpt lat="38.29367" lon="-2.356065">
        <ele>895</ele>
        <time>2014-08-24T09:37:35.82</time>
      </trkpt>
      <trkpt lat="38.29363" lon="-2.356165">
        <ele>895</ele>
        <time>2014-08-24T09:37:37.81</time>
      </trkpt>
      <trkpt lat="38.29361" lon="-2.35628">
        <ele>895</ele>
        <time>2014-08-24T09:37:39.82</time>
      </trkpt>
      <trkpt lat="38.293615" lon="-2.356375">
        <ele>896</ele>
        <time>2014-08-24T09:37:41.82</time>
      </trkpt>
      <trkpt lat="38.293645" lon="-2.356495">
        <ele>897</ele>
        <time>2014-08-24T09:37:44.82</time>
      </trkpt>
      <trkpt lat="38.293625" lon="-2.356585">
        <ele>899</ele>
        <time>2014-08-24T09:37:47.82</time>
      </trkpt>
      <trkpt lat="38.293565" lon="-2.35664">
        <ele>902</ele>
        <time>2014-08-24T09:37:50.81</time>
      </trkpt>
      <trkpt lat="38.29348" lon="-2.35661">
        <ele>903</ele>
        <time>2014-08-24T09:37:53.84</time>
      </trkpt>
      <trkpt lat="38.293395" lon="-2.3565300000000002">
        <ele>905</ele>
        <time>2014-08-24T09:37:56.82</time>
      </trkpt>
      <trkpt lat="38.29334" lon="-2.356475">
        <ele>907</ele>
        <time>2014-08-24T09:37:58.82</time>
      </trkpt>
      <trkpt lat="38.29328" lon="-2.3564083333333334">
        <ele>908</ele>
        <time>2014-08-24T09:38:00.88</time>
      </trkpt>
      <trkpt lat="38.293215000000004" lon="-2.356315">
        <ele>911</ele>
        <time>2014-08-24T09:38:03.82</time>
      </trkpt>
      <trkpt lat="38.29319" lon="-2.3562">
        <ele>911</ele>
        <time>2014-08-24T09:38:06.85</time>
      </trkpt>
      <trkpt lat="38.293225" lon="-2.35608">
        <ele>913</ele>
        <time>2014-08-24T09:38:09.82</time>
      </trkpt>
      <trkpt lat="38.293295" lon="-2.355975">
        <ele>915</ele>
        <time>2014-08-24T09:38:12.84</time>
      </trkpt>
      <trkpt lat="38.29337" lon="-2.35589">
        <ele>916</ele>
        <time>2014-08-24T09:38:15.82</time>
      </trkpt>
      <trkpt lat="38.29343" lon="-2.355825">
        <ele>915</ele>
        <time>2014-08-24T09:38:17.87</time>
      </trkpt>
      <trkpt lat="38.293475" lon="-2.35575">
        <ele>917</ele>
        <time>2014-08-24T09:38:19.82</time>
      </trkpt>
      <trkpt lat="38.293515" lon="-2.35566">
        <ele>918</ele>
        <time>2014-08-24T09:38:21.89</time>
      </trkpt>
      <trkpt lat="38.29352333333333" lon="-2.35556">
        <ele>919</ele>
        <time>2014-08-24T09:38:23.83</time>
      </trkpt>
      <trkpt lat="38.2935" lon="-2.355465">
        <ele>919</ele>
        <time>2014-08-24T09:38:25.82</time>
      </trkpt>
      <trkpt lat="38.29345" lon="-2.3553800000000003">
        <ele>919</ele>
        <time>2014-08-24T09:38:27.87</time>
      </trkpt>
      <trkpt lat="38.293395" lon="-2.3553100000000002">
        <ele>918</ele>
        <time>2014-08-24T09:38:29.82</time>
      </trkpt>
      <trkpt lat="38.29332" lon="-2.35522">
        <ele>921</ele>
        <time>2014-08-24T09:38:32.87</time>
      </trkpt>
      <trkpt lat="38.29326" lon="-2.355131666666667">
        <ele>923</ele>
        <time>2014-08-24T09:38:35.95</time>
      </trkpt>
      <trkpt lat="38.29321" lon="-2.355035">
        <ele>924</ele>
        <time>2014-08-24T09:38:38.82</time>
      </trkpt>
      <trkpt lat="38.29317" lon="-2.35494">
        <ele>926</ele>
        <time>2014-08-24T09:38:41.82</time>
      </trkpt>
      <trkpt lat="38.29313" lon="-2.354845">
        <ele>927</ele>
        <time>2014-08-24T09:38:44.85</time>
      </trkpt>
      <trkpt lat="38.29305" lon="-2.3547700000000003">
        <ele>928</ele>
        <time>2014-08-24T09:38:48.82</time>
      </trkpt>
      <trkpt lat="38.29298" lon="-2.354755">
        <ele>928</ele>
        <time>2014-08-24T09:38:51.82</time>
      </trkpt>
      <trkpt lat="38.29291" lon="-2.3548">
        <ele>929</ele>
        <time>2014-08-24T09:38:54.82</time>
      </trkpt>
      <trkpt lat="38.292875" lon="-2.354895">
        <ele>929</ele>
        <time>2014-08-24T09:38:57.81</time>
      </trkpt>
      <trkpt lat="38.29287" lon="-2.3550050000000002">
        <ele>930</ele>
        <time>2014-08-24T09:39:00.86</time>
      </trkpt>
      <trkpt lat="38.292875" lon="-2.355105">
        <ele>930</ele>
        <time>2014-08-24T09:39:03.81</time>
      </trkpt>
      <trkpt lat="38.29287" lon="-2.3552049999999998">
        <ele>931</ele>
        <time>2014-08-24T09:39:06.81</time>
      </trkpt>
      <trkpt lat="38.29285" lon="-2.355305">
        <ele>932</ele>
        <time>2014-08-24T09:39:09.83</time>
      </trkpt>
      <trkpt lat="38.292835" lon="-2.355395">
        <ele>933</ele>
        <time>2014-08-24T09:39:12.82</time>
      </trkpt>
      <trkpt lat="38.292815" lon="-2.35549">
        <ele>934</ele>
        <time>2014-08-24T09:39:15.82</time>
      </trkpt>
      <trkpt lat="38.292795" lon="-2.355585">
        <ele>936</ele>
        <time>2014-08-24T09:39:18.82</time>
      </trkpt>
      <trkpt lat="38.292775" lon="-2.35568">
        <ele>936</ele>
        <time>2014-08-24T09:39:21.82</time>
      </trkpt>
      <trkpt lat="38.29275" lon="-2.35577">
        <ele>937</ele>
        <time>2014-08-24T09:39:24.82</time>
      </trkpt>
      <trkpt lat="38.292715" lon="-2.35588">
        <ele>939</ele>
        <time>2014-08-24T09:39:28.83</time>
      </trkpt>
      <trkpt lat="38.292675" lon="-2.355985">
        <ele>941</ele>
        <time>2014-08-24T09:39:32.82</time>
      </trkpt>
      <trkpt lat="38.292625" lon="-2.35607">
        <ele>944</ele>
        <time>2014-08-24T09:39:36.82</time>
      </trkpt>
      <trkpt lat="38.292565" lon="-2.356165">
        <ele>944</ele>
        <time>2014-08-24T09:39:40.82</time>
      </trkpt>
      <trkpt lat="38.292515" lon="-2.35626">
        <ele>946</ele>
        <time>2014-08-24T09:39:44.82</time>
      </trkpt>
      <trkpt lat="38.29245" lon="-2.35634">
        <ele>948</ele>
        <time>2014-08-24T09:39:48.97</time>
      </trkpt>
      <trkpt lat="38.2924" lon="-2.356405">
        <ele>949</ele>
        <time>2014-08-24T09:39:51.82</time>
      </trkpt>
      <trkpt lat="38.292345" lon="-2.356485">
        <ele>949</ele>
        <time>2014-08-24T09:39:54.82</time>
      </trkpt>
      <trkpt lat="38.292285" lon="-2.356565">
        <ele>949</ele>
        <time>2014-08-24T09:39:57.82</time>
      </trkpt>
      <trkpt lat="38.292225" lon="-2.35664">
        <ele>949</ele>
        <time>2014-08-24T09:40:00.96</time>
      </trkpt>
      <trkpt lat="38.29215" lon="-2.356725">
        <ele>950</ele>
        <time>2014-08-24T09:40:03.82</time>
      </trkpt>
      <trkpt lat="38.29209" lon="-2.356825">
        <ele>949</ele>
        <time>2014-08-24T09:40:06.97</time>
      </trkpt>
      <trkpt lat="38.292035" lon="-2.35692">
        <ele>951</ele>
        <time>2014-08-24T09:40:09.82</time>
      </trkpt>
      <trkpt lat="38.291975" lon="-2.357">
        <ele>952</ele>
        <time>2014-08-24T09:40:12.82</time>
      </trkpt>
      <trkpt lat="38.291925" lon="-2.357085">
        <ele>952</ele>
        <time>2014-08-24T09:40:15.84</time>
      </trkpt>
      <trkpt lat="38.29188" lon="-2.357155">
        <ele>953</ele>
        <time>2014-08-24T09:40:19.18</time>
      </trkpt>
      <trkpt lat="38.29183" lon="-2.35723">
        <ele>954</ele>
        <time>2014-08-24T09:40:21.82</time>
      </trkpt>
      <trkpt lat="38.291765" lon="-2.3573">
        <ele>955</ele>
        <time>2014-08-24T09:40:24.84</time>
      </trkpt>
      <trkpt lat="38.29169" lon="-2.357345">
        <ele>956</ele>
        <time>2014-08-24T09:40:27.83</time>
      </trkpt>
      <trkpt lat="38.291605" lon="-2.357365">
        <ele>957</ele>
        <time>2014-08-24T09:40:30.85</time>
      </trkpt>
      <trkpt lat="38.291495" lon="-2.35736">
        <ele>955</ele>
        <time>2014-08-24T09:40:33.88</time>
      </trkpt>
      <trkpt lat="38.291425" lon="-2.35733">
        <ele>955</ele>
        <time>2014-08-24T09:40:36.28</time>
      </trkpt>
      <trkpt lat="38.291325" lon="-2.357275">
        <ele>954</ele>
        <time>2014-08-24T09:40:38.87</time>
      </trkpt>
      <trkpt lat="38.291245" lon="-2.35719">
        <ele>954</ele>
        <time>2014-08-24T09:40:41.89</time>
      </trkpt>
      <trkpt lat="38.29117" lon="-2.3571">
        <ele>952</ele>
        <time>2014-08-24T09:40:44.81</time>
      </trkpt>
      <trkpt lat="38.29111" lon="-2.356985">
        <ele>950</ele>
        <time>2014-08-24T09:40:47.87</time>
      </trkpt>
      <trkpt lat="38.29107" lon="-2.35689">
        <ele>951</ele>
        <time>2014-08-24T09:40:49.83</time>
      </trkpt>
      <trkpt lat="38.291021666666666" lon="-2.356805">
        <ele>950</ele>
        <time>2014-08-24T09:40:51.82</time>
      </trkpt>
      <trkpt lat="38.29097" lon="-2.356725">
        <ele>950</ele>
        <time>2014-08-24T09:40:53.82</time>
      </trkpt>
      <trkpt lat="38.29091" lon="-2.356665">
        <ele>951</ele>
        <time>2014-08-24T09:40:55.81</time>
      </trkpt>
      <trkpt lat="38.29081166666667" lon="-2.356605">
        <ele>951</ele>
        <time>2014-08-24T09:40:58.88</time>
      </trkpt>
      <trkpt lat="38.290726666666664" lon="-2.356545">
        <ele>952</ele>
        <time>2014-08-24T09:41:01.81</time>
      </trkpt>
      <trkpt lat="38.290635" lon="-2.35649">
        <ele>957</ele>
        <time>2014-08-24T09:41:04.81</time>
      </trkpt>
      <trkpt lat="38.29056" lon="-2.356485">
        <ele>958</ele>
        <time>2014-08-24T09:41:06.88</time>
      </trkpt>
      <trkpt lat="38.29048" lon="-2.35651">
        <ele>959</ele>
        <time>2014-08-24T09:41:08.83</time>
      </trkpt>
      <trkpt lat="38.2904" lon="-2.35658">
        <ele>959</ele>
        <time>2014-08-24T09:41:10.85</time>
      </trkpt>
      <trkpt lat="38.29036" lon="-2.3566700000000003">
        <ele>959</ele>
        <time>2014-08-24T09:41:11.86</time>
      </trkpt>
      <trkpt lat="38.29032" lon="-2.35677">
        <ele>962</ele>
        <time>2014-08-24T09:41:13.82</time>
      </trkpt>
      <trkpt lat="38.290295" lon="-2.35689">
        <ele>962</ele>
        <time>2014-08-24T09:41:15.88</time>
      </trkpt>
      <trkpt lat="38.290245" lon="-2.357">
        <ele>965</ele>
        <time>2014-08-24T09:41:17.82</time>
      </trkpt>
      <trkpt lat="38.290215" lon="-2.3571">
        <ele>964</ele>
        <time>2014-08-24T09:41:19.82</time>
      </trkpt>
      <trkpt lat="38.29018833333333" lon="-2.357196666666667">
        <ele>965</ele>
        <time>2014-08-24T09:41:21.82</time>
      </trkpt>
      <trkpt lat="38.29016" lon="-2.357295">
        <ele>966</ele>
        <time>2014-08-24T09:41:23.82</time>
      </trkpt>
      <trkpt lat="38.29012" lon="-2.357375">
        <ele>966</ele>
        <time>2014-08-24T09:41:25.82</time>
      </trkpt>
      <trkpt lat="38.290075" lon="-2.35745">
        <ele>967</ele>
        <time>2014-08-24T09:41:27.82</time>
      </trkpt>
      <trkpt lat="38.29002" lon="-2.357525">
        <ele>967</ele>
        <time>2014-08-24T09:41:29.82</time>
      </trkpt>
      <trkpt lat="38.289955" lon="-2.357571666666667">
        <ele>968</ele>
        <time>2014-08-24T09:41:31.82</time>
      </trkpt>
      <trkpt lat="38.289875" lon="-2.3575983333333332">
        <ele>968</ele>
        <time>2014-08-24T09:41:33.87</time>
      </trkpt>
      <trkpt lat="38.289775" lon="-2.357615">
        <ele>968</ele>
        <time>2014-08-24T09:41:35.90</time>
      </trkpt>
      <trkpt lat="38.289685" lon="-2.35764">
        <ele>966</ele>
        <time>2014-08-24T09:41:38.18</time>
      </trkpt>
      <trkpt lat="38.289595" lon="-2.35766">
        <ele>967</ele>
        <time>2014-08-24T09:41:39.86</time>
      </trkpt>
      <trkpt lat="38.289515" lon="-2.3577">
        <ele>967</ele>
        <time>2014-08-24T09:41:41.87</time>
      </trkpt>
      <trkpt lat="38.289455" lon="-2.35777">
        <ele>967</ele>
        <time>2014-08-24T09:41:43.82</time>
      </trkpt>
      <trkpt lat="38.289375" lon="-2.357885">
        <ele>967</ele>
        <time>2014-08-24T09:41:46.87</time>
      </trkpt>
      <trkpt lat="38.289345" lon="-2.35798">
        <ele>966</ele>
        <time>2014-08-24T09:41:48.88</time>
      </trkpt>
      <trkpt lat="38.289335" lon="-2.358095">
        <ele>967</ele>
        <time>2014-08-24T09:41:50.82</time>
      </trkpt>
      <trkpt lat="38.289355" lon="-2.3582">
        <ele>967</ele>
        <time>2014-08-24T09:41:52.82</time>
      </trkpt>
      <trkpt lat="38.28938" lon="-2.35831">
        <ele>969</ele>
        <time>2014-08-24T09:41:54.82</time>
      </trkpt>
      <trkpt lat="38.28941" lon="-2.358405">
        <ele>969</ele>
        <time>2014-08-24T09:41:56.82</time>
      </trkpt>
      <trkpt lat="38.28943" lon="-2.358505">
        <ele>970</ele>
        <time>2014-08-24T09:41:58.82</time>
      </trkpt>
      <trkpt lat="38.28944" lon="-2.358635">
        <ele>970</ele>
        <time>2014-08-24T09:42:01.81</time>
      </trkpt>
      <trkpt lat="38.2894" lon="-2.35874">
        <ele>972</ele>
        <time>2014-08-24T09:42:04.81</time>
      </trkpt>
      <trkpt lat="38.289335" lon="-2.358825">
        <ele>974</ele>
        <time>2014-08-24T09:42:07.81</time>
      </trkpt>
      <trkpt lat="38.28926" lon="-2.35889">
        <ele>975</ele>
        <time>2014-08-24T09:42:10.82</time>
      </trkpt>
      <trkpt lat="38.289185" lon="-2.358955">
        <ele>977</ele>
        <time>2014-08-24T09:42:13.88</time>
      </trkpt>
      <trkpt lat="38.289115" lon="-2.359025">
        <ele>979</ele>
        <time>2014-08-24T09:42:16.82</time>
      </trkpt>
      <trkpt lat="38.289051666666666" lon="-2.35912">
        <ele>980</ele>
        <time>2014-08-24T09:42:19.87</time>
      </trkpt>
      <trkpt lat="38.288995" lon="-2.3592">
        <ele>983</ele>
        <time>2014-08-24T09:42:22.87</time>
      </trkpt>
      <trkpt lat="38.28894" lon="-2.3592816666666665">
        <ele>984</ele>
        <time>2014-08-24T09:42:25.83</time>
      </trkpt>
      <trkpt lat="38.288895" lon="-2.359375">
        <ele>985</ele>
        <time>2014-08-24T09:42:28.88</time>
      </trkpt>
      <trkpt lat="38.28884" lon="-2.3594633333333332">
        <ele>986</ele>
        <time>2014-08-24T09:42:31.85</time>
      </trkpt>
      <trkpt lat="38.288785" lon="-2.3595516666666665">
        <ele>987</ele>
        <time>2014-08-24T09:42:34.82</time>
      </trkpt>
      <trkpt lat="38.28872" lon="-2.3596483333333333">
        <ele>987</ele>
        <time>2014-08-24T09:42:37.89</time>
      </trkpt>
      <trkpt lat="38.28866" lon="-2.35974">
        <ele>988</ele>
        <time>2014-08-24T09:42:40.87</time>
      </trkpt>
      <trkpt lat="38.288585" lon="-2.359835">
        <ele>987</ele>
        <time>2014-08-24T09:42:43.78</time>
      </trkpt>
      <trkpt lat="38.288516666666666" lon="-2.3598850000000002">
        <ele>987</ele>
        <time>2014-08-24T09:42:45.84</time>
      </trkpt>
      <trkpt lat="38.28844333333333" lon="-2.3599083333333333">
        <ele>987</ele>
        <time>2014-08-24T09:42:48.8</time>
      </trkpt>
      <trkpt lat="38.288365" lon="-2.3599316666666668">
        <ele>987</ele>
        <time>2014-08-24T09:42:49.89</time>
      </trkpt>
      <trkpt lat="38.288285" lon="-2.3599449999999997">
        <ele>987</ele>
        <time>2014-08-24T09:42:51.82</time>
      </trkpt>
      <trkpt lat="38.288205" lon="-2.35996">
        <ele>988</ele>
        <time>2014-08-24T09:42:53.81</time>
      </trkpt>
      <trkpt lat="38.288125" lon="-2.35998">
        <ele>989</ele>
        <time>2014-08-24T09:42:55.90</time>
      </trkpt>
      <trkpt lat="38.28805" lon="-2.35999">
        <ele>990</ele>
        <time>2014-08-24T09:42:57.81</time>
      </trkpt>
      <trkpt lat="38.287955" lon="-2.359995">
        <ele>991</ele>
        <time>2014-08-24T09:43:00.94</time>
      </trkpt>
      <trkpt lat="38.28786" lon="-2.3599550000000002">
        <ele>993</ele>
        <time>2014-08-24T09:43:03.82</time>
      </trkpt>
      <trkpt lat="38.287765" lon="-2.35991">
        <ele>993</ele>
        <time>2014-08-24T09:43:06.82</time>
      </trkpt>
      <trkpt lat="38.287665" lon="-2.3599316666666668">
        <ele>994</ele>
        <time>2014-08-24T09:43:09.80</time>
      </trkpt>
      <trkpt lat="38.287615" lon="-2.36001">
        <ele>994</ele>
        <time>2014-08-24T09:43:11.82</time>
      </trkpt>
      <trkpt lat="38.28759" lon="-2.3601">
        <ele>995</ele>
        <time>2014-08-24T09:43:13.81</time>
      </trkpt>
      <trkpt lat="38.287575" lon="-2.36023">
        <ele>996</ele>
        <time>2014-08-24T09:43:16.82</time>
      </trkpt>
      <trkpt lat="38.28756" lon="-2.360345">
        <ele>998</ele>
        <time>2014-08-24T09:43:19.81</time>
      </trkpt>
      <trkpt lat="38.28753" lon="-2.360455">
        <ele>1001</ele>
        <time>2014-08-24T09:43:22.81</time>
      </trkpt>
      <trkpt lat="38.28751" lon="-2.3605650000000002">
        <ele>1003</ele>
        <time>2014-08-24T09:43:25.77</time>
      </trkpt>
      <trkpt lat="38.28748" lon="-2.360665">
        <ele>1005</ele>
        <time>2014-08-24T09:43:28.77</time>
      </trkpt>
      <trkpt lat="38.28745833333333" lon="-2.36075">
        <ele>1003</ele>
        <time>2014-08-24T09:43:31.78</time>
      </trkpt>
      <trkpt lat="38.28743" lon="-2.360835">
        <ele>1003</ele>
        <time>2014-08-24T09:43:34.77</time>
      </trkpt>
      <trkpt lat="38.28738" lon="-2.36091">
        <ele>1004</ele>
        <time>2014-08-24T09:43:37.81</time>
      </trkpt>
      <trkpt lat="38.28734" lon="-2.360995">
        <ele>1004</ele>
        <time>2014-08-24T09:43:40.86</time>
      </trkpt>
      <trkpt lat="38.28732" lon="-2.3611">
        <ele>1005</ele>
        <time>2014-08-24T09:43:43.81</time>
      </trkpt>
      <trkpt lat="38.28732333333333" lon="-2.36121">
        <ele>1005</ele>
        <time>2014-08-24T09:43:46.81</time>
      </trkpt>
      <trkpt lat="38.28732" lon="-2.361315">
        <ele>1006</ele>
        <time>2014-08-24T09:43:49.81</time>
      </trkpt>
      <trkpt lat="38.287308333333335" lon="-2.36142">
        <ele>1008</ele>
        <time>2014-08-24T09:43:52.80</time>
      </trkpt>
      <trkpt lat="38.287305" lon="-2.36152">
        <ele>1008</ele>
        <time>2014-08-24T09:43:55.81</time>
      </trkpt>
      <trkpt lat="38.28732333333333" lon="-2.36163">
        <ele>1008</ele>
        <time>2014-08-24T09:43:58.82</time>
      </trkpt>
      <trkpt lat="38.28734" lon="-2.361735">
        <ele>1009</ele>
        <time>2014-08-24T09:44:01.80</time>
      </trkpt>
      <trkpt lat="38.287315" lon="-2.361835">
        <ele>1008</ele>
        <time>2014-08-24T09:44:04.81</time>
      </trkpt>
      <trkpt lat="38.287236666666665" lon="-2.361885">
        <ele>1009</ele>
        <time>2014-08-24T09:44:07.81</time>
      </trkpt>
      <trkpt lat="38.28716" lon="-2.361825">
        <ele>1012</ele>
        <time>2014-08-24T09:44:10.81</time>
      </trkpt>
      <trkpt lat="38.287145" lon="-2.36171">
        <ele>1013</ele>
        <time>2014-08-24T09:44:13.81</time>
      </trkpt>
      <trkpt lat="38.287165" lon="-2.3616">
        <ele>1015</ele>
        <time>2014-08-24T09:44:16.81</time>
      </trkpt>
      <trkpt lat="38.28718" lon="-2.361495">
        <ele>1016</ele>
        <time>2014-08-24T09:44:19.81</time>
      </trkpt>
      <trkpt lat="38.287185" lon="-2.361395">
        <ele>1018</ele>
        <time>2014-08-24T09:44:22.81</time>
      </trkpt>
      <trkpt lat="38.287168333333334" lon="-2.361295">
        <ele>1019</ele>
        <time>2014-08-24T09:44:25.75</time>
      </trkpt>
      <trkpt lat="38.287145" lon="-2.361205">
        <ele>1020</ele>
        <time>2014-08-24T09:44:28.76</time>
      </trkpt>
      <trkpt lat="38.287115" lon="-2.361115">
        <ele>1022</ele>
        <time>2014-08-24T09:44:31.75</time>
      </trkpt>
      <trkpt lat="38.287095" lon="-2.361015">
        <ele>1024</ele>
        <time>2014-08-24T09:44:34.83</time>
      </trkpt>
      <trkpt lat="38.28708" lon="-2.360915">
        <ele>1025</ele>
        <time>2014-08-24T09:44:37.81</time>
      </trkpt>
      <trkpt lat="38.28707" lon="-2.36082">
        <ele>1026</ele>
        <time>2014-08-24T09:44:40.81</time>
      </trkpt>
      <trkpt lat="38.28704" lon="-2.360725">
        <ele>1027</ele>
        <time>2014-08-24T09:44:43.75</time>
      </trkpt>
      <trkpt lat="38.287" lon="-2.36062">
        <ele>1028</ele>
        <time>2014-08-24T09:44:46.81</time>
      </trkpt>
      <trkpt lat="38.28695" lon="-2.3605">
        <ele>1028</ele>
        <time>2014-08-24T09:44:49.81</time>
      </trkpt>
      <trkpt lat="38.286905" lon="-2.360376666666667">
        <ele>1028</ele>
        <time>2014-08-24T09:44:52.81</time>
      </trkpt>
      <trkpt lat="38.28687" lon="-2.360255">
        <ele>1029</ele>
        <time>2014-08-24T09:44:55.81</time>
      </trkpt>
      <trkpt lat="38.28678333333333" lon="-2.36018">
        <ele>1030</ele>
        <time>2014-08-24T09:44:58.81</time>
      </trkpt>
      <trkpt lat="38.28671833333333" lon="-2.360225">
        <ele>1030</ele>
        <time>2014-08-24T09:45:00.81</time>
      </trkpt>
      <trkpt lat="38.286715" lon="-2.36035">
        <ele>1031</ele>
        <time>2014-08-24T09:45:03.81</time>
      </trkpt>
      <trkpt lat="38.286765" lon="-2.36047">
        <ele>1031</ele>
        <time>2014-08-24T09:45:06.81</time>
      </trkpt>
      <trkpt lat="38.2868" lon="-2.36058">
        <ele>1032</ele>
        <time>2014-08-24T09:45:09.81</time>
      </trkpt>
      <trkpt lat="38.2868" lon="-2.360691666666667">
        <ele>1031</ele>
        <time>2014-08-24T09:45:12.81</time>
      </trkpt>
      <trkpt lat="38.28676" lon="-2.3608000000000002">
        <ele>1031</ele>
        <time>2014-08-24T09:45:15.82</time>
      </trkpt>
      <trkpt lat="38.286715" lon="-2.360875">
        <ele>1031</ele>
        <time>2014-08-24T09:45:17.81</time>
      </trkpt>
      <trkpt lat="38.28666" lon="-2.360935">
        <ele>1031</ele>
        <time>2014-08-24T09:45:19.81</time>
      </trkpt>
      <trkpt lat="38.286585" lon="-2.360975">
        <ele>1032</ele>
        <time>2014-08-24T09:45:21.81</time>
      </trkpt>
      <trkpt lat="38.28651" lon="-2.360986666666667">
        <ele>1032</ele>
        <time>2014-08-24T09:45:23.81</time>
      </trkpt>
      <trkpt lat="38.286435" lon="-2.3609833333333334">
        <ele>1033</ele>
        <time>2014-08-24T09:45:25.81</time>
      </trkpt>
      <trkpt lat="38.28636" lon="-2.360975">
        <ele>1033</ele>
        <time>2014-08-24T09:45:27.81</time>
      </trkpt>
      <trkpt lat="38.28629" lon="-2.3609">
        <ele>1035</ele>
        <time>2014-08-24T09:45:30.81</time>
      </trkpt>
      <trkpt lat="38.28624" lon="-2.360835">
        <ele>1036</ele>
        <time>2014-08-24T09:45:33.81</time>
      </trkpt>
      <trkpt lat="38.286215" lon="-2.36074">
        <ele>1038</ele>
        <time>2014-08-24T09:45:37.97</time>
      </trkpt>
      <trkpt lat="38.286195" lon="-2.3606316666666665">
        <ele>1040</ele>
        <time>2014-08-24T09:45:41.90</time>
      </trkpt>
      <trkpt lat="38.28618" lon="-2.360535">
        <ele>1041</ele>
        <time>2014-08-24T09:45:44.85</time>
      </trkpt>
      <trkpt lat="38.286175" lon="-2.36043">
        <ele>1043</ele>
        <time>2014-08-24T09:45:47.81</time>
      </trkpt>
      <trkpt lat="38.286175" lon="-2.360325">
        <ele>1044</ele>
        <time>2014-08-24T09:45:50.80</time>
      </trkpt>
      <trkpt lat="38.286175" lon="-2.360215">
        <ele>1045</ele>
        <time>2014-08-24T09:45:53.81</time>
      </trkpt>
      <trkpt lat="38.286175" lon="-2.360115">
        <ele>1046</ele>
        <time>2014-08-24T09:45:56.81</time>
      </trkpt>
      <trkpt lat="38.286175" lon="-2.360011666666667">
        <ele>1047</ele>
        <time>2014-08-24T09:45:59.76</time>
      </trkpt>
      <trkpt lat="38.286165" lon="-2.3599083333333333">
        <ele>1047</ele>
        <time>2014-08-24T09:46:02.82</time>
      </trkpt>
      <trkpt lat="38.28615" lon="-2.3598">
        <ele>1048</ele>
        <time>2014-08-24T09:46:05.81</time>
      </trkpt>
      <trkpt lat="38.28615" lon="-2.35969">
        <ele>1048</ele>
        <time>2014-08-24T09:46:08.76</time>
      </trkpt>
      <trkpt lat="38.28615" lon="-2.3595800000000002">
        <ele>1049</ele>
        <time>2014-08-24T09:46:11.97</time>
      </trkpt>
      <trkpt lat="38.286165" lon="-2.359485">
        <ele>1050</ele>
        <time>2014-08-24T09:46:14.84</time>
      </trkpt>
      <trkpt lat="38.286165" lon="-2.359385">
        <ele>1051</ele>
        <time>2014-08-24T09:46:17.81</time>
      </trkpt>
      <trkpt lat="38.28619" lon="-2.35928">
        <ele>1052</ele>
        <time>2014-08-24T09:46:20.83</time>
      </trkpt>
      <trkpt lat="38.28622" lon="-2.359185">
        <ele>1053</ele>
        <time>2014-08-24T09:46:23.80</time>
      </trkpt>
      <trkpt lat="38.28624666666666" lon="-2.35908">
        <ele>1053</ele>
        <time>2014-08-24T09:46:26.75</time>
      </trkpt>
      <trkpt lat="38.286275" lon="-2.3589700000000002">
        <ele>1054</ele>
        <time>2014-08-24T09:46:29.80</time>
      </trkpt>
      <trkpt lat="38.286295" lon="-2.35886">
        <ele>1054</ele>
        <time>2014-08-24T09:46:32.80</time>
      </trkpt>
      <trkpt lat="38.28632" lon="-2.3587466666666668">
        <ele>1056</ele>
        <time>2014-08-24T09:46:35.75</time>
      </trkpt>
      <trkpt lat="38.28635" lon="-2.358645">
        <ele>1057</ele>
        <time>2014-08-24T09:46:38.80</time>
      </trkpt>
      <trkpt lat="38.286395" lon="-2.358555">
        <ele>1058</ele>
        <time>2014-08-24T09:46:41.83</time>
      </trkpt>
      <trkpt lat="38.28645" lon="-2.3584716666666665">
        <ele>1058</ele>
        <time>2014-08-24T09:46:44.76</time>
      </trkpt>
      <trkpt lat="38.286505" lon="-2.3584">
        <ele>1060</ele>
        <time>2014-08-24T09:46:47.75</time>
      </trkpt>
      <trkpt lat="38.28657" lon="-2.35832">
        <ele>1061</ele>
        <time>2014-08-24T09:46:50.90</time>
      </trkpt>
      <trkpt lat="38.28665" lon="-2.358245">
        <ele>1061</ele>
        <time>2014-08-24T09:46:53.80</time>
      </trkpt>
      <trkpt lat="38.28671833333333" lon="-2.35816">
        <ele>1061</ele>
        <time>2014-08-24T09:46:56.80</time>
      </trkpt>
      <trkpt lat="38.286785" lon="-2.358075">
        <ele>1063</ele>
        <time>2014-08-24T09:46:59.81</time>
      </trkpt>
      <trkpt lat="38.286855" lon="-2.357995">
        <ele>1063</ele>
        <time>2014-08-24T09:47:02.81</time>
      </trkpt>
      <trkpt lat="38.286926666666666" lon="-2.357905">
        <ele>1064</ele>
        <time>2014-08-24T09:47:05.86</time>
      </trkpt>
      <trkpt lat="38.287" lon="-2.357815">
        <ele>1065</ele>
        <time>2014-08-24T09:47:08.80</time>
      </trkpt>
      <trkpt lat="38.287075" lon="-2.357725">
        <ele>1066</ele>
        <time>2014-08-24T09:47:11.80</time>
      </trkpt>
      <trkpt lat="38.28715166666667" lon="-2.35764">
        <ele>1067</ele>
        <time>2014-08-24T09:47:14.80</time>
      </trkpt>
      <trkpt lat="38.287225" lon="-2.35754">
        <ele>1068</ele>
        <time>2014-08-24T09:47:17.80</time>
      </trkpt>
      <trkpt lat="38.28727" lon="-2.357415">
        <ele>1069</ele>
        <time>2014-08-24T09:47:20.84</time>
      </trkpt>
      <trkpt lat="38.28728" lon="-2.35731">
        <ele>1069</ele>
        <time>2014-08-24T09:47:22.81</time>
      </trkpt>
      <trkpt lat="38.28728" lon="-2.3572100000000002">
        <ele>1069</ele>
        <time>2014-08-24T09:47:24.86</time>
      </trkpt>
      <trkpt lat="38.28728" lon="-2.3571">
        <ele>1068</ele>
        <time>2014-08-24T09:47:26.87</time>
      </trkpt>
      <trkpt lat="38.2873" lon="-2.356995">
        <ele>1068</ele>
        <time>2014-08-24T09:47:28.84</time>
      </trkpt>
      <trkpt lat="38.287355" lon="-2.35686">
        <ele>1069</ele>
        <time>2014-08-24T09:47:30.81</time>
      </trkpt>
      <trkpt lat="38.287393333333334" lon="-2.35675">
        <ele>1070</ele>
        <time>2014-08-24T09:47:32.87</time>
      </trkpt>
      <trkpt lat="38.287445" lon="-2.35663">
        <ele>1070</ele>
        <time>2014-08-24T09:47:34.88</time>
      </trkpt>
      <trkpt lat="38.28749" lon="-2.356525">
        <ele>1071</ele>
        <time>2014-08-24T09:47:36.84</time>
      </trkpt>
      <trkpt lat="38.287555" lon="-2.35643">
        <ele>1071</ele>
        <time>2014-08-24T09:47:38.86</time>
      </trkpt>
      <trkpt lat="38.287615" lon="-2.356345">
        <ele>1072</ele>
        <time>2014-08-24T09:47:40.81</time>
      </trkpt>
      <trkpt lat="38.287686666666666" lon="-2.35628">
        <ele>1072</ele>
        <time>2014-08-24T09:47:42.81</time>
      </trkpt>
      <trkpt lat="38.28776" lon="-2.356215">
        <ele>1072</ele>
        <time>2014-08-24T09:47:44.96</time>
      </trkpt>
      <trkpt lat="38.287825" lon="-2.3561366666666665">
        <ele>1073</ele>
        <time>2014-08-24T09:47:46.81</time>
      </trkpt>
      <trkpt lat="38.28789" lon="-2.356055">
        <ele>1073</ele>
        <time>2014-08-24T09:47:48.81</time>
      </trkpt>
      <trkpt lat="38.28795" lon="-2.355975">
        <ele>1073</ele>
        <time>2014-08-24T09:47:50.82</time>
      </trkpt>
      <trkpt lat="38.28801" lon="-2.35587">
        <ele>1073</ele>
        <time>2014-08-24T09:47:52.81</time>
      </trkpt>
      <trkpt lat="38.288065" lon="-2.355765">
        <ele>1073</ele>
        <time>2014-08-24T09:47:54.81</time>
      </trkpt>
      <trkpt lat="38.28813" lon="-2.355655">
        <ele>1073</ele>
        <time>2014-08-24T09:47:56.98</time>
      </trkpt>
      <trkpt lat="38.28819" lon="-2.35554">
        <ele>1074</ele>
        <time>2014-08-24T09:47:58.81</time>
      </trkpt>
      <trkpt lat="38.28825" lon="-2.35542">
        <ele>1074</ele>
        <time>2014-08-24T09:48:00.76</time>
      </trkpt>
      <trkpt lat="38.28830833333333" lon="-2.3553100000000002">
        <ele>1074</ele>
        <time>2014-08-24T09:48:02.80</time>
      </trkpt>
      <trkpt lat="38.28837" lon="-2.355195">
        <ele>1074</ele>
        <time>2014-08-24T09:48:04.81</time>
      </trkpt>
      <trkpt lat="38.28844" lon="-2.355085">
        <ele>1074</ele>
        <time>2014-08-24T09:48:06.74</time>
      </trkpt>
      <trkpt lat="38.288515" lon="-2.354965">
        <ele>1074</ele>
        <time>2014-08-24T09:48:08.75</time>
      </trkpt>
      <trkpt lat="38.28859" lon="-2.35485">
        <ele>1074</ele>
        <time>2014-08-24T09:48:10.82</time>
      </trkpt>
      <trkpt lat="38.288673333333335" lon="-2.35474">
        <ele>1074</ele>
        <time>2014-08-24T09:48:12.81</time>
      </trkpt>
      <trkpt lat="38.28877" lon="-2.354635">
        <ele>1074</ele>
        <time>2014-08-24T09:48:14.95</time>
      </trkpt>
      <trkpt lat="38.28885" lon="-2.35453">
        <ele>1074</ele>
        <time>2014-08-24T09:48:16.75</time>
      </trkpt>
      <trkpt lat="38.28891333333333" lon="-2.354425">
        <ele>1074</ele>
        <time>2014-08-24T09:48:18.81</time>
      </trkpt>
      <trkpt lat="38.288965" lon="-2.354315">
        <ele>1075</ele>
        <time>2014-08-24T09:48:20.75</time>
      </trkpt>
      <trkpt lat="38.288995" lon="-2.354205">
        <ele>1075</ele>
        <time>2014-08-24T09:48:22.74</time>
      </trkpt>
      <trkpt lat="38.28901" lon="-2.3540883333333333">
        <ele>1076</ele>
        <time>2014-08-24T09:48:24.80</time>
      </trkpt>
      <trkpt lat="38.289" lon="-2.353965">
        <ele>1076</ele>
        <time>2014-08-24T09:48:26.81</time>
      </trkpt>
      <trkpt lat="38.28897" lon="-2.35384">
        <ele>1076</ele>
        <time>2014-08-24T09:48:28.81</time>
      </trkpt>
      <trkpt lat="38.28894" lon="-2.353735">
        <ele>1076</ele>
        <time>2014-08-24T09:48:30.80</time>
      </trkpt>
      <trkpt lat="38.288905" lon="-2.353625">
        <ele>1076</ele>
        <time>2014-08-24T09:48:32.81</time>
      </trkpt>
      <trkpt lat="38.288875" lon="-2.353515">
        <ele>1076</ele>
        <time>2014-08-24T09:48:34.81</time>
      </trkpt>
      <trkpt lat="38.28884" lon="-2.353415">
        <ele>1076</ele>
        <time>2014-08-24T09:48:36.80</time>
      </trkpt>
      <trkpt lat="38.2888" lon="-2.353325">
        <ele>1076</ele>
        <time>2014-08-24T09:48:38.80</time>
      </trkpt>
      <trkpt lat="38.28875" lon="-2.3532333333333333">
        <ele>1076</ele>
        <time>2014-08-24T09:48:40.81</time>
      </trkpt>
      <trkpt lat="38.28871" lon="-2.35316">
        <ele>1078</ele>
        <time>2014-08-24T09:48:42.81</time>
      </trkpt>
      <trkpt lat="38.288665" lon="-2.353085">
        <ele>1079</ele>
        <time>2014-08-24T09:48:44.81</time>
      </trkpt>
      <trkpt lat="38.288595" lon="-2.352985">
        <ele>1081</ele>
        <time>2014-08-24T09:48:47.81</time>
      </trkpt>
      <trkpt lat="38.28853" lon="-2.35288">
        <ele>1082</ele>
        <time>2014-08-24T09:48:50.85</time>
      </trkpt>
      <trkpt lat="38.288485" lon="-2.352775">
        <ele>1084</ele>
        <time>2014-08-24T09:48:53.86</time>
      </trkpt>
      <trkpt lat="38.28844" lon="-2.35267">
        <ele>1085</ele>
        <time>2014-08-24T09:48:56.81</time>
      </trkpt>
      <trkpt lat="38.28841" lon="-2.35257">
        <ele>1087</ele>
        <time>2014-08-24T09:48:59.80</time>
      </trkpt>
      <trkpt lat="38.288378333333334" lon="-2.352465">
        <ele>1087</ele>
        <time>2014-08-24T09:49:02.80</time>
      </trkpt>
      <trkpt lat="38.288335000000004" lon="-2.352365">
        <ele>1088</ele>
        <time>2014-08-24T09:49:05.81</time>
      </trkpt>
      <trkpt lat="38.28827" lon="-2.35228">
        <ele>1089</ele>
        <time>2014-08-24T09:49:08.80</time>
      </trkpt>
      <trkpt lat="38.28821833333333" lon="-2.3521900000000002">
        <ele>1090</ele>
        <time>2014-08-24T09:49:11.80</time>
      </trkpt>
      <trkpt lat="38.28818" lon="-2.3520849999999998">
        <ele>1091</ele>
        <time>2014-08-24T09:49:14.79</time>
      </trkpt>
      <trkpt lat="38.288145" lon="-2.351985">
        <ele>1092</ele>
        <time>2014-08-24T09:49:17.81</time>
      </trkpt>
      <trkpt lat="38.28813" lon="-2.35187">
        <ele>1094</ele>
        <time>2014-08-24T09:49:20.79</time>
      </trkpt>
      <trkpt lat="38.28813" lon="-2.35175">
        <ele>1095</ele>
        <time>2014-08-24T09:49:23.82</time>
      </trkpt>
      <trkpt lat="38.288125" lon="-2.35163">
        <ele>1096</ele>
        <time>2014-08-24T09:49:26.75</time>
      </trkpt>
      <trkpt lat="38.288125" lon="-2.351505">
        <ele>1097</ele>
        <time>2014-08-24T09:49:29.80</time>
      </trkpt>
      <trkpt lat="38.288125" lon="-2.35141">
        <ele>1098</ele>
        <time>2014-08-24T09:49:31.80</time>
      </trkpt>
      <trkpt lat="38.288115" lon="-2.351315">
        <ele>1098</ele>
        <time>2014-08-24T09:49:33.80</time>
      </trkpt>
      <trkpt lat="38.288095" lon="-2.35122">
        <ele>1098</ele>
        <time>2014-08-24T09:49:35.84</time>
      </trkpt>
      <trkpt lat="38.28808" lon="-2.35113">
        <ele>1098</ele>
        <time>2014-08-24T09:49:37.80</time>
      </trkpt>
      <trkpt lat="38.28808" lon="-2.351035">
        <ele>1098</ele>
        <time>2014-08-24T09:49:39.80</time>
      </trkpt>
      <trkpt lat="38.28808" lon="-2.35094">
        <ele>1099</ele>
        <time>2014-08-24T09:49:41.79</time>
      </trkpt>
      <trkpt lat="38.28808" lon="-2.3508466666666665">
        <ele>1100</ele>
        <time>2014-08-24T09:49:43.79</time>
      </trkpt>
      <trkpt lat="38.28809" lon="-2.350755">
        <ele>1100</ele>
        <time>2014-08-24T09:49:45.79</time>
      </trkpt>
      <trkpt lat="38.288095" lon="-2.3506650000000002">
        <ele>1100</ele>
        <time>2014-08-24T09:49:47.80</time>
      </trkpt>
      <trkpt lat="38.28811" lon="-2.35057">
        <ele>1100</ele>
        <time>2014-08-24T09:49:49.91</time>
      </trkpt>
      <trkpt lat="38.288135" lon="-2.35044">
        <ele>1101</ele>
        <time>2014-08-24T09:49:52.80</time>
      </trkpt>
      <trkpt lat="38.288165" lon="-2.3503133333333333">
        <ele>1102</ele>
        <time>2014-08-24T09:49:55.79</time>
      </trkpt>
      <trkpt lat="38.28821" lon="-2.3502">
        <ele>1104</ele>
        <time>2014-08-24T09:49:58.80</time>
      </trkpt>
      <trkpt lat="38.28824" lon="-2.35008">
        <ele>1105</ele>
        <time>2014-08-24T09:50:01.79</time>
      </trkpt>
      <trkpt lat="38.288235" lon="-2.349955">
        <ele>1105</ele>
        <time>2014-08-24T09:50:04.80</time>
      </trkpt>
      <trkpt lat="38.28821833333333" lon="-2.349835">
        <ele>1106</ele>
        <time>2014-08-24T09:50:07.80</time>
      </trkpt>
      <trkpt lat="38.28821" lon="-2.34974">
        <ele>1106</ele>
        <time>2014-08-24T09:50:09.80</time>
      </trkpt>
      <trkpt lat="38.2882" lon="-2.34964">
        <ele>1107</ele>
        <time>2014-08-24T09:50:11.80</time>
      </trkpt>
      <trkpt lat="38.28819" lon="-2.349535">
        <ele>1107</ele>
        <time>2014-08-24T09:50:13.80</time>
      </trkpt>
      <trkpt lat="38.28818" lon="-2.34944">
        <ele>1107</ele>
        <time>2014-08-24T09:50:15.80</time>
      </trkpt>
      <trkpt lat="38.28816" lon="-2.349345">
        <ele>1108</ele>
        <time>2014-08-24T09:50:17.89</time>
      </trkpt>
      <trkpt lat="38.288135" lon="-2.34925">
        <ele>1108</ele>
        <time>2014-08-24T09:50:19.80</time>
      </trkpt>
      <trkpt lat="38.288095" lon="-2.349165">
        <ele>1109</ele>
        <time>2014-08-24T09:50:21.79</time>
      </trkpt>
      <trkpt lat="38.288055" lon="-2.349085">
        <ele>1110</ele>
        <time>2014-08-24T09:50:23.81</time>
      </trkpt>
      <trkpt lat="38.288015" lon="-2.349005">
        <ele>1110</ele>
        <time>2014-08-24T09:50:25.80</time>
      </trkpt>
      <trkpt lat="38.28797" lon="-2.34893">
        <ele>1111</ele>
        <time>2014-08-24T09:50:27.80</time>
      </trkpt>
      <trkpt lat="38.287925" lon="-2.34885">
        <ele>1111</ele>
        <time>2014-08-24T09:50:29.80</time>
      </trkpt>
      <trkpt lat="38.287865" lon="-2.3487816666666665">
        <ele>1113</ele>
        <time>2014-08-24T09:50:31.81</time>
      </trkpt>
      <trkpt lat="38.2878" lon="-2.34874">
        <ele>1112</ele>
        <time>2014-08-24T09:50:33.86</time>
      </trkpt>
      <trkpt lat="38.287725" lon="-2.348701666666667">
        <ele>1113</ele>
        <time>2014-08-24T09:50:35.80</time>
      </trkpt>
      <trkpt lat="38.287655" lon="-2.348675">
        <ele>1113</ele>
        <time>2014-08-24T09:50:37.80</time>
      </trkpt>
      <trkpt lat="38.28758" lon="-2.34864">
        <ele>1112</ele>
        <time>2014-08-24T09:50:39.80</time>
      </trkpt>
      <trkpt lat="38.287505" lon="-2.3486083333333334">
        <ele>1113</ele>
        <time>2014-08-24T09:50:41.79</time>
      </trkpt>
      <trkpt lat="38.28743" lon="-2.348585">
        <ele>1112</ele>
        <time>2014-08-24T09:50:43.81</time>
      </trkpt>
      <trkpt lat="38.287355" lon="-2.34855">
        <ele>1112</ele>
        <time>2014-08-24T09:50:45.87</time>
      </trkpt>
      <trkpt lat="38.287295" lon="-2.348485">
        <ele>1113</ele>
        <time>2014-08-24T09:50:47.82</time>
      </trkpt>
      <trkpt lat="38.28725" lon="-2.348395">
        <ele>1113</ele>
        <time>2014-08-24T09:50:49.80</time>
      </trkpt>
      <trkpt lat="38.28722" lon="-2.348305">
        <ele>1114</ele>
        <time>2014-08-24T09:50:51.80</time>
      </trkpt>
      <trkpt lat="38.2872" lon="-2.348175">
        <ele>1115</ele>
        <time>2014-08-24T09:50:54.80</time>
      </trkpt>
      <trkpt lat="38.287168333333334" lon="-2.3480683333333334">
        <ele>1117</ele>
        <time>2014-08-24T09:50:57.82</time>
      </trkpt>
      <trkpt lat="38.287135" lon="-2.347975">
        <ele>1118</ele>
        <time>2014-08-24T09:51:00.80</time>
      </trkpt>
      <trkpt lat="38.28709" lon="-2.3478849999999998">
        <ele>1120</ele>
        <time>2014-08-24T09:51:03.82</time>
      </trkpt>
      <trkpt lat="38.287055" lon="-2.347795">
        <ele>1121</ele>
        <time>2014-08-24T09:51:06.84</time>
      </trkpt>
      <trkpt lat="38.287" lon="-2.347725">
        <ele>1122</ele>
        <time>2014-08-24T09:51:09.81</time>
      </trkpt>
      <trkpt lat="38.286925" lon="-2.34769">
        <ele>1123</ele>
        <time>2014-08-24T09:51:12.81</time>
      </trkpt>
      <trkpt lat="38.286835" lon="-2.3476733333333333">
        <ele>1123</ele>
        <time>2014-08-24T09:51:15.82</time>
      </trkpt>
      <trkpt lat="38.286735" lon="-2.347671666666667">
        <ele>1125</ele>
        <time>2014-08-24T09:51:18.81</time>
      </trkpt>
      <trkpt lat="38.28666" lon="-2.3476850000000002">
        <ele>1125</ele>
        <time>2014-08-24T09:51:20.81</time>
      </trkpt>
      <trkpt lat="38.286555" lon="-2.347695">
        <ele>1125</ele>
        <time>2014-08-24T09:51:23.82</time>
      </trkpt>
      <trkpt lat="38.286445" lon="-2.3477">
        <ele>1126</ele>
        <time>2014-08-24T09:51:26.78</time>
      </trkpt>
      <trkpt lat="38.286375" lon="-2.3477">
        <ele>1126</ele>
        <time>2014-08-24T09:51:28.80</time>
      </trkpt>
      <trkpt lat="38.28629" lon="-2.34762">
        <ele>1127</ele>
        <time>2014-08-24T09:51:31.93</time>
      </trkpt>
      <trkpt lat="38.28628" lon="-2.347495">
        <ele>1127</ele>
        <time>2014-08-24T09:51:34.80</time>
      </trkpt>
      <trkpt lat="38.28633" lon="-2.34739">
        <ele>1128</ele>
        <time>2014-08-24T09:51:37.81</time>
      </trkpt>
      <trkpt lat="38.28639" lon="-2.347295">
        <ele>1128</ele>
        <time>2014-08-24T09:51:40.81</time>
      </trkpt>
      <trkpt lat="38.286455" lon="-2.3472049999999998">
        <ele>1130</ele>
        <time>2014-08-24T09:51:43.79</time>
      </trkpt>
      <trkpt lat="38.286515" lon="-2.34711">
        <ele>1131</ele>
        <time>2014-08-24T09:51:46.82</time>
      </trkpt>
      <trkpt lat="38.28656" lon="-2.347">
        <ele>1133</ele>
        <time>2014-08-24T09:51:49.80</time>
      </trkpt>
      <trkpt lat="38.286585" lon="-2.34687">
        <ele>1134</ele>
        <time>2014-08-24T09:51:52.80</time>
      </trkpt>
      <trkpt lat="38.286585" lon="-2.346745">
        <ele>1135</ele>
        <time>2014-08-24T09:51:55.80</time>
      </trkpt>
      <trkpt lat="38.28659" lon="-2.346625">
        <ele>1136</ele>
        <time>2014-08-24T09:51:58.81</time>
      </trkpt>
      <trkpt lat="38.2866" lon="-2.346505">
        <ele>1136</ele>
        <time>2014-08-24T09:52:01.79</time>
      </trkpt>
      <trkpt lat="38.2866" lon="-2.346405">
        <ele>1137</ele>
        <time>2014-08-24T09:52:04.58</time>
      </trkpt>
      <trkpt lat="38.28661" lon="-2.3463">
        <ele>1138</ele>
        <time>2014-08-24T09:52:07.37</time>
      </trkpt>
      <trkpt lat="38.286625" lon="-2.3462">
        <ele>1140</ele>
        <time>2014-08-24T09:52:10.39</time>
      </trkpt>
      <trkpt lat="38.286631666666665" lon="-2.3460966666666665">
        <ele>1142</ele>
        <time>2014-08-24T09:52:13.44</time>
      </trkpt>
      <trkpt lat="38.286645" lon="-2.346">
        <ele>1143</ele>
        <time>2014-08-24T09:52:16.42</time>
      </trkpt>
      <trkpt lat="38.286665" lon="-2.345905">
        <ele>1144</ele>
        <time>2014-08-24T09:52:19.42</time>
      </trkpt>
      <trkpt lat="38.28667" lon="-2.345805">
        <ele>1145</ele>
        <time>2014-08-24T09:52:22.45</time>
      </trkpt>
      <trkpt lat="38.286675" lon="-2.3457">
        <ele>1146</ele>
        <time>2014-08-24T09:52:25.43</time>
      </trkpt>
      <trkpt lat="38.28669" lon="-2.345595">
        <ele>1147</ele>
        <time>2014-08-24T09:52:28.38</time>
      </trkpt>
      <trkpt lat="38.2867" lon="-2.345485">
        <ele>1147</ele>
        <time>2014-08-24T09:52:31.38</time>
      </trkpt>
      <trkpt lat="38.28671" lon="-2.3453733333333333">
        <ele>1148</ele>
        <time>2014-08-24T09:52:34.46</time>
      </trkpt>
      <trkpt lat="38.28674" lon="-2.345275">
        <ele>1149</ele>
        <time>2014-08-24T09:52:37.42</time>
      </trkpt>
      <trkpt lat="38.28676" lon="-2.345165">
        <ele>1151</ele>
        <time>2014-08-24T09:52:40.42</time>
      </trkpt>
      <trkpt lat="38.286775" lon="-2.345055">
        <ele>1152</ele>
        <time>2014-08-24T09:52:43.43</time>
      </trkpt>
      <trkpt lat="38.286795" lon="-2.344945">
        <ele>1152</ele>
        <time>2014-08-24T09:52:46.44</time>
      </trkpt>
      <trkpt lat="38.28681" lon="-2.34484">
        <ele>1154</ele>
        <time>2014-08-24T09:52:49.46</time>
      </trkpt>
      <trkpt lat="38.28684" lon="-2.344735">
        <ele>1154</ele>
        <time>2014-08-24T09:52:52.44</time>
      </trkpt>
      <trkpt lat="38.28687" lon="-2.34462">
        <ele>1155</ele>
        <time>2014-08-24T09:52:55.42</time>
      </trkpt>
      <trkpt lat="38.286895" lon="-2.344505">
        <ele>1156</ele>
        <time>2014-08-24T09:52:58.42</time>
      </trkpt>
      <trkpt lat="38.286925" lon="-2.344395">
        <ele>1157</ele>
        <time>2014-08-24T09:53:01.43</time>
      </trkpt>
      <trkpt lat="38.286955" lon="-2.344285">
        <ele>1157</ele>
        <time>2014-08-24T09:53:04.44</time>
      </trkpt>
      <trkpt lat="38.286985" lon="-2.344175">
        <ele>1157</ele>
        <time>2014-08-24T09:53:07.44</time>
      </trkpt>
      <trkpt lat="38.28702" lon="-2.34407">
        <ele>1158</ele>
        <time>2014-08-24T09:53:10.62</time>
      </trkpt>
      <trkpt lat="38.28705" lon="-2.3439533333333333">
        <ele>1159</ele>
        <time>2014-08-24T09:53:13.49</time>
      </trkpt>
      <trkpt lat="38.28709" lon="-2.343845">
        <ele>1160</ele>
        <time>2014-08-24T09:53:16.54</time>
      </trkpt>
      <trkpt lat="38.287135" lon="-2.34374">
        <ele>1161</ele>
        <time>2014-08-24T09:53:19.44</time>
      </trkpt>
      <trkpt lat="38.287175" lon="-2.34363">
        <ele>1162</ele>
        <time>2014-08-24T09:53:22.61</time>
      </trkpt>
      <trkpt lat="38.28721" lon="-2.343525">
        <ele>1163</ele>
        <time>2014-08-24T09:53:25.43</time>
      </trkpt>
      <trkpt lat="38.287236666666665" lon="-2.34342">
        <ele>1164</ele>
        <time>2014-08-24T09:53:28.45</time>
      </trkpt>
      <trkpt lat="38.28727" lon="-2.343315">
        <ele>1165</ele>
        <time>2014-08-24T09:53:31.45</time>
      </trkpt>
      <trkpt lat="38.2873" lon="-2.34321">
        <ele>1166</ele>
        <time>2014-08-24T09:53:34.42</time>
      </trkpt>
      <trkpt lat="38.287315" lon="-2.3430983333333333">
        <ele>1167</ele>
        <time>2014-08-24T09:53:37.44</time>
      </trkpt>
      <trkpt lat="38.28733" lon="-2.34299">
        <ele>1168</ele>
        <time>2014-08-24T09:53:40.46</time>
      </trkpt>
      <trkpt lat="38.28737" lon="-2.342895">
        <ele>1169</ele>
        <time>2014-08-24T09:53:43.44</time>
      </trkpt>
      <trkpt lat="38.28739" lon="-2.34279">
        <ele>1170</ele>
        <time>2014-08-24T09:53:46.44</time>
      </trkpt>
      <trkpt lat="38.287415" lon="-2.3426883333333333">
        <ele>1172</ele>
        <time>2014-08-24T09:53:49.44</time>
      </trkpt>
      <trkpt lat="38.28744" lon="-2.34259">
        <ele>1173</ele>
        <time>2014-08-24T09:53:52.45</time>
      </trkpt>
      <trkpt lat="38.287455" lon="-2.342495">
        <ele>1174</ele>
        <time>2014-08-24T09:53:55.44</time>
      </trkpt>
      <trkpt lat="38.287461666666665" lon="-2.34239">
        <ele>1174</ele>
        <time>2014-08-24T09:53:58.62</time>
      </trkpt>
      <trkpt lat="38.2875" lon="-2.3423">
        <ele>1175</ele>
        <time>2014-08-24T09:54:01.52</time>
      </trkpt>
      <trkpt lat="38.287525" lon="-2.34221">
        <ele>1176</ele>
        <time>2014-08-24T09:54:04.44</time>
      </trkpt>
      <trkpt lat="38.287531666666666" lon="-2.34211">
        <ele>1178</ele>
        <time>2014-08-24T09:54:07.44</time>
      </trkpt>
      <trkpt lat="38.287545" lon="-2.34201">
        <ele>1180</ele>
        <time>2014-08-24T09:54:10.62</time>
      </trkpt>
      <trkpt lat="38.287525" lon="-2.341915">
        <ele>1181</ele>
        <time>2014-08-24T09:54:13.45</time>
      </trkpt>
      <trkpt lat="38.28743" lon="-2.3418883333333333">
        <ele>1181</ele>
        <time>2014-08-24T09:54:17.50</time>
      </trkpt>
      <trkpt lat="38.28736" lon="-2.341925">
        <ele>1183</ele>
        <time>2014-08-24T09:54:20.44</time>
      </trkpt>
      <trkpt lat="38.287305" lon="-2.342005">
        <ele>1184</ele>
        <time>2014-08-24T09:54:23.44</time>
      </trkpt>
      <trkpt lat="38.28727" lon="-2.34209">
        <ele>1185</ele>
        <time>2014-08-24T09:54:26.49</time>
      </trkpt>
      <trkpt lat="38.287235" lon="-2.342205">
        <ele>1188</ele>
        <time>2014-08-24T09:54:30.44</time>
      </trkpt>
      <trkpt lat="38.28722" lon="-2.34232">
        <ele>1190</ele>
        <time>2014-08-24T09:54:34.44</time>
      </trkpt>
      <trkpt lat="38.287165" lon="-2.3424">
        <ele>1190</ele>
        <time>2014-08-24T09:54:37.51</time>
      </trkpt>
      <trkpt lat="38.28709833333333" lon="-2.34247">
        <ele>1191</ele>
        <time>2014-08-24T09:54:40.44</time>
      </trkpt>
      <trkpt lat="38.28705" lon="-2.342545">
        <ele>1192</ele>
        <time>2014-08-24T09:54:43.44</time>
      </trkpt>
      <trkpt lat="38.287" lon="-2.34261">
        <ele>1193</ele>
        <time>2014-08-24T09:54:46.44</time>
      </trkpt>
      <trkpt lat="38.28695" lon="-2.34268">
        <ele>1194</ele>
        <time>2014-08-24T09:54:49.51</time>
      </trkpt>
      <trkpt lat="38.2869" lon="-2.342745">
        <ele>1195</ele>
        <time>2014-08-24T09:54:52.44</time>
      </trkpt>
      <trkpt lat="38.28684" lon="-2.342835">
        <ele>1196</ele>
        <time>2014-08-24T09:54:56.52</time>
      </trkpt>
      <trkpt lat="38.286788333333334" lon="-2.342905">
        <ele>1196</ele>
        <time>2014-08-24T09:54:59.45</time>
      </trkpt>
      <trkpt lat="38.286725" lon="-2.342975">
        <ele>1196</ele>
        <time>2014-08-24T09:55:02.45</time>
      </trkpt>
      <trkpt lat="38.286665" lon="-2.3430483333333334">
        <ele>1195</ele>
        <time>2014-08-24T09:55:05.45</time>
      </trkpt>
      <trkpt lat="38.286605" lon="-2.34313">
        <ele>1195</ele>
        <time>2014-08-24T09:55:08.44</time>
      </trkpt>
      <trkpt lat="38.28654" lon="-2.3432">
        <ele>1196</ele>
        <time>2014-08-24T09:55:11.45</time>
      </trkpt>
      <trkpt lat="38.286476666666665" lon="-2.343275">
        <ele>1195</ele>
        <time>2014-08-24T09:55:14.50</time>
      </trkpt>
      <trkpt lat="38.286415" lon="-2.3433450000000002">
        <ele>1196</ele>
        <time>2014-08-24T09:55:17.44</time>
      </trkpt>
      <trkpt lat="38.28636" lon="-2.34342">
        <ele>1197</ele>
        <time>2014-08-24T09:55:20.44</time>
      </trkpt>
      <trkpt lat="38.286305" lon="-2.3434933333333334">
        <ele>1198</ele>
        <time>2014-08-24T09:55:23.50</time>
      </trkpt>
      <trkpt lat="38.28624833333333" lon="-2.343575">
        <ele>1199</ele>
        <time>2014-08-24T09:55:26.40</time>
      </trkpt>
      <trkpt lat="38.2862" lon="-2.343655">
        <ele>1199</ele>
        <time>2014-08-24T09:55:29.43</time>
      </trkpt>
      <trkpt lat="38.28614" lon="-2.34373">
        <ele>1200</ele>
        <time>2014-08-24T09:55:32.51</time>
      </trkpt>
      <trkpt lat="38.286075" lon="-2.343805">
        <ele>1201</ele>
        <time>2014-08-24T09:55:35.44</time>
      </trkpt>
      <trkpt lat="38.28602" lon="-2.34388">
        <ele>1203</ele>
        <time>2014-08-24T09:55:38.45</time>
      </trkpt>
      <trkpt lat="38.28597" lon="-2.343965">
        <ele>1203</ele>
        <time>2014-08-24T09:55:41.62</time>
      </trkpt>
      <trkpt lat="38.28591" lon="-2.3440316666666665">
        <ele>1204</ele>
        <time>2014-08-24T09:55:44.45</time>
      </trkpt>
      <trkpt lat="38.28585" lon="-2.34411">
        <ele>1205</ele>
        <time>2014-08-24T09:55:47.43</time>
      </trkpt>
      <trkpt lat="38.28578" lon="-2.34417">
        <ele>1206</ele>
        <time>2014-08-24T09:55:50.50</time>
      </trkpt>
      <trkpt lat="38.285715" lon="-2.34424">
        <ele>1207</ele>
        <time>2014-08-24T09:55:53.49</time>
      </trkpt>
      <trkpt lat="38.28566" lon="-2.344315">
        <ele>1208</ele>
        <time>2014-08-24T09:55:56.47</time>
      </trkpt>
      <trkpt lat="38.285605" lon="-2.3444000000000003">
        <ele>1209</ele>
        <time>2014-08-24T09:55:59.41</time>
      </trkpt>
      <trkpt lat="38.28554" lon="-2.3444783333333334">
        <ele>1209</ele>
        <time>2014-08-24T09:56:02.44</time>
      </trkpt>
      <trkpt lat="38.285465" lon="-2.344545">
        <ele>1210</ele>
        <time>2014-08-24T09:56:05.48</time>
      </trkpt>
      <trkpt lat="38.285385" lon="-2.344595">
        <ele>1210</ele>
        <time>2014-08-24T09:56:08.49</time>
      </trkpt>
      <trkpt lat="38.2853" lon="-2.3446">
        <ele>1210</ele>
        <time>2014-08-24T09:56:11.48</time>
      </trkpt>
      <trkpt lat="38.285225" lon="-2.34461">
        <ele>1210</ele>
        <time>2014-08-24T09:56:14.44</time>
      </trkpt>
      <trkpt lat="38.285135" lon="-2.34462">
        <ele>1212</ele>
        <time>2014-08-24T09:56:18.44</time>
      </trkpt>
      <trkpt lat="38.28503666666667" lon="-2.3446249999999997">
        <ele>1212</ele>
        <time>2014-08-24T09:56:22.58</time>
      </trkpt>
      <trkpt lat="38.284965" lon="-2.3446350000000002">
        <ele>1213</ele>
        <time>2014-08-24T09:56:25.41</time>
      </trkpt>
      <trkpt lat="38.284885" lon="-2.344655">
        <ele>1214</ele>
        <time>2014-08-24T09:56:28.43</time>
      </trkpt>
      <trkpt lat="38.284815" lon="-2.34468">
        <ele>1213</ele>
        <time>2014-08-24T09:56:31.44</time>
      </trkpt>
      <trkpt lat="38.284725" lon="-2.34472">
        <ele>1216</ele>
        <time>2014-08-24T09:56:35.48</time>
      </trkpt>
      <trkpt lat="38.284655" lon="-2.344745">
        <ele>1219</ele>
        <time>2014-08-24T09:56:38.41</time>
      </trkpt>
      <trkpt lat="38.28459" lon="-2.344785">
        <ele>1221</ele>
        <time>2014-08-24T09:56:41.41</time>
      </trkpt>
      <trkpt lat="38.2845" lon="-2.344835">
        <ele>1224</ele>
        <time>2014-08-24T09:56:45.41</time>
      </trkpt>
      <trkpt lat="38.284415" lon="-2.3448700000000002">
        <ele>1226</ele>
        <time>2014-08-24T09:56:49.46</time>
      </trkpt>
      <trkpt lat="38.284325" lon="-2.3449">
        <ele>1227</ele>
        <time>2014-08-24T09:56:53.44</time>
      </trkpt>
      <trkpt lat="38.284235" lon="-2.34491">
        <ele>1228</ele>
        <time>2014-08-24T09:56:57.44</time>
      </trkpt>
      <trkpt lat="38.284165" lon="-2.3449">
        <ele>1227</ele>
        <time>2014-08-24T09:57:00.44</time>
      </trkpt>
      <trkpt lat="38.28409" lon="-2.34491">
        <ele>1228</ele>
        <time>2014-08-24T09:57:03.50</time>
      </trkpt>
      <trkpt lat="38.284015" lon="-2.344925">
        <ele>1229</ele>
        <time>2014-08-24T09:57:06.49</time>
      </trkpt>
      <trkpt lat="38.28393" lon="-2.344945">
        <ele>1230</ele>
        <time>2014-08-24T09:57:09.45</time>
      </trkpt>
      <trkpt lat="38.283833333333334" lon="-2.344945">
        <ele>1231</ele>
        <time>2014-08-24T09:57:12.48</time>
      </trkpt>
      <trkpt lat="38.28374" lon="-2.344915">
        <ele>1231</ele>
        <time>2014-08-24T09:57:15.50</time>
      </trkpt>
      <trkpt lat="38.28364" lon="-2.34488">
        <ele>1232</ele>
        <time>2014-08-24T09:57:18.44</time>
      </trkpt>
      <trkpt lat="38.28353666666667" lon="-2.344875">
        <ele>1232</ele>
        <time>2014-08-24T09:57:21.43</time>
      </trkpt>
      <trkpt lat="38.283435" lon="-2.34489">
        <ele>1233</ele>
        <time>2014-08-24T09:57:24.43</time>
      </trkpt>
      <trkpt lat="38.28336" lon="-2.34491">
        <ele>1233</ele>
        <time>2014-08-24T09:57:26.43</time>
      </trkpt>
      <trkpt lat="38.283285" lon="-2.34492">
        <ele>1233</ele>
        <time>2014-08-24T09:57:28.43</time>
      </trkpt>
      <trkpt lat="38.28321" lon="-2.344905">
        <ele>1233</ele>
        <time>2014-08-24T09:57:30.41</time>
      </trkpt>
      <trkpt lat="38.28313833333333" lon="-2.3448700000000002">
        <ele>1233</ele>
        <time>2014-08-24T09:57:32.82</time>
      </trkpt>
      <trkpt lat="38.28307" lon="-2.34483">
        <ele>1234</ele>
        <time>2014-08-24T09:57:34.82</time>
      </trkpt>
      <trkpt lat="38.282985" lon="-2.344775">
        <ele>1234</ele>
        <time>2014-08-24T09:57:37.83</time>
      </trkpt>
      <trkpt lat="38.282905" lon="-2.344725">
        <ele>1235</ele>
        <time>2014-08-24T09:57:40.83</time>
      </trkpt>
      <trkpt lat="38.282825" lon="-2.344675">
        <ele>1235</ele>
        <time>2014-08-24T09:57:43.83</time>
      </trkpt>
      <trkpt lat="38.28274" lon="-2.3446233333333333">
        <ele>1236</ele>
        <time>2014-08-24T09:57:46.91</time>
      </trkpt>
      <trkpt lat="38.28265" lon="-2.344585">
        <ele>1237</ele>
        <time>2014-08-24T09:57:49.87</time>
      </trkpt>
      <trkpt lat="38.28256" lon="-2.34457">
        <ele>1239</ele>
        <time>2014-08-24T09:57:52.85</time>
      </trkpt>
      <trkpt lat="38.28246" lon="-2.3445883333333333">
        <ele>1239</ele>
        <time>2014-08-24T09:57:55.83</time>
      </trkpt>
      <trkpt lat="38.28236" lon="-2.344645">
        <ele>1239</ele>
        <time>2014-08-24T09:57:58.85</time>
      </trkpt>
      <trkpt lat="38.282295" lon="-2.34469">
        <ele>1240</ele>
        <time>2014-08-24T09:58:00.83</time>
      </trkpt>
      <trkpt lat="38.282228333333336" lon="-2.344735">
        <ele>1239</ele>
        <time>2014-08-24T09:58:02.85</time>
      </trkpt>
      <trkpt lat="38.28217" lon="-2.34479">
        <ele>1239</ele>
        <time>2014-08-24T09:58:04.85</time>
      </trkpt>
      <trkpt lat="38.282105" lon="-2.3448416666666665">
        <ele>1240</ele>
        <time>2014-08-24T09:58:06.83</time>
      </trkpt>
      <trkpt lat="38.28204" lon="-2.34488">
        <ele>1241</ele>
        <time>2014-08-24T09:58:08.83</time>
      </trkpt>
      <trkpt lat="38.281965" lon="-2.344905">
        <ele>1241</ele>
        <time>2014-08-24T09:58:10.86</time>
      </trkpt>
      <trkpt lat="38.281865" lon="-2.344925">
        <ele>1243</ele>
        <time>2014-08-24T09:58:13.85</time>
      </trkpt>
      <trkpt lat="38.281785" lon="-2.34496">
        <ele>1245</ele>
        <time>2014-08-24T09:58:16.86</time>
      </trkpt>
      <trkpt lat="38.28170166666666" lon="-2.34498">
        <ele>1246</ele>
        <time>2014-08-24T09:58:19.85</time>
      </trkpt>
      <trkpt lat="38.28162" lon="-2.34497">
        <ele>1247</ele>
        <time>2014-08-24T09:58:22.83</time>
      </trkpt>
      <trkpt lat="38.28154" lon="-2.344965">
        <ele>1248</ele>
        <time>2014-08-24T09:58:25.78</time>
      </trkpt>
      <trkpt lat="38.281455" lon="-2.3449516666666668">
        <ele>1250</ele>
        <time>2014-08-24T09:58:28.78</time>
      </trkpt>
      <trkpt lat="38.281375" lon="-2.344935">
        <ele>1251</ele>
        <time>2014-08-24T09:58:31.81</time>
      </trkpt>
      <trkpt lat="38.281295" lon="-2.3449366666666664">
        <ele>1253</ele>
        <time>2014-08-24T09:58:34.78</time>
      </trkpt>
      <trkpt lat="38.28122" lon="-2.344965">
        <ele>1254</ele>
        <time>2014-08-24T09:58:37.83</time>
      </trkpt>
      <trkpt lat="38.281155" lon="-2.34503">
        <ele>1254</ele>
        <time>2014-08-24T09:58:40.83</time>
      </trkpt>
      <trkpt lat="38.28109" lon="-2.345095">
        <ele>1254</ele>
        <time>2014-08-24T09:58:43.87</time>
      </trkpt>
      <trkpt lat="38.281016666666666" lon="-2.34517">
        <ele>1254</ele>
        <time>2014-08-24T09:58:46.91</time>
      </trkpt>
      <trkpt lat="38.280955" lon="-2.34525">
        <ele>1254</ele>
        <time>2014-08-24T09:58:49.85</time>
      </trkpt>
      <trkpt lat="38.28088" lon="-2.345325">
        <ele>1255</ele>
        <time>2014-08-24T09:58:52.85</time>
      </trkpt>
      <trkpt lat="38.280805" lon="-2.345415">
        <ele>1254</ele>
        <time>2014-08-24T09:58:55.83</time>
      </trkpt>
      <trkpt lat="38.28075" lon="-2.3454800000000002">
        <ele>1255</ele>
        <time>2014-08-24T09:58:57.83</time>
      </trkpt>
      <trkpt lat="38.280695" lon="-2.345555">
        <ele>1254</ele>
        <time>2014-08-24T09:58:59.83</time>
      </trkpt>
      <trkpt lat="38.280635" lon="-2.34563">
        <ele>1254</ele>
        <time>2014-08-24T09:59:01.82</time>
      </trkpt>
      <trkpt lat="38.280575" lon="-2.345705">
        <ele>1255</ele>
        <time>2014-08-24T09:59:03.83</time>
      </trkpt>
      <trkpt lat="38.28052" lon="-2.34578">
        <ele>1256</ele>
        <time>2014-08-24T09:59:05.81</time>
      </trkpt>
      <trkpt lat="38.28046" lon="-2.34585">
        <ele>1257</ele>
        <time>2014-08-24T09:59:07.82</time>
      </trkpt>
      <trkpt lat="38.280395" lon="-2.34591">
        <ele>1258</ele>
        <time>2014-08-24T09:59:09.76</time>
      </trkpt>
      <trkpt lat="38.2803" lon="-2.345965">
        <ele>1258</ele>
        <time>2014-08-24T09:59:12.83</time>
      </trkpt>
      <trkpt lat="38.28023" lon="-2.345995">
        <ele>1258</ele>
        <time>2014-08-24T09:59:14.93</time>
      </trkpt>
      <trkpt lat="38.280155" lon="-2.3460033333333334">
        <ele>1259</ele>
        <time>2014-08-24T09:59:16.81</time>
      </trkpt>
      <trkpt lat="38.28008" lon="-2.346006666666667">
        <ele>1257</ele>
        <time>2014-08-24T09:59:18.82</time>
      </trkpt>
      <trkpt lat="38.280005" lon="-2.345995">
        <ele>1259</ele>
        <time>2014-08-24T09:59:20.83</time>
      </trkpt>
      <trkpt lat="38.27993" lon="-2.345975">
        <ele>1258</ele>
        <time>2014-08-24T09:59:22.83</time>
      </trkpt>
      <trkpt lat="38.279855" lon="-2.345955">
        <ele>1259</ele>
        <time>2014-08-24T09:59:24.83</time>
      </trkpt>
      <trkpt lat="38.27978" lon="-2.34593">
        <ele>1259</ele>
        <time>2014-08-24T09:59:26.83</time>
      </trkpt>
      <trkpt lat="38.279705" lon="-2.3459">
        <ele>1261</ele>
        <time>2014-08-24T09:59:28.83</time>
      </trkpt>
      <trkpt lat="38.279635" lon="-2.3458550000000002">
        <ele>1261</ele>
        <time>2014-08-24T09:59:30.83</time>
      </trkpt>
      <trkpt lat="38.279575" lon="-2.3457850000000002">
        <ele>1262</ele>
        <time>2014-08-24T09:59:32.83</time>
      </trkpt>
      <trkpt lat="38.279525" lon="-2.345705">
        <ele>1262</ele>
        <time>2014-08-24T09:59:34.83</time>
      </trkpt>
      <trkpt lat="38.279485" lon="-2.345615">
        <ele>1262</ele>
        <time>2014-08-24T09:59:36.86</time>
      </trkpt>
      <trkpt lat="38.279455" lon="-2.34553">
        <ele>1262</ele>
        <time>2014-08-24T09:59:38.83</time>
      </trkpt>
      <trkpt lat="38.279425" lon="-2.345445">
        <ele>1263</ele>
        <time>2014-08-24T09:59:40.83</time>
      </trkpt>
      <trkpt lat="38.27939" lon="-2.34532">
        <ele>1263</ele>
        <time>2014-08-24T09:59:43.83</time>
      </trkpt>
      <trkpt lat="38.279345" lon="-2.34522">
        <ele>1264</ele>
        <time>2014-08-24T09:59:46.83</time>
      </trkpt>
      <trkpt lat="38.27931" lon="-2.34512">
        <ele>1265</ele>
        <time>2014-08-24T09:59:49.83</time>
      </trkpt>
      <trkpt lat="38.279271666666666" lon="-2.345015">
        <ele>1267</ele>
        <time>2014-08-24T09:59:52.83</time>
      </trkpt>
      <trkpt lat="38.279215" lon="-2.344925">
        <ele>1268</ele>
        <time>2014-08-24T09:59:55.83</time>
      </trkpt>
      <trkpt lat="38.279155" lon="-2.34485">
        <ele>1269</ele>
        <time>2014-08-24T09:59:58.86</time>
      </trkpt>
      <trkpt lat="38.279095" lon="-2.34477">
        <ele>1270</ele>
        <time>2014-08-24T10:00:01.96</time>
      </trkpt>
      <trkpt lat="38.279025" lon="-2.34469">
        <ele>1271</ele>
        <time>2014-08-24T10:00:04.83</time>
      </trkpt>
      <trkpt lat="38.27895" lon="-2.3446350000000002">
        <ele>1272</ele>
        <time>2014-08-24T10:00:07.83</time>
      </trkpt>
      <trkpt lat="38.27888" lon="-2.34458">
        <ele>1273</ele>
        <time>2014-08-24T10:00:11.38</time>
      </trkpt>
      <trkpt lat="38.27879" lon="-2.344545">
        <ele>1274</ele>
        <time>2014-08-24T10:00:14.83</time>
      </trkpt>
      <trkpt lat="38.27872" lon="-2.34458">
        <ele>1275</ele>
        <time>2014-08-24T10:00:17.83</time>
      </trkpt>
      <trkpt lat="38.27869" lon="-2.34469">
        <ele>1275</ele>
        <time>2014-08-24T10:00:20.83</time>
      </trkpt>
      <trkpt lat="38.278705" lon="-2.34481">
        <ele>1276</ele>
        <time>2014-08-24T10:00:23.83</time>
      </trkpt>
      <trkpt lat="38.27873" lon="-2.344915">
        <ele>1277</ele>
        <time>2014-08-24T10:00:26.83</time>
      </trkpt>
      <trkpt lat="38.27874" lon="-2.3450166666666665">
        <ele>1277</ele>
        <time>2014-08-24T10:00:29.83</time>
      </trkpt>
      <trkpt lat="38.27874" lon="-2.34512">
        <ele>1278</ele>
        <time>2014-08-24T10:00:32.83</time>
      </trkpt>
      <trkpt lat="38.278735" lon="-2.345225">
        <ele>1279</ele>
        <time>2014-08-24T10:00:35.83</time>
      </trkpt>
      <trkpt lat="38.27871" lon="-2.34533">
        <ele>1280</ele>
        <time>2014-08-24T10:00:38.83</time>
      </trkpt>
      <trkpt lat="38.278665" lon="-2.34542">
        <ele>1280</ele>
        <time>2014-08-24T10:00:41.83</time>
      </trkpt>
      <trkpt lat="38.278596666666665" lon="-2.34549">
        <ele>1281</ele>
        <time>2014-08-24T10:00:44.83</time>
      </trkpt>
      <trkpt lat="38.27851" lon="-2.3455500000000002">
        <ele>1281</ele>
        <time>2014-08-24T10:00:47.85</time>
      </trkpt>
      <trkpt lat="38.27842" lon="-2.34559">
        <ele>1282</ele>
        <time>2014-08-24T10:00:50.85</time>
      </trkpt>
      <trkpt lat="38.278325" lon="-2.3456">
        <ele>1283</ele>
        <time>2014-08-24T10:00:53.83</time>
      </trkpt>
      <trkpt lat="38.278225" lon="-2.345615">
        <ele>1284</ele>
        <time>2014-08-24T10:00:56.83</time>
      </trkpt>
      <trkpt lat="38.27813" lon="-2.345625">
        <ele>1286</ele>
        <time>2014-08-24T10:00:59.85</time>
      </trkpt>
      <trkpt lat="38.278035" lon="-2.3456416666666664">
        <ele>1286</ele>
        <time>2014-08-24T10:01:02.83</time>
      </trkpt>
      <trkpt lat="38.277935" lon="-2.34566">
        <ele>1286</ele>
        <time>2014-08-24T10:01:05.85</time>
      </trkpt>
      <trkpt lat="38.277835" lon="-2.345685">
        <ele>1287</ele>
        <time>2014-08-24T10:01:08.83</time>
      </trkpt>
      <trkpt lat="38.27774" lon="-2.34572">
        <ele>1289</ele>
        <time>2014-08-24T10:01:11.85</time>
      </trkpt>
      <trkpt lat="38.277645" lon="-2.3457483333333333">
        <ele>1289</ele>
        <time>2014-08-24T10:01:14.85</time>
      </trkpt>
      <trkpt lat="38.277555" lon="-2.345805">
        <ele>1291</ele>
        <time>2014-08-24T10:01:17.85</time>
      </trkpt>
      <trkpt lat="38.277465" lon="-2.3458550000000002">
        <ele>1292</ele>
        <time>2014-08-24T10:01:20.85</time>
      </trkpt>
      <trkpt lat="38.27737" lon="-2.34593">
        <ele>1292</ele>
        <time>2014-08-24T10:01:23.83</time>
      </trkpt>
      <trkpt lat="38.277303333333336" lon="-2.34598">
        <ele>1293</ele>
        <time>2014-08-24T10:01:25.14</time>
      </trkpt>
      <trkpt lat="38.27724" lon="-2.346025">
        <ele>1293</ele>
        <time>2014-08-24T10:01:27.88</time>
      </trkpt>
      <trkpt lat="38.277175" lon="-2.346065">
        <ele>1294</ele>
        <time>2014-08-24T10:01:29.14</time>
      </trkpt>
      <trkpt lat="38.277085" lon="-2.34613">
        <ele>1294</ele>
        <time>2014-08-24T10:01:32.10</time>
      </trkpt>
      <trkpt lat="38.276995" lon="-2.346205">
        <ele>1295</ele>
        <time>2014-08-24T10:01:35.20</time>
      </trkpt>
      <trkpt lat="38.27691" lon="-2.346285">
        <ele>1296</ele>
        <time>2014-08-24T10:01:38.15</time>
      </trkpt>
      <trkpt lat="38.27684" lon="-2.34639">
        <ele>1297</ele>
        <time>2014-08-24T10:01:41.10</time>
      </trkpt>
      <trkpt lat="38.276795" lon="-2.3464616666666664">
        <ele>1296</ele>
        <time>2014-08-24T10:01:43.14</time>
      </trkpt>
      <trkpt lat="38.27675" lon="-2.3465583333333333">
        <ele>1296</ele>
        <time>2014-08-24T10:01:45.27</time>
      </trkpt>
      <trkpt lat="38.27671" lon="-2.346665">
        <ele>1296</ele>
        <time>2014-08-24T10:01:47.16</time>
      </trkpt>
      <trkpt lat="38.27666" lon="-2.34678">
        <ele>1296</ele>
        <time>2014-08-24T10:01:49.16</time>
      </trkpt>
      <trkpt lat="38.276615" lon="-2.34688">
        <ele>1297</ele>
        <time>2014-08-24T10:01:51.16</time>
      </trkpt>
      <trkpt lat="38.27658" lon="-2.34697">
        <ele>1297</ele>
        <time>2014-08-24T10:01:53.15</time>
      </trkpt>
      <trkpt lat="38.276535" lon="-2.347055">
        <ele>1297</ele>
        <time>2014-08-24T10:01:55.16</time>
      </trkpt>
      <trkpt lat="38.2765" lon="-2.34714">
        <ele>1297</ele>
        <time>2014-08-24T10:01:57.16</time>
      </trkpt>
      <trkpt lat="38.27645" lon="-2.347235">
        <ele>1298</ele>
        <time>2014-08-24T10:02:00.16</time>
      </trkpt>
      <trkpt lat="38.2764" lon="-2.347325">
        <ele>1299</ele>
        <time>2014-08-24T10:02:03.15</time>
      </trkpt>
      <trkpt lat="38.276365" lon="-2.347425">
        <ele>1301</ele>
        <time>2014-08-24T10:02:06.10</time>
      </trkpt>
      <trkpt lat="38.276315" lon="-2.34752">
        <ele>1302</ele>
        <time>2014-08-24T10:02:09.18</time>
      </trkpt>
      <trkpt lat="38.276275" lon="-2.34762">
        <ele>1302</ele>
        <time>2014-08-24T10:02:12.40</time>
      </trkpt>
      <trkpt lat="38.276235" lon="-2.34773">
        <ele>1303</ele>
        <time>2014-08-24T10:02:15.45</time>
      </trkpt>
      <trkpt lat="38.276195" lon="-2.347835">
        <ele>1304</ele>
        <time>2014-08-24T10:02:18.45</time>
      </trkpt>
      <trkpt lat="38.27614" lon="-2.347935">
        <ele>1305</ele>
        <time>2014-08-24T10:02:21.45</time>
      </trkpt>
      <trkpt lat="38.276075" lon="-2.34803">
        <ele>1305</ele>
        <time>2014-08-24T10:02:24.44</time>
      </trkpt>
      <trkpt lat="38.276015" lon="-2.348125">
        <ele>1305</ele>
        <time>2014-08-24T10:02:27.44</time>
      </trkpt>
      <trkpt lat="38.275938333333336" lon="-2.348205">
        <ele>1306</ele>
        <time>2014-08-24T10:02:30.45</time>
      </trkpt>
      <trkpt lat="38.27588" lon="-2.3483">
        <ele>1306</ele>
        <time>2014-08-24T10:02:33.43</time>
      </trkpt>
      <trkpt lat="38.275815" lon="-2.348405">
        <ele>1307</ele>
        <time>2014-08-24T10:02:36.45</time>
      </trkpt>
      <trkpt lat="38.275755" lon="-2.34846">
        <ele>1308</ele>
        <time>2014-08-24T10:02:38.45</time>
      </trkpt>
      <trkpt lat="38.27568" lon="-2.34849">
        <ele>1308</ele>
        <time>2014-08-24T10:02:40.45</time>
      </trkpt>
      <trkpt lat="38.275605" lon="-2.348515">
        <ele>1309</ele>
        <time>2014-08-24T10:02:42.46</time>
      </trkpt>
      <trkpt lat="38.275535" lon="-2.348535">
        <ele>1310</ele>
        <time>2014-08-24T10:02:44.45</time>
      </trkpt>
      <trkpt lat="38.27543" lon="-2.348545">
        <ele>1311</ele>
        <time>2014-08-24T10:02:47.45</time>
      </trkpt>
      <trkpt lat="38.27532" lon="-2.348555">
        <ele>1311</ele>
        <time>2014-08-24T10:02:50.46</time>
      </trkpt>
      <trkpt lat="38.27525" lon="-2.348555">
        <ele>1312</ele>
        <time>2014-08-24T10:02:52.46</time>
      </trkpt>
      <trkpt lat="38.275175" lon="-2.34857">
        <ele>1312</ele>
        <time>2014-08-24T10:02:54.45</time>
      </trkpt>
      <trkpt lat="38.27508" lon="-2.3486000000000002">
        <ele>1312</ele>
        <time>2014-08-24T10:02:57.45</time>
      </trkpt>
      <trkpt lat="38.274985" lon="-2.3486083333333334">
        <ele>1312</ele>
        <time>2014-08-24T10:03:00.58</time>
      </trkpt>
      <trkpt lat="38.27488" lon="-2.3486583333333333">
        <ele>1312</ele>
        <time>2014-08-24T10:03:03.45</time>
      </trkpt>
      <trkpt lat="38.274795" lon="-2.34869">
        <ele>1311</ele>
        <time>2014-08-24T10:03:05.45</time>
      </trkpt>
      <trkpt lat="38.2747" lon="-2.348715">
        <ele>1311</ele>
        <time>2014-08-24T10:03:07.45</time>
      </trkpt>
      <trkpt lat="38.2746" lon="-2.34874">
        <ele>1312</ele>
        <time>2014-08-24T10:03:09.45</time>
      </trkpt>
      <trkpt lat="38.2745" lon="-2.348755">
        <ele>1313</ele>
        <time>2014-08-24T10:03:11.45</time>
      </trkpt>
      <trkpt lat="38.274405" lon="-2.34878">
        <ele>1313</ele>
        <time>2014-08-24T10:03:13.45</time>
      </trkpt>
      <trkpt lat="38.2743" lon="-2.348805">
        <ele>1312</ele>
        <time>2014-08-24T10:03:15.43</time>
      </trkpt>
      <trkpt lat="38.2742" lon="-2.34884">
        <ele>1313</ele>
        <time>2014-08-24T10:03:17.45</time>
      </trkpt>
      <trkpt lat="38.2741" lon="-2.348855">
        <ele>1313</ele>
        <time>2014-08-24T10:03:19.44</time>
      </trkpt>
      <trkpt lat="38.274005" lon="-2.348875">
        <ele>1313</ele>
        <time>2014-08-24T10:03:21.45</time>
      </trkpt>
      <trkpt lat="38.273915" lon="-2.3488933333333333">
        <ele>1314</ele>
        <time>2014-08-24T10:03:23.46</time>
      </trkpt>
      <trkpt lat="38.27384" lon="-2.348915">
        <ele>1315</ele>
        <time>2014-08-24T10:03:25.48</time>
      </trkpt>
      <trkpt lat="38.273765" lon="-2.34893">
        <ele>1317</ele>
        <time>2014-08-24T10:03:27.44</time>
      </trkpt>
      <trkpt lat="38.27366" lon="-2.34894">
        <ele>1318</ele>
        <time>2014-08-24T10:03:30.56</time>
      </trkpt>
      <trkpt lat="38.273555" lon="-2.348955">
        <ele>1318</ele>
        <time>2014-08-24T10:03:33.41</time>
      </trkpt>
      <trkpt lat="38.27348" lon="-2.34897">
        <ele>1318</ele>
        <time>2014-08-24T10:03:35.41</time>
      </trkpt>
      <trkpt lat="38.2734" lon="-2.348986666666667">
        <ele>1318</ele>
        <time>2014-08-24T10:03:37.41</time>
      </trkpt>
      <trkpt lat="38.27333" lon="-2.34901">
        <ele>1318</ele>
        <time>2014-08-24T10:03:39.41</time>
      </trkpt>
      <trkpt lat="38.273265" lon="-2.34905">
        <ele>1317</ele>
        <time>2014-08-24T10:03:41.40</time>
      </trkpt>
      <trkpt lat="38.273205" lon="-2.3491049999999998">
        <ele>1316</ele>
        <time>2014-08-24T10:03:43.43</time>
      </trkpt>
      <trkpt lat="38.273138333333335" lon="-2.349155">
        <ele>1315</ele>
        <time>2014-08-24T10:03:45.41</time>
      </trkpt>
      <trkpt lat="38.273085" lon="-2.34922">
        <ele>1315</ele>
        <time>2014-08-24T10:03:47.40</time>
      </trkpt>
      <trkpt lat="38.27304" lon="-2.349295">
        <ele>1315</ele>
        <time>2014-08-24T10:03:48.41</time>
      </trkpt>
      <trkpt lat="38.272945" lon="-2.349375">
        <ele>1315</ele>
        <time>2014-08-24T10:03:50.40</time>
      </trkpt>
      <trkpt lat="38.27284" lon="-2.349431666666667">
        <ele>1315</ele>
        <time>2014-08-24T10:03:52.40</time>
      </trkpt>
      <trkpt lat="38.27273" lon="-2.349475">
        <ele>1312</ele>
        <time>2014-08-24T10:03:54.40</time>
      </trkpt>
      <trkpt lat="38.27261" lon="-2.34951">
        <ele>1312</ele>
        <time>2014-08-24T10:03:56.43</time>
      </trkpt>
      <trkpt lat="38.27254" lon="-2.349535">
        <ele>1311</ele>
        <time>2014-08-24T10:03:57.58</time>
      </trkpt>
      <trkpt lat="38.2724" lon="-2.349625">
        <ele>1309</ele>
        <time>2014-08-24T10:03:59.41</time>
      </trkpt>
      <trkpt lat="38.27232" lon="-2.34966">
        <ele>1308</ele>
        <time>2014-08-24T10:04:00.39</time>
      </trkpt>
      <trkpt lat="38.27223" lon="-2.349685">
        <ele>1308</ele>
        <time>2014-08-24T10:04:01.50</time>
      </trkpt>
      <trkpt lat="38.272145" lon="-2.3497149999999998">
        <ele>1307</ele>
        <time>2014-08-24T10:04:02.40</time>
      </trkpt>
      <trkpt lat="38.27205" lon="-2.349735">
        <ele>1307</ele>
        <time>2014-08-24T10:04:03.57</time>
      </trkpt>
      <trkpt lat="38.27196" lon="-2.349765">
        <ele>1307</ele>
        <time>2014-08-24T10:04:04.39</time>
      </trkpt>
      <trkpt lat="38.27188" lon="-2.34981">
        <ele>1306</ele>
        <time>2014-08-24T10:04:05.42</time>
      </trkpt>
      <trkpt lat="38.271795" lon="-2.34986">
        <ele>1305</ele>
        <time>2014-08-24T10:04:06.40</time>
      </trkpt>
      <trkpt lat="38.27172" lon="-2.349915">
        <ele>1305</ele>
        <time>2014-08-24T10:04:07.41</time>
      </trkpt>
      <trkpt lat="38.271645" lon="-2.34997">
        <ele>1304</ele>
        <time>2014-08-24T10:04:08.40</time>
      </trkpt>
      <trkpt lat="38.27156333333333" lon="-2.350015">
        <ele>1304</ele>
        <time>2014-08-24T10:04:09.44</time>
      </trkpt>
      <trkpt lat="38.271485" lon="-2.35005">
        <ele>1304</ele>
        <time>2014-08-24T10:04:10.40</time>
      </trkpt>
      <trkpt lat="38.271405" lon="-2.35006">
        <ele>1305</ele>
        <time>2014-08-24T10:04:11.42</time>
      </trkpt>
      <trkpt lat="38.271335" lon="-2.35008">
        <ele>1306</ele>
        <time>2014-08-24T10:04:12.40</time>
      </trkpt>
      <trkpt lat="38.2712" lon="-2.35011">
        <ele>1306</ele>
        <time>2014-08-24T10:04:14.40</time>
      </trkpt>
      <trkpt lat="38.271075" lon="-2.350165">
        <ele>1306</ele>
        <time>2014-08-24T10:04:16.40</time>
      </trkpt>
      <trkpt lat="38.27095833333333" lon="-2.350235">
        <ele>1306</ele>
        <time>2014-08-24T10:04:18.40</time>
      </trkpt>
      <trkpt lat="38.27084" lon="-2.350275">
        <ele>1306</ele>
        <time>2014-08-24T10:04:20.40</time>
      </trkpt>
      <trkpt lat="38.270705" lon="-2.350275">
        <ele>1306</ele>
        <time>2014-08-24T10:04:22.42</time>
      </trkpt>
      <trkpt lat="38.270575" lon="-2.350305">
        <ele>1306</ele>
        <time>2014-08-24T10:04:24.41</time>
      </trkpt>
      <trkpt lat="38.270505" lon="-2.3503133333333333">
        <ele>1306</ele>
        <time>2014-08-24T10:04:25.39</time>
      </trkpt>
      <trkpt lat="38.270435" lon="-2.350345">
        <ele>1304</ele>
        <time>2014-08-24T10:04:26.39</time>
      </trkpt>
      <trkpt lat="38.27036" lon="-2.35037">
        <ele>1304</ele>
        <time>2014-08-24T10:04:27.35</time>
      </trkpt>
      <trkpt lat="38.270225" lon="-2.350445">
        <ele>1304</ele>
        <time>2014-08-24T10:04:29.40</time>
      </trkpt>
      <trkpt lat="38.270145" lon="-2.350495">
        <ele>1304</ele>
        <time>2014-08-24T10:04:30.43</time>
      </trkpt>
      <trkpt lat="38.27007" lon="-2.35055">
        <ele>1304</ele>
        <time>2014-08-24T10:04:31.40</time>
      </trkpt>
      <trkpt lat="38.26999" lon="-2.3506">
        <ele>1303</ele>
        <time>2014-08-24T10:04:32.56</time>
      </trkpt>
      <trkpt lat="38.26991" lon="-2.350635">
        <ele>1303</ele>
        <time>2014-08-24T10:04:33.39</time>
      </trkpt>
      <trkpt lat="38.269835" lon="-2.350685">
        <ele>1302</ele>
        <time>2014-08-24T10:04:34.42</time>
      </trkpt>
      <trkpt lat="38.269755" lon="-2.350745">
        <ele>1302</ele>
        <time>2014-08-24T10:04:35.40</time>
      </trkpt>
      <trkpt lat="38.26969" lon="-2.350791666666667">
        <ele>1301</ele>
        <time>2014-08-24T10:04:36.42</time>
      </trkpt>
      <trkpt lat="38.26963" lon="-2.35084">
        <ele>1301</ele>
        <time>2014-08-24T10:04:37.40</time>
      </trkpt>
      <trkpt lat="38.269495" lon="-2.350875">
        <ele>1300</ele>
        <time>2014-08-24T10:04:39.40</time>
      </trkpt>
      <trkpt lat="38.269375" lon="-2.350815">
        <ele>1300</ele>
        <time>2014-08-24T10:04:41.42</time>
      </trkpt>
      <trkpt lat="38.269255" lon="-2.35075">
        <ele>1300</ele>
        <time>2014-08-24T10:04:43.45</time>
      </trkpt>
      <trkpt lat="38.269145" lon="-2.3506733333333334">
        <ele>1301</ele>
        <time>2014-08-24T10:04:45.43</time>
      </trkpt>
      <trkpt lat="38.269035" lon="-2.35062">
        <ele>1301</ele>
        <time>2014-08-24T10:04:47.42</time>
      </trkpt>
      <trkpt lat="38.26894" lon="-2.350545">
        <ele>1301</ele>
        <time>2014-08-24T10:04:49.46</time>
      </trkpt>
      <trkpt lat="38.26885" lon="-2.35046">
        <ele>1301</ele>
        <time>2014-08-24T10:04:51.42</time>
      </trkpt>
      <trkpt lat="38.26874166666666" lon="-2.350395">
        <ele>1301</ele>
        <time>2014-08-24T10:04:53.42</time>
      </trkpt>
      <trkpt lat="38.268675" lon="-2.35035">
        <ele>1300</ele>
        <time>2014-08-24T10:04:54.43</time>
      </trkpt>
      <trkpt lat="38.26858" lon="-2.35027">
        <ele>1300</ele>
        <time>2014-08-24T10:04:56.40</time>
      </trkpt>
      <trkpt lat="38.268475" lon="-2.350181666666667">
        <ele>1299</ele>
        <time>2014-08-24T10:04:58.43</time>
      </trkpt>
      <trkpt lat="38.268365" lon="-2.35008">
        <ele>1299</ele>
        <time>2014-08-24T10:05:00.42</time>
      </trkpt>
      <trkpt lat="38.26828" lon="-2.35">
        <ele>1301</ele>
        <time>2014-08-24T10:05:02.42</time>
      </trkpt>
      <trkpt lat="38.26822" lon="-2.349935">
        <ele>1302</ele>
        <time>2014-08-24T10:05:04.42</time>
      </trkpt>
      <trkpt lat="38.268141666666665" lon="-2.3498616666666665">
        <ele>1303</ele>
        <time>2014-08-24T10:05:07.44</time>
      </trkpt>
      <trkpt lat="38.26808" lon="-2.34981">
        <ele>1304</ele>
        <time>2014-08-24T10:05:11.44</time>
      </trkpt>
      <trkpt lat="38.26801" lon="-2.34974">
        <ele>1305</ele>
        <time>2014-08-24T10:05:16.44</time>
      </trkpt>
      <trkpt lat="38.26794" lon="-2.34968">
        <ele>1307</ele>
        <time>2014-08-24T10:05:20.58</time>
      </trkpt>
      <trkpt lat="38.26787" lon="-2.34961">
        <ele>1309</ele>
        <time>2014-08-24T10:05:24.43</time>
      </trkpt>
      <trkpt lat="38.267815" lon="-2.3495266666666668">
        <ele>1311</ele>
        <time>2014-08-24T10:05:28.43</time>
      </trkpt>
      <trkpt lat="38.26775" lon="-2.349455">
        <ele>1312</ele>
        <time>2014-08-24T10:05:32.45</time>
      </trkpt>
      <trkpt lat="38.267685" lon="-2.34938">
        <ele>1314</ele>
        <time>2014-08-24T10:05:36.58</time>
      </trkpt>
      <trkpt lat="38.267606666666666" lon="-2.349305">
        <ele>1316</ele>
        <time>2014-08-24T10:05:40.44</time>
      </trkpt>
      <trkpt lat="38.267535" lon="-2.34923">
        <ele>1317</ele>
        <time>2014-08-24T10:05:44.48</time>
      </trkpt>
      <trkpt lat="38.267475" lon="-2.3491483333333334">
        <ele>1318</ele>
        <time>2014-08-24T10:05:48.45</time>
      </trkpt>
      <trkpt lat="38.26739666666667" lon="-2.34909">
        <ele>1319</ele>
        <time>2014-08-24T10:05:52.45</time>
      </trkpt>
      <trkpt lat="38.267335" lon="-2.34901">
        <ele>1320</ele>
        <time>2014-08-24T10:05:56.41</time>
      </trkpt>
      <trkpt lat="38.26727" lon="-2.348955">
        <ele>1320</ele>
        <time>2014-08-24T10:05:59.45</time>
      </trkpt>
      <trkpt lat="38.26721" lon="-2.348875">
        <ele>1322</ele>
        <time>2014-08-24T10:06:03.41</time>
      </trkpt>
      <trkpt lat="38.26714" lon="-2.348796666666667">
        <ele>1322</ele>
        <time>2014-08-24T10:06:07.45</time>
      </trkpt>
      <trkpt lat="38.26708" lon="-2.348715">
        <ele>1324</ele>
        <time>2014-08-24T10:06:11.44</time>
      </trkpt>
      <trkpt lat="38.267001666666665" lon="-2.348645">
        <ele>1325</ele>
        <time>2014-08-24T10:06:15.44</time>
      </trkpt>
      <trkpt lat="38.26694" lon="-2.348565">
        <ele>1325</ele>
        <time>2014-08-24T10:06:19.41</time>
      </trkpt>
      <trkpt lat="38.26687" lon="-2.348485">
        <ele>1326</ele>
        <time>2014-08-24T10:06:23.43</time>
      </trkpt>
      <trkpt lat="38.26679" lon="-2.348445">
        <ele>1328</ele>
        <time>2014-08-24T10:06:27.45</time>
      </trkpt>
      <trkpt lat="38.266715" lon="-2.34841">
        <ele>1328</ele>
        <time>2014-08-24T10:06:31.43</time>
      </trkpt>
      <trkpt lat="38.26663" lon="-2.348395">
        <ele>1330</ele>
        <time>2014-08-24T10:06:35.58</time>
      </trkpt>
      <trkpt lat="38.266535" lon="-2.34839">
        <ele>1331</ele>
        <time>2014-08-24T10:06:39.46</time>
      </trkpt>
      <trkpt lat="38.266465" lon="-2.34838">
        <ele>1331</ele>
        <time>2014-08-24T10:06:42.41</time>
      </trkpt>
      <trkpt lat="38.266385" lon="-2.348395">
        <ele>1331</ele>
        <time>2014-08-24T10:06:45.41</time>
      </trkpt>
      <trkpt lat="38.266305" lon="-2.34844">
        <ele>1332</ele>
        <time>2014-08-24T10:06:48.45</time>
      </trkpt>
      <trkpt lat="38.266215" lon="-2.348485">
        <ele>1333</ele>
        <time>2014-08-24T10:06:51.41</time>
      </trkpt>
      <trkpt lat="38.266135" lon="-2.34854">
        <ele>1334</ele>
        <time>2014-08-24T10:06:54.41</time>
      </trkpt>
      <trkpt lat="38.266055" lon="-2.348585">
        <ele>1335</ele>
        <time>2014-08-24T10:06:57.45</time>
      </trkpt>
      <trkpt lat="38.26599" lon="-2.348665">
        <ele>1336</ele>
        <time>2014-08-24T10:07:00.44</time>
      </trkpt>
      <trkpt lat="38.265935" lon="-2.34875">
        <ele>1337</ele>
        <time>2014-08-24T10:07:03.44</time>
      </trkpt>
      <trkpt lat="38.265885" lon="-2.34885">
        <ele>1338</ele>
        <time>2014-08-24T10:07:06.43</time>
      </trkpt>
      <trkpt lat="38.26584" lon="-2.34897">
        <ele>1339</ele>
        <time>2014-08-24T10:07:09.44</time>
      </trkpt>
      <trkpt lat="38.265805" lon="-2.349085">
        <ele>1339</ele>
        <time>2014-08-24T10:07:12.37</time>
      </trkpt>
      <trkpt lat="38.265775" lon="-2.349205">
        <ele>1340</ele>
        <time>2014-08-24T10:07:15.43</time>
      </trkpt>
      <trkpt lat="38.265765" lon="-2.3493233333333334">
        <ele>1340</ele>
        <time>2014-08-24T10:07:18.43</time>
      </trkpt>
      <trkpt lat="38.265745" lon="-2.34945">
        <ele>1341</ele>
        <time>2014-08-24T10:07:21.57</time>
      </trkpt>
      <trkpt lat="38.265723333333334" lon="-2.349565">
        <ele>1341</ele>
        <time>2014-08-24T10:07:24.41</time>
      </trkpt>
      <trkpt lat="38.26572" lon="-2.34968">
        <ele>1342</ele>
        <time>2014-08-24T10:07:27.37</time>
      </trkpt>
      <trkpt lat="38.26572" lon="-2.34978">
        <ele>1342</ele>
        <time>2014-08-24T10:07:30.43</time>
      </trkpt>
      <trkpt lat="38.26572" lon="-2.349885">
        <ele>1343</ele>
        <time>2014-08-24T10:07:33.43</time>
      </trkpt>
      <trkpt lat="38.265715" lon="-2.34999">
        <ele>1344</ele>
        <time>2014-08-24T10:07:36.43</time>
      </trkpt>
      <trkpt lat="38.265705" lon="-2.350095">
        <ele>1345</ele>
        <time>2014-08-24T10:07:39.43</time>
      </trkpt>
      <trkpt lat="38.265695" lon="-2.3502">
        <ele>1345</ele>
        <time>2014-08-24T10:07:42.44</time>
      </trkpt>
      <trkpt lat="38.265685" lon="-2.3503">
        <ele>1346</ele>
        <time>2014-08-24T10:07:45.47</time>
      </trkpt>
      <trkpt lat="38.265665" lon="-2.3504">
        <ele>1347</ele>
        <time>2014-08-24T10:07:48.44</time>
      </trkpt>
      <trkpt lat="38.265655" lon="-2.350505">
        <ele>1349</ele>
        <time>2014-08-24T10:07:51.44</time>
      </trkpt>
      <trkpt lat="38.265645" lon="-2.350605">
        <ele>1350</ele>
        <time>2014-08-24T10:07:54.37</time>
      </trkpt>
      <trkpt lat="38.265633333333334" lon="-2.35071">
        <ele>1350</ele>
        <time>2014-08-24T10:07:57.49</time>
      </trkpt>
      <trkpt lat="38.265615" lon="-2.35081">
        <ele>1351</ele>
        <time>2014-08-24T10:08:00.46</time>
      </trkpt>
      <trkpt lat="38.265595" lon="-2.35091">
        <ele>1353</ele>
        <time>2014-08-24T10:08:03.44</time>
      </trkpt>
      <trkpt lat="38.26559" lon="-2.35101">
        <ele>1354</ele>
        <time>2014-08-24T10:08:06.51</time>
      </trkpt>
      <trkpt lat="38.26558" lon="-2.3511100000000003">
        <ele>1355</ele>
        <time>2014-08-24T10:08:09.43</time>
      </trkpt>
      <trkpt lat="38.26556333333333" lon="-2.35121">
        <ele>1356</ele>
        <time>2014-08-24T10:08:12.44</time>
      </trkpt>
      <trkpt lat="38.26555" lon="-2.351305">
        <ele>1357</ele>
        <time>2014-08-24T10:08:15.44</time>
      </trkpt>
      <trkpt lat="38.26553" lon="-2.35141">
        <ele>1358</ele>
        <time>2014-08-24T10:08:18.45</time>
      </trkpt>
      <trkpt lat="38.265515" lon="-2.351515">
        <ele>1359</ele>
        <time>2014-08-24T10:08:21.44</time>
      </trkpt>
      <trkpt lat="38.26549833333333" lon="-2.351615">
        <ele>1360</ele>
        <time>2014-08-24T10:08:24.43</time>
      </trkpt>
      <trkpt lat="38.265495" lon="-2.351715">
        <ele>1361</ele>
        <time>2014-08-24T10:08:27.44</time>
      </trkpt>
      <trkpt lat="38.265475" lon="-2.351815">
        <ele>1362</ele>
        <time>2014-08-24T10:08:30.43</time>
      </trkpt>
      <trkpt lat="38.26546" lon="-2.351915">
        <ele>1363</ele>
        <time>2014-08-24T10:08:33.44</time>
      </trkpt>
      <trkpt lat="38.265445" lon="-2.35202">
        <ele>1364</ele>
        <time>2014-08-24T10:08:36.45</time>
      </trkpt>
      <trkpt lat="38.265435" lon="-2.3521166666666664">
        <ele>1365</ele>
        <time>2014-08-24T10:08:39.54</time>
      </trkpt>
      <trkpt lat="38.265425" lon="-2.35222">
        <ele>1365</ele>
        <time>2014-08-24T10:08:42.44</time>
      </trkpt>
      <trkpt lat="38.265413333333335" lon="-2.352325">
        <ele>1366</ele>
        <time>2014-08-24T10:08:45.45</time>
      </trkpt>
      <trkpt lat="38.265405" lon="-2.352425">
        <ele>1367</ele>
        <time>2014-08-24T10:08:48.44</time>
      </trkpt>
      <trkpt lat="38.26539" lon="-2.35252">
        <ele>1368</ele>
        <time>2014-08-24T10:08:51.43</time>
      </trkpt>
      <trkpt lat="38.265375" lon="-2.352615">
        <ele>1369</ele>
        <time>2014-08-24T10:08:54.45</time>
      </trkpt>
      <trkpt lat="38.265365" lon="-2.35271">
        <ele>1370</ele>
        <time>2014-08-24T10:08:57.62</time>
      </trkpt>
      <trkpt lat="38.26533" lon="-2.352795">
        <ele>1371</ele>
        <time>2014-08-24T10:09:00.49</time>
      </trkpt>
      <trkpt lat="38.26525" lon="-2.352795">
        <ele>1372</ele>
        <time>2014-08-24T10:09:03.45</time>
      </trkpt>
      <trkpt lat="38.2652" lon="-2.35271">
        <ele>1373</ele>
        <time>2014-08-24T10:09:06.44</time>
      </trkpt>
      <trkpt lat="38.265195" lon="-2.3526">
        <ele>1373</ele>
        <time>2014-08-24T10:09:09.50</time>
      </trkpt>
      <trkpt lat="38.265205" lon="-2.35248">
        <ele>1374</ele>
        <time>2014-08-24T10:09:12.44</time>
      </trkpt>
      <trkpt lat="38.26521" lon="-2.35237">
        <ele>1375</ele>
        <time>2014-08-24T10:09:15.44</time>
      </trkpt>
      <trkpt lat="38.265205" lon="-2.3522600000000002">
        <ele>1376</ele>
        <time>2014-08-24T10:09:18.45</time>
      </trkpt>
      <trkpt lat="38.265205" lon="-2.352145">
        <ele>1376</ele>
        <time>2014-08-24T10:09:21.45</time>
      </trkpt>
      <trkpt lat="38.265185" lon="-2.352035">
        <ele>1376</ele>
        <time>2014-08-24T10:09:24.44</time>
      </trkpt>
      <trkpt lat="38.26518" lon="-2.3519283333333334">
        <ele>1377</ele>
        <time>2014-08-24T10:09:27.44</time>
      </trkpt>
      <trkpt lat="38.26518" lon="-2.35183">
        <ele>1378</ele>
        <time>2014-08-24T10:09:30.44</time>
      </trkpt>
      <trkpt lat="38.265175" lon="-2.35173">
        <ele>1379</ele>
        <time>2014-08-24T10:09:33.52</time>
      </trkpt>
      <trkpt lat="38.265165" lon="-2.351635">
        <ele>1380</ele>
        <time>2014-08-24T10:09:36.45</time>
      </trkpt>
      <trkpt lat="38.265145" lon="-2.351535">
        <ele>1381</ele>
        <time>2014-08-24T10:09:39.44</time>
      </trkpt>
      <trkpt lat="38.265125" lon="-2.35143">
        <ele>1382</ele>
        <time>2014-08-24T10:09:42.45</time>
      </trkpt>
      <trkpt lat="38.26511" lon="-2.351325">
        <ele>1383</ele>
        <time>2014-08-24T10:09:45.49</time>
      </trkpt>
      <trkpt lat="38.265085" lon="-2.351225">
        <ele>1384</ele>
        <time>2014-08-24T10:09:48.44</time>
      </trkpt>
      <trkpt lat="38.265065" lon="-2.3511183333333334">
        <ele>1385</ele>
        <time>2014-08-24T10:09:51.43</time>
      </trkpt>
      <trkpt lat="38.26504" lon="-2.35102">
        <ele>1386</ele>
        <time>2014-08-24T10:09:54.44</time>
      </trkpt>
      <trkpt lat="38.265005" lon="-2.35092">
        <ele>1387</ele>
        <time>2014-08-24T10:09:57.44</time>
      </trkpt>
      <trkpt lat="38.264975" lon="-2.35082">
        <ele>1388</ele>
        <time>2014-08-24T10:10:00.44</time>
      </trkpt>
      <trkpt lat="38.264935" lon="-2.35072">
        <ele>1388</ele>
        <time>2014-08-24T10:10:03.44</time>
      </trkpt>
      <trkpt lat="38.264905" lon="-2.350615">
        <ele>1388</ele>
        <time>2014-08-24T10:10:06.43</time>
      </trkpt>
      <trkpt lat="38.26486" lon="-2.350505">
        <ele>1389</ele>
        <time>2014-08-24T10:10:09.43</time>
      </trkpt>
      <trkpt lat="38.264815" lon="-2.35038">
        <ele>1390</ele>
        <time>2014-08-24T10:10:12.44</time>
      </trkpt>
      <trkpt lat="38.26477" lon="-2.350265">
        <ele>1390</ele>
        <time>2014-08-24T10:10:15.44</time>
      </trkpt>
      <trkpt lat="38.264725" lon="-2.350146666666667">
        <ele>1391</ele>
        <time>2014-08-24T10:10:18.45</time>
      </trkpt>
      <trkpt lat="38.264685" lon="-2.350025">
        <ele>1392</ele>
        <time>2014-08-24T10:10:21.52</time>
      </trkpt>
      <trkpt lat="38.26463" lon="-2.34991">
        <ele>1393</ele>
        <time>2014-08-24T10:10:24.62</time>
      </trkpt>
      <trkpt lat="38.264575" lon="-2.349805">
        <ele>1394</ele>
        <time>2014-08-24T10:10:27.37</time>
      </trkpt>
      <trkpt lat="38.26451" lon="-2.3497">
        <ele>1395</ele>
        <time>2014-08-24T10:10:30.45</time>
      </trkpt>
      <trkpt lat="38.26446" lon="-2.3495966666666668">
        <ele>1395</ele>
        <time>2014-08-24T10:10:33.52</time>
      </trkpt>
      <trkpt lat="38.26441" lon="-2.34951">
        <ele>1397</ele>
        <time>2014-08-24T10:10:36.62</time>
      </trkpt>
      <trkpt lat="38.26439" lon="-2.349405">
        <ele>1398</ele>
        <time>2014-08-24T10:10:39.43</time>
      </trkpt>
      <trkpt lat="38.26435" lon="-2.34931">
        <ele>1399</ele>
        <time>2014-08-24T10:10:42.44</time>
      </trkpt>
      <trkpt lat="38.264315" lon="-2.34922">
        <ele>1401</ele>
        <time>2014-08-24T10:10:45.46</time>
      </trkpt>
      <trkpt lat="38.26427" lon="-2.349135">
        <ele>1402</ele>
        <time>2014-08-24T10:10:48.64</time>
      </trkpt>
      <trkpt lat="38.264225" lon="-2.349045">
        <ele>1404</ele>
        <time>2014-08-24T10:10:51.50</time>
      </trkpt>
      <trkpt lat="38.26419666666666" lon="-2.34895">
        <ele>1405</ele>
        <time>2014-08-24T10:10:54.37</time>
      </trkpt>
      <trkpt lat="38.264145" lon="-2.348865">
        <ele>1406</ele>
        <time>2014-08-24T10:10:57.43</time>
      </trkpt>
      <trkpt lat="38.264105" lon="-2.34877">
        <ele>1408</ele>
        <time>2014-08-24T10:11:00.56</time>
      </trkpt>
      <trkpt lat="38.2641" lon="-2.3486583333333333">
        <ele>1410</ele>
        <time>2014-08-24T10:11:03.47</time>
      </trkpt>
      <trkpt lat="38.264075" lon="-2.34856">
        <ele>1410</ele>
        <time>2014-08-24T10:11:06.53</time>
      </trkpt>
      <trkpt lat="38.264035" lon="-2.348455">
        <ele>1411</ele>
        <time>2014-08-24T10:11:09.44</time>
      </trkpt>
      <trkpt lat="38.263985" lon="-2.3483366666666665">
        <ele>1411</ele>
        <time>2014-08-24T10:11:12.37</time>
      </trkpt>
      <trkpt lat="38.263955" lon="-2.348255">
        <ele>1411</ele>
        <time>2014-08-24T10:11:14.43</time>
      </trkpt>
      <trkpt lat="38.26392" lon="-2.34817">
        <ele>1411</ele>
        <time>2014-08-24T10:11:16.43</time>
      </trkpt>
      <trkpt lat="38.26388" lon="-2.348085">
        <ele>1412</ele>
        <time>2014-08-24T10:11:18.57</time>
      </trkpt>
      <trkpt lat="38.26384" lon="-2.348005">
        <ele>1413</ele>
        <time>2014-08-24T10:11:20.43</time>
      </trkpt>
      <trkpt lat="38.263805" lon="-2.34788">
        <ele>1413</ele>
        <time>2014-08-24T10:11:23.43</time>
      </trkpt>
      <trkpt lat="38.26377" lon="-2.34775">
        <ele>1414</ele>
        <time>2014-08-24T10:11:26.43</time>
      </trkpt>
      <trkpt lat="38.263745" lon="-2.347665">
        <ele>1413</ele>
        <time>2014-08-24T10:11:28.43</time>
      </trkpt>
      <trkpt lat="38.26371" lon="-2.3475333333333332">
        <ele>1413</ele>
        <time>2014-08-24T10:11:31.43</time>
      </trkpt>
      <trkpt lat="38.263665" lon="-2.34741">
        <ele>1413</ele>
        <time>2014-08-24T10:11:34.43</time>
      </trkpt>
      <trkpt lat="38.263625" lon="-2.34733">
        <ele>1414</ele>
        <time>2014-08-24T10:11:36.43</time>
      </trkpt>
      <trkpt lat="38.26358" lon="-2.347255">
        <ele>1414</ele>
        <time>2014-08-24T10:11:38.41</time>
      </trkpt>
      <trkpt lat="38.263535" lon="-2.34719">
        <ele>1415</ele>
        <time>2014-08-24T10:11:40.41</time>
      </trkpt>
      <trkpt lat="38.263465" lon="-2.3470833333333334">
        <ele>1415</ele>
        <time>2014-08-24T10:11:43.43</time>
      </trkpt>
      <trkpt lat="38.263405" lon="-2.347">
        <ele>1416</ele>
        <time>2014-08-24T10:11:46.43</time>
      </trkpt>
      <trkpt lat="38.26335" lon="-2.3469083333333334">
        <ele>1417</ele>
        <time>2014-08-24T10:11:49.43</time>
      </trkpt>
      <trkpt lat="38.2633" lon="-2.3468183333333332">
        <ele>1419</ele>
        <time>2014-08-24T10:11:52.43</time>
      </trkpt>
      <trkpt lat="38.26326" lon="-2.346725">
        <ele>1420</ele>
        <time>2014-08-24T10:11:55.41</time>
      </trkpt>
      <trkpt lat="38.263225" lon="-2.346635">
        <ele>1420</ele>
        <time>2014-08-24T10:11:58.46</time>
      </trkpt>
      <trkpt lat="38.26319" lon="-2.3465350000000003">
        <ele>1421</ele>
        <time>2014-08-24T10:12:01.44</time>
      </trkpt>
      <trkpt lat="38.263165" lon="-2.346445">
        <ele>1422</ele>
        <time>2014-08-24T10:12:04.44</time>
      </trkpt>
      <trkpt lat="38.26313" lon="-2.34635">
        <ele>1424</ele>
        <time>2014-08-24T10:12:07.43</time>
      </trkpt>
      <trkpt lat="38.263095" lon="-2.346255">
        <ele>1424</ele>
        <time>2014-08-24T10:12:10.44</time>
      </trkpt>
      <trkpt lat="38.263055" lon="-2.3461600000000002">
        <ele>1425</ele>
        <time>2014-08-24T10:12:13.44</time>
      </trkpt>
      <trkpt lat="38.263015" lon="-2.346065">
        <ele>1426</ele>
        <time>2014-08-24T10:12:16.50</time>
      </trkpt>
      <trkpt lat="38.262975" lon="-2.345975">
        <ele>1427</ele>
        <time>2014-08-24T10:12:19.43</time>
      </trkpt>
      <trkpt lat="38.262921666666664" lon="-2.345885">
        <ele>1428</ele>
        <time>2014-08-24T10:12:22.44</time>
      </trkpt>
      <trkpt lat="38.26287" lon="-2.3458">
        <ele>1429</ele>
        <time>2014-08-24T10:12:25.44</time>
      </trkpt>
      <trkpt lat="38.2628" lon="-2.34573">
        <ele>1429</ele>
        <time>2014-08-24T10:12:28.44</time>
      </trkpt>
      <trkpt lat="38.262715" lon="-2.345725">
        <ele>1429</ele>
        <time>2014-08-24T10:12:31.44</time>
      </trkpt>
      <trkpt lat="38.26264" lon="-2.34576">
        <ele>1430</ele>
        <time>2014-08-24T10:12:34.44</time>
      </trkpt>
      <trkpt lat="38.262555" lon="-2.345825">
        <ele>1429</ele>
        <time>2014-08-24T10:12:37.53</time>
      </trkpt>
      <trkpt lat="38.26247333333333" lon="-2.34589">
        <ele>1428</ele>
        <time>2014-08-24T10:12:39.48</time>
      </trkpt>
      <trkpt lat="38.2624" lon="-2.345945">
        <ele>1427</ele>
        <time>2014-08-24T10:12:41.44</time>
      </trkpt>
      <trkpt lat="38.262335" lon="-2.34599">
        <ele>1427</ele>
        <time>2014-08-24T10:12:43.44</time>
      </trkpt>
      <trkpt lat="38.262255" lon="-2.346065">
        <ele>1426</ele>
        <time>2014-08-24T10:12:46.44</time>
      </trkpt>
      <trkpt lat="38.26217" lon="-2.346125">
        <ele>1426</ele>
        <time>2014-08-24T10:12:49.62</time>
      </trkpt>
      <trkpt lat="38.262085" lon="-2.3461600000000002">
        <ele>1425</ele>
        <time>2014-08-24T10:12:52.46</time>
      </trkpt>
      <trkpt lat="38.26200166666667" lon="-2.34614">
        <ele>1424</ele>
        <time>2014-08-24T10:12:56.45</time>
      </trkpt>
      <trkpt lat="38.26207" lon="-2.34614">
        <ele>1423</ele>
        <time>2014-08-24T10:13:03.51</time>
      </trkpt>
      <trkpt lat="38.262146666666666" lon="-2.346181666666667">
        <ele>1423</ele>
        <time>2014-08-24T10:13:07.44</time>
      </trkpt>
      <trkpt lat="38.26222666666666" lon="-2.346155">
        <ele>1424</ele>
        <time>2014-08-24T10:13:10.44</time>
      </trkpt>
      <trkpt lat="38.262295" lon="-2.346095">
        <ele>1425</ele>
        <time>2014-08-24T10:13:13.53</time>
      </trkpt>
      <trkpt lat="38.262355" lon="-2.346015">
        <ele>1425</ele>
        <time>2014-08-24T10:13:16.48</time>
      </trkpt>
      <trkpt lat="38.26243" lon="-2.34596">
        <ele>1426</ele>
        <time>2014-08-24T10:13:19.44</time>
      </trkpt>
      <trkpt lat="38.262505" lon="-2.34591">
        <ele>1427</ele>
        <time>2014-08-24T10:13:22.44</time>
      </trkpt>
      <trkpt lat="38.262585" lon="-2.34586">
        <ele>1428</ele>
        <time>2014-08-24T10:13:25.44</time>
      </trkpt>
      <trkpt lat="38.262655" lon="-2.345805">
        <ele>1428</ele>
        <time>2014-08-24T10:13:28.46</time>
      </trkpt>
      <trkpt lat="38.26273" lon="-2.345755">
        <ele>1429</ele>
        <time>2014-08-24T10:13:32.43</time>
      </trkpt>
      <trkpt lat="38.262805" lon="-2.345765">
        <ele>1428</ele>
        <time>2014-08-24T10:13:36.41</time>
      </trkpt>
      <trkpt lat="38.26285" lon="-2.345835">
        <ele>1428</ele>
        <time>2014-08-24T10:13:43.37</time>
      </trkpt>
      <trkpt lat="38.26278" lon="-2.3457850000000002">
        <ele>1428</ele>
        <time>2014-08-24T10:13:50.45</time>
      </trkpt>
      <trkpt lat="38.262705" lon="-2.345745">
        <ele>1428</ele>
        <time>2014-08-24T10:13:55.49</time>
      </trkpt>
      <trkpt lat="38.262645" lon="-2.345805">
        <ele>1427</ele>
        <time>2014-08-24T10:14:00.44</time>
      </trkpt>
      <trkpt lat="38.26257" lon="-2.3458550000000002">
        <ele>1427</ele>
        <time>2014-08-24T10:14:05.44</time>
      </trkpt>
      <trkpt lat="38.262505" lon="-2.3459">
        <ele>1427</ele>
        <time>2014-08-24T10:14:11.43</time>
      </trkpt>
      <trkpt lat="38.262565" lon="-2.34584">
        <ele>1428</ele>
        <time>2014-08-24T10:14:18.45</time>
      </trkpt>
      <trkpt lat="38.26264" lon="-2.345815">
        <ele>1428</ele>
        <time>2014-08-24T10:14:21.57</time>
      </trkpt>
      <trkpt lat="38.262715" lon="-2.345765">
        <ele>1428</ele>
        <time>2014-08-24T10:14:25.41</time>
      </trkpt>
      <trkpt lat="38.262766666666664" lon="-2.345755">
        <ele>1427</ele>
        <time>2014-08-24T10:14:32.53</time>
      </trkpt>
      <trkpt lat="38.262765" lon="-2.34576">
        <ele>1427</ele>
        <time>2014-08-24T10:14:35.51</time>
      </trkpt>
      <trkpt lat="38.262775" lon="-2.34573">
        <ele>1427</ele>
        <time>2014-08-24T10:15:36.52</time>
      </trkpt>
      <trkpt lat="38.262775" lon="-2.34573">
        <ele>1426</ele>
        <time>2014-08-24T10:15:37.50</time>
      </trkpt>
      <trkpt lat="38.26278" lon="-2.345715">
        <ele>1427</ele>
        <time>2014-08-24T10:15:58.43</time>
      </trkpt>
      <trkpt lat="38.26278" lon="-2.345715">
        <ele>1427</ele>
        <time>2014-08-24T10:15:59.52</time>
      </trkpt>
      <trkpt lat="38.26275166666667" lon="-2.345715">
        <ele>1426</ele>
        <time>2014-08-24T10:16:29.52</time>
      </trkpt>
      <trkpt lat="38.262753333333336" lon="-2.345715">
        <ele>1426</ele>
        <time>2014-08-24T10:16:30.49</time>
      </trkpt>
      <trkpt lat="38.262765" lon="-2.34572">
        <ele>1426</ele>
        <time>2014-08-24T10:16:40.50</time>
      </trkpt>
      <trkpt lat="38.262768333333334" lon="-2.34572">
        <ele>1426</ele>
        <time>2014-08-24T10:16:41.51</time>
      </trkpt>
      <trkpt lat="38.26276" lon="-2.34573">
        <ele>1426</ele>
        <time>2014-08-24T10:16:55.49</time>
      </trkpt>
      <trkpt lat="38.26276" lon="-2.34573">
        <ele>1426</ele>
        <time>2014-08-24T10:16:56.48</time>
      </trkpt>
      <trkpt lat="38.262745" lon="-2.34577">
        <ele>1428</ele>
        <time>2014-08-24T10:17:08.53</time>
      </trkpt>
      <trkpt lat="38.262745" lon="-2.34577">
        <ele>1429</ele>
        <time>2014-08-24T10:17:09.50</time>
      </trkpt>
      <trkpt lat="38.262765" lon="-2.345765">
        <ele>1427</ele>
        <time>2014-08-24T10:17:24.42</time>
      </trkpt>
      <trkpt lat="38.262765" lon="-2.345765">
        <ele>1428</ele>
        <time>2014-08-24T10:17:25.42</time>
      </trkpt>
      <trkpt lat="38.26276" lon="-2.345745">
        <ele>1425</ele>
        <time>2014-08-24T10:17:38.41</time>
      </trkpt>
      <trkpt lat="38.26276" lon="-2.345745">
        <ele>1425</ele>
        <time>2014-08-24T10:17:39.43</time>
      </trkpt>
      <trkpt lat="38.26276" lon="-2.34572">
        <ele>1426</ele>
        <time>2014-08-24T10:17:51.49</time>
      </trkpt>
      <trkpt lat="38.262753333333336" lon="-2.34572">
        <ele>1426</ele>
        <time>2014-08-24T10:17:52.49</time>
      </trkpt>
      <trkpt lat="38.26274" lon="-2.345715">
        <ele>1427</ele>
        <time>2014-08-24T10:18:05.49</time>
      </trkpt>
      <trkpt lat="38.26274" lon="-2.34572">
        <ele>1427</ele>
        <time>2014-08-24T10:18:06.59</time>
      </trkpt>
      <trkpt lat="38.262765" lon="-2.345765">
        <ele>1426</ele>
        <time>2014-08-24T10:18:39.44</time>
      </trkpt>
      <trkpt lat="38.262681666666666" lon="-2.34577">
        <ele>1428</ele>
        <time>2014-08-24T10:18:54.46</time>
      </trkpt>
      <trkpt lat="38.262605" lon="-2.3458">
        <ele>1428</ele>
        <time>2014-08-24T10:18:58.45</time>
      </trkpt>
      <trkpt lat="38.26254333333333" lon="-2.34585">
        <ele>1428</ele>
        <time>2014-08-24T10:19:00.44</time>
      </trkpt>
      <trkpt lat="38.262465" lon="-2.34591">
        <ele>1428</ele>
        <time>2014-08-24T10:19:02.47</time>
      </trkpt>
      <trkpt lat="38.26237" lon="-2.346">
        <ele>1427</ele>
        <time>2014-08-24T10:19:04.49</time>
      </trkpt>
      <trkpt lat="38.262265" lon="-2.346075">
        <ele>1427</ele>
        <time>2014-08-24T10:19:06.46</time>
      </trkpt>
      <trkpt lat="38.26217" lon="-2.346125">
        <ele>1425</ele>
        <time>2014-08-24T10:19:08.64</time>
      </trkpt>
      <trkpt lat="38.26207" lon="-2.34611">
        <ele>1425</ele>
        <time>2014-08-24T10:19:10.49</time>
      </trkpt>
      <trkpt lat="38.262015" lon="-2.346">
        <ele>1423</ele>
        <time>2014-08-24T10:19:12.45</time>
      </trkpt>
      <trkpt lat="38.262005" lon="-2.3458266666666665">
        <ele>1422</ele>
        <time>2014-08-24T10:19:14.45</time>
      </trkpt>
      <trkpt lat="38.26202" lon="-2.3457316666666665">
        <ele>1421</ele>
        <time>2014-08-24T10:19:15.45</time>
      </trkpt>
      <trkpt lat="38.262065" lon="-2.345625">
        <ele>1421</ele>
        <time>2014-08-24T10:19:16.45</time>
      </trkpt>
      <trkpt lat="38.26207" lon="-2.345515">
        <ele>1420</ele>
        <time>2014-08-24T10:19:17.45</time>
      </trkpt>
      <trkpt lat="38.26209" lon="-2.345405">
        <ele>1420</ele>
        <time>2014-08-24T10:19:18.45</time>
      </trkpt>
      <trkpt lat="38.262105" lon="-2.3452916666666668">
        <ele>1420</ele>
        <time>2014-08-24T10:19:19.45</time>
      </trkpt>
      <trkpt lat="38.26211" lon="-2.34518">
        <ele>1419</ele>
        <time>2014-08-24T10:19:20.45</time>
      </trkpt>
      <trkpt lat="38.26213" lon="-2.345065">
        <ele>1419</ele>
        <time>2014-08-24T10:19:21.45</time>
      </trkpt>
      <trkpt lat="38.26214" lon="-2.3449383333333333">
        <ele>1419</ele>
        <time>2014-08-24T10:19:22.45</time>
      </trkpt>
      <trkpt lat="38.26213" lon="-2.34482">
        <ele>1418</ele>
        <time>2014-08-24T10:19:23.56</time>
      </trkpt>
      <trkpt lat="38.26212" lon="-2.3447">
        <ele>1417</ele>
        <time>2014-08-24T10:19:24.45</time>
      </trkpt>
      <trkpt lat="38.26211" lon="-2.3445716666666665">
        <ele>1417</ele>
        <time>2014-08-24T10:19:25.45</time>
      </trkpt>
      <trkpt lat="38.262105" lon="-2.344435">
        <ele>1416</ele>
        <time>2014-08-24T10:19:26.45</time>
      </trkpt>
      <trkpt lat="38.262085" lon="-2.3443016666666665">
        <ele>1416</ele>
        <time>2014-08-24T10:19:27.51</time>
      </trkpt>
      <trkpt lat="38.26207" lon="-2.344175">
        <ele>1415</ele>
        <time>2014-08-24T10:19:28.45</time>
      </trkpt>
      <trkpt lat="38.262055" lon="-2.344045">
        <ele>1415</ele>
        <time>2014-08-24T10:19:29.45</time>
      </trkpt>
      <trkpt lat="38.262055" lon="-2.343915">
        <ele>1415</ele>
        <time>2014-08-24T10:19:30.45</time>
      </trkpt>
      <trkpt lat="38.262065" lon="-2.3437900000000003">
        <ele>1414</ele>
        <time>2014-08-24T10:19:31.45</time>
      </trkpt>
      <trkpt lat="38.26203" lon="-2.343655">
        <ele>1412</ele>
        <time>2014-08-24T10:19:32.45</time>
      </trkpt>
      <trkpt lat="38.26202" lon="-2.343525">
        <ele>1411</ele>
        <time>2014-08-24T10:19:33.45</time>
      </trkpt>
      <trkpt lat="38.26197" lon="-2.343395">
        <ele>1409</ele>
        <time>2014-08-24T10:19:34.45</time>
      </trkpt>
      <trkpt lat="38.26193" lon="-2.34327">
        <ele>1408</ele>
        <time>2014-08-24T10:19:35.53</time>
      </trkpt>
      <trkpt lat="38.26186833333333" lon="-2.343141666666667">
        <ele>1407</ele>
        <time>2014-08-24T10:19:36.44</time>
      </trkpt>
      <trkpt lat="38.26181" lon="-2.34301">
        <ele>1406</ele>
        <time>2014-08-24T10:19:37.44</time>
      </trkpt>
      <trkpt lat="38.261735" lon="-2.342885">
        <ele>1405</ele>
        <time>2014-08-24T10:19:38.45</time>
      </trkpt>
      <trkpt lat="38.26168" lon="-2.342775">
        <ele>1404</ele>
        <time>2014-08-24T10:19:39.50</time>
      </trkpt>
      <trkpt lat="38.26162" lon="-2.342665">
        <ele>1403</ele>
        <time>2014-08-24T10:19:40.45</time>
      </trkpt>
      <trkpt lat="38.261575" lon="-2.342555">
        <ele>1402</ele>
        <time>2014-08-24T10:19:41.45</time>
      </trkpt>
      <trkpt lat="38.261505" lon="-2.342455">
        <ele>1401</ele>
        <time>2014-08-24T10:19:42.45</time>
      </trkpt>
      <trkpt lat="38.261425" lon="-2.342365">
        <ele>1400</ele>
        <time>2014-08-24T10:19:43.44</time>
      </trkpt>
      <trkpt lat="38.26136" lon="-2.342275">
        <ele>1399</ele>
        <time>2014-08-24T10:19:44.44</time>
      </trkpt>
      <trkpt lat="38.26129" lon="-2.3421950000000002">
        <ele>1397</ele>
        <time>2014-08-24T10:19:45.44</time>
      </trkpt>
      <trkpt lat="38.26122" lon="-2.34211">
        <ele>1397</ele>
        <time>2014-08-24T10:19:46.45</time>
      </trkpt>
      <trkpt lat="38.26113" lon="-2.34204">
        <ele>1396</ele>
        <time>2014-08-24T10:19:47.45</time>
      </trkpt>
      <trkpt lat="38.261055" lon="-2.3419683333333334">
        <ele>1395</ele>
        <time>2014-08-24T10:19:48.45</time>
      </trkpt>
      <trkpt lat="38.260975" lon="-2.341915">
        <ele>1394</ele>
        <time>2014-08-24T10:19:49.44</time>
      </trkpt>
      <trkpt lat="38.260885" lon="-2.341865">
        <ele>1393</ele>
        <time>2014-08-24T10:19:50.44</time>
      </trkpt>
      <trkpt lat="38.26079" lon="-2.341815">
        <ele>1393</ele>
        <time>2014-08-24T10:19:51.44</time>
      </trkpt>
      <trkpt lat="38.260695" lon="-2.341765">
        <ele>1392</ele>
        <time>2014-08-24T10:19:52.45</time>
      </trkpt>
      <trkpt lat="38.2606" lon="-2.34171">
        <ele>1391</ele>
        <time>2014-08-24T10:19:53.44</time>
      </trkpt>
      <trkpt lat="38.26051" lon="-2.3416550000000003">
        <ele>1390</ele>
        <time>2014-08-24T10:19:54.45</time>
      </trkpt>
      <trkpt lat="38.26041333333333" lon="-2.3416">
        <ele>1389</ele>
        <time>2014-08-24T10:19:55.44</time>
      </trkpt>
      <trkpt lat="38.26033" lon="-2.34155">
        <ele>1389</ele>
        <time>2014-08-24T10:19:56.45</time>
      </trkpt>
      <trkpt lat="38.26024" lon="-2.34149">
        <ele>1388</ele>
        <time>2014-08-24T10:19:57.44</time>
      </trkpt>
      <trkpt lat="38.260155" lon="-2.341415">
        <ele>1387</ele>
        <time>2014-08-24T10:19:58.45</time>
      </trkpt>
      <trkpt lat="38.26007" lon="-2.341335">
        <ele>1386</ele>
        <time>2014-08-24T10:19:59.44</time>
      </trkpt>
      <trkpt lat="38.25999" lon="-2.34125">
        <ele>1386</ele>
        <time>2014-08-24T10:20:00.44</time>
      </trkpt>
      <trkpt lat="38.2599" lon="-2.341155">
        <ele>1385</ele>
        <time>2014-08-24T10:20:01.44</time>
      </trkpt>
      <trkpt lat="38.259825" lon="-2.341075">
        <ele>1383</ele>
        <time>2014-08-24T10:20:02.44</time>
      </trkpt>
      <trkpt lat="38.25974" lon="-2.3409866666666668">
        <ele>1381</ele>
        <time>2014-08-24T10:20:03.44</time>
      </trkpt>
      <trkpt lat="38.259675" lon="-2.340885">
        <ele>1380</ele>
        <time>2014-08-24T10:20:04.44</time>
      </trkpt>
      <trkpt lat="38.259605" lon="-2.340765">
        <ele>1380</ele>
        <time>2014-08-24T10:20:05.44</time>
      </trkpt>
      <trkpt lat="38.259545" lon="-2.34064">
        <ele>1379</ele>
        <time>2014-08-24T10:20:06.44</time>
      </trkpt>
      <trkpt lat="38.25949833333333" lon="-2.340515">
        <ele>1379</ele>
        <time>2014-08-24T10:20:07.45</time>
      </trkpt>
      <trkpt lat="38.259455" lon="-2.34039">
        <ele>1378</ele>
        <time>2014-08-24T10:20:08.51</time>
      </trkpt>
      <trkpt lat="38.259425" lon="-2.34026">
        <ele>1377</ele>
        <time>2014-08-24T10:20:09.49</time>
      </trkpt>
      <trkpt lat="38.259395" lon="-2.3401300000000003">
        <ele>1375</ele>
        <time>2014-08-24T10:20:10.45</time>
      </trkpt>
      <trkpt lat="38.25937" lon="-2.3399900000000002">
        <ele>1374</ele>
        <time>2014-08-24T10:20:11.51</time>
      </trkpt>
      <trkpt lat="38.259355" lon="-2.33985">
        <ele>1372</ele>
        <time>2014-08-24T10:20:12.45</time>
      </trkpt>
      <trkpt lat="38.259335" lon="-2.33969">
        <ele>1371</ele>
        <time>2014-08-24T10:20:13.47</time>
      </trkpt>
      <trkpt lat="38.259325" lon="-2.339535">
        <ele>1370</ele>
        <time>2014-08-24T10:20:14.49</time>
      </trkpt>
      <trkpt lat="38.25932" lon="-2.33937">
        <ele>1369</ele>
        <time>2014-08-24T10:20:15.49</time>
      </trkpt>
      <trkpt lat="38.259295" lon="-2.339201666666667">
        <ele>1367</ele>
        <time>2014-08-24T10:20:16.49</time>
      </trkpt>
      <trkpt lat="38.259276666666665" lon="-2.33904">
        <ele>1366</ele>
        <time>2014-08-24T10:20:17.49</time>
      </trkpt>
      <trkpt lat="38.259265" lon="-2.33888">
        <ele>1365</ele>
        <time>2014-08-24T10:20:18.50</time>
      </trkpt>
      <trkpt lat="38.259255" lon="-2.33873">
        <ele>1364</ele>
        <time>2014-08-24T10:20:19.44</time>
      </trkpt>
      <trkpt lat="38.25924" lon="-2.338575">
        <ele>1362</ele>
        <time>2014-08-24T10:20:20.44</time>
      </trkpt>
      <trkpt lat="38.259225" lon="-2.338425">
        <ele>1361</ele>
        <time>2014-08-24T10:20:21.44</time>
      </trkpt>
      <trkpt lat="38.2592" lon="-2.338285">
        <ele>1359</ele>
        <time>2014-08-24T10:20:22.49</time>
      </trkpt>
      <trkpt lat="38.25919" lon="-2.338155">
        <ele>1358</ele>
        <time>2014-08-24T10:20:23.49</time>
      </trkpt>
      <trkpt lat="38.259185" lon="-2.33802">
        <ele>1358</ele>
        <time>2014-08-24T10:20:24.49</time>
      </trkpt>
      <trkpt lat="38.25922" lon="-2.33789">
        <ele>1356</ele>
        <time>2014-08-24T10:20:25.49</time>
      </trkpt>
      <trkpt lat="38.259255" lon="-2.337755">
        <ele>1355</ele>
        <time>2014-08-24T10:20:26.49</time>
      </trkpt>
      <trkpt lat="38.259315" lon="-2.337615">
        <ele>1354</ele>
        <time>2014-08-24T10:20:27.44</time>
      </trkpt>
      <trkpt lat="38.259375" lon="-2.337475">
        <ele>1353</ele>
        <time>2014-08-24T10:20:28.44</time>
      </trkpt>
      <trkpt lat="38.25941" lon="-2.3373133333333334">
        <ele>1352</ele>
        <time>2014-08-24T10:20:29.44</time>
      </trkpt>
      <trkpt lat="38.259455" lon="-2.337155">
        <ele>1351</ele>
        <time>2014-08-24T10:20:30.44</time>
      </trkpt>
      <trkpt lat="38.25949" lon="-2.33698">
        <ele>1350</ele>
        <time>2014-08-24T10:20:31.49</time>
      </trkpt>
      <trkpt lat="38.25953" lon="-2.336815">
        <ele>1349</ele>
        <time>2014-08-24T10:20:32.50</time>
      </trkpt>
      <trkpt lat="38.259565" lon="-2.33666">
        <ele>1349</ele>
        <time>2014-08-24T10:20:33.63</time>
      </trkpt>
      <trkpt lat="38.259595" lon="-2.336495">
        <ele>1348</ele>
        <time>2014-08-24T10:20:34.49</time>
      </trkpt>
      <trkpt lat="38.25961" lon="-2.3363300000000002">
        <ele>1346</ele>
        <time>2014-08-24T10:20:35.49</time>
      </trkpt>
      <trkpt lat="38.25963" lon="-2.33617">
        <ele>1346</ele>
        <time>2014-08-24T10:20:36.49</time>
      </trkpt>
      <trkpt lat="38.259655" lon="-2.336015">
        <ele>1345</ele>
        <time>2014-08-24T10:20:37.49</time>
      </trkpt>
      <trkpt lat="38.25969" lon="-2.33586">
        <ele>1345</ele>
        <time>2014-08-24T10:20:38.49</time>
      </trkpt>
      <trkpt lat="38.25972" lon="-2.335705">
        <ele>1343</ele>
        <time>2014-08-24T10:20:39.54</time>
      </trkpt>
      <trkpt lat="38.25974" lon="-2.335555">
        <ele>1342</ele>
        <time>2014-08-24T10:20:40.54</time>
      </trkpt>
      <trkpt lat="38.25974" lon="-2.335385">
        <ele>1341</ele>
        <time>2014-08-24T10:20:41.55</time>
      </trkpt>
      <trkpt lat="38.259725" lon="-2.335215">
        <ele>1340</ele>
        <time>2014-08-24T10:20:42.55</time>
      </trkpt>
      <trkpt lat="38.259725" lon="-2.335045">
        <ele>1338</ele>
        <time>2014-08-24T10:20:43.50</time>
      </trkpt>
      <trkpt lat="38.259725" lon="-2.334895">
        <ele>1334</ele>
        <time>2014-08-24T10:20:44.49</time>
      </trkpt>
      <trkpt lat="38.25975" lon="-2.33473">
        <ele>1334</ele>
        <time>2014-08-24T10:20:45.49</time>
      </trkpt>
      <trkpt lat="38.259805" lon="-2.334585">
        <ele>1332</ele>
        <time>2014-08-24T10:20:46.49</time>
      </trkpt>
      <trkpt lat="38.259835" lon="-2.334455">
        <ele>1331</ele>
        <time>2014-08-24T10:20:47.48</time>
      </trkpt>
      <trkpt lat="38.25987" lon="-2.3343483333333332">
        <ele>1330</ele>
        <time>2014-08-24T10:20:48.49</time>
      </trkpt>
      <trkpt lat="38.25988" lon="-2.33425">
        <ele>1330</ele>
        <time>2014-08-24T10:20:49.49</time>
      </trkpt>
      <trkpt lat="38.25984" lon="-2.33407">
        <ele>1327</ele>
        <time>2014-08-24T10:20:51.50</time>
      </trkpt>
      <trkpt lat="38.259785" lon="-2.33399">
        <ele>1324</ele>
        <time>2014-08-24T10:20:52.49</time>
      </trkpt>
      <trkpt lat="38.259715" lon="-2.3338966666666665">
        <ele>1322</ele>
        <time>2014-08-24T10:20:53.49</time>
      </trkpt>
      <trkpt lat="38.25964" lon="-2.3338183333333333">
        <ele>1319</ele>
        <time>2014-08-24T10:20:54.49</time>
      </trkpt>
      <trkpt lat="38.25955" lon="-2.333735">
        <ele>1318</ele>
        <time>2014-08-24T10:20:55.49</time>
      </trkpt>
      <trkpt lat="38.259465" lon="-2.33364">
        <ele>1316</ele>
        <time>2014-08-24T10:20:56.49</time>
      </trkpt>
      <trkpt lat="38.259385" lon="-2.333535">
        <ele>1314</ele>
        <time>2014-08-24T10:20:57.49</time>
      </trkpt>
      <trkpt lat="38.25929" lon="-2.33344">
        <ele>1313</ele>
        <time>2014-08-24T10:20:58.49</time>
      </trkpt>
      <trkpt lat="38.25918" lon="-2.33337">
        <ele>1311</ele>
        <time>2014-08-24T10:20:59.49</time>
      </trkpt>
      <trkpt lat="38.25906" lon="-2.333305">
        <ele>1310</ele>
        <time>2014-08-24T10:21:00.49</time>
      </trkpt>
      <trkpt lat="38.258945" lon="-2.33323">
        <ele>1308</ele>
        <time>2014-08-24T10:21:01.50</time>
      </trkpt>
      <trkpt lat="38.258825" lon="-2.333155">
        <ele>1307</ele>
        <time>2014-08-24T10:21:02.44</time>
      </trkpt>
      <trkpt lat="38.258715" lon="-2.33307">
        <ele>1306</ele>
        <time>2014-08-24T10:21:03.49</time>
      </trkpt>
      <trkpt lat="38.258625" lon="-2.33297">
        <ele>1304</ele>
        <time>2014-08-24T10:21:04.49</time>
      </trkpt>
      <trkpt lat="38.258545" lon="-2.33285">
        <ele>1302</ele>
        <time>2014-08-24T10:21:05.49</time>
      </trkpt>
      <trkpt lat="38.258465" lon="-2.332715">
        <ele>1301</ele>
        <time>2014-08-24T10:21:06.49</time>
      </trkpt>
      <trkpt lat="38.258395" lon="-2.33257">
        <ele>1299</ele>
        <time>2014-08-24T10:21:07.49</time>
      </trkpt>
      <trkpt lat="38.25832" lon="-2.33244">
        <ele>1297</ele>
        <time>2014-08-24T10:21:08.49</time>
      </trkpt>
      <trkpt lat="38.25825" lon="-2.33229">
        <ele>1294</ele>
        <time>2014-08-24T10:21:09.49</time>
      </trkpt>
      <trkpt lat="38.258175" lon="-2.33214">
        <ele>1292</ele>
        <time>2014-08-24T10:21:10.44</time>
      </trkpt>
      <trkpt lat="38.258105" lon="-2.33198">
        <ele>1290</ele>
        <time>2014-08-24T10:21:11.49</time>
      </trkpt>
      <trkpt lat="38.25804" lon="-2.33183">
        <ele>1286</ele>
        <time>2014-08-24T10:21:12.58</time>
      </trkpt>
      <trkpt lat="38.25797" lon="-2.33168">
        <ele>1283</ele>
        <time>2014-08-24T10:21:13.51</time>
      </trkpt>
      <trkpt lat="38.257895" lon="-2.331525">
        <ele>1281</ele>
        <time>2014-08-24T10:21:14.50</time>
      </trkpt>
      <trkpt lat="38.25782" lon="-2.331365">
        <ele>1279</ele>
        <time>2014-08-24T10:21:15.49</time>
      </trkpt>
      <trkpt lat="38.25773" lon="-2.3312116666666665">
        <ele>1276</ele>
        <time>2014-08-24T10:21:16.50</time>
      </trkpt>
      <trkpt lat="38.25763" lon="-2.3310750000000002">
        <ele>1274</ele>
        <time>2014-08-24T10:21:17.49</time>
      </trkpt>
      <trkpt lat="38.25754" lon="-2.3309333333333333">
        <ele>1272</ele>
        <time>2014-08-24T10:21:18.49</time>
      </trkpt>
      <trkpt lat="38.25746" lon="-2.3308">
        <ele>1270</ele>
        <time>2014-08-24T10:21:19.49</time>
      </trkpt>
      <trkpt lat="38.25739" lon="-2.3306649999999998">
        <ele>1269</ele>
        <time>2014-08-24T10:21:20.50</time>
      </trkpt>
      <trkpt lat="38.257345" lon="-2.3305350000000002">
        <ele>1267</ele>
        <time>2014-08-24T10:21:21.49</time>
      </trkpt>
      <trkpt lat="38.257295" lon="-2.330415">
        <ele>1267</ele>
        <time>2014-08-24T10:21:22.50</time>
      </trkpt>
      <trkpt lat="38.257235" lon="-2.33032">
        <ele>1264</ele>
        <time>2014-08-24T10:21:23.49</time>
      </trkpt>
      <trkpt lat="38.257145" lon="-2.3302283333333333">
        <ele>1263</ele>
        <time>2014-08-24T10:21:24.49</time>
      </trkpt>
      <trkpt lat="38.25705" lon="-2.330146666666667">
        <ele>1262</ele>
        <time>2014-08-24T10:21:25.49</time>
      </trkpt>
      <trkpt lat="38.256945" lon="-2.330075">
        <ele>1261</ele>
        <time>2014-08-24T10:21:26.50</time>
      </trkpt>
      <trkpt lat="38.256835" lon="-2.330005">
        <ele>1260</ele>
        <time>2014-08-24T10:21:27.49</time>
      </trkpt>
      <trkpt lat="38.25672" lon="-2.329935">
        <ele>1259</ele>
        <time>2014-08-24T10:21:28.50</time>
      </trkpt>
      <trkpt lat="38.256605" lon="-2.3298616666666665">
        <ele>1257</ele>
        <time>2014-08-24T10:21:29.51</time>
      </trkpt>
      <trkpt lat="38.256475" lon="-2.3298">
        <ele>1256</ele>
        <time>2014-08-24T10:21:30.49</time>
      </trkpt>
      <trkpt lat="38.256355" lon="-2.329735">
        <ele>1254</ele>
        <time>2014-08-24T10:21:31.48</time>
      </trkpt>
      <trkpt lat="38.25625" lon="-2.32967">
        <ele>1252</ele>
        <time>2014-08-24T10:21:32.48</time>
      </trkpt>
      <trkpt lat="38.256155" lon="-2.329605">
        <ele>1252</ele>
        <time>2014-08-24T10:21:33.49</time>
      </trkpt>
      <trkpt lat="38.256075" lon="-2.3295500000000002">
        <ele>1250</ele>
        <time>2014-08-24T10:21:34.54</time>
      </trkpt>
      <trkpt lat="38.256" lon="-2.329475">
        <ele>1250</ele>
        <time>2014-08-24T10:21:35.48</time>
      </trkpt>
      <trkpt lat="38.25594" lon="-2.32935">
        <ele>1250</ele>
        <time>2014-08-24T10:21:36.49</time>
      </trkpt>
      <trkpt lat="38.255905" lon="-2.32922">
        <ele>1251</ele>
        <time>2014-08-24T10:21:37.49</time>
      </trkpt>
      <trkpt lat="38.255885" lon="-2.3291">
        <ele>1249</ele>
        <time>2014-08-24T10:21:38.44</time>
      </trkpt>
      <trkpt lat="38.255871666666664" lon="-2.328985">
        <ele>1246</ele>
        <time>2014-08-24T10:21:39.48</time>
      </trkpt>
      <trkpt lat="38.25587" lon="-2.328855">
        <ele>1245</ele>
        <time>2014-08-24T10:21:40.49</time>
      </trkpt>
      <trkpt lat="38.255865" lon="-2.32871">
        <ele>1245</ele>
        <time>2014-08-24T10:21:41.67</time>
      </trkpt>
      <trkpt lat="38.255856666666666" lon="-2.328575">
        <ele>1244</ele>
        <time>2014-08-24T10:21:42.55</time>
      </trkpt>
      <trkpt lat="38.25585" lon="-2.32844">
        <ele>1243</ele>
        <time>2014-08-24T10:21:43.56</time>
      </trkpt>
      <trkpt lat="38.25585" lon="-2.32832">
        <ele>1243</ele>
        <time>2014-08-24T10:21:44.57</time>
      </trkpt>
      <trkpt lat="38.255845" lon="-2.32822">
        <ele>1242</ele>
        <time>2014-08-24T10:21:45.58</time>
      </trkpt>
      <trkpt lat="38.255855" lon="-2.32806">
        <ele>1241</ele>
        <time>2014-08-24T10:21:47.49</time>
      </trkpt>
      <trkpt lat="38.255858333333336" lon="-2.32795">
        <ele>1240</ele>
        <time>2014-08-24T10:21:49.50</time>
      </trkpt>
      <trkpt lat="38.255915" lon="-2.327875">
        <ele>1239</ele>
        <time>2014-08-24T10:21:51.49</time>
      </trkpt>
      <trkpt lat="38.255995" lon="-2.327825">
        <ele>1238</ele>
        <time>2014-08-24T10:21:53.49</time>
      </trkpt>
      <trkpt lat="38.256095" lon="-2.327795">
        <ele>1237</ele>
        <time>2014-08-24T10:21:55.49</time>
      </trkpt>
      <trkpt lat="38.2562" lon="-2.3278033333333332">
        <ele>1236</ele>
        <time>2014-08-24T10:21:57.49</time>
      </trkpt>
      <trkpt lat="38.256305" lon="-2.327776666666667">
        <ele>1236</ele>
        <time>2014-08-24T10:21:59.49</time>
      </trkpt>
      <trkpt lat="38.256415" lon="-2.32775">
        <ele>1235</ele>
        <time>2014-08-24T10:22:01.49</time>
      </trkpt>
      <trkpt lat="38.256535" lon="-2.32774">
        <ele>1235</ele>
        <time>2014-08-24T10:22:03.48</time>
      </trkpt>
      <trkpt lat="38.25665" lon="-2.32769">
        <ele>1234</ele>
        <time>2014-08-24T10:22:05.49</time>
      </trkpt>
      <trkpt lat="38.25676833333333" lon="-2.32765">
        <ele>1233</ele>
        <time>2014-08-24T10:22:07.49</time>
      </trkpt>
      <trkpt lat="38.256895" lon="-2.32761">
        <ele>1234</ele>
        <time>2014-08-24T10:22:09.50</time>
      </trkpt>
      <trkpt lat="38.25702" lon="-2.32758">
        <ele>1234</ele>
        <time>2014-08-24T10:22:11.58</time>
      </trkpt>
      <trkpt lat="38.25714" lon="-2.3275550000000003">
        <ele>1234</ele>
        <time>2014-08-24T10:22:13.49</time>
      </trkpt>
      <trkpt lat="38.25725" lon="-2.327515">
        <ele>1234</ele>
        <time>2014-08-24T10:22:15.50</time>
      </trkpt>
      <trkpt lat="38.25735" lon="-2.327495">
        <ele>1234</ele>
        <time>2014-08-24T10:22:17.51</time>
      </trkpt>
      <trkpt lat="38.25745" lon="-2.32748">
        <ele>1233</ele>
        <time>2014-08-24T10:22:19.55</time>
      </trkpt>
      <trkpt lat="38.257545" lon="-2.32746">
        <ele>1233</ele>
        <time>2014-08-24T10:22:21.57</time>
      </trkpt>
      <trkpt lat="38.25764" lon="-2.32744">
        <ele>1234</ele>
        <time>2014-08-24T10:22:23.58</time>
      </trkpt>
      <trkpt lat="38.257725" lon="-2.327425">
        <ele>1233</ele>
        <time>2014-08-24T10:22:25.49</time>
      </trkpt>
      <trkpt lat="38.257825" lon="-2.327395">
        <ele>1234</ele>
        <time>2014-08-24T10:22:27.49</time>
      </trkpt>
      <trkpt lat="38.25792" lon="-2.327345">
        <ele>1232</ele>
        <time>2014-08-24T10:22:29.56</time>
      </trkpt>
      <trkpt lat="38.258035" lon="-2.32732">
        <ele>1232</ele>
        <time>2014-08-24T10:22:31.57</time>
      </trkpt>
      <trkpt lat="38.25816" lon="-2.3273">
        <ele>1232</ele>
        <time>2014-08-24T10:22:33.50</time>
      </trkpt>
      <trkpt lat="38.258285" lon="-2.32728">
        <ele>1231</ele>
        <time>2014-08-24T10:22:35.52</time>
      </trkpt>
      <trkpt lat="38.25839" lon="-2.3272566666666665">
        <ele>1229</ele>
        <time>2014-08-24T10:22:37.49</time>
      </trkpt>
      <trkpt lat="38.2585" lon="-2.327205">
        <ele>1230</ele>
        <time>2014-08-24T10:22:39.45</time>
      </trkpt>
      <trkpt lat="38.25863" lon="-2.32716">
        <ele>1231</ele>
        <time>2014-08-24T10:22:41.45</time>
      </trkpt>
      <trkpt lat="38.258735" lon="-2.327105">
        <ele>1231</ele>
        <time>2014-08-24T10:22:43.49</time>
      </trkpt>
      <trkpt lat="38.25885" lon="-2.32702">
        <ele>1231</ele>
        <time>2014-08-24T10:22:45.54</time>
      </trkpt>
      <trkpt lat="38.258905" lon="-2.32696">
        <ele>1231</ele>
        <time>2014-08-24T10:22:46.50</time>
      </trkpt>
      <trkpt lat="38.25902" lon="-2.32685">
        <ele>1229</ele>
        <time>2014-08-24T10:22:48.56</time>
      </trkpt>
      <trkpt lat="38.259121666666665" lon="-2.3267333333333333">
        <ele>1229</ele>
        <time>2014-08-24T10:22:50.51</time>
      </trkpt>
      <trkpt lat="38.259235" lon="-2.3266383333333334">
        <ele>1226</ele>
        <time>2014-08-24T10:22:52.49</time>
      </trkpt>
      <trkpt lat="38.25932" lon="-2.326555">
        <ele>1227</ele>
        <time>2014-08-24T10:22:54.51</time>
      </trkpt>
      <trkpt lat="38.25942" lon="-2.32646">
        <ele>1228</ele>
        <time>2014-08-24T10:22:56.50</time>
      </trkpt>
      <trkpt lat="38.259485" lon="-2.326415">
        <ele>1227</ele>
        <time>2014-08-24T10:22:57.44</time>
      </trkpt>
      <trkpt lat="38.259535" lon="-2.3263350000000003">
        <ele>1224</ele>
        <time>2014-08-24T10:22:58.50</time>
      </trkpt>
      <trkpt lat="38.259635" lon="-2.326225">
        <ele>1224</ele>
        <time>2014-08-24T10:23:00.44</time>
      </trkpt>
      <trkpt lat="38.259726666666666" lon="-2.3260983333333334">
        <ele>1224</ele>
        <time>2014-08-24T10:23:02.43</time>
      </trkpt>
      <trkpt lat="38.25979666666667" lon="-2.326055">
        <ele>1223</ele>
        <time>2014-08-24T10:23:03.49</time>
      </trkpt>
      <trkpt lat="38.259855" lon="-2.32599">
        <ele>1223</ele>
        <time>2014-08-24T10:23:04.60</time>
      </trkpt>
      <trkpt lat="38.259905" lon="-2.325921666666667">
        <ele>1223</ele>
        <time>2014-08-24T10:23:05.49</time>
      </trkpt>
      <trkpt lat="38.25996" lon="-2.325855">
        <ele>1224</ele>
        <time>2014-08-24T10:23:06.49</time>
      </trkpt>
      <trkpt lat="38.260015" lon="-2.325795">
        <ele>1224</ele>
        <time>2014-08-24T10:23:07.49</time>
      </trkpt>
      <trkpt lat="38.260065" lon="-2.32573">
        <ele>1224</ele>
        <time>2014-08-24T10:23:08.45</time>
      </trkpt>
      <trkpt lat="38.260175" lon="-2.325625">
        <ele>1226</ele>
        <time>2014-08-24T10:23:10.46</time>
      </trkpt>
      <trkpt lat="38.260225" lon="-2.325555">
        <ele>1226</ele>
        <time>2014-08-24T10:23:11.44</time>
      </trkpt>
      <trkpt lat="38.260331666666666" lon="-2.32543">
        <ele>1225</ele>
        <time>2014-08-24T10:23:13.45</time>
      </trkpt>
      <trkpt lat="38.26044" lon="-2.325336666666667">
        <ele>1227</ele>
        <time>2014-08-24T10:23:15.45</time>
      </trkpt>
      <trkpt lat="38.26052" lon="-2.32531">
        <ele>1227</ele>
        <time>2014-08-24T10:23:16.50</time>
      </trkpt>
      <trkpt lat="38.260655" lon="-2.325285">
        <ele>1226</ele>
        <time>2014-08-24T10:23:18.49</time>
      </trkpt>
      <trkpt lat="38.260775" lon="-2.32524">
        <ele>1227</ele>
        <time>2014-08-24T10:23:20.44</time>
      </trkpt>
      <trkpt lat="38.26088" lon="-2.32515">
        <ele>1227</ele>
        <time>2014-08-24T10:23:22.44</time>
      </trkpt>
      <trkpt lat="38.26095333333333" lon="-2.3250166666666665">
        <ele>1227</ele>
        <time>2014-08-24T10:23:24.44</time>
      </trkpt>
      <trkpt lat="38.261015" lon="-2.324885">
        <ele>1228</ele>
        <time>2014-08-24T10:23:26.49</time>
      </trkpt>
      <trkpt lat="38.26110833333333" lon="-2.324755">
        <ele>1226</ele>
        <time>2014-08-24T10:23:28.49</time>
      </trkpt>
      <trkpt lat="38.26117833333333" lon="-2.324645">
        <ele>1229</ele>
        <time>2014-08-24T10:23:30.49</time>
      </trkpt>
      <trkpt lat="38.261245" lon="-2.32452">
        <ele>1225</ele>
        <time>2014-08-24T10:23:32.47</time>
      </trkpt>
      <trkpt lat="38.261325" lon="-2.324413333333333">
        <ele>1224</ele>
        <time>2014-08-24T10:23:34.50</time>
      </trkpt>
      <trkpt lat="38.26139" lon="-2.3243">
        <ele>1227</ele>
        <time>2014-08-24T10:23:36.49</time>
      </trkpt>
      <trkpt lat="38.26145" lon="-2.324195">
        <ele>1225</ele>
        <time>2014-08-24T10:23:38.64</time>
      </trkpt>
      <trkpt lat="38.261535" lon="-2.324105">
        <ele>1225</ele>
        <time>2014-08-24T10:23:40.44</time>
      </trkpt>
      <trkpt lat="38.2616" lon="-2.323995">
        <ele>1226</ele>
        <time>2014-08-24T10:23:42.44</time>
      </trkpt>
      <trkpt lat="38.261685" lon="-2.3238849999999998">
        <ele>1225</ele>
        <time>2014-08-24T10:23:44.49</time>
      </trkpt>
      <trkpt lat="38.26179" lon="-2.323795">
        <ele>1225</ele>
        <time>2014-08-24T10:23:46.49</time>
      </trkpt>
      <trkpt lat="38.26189" lon="-2.323705">
        <ele>1225</ele>
        <time>2014-08-24T10:23:48.44</time>
      </trkpt>
      <trkpt lat="38.261965000000004" lon="-2.3236033333333332">
        <ele>1225</ele>
        <time>2014-08-24T10:23:50.44</time>
      </trkpt>
      <trkpt lat="38.26207" lon="-2.323505">
        <ele>1223</ele>
        <time>2014-08-24T10:23:52.44</time>
      </trkpt>
      <trkpt lat="38.262175" lon="-2.3234">
        <ele>1220</ele>
        <time>2014-08-24T10:23:54.48</time>
      </trkpt>
      <trkpt lat="38.262265" lon="-2.32328">
        <ele>1219</ele>
        <time>2014-08-24T10:23:56.44</time>
      </trkpt>
      <trkpt lat="38.262355" lon="-2.32315">
        <ele>1219</ele>
        <time>2014-08-24T10:23:58.44</time>
      </trkpt>
      <trkpt lat="38.26245333333333" lon="-2.323035">
        <ele>1217</ele>
        <time>2014-08-24T10:24:00.47</time>
      </trkpt>
      <trkpt lat="38.26251" lon="-2.322975">
        <ele>1217</ele>
        <time>2014-08-24T10:24:01.51</time>
      </trkpt>
      <trkpt lat="38.26257" lon="-2.3229100000000003">
        <ele>1216</ele>
        <time>2014-08-24T10:24:02.44</time>
      </trkpt>
      <trkpt lat="38.262681666666666" lon="-2.32279">
        <ele>1216</ele>
        <time>2014-08-24T10:24:04.44</time>
      </trkpt>
      <trkpt lat="38.26275" lon="-2.322745">
        <ele>1215</ele>
        <time>2014-08-24T10:24:05.44</time>
      </trkpt>
      <trkpt lat="38.26282" lon="-2.3226883333333332">
        <ele>1215</ele>
        <time>2014-08-24T10:24:06.44</time>
      </trkpt>
      <trkpt lat="38.26289" lon="-2.32265">
        <ele>1214</ele>
        <time>2014-08-24T10:24:07.46</time>
      </trkpt>
      <trkpt lat="38.262965" lon="-2.3226033333333334">
        <ele>1214</ele>
        <time>2014-08-24T10:24:08.44</time>
      </trkpt>
      <trkpt lat="38.263045" lon="-2.32256">
        <ele>1213</ele>
        <time>2014-08-24T10:24:09.49</time>
      </trkpt>
      <trkpt lat="38.263125" lon="-2.322505">
        <ele>1211</ele>
        <time>2014-08-24T10:24:10.49</time>
      </trkpt>
      <trkpt lat="38.263205" lon="-2.3224650000000002">
        <ele>1211</ele>
        <time>2014-08-24T10:24:11.48</time>
      </trkpt>
      <trkpt lat="38.26327" lon="-2.322425">
        <ele>1210</ele>
        <time>2014-08-24T10:24:12.63</time>
      </trkpt>
      <trkpt lat="38.26336" lon="-2.32239">
        <ele>1208</ele>
        <time>2014-08-24T10:24:13.49</time>
      </trkpt>
      <trkpt lat="38.26344" lon="-2.322355">
        <ele>1208</ele>
        <time>2014-08-24T10:24:14.49</time>
      </trkpt>
      <trkpt lat="38.26353" lon="-2.322315">
        <ele>1208</ele>
        <time>2014-08-24T10:24:15.49</time>
      </trkpt>
      <trkpt lat="38.263625" lon="-2.32228">
        <ele>1208</ele>
        <time>2014-08-24T10:24:16.49</time>
      </trkpt>
      <trkpt lat="38.263725" lon="-2.322245">
        <ele>1207</ele>
        <time>2014-08-24T10:24:17.49</time>
      </trkpt>
      <trkpt lat="38.263785" lon="-2.322195">
        <ele>1205</ele>
        <time>2014-08-24T10:24:18.51</time>
      </trkpt>
      <trkpt lat="38.263885" lon="-2.322185">
        <ele>1205</ele>
        <time>2014-08-24T10:24:19.49</time>
      </trkpt>
      <trkpt lat="38.263976666666665" lon="-2.322185">
        <ele>1204</ele>
        <time>2014-08-24T10:24:20.48</time>
      </trkpt>
      <trkpt lat="38.264075" lon="-2.32219">
        <ele>1202</ele>
        <time>2014-08-24T10:24:21.48</time>
      </trkpt>
      <trkpt lat="38.26416" lon="-2.322185">
        <ele>1202</ele>
        <time>2014-08-24T10:24:22.49</time>
      </trkpt>
      <trkpt lat="38.264265" lon="-2.322115">
        <ele>1201</ele>
        <time>2014-08-24T10:24:24.57</time>
      </trkpt>
      <trkpt lat="38.264305" lon="-2.3219833333333333">
        <ele>1200</ele>
        <time>2014-08-24T10:24:26.48</time>
      </trkpt>
      <trkpt lat="38.264235" lon="-2.3218199999999998">
        <ele>1197</ele>
        <time>2014-08-24T10:24:28.49</time>
      </trkpt>
      <trkpt lat="38.264195" lon="-2.321745">
        <ele>1197</ele>
        <time>2014-08-24T10:24:29.50</time>
      </trkpt>
      <trkpt lat="38.26415" lon="-2.321655">
        <ele>1196</ele>
        <time>2014-08-24T10:24:30.50</time>
      </trkpt>
      <trkpt lat="38.26411" lon="-2.321565">
        <ele>1195</ele>
        <time>2014-08-24T10:24:31.49</time>
      </trkpt>
      <trkpt lat="38.264075" lon="-2.32146">
        <ele>1195</ele>
        <time>2014-08-24T10:24:32.49</time>
      </trkpt>
      <trkpt lat="38.26406" lon="-2.321345">
        <ele>1194</ele>
        <time>2014-08-24T10:24:33.49</time>
      </trkpt>
      <trkpt lat="38.264035" lon="-2.32124">
        <ele>1193</ele>
        <time>2014-08-24T10:24:34.49</time>
      </trkpt>
      <trkpt lat="38.26402" lon="-2.32113">
        <ele>1192</ele>
        <time>2014-08-24T10:24:35.49</time>
      </trkpt>
      <trkpt lat="38.264" lon="-2.321015">
        <ele>1191</ele>
        <time>2014-08-24T10:24:36.50</time>
      </trkpt>
      <trkpt lat="38.26399" lon="-2.3208883333333334">
        <ele>1190</ele>
        <time>2014-08-24T10:24:37.45</time>
      </trkpt>
      <trkpt lat="38.263995" lon="-2.3207633333333333">
        <ele>1189</ele>
        <time>2014-08-24T10:24:38.49</time>
      </trkpt>
      <trkpt lat="38.264045" lon="-2.32063">
        <ele>1189</ele>
        <time>2014-08-24T10:24:39.50</time>
      </trkpt>
      <trkpt lat="38.2641" lon="-2.3205">
        <ele>1188</ele>
        <time>2014-08-24T10:24:40.49</time>
      </trkpt>
      <trkpt lat="38.264165" lon="-2.320375">
        <ele>1187</ele>
        <time>2014-08-24T10:24:41.50</time>
      </trkpt>
      <trkpt lat="38.264235" lon="-2.320245">
        <ele>1187</ele>
        <time>2014-08-24T10:24:42.57</time>
      </trkpt>
      <trkpt lat="38.264305" lon="-2.32012">
        <ele>1187</ele>
        <time>2014-08-24T10:24:43.52</time>
      </trkpt>
      <trkpt lat="38.264355" lon="-2.319985">
        <ele>1187</ele>
        <time>2014-08-24T10:24:44.55</time>
      </trkpt>
      <trkpt lat="38.26444" lon="-2.319855">
        <ele>1185</ele>
        <time>2014-08-24T10:24:45.50</time>
      </trkpt>
      <trkpt lat="38.264496666666666" lon="-2.319725">
        <ele>1184</ele>
        <time>2014-08-24T10:24:46.50</time>
      </trkpt>
      <trkpt lat="38.264565" lon="-2.3196">
        <ele>1184</ele>
        <time>2014-08-24T10:24:47.50</time>
      </trkpt>
      <trkpt lat="38.26464" lon="-2.319465">
        <ele>1182</ele>
        <time>2014-08-24T10:24:48.50</time>
      </trkpt>
      <trkpt lat="38.26472" lon="-2.31934">
        <ele>1180</ele>
        <time>2014-08-24T10:24:49.51</time>
      </trkpt>
      <trkpt lat="38.264785" lon="-2.319215">
        <ele>1178</ele>
        <time>2014-08-24T10:24:50.50</time>
      </trkpt>
      <trkpt lat="38.26485" lon="-2.31909">
        <ele>1177</ele>
        <time>2014-08-24T10:24:51.50</time>
      </trkpt>
      <trkpt lat="38.26492" lon="-2.31897">
        <ele>1176</ele>
        <time>2014-08-24T10:24:52.51</time>
      </trkpt>
      <trkpt lat="38.26498" lon="-2.318845">
        <ele>1175</ele>
        <time>2014-08-24T10:24:53.49</time>
      </trkpt>
      <trkpt lat="38.265045" lon="-2.318715">
        <ele>1174</ele>
        <time>2014-08-24T10:24:54.56</time>
      </trkpt>
      <trkpt lat="38.265103333333336" lon="-2.3185816666666668">
        <ele>1173</ele>
        <time>2014-08-24T10:24:55.50</time>
      </trkpt>
      <trkpt lat="38.265185" lon="-2.31846">
        <ele>1172</ele>
        <time>2014-08-24T10:24:56.50</time>
      </trkpt>
      <trkpt lat="38.26527333333333" lon="-2.31835">
        <ele>1172</ele>
        <time>2014-08-24T10:24:57.50</time>
      </trkpt>
      <trkpt lat="38.265365" lon="-2.318255">
        <ele>1172</ele>
        <time>2014-08-24T10:24:58.50</time>
      </trkpt>
      <trkpt lat="38.26546" lon="-2.318165">
        <ele>1171</ele>
        <time>2014-08-24T10:24:59.50</time>
      </trkpt>
      <trkpt lat="38.26556" lon="-2.31808">
        <ele>1170</ele>
        <time>2014-08-24T10:25:00.49</time>
      </trkpt>
      <trkpt lat="38.26567" lon="-2.318005">
        <ele>1170</ele>
        <time>2014-08-24T10:25:01.50</time>
      </trkpt>
      <trkpt lat="38.265785" lon="-2.31793">
        <ele>1169</ele>
        <time>2014-08-24T10:25:02.49</time>
      </trkpt>
      <trkpt lat="38.26589" lon="-2.31785">
        <ele>1169</ele>
        <time>2014-08-24T10:25:03.50</time>
      </trkpt>
      <trkpt lat="38.265995" lon="-2.317756666666667">
        <ele>1168</ele>
        <time>2014-08-24T10:25:04.49</time>
      </trkpt>
      <trkpt lat="38.266103333333334" lon="-2.31769">
        <ele>1166</ele>
        <time>2014-08-24T10:25:05.49</time>
      </trkpt>
      <trkpt lat="38.266215" lon="-2.31763">
        <ele>1163</ele>
        <time>2014-08-24T10:25:06.49</time>
      </trkpt>
      <trkpt lat="38.266355" lon="-2.3176">
        <ele>1163</ele>
        <time>2014-08-24T10:25:07.49</time>
      </trkpt>
      <trkpt lat="38.26648" lon="-2.317565">
        <ele>1162</ele>
        <time>2014-08-24T10:25:08.49</time>
      </trkpt>
      <trkpt lat="38.266615" lon="-2.31754">
        <ele>1161</ele>
        <time>2014-08-24T10:25:09.49</time>
      </trkpt>
      <trkpt lat="38.26675" lon="-2.3175">
        <ele>1160</ele>
        <time>2014-08-24T10:25:10.43</time>
      </trkpt>
      <trkpt lat="38.26689" lon="-2.31746">
        <ele>1159</ele>
        <time>2014-08-24T10:25:11.49</time>
      </trkpt>
      <trkpt lat="38.26701666666666" lon="-2.317415">
        <ele>1157</ele>
        <time>2014-08-24T10:25:12.49</time>
      </trkpt>
      <trkpt lat="38.26715" lon="-2.317365">
        <ele>1157</ele>
        <time>2014-08-24T10:25:13.49</time>
      </trkpt>
      <trkpt lat="38.267285" lon="-2.31731">
        <ele>1157</ele>
        <time>2014-08-24T10:25:14.51</time>
      </trkpt>
      <trkpt lat="38.2674" lon="-2.317255">
        <ele>1156</ele>
        <time>2014-08-24T10:25:15.49</time>
      </trkpt>
      <trkpt lat="38.267525" lon="-2.31721">
        <ele>1155</ele>
        <time>2014-08-24T10:25:16.49</time>
      </trkpt>
      <trkpt lat="38.267635" lon="-2.3171749999999998">
        <ele>1153</ele>
        <time>2014-08-24T10:25:17.49</time>
      </trkpt>
      <trkpt lat="38.26776" lon="-2.31717">
        <ele>1153</ele>
        <time>2014-08-24T10:25:18.49</time>
      </trkpt>
      <trkpt lat="38.267885" lon="-2.31717">
        <ele>1152</ele>
        <time>2014-08-24T10:25:19.49</time>
      </trkpt>
      <trkpt lat="38.26800166666666" lon="-2.31718">
        <ele>1151</ele>
        <time>2014-08-24T10:25:20.49</time>
      </trkpt>
      <trkpt lat="38.268125" lon="-2.317195">
        <ele>1150</ele>
        <time>2014-08-24T10:25:21.49</time>
      </trkpt>
      <trkpt lat="38.268225" lon="-2.31719">
        <ele>1149</ele>
        <time>2014-08-24T10:25:22.49</time>
      </trkpt>
      <trkpt lat="38.26833" lon="-2.31716">
        <ele>1147</ele>
        <time>2014-08-24T10:25:23.49</time>
      </trkpt>
      <trkpt lat="38.26841" lon="-2.31711">
        <ele>1144</ele>
        <time>2014-08-24T10:25:24.49</time>
      </trkpt>
      <trkpt lat="38.26848" lon="-2.31704">
        <ele>1144</ele>
        <time>2014-08-24T10:25:25.49</time>
      </trkpt>
      <trkpt lat="38.26853" lon="-2.316945">
        <ele>1143</ele>
        <time>2014-08-24T10:25:26.48</time>
      </trkpt>
      <trkpt lat="38.26856" lon="-2.316835">
        <ele>1142</ele>
        <time>2014-08-24T10:25:27.49</time>
      </trkpt>
      <trkpt lat="38.26856" lon="-2.316705">
        <ele>1140</ele>
        <time>2014-08-24T10:25:28.49</time>
      </trkpt>
      <trkpt lat="38.26854" lon="-2.31657">
        <ele>1138</ele>
        <time>2014-08-24T10:25:29.49</time>
      </trkpt>
      <trkpt lat="38.268495" lon="-2.31644">
        <ele>1137</ele>
        <time>2014-08-24T10:25:30.49</time>
      </trkpt>
      <trkpt lat="38.26843" lon="-2.316325">
        <ele>1138</ele>
        <time>2014-08-24T10:25:31.49</time>
      </trkpt>
      <trkpt lat="38.26836" lon="-2.3162233333333333">
        <ele>1137</ele>
        <time>2014-08-24T10:25:32.48</time>
      </trkpt>
      <trkpt lat="38.268305" lon="-2.316125">
        <ele>1136</ele>
        <time>2014-08-24T10:25:33.48</time>
      </trkpt>
      <trkpt lat="38.26826" lon="-2.31601">
        <ele>1136</ele>
        <time>2014-08-24T10:25:34.49</time>
      </trkpt>
      <trkpt lat="38.26822833333333" lon="-2.3158833333333333">
        <ele>1135</ele>
        <time>2014-08-24T10:25:35.49</time>
      </trkpt>
      <trkpt lat="38.268225" lon="-2.3157550000000002">
        <ele>1135</ele>
        <time>2014-08-24T10:25:36.49</time>
      </trkpt>
      <trkpt lat="38.268211666666666" lon="-2.315625">
        <ele>1134</ele>
        <time>2014-08-24T10:25:37.49</time>
      </trkpt>
      <trkpt lat="38.268225" lon="-2.315495">
        <ele>1134</ele>
        <time>2014-08-24T10:25:38.61</time>
      </trkpt>
      <trkpt lat="38.26825" lon="-2.315375">
        <ele>1135</ele>
        <time>2014-08-24T10:25:39.49</time>
      </trkpt>
      <trkpt lat="38.26829333333333" lon="-2.315255">
        <ele>1135</ele>
        <time>2014-08-24T10:25:40.49</time>
      </trkpt>
      <trkpt lat="38.268345" lon="-2.31513">
        <ele>1135</ele>
        <time>2014-08-24T10:25:41.50</time>
      </trkpt>
      <trkpt lat="38.268395" lon="-2.31501">
        <ele>1135</ele>
        <time>2014-08-24T10:25:42.59</time>
      </trkpt>
      <trkpt lat="38.26846" lon="-2.314905">
        <ele>1135</ele>
        <time>2014-08-24T10:25:43.52</time>
      </trkpt>
      <trkpt lat="38.268515" lon="-2.3148">
        <ele>1135</ele>
        <time>2014-08-24T10:25:44.53</time>
      </trkpt>
      <trkpt lat="38.26858" lon="-2.3146983333333333">
        <ele>1134</ele>
        <time>2014-08-24T10:25:45.54</time>
      </trkpt>
      <trkpt lat="38.26865" lon="-2.3146">
        <ele>1134</ele>
        <time>2014-08-24T10:25:46.49</time>
      </trkpt>
      <trkpt lat="38.268715" lon="-2.3145">
        <ele>1134</ele>
        <time>2014-08-24T10:25:47.49</time>
      </trkpt>
      <trkpt lat="38.26879" lon="-2.314425">
        <ele>1133</ele>
        <time>2014-08-24T10:25:48.55</time>
      </trkpt>
      <trkpt lat="38.26886" lon="-2.31433">
        <ele>1132</ele>
        <time>2014-08-24T10:25:49.49</time>
      </trkpt>
      <trkpt lat="38.26892" lon="-2.3142300000000002">
        <ele>1133</ele>
        <time>2014-08-24T10:25:50.49</time>
      </trkpt>
      <trkpt lat="38.26896" lon="-2.3141233333333333">
        <ele>1134</ele>
        <time>2014-08-24T10:25:51.48</time>
      </trkpt>
      <trkpt lat="38.26903" lon="-2.314035">
        <ele>1133</ele>
        <time>2014-08-24T10:25:52.48</time>
      </trkpt>
      <trkpt lat="38.26908" lon="-2.31394">
        <ele>1133</ele>
        <time>2014-08-24T10:25:53.48</time>
      </trkpt>
      <trkpt lat="38.26912166666666" lon="-2.31384">
        <ele>1133</ele>
        <time>2014-08-24T10:25:54.49</time>
      </trkpt>
      <trkpt lat="38.269175" lon="-2.3137600000000003">
        <ele>1133</ele>
        <time>2014-08-24T10:25:55.66</time>
      </trkpt>
      <trkpt lat="38.26922" lon="-2.313675">
        <ele>1133</ele>
        <time>2014-08-24T10:25:56.50</time>
      </trkpt>
      <trkpt lat="38.269275" lon="-2.313595">
        <ele>1131</ele>
        <time>2014-08-24T10:25:57.56</time>
      </trkpt>
      <trkpt lat="38.26934" lon="-2.313511666666667">
        <ele>1131</ele>
        <time>2014-08-24T10:25:58.50</time>
      </trkpt>
      <trkpt lat="38.269385" lon="-2.313435">
        <ele>1130</ele>
        <time>2014-08-24T10:25:59.49</time>
      </trkpt>
      <trkpt lat="38.269435" lon="-2.3133566666666665">
        <ele>1129</ele>
        <time>2014-08-24T10:26:00.48</time>
      </trkpt>
      <trkpt lat="38.2695" lon="-2.313295">
        <ele>1130</ele>
        <time>2014-08-24T10:26:01.49</time>
      </trkpt>
      <trkpt lat="38.26953" lon="-2.313205">
        <ele>1131</ele>
        <time>2014-08-24T10:26:02.49</time>
      </trkpt>
      <trkpt lat="38.26962" lon="-2.313075">
        <ele>1131</ele>
        <time>2014-08-24T10:26:04.48</time>
      </trkpt>
      <trkpt lat="38.269715" lon="-2.312945">
        <ele>1131</ele>
        <time>2014-08-24T10:26:06.49</time>
      </trkpt>
      <trkpt lat="38.269815" lon="-2.3128233333333332">
        <ele>1131</ele>
        <time>2014-08-24T10:26:08.49</time>
      </trkpt>
      <trkpt lat="38.269875" lon="-2.3127750000000002">
        <ele>1131</ele>
        <time>2014-08-24T10:26:09.55</time>
      </trkpt>
      <trkpt lat="38.26999" lon="-2.31268">
        <ele>1132</ele>
        <time>2014-08-24T10:26:11.49</time>
      </trkpt>
      <trkpt lat="38.27005" lon="-2.312615">
        <ele>1131</ele>
        <time>2014-08-24T10:26:12.49</time>
      </trkpt>
      <trkpt lat="38.27010833333333" lon="-2.31256">
        <ele>1130</ele>
        <time>2014-08-24T10:26:13.48</time>
      </trkpt>
      <trkpt lat="38.270175" lon="-2.31251">
        <ele>1130</ele>
        <time>2014-08-24T10:26:14.52</time>
      </trkpt>
      <trkpt lat="38.27025" lon="-2.312455">
        <ele>1130</ele>
        <time>2014-08-24T10:26:15.49</time>
      </trkpt>
      <trkpt lat="38.270315" lon="-2.3124000000000002">
        <ele>1131</ele>
        <time>2014-08-24T10:26:16.49</time>
      </trkpt>
      <trkpt lat="38.270395" lon="-2.31234">
        <ele>1131</ele>
        <time>2014-08-24T10:26:17.49</time>
      </trkpt>
      <trkpt lat="38.270465" lon="-2.312275">
        <ele>1131</ele>
        <time>2014-08-24T10:26:18.49</time>
      </trkpt>
      <trkpt lat="38.27054" lon="-2.3121983333333334">
        <ele>1131</ele>
        <time>2014-08-24T10:26:19.49</time>
      </trkpt>
      <trkpt lat="38.27061" lon="-2.31213">
        <ele>1128</ele>
        <time>2014-08-24T10:26:20.54</time>
      </trkpt>
      <trkpt lat="38.27068" lon="-2.31206">
        <ele>1128</ele>
        <time>2014-08-24T10:26:21.48</time>
      </trkpt>
      <trkpt lat="38.27076" lon="-2.311995">
        <ele>1127</ele>
        <time>2014-08-24T10:26:22.50</time>
      </trkpt>
      <trkpt lat="38.27084" lon="-2.311916666666667">
        <ele>1128</ele>
        <time>2014-08-24T10:26:23.50</time>
      </trkpt>
      <trkpt lat="38.270915" lon="-2.3118483333333333">
        <ele>1128</ele>
        <time>2014-08-24T10:26:24.49</time>
      </trkpt>
      <trkpt lat="38.270995" lon="-2.3117900000000002">
        <ele>1128</ele>
        <time>2014-08-24T10:26:25.48</time>
      </trkpt>
      <trkpt lat="38.271075" lon="-2.31173">
        <ele>1129</ele>
        <time>2014-08-24T10:26:26.48</time>
      </trkpt>
      <trkpt lat="38.271155" lon="-2.31168">
        <ele>1128</ele>
        <time>2014-08-24T10:26:27.49</time>
      </trkpt>
      <trkpt lat="38.271235" lon="-2.311635">
        <ele>1128</ele>
        <time>2014-08-24T10:26:28.49</time>
      </trkpt>
      <trkpt lat="38.271321666666665" lon="-2.3116250000000003">
        <ele>1127</ele>
        <time>2014-08-24T10:26:29.51</time>
      </trkpt>
      <trkpt lat="38.271405" lon="-2.3116250000000003">
        <ele>1123</ele>
        <time>2014-08-24T10:26:30.49</time>
      </trkpt>
      <trkpt lat="38.2715" lon="-2.3116583333333334">
        <ele>1123</ele>
        <time>2014-08-24T10:26:31.62</time>
      </trkpt>
      <trkpt lat="38.271595" lon="-2.31171">
        <ele>1121</ele>
        <time>2014-08-24T10:26:32.49</time>
      </trkpt>
      <trkpt lat="38.271685" lon="-2.31175">
        <ele>1121</ele>
        <time>2014-08-24T10:26:33.49</time>
      </trkpt>
      <trkpt lat="38.271773333333336" lon="-2.3117900000000002">
        <ele>1121</ele>
        <time>2014-08-24T10:26:34.49</time>
      </trkpt>
      <trkpt lat="38.271875" lon="-2.311795">
        <ele>1121</ele>
        <time>2014-08-24T10:26:35.52</time>
      </trkpt>
      <trkpt lat="38.27198" lon="-2.31176">
        <ele>1120</ele>
        <time>2014-08-24T10:26:36.48</time>
      </trkpt>
      <trkpt lat="38.27207" lon="-2.3117">
        <ele>1120</ele>
        <time>2014-08-24T10:26:37.49</time>
      </trkpt>
      <trkpt lat="38.27215" lon="-2.311605">
        <ele>1119</ele>
        <time>2014-08-24T10:26:38.44</time>
      </trkpt>
      <trkpt lat="38.27222" lon="-2.3114833333333333">
        <ele>1117</ele>
        <time>2014-08-24T10:26:39.49</time>
      </trkpt>
      <trkpt lat="38.27228" lon="-2.31136">
        <ele>1116</ele>
        <time>2014-08-24T10:26:40.49</time>
      </trkpt>
      <trkpt lat="38.27233" lon="-2.3112266666666668">
        <ele>1116</ele>
        <time>2014-08-24T10:26:41.50</time>
      </trkpt>
      <trkpt lat="38.272375" lon="-2.311095">
        <ele>1116</ele>
        <time>2014-08-24T10:26:42.63</time>
      </trkpt>
      <trkpt lat="38.272425" lon="-2.310955">
        <ele>1116</ele>
        <time>2014-08-24T10:26:43.49</time>
      </trkpt>
      <trkpt lat="38.27248" lon="-2.310815">
        <ele>1116</ele>
        <time>2014-08-24T10:26:44.49</time>
      </trkpt>
      <trkpt lat="38.27254833333333" lon="-2.310685">
        <ele>1114</ele>
        <time>2014-08-24T10:26:45.49</time>
      </trkpt>
      <trkpt lat="38.27261" lon="-2.310555">
        <ele>1113</ele>
        <time>2014-08-24T10:26:46.49</time>
      </trkpt>
      <trkpt lat="38.27266" lon="-2.3104033333333334">
        <ele>1113</ele>
        <time>2014-08-24T10:26:47.49</time>
      </trkpt>
      <trkpt lat="38.272715" lon="-2.3102650000000002">
        <ele>1113</ele>
        <time>2014-08-24T10:26:48.49</time>
      </trkpt>
      <trkpt lat="38.272771666666664" lon="-2.310115">
        <ele>1113</ele>
        <time>2014-08-24T10:26:49.49</time>
      </trkpt>
      <trkpt lat="38.272795" lon="-2.309955">
        <ele>1112</ele>
        <time>2014-08-24T10:26:50.50</time>
      </trkpt>
      <trkpt lat="38.272805" lon="-2.309805">
        <ele>1111</ele>
        <time>2014-08-24T10:26:51.49</time>
      </trkpt>
      <trkpt lat="38.272785" lon="-2.30966">
        <ele>1111</ele>
        <time>2014-08-24T10:26:52.49</time>
      </trkpt>
      <trkpt lat="38.27273" lon="-2.30953">
        <ele>1111</ele>
        <time>2014-08-24T10:26:53.49</time>
      </trkpt>
      <trkpt lat="38.27266" lon="-2.30943">
        <ele>1111</ele>
        <time>2014-08-24T10:26:54.49</time>
      </trkpt>
      <trkpt lat="38.2726" lon="-2.309335">
        <ele>1111</ele>
        <time>2014-08-24T10:26:55.50</time>
      </trkpt>
      <trkpt lat="38.272545" lon="-2.30924">
        <ele>1111</ele>
        <time>2014-08-24T10:26:56.49</time>
      </trkpt>
      <trkpt lat="38.272495" lon="-2.309155">
        <ele>1110</ele>
        <time>2014-08-24T10:26:57.49</time>
      </trkpt>
      <trkpt lat="38.27245" lon="-2.30906">
        <ele>1110</ele>
        <time>2014-08-24T10:26:58.49</time>
      </trkpt>
      <trkpt lat="38.272405" lon="-2.30897">
        <ele>1111</ele>
        <time>2014-08-24T10:26:59.49</time>
      </trkpt>
      <trkpt lat="38.27236" lon="-2.308875">
        <ele>1110</ele>
        <time>2014-08-24T10:27:00.49</time>
      </trkpt>
      <trkpt lat="38.272335" lon="-2.308775">
        <ele>1110</ele>
        <time>2014-08-24T10:27:01.49</time>
      </trkpt>
      <trkpt lat="38.27232333333333" lon="-2.30867">
        <ele>1109</ele>
        <time>2014-08-24T10:27:02.49</time>
      </trkpt>
      <trkpt lat="38.27232" lon="-2.3085633333333333">
        <ele>1109</ele>
        <time>2014-08-24T10:27:03.49</time>
      </trkpt>
      <trkpt lat="38.27234" lon="-2.30846">
        <ele>1109</ele>
        <time>2014-08-24T10:27:04.50</time>
      </trkpt>
      <trkpt lat="38.27235" lon="-2.30836">
        <ele>1108</ele>
        <time>2014-08-24T10:27:05.49</time>
      </trkpt>
      <trkpt lat="38.272365" lon="-2.308255">
        <ele>1108</ele>
        <time>2014-08-24T10:27:06.49</time>
      </trkpt>
      <trkpt lat="38.27242" lon="-2.308145">
        <ele>1108</ele>
        <time>2014-08-24T10:27:07.49</time>
      </trkpt>
      <trkpt lat="38.272455" lon="-2.308035">
        <ele>1109</ele>
        <time>2014-08-24T10:27:08.49</time>
      </trkpt>
      <trkpt lat="38.272485" lon="-2.30792">
        <ele>1109</ele>
        <time>2014-08-24T10:27:09.51</time>
      </trkpt>
      <trkpt lat="38.27248" lon="-2.307805">
        <ele>1108</ele>
        <time>2014-08-24T10:27:10.43</time>
      </trkpt>
      <trkpt lat="38.27247" lon="-2.3077">
        <ele>1107</ele>
        <time>2014-08-24T10:27:11.43</time>
      </trkpt>
      <trkpt lat="38.27249" lon="-2.3075900000000003">
        <ele>1107</ele>
        <time>2014-08-24T10:27:12.49</time>
      </trkpt>
      <trkpt lat="38.2725" lon="-2.307485">
        <ele>1107</ele>
        <time>2014-08-24T10:27:13.48</time>
      </trkpt>
      <trkpt lat="38.27251" lon="-2.3073683333333332">
        <ele>1106</ele>
        <time>2014-08-24T10:27:14.49</time>
      </trkpt>
      <trkpt lat="38.27252" lon="-2.307271666666667">
        <ele>1106</ele>
        <time>2014-08-24T10:27:15.49</time>
      </trkpt>
      <trkpt lat="38.272545" lon="-2.307175">
        <ele>1106</ele>
        <time>2014-08-24T10:27:16.61</time>
      </trkpt>
      <trkpt lat="38.272575" lon="-2.30708">
        <ele>1105</ele>
        <time>2014-08-24T10:27:17.49</time>
      </trkpt>
      <trkpt lat="38.272655" lon="-2.306985">
        <ele>1107</ele>
        <time>2014-08-24T10:27:18.45</time>
      </trkpt>
      <trkpt lat="38.2727" lon="-2.306895">
        <ele>1106</ele>
        <time>2014-08-24T10:27:19.45</time>
      </trkpt>
      <trkpt lat="38.27277" lon="-2.3068049999999998">
        <ele>1106</ele>
        <time>2014-08-24T10:27:20.44</time>
      </trkpt>
      <trkpt lat="38.272835" lon="-2.306715">
        <ele>1106</ele>
        <time>2014-08-24T10:27:21.44</time>
      </trkpt>
      <trkpt lat="38.272905" lon="-2.306626666666667">
        <ele>1106</ele>
        <time>2014-08-24T10:27:22.48</time>
      </trkpt>
      <trkpt lat="38.272975" lon="-2.30654">
        <ele>1106</ele>
        <time>2014-08-24T10:27:23.50</time>
      </trkpt>
      <trkpt lat="38.273025" lon="-2.306445">
        <ele>1106</ele>
        <time>2014-08-24T10:27:24.50</time>
      </trkpt>
      <trkpt lat="38.273105" lon="-2.306355">
        <ele>1106</ele>
        <time>2014-08-24T10:27:25.48</time>
      </trkpt>
      <trkpt lat="38.27317" lon="-2.306265">
        <ele>1106</ele>
        <time>2014-08-24T10:27:26.48</time>
      </trkpt>
      <trkpt lat="38.27324" lon="-2.30617">
        <ele>1106</ele>
        <time>2014-08-24T10:27:27.49</time>
      </trkpt>
      <trkpt lat="38.273305" lon="-2.306075">
        <ele>1105</ele>
        <time>2014-08-24T10:27:28.49</time>
      </trkpt>
      <trkpt lat="38.27336" lon="-2.30598">
        <ele>1105</ele>
        <time>2014-08-24T10:27:29.54</time>
      </trkpt>
      <trkpt lat="38.273425" lon="-2.305885">
        <ele>1104</ele>
        <time>2014-08-24T10:27:30.49</time>
      </trkpt>
      <trkpt lat="38.2735" lon="-2.3058">
        <ele>1105</ele>
        <time>2014-08-24T10:27:31.49</time>
      </trkpt>
      <trkpt lat="38.273555" lon="-2.3057">
        <ele>1105</ele>
        <time>2014-08-24T10:27:32.50</time>
      </trkpt>
      <trkpt lat="38.273615" lon="-2.30561">
        <ele>1105</ele>
        <time>2014-08-24T10:27:33.49</time>
      </trkpt>
      <trkpt lat="38.27368" lon="-2.3055133333333333">
        <ele>1104</ele>
        <time>2014-08-24T10:27:34.49</time>
      </trkpt>
      <trkpt lat="38.27374" lon="-2.305425">
        <ele>1105</ele>
        <time>2014-08-24T10:27:35.49</time>
      </trkpt>
      <trkpt lat="38.27381" lon="-2.305335">
        <ele>1104</ele>
        <time>2014-08-24T10:27:36.49</time>
      </trkpt>
      <trkpt lat="38.273885" lon="-2.305255">
        <ele>1103</ele>
        <time>2014-08-24T10:27:37.49</time>
      </trkpt>
      <trkpt lat="38.273955" lon="-2.305175">
        <ele>1103</ele>
        <time>2014-08-24T10:27:38.49</time>
      </trkpt>
      <trkpt lat="38.27404" lon="-2.3051033333333333">
        <ele>1103</ele>
        <time>2014-08-24T10:27:39.49</time>
      </trkpt>
      <trkpt lat="38.274136666666664" lon="-2.305045">
        <ele>1103</ele>
        <time>2014-08-24T10:27:40.49</time>
      </trkpt>
      <trkpt lat="38.274225" lon="-2.304985">
        <ele>1103</ele>
        <time>2014-08-24T10:27:41.49</time>
      </trkpt>
      <trkpt lat="38.274305" lon="-2.30492">
        <ele>1103</ele>
        <time>2014-08-24T10:27:42.49</time>
      </trkpt>
      <trkpt lat="38.27438" lon="-2.304865">
        <ele>1103</ele>
        <time>2014-08-24T10:27:43.49</time>
      </trkpt>
      <trkpt lat="38.274465" lon="-2.3048">
        <ele>1103</ele>
        <time>2014-08-24T10:27:44.49</time>
      </trkpt>
      <trkpt lat="38.27454" lon="-2.304735">
        <ele>1103</ele>
        <time>2014-08-24T10:27:45.49</time>
      </trkpt>
      <trkpt lat="38.274615" lon="-2.30469">
        <ele>1104</ele>
        <time>2014-08-24T10:27:46.48</time>
      </trkpt>
      <trkpt lat="38.2747" lon="-2.30463">
        <ele>1104</ele>
        <time>2014-08-24T10:27:47.49</time>
      </trkpt>
      <trkpt lat="38.274775" lon="-2.30457">
        <ele>1104</ele>
        <time>2014-08-24T10:27:48.49</time>
      </trkpt>
      <trkpt lat="38.274855" lon="-2.30452">
        <ele>1104</ele>
        <time>2014-08-24T10:27:49.49</time>
      </trkpt>
      <trkpt lat="38.274935" lon="-2.30446">
        <ele>1103</ele>
        <time>2014-08-24T10:27:50.46</time>
      </trkpt>
      <trkpt lat="38.275005" lon="-2.304395">
        <ele>1103</ele>
        <time>2014-08-24T10:27:51.49</time>
      </trkpt>
      <trkpt lat="38.275085" lon="-2.30433">
        <ele>1103</ele>
        <time>2014-08-24T10:27:52.49</time>
      </trkpt>
      <trkpt lat="38.275165" lon="-2.30427">
        <ele>1103</ele>
        <time>2014-08-24T10:27:53.49</time>
      </trkpt>
      <trkpt lat="38.27524" lon="-2.3042066666666665">
        <ele>1103</ele>
        <time>2014-08-24T10:27:54.49</time>
      </trkpt>
      <trkpt lat="38.27532" lon="-2.304145">
        <ele>1102</ele>
        <time>2014-08-24T10:27:55.49</time>
      </trkpt>
      <trkpt lat="38.2754" lon="-2.30409">
        <ele>1103</ele>
        <time>2014-08-24T10:27:56.49</time>
      </trkpt>
      <trkpt lat="38.27548" lon="-2.30402">
        <ele>1102</ele>
        <time>2014-08-24T10:27:57.48</time>
      </trkpt>
      <trkpt lat="38.27556" lon="-2.303955">
        <ele>1102</ele>
        <time>2014-08-24T10:27:58.49</time>
      </trkpt>
      <trkpt lat="38.275635" lon="-2.3039">
        <ele>1101</ele>
        <time>2014-08-24T10:27:59.49</time>
      </trkpt>
      <trkpt lat="38.27571" lon="-2.303835">
        <ele>1102</ele>
        <time>2014-08-24T10:28:00.56</time>
      </trkpt>
      <trkpt lat="38.275785" lon="-2.303776666666667">
        <ele>1102</ele>
        <time>2014-08-24T10:28:01.49</time>
      </trkpt>
      <trkpt lat="38.27586" lon="-2.303715">
        <ele>1101</ele>
        <time>2014-08-24T10:28:02.51</time>
      </trkpt>
      <trkpt lat="38.275935" lon="-2.30366">
        <ele>1101</ele>
        <time>2014-08-24T10:28:03.50</time>
      </trkpt>
      <trkpt lat="38.276" lon="-2.303611666666667">
        <ele>1101</ele>
        <time>2014-08-24T10:28:04.49</time>
      </trkpt>
      <trkpt lat="38.27611" lon="-2.303525">
        <ele>1100</ele>
        <time>2014-08-24T10:28:06.48</time>
      </trkpt>
      <trkpt lat="38.27623" lon="-2.30346">
        <ele>1098</ele>
        <time>2014-08-24T10:28:08.49</time>
      </trkpt>
      <trkpt lat="38.276355" lon="-2.3034033333333332">
        <ele>1096</ele>
        <time>2014-08-24T10:28:10.44</time>
      </trkpt>
      <trkpt lat="38.276495" lon="-2.3033783333333333">
        <ele>1097</ele>
        <time>2014-08-24T10:28:12.49</time>
      </trkpt>
      <trkpt lat="38.27662" lon="-2.303355">
        <ele>1096</ele>
        <time>2014-08-24T10:28:14.49</time>
      </trkpt>
      <trkpt lat="38.276755" lon="-2.30333">
        <ele>1098</ele>
        <time>2014-08-24T10:28:16.49</time>
      </trkpt>
      <trkpt lat="38.27688" lon="-2.303295">
        <ele>1097</ele>
        <time>2014-08-24T10:28:18.49</time>
      </trkpt>
      <trkpt lat="38.27695" lon="-2.303275">
        <ele>1097</ele>
        <time>2014-08-24T10:28:19.49</time>
      </trkpt>
      <trkpt lat="38.277075" lon="-2.3032216666666665">
        <ele>1098</ele>
        <time>2014-08-24T10:28:21.48</time>
      </trkpt>
      <trkpt lat="38.27721" lon="-2.30316">
        <ele>1099</ele>
        <time>2014-08-24T10:28:23.49</time>
      </trkpt>
      <trkpt lat="38.27733" lon="-2.30309">
        <ele>1099</ele>
        <time>2014-08-24T10:28:25.57</time>
      </trkpt>
      <trkpt lat="38.277455" lon="-2.303025">
        <ele>1101</ele>
        <time>2014-08-24T10:28:27.49</time>
      </trkpt>
      <trkpt lat="38.27757" lon="-2.30295">
        <ele>1102</ele>
        <time>2014-08-24T10:28:29.48</time>
      </trkpt>
      <trkpt lat="38.277695" lon="-2.30287">
        <ele>1104</ele>
        <time>2014-08-24T10:28:31.50</time>
      </trkpt>
      <trkpt lat="38.27779" lon="-2.302765">
        <ele>1103</ele>
        <time>2014-08-24T10:28:33.49</time>
      </trkpt>
      <trkpt lat="38.277895" lon="-2.302675">
        <ele>1102</ele>
        <time>2014-08-24T10:28:35.49</time>
      </trkpt>
      <trkpt lat="38.277985" lon="-2.302575">
        <ele>1101</ele>
        <time>2014-08-24T10:28:37.56</time>
      </trkpt>
      <trkpt lat="38.278085" lon="-2.302485">
        <ele>1101</ele>
        <time>2014-08-24T10:28:39.51</time>
      </trkpt>
      <trkpt lat="38.278185" lon="-2.302385">
        <ele>1103</ele>
        <time>2014-08-24T10:28:41.49</time>
      </trkpt>
      <trkpt lat="38.27827" lon="-2.302275">
        <ele>1103</ele>
        <time>2014-08-24T10:28:43.49</time>
      </trkpt>
      <trkpt lat="38.27835" lon="-2.302155">
        <ele>1103</ele>
        <time>2014-08-24T10:28:45.49</time>
      </trkpt>
      <trkpt lat="38.278435" lon="-2.30206">
        <ele>1103</ele>
        <time>2014-08-24T10:28:47.49</time>
      </trkpt>
      <trkpt lat="38.278525" lon="-2.3019683333333334">
        <ele>1103</ele>
        <time>2014-08-24T10:28:49.51</time>
      </trkpt>
      <trkpt lat="38.27861" lon="-2.30187">
        <ele>1103</ele>
        <time>2014-08-24T10:28:51.50</time>
      </trkpt>
      <trkpt lat="38.278715" lon="-2.3017950000000003">
        <ele>1103</ele>
        <time>2014-08-24T10:28:53.49</time>
      </trkpt>
      <trkpt lat="38.27881" lon="-2.3017250000000002">
        <ele>1102</ele>
        <time>2014-08-24T10:28:55.49</time>
      </trkpt>
      <trkpt lat="38.27893" lon="-2.301665">
        <ele>1102</ele>
        <time>2014-08-24T10:28:57.49</time>
      </trkpt>
      <trkpt lat="38.27904" lon="-2.3016016666666665">
        <ele>1102</ele>
        <time>2014-08-24T10:28:59.49</time>
      </trkpt>
      <trkpt lat="38.27916" lon="-2.3015499999999998">
        <ele>1103</ele>
        <time>2014-08-24T10:29:01.49</time>
      </trkpt>
      <trkpt lat="38.27927" lon="-2.301476666666667">
        <ele>1103</ele>
        <time>2014-08-24T10:29:03.49</time>
      </trkpt>
      <trkpt lat="38.27938" lon="-2.3014099999999997">
        <ele>1101</ele>
        <time>2014-08-24T10:29:05.49</time>
      </trkpt>
      <trkpt lat="38.27948" lon="-2.30133">
        <ele>1102</ele>
        <time>2014-08-24T10:29:07.49</time>
      </trkpt>
      <trkpt lat="38.27956" lon="-2.301225">
        <ele>1103</ele>
        <time>2014-08-24T10:29:09.49</time>
      </trkpt>
      <trkpt lat="38.279635" lon="-2.301101666666667">
        <ele>1105</ele>
        <time>2014-08-24T10:29:11.48</time>
      </trkpt>
      <trkpt lat="38.27969" lon="-2.30096">
        <ele>1103</ele>
        <time>2014-08-24T10:29:13.52</time>
      </trkpt>
      <trkpt lat="38.27975" lon="-2.30082">
        <ele>1104</ele>
        <time>2014-08-24T10:29:15.50</time>
      </trkpt>
      <trkpt lat="38.279815" lon="-2.300695">
        <ele>1105</ele>
        <time>2014-08-24T10:29:17.49</time>
      </trkpt>
      <trkpt lat="38.27987" lon="-2.30056">
        <ele>1105</ele>
        <time>2014-08-24T10:29:19.48</time>
      </trkpt>
      <trkpt lat="38.27993" lon="-2.30043">
        <ele>1107</ele>
        <time>2014-08-24T10:29:21.49</time>
      </trkpt>
      <trkpt lat="38.279995" lon="-2.300295">
        <ele>1108</ele>
        <time>2014-08-24T10:29:23.49</time>
      </trkpt>
      <trkpt lat="38.28007" lon="-2.3001716666666665">
        <ele>1109</ele>
        <time>2014-08-24T10:29:25.49</time>
      </trkpt>
      <trkpt lat="38.28014" lon="-2.300065">
        <ele>1109</ele>
        <time>2014-08-24T10:29:27.49</time>
      </trkpt>
      <trkpt lat="38.280225" lon="-2.29996">
        <ele>1109</ele>
        <time>2014-08-24T10:29:29.49</time>
      </trkpt>
      <trkpt lat="38.280335" lon="-2.299915">
        <ele>1106</ele>
        <time>2014-08-24T10:29:31.49</time>
      </trkpt>
      <trkpt lat="38.28044" lon="-2.2999">
        <ele>1106</ele>
        <time>2014-08-24T10:29:33.48</time>
      </trkpt>
      <trkpt lat="38.280555" lon="-2.29996">
        <ele>1106</ele>
        <time>2014-08-24T10:29:35.49</time>
      </trkpt>
      <trkpt lat="38.280645" lon="-2.300045">
        <ele>1105</ele>
        <time>2014-08-24T10:29:37.49</time>
      </trkpt>
      <trkpt lat="38.28074" lon="-2.30017">
        <ele>1105</ele>
        <time>2014-08-24T10:29:39.49</time>
      </trkpt>
      <trkpt lat="38.280825" lon="-2.30029">
        <ele>1105</ele>
        <time>2014-08-24T10:29:41.68</time>
      </trkpt>
      <trkpt lat="38.28087" lon="-2.30036">
        <ele>1105</ele>
        <time>2014-08-24T10:29:42.51</time>
      </trkpt>
      <trkpt lat="38.280925" lon="-2.3004350000000002">
        <ele>1106</ele>
        <time>2014-08-24T10:29:43.49</time>
      </trkpt>
      <trkpt lat="38.28097" lon="-2.300515">
        <ele>1105</ele>
        <time>2014-08-24T10:29:44.49</time>
      </trkpt>
      <trkpt lat="38.281016666666666" lon="-2.30059">
        <ele>1105</ele>
        <time>2014-08-24T10:29:45.49</time>
      </trkpt>
      <trkpt lat="38.28107" lon="-2.30067">
        <ele>1105</ele>
        <time>2014-08-24T10:29:46.48</time>
      </trkpt>
      <trkpt lat="38.28113" lon="-2.30075">
        <ele>1104</ele>
        <time>2014-08-24T10:29:47.49</time>
      </trkpt>
      <trkpt lat="38.281171666666665" lon="-2.300825">
        <ele>1105</ele>
        <time>2014-08-24T10:29:48.48</time>
      </trkpt>
      <trkpt lat="38.28123" lon="-2.30091">
        <ele>1105</ele>
        <time>2014-08-24T10:29:49.48</time>
      </trkpt>
      <trkpt lat="38.28128" lon="-2.300981666666667">
        <ele>1104</ele>
        <time>2014-08-24T10:29:50.48</time>
      </trkpt>
      <trkpt lat="38.281325" lon="-2.30106">
        <ele>1104</ele>
        <time>2014-08-24T10:29:51.52</time>
      </trkpt>
      <trkpt lat="38.28138" lon="-2.301135">
        <ele>1104</ele>
        <time>2014-08-24T10:29:52.69</time>
      </trkpt>
      <trkpt lat="38.28143" lon="-2.301215">
        <ele>1104</ele>
        <time>2014-08-24T10:29:53.52</time>
      </trkpt>
      <trkpt lat="38.28147833333333" lon="-2.301285">
        <ele>1104</ele>
        <time>2014-08-24T10:29:54.51</time>
      </trkpt>
      <trkpt lat="38.281551666666665" lon="-2.301405">
        <ele>1103</ele>
        <time>2014-08-24T10:29:56.48</time>
      </trkpt>
      <trkpt lat="38.28162" lon="-2.30151">
        <ele>1103</ele>
        <time>2014-08-24T10:29:58.49</time>
      </trkpt>
      <trkpt lat="38.28169" lon="-2.301615">
        <ele>1102</ele>
        <time>2014-08-24T10:30:00.49</time>
      </trkpt>
      <trkpt lat="38.281755" lon="-2.3017250000000002">
        <ele>1102</ele>
        <time>2014-08-24T10:30:02.49</time>
      </trkpt>
      <trkpt lat="38.28183" lon="-2.30182">
        <ele>1101</ele>
        <time>2014-08-24T10:30:04.49</time>
      </trkpt>
      <trkpt lat="38.28192" lon="-2.301915">
        <ele>1102</ele>
        <time>2014-08-24T10:30:06.49</time>
      </trkpt>
      <trkpt lat="38.28201833333333" lon="-2.3019666666666665">
        <ele>1101</ele>
        <time>2014-08-24T10:30:08.48</time>
      </trkpt>
      <trkpt lat="38.282151666666664" lon="-2.301965">
        <ele>1100</ele>
        <time>2014-08-24T10:30:10.43</time>
      </trkpt>
      <trkpt lat="38.28228" lon="-2.30187">
        <ele>1098</ele>
        <time>2014-08-24T10:30:12.43</time>
      </trkpt>
      <trkpt lat="38.28233" lon="-2.3018">
        <ele>1097</ele>
        <time>2014-08-24T10:30:13.48</time>
      </trkpt>
      <trkpt lat="38.282375" lon="-2.3017133333333333">
        <ele>1096</ele>
        <time>2014-08-24T10:30:14.48</time>
      </trkpt>
      <trkpt lat="38.28239833333333" lon="-2.301616666666667">
        <ele>1095</ele>
        <time>2014-08-24T10:30:15.48</time>
      </trkpt>
      <trkpt lat="38.282405" lon="-2.30151">
        <ele>1093</ele>
        <time>2014-08-24T10:30:16.61</time>
      </trkpt>
      <trkpt lat="38.28238" lon="-2.3014200000000002">
        <ele>1092</ele>
        <time>2014-08-24T10:30:17.49</time>
      </trkpt>
      <trkpt lat="38.28235" lon="-2.301325">
        <ele>1092</ele>
        <time>2014-08-24T10:30:18.49</time>
      </trkpt>
      <trkpt lat="38.28232" lon="-2.30123">
        <ele>1092</ele>
        <time>2014-08-24T10:30:19.49</time>
      </trkpt>
      <trkpt lat="38.28229" lon="-2.30113">
        <ele>1091</ele>
        <time>2014-08-24T10:30:20.49</time>
      </trkpt>
      <trkpt lat="38.282255" lon="-2.301035">
        <ele>1090</ele>
        <time>2014-08-24T10:30:21.48</time>
      </trkpt>
      <trkpt lat="38.28222" lon="-2.300935">
        <ele>1090</ele>
        <time>2014-08-24T10:30:22.48</time>
      </trkpt>
      <trkpt lat="38.28219" lon="-2.30085">
        <ele>1090</ele>
        <time>2014-08-24T10:30:23.48</time>
      </trkpt>
      <trkpt lat="38.282155" lon="-2.300755">
        <ele>1088</ele>
        <time>2014-08-24T10:30:24.49</time>
      </trkpt>
      <trkpt lat="38.28213" lon="-2.300655">
        <ele>1088</ele>
        <time>2014-08-24T10:30:25.49</time>
      </trkpt>
      <trkpt lat="38.282105" lon="-2.30057">
        <ele>1087</ele>
        <time>2014-08-24T10:30:26.49</time>
      </trkpt>
      <trkpt lat="38.28208166666667" lon="-2.300475">
        <ele>1086</ele>
        <time>2014-08-24T10:30:27.49</time>
      </trkpt>
      <trkpt lat="38.28208" lon="-2.300305">
        <ele>1084</ele>
        <time>2014-08-24T10:30:29.49</time>
      </trkpt>
      <trkpt lat="38.282156666666666" lon="-2.30015">
        <ele>1083</ele>
        <time>2014-08-24T10:30:31.49</time>
      </trkpt>
      <trkpt lat="38.28229" lon="-2.300075">
        <ele>1082</ele>
        <time>2014-08-24T10:30:33.51</time>
      </trkpt>
      <trkpt lat="38.28242" lon="-2.30009">
        <ele>1081</ele>
        <time>2014-08-24T10:30:35.49</time>
      </trkpt>
      <trkpt lat="38.282536666666665" lon="-2.300165">
        <ele>1081</ele>
        <time>2014-08-24T10:30:37.49</time>
      </trkpt>
      <trkpt lat="38.282606666666666" lon="-2.300305">
        <ele>1080</ele>
        <time>2014-08-24T10:30:39.51</time>
      </trkpt>
      <trkpt lat="38.282635" lon="-2.30039">
        <ele>1080</ele>
        <time>2014-08-24T10:30:40.48</time>
      </trkpt>
      <trkpt lat="38.28268833333333" lon="-2.30056">
        <ele>1080</ele>
        <time>2014-08-24T10:30:42.49</time>
      </trkpt>
      <trkpt lat="38.282715" lon="-2.30066">
        <ele>1079</ele>
        <time>2014-08-24T10:30:43.49</time>
      </trkpt>
      <trkpt lat="38.28274" lon="-2.300745">
        <ele>1079</ele>
        <time>2014-08-24T10:30:44.49</time>
      </trkpt>
      <trkpt lat="38.282761666666666" lon="-2.30083">
        <ele>1079</ele>
        <time>2014-08-24T10:30:45.50</time>
      </trkpt>
      <trkpt lat="38.282795" lon="-2.30092">
        <ele>1079</ele>
        <time>2014-08-24T10:30:46.49</time>
      </trkpt>
      <trkpt lat="38.282815" lon="-2.301015">
        <ele>1078</ele>
        <time>2014-08-24T10:30:47.49</time>
      </trkpt>
      <trkpt lat="38.28284" lon="-2.30111">
        <ele>1077</ele>
        <time>2014-08-24T10:30:48.48</time>
      </trkpt>
      <trkpt lat="38.282865" lon="-2.301195">
        <ele>1077</ele>
        <time>2014-08-24T10:30:49.48</time>
      </trkpt>
      <trkpt lat="38.28289" lon="-2.301285">
        <ele>1077</ele>
        <time>2014-08-24T10:30:50.44</time>
      </trkpt>
      <trkpt lat="38.28291333333333" lon="-2.30138">
        <ele>1077</ele>
        <time>2014-08-24T10:30:51.43</time>
      </trkpt>
      <trkpt lat="38.28294" lon="-2.30147">
        <ele>1076</ele>
        <time>2014-08-24T10:30:52.43</time>
      </trkpt>
      <trkpt lat="38.28298" lon="-2.3015499999999998">
        <ele>1076</ele>
        <time>2014-08-24T10:30:53.53</time>
      </trkpt>
      <trkpt lat="38.283025" lon="-2.301625">
        <ele>1076</ele>
        <time>2014-08-24T10:30:54.50</time>
      </trkpt>
      <trkpt lat="38.28308" lon="-2.301685">
        <ele>1075</ele>
        <time>2014-08-24T10:30:55.49</time>
      </trkpt>
      <trkpt lat="38.28314" lon="-2.301735">
        <ele>1075</ele>
        <time>2014-08-24T10:30:56.62</time>
      </trkpt>
      <trkpt lat="38.28321" lon="-2.30178">
        <ele>1075</ele>
        <time>2014-08-24T10:30:57.48</time>
      </trkpt>
      <trkpt lat="38.28328" lon="-2.301825">
        <ele>1074</ele>
        <time>2014-08-24T10:30:58.48</time>
      </trkpt>
      <trkpt lat="38.28335" lon="-2.30186">
        <ele>1073</ele>
        <time>2014-08-24T10:30:59.49</time>
      </trkpt>
      <trkpt lat="38.283425" lon="-2.301895">
        <ele>1072</ele>
        <time>2014-08-24T10:31:00.49</time>
      </trkpt>
      <trkpt lat="38.283505" lon="-2.3019249999999998">
        <ele>1071</ele>
        <time>2014-08-24T10:31:01.49</time>
      </trkpt>
      <trkpt lat="38.283591666666666" lon="-2.301945">
        <ele>1071</ele>
        <time>2014-08-24T10:31:02.64</time>
      </trkpt>
      <trkpt lat="38.283685" lon="-2.30195">
        <ele>1071</ele>
        <time>2014-08-24T10:31:03.48</time>
      </trkpt>
      <trkpt lat="38.28378" lon="-2.30194">
        <ele>1071</ele>
        <time>2014-08-24T10:31:04.52</time>
      </trkpt>
      <trkpt lat="38.283875" lon="-2.301905">
        <ele>1070</ele>
        <time>2014-08-24T10:31:05.48</time>
      </trkpt>
      <trkpt lat="38.28397" lon="-2.301865">
        <ele>1070</ele>
        <time>2014-08-24T10:31:06.49</time>
      </trkpt>
      <trkpt lat="38.28407" lon="-2.30182">
        <ele>1071</ele>
        <time>2014-08-24T10:31:07.49</time>
      </trkpt>
      <trkpt lat="38.28417" lon="-2.30176">
        <ele>1070</ele>
        <time>2014-08-24T10:31:08.61</time>
      </trkpt>
      <trkpt lat="38.284265" lon="-2.30169">
        <ele>1069</ele>
        <time>2014-08-24T10:31:09.52</time>
      </trkpt>
      <trkpt lat="38.28436" lon="-2.301615">
        <ele>1069</ele>
        <time>2014-08-24T10:31:10.43</time>
      </trkpt>
      <trkpt lat="38.28445" lon="-2.30151">
        <ele>1068</ele>
        <time>2014-08-24T10:31:11.49</time>
      </trkpt>
      <trkpt lat="38.284545" lon="-2.301395">
        <ele>1063</ele>
        <time>2014-08-24T10:31:12.49</time>
      </trkpt>
      <trkpt lat="38.28462" lon="-2.301265">
        <ele>1062</ele>
        <time>2014-08-24T10:31:13.49</time>
      </trkpt>
      <trkpt lat="38.284685" lon="-2.30112">
        <ele>1061</ele>
        <time>2014-08-24T10:31:14.49</time>
      </trkpt>
      <trkpt lat="38.284755" lon="-2.30098">
        <ele>1060</ele>
        <time>2014-08-24T10:31:15.49</time>
      </trkpt>
      <trkpt lat="38.28481" lon="-2.300835">
        <ele>1059</ele>
        <time>2014-08-24T10:31:16.49</time>
      </trkpt>
      <trkpt lat="38.284875" lon="-2.300685">
        <ele>1059</ele>
        <time>2014-08-24T10:31:17.48</time>
      </trkpt>
      <trkpt lat="38.284935" lon="-2.30053">
        <ele>1059</ele>
        <time>2014-08-24T10:31:18.49</time>
      </trkpt>
      <trkpt lat="38.285025" lon="-2.300395">
        <ele>1057</ele>
        <time>2014-08-24T10:31:19.49</time>
      </trkpt>
      <trkpt lat="38.285106666666664" lon="-2.30025">
        <ele>1055</ele>
        <time>2014-08-24T10:31:20.49</time>
      </trkpt>
      <trkpt lat="38.285195" lon="-2.3001">
        <ele>1055</ele>
        <time>2014-08-24T10:31:21.49</time>
      </trkpt>
      <trkpt lat="38.28529" lon="-2.2999650000000003">
        <ele>1054</ele>
        <time>2014-08-24T10:31:22.49</time>
      </trkpt>
      <trkpt lat="38.28539" lon="-2.299835">
        <ele>1052</ele>
        <time>2014-08-24T10:31:23.48</time>
      </trkpt>
      <trkpt lat="38.28550666666667" lon="-2.299725">
        <ele>1051</ele>
        <time>2014-08-24T10:31:24.49</time>
      </trkpt>
      <trkpt lat="38.28562" lon="-2.299625">
        <ele>1051</ele>
        <time>2014-08-24T10:31:25.49</time>
      </trkpt>
      <trkpt lat="38.285765" lon="-2.299545">
        <ele>1051</ele>
        <time>2014-08-24T10:31:26.50</time>
      </trkpt>
      <trkpt lat="38.28586" lon="-2.299455">
        <ele>1049</ele>
        <time>2014-08-24T10:31:27.49</time>
      </trkpt>
      <trkpt lat="38.285995" lon="-2.29943">
        <ele>1047</ele>
        <time>2014-08-24T10:31:28.49</time>
      </trkpt>
      <trkpt lat="38.28614" lon="-2.29935">
        <ele>1046</ele>
        <time>2014-08-24T10:31:29.48</time>
      </trkpt>
      <trkpt lat="38.286265" lon="-2.299255">
        <ele>1046</ele>
        <time>2014-08-24T10:31:30.48</time>
      </trkpt>
      <trkpt lat="38.2864" lon="-2.299165">
        <ele>1047</ele>
        <time>2014-08-24T10:31:31.48</time>
      </trkpt>
      <trkpt lat="38.28653" lon="-2.299055">
        <ele>1046</ele>
        <time>2014-08-24T10:31:32.49</time>
      </trkpt>
      <trkpt lat="38.28665" lon="-2.298935">
        <ele>1046</ele>
        <time>2014-08-24T10:31:33.49</time>
      </trkpt>
      <trkpt lat="38.2868" lon="-2.29885">
        <ele>1045</ele>
        <time>2014-08-24T10:31:34.55</time>
      </trkpt>
      <trkpt lat="38.286925" lon="-2.29875">
        <ele>1045</ele>
        <time>2014-08-24T10:31:35.51</time>
      </trkpt>
      <trkpt lat="38.28706" lon="-2.298655">
        <ele>1044</ele>
        <time>2014-08-24T10:31:36.49</time>
      </trkpt>
      <trkpt lat="38.287205" lon="-2.298575">
        <ele>1044</ele>
        <time>2014-08-24T10:31:37.48</time>
      </trkpt>
      <trkpt lat="38.28735" lon="-2.298485">
        <ele>1042</ele>
        <time>2014-08-24T10:31:38.49</time>
      </trkpt>
      <trkpt lat="38.287495" lon="-2.2983933333333333">
        <ele>1040</ele>
        <time>2014-08-24T10:31:39.48</time>
      </trkpt>
      <trkpt lat="38.28761" lon="-2.298285">
        <ele>1040</ele>
        <time>2014-08-24T10:31:40.49</time>
      </trkpt>
      <trkpt lat="38.28775" lon="-2.2982016666666665">
        <ele>1039</ele>
        <time>2014-08-24T10:31:41.49</time>
      </trkpt>
      <trkpt lat="38.2879" lon="-2.2981133333333332">
        <ele>1036</ele>
        <time>2014-08-24T10:31:42.49</time>
      </trkpt>
      <trkpt lat="38.28804" lon="-2.298026666666667">
        <ele>1035</ele>
        <time>2014-08-24T10:31:43.62</time>
      </trkpt>
      <trkpt lat="38.28818" lon="-2.297955">
        <ele>1034</ele>
        <time>2014-08-24T10:31:44.49</time>
      </trkpt>
      <trkpt lat="38.28832" lon="-2.29787">
        <ele>1035</ele>
        <time>2014-08-24T10:31:45.49</time>
      </trkpt>
      <trkpt lat="38.28844" lon="-2.29777">
        <ele>1034</ele>
        <time>2014-08-24T10:31:46.50</time>
      </trkpt>
      <trkpt lat="38.288565" lon="-2.297675">
        <ele>1032</ele>
        <time>2014-08-24T10:31:47.49</time>
      </trkpt>
      <trkpt lat="38.28868" lon="-2.2975666666666665">
        <ele>1032</ele>
        <time>2014-08-24T10:31:48.49</time>
      </trkpt>
      <trkpt lat="38.288795" lon="-2.29746">
        <ele>1028</ele>
        <time>2014-08-24T10:31:49.50</time>
      </trkpt>
      <trkpt lat="38.28891" lon="-2.297345">
        <ele>1025</ele>
        <time>2014-08-24T10:31:50.49</time>
      </trkpt>
      <trkpt lat="38.289025" lon="-2.297245">
        <ele>1024</ele>
        <time>2014-08-24T10:31:51.48</time>
      </trkpt>
      <trkpt lat="38.28912" lon="-2.29712">
        <ele>1022</ele>
        <time>2014-08-24T10:31:52.49</time>
      </trkpt>
      <trkpt lat="38.28923" lon="-2.297005">
        <ele>1020</ele>
        <time>2014-08-24T10:31:53.49</time>
      </trkpt>
      <trkpt lat="38.289345" lon="-2.2969033333333333">
        <ele>1019</ele>
        <time>2014-08-24T10:31:54.49</time>
      </trkpt>
      <trkpt lat="38.28947" lon="-2.29681">
        <ele>1017</ele>
        <time>2014-08-24T10:31:55.49</time>
      </trkpt>
      <trkpt lat="38.289605" lon="-2.29673">
        <ele>1016</ele>
        <time>2014-08-24T10:31:56.49</time>
      </trkpt>
      <trkpt lat="38.289735" lon="-2.29666">
        <ele>1015</ele>
        <time>2014-08-24T10:31:57.58</time>
      </trkpt>
      <trkpt lat="38.28987" lon="-2.296605">
        <ele>1015</ele>
        <time>2014-08-24T10:31:58.43</time>
      </trkpt>
      <trkpt lat="38.28999" lon="-2.296545">
        <ele>1011</ele>
        <time>2014-08-24T10:31:59.42</time>
      </trkpt>
      <trkpt lat="38.29013" lon="-2.2964933333333333">
        <ele>1011</ele>
        <time>2014-08-24T10:32:00.48</time>
      </trkpt>
      <trkpt lat="38.290263333333336" lon="-2.29644">
        <ele>1010</ele>
        <time>2014-08-24T10:32:01.48</time>
      </trkpt>
      <trkpt lat="38.290395" lon="-2.296375">
        <ele>1010</ele>
        <time>2014-08-24T10:32:02.48</time>
      </trkpt>
      <trkpt lat="38.29051" lon="-2.296275">
        <ele>1010</ele>
        <time>2014-08-24T10:32:03.48</time>
      </trkpt>
      <trkpt lat="38.290615" lon="-2.29618">
        <ele>1009</ele>
        <time>2014-08-24T10:32:04.48</time>
      </trkpt>
      <trkpt lat="38.29072" lon="-2.29609">
        <ele>1009</ele>
        <time>2014-08-24T10:32:05.51</time>
      </trkpt>
      <trkpt lat="38.290825" lon="-2.295995">
        <ele>1008</ele>
        <time>2014-08-24T10:32:06.48</time>
      </trkpt>
      <trkpt lat="38.29094" lon="-2.29591">
        <ele>1009</ele>
        <time>2014-08-24T10:32:07.49</time>
      </trkpt>
      <trkpt lat="38.29105" lon="-2.29584">
        <ele>1009</ele>
        <time>2014-08-24T10:32:08.48</time>
      </trkpt>
      <trkpt lat="38.29115" lon="-2.2957549999999998">
        <ele>1009</ele>
        <time>2014-08-24T10:32:09.48</time>
      </trkpt>
      <trkpt lat="38.29124" lon="-2.295665">
        <ele>1005</ele>
        <time>2014-08-24T10:32:10.43</time>
      </trkpt>
      <trkpt lat="38.29133" lon="-2.295595">
        <ele>1003</ele>
        <time>2014-08-24T10:32:11.48</time>
      </trkpt>
      <trkpt lat="38.29144" lon="-2.29555">
        <ele>1002</ele>
        <time>2014-08-24T10:32:12.48</time>
      </trkpt>
      <trkpt lat="38.29155" lon="-2.295516666666667">
        <ele>1002</ele>
        <time>2014-08-24T10:32:13.49</time>
      </trkpt>
      <trkpt lat="38.291665" lon="-2.2955033333333335">
        <ele>1001</ele>
        <time>2014-08-24T10:32:14.48</time>
      </trkpt>
      <trkpt lat="38.291775" lon="-2.2955">
        <ele>1001</ele>
        <time>2014-08-24T10:32:15.48</time>
      </trkpt>
      <trkpt lat="38.29188" lon="-2.2955">
        <ele>1002</ele>
        <time>2014-08-24T10:32:16.48</time>
      </trkpt>
      <trkpt lat="38.291985" lon="-2.2955">
        <ele>1002</ele>
        <time>2014-08-24T10:32:17.50</time>
      </trkpt>
      <trkpt lat="38.29209" lon="-2.2955033333333335">
        <ele>1002</ele>
        <time>2014-08-24T10:32:18.48</time>
      </trkpt>
      <trkpt lat="38.29219" lon="-2.295525">
        <ele>1002</ele>
        <time>2014-08-24T10:32:19.48</time>
      </trkpt>
      <trkpt lat="38.292285" lon="-2.29556">
        <ele>1003</ele>
        <time>2014-08-24T10:32:20.48</time>
      </trkpt>
      <trkpt lat="38.292375" lon="-2.295595">
        <ele>1005</ele>
        <time>2014-08-24T10:32:21.48</time>
      </trkpt>
      <trkpt lat="38.292455" lon="-2.29564">
        <ele>1005</ele>
        <time>2014-08-24T10:32:22.49</time>
      </trkpt>
      <trkpt lat="38.292535" lon="-2.29568">
        <ele>1005</ele>
        <time>2014-08-24T10:32:23.48</time>
      </trkpt>
      <trkpt lat="38.292605" lon="-2.29571">
        <ele>1005</ele>
        <time>2014-08-24T10:32:24.48</time>
      </trkpt>
      <trkpt lat="38.29267" lon="-2.29575">
        <ele>1005</ele>
        <time>2014-08-24T10:32:25.48</time>
      </trkpt>
      <trkpt lat="38.292735" lon="-2.2957883333333333">
        <ele>1006</ele>
        <time>2014-08-24T10:32:26.42</time>
      </trkpt>
      <trkpt lat="38.29286" lon="-2.2958600000000002">
        <ele>1007</ele>
        <time>2014-08-24T10:32:28.48</time>
      </trkpt>
      <trkpt lat="38.292965" lon="-2.295925">
        <ele>1008</ele>
        <time>2014-08-24T10:32:30.47</time>
      </trkpt>
      <trkpt lat="38.29306" lon="-2.295985">
        <ele>1009</ele>
        <time>2014-08-24T10:32:32.43</time>
      </trkpt>
      <trkpt lat="38.293155" lon="-2.29604">
        <ele>1010</ele>
        <time>2014-08-24T10:32:34.51</time>
      </trkpt>
      <trkpt lat="38.293245" lon="-2.2961650000000002">
        <ele>1012</ele>
        <time>2014-08-24T10:32:35.61</time>
      </trkpt>
      <trkpt lat="38.29332" lon="-2.296125">
        <ele>1013</ele>
        <time>2014-08-24T10:32:37.48</time>
      </trkpt>
      <trkpt lat="38.293458333333334" lon="-2.296085">
        <ele>1013</ele>
        <time>2014-08-24T10:32:39.48</time>
      </trkpt>
      <trkpt lat="38.293458333333334" lon="-2.29619">
        <ele>1014</ele>
        <time>2014-08-24T10:32:41.48</time>
      </trkpt>
      <trkpt lat="38.293528333333335" lon="-2.2962333333333333">
        <ele>1013</ele>
        <time>2014-08-24T10:32:45.48</time>
      </trkpt>
      <trkpt lat="38.293605" lon="-2.29629">
        <ele>1012</ele>
        <time>2014-08-24T10:32:48.48</time>
      </trkpt>
      <trkpt lat="38.293695" lon="-2.29634">
        <ele>1012</ele>
        <time>2014-08-24T10:32:51.48</time>
      </trkpt>
      <trkpt lat="38.293785" lon="-2.29639">
        <ele>1011</ele>
        <time>2014-08-24T10:32:54.49</time>
      </trkpt>
      <trkpt lat="38.29388" lon="-2.296445">
        <ele>1012</ele>
        <time>2014-08-24T10:32:57.48</time>
      </trkpt>
      <trkpt lat="38.29397" lon="-2.2965">
        <ele>1014</ele>
        <time>2014-08-24T10:33:00.54</time>
      </trkpt>
      <trkpt lat="38.29406" lon="-2.29655">
        <ele>1015</ele>
        <time>2014-08-24T10:33:03.49</time>
      </trkpt>
      <trkpt lat="38.29414833333333" lon="-2.296575">
        <ele>1017</ele>
        <time>2014-08-24T10:33:06.49</time>
      </trkpt>
      <trkpt lat="38.294245" lon="-2.29658">
        <ele>1018</ele>
        <time>2014-08-24T10:33:09.48</time>
      </trkpt>
      <trkpt lat="38.29435333333333" lon="-2.296575">
        <ele>1017</ele>
        <time>2014-08-24T10:33:12.50</time>
      </trkpt>
      <trkpt lat="38.294425" lon="-2.2965400000000002">
        <ele>1019</ele>
        <time>2014-08-24T10:33:14.52</time>
      </trkpt>
      <trkpt lat="38.294505" lon="-2.2965">
        <ele>1019</ele>
        <time>2014-08-24T10:33:16.54</time>
      </trkpt>
      <trkpt lat="38.294575" lon="-2.29645">
        <ele>1020</ele>
        <time>2014-08-24T10:33:18.54</time>
      </trkpt>
      <trkpt lat="38.29465" lon="-2.2964">
        <ele>1022</ele>
        <time>2014-08-24T10:33:20.53</time>
      </trkpt>
      <trkpt lat="38.294725" lon="-2.29635">
        <ele>1019</ele>
        <time>2014-08-24T10:33:22.49</time>
      </trkpt>
      <trkpt lat="38.294805" lon="-2.2963">
        <ele>1024</ele>
        <time>2014-08-24T10:33:24.48</time>
      </trkpt>
      <trkpt lat="38.29488" lon="-2.296255">
        <ele>1028</ele>
        <time>2014-08-24T10:33:26.47</time>
      </trkpt>
      <trkpt lat="38.29495" lon="-2.2962">
        <ele>1028</ele>
        <time>2014-08-24T10:33:28.48</time>
      </trkpt>
      <trkpt lat="38.295025" lon="-2.296145">
        <ele>1028</ele>
        <time>2014-08-24T10:33:30.48</time>
      </trkpt>
      <trkpt lat="38.29511166666666" lon="-2.29608">
        <ele>1026</ele>
        <time>2014-08-24T10:33:32.48</time>
      </trkpt>
      <trkpt lat="38.295186666666666" lon="-2.296015">
        <ele>1026</ele>
        <time>2014-08-24T10:33:34.48</time>
      </trkpt>
      <trkpt lat="38.295271666666665" lon="-2.29597">
        <ele>1028</ele>
        <time>2014-08-24T10:33:36.48</time>
      </trkpt>
      <trkpt lat="38.29534" lon="-2.2959">
        <ele>1028</ele>
        <time>2014-08-24T10:33:38.48</time>
      </trkpt>
      <trkpt lat="38.295413333333336" lon="-2.295835">
        <ele>1028</ele>
        <time>2014-08-24T10:33:40.48</time>
      </trkpt>
      <trkpt lat="38.29549" lon="-2.2957733333333334">
        <ele>1031</ele>
        <time>2014-08-24T10:33:42.42</time>
      </trkpt>
      <trkpt lat="38.295565" lon="-2.2957083333333332">
        <ele>1031</ele>
        <time>2014-08-24T10:33:44.48</time>
      </trkpt>
      <trkpt lat="38.295635" lon="-2.29565">
        <ele>1029</ele>
        <time>2014-08-24T10:33:46.48</time>
      </trkpt>
      <trkpt lat="38.295705" lon="-2.29559">
        <ele>1030</ele>
        <time>2014-08-24T10:33:48.48</time>
      </trkpt>
      <trkpt lat="38.295775" lon="-2.29553">
        <ele>1029</ele>
        <time>2014-08-24T10:33:50.48</time>
      </trkpt>
      <trkpt lat="38.295865" lon="-2.295465">
        <ele>1029</ele>
        <time>2014-08-24T10:33:52.48</time>
      </trkpt>
      <trkpt lat="38.295955" lon="-2.295405">
        <ele>1029</ele>
        <time>2014-08-24T10:33:54.49</time>
      </trkpt>
      <trkpt lat="38.29604" lon="-2.2953283333333334">
        <ele>1028</ele>
        <time>2014-08-24T10:33:56.48</time>
      </trkpt>
      <trkpt lat="38.296115" lon="-2.2952383333333333">
        <ele>1029</ele>
        <time>2014-08-24T10:33:58.48</time>
      </trkpt>
      <trkpt lat="38.2962" lon="-2.2951533333333334">
        <ele>1030</ele>
        <time>2014-08-24T10:34:00.48</time>
      </trkpt>
      <trkpt lat="38.296305" lon="-2.29507">
        <ele>1028</ele>
        <time>2014-08-24T10:34:02.48</time>
      </trkpt>
      <trkpt lat="38.29641" lon="-2.29499">
        <ele>1029</ele>
        <time>2014-08-24T10:34:04.48</time>
      </trkpt>
      <trkpt lat="38.296545" lon="-2.29492">
        <ele>1029</ele>
        <time>2014-08-24T10:34:06.48</time>
      </trkpt>
      <trkpt lat="38.296675" lon="-2.294835">
        <ele>1030</ele>
        <time>2014-08-24T10:34:08.48</time>
      </trkpt>
      <trkpt lat="38.29674" lon="-2.2947883333333334">
        <ele>1031</ele>
        <time>2014-08-24T10:34:09.48</time>
      </trkpt>
      <trkpt lat="38.29685" lon="-2.294695">
        <ele>1033</ele>
        <time>2014-08-24T10:34:11.47</time>
      </trkpt>
      <trkpt lat="38.296915" lon="-2.29465">
        <ele>1033</ele>
        <time>2014-08-24T10:34:12.47</time>
      </trkpt>
      <trkpt lat="38.296975" lon="-2.294575">
        <ele>1030</ele>
        <time>2014-08-24T10:34:13.48</time>
      </trkpt>
      <trkpt lat="38.29705" lon="-2.2945166666666665">
        <ele>1028</ele>
        <time>2014-08-24T10:34:14.47</time>
      </trkpt>
      <trkpt lat="38.29713" lon="-2.29447">
        <ele>1027</ele>
        <time>2014-08-24T10:34:15.47</time>
      </trkpt>
      <trkpt lat="38.297195" lon="-2.29442">
        <ele>1027</ele>
        <time>2014-08-24T10:34:16.47</time>
      </trkpt>
      <trkpt lat="38.297255" lon="-2.29435">
        <ele>1028</ele>
        <time>2014-08-24T10:34:17.47</time>
      </trkpt>
      <trkpt lat="38.29732" lon="-2.29428">
        <ele>1026</ele>
        <time>2014-08-24T10:34:18.47</time>
      </trkpt>
      <trkpt lat="38.29738" lon="-2.294225">
        <ele>1026</ele>
        <time>2014-08-24T10:34:19.48</time>
      </trkpt>
      <trkpt lat="38.29745" lon="-2.294175">
        <ele>1026</ele>
        <time>2014-08-24T10:34:20.48</time>
      </trkpt>
      <trkpt lat="38.297535" lon="-2.294055">
        <ele>1027</ele>
        <time>2014-08-24T10:34:22.48</time>
      </trkpt>
      <trkpt lat="38.297635" lon="-2.29397">
        <ele>1026</ele>
        <time>2014-08-24T10:34:24.49</time>
      </trkpt>
      <trkpt lat="38.2977" lon="-2.293885">
        <ele>1027</ele>
        <time>2014-08-24T10:34:26.48</time>
      </trkpt>
      <trkpt lat="38.297775" lon="-2.2938183333333333">
        <ele>1028</ele>
        <time>2014-08-24T10:34:28.48</time>
      </trkpt>
      <trkpt lat="38.297865" lon="-2.29378">
        <ele>1027</ele>
        <time>2014-08-24T10:34:30.48</time>
      </trkpt>
      <trkpt lat="38.297945" lon="-2.29374">
        <ele>1027</ele>
        <time>2014-08-24T10:34:32.50</time>
      </trkpt>
      <trkpt lat="38.29802" lon="-2.2937">
        <ele>1027</ele>
        <time>2014-08-24T10:34:34.48</time>
      </trkpt>
      <trkpt lat="38.298095" lon="-2.293675">
        <ele>1027</ele>
        <time>2014-08-24T10:34:36.48</time>
      </trkpt>
      <trkpt lat="38.298175" lon="-2.293655">
        <ele>1026</ele>
        <time>2014-08-24T10:34:38.49</time>
      </trkpt>
      <trkpt lat="38.298255" lon="-2.293625">
        <ele>1025</ele>
        <time>2014-08-24T10:34:40.49</time>
      </trkpt>
      <trkpt lat="38.29833" lon="-2.293595">
        <ele>1024</ele>
        <time>2014-08-24T10:34:42.49</time>
      </trkpt>
      <trkpt lat="38.2984" lon="-2.293565">
        <ele>1026</ele>
        <time>2014-08-24T10:34:44.48</time>
      </trkpt>
      <trkpt lat="38.298465" lon="-2.29353">
        <ele>1027</ele>
        <time>2014-08-24T10:34:46.49</time>
      </trkpt>
      <trkpt lat="38.298535" lon="-2.2934900000000003">
        <ele>1028</ele>
        <time>2014-08-24T10:34:48.49</time>
      </trkpt>
      <trkpt lat="38.298595" lon="-2.2934433333333333">
        <ele>1028</ele>
        <time>2014-08-24T10:34:50.48</time>
      </trkpt>
      <trkpt lat="38.29866" lon="-2.293395">
        <ele>1027</ele>
        <time>2014-08-24T10:34:52.48</time>
      </trkpt>
      <trkpt lat="38.29872" lon="-2.293345">
        <ele>1026</ele>
        <time>2014-08-24T10:34:54.43</time>
      </trkpt>
      <trkpt lat="38.29879" lon="-2.2933">
        <ele>1026</ele>
        <time>2014-08-24T10:34:56.42</time>
      </trkpt>
      <trkpt lat="38.29886" lon="-2.2932550000000003">
        <ele>1028</ele>
        <time>2014-08-24T10:34:58.59</time>
      </trkpt>
      <trkpt lat="38.298925" lon="-2.293215">
        <ele>1029</ele>
        <time>2014-08-24T10:35:00.48</time>
      </trkpt>
      <trkpt lat="38.298995" lon="-2.293171666666667">
        <ele>1029</ele>
        <time>2014-08-24T10:35:02.47</time>
      </trkpt>
      <trkpt lat="38.299065" lon="-2.29314">
        <ele>1029</ele>
        <time>2014-08-24T10:35:04.49</time>
      </trkpt>
      <trkpt lat="38.299128333333336" lon="-2.29311">
        <ele>1029</ele>
        <time>2014-08-24T10:35:06.47</time>
      </trkpt>
      <trkpt lat="38.299205" lon="-2.293085">
        <ele>1029</ele>
        <time>2014-08-24T10:35:08.48</time>
      </trkpt>
      <trkpt lat="38.29928" lon="-2.29307">
        <ele>1032</ele>
        <time>2014-08-24T10:35:10.44</time>
      </trkpt>
      <trkpt lat="38.29936" lon="-2.293055">
        <ele>1032</ele>
        <time>2014-08-24T10:35:12.48</time>
      </trkpt>
      <trkpt lat="38.299435" lon="-2.29305">
        <ele>1033</ele>
        <time>2014-08-24T10:35:14.49</time>
      </trkpt>
      <trkpt lat="38.299515" lon="-2.29303">
        <ele>1035</ele>
        <time>2014-08-24T10:35:16.48</time>
      </trkpt>
      <trkpt lat="38.299591666666664" lon="-2.293015">
        <ele>1036</ele>
        <time>2014-08-24T10:35:18.48</time>
      </trkpt>
      <trkpt lat="38.299675" lon="-2.293005">
        <ele>1037</ele>
        <time>2014-08-24T10:35:20.56</time>
      </trkpt>
      <trkpt lat="38.299746666666664" lon="-2.29299">
        <ele>1036</ele>
        <time>2014-08-24T10:35:22.54</time>
      </trkpt>
      <trkpt lat="38.299825" lon="-2.29298">
        <ele>1037</ele>
        <time>2014-08-24T10:35:24.51</time>
      </trkpt>
      <trkpt lat="38.2999" lon="-2.292975">
        <ele>1037</ele>
        <time>2014-08-24T10:35:26.57</time>
      </trkpt>
      <trkpt lat="38.299973333333334" lon="-2.292965">
        <ele>1038</ele>
        <time>2014-08-24T10:35:28.43</time>
      </trkpt>
      <trkpt lat="38.300055" lon="-2.292965">
        <ele>1040</ele>
        <time>2014-08-24T10:35:30.42</time>
      </trkpt>
      <trkpt lat="38.30013" lon="-2.292955">
        <ele>1040</ele>
        <time>2014-08-24T10:35:32.51</time>
      </trkpt>
      <trkpt lat="38.30021" lon="-2.2929500000000003">
        <ele>1041</ele>
        <time>2014-08-24T10:35:34.48</time>
      </trkpt>
      <trkpt lat="38.30029" lon="-2.292935">
        <ele>1042</ele>
        <time>2014-08-24T10:35:36.46</time>
      </trkpt>
      <trkpt lat="38.300365" lon="-2.29291">
        <ele>1044</ele>
        <time>2014-08-24T10:35:38.48</time>
      </trkpt>
      <trkpt lat="38.300445" lon="-2.2928800000000003">
        <ele>1045</ele>
        <time>2014-08-24T10:35:40.47</time>
      </trkpt>
      <trkpt lat="38.300515" lon="-2.2928333333333333">
        <ele>1045</ele>
        <time>2014-08-24T10:35:42.54</time>
      </trkpt>
      <trkpt lat="38.30059" lon="-2.29277">
        <ele>1043</ele>
        <time>2014-08-24T10:35:44.48</time>
      </trkpt>
      <trkpt lat="38.300655" lon="-2.29267">
        <ele>1043</ele>
        <time>2014-08-24T10:35:46.51</time>
      </trkpt>
      <trkpt lat="38.300725" lon="-2.29259">
        <ele>1042</ele>
        <time>2014-08-24T10:35:48.54</time>
      </trkpt>
      <trkpt lat="38.300785" lon="-2.29251">
        <ele>1043</ele>
        <time>2014-08-24T10:35:50.48</time>
      </trkpt>
      <trkpt lat="38.30085" lon="-2.29242">
        <ele>1043</ele>
        <time>2014-08-24T10:35:52.47</time>
      </trkpt>
      <trkpt lat="38.30092" lon="-2.2923400000000003">
        <ele>1042</ele>
        <time>2014-08-24T10:35:54.48</time>
      </trkpt>
      <trkpt lat="38.300985" lon="-2.292265">
        <ele>1043</ele>
        <time>2014-08-24T10:35:56.47</time>
      </trkpt>
      <trkpt lat="38.30105" lon="-2.292175">
        <ele>1043</ele>
        <time>2014-08-24T10:35:58.47</time>
      </trkpt>
      <trkpt lat="38.30112" lon="-2.2920949999999998">
        <ele>1043</ele>
        <time>2014-08-24T10:36:00.48</time>
      </trkpt>
      <trkpt lat="38.301205" lon="-2.29202">
        <ele>1042</ele>
        <time>2014-08-24T10:36:02.48</time>
      </trkpt>
      <trkpt lat="38.301285" lon="-2.29194">
        <ele>1041</ele>
        <time>2014-08-24T10:36:04.47</time>
      </trkpt>
      <trkpt lat="38.301375" lon="-2.291875">
        <ele>1041</ele>
        <time>2014-08-24T10:36:06.48</time>
      </trkpt>
      <trkpt lat="38.301485" lon="-2.29182">
        <ele>1042</ele>
        <time>2014-08-24T10:36:08.48</time>
      </trkpt>
      <trkpt lat="38.30159" lon="-2.29177">
        <ele>1043</ele>
        <time>2014-08-24T10:36:10.43</time>
      </trkpt>
      <trkpt lat="38.301695" lon="-2.291716666666667">
        <ele>1043</ele>
        <time>2014-08-24T10:36:12.43</time>
      </trkpt>
      <trkpt lat="38.301805" lon="-2.2916733333333332">
        <ele>1042</ele>
        <time>2014-08-24T10:36:14.47</time>
      </trkpt>
      <trkpt lat="38.30193" lon="-2.29167">
        <ele>1042</ele>
        <time>2014-08-24T10:36:16.47</time>
      </trkpt>
      <trkpt lat="38.30206" lon="-2.29167">
        <ele>1042</ele>
        <time>2014-08-24T10:36:18.47</time>
      </trkpt>
      <trkpt lat="38.302195" lon="-2.29167">
        <ele>1041</ele>
        <time>2014-08-24T10:36:20.47</time>
      </trkpt>
      <trkpt lat="38.302335" lon="-2.291665">
        <ele>1038</ele>
        <time>2014-08-24T10:36:22.47</time>
      </trkpt>
      <trkpt lat="38.302405" lon="-2.291665">
        <ele>1039</ele>
        <time>2014-08-24T10:36:23.47</time>
      </trkpt>
      <trkpt lat="38.302475" lon="-2.291645">
        <ele>1038</ele>
        <time>2014-08-24T10:36:24.47</time>
      </trkpt>
      <trkpt lat="38.30256" lon="-2.2916483333333333">
        <ele>1037</ele>
        <time>2014-08-24T10:36:25.49</time>
      </trkpt>
      <trkpt lat="38.302635" lon="-2.291645">
        <ele>1037</ele>
        <time>2014-08-24T10:36:26.48</time>
      </trkpt>
      <trkpt lat="38.30271" lon="-2.291645">
        <ele>1037</ele>
        <time>2014-08-24T10:36:27.48</time>
      </trkpt>
      <trkpt lat="38.302785" lon="-2.291645">
        <ele>1037</ele>
        <time>2014-08-24T10:36:28.48</time>
      </trkpt>
      <trkpt lat="38.30286" lon="-2.291646666666667">
        <ele>1037</ele>
        <time>2014-08-24T10:36:29.49</time>
      </trkpt>
      <trkpt lat="38.30294" lon="-2.291655">
        <ele>1038</ele>
        <time>2014-08-24T10:36:30.54</time>
      </trkpt>
      <trkpt lat="38.30301166666667" lon="-2.2916566666666665">
        <ele>1038</ele>
        <time>2014-08-24T10:36:31.49</time>
      </trkpt>
      <trkpt lat="38.30309" lon="-2.291665">
        <ele>1038</ele>
        <time>2014-08-24T10:36:32.49</time>
      </trkpt>
      <trkpt lat="38.30317" lon="-2.29167">
        <ele>1038</ele>
        <time>2014-08-24T10:36:33.48</time>
      </trkpt>
      <trkpt lat="38.30325" lon="-2.29167">
        <ele>1037</ele>
        <time>2014-08-24T10:36:34.47</time>
      </trkpt>
      <trkpt lat="38.30332" lon="-2.29167">
        <ele>1037</ele>
        <time>2014-08-24T10:36:35.47</time>
      </trkpt>
      <trkpt lat="38.303395" lon="-2.2916566666666665">
        <ele>1035</ele>
        <time>2014-08-24T10:36:36.47</time>
      </trkpt>
      <trkpt lat="38.303475" lon="-2.291655">
        <ele>1035</ele>
        <time>2014-08-24T10:36:37.47</time>
      </trkpt>
      <trkpt lat="38.30356" lon="-2.291645">
        <ele>1035</ele>
        <time>2014-08-24T10:36:38.48</time>
      </trkpt>
      <trkpt lat="38.30364" lon="-2.291625">
        <ele>1034</ele>
        <time>2014-08-24T10:36:39.51</time>
      </trkpt>
      <trkpt lat="38.30372" lon="-2.291585">
        <ele>1034</ele>
        <time>2014-08-24T10:36:40.47</time>
      </trkpt>
      <trkpt lat="38.303795" lon="-2.29154">
        <ele>1033</ele>
        <time>2014-08-24T10:36:41.47</time>
      </trkpt>
      <trkpt lat="38.30386" lon="-2.2914733333333333">
        <ele>1033</ele>
        <time>2014-08-24T10:36:42.47</time>
      </trkpt>
      <trkpt lat="38.30392" lon="-2.29141">
        <ele>1033</ele>
        <time>2014-08-24T10:36:43.48</time>
      </trkpt>
      <trkpt lat="38.303975" lon="-2.291341666666667">
        <ele>1034</ele>
        <time>2014-08-24T10:36:44.47</time>
      </trkpt>
      <trkpt lat="38.30403" lon="-2.29128">
        <ele>1033</ele>
        <time>2014-08-24T10:36:45.47</time>
      </trkpt>
      <trkpt lat="38.30413" lon="-2.291145">
        <ele>1033</ele>
        <time>2014-08-24T10:36:47.48</time>
      </trkpt>
      <trkpt lat="38.30422" lon="-2.29102">
        <ele>1034</ele>
        <time>2014-08-24T10:36:49.47</time>
      </trkpt>
      <trkpt lat="38.3043" lon="-2.290915">
        <ele>1034</ele>
        <time>2014-08-24T10:36:51.47</time>
      </trkpt>
      <trkpt lat="38.304375" lon="-2.29081">
        <ele>1034</ele>
        <time>2014-08-24T10:36:53.55</time>
      </trkpt>
      <trkpt lat="38.30444" lon="-2.290715">
        <ele>1034</ele>
        <time>2014-08-24T10:36:55.50</time>
      </trkpt>
      <trkpt lat="38.304516666666665" lon="-2.290635">
        <ele>1035</ele>
        <time>2014-08-24T10:36:57.48</time>
      </trkpt>
      <trkpt lat="38.304585" lon="-2.29054">
        <ele>1035</ele>
        <time>2014-08-24T10:36:59.48</time>
      </trkpt>
      <trkpt lat="38.304665" lon="-2.290455">
        <ele>1036</ele>
        <time>2014-08-24T10:37:01.47</time>
      </trkpt>
      <trkpt lat="38.304725" lon="-2.290345">
        <ele>1035</ele>
        <time>2014-08-24T10:37:03.47</time>
      </trkpt>
      <trkpt lat="38.304805" lon="-2.290255">
        <ele>1036</ele>
        <time>2014-08-24T10:37:05.47</time>
      </trkpt>
      <trkpt lat="38.30487" lon="-2.290175">
        <ele>1037</ele>
        <time>2014-08-24T10:37:07.47</time>
      </trkpt>
      <trkpt lat="38.304935" lon="-2.290085">
        <ele>1037</ele>
        <time>2014-08-24T10:37:09.48</time>
      </trkpt>
      <trkpt lat="38.305" lon="-2.290005">
        <ele>1037</ele>
        <time>2014-08-24T10:37:11.50</time>
      </trkpt>
      <trkpt lat="38.30506" lon="-2.289925">
        <ele>1040</ele>
        <time>2014-08-24T10:37:13.56</time>
      </trkpt>
      <trkpt lat="38.3051" lon="-2.2898300000000003">
        <ele>1042</ele>
        <time>2014-08-24T10:37:15.48</time>
      </trkpt>
      <trkpt lat="38.30515" lon="-2.28972">
        <ele>1042</ele>
        <time>2014-08-24T10:37:17.47</time>
      </trkpt>
      <trkpt lat="38.305185" lon="-2.28962">
        <ele>1042</ele>
        <time>2014-08-24T10:37:19.48</time>
      </trkpt>
      <trkpt lat="38.30523" lon="-2.2894983333333334">
        <ele>1042</ele>
        <time>2014-08-24T10:37:21.54</time>
      </trkpt>
      <trkpt lat="38.305265" lon="-2.28939">
        <ele>1042</ele>
        <time>2014-08-24T10:37:23.56</time>
      </trkpt>
      <trkpt lat="38.3053" lon="-2.289285">
        <ele>1042</ele>
        <time>2014-08-24T10:37:25.66</time>
      </trkpt>
      <trkpt lat="38.305345" lon="-2.289175">
        <ele>1042</ele>
        <time>2014-08-24T10:37:27.55</time>
      </trkpt>
      <trkpt lat="38.30539" lon="-2.289075">
        <ele>1041</ele>
        <time>2014-08-24T10:37:29.56</time>
      </trkpt>
      <trkpt lat="38.305414999999996" lon="-2.28897">
        <ele>1041</ele>
        <time>2014-08-24T10:37:31.43</time>
      </trkpt>
      <trkpt lat="38.30547" lon="-2.288875">
        <ele>1042</ele>
        <time>2014-08-24T10:37:33.54</time>
      </trkpt>
      <trkpt lat="38.30553" lon="-2.288795">
        <ele>1042</ele>
        <time>2014-08-24T10:37:35.51</time>
      </trkpt>
      <trkpt lat="38.30559" lon="-2.28872">
        <ele>1042</ele>
        <time>2014-08-24T10:37:37.61</time>
      </trkpt>
      <trkpt lat="38.305665" lon="-2.28865">
        <ele>1041</ele>
        <time>2014-08-24T10:37:39.43</time>
      </trkpt>
      <trkpt lat="38.30574" lon="-2.288575">
        <ele>1041</ele>
        <time>2014-08-24T10:37:41.47</time>
      </trkpt>
      <trkpt lat="38.305825" lon="-2.28852">
        <ele>1042</ele>
        <time>2014-08-24T10:37:43.64</time>
      </trkpt>
      <trkpt lat="38.3059" lon="-2.288455">
        <ele>1041</ele>
        <time>2014-08-24T10:37:45.48</time>
      </trkpt>
      <trkpt lat="38.30599" lon="-2.28841">
        <ele>1042</ele>
        <time>2014-08-24T10:37:47.47</time>
      </trkpt>
      <trkpt lat="38.306055" lon="-2.288355">
        <ele>1042</ele>
        <time>2014-08-24T10:37:49.47</time>
      </trkpt>
      <trkpt lat="38.30613" lon="-2.288285">
        <ele>1042</ele>
        <time>2014-08-24T10:37:51.47</time>
      </trkpt>
      <trkpt lat="38.30619333333333" lon="-2.28822">
        <ele>1040</ele>
        <time>2014-08-24T10:37:53.47</time>
      </trkpt>
      <trkpt lat="38.306263333333334" lon="-2.2881616666666664">
        <ele>1041</ele>
        <time>2014-08-24T10:37:55.48</time>
      </trkpt>
      <trkpt lat="38.30633" lon="-2.28811">
        <ele>1042</ele>
        <time>2014-08-24T10:37:57.47</time>
      </trkpt>
      <trkpt lat="38.306401666666666" lon="-2.288055">
        <ele>1042</ele>
        <time>2014-08-24T10:37:59.50</time>
      </trkpt>
      <trkpt lat="38.30647" lon="-2.287985">
        <ele>1041</ele>
        <time>2014-08-24T10:38:01.47</time>
      </trkpt>
      <trkpt lat="38.306535" lon="-2.28792">
        <ele>1042</ele>
        <time>2014-08-24T10:38:03.53</time>
      </trkpt>
      <trkpt lat="38.306595" lon="-2.28784">
        <ele>1042</ele>
        <time>2014-08-24T10:38:05.47</time>
      </trkpt>
      <trkpt lat="38.30666" lon="-2.287745">
        <ele>1043</ele>
        <time>2014-08-24T10:38:07.47</time>
      </trkpt>
      <trkpt lat="38.30670666666666" lon="-2.28764">
        <ele>1042</ele>
        <time>2014-08-24T10:38:09.47</time>
      </trkpt>
      <trkpt lat="38.30676" lon="-2.28754">
        <ele>1043</ele>
        <time>2014-08-24T10:38:11.47</time>
      </trkpt>
      <trkpt lat="38.30679" lon="-2.287415">
        <ele>1041</ele>
        <time>2014-08-24T10:38:13.48</time>
      </trkpt>
      <trkpt lat="38.30682" lon="-2.28728">
        <ele>1040</ele>
        <time>2014-08-24T10:38:15.53</time>
      </trkpt>
      <trkpt lat="38.30685" lon="-2.287141666666667">
        <ele>1040</ele>
        <time>2014-08-24T10:38:17.47</time>
      </trkpt>
      <trkpt lat="38.30686333333333" lon="-2.286995">
        <ele>1038</ele>
        <time>2014-08-24T10:38:19.47</time>
      </trkpt>
      <trkpt lat="38.3069" lon="-2.28685">
        <ele>1036</ele>
        <time>2014-08-24T10:38:21.47</time>
      </trkpt>
      <trkpt lat="38.306931666666664" lon="-2.28669">
        <ele>1036</ele>
        <time>2014-08-24T10:38:23.47</time>
      </trkpt>
      <trkpt lat="38.306975" lon="-2.2865349999999998">
        <ele>1035</ele>
        <time>2014-08-24T10:38:25.47</time>
      </trkpt>
      <trkpt lat="38.30703" lon="-2.286395">
        <ele>1033</ele>
        <time>2014-08-24T10:38:27.47</time>
      </trkpt>
      <trkpt lat="38.3071" lon="-2.28626">
        <ele>1033</ele>
        <time>2014-08-24T10:38:29.47</time>
      </trkpt>
      <trkpt lat="38.30719" lon="-2.286155">
        <ele>1032</ele>
        <time>2014-08-24T10:38:31.47</time>
      </trkpt>
      <trkpt lat="38.30729" lon="-2.28605">
        <ele>1032</ele>
        <time>2014-08-24T10:38:33.47</time>
      </trkpt>
      <trkpt lat="38.307386666666666" lon="-2.285945">
        <ele>1031</ele>
        <time>2014-08-24T10:38:35.47</time>
      </trkpt>
      <trkpt lat="38.307495" lon="-2.285835">
        <ele>1031</ele>
        <time>2014-08-24T10:38:37.47</time>
      </trkpt>
      <trkpt lat="38.307605" lon="-2.28574">
        <ele>1031</ele>
        <time>2014-08-24T10:38:39.47</time>
      </trkpt>
      <trkpt lat="38.307715" lon="-2.285635">
        <ele>1031</ele>
        <time>2014-08-24T10:38:41.47</time>
      </trkpt>
      <trkpt lat="38.307765" lon="-2.28557">
        <ele>1031</ele>
        <time>2014-08-24T10:38:42.47</time>
      </trkpt>
      <trkpt lat="38.307875" lon="-2.28545">
        <ele>1030</ele>
        <time>2014-08-24T10:38:44.47</time>
      </trkpt>
      <trkpt lat="38.307921666666665" lon="-2.28538">
        <ele>1030</ele>
        <time>2014-08-24T10:38:45.47</time>
      </trkpt>
      <trkpt lat="38.30798" lon="-2.285305">
        <ele>1029</ele>
        <time>2014-08-24T10:38:46.47</time>
      </trkpt>
      <trkpt lat="38.308035" lon="-2.285225">
        <ele>1028</ele>
        <time>2014-08-24T10:38:47.47</time>
      </trkpt>
      <trkpt lat="38.308085" lon="-2.285145">
        <ele>1028</ele>
        <time>2014-08-24T10:38:48.47</time>
      </trkpt>
      <trkpt lat="38.308135" lon="-2.285055">
        <ele>1027</ele>
        <time>2014-08-24T10:38:49.46</time>
      </trkpt>
      <trkpt lat="38.308175" lon="-2.28496">
        <ele>1027</ele>
        <time>2014-08-24T10:38:50.48</time>
      </trkpt>
      <trkpt lat="38.30822" lon="-2.284875">
        <ele>1027</ele>
        <time>2014-08-24T10:38:51.47</time>
      </trkpt>
      <trkpt lat="38.30826" lon="-2.284775">
        <ele>1027</ele>
        <time>2014-08-24T10:38:52.47</time>
      </trkpt>
      <trkpt lat="38.308285" lon="-2.284665">
        <ele>1026</ele>
        <time>2014-08-24T10:38:53.45</time>
      </trkpt>
      <trkpt lat="38.308315" lon="-2.284555">
        <ele>1025</ele>
        <time>2014-08-24T10:38:54.47</time>
      </trkpt>
      <trkpt lat="38.308335" lon="-2.28444">
        <ele>1024</ele>
        <time>2014-08-24T10:38:55.48</time>
      </trkpt>
      <trkpt lat="38.308355" lon="-2.284325">
        <ele>1024</ele>
        <time>2014-08-24T10:38:56.47</time>
      </trkpt>
      <trkpt lat="38.308371666666666" lon="-2.284205">
        <ele>1023</ele>
        <time>2014-08-24T10:38:57.47</time>
      </trkpt>
      <trkpt lat="38.30839" lon="-2.284085">
        <ele>1022</ele>
        <time>2014-08-24T10:38:58.47</time>
      </trkpt>
      <trkpt lat="38.308415" lon="-2.283951666666667">
        <ele>1021</ele>
        <time>2014-08-24T10:38:59.48</time>
      </trkpt>
      <trkpt lat="38.30844" lon="-2.283835">
        <ele>1020</ele>
        <time>2014-08-24T10:39:00.47</time>
      </trkpt>
      <trkpt lat="38.308465" lon="-2.283715">
        <ele>1020</ele>
        <time>2014-08-24T10:39:01.47</time>
      </trkpt>
      <trkpt lat="38.308495" lon="-2.2836">
        <ele>1019</ele>
        <time>2014-08-24T10:39:02.47</time>
      </trkpt>
      <trkpt lat="38.308535" lon="-2.28348">
        <ele>1018</ele>
        <time>2014-08-24T10:39:03.47</time>
      </trkpt>
      <trkpt lat="38.308585" lon="-2.28337">
        <ele>1017</ele>
        <time>2014-08-24T10:39:04.47</time>
      </trkpt>
      <trkpt lat="38.308635" lon="-2.283255">
        <ele>1016</ele>
        <time>2014-08-24T10:39:05.47</time>
      </trkpt>
      <trkpt lat="38.30869" lon="-2.2831433333333333">
        <ele>1015</ele>
        <time>2014-08-24T10:39:06.47</time>
      </trkpt>
      <trkpt lat="38.30875" lon="-2.283035">
        <ele>1014</ele>
        <time>2014-08-24T10:39:07.47</time>
      </trkpt>
      <trkpt lat="38.3088" lon="-2.28292">
        <ele>1014</ele>
        <time>2014-08-24T10:39:08.47</time>
      </trkpt>
      <trkpt lat="38.308855" lon="-2.28282">
        <ele>1013</ele>
        <time>2014-08-24T10:39:09.47</time>
      </trkpt>
      <trkpt lat="38.308915" lon="-2.28271">
        <ele>1012</ele>
        <time>2014-08-24T10:39:10.43</time>
      </trkpt>
      <trkpt lat="38.30897" lon="-2.28261">
        <ele>1012</ele>
        <time>2014-08-24T10:39:11.42</time>
      </trkpt>
      <trkpt lat="38.30902" lon="-2.282505">
        <ele>1011</ele>
        <time>2014-08-24T10:39:12.43</time>
      </trkpt>
      <trkpt lat="38.30907" lon="-2.2824">
        <ele>1010</ele>
        <time>2014-08-24T10:39:13.42</time>
      </trkpt>
      <trkpt lat="38.309128333333334" lon="-2.282295">
        <ele>1009</ele>
        <time>2014-08-24T10:39:14.47</time>
      </trkpt>
      <trkpt lat="38.309195" lon="-2.282185">
        <ele>1009</ele>
        <time>2014-08-24T10:39:15.47</time>
      </trkpt>
      <trkpt lat="38.30926" lon="-2.28208">
        <ele>1008</ele>
        <time>2014-08-24T10:39:16.47</time>
      </trkpt>
      <trkpt lat="38.30935" lon="-2.28198">
        <ele>1007</ele>
        <time>2014-08-24T10:39:17.47</time>
      </trkpt>
      <trkpt lat="38.309435" lon="-2.281905">
        <ele>1006</ele>
        <time>2014-08-24T10:39:18.60</time>
      </trkpt>
      <trkpt lat="38.30954" lon="-2.28184">
        <ele>1007</ele>
        <time>2014-08-24T10:39:19.48</time>
      </trkpt>
      <trkpt lat="38.309645" lon="-2.2818">
        <ele>1006</ele>
        <time>2014-08-24T10:39:20.47</time>
      </trkpt>
      <trkpt lat="38.309755" lon="-2.28178">
        <ele>1006</ele>
        <time>2014-08-24T10:39:21.48</time>
      </trkpt>
      <trkpt lat="38.30987" lon="-2.281775">
        <ele>1006</ele>
        <time>2014-08-24T10:39:22.47</time>
      </trkpt>
      <trkpt lat="38.309985" lon="-2.281775">
        <ele>1006</ele>
        <time>2014-08-24T10:39:23.48</time>
      </trkpt>
      <trkpt lat="38.31009" lon="-2.28178">
        <ele>1005</ele>
        <time>2014-08-24T10:39:24.70</time>
      </trkpt>
      <trkpt lat="38.310195" lon="-2.28178">
        <ele>1005</ele>
        <time>2014-08-24T10:39:25.47</time>
      </trkpt>
      <trkpt lat="38.31028" lon="-2.2817600000000002">
        <ele>1003</ele>
        <time>2014-08-24T10:39:26.47</time>
      </trkpt>
      <trkpt lat="38.310385" lon="-2.281725">
        <ele>1003</ele>
        <time>2014-08-24T10:39:27.47</time>
      </trkpt>
      <trkpt lat="38.31048" lon="-2.28168">
        <ele>1001</ele>
        <time>2014-08-24T10:39:28.47</time>
      </trkpt>
      <trkpt lat="38.310565" lon="-2.2816183333333333">
        <ele>1001</ele>
        <time>2014-08-24T10:39:29.47</time>
      </trkpt>
      <trkpt lat="38.31064" lon="-2.281555">
        <ele>999</ele>
        <time>2014-08-24T10:39:30.48</time>
      </trkpt>
      <trkpt lat="38.31072" lon="-2.2815">
        <ele>999</ele>
        <time>2014-08-24T10:39:31.56</time>
      </trkpt>
      <trkpt lat="38.31079" lon="-2.281425">
        <ele>998</ele>
        <time>2014-08-24T10:39:32.50</time>
      </trkpt>
      <trkpt lat="38.310865" lon="-2.281346666666667">
        <ele>997</ele>
        <time>2014-08-24T10:39:33.47</time>
      </trkpt>
      <trkpt lat="38.310925" lon="-2.281276666666667">
        <ele>996</ele>
        <time>2014-08-24T10:39:34.48</time>
      </trkpt>
      <trkpt lat="38.310995" lon="-2.281205">
        <ele>996</ele>
        <time>2014-08-24T10:39:35.48</time>
      </trkpt>
      <trkpt lat="38.311055" lon="-2.28112">
        <ele>995</ele>
        <time>2014-08-24T10:39:36.48</time>
      </trkpt>
      <trkpt lat="38.31111666666666" lon="-2.28105">
        <ele>995</ele>
        <time>2014-08-24T10:39:37.48</time>
      </trkpt>
      <trkpt lat="38.311188333333334" lon="-2.2809733333333333">
        <ele>994</ele>
        <time>2014-08-24T10:39:38.48</time>
      </trkpt>
      <trkpt lat="38.311256666666665" lon="-2.2809">
        <ele>994</ele>
        <time>2014-08-24T10:39:39.48</time>
      </trkpt>
      <trkpt lat="38.311328333333336" lon="-2.280806666666667">
        <ele>993</ele>
        <time>2014-08-24T10:39:40.47</time>
      </trkpt>
      <trkpt lat="38.311395" lon="-2.280725">
        <ele>993</ele>
        <time>2014-08-24T10:39:41.49</time>
      </trkpt>
      <trkpt lat="38.31147" lon="-2.28065">
        <ele>993</ele>
        <time>2014-08-24T10:39:42.42</time>
      </trkpt>
      <trkpt lat="38.311545" lon="-2.280575">
        <ele>993</ele>
        <time>2014-08-24T10:39:43.47</time>
      </trkpt>
      <trkpt lat="38.311605" lon="-2.280485">
        <ele>993</ele>
        <time>2014-08-24T10:39:44.47</time>
      </trkpt>
      <trkpt lat="38.31167" lon="-2.28039">
        <ele>992</ele>
        <time>2014-08-24T10:39:45.48</time>
      </trkpt>
      <trkpt lat="38.31172" lon="-2.280315">
        <ele>992</ele>
        <time>2014-08-24T10:39:46.47</time>
      </trkpt>
      <trkpt lat="38.311765" lon="-2.28023">
        <ele>991</ele>
        <time>2014-08-24T10:39:47.48</time>
      </trkpt>
      <trkpt lat="38.31181" lon="-2.2801299999999998">
        <ele>989</ele>
        <time>2014-08-24T10:39:48.48</time>
      </trkpt>
      <trkpt lat="38.31185" lon="-2.28003">
        <ele>988</ele>
        <time>2014-08-24T10:39:49.47</time>
      </trkpt>
      <trkpt lat="38.311895" lon="-2.279945">
        <ele>988</ele>
        <time>2014-08-24T10:39:50.48</time>
      </trkpt>
      <trkpt lat="38.311945" lon="-2.27987">
        <ele>987</ele>
        <time>2014-08-24T10:39:51.47</time>
      </trkpt>
      <trkpt lat="38.31201333333333" lon="-2.2798083333333334">
        <ele>987</ele>
        <time>2014-08-24T10:39:52.47</time>
      </trkpt>
      <trkpt lat="38.312095" lon="-2.27977">
        <ele>987</ele>
        <time>2014-08-24T10:39:53.48</time>
      </trkpt>
      <trkpt lat="38.312185" lon="-2.27979">
        <ele>986</ele>
        <time>2014-08-24T10:39:54.48</time>
      </trkpt>
      <trkpt lat="38.312265" lon="-2.2798083333333334">
        <ele>985</ele>
        <time>2014-08-24T10:39:55.47</time>
      </trkpt>
      <trkpt lat="38.31234" lon="-2.279845">
        <ele>984</ele>
        <time>2014-08-24T10:39:56.56</time>
      </trkpt>
      <trkpt lat="38.31248166666666" lon="-2.279895">
        <ele>982</ele>
        <time>2014-08-24T10:39:58.63</time>
      </trkpt>
      <trkpt lat="38.31261833333333" lon="-2.2799">
        <ele>979</ele>
        <time>2014-08-24T10:40:00.47</time>
      </trkpt>
      <trkpt lat="38.3127" lon="-2.279885">
        <ele>979</ele>
        <time>2014-08-24T10:40:01.47</time>
      </trkpt>
      <trkpt lat="38.312776666666664" lon="-2.27985">
        <ele>978</ele>
        <time>2014-08-24T10:40:02.47</time>
      </trkpt>
      <trkpt lat="38.312855" lon="-2.279805">
        <ele>978</ele>
        <time>2014-08-24T10:40:03.47</time>
      </trkpt>
      <trkpt lat="38.312915" lon="-2.27974">
        <ele>978</ele>
        <time>2014-08-24T10:40:04.47</time>
      </trkpt>
      <trkpt lat="38.31297" lon="-2.279675">
        <ele>978</ele>
        <time>2014-08-24T10:40:05.47</time>
      </trkpt>
      <trkpt lat="38.31303" lon="-2.279615">
        <ele>978</ele>
        <time>2014-08-24T10:40:06.47</time>
      </trkpt>
      <trkpt lat="38.31308" lon="-2.2795366666666665">
        <ele>978</ele>
        <time>2014-08-24T10:40:07.47</time>
      </trkpt>
      <trkpt lat="38.313135" lon="-2.27948">
        <ele>978</ele>
        <time>2014-08-24T10:40:08.47</time>
      </trkpt>
      <trkpt lat="38.313185" lon="-2.27941">
        <ele>978</ele>
        <time>2014-08-24T10:40:09.48</time>
      </trkpt>
      <trkpt lat="38.31324" lon="-2.27935">
        <ele>978</ele>
        <time>2014-08-24T10:40:10.44</time>
      </trkpt>
      <trkpt lat="38.31334" lon="-2.27923">
        <ele>977</ele>
        <time>2014-08-24T10:40:12.47</time>
      </trkpt>
      <trkpt lat="38.31342" lon="-2.2791083333333333">
        <ele>976</ele>
        <time>2014-08-24T10:40:14.47</time>
      </trkpt>
      <trkpt lat="38.313505" lon="-2.279">
        <ele>975</ele>
        <time>2014-08-24T10:40:16.47</time>
      </trkpt>
      <trkpt lat="38.31357" lon="-2.2789">
        <ele>975</ele>
        <time>2014-08-24T10:40:18.47</time>
      </trkpt>
      <trkpt lat="38.313625" lon="-2.2788233333333334">
        <ele>976</ele>
        <time>2014-08-24T10:40:20.47</time>
      </trkpt>
      <trkpt lat="38.31367" lon="-2.27874">
        <ele>976</ele>
        <time>2014-08-24T10:40:22.47</time>
      </trkpt>
      <trkpt lat="38.31372" lon="-2.27864">
        <ele>976</ele>
        <time>2014-08-24T10:40:25.47</time>
      </trkpt>
      <trkpt lat="38.313775" lon="-2.278575">
        <ele>976</ele>
        <time>2014-08-24T10:40:27.47</time>
      </trkpt>
      <trkpt lat="38.313825" lon="-2.2784883333333332">
        <ele>976</ele>
        <time>2014-08-24T10:40:29.47</time>
      </trkpt>
      <trkpt lat="38.313875" lon="-2.278385">
        <ele>976</ele>
        <time>2014-08-24T10:40:31.47</time>
      </trkpt>
      <trkpt lat="38.31394" lon="-2.2782883333333332">
        <ele>976</ele>
        <time>2014-08-24T10:40:33.47</time>
      </trkpt>
      <trkpt lat="38.313995" lon="-2.27819">
        <ele>976</ele>
        <time>2014-08-24T10:40:35.48</time>
      </trkpt>
      <trkpt lat="38.314045" lon="-2.2781000000000002">
        <ele>977</ele>
        <time>2014-08-24T10:40:37.47</time>
      </trkpt>
      <trkpt lat="38.314095" lon="-2.27799">
        <ele>977</ele>
        <time>2014-08-24T10:40:39.46</time>
      </trkpt>
      <trkpt lat="38.314141666666664" lon="-2.277905">
        <ele>978</ele>
        <time>2014-08-24T10:40:41.47</time>
      </trkpt>
      <trkpt lat="38.314185" lon="-2.277815">
        <ele>978</ele>
        <time>2014-08-24T10:40:43.46</time>
      </trkpt>
      <trkpt lat="38.31423" lon="-2.277735">
        <ele>978</ele>
        <time>2014-08-24T10:40:45.48</time>
      </trkpt>
      <trkpt lat="38.31428" lon="-2.27766">
        <ele>978</ele>
        <time>2014-08-24T10:40:47.48</time>
      </trkpt>
      <trkpt lat="38.314325" lon="-2.277575">
        <ele>978</ele>
        <time>2014-08-24T10:40:49.42</time>
      </trkpt>
      <trkpt lat="38.314375" lon="-2.277505">
        <ele>978</ele>
        <time>2014-08-24T10:40:51.47</time>
      </trkpt>
      <trkpt lat="38.314415" lon="-2.277425">
        <ele>978</ele>
        <time>2014-08-24T10:40:53.47</time>
      </trkpt>
      <trkpt lat="38.31446" lon="-2.27735">
        <ele>979</ele>
        <time>2014-08-24T10:40:55.47</time>
      </trkpt>
      <trkpt lat="38.314515" lon="-2.277233333333333">
        <ele>979</ele>
        <time>2014-08-24T10:40:58.48</time>
      </trkpt>
      <trkpt lat="38.31457" lon="-2.27713">
        <ele>978</ele>
        <time>2014-08-24T10:41:01.51</time>
      </trkpt>
      <trkpt lat="38.314615" lon="-2.277055">
        <ele>978</ele>
        <time>2014-08-24T10:41:03.46</time>
      </trkpt>
      <trkpt lat="38.31466" lon="-2.27697">
        <ele>978</ele>
        <time>2014-08-24T10:41:05.47</time>
      </trkpt>
      <trkpt lat="38.31471" lon="-2.2768800000000002">
        <ele>977</ele>
        <time>2014-08-24T10:41:07.47</time>
      </trkpt>
      <trkpt lat="38.314755" lon="-2.276761666666667">
        <ele>976</ele>
        <time>2014-08-24T10:41:09.47</time>
      </trkpt>
      <trkpt lat="38.314811666666664" lon="-2.276675">
        <ele>975</ele>
        <time>2014-08-24T10:41:11.47</time>
      </trkpt>
      <trkpt lat="38.31488" lon="-2.27659">
        <ele>976</ele>
        <time>2014-08-24T10:41:13.47</time>
      </trkpt>
      <trkpt lat="38.31495" lon="-2.2765050000000002">
        <ele>977</ele>
        <time>2014-08-24T10:41:15.48</time>
      </trkpt>
      <trkpt lat="38.31501" lon="-2.276405">
        <ele>976</ele>
        <time>2014-08-24T10:41:17.47</time>
      </trkpt>
      <trkpt lat="38.31509" lon="-2.27631">
        <ele>976</ele>
        <time>2014-08-24T10:41:19.46</time>
      </trkpt>
      <trkpt lat="38.315155" lon="-2.27618">
        <ele>974</ele>
        <time>2014-08-24T10:41:21.47</time>
      </trkpt>
      <trkpt lat="38.31521" lon="-2.276055">
        <ele>975</ele>
        <time>2014-08-24T10:41:23.48</time>
      </trkpt>
      <trkpt lat="38.31524" lon="-2.27588">
        <ele>972</ele>
        <time>2014-08-24T10:41:25.47</time>
      </trkpt>
      <trkpt lat="38.315255" lon="-2.275785">
        <ele>971</ele>
        <time>2014-08-24T10:41:26.47</time>
      </trkpt>
      <trkpt lat="38.315266666666666" lon="-2.27569">
        <ele>971</ele>
        <time>2014-08-24T10:41:27.47</time>
      </trkpt>
      <trkpt lat="38.31524" lon="-2.275605">
        <ele>969</ele>
        <time>2014-08-24T10:41:28.47</time>
      </trkpt>
      <trkpt lat="38.315235" lon="-2.27542">
        <ele>968</ele>
        <time>2014-08-24T10:41:30.47</time>
      </trkpt>
      <trkpt lat="38.315235" lon="-2.275315">
        <ele>967</ele>
        <time>2014-08-24T10:41:31.47</time>
      </trkpt>
      <trkpt lat="38.315235" lon="-2.27522">
        <ele>966</ele>
        <time>2014-08-24T10:41:32.49</time>
      </trkpt>
      <trkpt lat="38.315255" lon="-2.275125">
        <ele>965</ele>
        <time>2014-08-24T10:41:33.48</time>
      </trkpt>
      <trkpt lat="38.31531" lon="-2.27495">
        <ele>964</ele>
        <time>2014-08-24T10:41:35.47</time>
      </trkpt>
      <trkpt lat="38.315345" lon="-2.274865">
        <ele>963</ele>
        <time>2014-08-24T10:41:36.47</time>
      </trkpt>
      <trkpt lat="38.315395" lon="-2.274785">
        <ele>962</ele>
        <time>2014-08-24T10:41:37.47</time>
      </trkpt>
      <trkpt lat="38.31548" lon="-2.2746983333333333">
        <ele>962</ele>
        <time>2014-08-24T10:41:38.47</time>
      </trkpt>
      <trkpt lat="38.31556" lon="-2.274625">
        <ele>962</ele>
        <time>2014-08-24T10:41:39.42</time>
      </trkpt>
      <trkpt lat="38.31564" lon="-2.274555">
        <ele>962</ele>
        <time>2014-08-24T10:41:40.47</time>
      </trkpt>
      <trkpt lat="38.315725" lon="-2.27449">
        <ele>962</ele>
        <time>2014-08-24T10:41:41.47</time>
      </trkpt>
      <trkpt lat="38.31579" lon="-2.27442">
        <ele>962</ele>
        <time>2014-08-24T10:41:42.47</time>
      </trkpt>
      <trkpt lat="38.31588" lon="-2.274355">
        <ele>961</ele>
        <time>2014-08-24T10:41:43.47</time>
      </trkpt>
      <trkpt lat="38.315965" lon="-2.27428">
        <ele>961</ele>
        <time>2014-08-24T10:41:44.47</time>
      </trkpt>
      <trkpt lat="38.31604333333333" lon="-2.2741816666666668">
        <ele>960</ele>
        <time>2014-08-24T10:41:45.48</time>
      </trkpt>
      <trkpt lat="38.31612" lon="-2.27408">
        <ele>959</ele>
        <time>2014-08-24T10:41:46.48</time>
      </trkpt>
      <trkpt lat="38.316181666666665" lon="-2.273955">
        <ele>959</ele>
        <time>2014-08-24T10:41:47.47</time>
      </trkpt>
      <trkpt lat="38.316215" lon="-2.27381">
        <ele>958</ele>
        <time>2014-08-24T10:41:48.47</time>
      </trkpt>
      <trkpt lat="38.31622" lon="-2.27366">
        <ele>957</ele>
        <time>2014-08-24T10:41:49.47</time>
      </trkpt>
      <trkpt lat="38.316225" lon="-2.273505">
        <ele>955</ele>
        <time>2014-08-24T10:41:50.47</time>
      </trkpt>
      <trkpt lat="38.316225" lon="-2.2733483333333333">
        <ele>954</ele>
        <time>2014-08-24T10:41:51.47</time>
      </trkpt>
      <trkpt lat="38.316225" lon="-2.273205">
        <ele>953</ele>
        <time>2014-08-24T10:41:52.47</time>
      </trkpt>
      <trkpt lat="38.316245" lon="-2.27306">
        <ele>952</ele>
        <time>2014-08-24T10:41:53.48</time>
      </trkpt>
      <trkpt lat="38.31626833333333" lon="-2.272905">
        <ele>951</ele>
        <time>2014-08-24T10:41:54.48</time>
      </trkpt>
      <trkpt lat="38.3163" lon="-2.27276">
        <ele>949</ele>
        <time>2014-08-24T10:41:55.68</time>
      </trkpt>
      <trkpt lat="38.31633333333333" lon="-2.272615">
        <ele>948</ele>
        <time>2014-08-24T10:41:56.48</time>
      </trkpt>
      <trkpt lat="38.316375" lon="-2.272485">
        <ele>947</ele>
        <time>2014-08-24T10:41:57.47</time>
      </trkpt>
      <trkpt lat="38.316415" lon="-2.272355">
        <ele>946</ele>
        <time>2014-08-24T10:41:58.47</time>
      </trkpt>
      <trkpt lat="38.31644" lon="-2.272215">
        <ele>944</ele>
        <time>2014-08-24T10:41:59.47</time>
      </trkpt>
      <trkpt lat="38.31647" lon="-2.272075">
        <ele>943</ele>
        <time>2014-08-24T10:42:00.49</time>
      </trkpt>
      <trkpt lat="38.31651" lon="-2.271925">
        <ele>942</ele>
        <time>2014-08-24T10:42:01.49</time>
      </trkpt>
      <trkpt lat="38.31654" lon="-2.271785">
        <ele>941</ele>
        <time>2014-08-24T10:42:02.47</time>
      </trkpt>
      <trkpt lat="38.31657" lon="-2.271645">
        <ele>940</ele>
        <time>2014-08-24T10:42:03.47</time>
      </trkpt>
      <trkpt lat="38.3166" lon="-2.271505">
        <ele>938</ele>
        <time>2014-08-24T10:42:04.48</time>
      </trkpt>
      <trkpt lat="38.31663" lon="-2.271365">
        <ele>938</ele>
        <time>2014-08-24T10:42:05.48</time>
      </trkpt>
      <trkpt lat="38.316675" lon="-2.271225">
        <ele>936</ele>
        <time>2014-08-24T10:42:06.48</time>
      </trkpt>
      <trkpt lat="38.316735" lon="-2.271095">
        <ele>935</ele>
        <time>2014-08-24T10:42:07.59</time>
      </trkpt>
      <trkpt lat="38.3168" lon="-2.270985">
        <ele>934</ele>
        <time>2014-08-24T10:42:08.47</time>
      </trkpt>
      <trkpt lat="38.316885" lon="-2.270895">
        <ele>934</ele>
        <time>2014-08-24T10:42:09.51</time>
      </trkpt>
      <trkpt lat="38.31698" lon="-2.270815">
        <ele>933</ele>
        <time>2014-08-24T10:42:10.43</time>
      </trkpt>
      <trkpt lat="38.317085" lon="-2.270775">
        <ele>933</ele>
        <time>2014-08-24T10:42:11.43</time>
      </trkpt>
      <trkpt lat="38.3172" lon="-2.270835">
        <ele>933</ele>
        <time>2014-08-24T10:42:12.43</time>
      </trkpt>
      <trkpt lat="38.317285" lon="-2.27088">
        <ele>932</ele>
        <time>2014-08-24T10:42:13.44</time>
      </trkpt>
      <trkpt lat="38.31737" lon="-2.27095">
        <ele>931</ele>
        <time>2014-08-24T10:42:14.49</time>
      </trkpt>
      <trkpt lat="38.317435" lon="-2.2710383333333333">
        <ele>930</ele>
        <time>2014-08-24T10:42:15.47</time>
      </trkpt>
      <trkpt lat="38.31749" lon="-2.2711550000000003">
        <ele>930</ele>
        <time>2014-08-24T10:42:16.47</time>
      </trkpt>
      <trkpt lat="38.31754166666666" lon="-2.27126">
        <ele>930</ele>
        <time>2014-08-24T10:42:17.47</time>
      </trkpt>
      <trkpt lat="38.317605" lon="-2.271365">
        <ele>929</ele>
        <time>2014-08-24T10:42:18.48</time>
      </trkpt>
      <trkpt lat="38.317675" lon="-2.2714666666666665">
        <ele>929</ele>
        <time>2014-08-24T10:42:19.47</time>
      </trkpt>
      <trkpt lat="38.31775" lon="-2.27154">
        <ele>928</ele>
        <time>2014-08-24T10:42:20.47</time>
      </trkpt>
      <trkpt lat="38.31784" lon="-2.271575">
        <ele>927</ele>
        <time>2014-08-24T10:42:21.47</time>
      </trkpt>
      <trkpt lat="38.317928333333334" lon="-2.271575">
        <ele>926</ele>
        <time>2014-08-24T10:42:22.48</time>
      </trkpt>
      <trkpt lat="38.31802" lon="-2.27153">
        <ele>926</ele>
        <time>2014-08-24T10:42:23.48</time>
      </trkpt>
      <trkpt lat="38.318095" lon="-2.271445">
        <ele>926</ele>
        <time>2014-08-24T10:42:24.48</time>
      </trkpt>
      <trkpt lat="38.31815" lon="-2.271345">
        <ele>925</ele>
        <time>2014-08-24T10:42:25.47</time>
      </trkpt>
      <trkpt lat="38.318195" lon="-2.271225">
        <ele>924</ele>
        <time>2014-08-24T10:42:26.48</time>
      </trkpt>
      <trkpt lat="38.318235" lon="-2.271095">
        <ele>923</ele>
        <time>2014-08-24T10:42:27.48</time>
      </trkpt>
      <trkpt lat="38.318245" lon="-2.270975">
        <ele>922</ele>
        <time>2014-08-24T10:42:28.48</time>
      </trkpt>
      <trkpt lat="38.318265" lon="-2.270845">
        <ele>921</ele>
        <time>2014-08-24T10:42:29.48</time>
      </trkpt>
      <trkpt lat="38.318295" lon="-2.27072">
        <ele>921</ele>
        <time>2014-08-24T10:42:30.48</time>
      </trkpt>
      <trkpt lat="38.318315" lon="-2.27059">
        <ele>921</ele>
        <time>2014-08-24T10:42:31.47</time>
      </trkpt>
      <trkpt lat="38.318345" lon="-2.27046">
        <ele>921</ele>
        <time>2014-08-24T10:42:32.47</time>
      </trkpt>
      <trkpt lat="38.31837" lon="-2.2703233333333332">
        <ele>920</ele>
        <time>2014-08-24T10:42:33.47</time>
      </trkpt>
      <trkpt lat="38.31839" lon="-2.270185">
        <ele>919</ele>
        <time>2014-08-24T10:42:34.47</time>
      </trkpt>
      <trkpt lat="38.318405" lon="-2.270035">
        <ele>918</ele>
        <time>2014-08-24T10:42:35.47</time>
      </trkpt>
      <trkpt lat="38.31841" lon="-2.269885">
        <ele>917</ele>
        <time>2014-08-24T10:42:36.47</time>
      </trkpt>
      <trkpt lat="38.31842" lon="-2.269735">
        <ele>916</ele>
        <time>2014-08-24T10:42:37.47</time>
      </trkpt>
      <trkpt lat="38.31842" lon="-2.26958">
        <ele>916</ele>
        <time>2014-08-24T10:42:38.47</time>
      </trkpt>
      <trkpt lat="38.31841" lon="-2.26942">
        <ele>915</ele>
        <time>2014-08-24T10:42:39.47</time>
      </trkpt>
      <trkpt lat="38.31839333333333" lon="-2.26926">
        <ele>913</ele>
        <time>2014-08-24T10:42:40.48</time>
      </trkpt>
      <trkpt lat="38.318385" lon="-2.2691">
        <ele>913</ele>
        <time>2014-08-24T10:42:41.48</time>
      </trkpt>
      <trkpt lat="38.318376666666666" lon="-2.268935">
        <ele>912</ele>
        <time>2014-08-24T10:42:42.47</time>
      </trkpt>
      <trkpt lat="38.318385" lon="-2.26878">
        <ele>912</ele>
        <time>2014-08-24T10:42:43.48</time>
      </trkpt>
      <trkpt lat="38.318375" lon="-2.268625">
        <ele>910</ele>
        <time>2014-08-24T10:42:44.47</time>
      </trkpt>
      <trkpt lat="38.318385" lon="-2.2684683333333333">
        <ele>909</ele>
        <time>2014-08-24T10:42:45.48</time>
      </trkpt>
      <trkpt lat="38.318425" lon="-2.268315">
        <ele>908</ele>
        <time>2014-08-24T10:42:46.48</time>
      </trkpt>
      <trkpt lat="38.318465" lon="-2.2681633333333333">
        <ele>907</ele>
        <time>2014-08-24T10:42:47.48</time>
      </trkpt>
      <trkpt lat="38.31853" lon="-2.26803">
        <ele>907</ele>
        <time>2014-08-24T10:42:48.49</time>
      </trkpt>
      <trkpt lat="38.318615" lon="-2.267905">
        <ele>905</ele>
        <time>2014-08-24T10:42:49.48</time>
      </trkpt>
      <trkpt lat="38.318705" lon="-2.267805">
        <ele>904</ele>
        <time>2014-08-24T10:42:50.48</time>
      </trkpt>
      <trkpt lat="38.318785" lon="-2.2677300000000002">
        <ele>903</ele>
        <time>2014-08-24T10:42:51.48</time>
      </trkpt>
      <trkpt lat="38.31886" lon="-2.267675">
        <ele>903</ele>
        <time>2014-08-24T10:42:52.48</time>
      </trkpt>
      <trkpt lat="38.31894" lon="-2.2677016666666665">
        <ele>902</ele>
        <time>2014-08-24T10:42:53.47</time>
      </trkpt>
      <trkpt lat="38.31904" lon="-2.267735">
        <ele>903</ele>
        <time>2014-08-24T10:42:54.49</time>
      </trkpt>
      <trkpt lat="38.319115" lon="-2.267785">
        <ele>903</ele>
        <time>2014-08-24T10:42:55.49</time>
      </trkpt>
      <trkpt lat="38.31919" lon="-2.267856666666667">
        <ele>902</ele>
        <time>2014-08-24T10:42:56.48</time>
      </trkpt>
      <trkpt lat="38.31925" lon="-2.267935">
        <ele>902</ele>
        <time>2014-08-24T10:42:57.47</time>
      </trkpt>
      <trkpt lat="38.319315" lon="-2.26802">
        <ele>901</ele>
        <time>2014-08-24T10:42:58.52</time>
      </trkpt>
      <trkpt lat="38.31939" lon="-2.268091666666667">
        <ele>900</ele>
        <time>2014-08-24T10:42:59.47</time>
      </trkpt>
      <trkpt lat="38.319475" lon="-2.268145">
        <ele>899</ele>
        <time>2014-08-24T10:43:00.48</time>
      </trkpt>
      <trkpt lat="38.319565" lon="-2.26816">
        <ele>897</ele>
        <time>2014-08-24T10:43:01.48</time>
      </trkpt>
      <trkpt lat="38.319665" lon="-2.268135">
        <ele>896</ele>
        <time>2014-08-24T10:43:02.47</time>
      </trkpt>
      <trkpt lat="38.31975" lon="-2.268066666666667">
        <ele>895</ele>
        <time>2014-08-24T10:43:03.47</time>
      </trkpt>
      <trkpt lat="38.319825" lon="-2.2679650000000002">
        <ele>894</ele>
        <time>2014-08-24T10:43:04.47</time>
      </trkpt>
      <trkpt lat="38.31988" lon="-2.26784">
        <ele>893</ele>
        <time>2014-08-24T10:43:05.48</time>
      </trkpt>
      <trkpt lat="38.31991" lon="-2.26771">
        <ele>892</ele>
        <time>2014-08-24T10:43:06.48</time>
      </trkpt>
      <trkpt lat="38.31993" lon="-2.267575">
        <ele>893</ele>
        <time>2014-08-24T10:43:07.48</time>
      </trkpt>
      <trkpt lat="38.31994" lon="-2.2674316666666665">
        <ele>891</ele>
        <time>2014-08-24T10:43:08.48</time>
      </trkpt>
      <trkpt lat="38.31995" lon="-2.267295">
        <ele>891</ele>
        <time>2014-08-24T10:43:09.48</time>
      </trkpt>
      <trkpt lat="38.319966666666666" lon="-2.26715">
        <ele>890</ele>
        <time>2014-08-24T10:43:10.42</time>
      </trkpt>
      <trkpt lat="38.319975" lon="-2.2670033333333333">
        <ele>888</ele>
        <time>2014-08-24T10:43:11.48</time>
      </trkpt>
      <trkpt lat="38.31998" lon="-2.266865">
        <ele>888</ele>
        <time>2014-08-24T10:43:12.48</time>
      </trkpt>
      <trkpt lat="38.32001" lon="-2.26673">
        <ele>887</ele>
        <time>2014-08-24T10:43:13.55</time>
      </trkpt>
      <trkpt lat="38.32005" lon="-2.266585">
        <ele>885</ele>
        <time>2014-08-24T10:43:14.48</time>
      </trkpt>
      <trkpt lat="38.320105" lon="-2.266445">
        <ele>884</ele>
        <time>2014-08-24T10:43:15.48</time>
      </trkpt>
      <trkpt lat="38.32017" lon="-2.26631">
        <ele>883</ele>
        <time>2014-08-24T10:43:16.47</time>
      </trkpt>
      <trkpt lat="38.320265" lon="-2.266185">
        <ele>883</ele>
        <time>2014-08-24T10:43:17.47</time>
      </trkpt>
      <trkpt lat="38.32036" lon="-2.266075">
        <ele>882</ele>
        <time>2014-08-24T10:43:18.48</time>
      </trkpt>
      <trkpt lat="38.320475" lon="-2.265965">
        <ele>882</ele>
        <time>2014-08-24T10:43:19.53</time>
      </trkpt>
      <trkpt lat="38.320585" lon="-2.265865">
        <ele>881</ele>
        <time>2014-08-24T10:43:20.54</time>
      </trkpt>
      <trkpt lat="38.32067" lon="-2.265755">
        <ele>879</ele>
        <time>2014-08-24T10:43:21.54</time>
      </trkpt>
      <trkpt lat="38.32076" lon="-2.2656366666666665">
        <ele>878</ele>
        <time>2014-08-24T10:43:22.55</time>
      </trkpt>
      <trkpt lat="38.32086" lon="-2.26551">
        <ele>877</ele>
        <time>2014-08-24T10:43:23.48</time>
      </trkpt>
      <trkpt lat="38.320935" lon="-2.26539">
        <ele>875</ele>
        <time>2014-08-24T10:43:24.47</time>
      </trkpt>
      <trkpt lat="38.321" lon="-2.265255">
        <ele>873</ele>
        <time>2014-08-24T10:43:25.48</time>
      </trkpt>
      <trkpt lat="38.321065" lon="-2.26511">
        <ele>872</ele>
        <time>2014-08-24T10:43:26.51</time>
      </trkpt>
      <trkpt lat="38.32112" lon="-2.26495">
        <ele>870</ele>
        <time>2014-08-24T10:43:27.42</time>
      </trkpt>
      <trkpt lat="38.321175" lon="-2.264785">
        <ele>869</ele>
        <time>2014-08-24T10:43:28.42</time>
      </trkpt>
      <trkpt lat="38.32122" lon="-2.26462">
        <ele>867</ele>
        <time>2014-08-24T10:43:29.51</time>
      </trkpt>
      <trkpt lat="38.321263333333334" lon="-2.26446">
        <ele>866</ele>
        <time>2014-08-24T10:43:30.46</time>
      </trkpt>
      <trkpt lat="38.32132" lon="-2.2643">
        <ele>864</ele>
        <time>2014-08-24T10:43:31.48</time>
      </trkpt>
      <trkpt lat="38.321365" lon="-2.264135">
        <ele>863</ele>
        <time>2014-08-24T10:43:32.47</time>
      </trkpt>
      <trkpt lat="38.321415" lon="-2.26398">
        <ele>862</ele>
        <time>2014-08-24T10:43:33.48</time>
      </trkpt>
      <trkpt lat="38.32146" lon="-2.263835">
        <ele>860</ele>
        <time>2014-08-24T10:43:34.50</time>
      </trkpt>
      <trkpt lat="38.32152" lon="-2.26369">
        <ele>860</ele>
        <time>2014-08-24T10:43:35.48</time>
      </trkpt>
      <trkpt lat="38.3216" lon="-2.263565">
        <ele>860</ele>
        <time>2014-08-24T10:43:36.48</time>
      </trkpt>
      <trkpt lat="38.3217" lon="-2.2634600000000002">
        <ele>859</ele>
        <time>2014-08-24T10:43:37.47</time>
      </trkpt>
      <trkpt lat="38.32181" lon="-2.263365">
        <ele>858</ele>
        <time>2014-08-24T10:43:38.48</time>
      </trkpt>
      <trkpt lat="38.32192" lon="-2.2632849999999998">
        <ele>858</ele>
        <time>2014-08-24T10:43:39.43</time>
      </trkpt>
      <trkpt lat="38.322045" lon="-2.263211666666667">
        <ele>857</ele>
        <time>2014-08-24T10:43:40.48</time>
      </trkpt>
      <trkpt lat="38.322155" lon="-2.26314">
        <ele>857</ele>
        <time>2014-08-24T10:43:41.48</time>
      </trkpt>
      <trkpt lat="38.322265" lon="-2.263055">
        <ele>857</ele>
        <time>2014-08-24T10:43:42.48</time>
      </trkpt>
      <trkpt lat="38.32238" lon="-2.262975">
        <ele>857</ele>
        <time>2014-08-24T10:43:43.48</time>
      </trkpt>
      <trkpt lat="38.3225" lon="-2.26289">
        <ele>856</ele>
        <time>2014-08-24T10:43:44.48</time>
      </trkpt>
      <trkpt lat="38.3226" lon="-2.26279">
        <ele>855</ele>
        <time>2014-08-24T10:43:45.48</time>
      </trkpt>
      <trkpt lat="38.322696666666666" lon="-2.2627">
        <ele>854</ele>
        <time>2014-08-24T10:43:46.48</time>
      </trkpt>
      <trkpt lat="38.322805" lon="-2.262635">
        <ele>854</ele>
        <time>2014-08-24T10:43:47.47</time>
      </trkpt>
      <trkpt lat="38.322915" lon="-2.262585">
        <ele>854</ele>
        <time>2014-08-24T10:43:48.48</time>
      </trkpt>
      <trkpt lat="38.32303" lon="-2.262555">
        <ele>855</ele>
        <time>2014-08-24T10:43:49.47</time>
      </trkpt>
      <trkpt lat="38.32316" lon="-2.2626">
        <ele>854</ele>
        <time>2014-08-24T10:43:50.47</time>
      </trkpt>
      <trkpt lat="38.32328" lon="-2.26265">
        <ele>853</ele>
        <time>2014-08-24T10:43:51.47</time>
      </trkpt>
      <trkpt lat="38.323395" lon="-2.2626983333333333">
        <ele>852</ele>
        <time>2014-08-24T10:43:52.46</time>
      </trkpt>
      <trkpt lat="38.323515" lon="-2.262725">
        <ele>850</ele>
        <time>2014-08-24T10:43:53.53</time>
      </trkpt>
      <trkpt lat="38.323635" lon="-2.262725">
        <ele>847</ele>
        <time>2014-08-24T10:43:54.48</time>
      </trkpt>
      <trkpt lat="38.32377" lon="-2.262715">
        <ele>846</ele>
        <time>2014-08-24T10:43:55.47</time>
      </trkpt>
      <trkpt lat="38.323905" lon="-2.26269">
        <ele>845</ele>
        <time>2014-08-24T10:43:56.48</time>
      </trkpt>
      <trkpt lat="38.324035" lon="-2.26265">
        <ele>844</ele>
        <time>2014-08-24T10:43:57.47</time>
      </trkpt>
      <trkpt lat="38.32416" lon="-2.262585">
        <ele>843</ele>
        <time>2014-08-24T10:43:58.48</time>
      </trkpt>
      <trkpt lat="38.324285" lon="-2.26252">
        <ele>843</ele>
        <time>2014-08-24T10:43:59.48</time>
      </trkpt>
      <trkpt lat="38.324395" lon="-2.262435">
        <ele>843</ele>
        <time>2014-08-24T10:44:00.50</time>
      </trkpt>
      <trkpt lat="38.324505" lon="-2.262345">
        <ele>843</ele>
        <time>2014-08-24T10:44:01.47</time>
      </trkpt>
      <trkpt lat="38.32461" lon="-2.26225">
        <ele>842</ele>
        <time>2014-08-24T10:44:02.48</time>
      </trkpt>
      <trkpt lat="38.324715" lon="-2.262165">
        <ele>841</ele>
        <time>2014-08-24T10:44:03.48</time>
      </trkpt>
      <trkpt lat="38.324815" lon="-2.26207">
        <ele>841</ele>
        <time>2014-08-24T10:44:04.48</time>
      </trkpt>
      <trkpt lat="38.324925" lon="-2.261985">
        <ele>842</ele>
        <time>2014-08-24T10:44:05.48</time>
      </trkpt>
      <trkpt lat="38.325035" lon="-2.2619">
        <ele>841</ele>
        <time>2014-08-24T10:44:06.47</time>
      </trkpt>
      <trkpt lat="38.325145" lon="-2.261805">
        <ele>841</ele>
        <time>2014-08-24T10:44:07.47</time>
      </trkpt>
      <trkpt lat="38.325255" lon="-2.261715">
        <ele>841</ele>
        <time>2014-08-24T10:44:08.47</time>
      </trkpt>
      <trkpt lat="38.325365" lon="-2.261615">
        <ele>842</ele>
        <time>2014-08-24T10:44:09.47</time>
      </trkpt>
      <trkpt lat="38.32548" lon="-2.26154">
        <ele>842</ele>
        <time>2014-08-24T10:44:10.42</time>
      </trkpt>
      <trkpt lat="38.32557666666667" lon="-2.261465">
        <ele>842</ele>
        <time>2014-08-24T10:44:11.47</time>
      </trkpt>
      <trkpt lat="38.325685" lon="-2.26139">
        <ele>842</ele>
        <time>2014-08-24T10:44:12.47</time>
      </trkpt>
      <trkpt lat="38.3258" lon="-2.261315">
        <ele>842</ele>
        <time>2014-08-24T10:44:13.47</time>
      </trkpt>
      <trkpt lat="38.32593" lon="-2.2612533333333333">
        <ele>842</ele>
        <time>2014-08-24T10:44:14.47</time>
      </trkpt>
      <trkpt lat="38.32604" lon="-2.261215">
        <ele>842</ele>
        <time>2014-08-24T10:44:15.48</time>
      </trkpt>
      <trkpt lat="38.32614" lon="-2.261115">
        <ele>841</ele>
        <time>2014-08-24T10:44:16.48</time>
      </trkpt>
      <trkpt lat="38.32624" lon="-2.261045">
        <ele>840</ele>
        <time>2014-08-24T10:44:17.47</time>
      </trkpt>
      <trkpt lat="38.32635" lon="-2.26099">
        <ele>840</ele>
        <time>2014-08-24T10:44:18.48</time>
      </trkpt>
      <trkpt lat="38.326455" lon="-2.26091">
        <ele>840</ele>
        <time>2014-08-24T10:44:19.48</time>
      </trkpt>
      <trkpt lat="38.32656333333333" lon="-2.260825">
        <ele>840</ele>
        <time>2014-08-24T10:44:20.48</time>
      </trkpt>
      <trkpt lat="38.326645" lon="-2.26071">
        <ele>839</ele>
        <time>2014-08-24T10:44:21.47</time>
      </trkpt>
      <trkpt lat="38.3267" lon="-2.26057">
        <ele>838</ele>
        <time>2014-08-24T10:44:22.48</time>
      </trkpt>
      <trkpt lat="38.32673" lon="-2.26041">
        <ele>836</ele>
        <time>2014-08-24T10:44:23.47</time>
      </trkpt>
      <trkpt lat="38.32674" lon="-2.2602349999999998">
        <ele>833</ele>
        <time>2014-08-24T10:44:24.47</time>
      </trkpt>
      <trkpt lat="38.326755" lon="-2.26007">
        <ele>830</ele>
        <time>2014-08-24T10:44:25.47</time>
      </trkpt>
      <trkpt lat="38.32678" lon="-2.259915">
        <ele>830</ele>
        <time>2014-08-24T10:44:26.47</time>
      </trkpt>
      <trkpt lat="38.3268" lon="-2.259765">
        <ele>829</ele>
        <time>2014-08-24T10:44:27.48</time>
      </trkpt>
      <trkpt lat="38.32683" lon="-2.259595">
        <ele>828</ele>
        <time>2014-08-24T10:44:28.48</time>
      </trkpt>
      <trkpt lat="38.326845" lon="-2.25944">
        <ele>827</ele>
        <time>2014-08-24T10:44:29.48</time>
      </trkpt>
      <trkpt lat="38.32687" lon="-2.259295">
        <ele>826</ele>
        <time>2014-08-24T10:44:30.47</time>
      </trkpt>
      <trkpt lat="38.326915" lon="-2.25914">
        <ele>825</ele>
        <time>2014-08-24T10:44:31.48</time>
      </trkpt>
      <trkpt lat="38.32697" lon="-2.259005">
        <ele>824</ele>
        <time>2014-08-24T10:44:32.60</time>
      </trkpt>
      <trkpt lat="38.327045" lon="-2.25888">
        <ele>822</ele>
        <time>2014-08-24T10:44:33.49</time>
      </trkpt>
      <trkpt lat="38.32712" lon="-2.258765">
        <ele>821</ele>
        <time>2014-08-24T10:44:34.48</time>
      </trkpt>
      <trkpt lat="38.327205" lon="-2.258645">
        <ele>820</ele>
        <time>2014-08-24T10:44:35.47</time>
      </trkpt>
      <trkpt lat="38.327285" lon="-2.25853">
        <ele>819</ele>
        <time>2014-08-24T10:44:36.47</time>
      </trkpt>
      <trkpt lat="38.327375" lon="-2.258425">
        <ele>818</ele>
        <time>2014-08-24T10:44:37.47</time>
      </trkpt>
      <trkpt lat="38.327465" lon="-2.258325">
        <ele>818</ele>
        <time>2014-08-24T10:44:38.47</time>
      </trkpt>
      <trkpt lat="38.32758" lon="-2.258225">
        <ele>818</ele>
        <time>2014-08-24T10:44:39.44</time>
      </trkpt>
      <trkpt lat="38.32769" lon="-2.25813">
        <ele>818</ele>
        <time>2014-08-24T10:44:40.47</time>
      </trkpt>
      <trkpt lat="38.32781" lon="-2.258045">
        <ele>818</ele>
        <time>2014-08-24T10:44:41.47</time>
      </trkpt>
      <trkpt lat="38.327925" lon="-2.257955">
        <ele>818</ele>
        <time>2014-08-24T10:44:42.47</time>
      </trkpt>
      <trkpt lat="38.32803" lon="-2.257875">
        <ele>818</ele>
        <time>2014-08-24T10:44:43.47</time>
      </trkpt>
      <trkpt lat="38.328155" lon="-2.25781">
        <ele>818</ele>
        <time>2014-08-24T10:44:44.49</time>
      </trkpt>
      <trkpt lat="38.32828" lon="-2.257735">
        <ele>818</ele>
        <time>2014-08-24T10:44:45.48</time>
      </trkpt>
      <trkpt lat="38.32839833333333" lon="-2.25765">
        <ele>818</ele>
        <time>2014-08-24T10:44:46.47</time>
      </trkpt>
      <trkpt lat="38.32849" lon="-2.257535">
        <ele>817</ele>
        <time>2014-08-24T10:44:47.47</time>
      </trkpt>
      <trkpt lat="38.328606666666666" lon="-2.25746">
        <ele>817</ele>
        <time>2014-08-24T10:44:48.47</time>
      </trkpt>
      <trkpt lat="38.32873" lon="-2.2574">
        <ele>817</ele>
        <time>2014-08-24T10:44:49.65</time>
      </trkpt>
      <trkpt lat="38.32884833333333" lon="-2.25733">
        <ele>817</ele>
        <time>2014-08-24T10:44:50.47</time>
      </trkpt>
      <trkpt lat="38.328965" lon="-2.257235">
        <ele>817</ele>
        <time>2014-08-24T10:44:51.47</time>
      </trkpt>
      <trkpt lat="38.32909" lon="-2.25716">
        <ele>817</ele>
        <time>2014-08-24T10:44:52.47</time>
      </trkpt>
      <trkpt lat="38.32921" lon="-2.25706">
        <ele>817</ele>
        <time>2014-08-24T10:44:53.47</time>
      </trkpt>
      <trkpt lat="38.32931" lon="-2.256936666666667">
        <ele>816</ele>
        <time>2014-08-24T10:44:54.47</time>
      </trkpt>
      <trkpt lat="38.32942" lon="-2.25684">
        <ele>815</ele>
        <time>2014-08-24T10:44:55.62</time>
      </trkpt>
      <trkpt lat="38.32954" lon="-2.25675">
        <ele>814</ele>
        <time>2014-08-24T10:44:56.47</time>
      </trkpt>
      <trkpt lat="38.32965" lon="-2.2566766666666664">
        <ele>814</ele>
        <time>2014-08-24T10:44:57.47</time>
      </trkpt>
      <trkpt lat="38.329775" lon="-2.25663">
        <ele>814</ele>
        <time>2014-08-24T10:44:58.47</time>
      </trkpt>
      <trkpt lat="38.329915" lon="-2.25659">
        <ele>811</ele>
        <time>2014-08-24T10:44:59.47</time>
      </trkpt>
      <trkpt lat="38.33005" lon="-2.25657">
        <ele>810</ele>
        <time>2014-08-24T10:45:00.47</time>
      </trkpt>
      <trkpt lat="38.33017" lon="-2.25653">
        <ele>809</ele>
        <time>2014-08-24T10:45:01.47</time>
      </trkpt>
      <trkpt lat="38.330275" lon="-2.256435">
        <ele>806</ele>
        <time>2014-08-24T10:45:02.47</time>
      </trkpt>
      <trkpt lat="38.330365" lon="-2.25634">
        <ele>806</ele>
        <time>2014-08-24T10:45:03.47</time>
      </trkpt>
      <trkpt lat="38.330436666666664" lon="-2.25618">
        <ele>803</ele>
        <time>2014-08-24T10:45:04.47</time>
      </trkpt>
      <trkpt lat="38.330485" lon="-2.256025">
        <ele>801</ele>
        <time>2014-08-24T10:45:05.47</time>
      </trkpt>
      <trkpt lat="38.330535" lon="-2.255866666666667">
        <ele>799</ele>
        <time>2014-08-24T10:45:06.47</time>
      </trkpt>
      <trkpt lat="38.330575" lon="-2.255725">
        <ele>798</ele>
        <time>2014-08-24T10:45:07.47</time>
      </trkpt>
      <trkpt lat="38.330625" lon="-2.255575">
        <ele>796</ele>
        <time>2014-08-24T10:45:08.48</time>
      </trkpt>
      <trkpt lat="38.330675" lon="-2.255415">
        <ele>795</ele>
        <time>2014-08-24T10:45:09.48</time>
      </trkpt>
      <trkpt lat="38.330725" lon="-2.25527">
        <ele>793</ele>
        <time>2014-08-24T10:45:10.42</time>
      </trkpt>
      <trkpt lat="38.33079" lon="-2.25512">
        <ele>792</ele>
        <time>2014-08-24T10:45:11.42</time>
      </trkpt>
      <trkpt lat="38.33086" lon="-2.25499">
        <ele>790</ele>
        <time>2014-08-24T10:45:12.42</time>
      </trkpt>
      <trkpt lat="38.330965" lon="-2.2548733333333333">
        <ele>790</ele>
        <time>2014-08-24T10:45:13.42</time>
      </trkpt>
      <trkpt lat="38.33108" lon="-2.254785">
        <ele>789</ele>
        <time>2014-08-24T10:45:14.48</time>
      </trkpt>
      <trkpt lat="38.33119" lon="-2.2546933333333334">
        <ele>789</ele>
        <time>2014-08-24T10:45:15.47</time>
      </trkpt>
      <trkpt lat="38.33133" lon="-2.25464">
        <ele>788</ele>
        <time>2014-08-24T10:45:16.47</time>
      </trkpt>
      <trkpt lat="38.33146" lon="-2.25459">
        <ele>787</ele>
        <time>2014-08-24T10:45:17.61</time>
      </trkpt>
      <trkpt lat="38.33157666666666" lon="-2.254525">
        <ele>786</ele>
        <time>2014-08-24T10:45:18.47</time>
      </trkpt>
      <trkpt lat="38.331705" lon="-2.254465">
        <ele>785</ele>
        <time>2014-08-24T10:45:19.48</time>
      </trkpt>
      <trkpt lat="38.331835" lon="-2.254405">
        <ele>784</ele>
        <time>2014-08-24T10:45:20.48</time>
      </trkpt>
      <trkpt lat="38.33197" lon="-2.25434">
        <ele>783</ele>
        <time>2014-08-24T10:45:21.48</time>
      </trkpt>
      <trkpt lat="38.33209" lon="-2.254255">
        <ele>782</ele>
        <time>2014-08-24T10:45:22.47</time>
      </trkpt>
      <trkpt lat="38.33222" lon="-2.25418">
        <ele>782</ele>
        <time>2014-08-24T10:45:23.47</time>
      </trkpt>
      <trkpt lat="38.33234" lon="-2.254095">
        <ele>782</ele>
        <time>2014-08-24T10:45:24.47</time>
      </trkpt>
      <trkpt lat="38.33246" lon="-2.25401">
        <ele>782</ele>
        <time>2014-08-24T10:45:25.47</time>
      </trkpt>
      <trkpt lat="38.33257" lon="-2.25392">
        <ele>782</ele>
        <time>2014-08-24T10:45:26.48</time>
      </trkpt>
      <trkpt lat="38.332685" lon="-2.25383">
        <ele>783</ele>
        <time>2014-08-24T10:45:27.48</time>
      </trkpt>
      <trkpt lat="38.3328" lon="-2.253725">
        <ele>782</ele>
        <time>2014-08-24T10:45:28.48</time>
      </trkpt>
      <trkpt lat="38.332915" lon="-2.253625">
        <ele>780</ele>
        <time>2014-08-24T10:45:29.48</time>
      </trkpt>
      <trkpt lat="38.333025" lon="-2.253525">
        <ele>779</ele>
        <time>2014-08-24T10:45:30.47</time>
      </trkpt>
      <trkpt lat="38.333135" lon="-2.253425">
        <ele>778</ele>
        <time>2014-08-24T10:45:31.48</time>
      </trkpt>
      <trkpt lat="38.333245" lon="-2.253315">
        <ele>778</ele>
        <time>2014-08-24T10:45:32.47</time>
      </trkpt>
      <trkpt lat="38.33336" lon="-2.25323">
        <ele>779</ele>
        <time>2014-08-24T10:45:33.47</time>
      </trkpt>
      <trkpt lat="38.333475" lon="-2.253135">
        <ele>778</ele>
        <time>2014-08-24T10:45:34.47</time>
      </trkpt>
      <trkpt lat="38.333585" lon="-2.253045">
        <ele>777</ele>
        <time>2014-08-24T10:45:35.48</time>
      </trkpt>
      <trkpt lat="38.333686666666665" lon="-2.252925">
        <ele>776</ele>
        <time>2014-08-24T10:45:36.46</time>
      </trkpt>
      <trkpt lat="38.3338" lon="-2.252815">
        <ele>774</ele>
        <time>2014-08-24T10:45:37.46</time>
      </trkpt>
      <trkpt lat="38.33391" lon="-2.25272">
        <ele>774</ele>
        <time>2014-08-24T10:45:38.47</time>
      </trkpt>
      <trkpt lat="38.334025" lon="-2.25263">
        <ele>774</ele>
        <time>2014-08-24T10:45:39.46</time>
      </trkpt>
      <trkpt lat="38.33413" lon="-2.252515">
        <ele>771</ele>
        <time>2014-08-24T10:45:40.47</time>
      </trkpt>
      <trkpt lat="38.334255" lon="-2.252415">
        <ele>770</ele>
        <time>2014-08-24T10:45:41.46</time>
      </trkpt>
      <trkpt lat="38.334361666666666" lon="-2.25232">
        <ele>769</ele>
        <time>2014-08-24T10:45:42.42</time>
      </trkpt>
      <trkpt lat="38.33448" lon="-2.252205">
        <ele>767</ele>
        <time>2014-08-24T10:45:43.46</time>
      </trkpt>
      <trkpt lat="38.33459" lon="-2.2521">
        <ele>765</ele>
        <time>2014-08-24T10:45:44.47</time>
      </trkpt>
      <trkpt lat="38.3347" lon="-2.25199">
        <ele>764</ele>
        <time>2014-08-24T10:45:45.47</time>
      </trkpt>
      <trkpt lat="38.33482" lon="-2.251885">
        <ele>764</ele>
        <time>2014-08-24T10:45:46.47</time>
      </trkpt>
      <trkpt lat="38.33493" lon="-2.25177">
        <ele>763</ele>
        <time>2014-08-24T10:45:47.47</time>
      </trkpt>
      <trkpt lat="38.33503" lon="-2.25163">
        <ele>760</ele>
        <time>2014-08-24T10:45:48.47</time>
      </trkpt>
      <trkpt lat="38.335121666666666" lon="-2.2514950000000002">
        <ele>758</ele>
        <time>2014-08-24T10:45:49.47</time>
      </trkpt>
      <trkpt lat="38.335210000000004" lon="-2.251345">
        <ele>754</ele>
        <time>2014-08-24T10:45:50.48</time>
      </trkpt>
      <trkpt lat="38.335305" lon="-2.251215">
        <ele>753</ele>
        <time>2014-08-24T10:45:51.41</time>
      </trkpt>
      <trkpt lat="38.335395" lon="-2.251075">
        <ele>752</ele>
        <time>2014-08-24T10:45:52.41</time>
      </trkpt>
      <trkpt lat="38.33549" lon="-2.25094">
        <ele>751</ele>
        <time>2014-08-24T10:45:53.46</time>
      </trkpt>
      <trkpt lat="38.33558" lon="-2.2508">
        <ele>749</ele>
        <time>2014-08-24T10:45:54.47</time>
      </trkpt>
      <trkpt lat="38.33567333333333" lon="-2.250655">
        <ele>749</ele>
        <time>2014-08-24T10:45:55.47</time>
      </trkpt>
      <trkpt lat="38.335765" lon="-2.25052">
        <ele>747</ele>
        <time>2014-08-24T10:45:56.47</time>
      </trkpt>
      <trkpt lat="38.33586" lon="-2.25038">
        <ele>746</ele>
        <time>2014-08-24T10:45:57.58</time>
      </trkpt>
      <trkpt lat="38.33596" lon="-2.25024">
        <ele>745</ele>
        <time>2014-08-24T10:45:58.47</time>
      </trkpt>
      <trkpt lat="38.336055" lon="-2.2500983333333333">
        <ele>744</ele>
        <time>2014-08-24T10:45:59.46</time>
      </trkpt>
      <trkpt lat="38.336155" lon="-2.24995">
        <ele>742</ele>
        <time>2014-08-24T10:46:00.47</time>
      </trkpt>
      <trkpt lat="38.33625" lon="-2.24981">
        <ele>741</ele>
        <time>2014-08-24T10:46:01.47</time>
      </trkpt>
      <trkpt lat="38.33634833333333" lon="-2.2496783333333332">
        <ele>740</ele>
        <time>2014-08-24T10:46:02.47</time>
      </trkpt>
      <trkpt lat="38.336455" lon="-2.249555">
        <ele>739</ele>
        <time>2014-08-24T10:46:03.46</time>
      </trkpt>
      <trkpt lat="38.336565" lon="-2.249445">
        <ele>739</ele>
        <time>2014-08-24T10:46:04.46</time>
      </trkpt>
      <trkpt lat="38.336685" lon="-2.24933">
        <ele>739</ele>
        <time>2014-08-24T10:46:05.47</time>
      </trkpt>
      <trkpt lat="38.33683" lon="-2.24924">
        <ele>738</ele>
        <time>2014-08-24T10:46:06.47</time>
      </trkpt>
      <trkpt lat="38.336965" lon="-2.2491333333333334">
        <ele>739</ele>
        <time>2014-08-24T10:46:07.46</time>
      </trkpt>
      <trkpt lat="38.33711" lon="-2.2490683333333332">
        <ele>738</ele>
        <time>2014-08-24T10:46:08.46</time>
      </trkpt>
      <trkpt lat="38.337248333333335" lon="-2.249">
        <ele>738</ele>
        <time>2014-08-24T10:46:09.59</time>
      </trkpt>
      <trkpt lat="38.337385" lon="-2.248945">
        <ele>738</ele>
        <time>2014-08-24T10:46:10.42</time>
      </trkpt>
      <trkpt lat="38.337515" lon="-2.24889">
        <ele>737</ele>
        <time>2014-08-24T10:46:11.46</time>
      </trkpt>
      <trkpt lat="38.33764333333333" lon="-2.24884">
        <ele>737</ele>
        <time>2014-08-24T10:46:12.46</time>
      </trkpt>
      <trkpt lat="38.33777" lon="-2.248771666666667">
        <ele>737</ele>
        <time>2014-08-24T10:46:13.46</time>
      </trkpt>
      <trkpt lat="38.3379" lon="-2.248735">
        <ele>737</ele>
        <time>2014-08-24T10:46:14.46</time>
      </trkpt>
      <trkpt lat="38.33803" lon="-2.2487">
        <ele>737</ele>
        <time>2014-08-24T10:46:15.55</time>
      </trkpt>
      <trkpt lat="38.338175" lon="-2.24867">
        <ele>737</ele>
        <time>2014-08-24T10:46:16.42</time>
      </trkpt>
      <trkpt lat="38.338325" lon="-2.248645">
        <ele>736</ele>
        <time>2014-08-24T10:46:17.46</time>
      </trkpt>
      <trkpt lat="38.33847" lon="-2.248605">
        <ele>736</ele>
        <time>2014-08-24T10:46:18.46</time>
      </trkpt>
      <trkpt lat="38.338595" lon="-2.248575">
        <ele>736</ele>
        <time>2014-08-24T10:46:19.46</time>
      </trkpt>
      <trkpt lat="38.33872" lon="-2.24856">
        <ele>736</ele>
        <time>2014-08-24T10:46:20.46</time>
      </trkpt>
      <trkpt lat="38.33885" lon="-2.24852">
        <ele>736</ele>
        <time>2014-08-24T10:46:21.47</time>
      </trkpt>
      <trkpt lat="38.33898666666666" lon="-2.24847">
        <ele>735</ele>
        <time>2014-08-24T10:46:22.47</time>
      </trkpt>
      <trkpt lat="38.339125" lon="-2.2484">
        <ele>734</ele>
        <time>2014-08-24T10:46:23.47</time>
      </trkpt>
      <trkpt lat="38.339265" lon="-2.248375">
        <ele>734</ele>
        <time>2014-08-24T10:46:24.46</time>
      </trkpt>
      <trkpt lat="38.3394" lon="-2.24836">
        <ele>734</ele>
        <time>2014-08-24T10:46:25.46</time>
      </trkpt>
      <trkpt lat="38.339528333333334" lon="-2.248335">
        <ele>734</ele>
        <time>2014-08-24T10:46:26.47</time>
      </trkpt>
      <trkpt lat="38.33965" lon="-2.248275">
        <ele>733</ele>
        <time>2014-08-24T10:46:27.46</time>
      </trkpt>
      <trkpt lat="38.33976" lon="-2.248215">
        <ele>729</ele>
        <time>2014-08-24T10:46:28.47</time>
      </trkpt>
      <trkpt lat="38.33988" lon="-2.24818">
        <ele>729</ele>
        <time>2014-08-24T10:46:29.47</time>
      </trkpt>
      <trkpt lat="38.340005" lon="-2.2481483333333334">
        <ele>729</ele>
        <time>2014-08-24T10:46:30.46</time>
      </trkpt>
      <trkpt lat="38.340125" lon="-2.24812">
        <ele>729</ele>
        <time>2014-08-24T10:46:31.46</time>
      </trkpt>
      <trkpt lat="38.34025" lon="-2.24809">
        <ele>729</ele>
        <time>2014-08-24T10:46:32.46</time>
      </trkpt>
      <trkpt lat="38.340375" lon="-2.248055">
        <ele>728</ele>
        <time>2014-08-24T10:46:33.46</time>
      </trkpt>
      <trkpt lat="38.34049" lon="-2.24803">
        <ele>727</ele>
        <time>2014-08-24T10:46:34.46</time>
      </trkpt>
      <trkpt lat="38.340583333333335" lon="-2.248">
        <ele>726</ele>
        <time>2014-08-24T10:46:35.46</time>
      </trkpt>
      <trkpt lat="38.340675" lon="-2.247985">
        <ele>726</ele>
        <time>2014-08-24T10:46:36.46</time>
      </trkpt>
      <trkpt lat="38.34075" lon="-2.247965">
        <ele>725</ele>
        <time>2014-08-24T10:46:37.46</time>
      </trkpt>
      <trkpt lat="38.34082" lon="-2.24795">
        <ele>725</ele>
        <time>2014-08-24T10:46:38.46</time>
      </trkpt>
      <trkpt lat="38.340905" lon="-2.24787">
        <ele>720</ele>
        <time>2014-08-24T10:46:40.47</time>
      </trkpt>
      <trkpt lat="38.34097833333333" lon="-2.24786">
        <ele>718</ele>
        <time>2014-08-24T10:46:42.48</time>
      </trkpt>
      <trkpt lat="38.34107" lon="-2.247945">
        <ele>717</ele>
        <time>2014-08-24T10:46:45.47</time>
      </trkpt>
      <trkpt lat="38.3411" lon="-2.24806">
        <ele>716</ele>
        <time>2014-08-24T10:46:47.47</time>
      </trkpt>
      <trkpt lat="38.341125" lon="-2.248195">
        <ele>716</ele>
        <time>2014-08-24T10:46:49.47</time>
      </trkpt>
      <trkpt lat="38.341155" lon="-2.248335">
        <ele>716</ele>
        <time>2014-08-24T10:46:51.48</time>
      </trkpt>
      <trkpt lat="38.34118" lon="-2.24849">
        <ele>716</ele>
        <time>2014-08-24T10:46:53.47</time>
      </trkpt>
      <trkpt lat="38.3412" lon="-2.248645">
        <ele>715</ele>
        <time>2014-08-24T10:46:55.47</time>
      </trkpt>
      <trkpt lat="38.341235" lon="-2.24875">
        <ele>714</ele>
        <time>2014-08-24T10:46:57.47</time>
      </trkpt>
      <trkpt lat="38.34123" lon="-2.24878">
        <ele>717</ele>
        <time>2014-08-24T10:47:04.47</time>
      </trkpt>
      <trkpt lat="38.341235" lon="-2.248765">
        <ele>716</ele>
        <time>2014-08-24T10:47:09.46</time>
      </trkpt>
      <trkpt lat="38.341225" lon="-2.24865">
        <ele>715</ele>
        <time>2014-08-24T10:47:16.47</time>
      </trkpt>
      <trkpt lat="38.341195" lon="-2.248565">
        <ele>716</ele>
        <time>2014-08-24T10:47:18.47</time>
      </trkpt>
      <trkpt lat="38.341165" lon="-2.248465">
        <ele>716</ele>
        <time>2014-08-24T10:47:20.42</time>
      </trkpt>
      <trkpt lat="38.34114" lon="-2.24837">
        <ele>716</ele>
        <time>2014-08-24T10:47:22.42</time>
      </trkpt>
      <trkpt lat="38.341116666666665" lon="-2.24827">
        <ele>716</ele>
        <time>2014-08-24T10:47:24.47</time>
      </trkpt>
      <trkpt lat="38.34107" lon="-2.248135">
        <ele>716</ele>
        <time>2014-08-24T10:47:26.59</time>
      </trkpt>
      <trkpt lat="38.34102" lon="-2.24802">
        <ele>716</ele>
        <time>2014-08-24T10:47:28.43</time>
      </trkpt>
      <trkpt lat="38.340995" lon="-2.2478833333333332">
        <ele>716</ele>
        <time>2014-08-24T10:47:30.43</time>
      </trkpt>
      <trkpt lat="38.34095833333333" lon="-2.24776">
        <ele>716</ele>
        <time>2014-08-24T10:47:32.60</time>
      </trkpt>
      <trkpt lat="38.340915" lon="-2.24762">
        <ele>716</ele>
        <time>2014-08-24T10:47:34.47</time>
      </trkpt>
      <trkpt lat="38.34089" lon="-2.247465">
        <ele>716</ele>
        <time>2014-08-24T10:47:36.43</time>
      </trkpt>
      <trkpt lat="38.340855" lon="-2.24731">
        <ele>715</ele>
        <time>2014-08-24T10:47:38.43</time>
      </trkpt>
      <trkpt lat="38.34085" lon="-2.24715">
        <ele>716</ele>
        <time>2014-08-24T10:47:40.47</time>
      </trkpt>
      <trkpt lat="38.34084" lon="-2.246985">
        <ele>717</ele>
        <time>2014-08-24T10:47:42.55</time>
      </trkpt>
      <trkpt lat="38.340803333333334" lon="-2.24683">
        <ele>717</ele>
        <time>2014-08-24T10:47:44.47</time>
      </trkpt>
      <trkpt lat="38.34077" lon="-2.24666">
        <ele>717</ele>
        <time>2014-08-24T10:47:46.47</time>
      </trkpt>
      <trkpt lat="38.34073333333333" lon="-2.246495">
        <ele>717</ele>
        <time>2014-08-24T10:47:48.47</time>
      </trkpt>
      <trkpt lat="38.340755" lon="-2.246405">
        <ele>716</ele>
        <time>2014-08-24T10:47:49.48</time>
      </trkpt>
      <trkpt lat="38.340736666666665" lon="-2.246235">
        <ele>716</ele>
        <time>2014-08-24T10:47:51.49</time>
      </trkpt>
      <trkpt lat="38.34072" lon="-2.246145">
        <ele>716</ele>
        <time>2014-08-24T10:47:52.47</time>
      </trkpt>
      <trkpt lat="38.34072" lon="-2.245965">
        <ele>715</ele>
        <time>2014-08-24T10:47:54.46</time>
      </trkpt>
      <trkpt lat="38.34069" lon="-2.2458">
        <ele>711</ele>
        <time>2014-08-24T10:47:56.47</time>
      </trkpt>
      <trkpt lat="38.34069" lon="-2.2457">
        <ele>710</ele>
        <time>2014-08-24T10:47:57.47</time>
      </trkpt>
      <trkpt lat="38.3407" lon="-2.245595">
        <ele>710</ele>
        <time>2014-08-24T10:47:58.48</time>
      </trkpt>
      <trkpt lat="38.34073" lon="-2.245485">
        <ele>709</ele>
        <time>2014-08-24T10:47:59.48</time>
      </trkpt>
      <trkpt lat="38.340745" lon="-2.2453666666666665">
        <ele>708</ele>
        <time>2014-08-24T10:48:00.47</time>
      </trkpt>
      <trkpt lat="38.34076" lon="-2.24526">
        <ele>709</ele>
        <time>2014-08-24T10:48:01.47</time>
      </trkpt>
      <trkpt lat="38.34078" lon="-2.245135">
        <ele>708</ele>
        <time>2014-08-24T10:48:02.48</time>
      </trkpt>
      <trkpt lat="38.34079" lon="-2.245016666666667">
        <ele>709</ele>
        <time>2014-08-24T10:48:03.48</time>
      </trkpt>
      <trkpt lat="38.340803333333334" lon="-2.2449">
        <ele>707</ele>
        <time>2014-08-24T10:48:04.50</time>
      </trkpt>
      <trkpt lat="38.34082333333333" lon="-2.244775">
        <ele>707</ele>
        <time>2014-08-24T10:48:05.47</time>
      </trkpt>
      <trkpt lat="38.34083" lon="-2.24465">
        <ele>706</ele>
        <time>2014-08-24T10:48:06.48</time>
      </trkpt>
      <trkpt lat="38.340845" lon="-2.244525">
        <ele>705</ele>
        <time>2014-08-24T10:48:07.47</time>
      </trkpt>
      <trkpt lat="38.340855" lon="-2.2443983333333333">
        <ele>705</ele>
        <time>2014-08-24T10:48:08.48</time>
      </trkpt>
      <trkpt lat="38.34087" lon="-2.24427">
        <ele>704</ele>
        <time>2014-08-24T10:48:09.47</time>
      </trkpt>
      <trkpt lat="38.340885" lon="-2.24414">
        <ele>703</ele>
        <time>2014-08-24T10:48:10.41</time>
      </trkpt>
      <trkpt lat="38.340893333333334" lon="-2.244015">
        <ele>703</ele>
        <time>2014-08-24T10:48:11.47</time>
      </trkpt>
      <trkpt lat="38.340915" lon="-2.24389">
        <ele>702</ele>
        <time>2014-08-24T10:48:12.58</time>
      </trkpt>
      <trkpt lat="38.340925" lon="-2.24376">
        <ele>702</ele>
        <time>2014-08-24T10:48:13.48</time>
      </trkpt>
      <trkpt lat="38.340935" lon="-2.243635">
        <ele>701</ele>
        <time>2014-08-24T10:48:14.47</time>
      </trkpt>
      <trkpt lat="38.340955" lon="-2.243505">
        <ele>700</ele>
        <time>2014-08-24T10:48:15.47</time>
      </trkpt>
      <trkpt lat="38.34096" lon="-2.24338">
        <ele>699</ele>
        <time>2014-08-24T10:48:16.47</time>
      </trkpt>
      <trkpt lat="38.34097833333333" lon="-2.243245">
        <ele>698</ele>
        <time>2014-08-24T10:48:17.47</time>
      </trkpt>
      <trkpt lat="38.340995" lon="-2.24311">
        <ele>697</ele>
        <time>2014-08-24T10:48:18.67</time>
      </trkpt>
      <trkpt lat="38.34101" lon="-2.242965">
        <ele>697</ele>
        <time>2014-08-24T10:48:19.51</time>
      </trkpt>
      <trkpt lat="38.34102" lon="-2.242825">
        <ele>697</ele>
        <time>2014-08-24T10:48:20.47</time>
      </trkpt>
      <trkpt lat="38.341045" lon="-2.2426816666666665">
        <ele>698</ele>
        <time>2014-08-24T10:48:21.47</time>
      </trkpt>
      <trkpt lat="38.34106" lon="-2.24255">
        <ele>698</ele>
        <time>2014-08-24T10:48:22.47</time>
      </trkpt>
      <trkpt lat="38.341075000000004" lon="-2.24242">
        <ele>697</ele>
        <time>2014-08-24T10:48:23.46</time>
      </trkpt>
      <trkpt lat="38.34109" lon="-2.242295">
        <ele>698</ele>
        <time>2014-08-24T10:48:24.47</time>
      </trkpt>
      <trkpt lat="38.3411" lon="-2.24218">
        <ele>699</ele>
        <time>2014-08-24T10:48:25.47</time>
      </trkpt>
      <trkpt lat="38.34111" lon="-2.2420633333333333">
        <ele>700</ele>
        <time>2014-08-24T10:48:26.50</time>
      </trkpt>
      <trkpt lat="38.34111166666667" lon="-2.24196">
        <ele>700</ele>
        <time>2014-08-24T10:48:27.49</time>
      </trkpt>
      <trkpt lat="38.341115" lon="-2.241865">
        <ele>701</ele>
        <time>2014-08-24T10:48:28.47</time>
      </trkpt>
      <trkpt lat="38.34111333333333" lon="-2.24177">
        <ele>701</ele>
        <time>2014-08-24T10:48:29.47</time>
      </trkpt>
      <trkpt lat="38.34111166666667" lon="-2.24161">
        <ele>702</ele>
        <time>2014-08-24T10:48:31.47</time>
      </trkpt>
      <trkpt lat="38.341115" lon="-2.241475">
        <ele>703</ele>
        <time>2014-08-24T10:48:33.47</time>
      </trkpt>
      <trkpt lat="38.341105" lon="-2.24136">
        <ele>704</ele>
        <time>2014-08-24T10:48:35.47</time>
      </trkpt>
      <trkpt lat="38.341085" lon="-2.24125">
        <ele>704</ele>
        <time>2014-08-24T10:48:37.47</time>
      </trkpt>
      <trkpt lat="38.341075000000004" lon="-2.241145">
        <ele>705</ele>
        <time>2014-08-24T10:48:39.43</time>
      </trkpt>
      <trkpt lat="38.341045" lon="-2.24104">
        <ele>705</ele>
        <time>2014-08-24T10:48:41.46</time>
      </trkpt>
      <trkpt lat="38.34103" lon="-2.240915">
        <ele>704</ele>
        <time>2014-08-24T10:48:43.51</time>
      </trkpt>
      <trkpt lat="38.341015" lon="-2.24079">
        <ele>705</ele>
        <time>2014-08-24T10:48:45.45</time>
      </trkpt>
      <trkpt lat="38.34101" lon="-2.240655">
        <ele>705</ele>
        <time>2014-08-24T10:48:47.47</time>
      </trkpt>
      <trkpt lat="38.340995" lon="-2.240545">
        <ele>705</ele>
        <time>2014-08-24T10:48:49.47</time>
      </trkpt>
      <trkpt lat="38.340995" lon="-2.240435">
        <ele>706</ele>
        <time>2014-08-24T10:48:51.59</time>
      </trkpt>
      <trkpt lat="38.34102" lon="-2.24033">
        <ele>707</ele>
        <time>2014-08-24T10:48:53.47</time>
      </trkpt>
      <trkpt lat="38.341055" lon="-2.24023">
        <ele>706</ele>
        <time>2014-08-24T10:48:55.47</time>
      </trkpt>
      <trkpt lat="38.341095" lon="-2.240145">
        <ele>706</ele>
        <time>2014-08-24T10:48:57.47</time>
      </trkpt>
      <trkpt lat="38.341165" lon="-2.240065">
        <ele>707</ele>
        <time>2014-08-24T10:48:59.47</time>
      </trkpt>
      <trkpt lat="38.341245" lon="-2.239995">
        <ele>707</ele>
        <time>2014-08-24T10:49:01.46</time>
      </trkpt>
      <trkpt lat="38.341325" lon="-2.23994">
        <ele>708</ele>
        <time>2014-08-24T10:49:03.47</time>
      </trkpt>
      <trkpt lat="38.34141" lon="-2.239885">
        <ele>709</ele>
        <time>2014-08-24T10:49:05.53</time>
      </trkpt>
      <trkpt lat="38.341495" lon="-2.239835">
        <ele>709</ele>
        <time>2014-08-24T10:49:07.46</time>
      </trkpt>
      <trkpt lat="38.34158" lon="-2.23978">
        <ele>709</ele>
        <time>2014-08-24T10:49:09.46</time>
      </trkpt>
      <trkpt lat="38.34166" lon="-2.2397183333333333">
        <ele>709</ele>
        <time>2014-08-24T10:49:11.50</time>
      </trkpt>
      <trkpt lat="38.341735" lon="-2.23966">
        <ele>709</ele>
        <time>2014-08-24T10:49:13.47</time>
      </trkpt>
      <trkpt lat="38.341805" lon="-2.239595">
        <ele>710</ele>
        <time>2014-08-24T10:49:15.54</time>
      </trkpt>
      <trkpt lat="38.34187" lon="-2.239525">
        <ele>710</ele>
        <time>2014-08-24T10:49:17.46</time>
      </trkpt>
      <trkpt lat="38.341925" lon="-2.2394433333333335">
        <ele>710</ele>
        <time>2014-08-24T10:49:19.46</time>
      </trkpt>
      <trkpt lat="38.341975" lon="-2.23937">
        <ele>709</ele>
        <time>2014-08-24T10:49:21.46</time>
      </trkpt>
      <trkpt lat="38.342025" lon="-2.23929">
        <ele>710</ele>
        <time>2014-08-24T10:49:23.46</time>
      </trkpt>
      <trkpt lat="38.342075" lon="-2.239205">
        <ele>710</ele>
        <time>2014-08-24T10:49:25.47</time>
      </trkpt>
      <trkpt lat="38.342115" lon="-2.23912">
        <ele>713</ele>
        <time>2014-08-24T10:49:27.49</time>
      </trkpt>
      <trkpt lat="38.34215" lon="-2.239035">
        <ele>714</ele>
        <time>2014-08-24T10:49:30.47</time>
      </trkpt>
      <trkpt lat="38.342195" lon="-2.238915">
        <ele>715</ele>
        <time>2014-08-24T10:49:34.47</time>
      </trkpt>
      <trkpt lat="38.34222" lon="-2.23882">
        <ele>716</ele>
        <time>2014-08-24T10:49:37.47</time>
      </trkpt>
      <trkpt lat="38.342235" lon="-2.238695">
        <ele>716</ele>
        <time>2014-08-24T10:49:40.47</time>
      </trkpt>
      <trkpt lat="38.34225" lon="-2.238595">
        <ele>716</ele>
        <time>2014-08-24T10:49:42.45</time>
      </trkpt>
      <trkpt lat="38.34225" lon="-2.2385">
        <ele>716</ele>
        <time>2014-08-24T10:49:44.47</time>
      </trkpt>
      <trkpt lat="38.34224" lon="-2.23839">
        <ele>716</ele>
        <time>2014-08-24T10:49:47.56</time>
      </trkpt>
      <trkpt lat="38.34222" lon="-2.238295">
        <ele>716</ele>
        <time>2014-08-24T10:49:50.47</time>
      </trkpt>
      <trkpt lat="38.34218" lon="-2.2381933333333333">
        <ele>716</ele>
        <time>2014-08-24T10:49:55.47</time>
      </trkpt>
      <trkpt lat="38.342185" lon="-2.238185">
        <ele>716</ele>
        <time>2014-08-24T10:50:02.48</time>
      </trkpt>
      <trkpt lat="38.342185" lon="-2.238185">
        <ele>717</ele>
        <time>2014-08-24T10:50:05.46</time>
      </trkpt>
      <trkpt lat="38.342195" lon="-2.238195">
        <ele>719</ele>
        <time>2014-08-24T10:50:52.42</time>
      </trkpt>
      <trkpt lat="38.3422" lon="-2.2382">
        <ele>719</ele>
        <time>2014-08-24T10:50:53.41</time>
      </trkpt>
      <trkpt lat="38.342185" lon="-2.23816">
        <ele>720</ele>
        <time>2014-08-24T10:51:06.42</time>
      </trkpt>
      <trkpt lat="38.342185" lon="-2.238155">
        <ele>721</ele>
        <time>2014-08-24T10:51:07.47</time>
      </trkpt>
      <trkpt lat="38.34217" lon="-2.23813">
        <ele>720</ele>
        <time>2014-08-24T10:51:15.47</time>
      </trkpt>
      <trkpt lat="38.34216833333333" lon="-2.23813">
        <ele>720</ele>
        <time>2014-08-24T10:51:16.47</time>
      </trkpt>
      <trkpt lat="38.34217" lon="-2.238135">
        <ele>722</ele>
        <time>2014-08-24T10:51:32.41</time>
      </trkpt>
      <trkpt lat="38.34217" lon="-2.238135">
        <ele>722</ele>
        <time>2014-08-24T10:51:33.45</time>
      </trkpt>
      <trkpt lat="38.34218" lon="-2.23812">
        <ele>720</ele>
        <time>2014-08-24T10:52:01.43</time>
      </trkpt>
      <trkpt lat="38.34218" lon="-2.23812">
        <ele>719</ele>
        <time>2014-08-24T10:52:02.41</time>
      </trkpt>
      <trkpt lat="38.342166666666664" lon="-2.238055">
        <ele>719</ele>
        <time>2014-08-24T10:52:21.62</time>
      </trkpt>
      <trkpt lat="38.34217" lon="-2.238055">
        <ele>719</ele>
        <time>2014-08-24T10:52:22.64</time>
      </trkpt>
      <trkpt lat="38.34215" lon="-2.23795">
        <ele>718</ele>
        <time>2014-08-24T10:52:29.74</time>
      </trkpt>
      <trkpt lat="38.34213" lon="-2.23783">
        <ele>719</ele>
        <time>2014-08-24T10:52:32.64</time>
      </trkpt>
      <trkpt lat="38.34209" lon="-2.23771">
        <ele>719</ele>
        <time>2014-08-24T10:52:35.64</time>
      </trkpt>
      <trkpt lat="38.342065" lon="-2.237615">
        <ele>719</ele>
        <time>2014-08-24T10:52:37.69</time>
      </trkpt>
      <trkpt lat="38.34203333333333" lon="-2.237525">
        <ele>719</ele>
        <time>2014-08-24T10:52:39.62</time>
      </trkpt>
      <trkpt lat="38.342005" lon="-2.237425">
        <ele>718</ele>
        <time>2014-08-24T10:52:41.61</time>
      </trkpt>
      <trkpt lat="38.34198" lon="-2.237325">
        <ele>718</ele>
        <time>2014-08-24T10:52:43.62</time>
      </trkpt>
      <trkpt lat="38.341955" lon="-2.237215">
        <ele>718</ele>
        <time>2014-08-24T10:52:45.63</time>
      </trkpt>
      <trkpt lat="38.341925" lon="-2.237095">
        <ele>719</ele>
        <time>2014-08-24T10:52:47.61</time>
      </trkpt>
      <trkpt lat="38.341895" lon="-2.23698">
        <ele>719</ele>
        <time>2014-08-24T10:52:49.67</time>
      </trkpt>
      <trkpt lat="38.34186" lon="-2.23685">
        <ele>719</ele>
        <time>2014-08-24T10:52:51.67</time>
      </trkpt>
      <trkpt lat="38.341825" lon="-2.23673">
        <ele>719</ele>
        <time>2014-08-24T10:52:53.67</time>
      </trkpt>
      <trkpt lat="38.34179" lon="-2.2366">
        <ele>720</ele>
        <time>2014-08-24T10:52:55.67</time>
      </trkpt>
      <trkpt lat="38.34176" lon="-2.236475">
        <ele>719</ele>
        <time>2014-08-24T10:52:57.67</time>
      </trkpt>
      <trkpt lat="38.34173" lon="-2.23635">
        <ele>720</ele>
        <time>2014-08-24T10:52:59.67</time>
      </trkpt>
      <trkpt lat="38.34169" lon="-2.236215">
        <ele>720</ele>
        <time>2014-08-24T10:53:01.62</time>
      </trkpt>
      <trkpt lat="38.341655" lon="-2.236075">
        <ele>720</ele>
        <time>2014-08-24T10:53:03.62</time>
      </trkpt>
      <trkpt lat="38.341635" lon="-2.235945">
        <ele>720</ele>
        <time>2014-08-24T10:53:05.61</time>
      </trkpt>
      <trkpt lat="38.3416" lon="-2.23582">
        <ele>720</ele>
        <time>2014-08-24T10:53:07.62</time>
      </trkpt>
      <trkpt lat="38.34156" lon="-2.23569">
        <ele>720</ele>
        <time>2014-08-24T10:53:09.66</time>
      </trkpt>
      <trkpt lat="38.34153" lon="-2.235565">
        <ele>721</ele>
        <time>2014-08-24T10:53:11.67</time>
      </trkpt>
      <trkpt lat="38.341496666666664" lon="-2.23543">
        <ele>721</ele>
        <time>2014-08-24T10:53:13.62</time>
      </trkpt>
      <trkpt lat="38.341465" lon="-2.235285">
        <ele>722</ele>
        <time>2014-08-24T10:53:15.62</time>
      </trkpt>
      <trkpt lat="38.34142" lon="-2.2351383333333334">
        <ele>722</ele>
        <time>2014-08-24T10:53:17.68</time>
      </trkpt>
      <trkpt lat="38.34139" lon="-2.235005">
        <ele>723</ele>
        <time>2014-08-24T10:53:19.66</time>
      </trkpt>
      <trkpt lat="38.341355" lon="-2.23487">
        <ele>723</ele>
        <time>2014-08-24T10:53:21.66</time>
      </trkpt>
      <trkpt lat="38.341315" lon="-2.23473">
        <ele>723</ele>
        <time>2014-08-24T10:53:23.66</time>
      </trkpt>
      <trkpt lat="38.34127" lon="-2.23459">
        <ele>723</ele>
        <time>2014-08-24T10:53:25.66</time>
      </trkpt>
      <trkpt lat="38.341235" lon="-2.23444">
        <ele>724</ele>
        <time>2014-08-24T10:53:27.66</time>
      </trkpt>
      <trkpt lat="38.341195" lon="-2.2343">
        <ele>725</ele>
        <time>2014-08-24T10:53:29.66</time>
      </trkpt>
      <trkpt lat="38.34115" lon="-2.23415">
        <ele>725</ele>
        <time>2014-08-24T10:53:31.84</time>
      </trkpt>
      <trkpt lat="38.34111" lon="-2.234005">
        <ele>726</ele>
        <time>2014-08-24T10:53:33.67</time>
      </trkpt>
      <trkpt lat="38.341075000000004" lon="-2.23386">
        <ele>726</ele>
        <time>2014-08-24T10:53:35.66</time>
      </trkpt>
      <trkpt lat="38.34103" lon="-2.233705">
        <ele>726</ele>
        <time>2014-08-24T10:53:37.68</time>
      </trkpt>
      <trkpt lat="38.340995" lon="-2.23357">
        <ele>727</ele>
        <time>2014-08-24T10:53:39.66</time>
      </trkpt>
      <trkpt lat="38.34096" lon="-2.23343">
        <ele>727</ele>
        <time>2014-08-24T10:53:41.66</time>
      </trkpt>
      <trkpt lat="38.340915" lon="-2.23329">
        <ele>728</ele>
        <time>2014-08-24T10:53:43.66</time>
      </trkpt>
      <trkpt lat="38.340865" lon="-2.23315">
        <ele>727</ele>
        <time>2014-08-24T10:53:45.66</time>
      </trkpt>
      <trkpt lat="38.34082333333333" lon="-2.233015">
        <ele>727</ele>
        <time>2014-08-24T10:53:47.66</time>
      </trkpt>
      <trkpt lat="38.340785" lon="-2.23288">
        <ele>726</ele>
        <time>2014-08-24T10:53:49.66</time>
      </trkpt>
      <trkpt lat="38.340736666666665" lon="-2.232736666666667">
        <ele>726</ele>
        <time>2014-08-24T10:53:51.66</time>
      </trkpt>
      <trkpt lat="38.340695" lon="-2.23258">
        <ele>725</ele>
        <time>2014-08-24T10:53:53.66</time>
      </trkpt>
      <trkpt lat="38.340645" lon="-2.232405">
        <ele>724</ele>
        <time>2014-08-24T10:53:55.66</time>
      </trkpt>
      <trkpt lat="38.34059833333333" lon="-2.232235">
        <ele>724</ele>
        <time>2014-08-24T10:53:57.66</time>
      </trkpt>
      <trkpt lat="38.340555" lon="-2.232065">
        <ele>724</ele>
        <time>2014-08-24T10:53:59.66</time>
      </trkpt>
      <trkpt lat="38.34053" lon="-2.23198">
        <ele>724</ele>
        <time>2014-08-24T10:54:00.66</time>
      </trkpt>
      <trkpt lat="38.3405" lon="-2.231895">
        <ele>724</ele>
        <time>2014-08-24T10:54:01.66</time>
      </trkpt>
      <trkpt lat="38.34047" lon="-2.2318">
        <ele>724</ele>
        <time>2014-08-24T10:54:02.66</time>
      </trkpt>
      <trkpt lat="38.34045" lon="-2.231705">
        <ele>724</ele>
        <time>2014-08-24T10:54:03.66</time>
      </trkpt>
      <trkpt lat="38.340425" lon="-2.231615">
        <ele>724</ele>
        <time>2014-08-24T10:54:04.66</time>
      </trkpt>
      <trkpt lat="38.340395" lon="-2.231525">
        <ele>724</ele>
        <time>2014-08-24T10:54:05.66</time>
      </trkpt>
      <trkpt lat="38.34037" lon="-2.231435">
        <ele>724</ele>
        <time>2014-08-24T10:54:06.66</time>
      </trkpt>
      <trkpt lat="38.34034" lon="-2.23134">
        <ele>724</ele>
        <time>2014-08-24T10:54:07.66</time>
      </trkpt>
      <trkpt lat="38.340315" lon="-2.23125">
        <ele>724</ele>
        <time>2014-08-24T10:54:08.66</time>
      </trkpt>
      <trkpt lat="38.34027" lon="-2.231075">
        <ele>724</ele>
        <time>2014-08-24T10:54:10.68</time>
      </trkpt>
      <trkpt lat="38.340245" lon="-2.230985">
        <ele>724</ele>
        <time>2014-08-24T10:54:11.66</time>
      </trkpt>
      <trkpt lat="38.34019833333333" lon="-2.230815">
        <ele>725</ele>
        <time>2014-08-24T10:54:13.66</time>
      </trkpt>
      <trkpt lat="38.34015" lon="-2.230655">
        <ele>726</ele>
        <time>2014-08-24T10:54:15.66</time>
      </trkpt>
      <trkpt lat="38.3401" lon="-2.230495">
        <ele>726</ele>
        <time>2014-08-24T10:54:17.66</time>
      </trkpt>
      <trkpt lat="38.340046666666666" lon="-2.23034">
        <ele>726</ele>
        <time>2014-08-24T10:54:19.66</time>
      </trkpt>
      <trkpt lat="38.339985" lon="-2.230185">
        <ele>726</ele>
        <time>2014-08-24T10:54:21.66</time>
      </trkpt>
      <trkpt lat="38.339905" lon="-2.2300383333333333">
        <ele>727</ele>
        <time>2014-08-24T10:54:23.66</time>
      </trkpt>
      <trkpt lat="38.33983" lon="-2.2299">
        <ele>727</ele>
        <time>2014-08-24T10:54:25.67</time>
      </trkpt>
      <trkpt lat="38.339765" lon="-2.229775">
        <ele>728</ele>
        <time>2014-08-24T10:54:27.66</time>
      </trkpt>
      <trkpt lat="38.339695" lon="-2.2296733333333334">
        <ele>728</ele>
        <time>2014-08-24T10:54:29.67</time>
      </trkpt>
      <trkpt lat="38.339625" lon="-2.22957">
        <ele>729</ele>
        <time>2014-08-24T10:54:31.66</time>
      </trkpt>
      <trkpt lat="38.339565" lon="-2.22948">
        <ele>728</ele>
        <time>2014-08-24T10:54:33.66</time>
      </trkpt>
      <trkpt lat="38.33951" lon="-2.22939">
        <ele>728</ele>
        <time>2014-08-24T10:54:35.67</time>
      </trkpt>
      <trkpt lat="38.339455" lon="-2.2293">
        <ele>729</ele>
        <time>2014-08-24T10:54:37.66</time>
      </trkpt>
      <trkpt lat="38.3394" lon="-2.22921">
        <ele>729</ele>
        <time>2014-08-24T10:54:39.67</time>
      </trkpt>
      <trkpt lat="38.339335" lon="-2.22912">
        <ele>729</ele>
        <time>2014-08-24T10:54:41.67</time>
      </trkpt>
      <trkpt lat="38.339275" lon="-2.22903">
        <ele>729</ele>
        <time>2014-08-24T10:54:43.67</time>
      </trkpt>
      <trkpt lat="38.339216666666665" lon="-2.228945">
        <ele>729</ele>
        <time>2014-08-24T10:54:45.67</time>
      </trkpt>
      <trkpt lat="38.339165" lon="-2.22886">
        <ele>729</ele>
        <time>2014-08-24T10:54:47.67</time>
      </trkpt>
      <trkpt lat="38.33911" lon="-2.228795">
        <ele>729</ele>
        <time>2014-08-24T10:54:49.67</time>
      </trkpt>
      <trkpt lat="38.33906" lon="-2.22872">
        <ele>729</ele>
        <time>2014-08-24T10:54:53.67</time>
      </trkpt>
      <trkpt lat="38.339061666666666" lon="-2.2286083333333333">
        <ele>730</ele>
        <time>2014-08-24T10:55:00.67</time>
      </trkpt>
      <trkpt lat="38.33912" lon="-2.22852">
        <ele>730</ele>
        <time>2014-08-24T10:55:03.70</time>
      </trkpt>
      <trkpt lat="38.3392" lon="-2.228435">
        <ele>730</ele>
        <time>2014-08-24T10:55:06.62</time>
      </trkpt>
      <trkpt lat="38.33928" lon="-2.228345">
        <ele>731</ele>
        <time>2014-08-24T10:55:09.67</time>
      </trkpt>
      <trkpt lat="38.33936" lon="-2.228255">
        <ele>731</ele>
        <time>2014-08-24T10:55:12.67</time>
      </trkpt>
      <trkpt lat="38.339435" lon="-2.22817">
        <ele>732</ele>
        <time>2014-08-24T10:55:15.69</time>
      </trkpt>
      <trkpt lat="38.33949" lon="-2.22811">
        <ele>733</ele>
        <time>2014-08-24T10:55:18.67</time>
      </trkpt>
      <trkpt lat="38.33955" lon="-2.2280533333333334">
        <ele>733</ele>
        <time>2014-08-24T10:55:22.66</time>
      </trkpt>
      <trkpt lat="38.339555" lon="-2.2280583333333333">
        <ele>734</ele>
        <time>2014-08-24T10:55:29.66</time>
      </trkpt>
      <trkpt lat="38.33955" lon="-2.22805">
        <ele>732</ele>
        <time>2014-08-24T10:56:08.62</time>
      </trkpt>
      <trkpt lat="38.33955" lon="-2.22805">
        <ele>732</ele>
        <time>2014-08-24T10:56:09.69</time>
      </trkpt>
      <trkpt lat="38.339535" lon="-2.228045">
        <ele>732</ele>
        <time>2014-08-24T10:56:47.62</time>
      </trkpt>
      <trkpt lat="38.339535" lon="-2.228045">
        <ele>732</ele>
        <time>2014-08-24T10:56:48.68</time>
      </trkpt>
      <trkpt lat="38.339605" lon="-2.22801">
        <ele>733</ele>
        <time>2014-08-24T10:57:35.66</time>
      </trkpt>
      <trkpt lat="38.339665" lon="-2.22796">
        <ele>733</ele>
        <time>2014-08-24T10:57:39.66</time>
      </trkpt>
      <trkpt lat="38.339745" lon="-2.22791">
        <ele>734</ele>
        <time>2014-08-24T10:57:44.66</time>
      </trkpt>
      <trkpt lat="38.33981" lon="-2.227855">
        <ele>734</ele>
        <time>2014-08-24T10:57:48.66</time>
      </trkpt>
      <trkpt lat="38.339885" lon="-2.227835">
        <ele>734</ele>
        <time>2014-08-24T10:57:53.66</time>
      </trkpt>
      <trkpt lat="38.339978333333335" lon="-2.227796666666667">
        <ele>734</ele>
        <time>2014-08-24T10:57:58.66</time>
      </trkpt>
      <trkpt lat="38.340055" lon="-2.2277816666666665">
        <ele>734</ele>
        <time>2014-08-24T10:58:00.66</time>
      </trkpt>
      <trkpt lat="38.34013" lon="-2.227775">
        <ele>735</ele>
        <time>2014-08-24T10:58:02.66</time>
      </trkpt>
      <trkpt lat="38.340215" lon="-2.227765">
        <ele>735</ele>
        <time>2014-08-24T10:58:04.66</time>
      </trkpt>
      <trkpt lat="38.340295" lon="-2.227755">
        <ele>736</ele>
        <time>2014-08-24T10:58:06.66</time>
      </trkpt>
      <trkpt lat="38.340375" lon="-2.22774">
        <ele>736</ele>
        <time>2014-08-24T10:58:08.66</time>
      </trkpt>
      <trkpt lat="38.340455" lon="-2.227725">
        <ele>736</ele>
        <time>2014-08-24T10:58:10.66</time>
      </trkpt>
      <trkpt lat="38.340535" lon="-2.2277016666666665">
        <ele>737</ele>
        <time>2014-08-24T10:58:12.67</time>
      </trkpt>
      <trkpt lat="38.340615" lon="-2.227685">
        <ele>737</ele>
        <time>2014-08-24T10:58:14.67</time>
      </trkpt>
      <trkpt lat="38.340695" lon="-2.227665">
        <ele>737</ele>
        <time>2014-08-24T10:58:16.67</time>
      </trkpt>
      <trkpt lat="38.340775" lon="-2.227645">
        <ele>738</ele>
        <time>2014-08-24T10:58:18.66</time>
      </trkpt>
      <trkpt lat="38.340865" lon="-2.22763">
        <ele>739</ele>
        <time>2014-08-24T10:58:20.66</time>
      </trkpt>
      <trkpt lat="38.34095" lon="-2.2276066666666665">
        <ele>739</ele>
        <time>2014-08-24T10:58:22.67</time>
      </trkpt>
      <trkpt lat="38.34104833333333" lon="-2.22758">
        <ele>740</ele>
        <time>2014-08-24T10:58:24.66</time>
      </trkpt>
      <trkpt lat="38.34115" lon="-2.22756">
        <ele>739</ele>
        <time>2014-08-24T10:58:26.66</time>
      </trkpt>
      <trkpt lat="38.341235" lon="-2.227545">
        <ele>740</ele>
        <time>2014-08-24T10:58:28.66</time>
      </trkpt>
      <trkpt lat="38.34133" lon="-2.227525">
        <ele>740</ele>
        <time>2014-08-24T10:58:30.65</time>
      </trkpt>
      <trkpt lat="38.341425" lon="-2.227505">
        <ele>740</ele>
        <time>2014-08-24T10:58:32.66</time>
      </trkpt>
      <trkpt lat="38.341525" lon="-2.22749">
        <ele>740</ele>
        <time>2014-08-24T10:58:34.66</time>
      </trkpt>
      <trkpt lat="38.34163" lon="-2.22746">
        <ele>740</ele>
        <time>2014-08-24T10:58:36.66</time>
      </trkpt>
      <trkpt lat="38.341735" lon="-2.22744">
        <ele>741</ele>
        <time>2014-08-24T10:58:38.66</time>
      </trkpt>
      <trkpt lat="38.34185" lon="-2.22742">
        <ele>741</ele>
        <time>2014-08-24T10:58:40.80</time>
      </trkpt>
      <trkpt lat="38.341946666666665" lon="-2.227395">
        <ele>742</ele>
        <time>2014-08-24T10:58:42.66</time>
      </trkpt>
      <trkpt lat="38.34206" lon="-2.227375">
        <ele>742</ele>
        <time>2014-08-24T10:58:44.66</time>
      </trkpt>
      <trkpt lat="38.34216833333333" lon="-2.227351666666667">
        <ele>743</ele>
        <time>2014-08-24T10:58:46.77</time>
      </trkpt>
      <trkpt lat="38.34228" lon="-2.22733">
        <ele>742</ele>
        <time>2014-08-24T10:58:48.66</time>
      </trkpt>
      <trkpt lat="38.34238" lon="-2.22731">
        <ele>743</ele>
        <time>2014-08-24T10:58:50.66</time>
      </trkpt>
      <trkpt lat="38.34249" lon="-2.227295">
        <ele>742</ele>
        <time>2014-08-24T10:58:52.80</time>
      </trkpt>
      <trkpt lat="38.342595" lon="-2.227275">
        <ele>743</ele>
        <time>2014-08-24T10:58:54.66</time>
      </trkpt>
      <trkpt lat="38.342695" lon="-2.2272483333333333">
        <ele>744</ele>
        <time>2014-08-24T10:58:56.66</time>
      </trkpt>
      <trkpt lat="38.3428" lon="-2.22723">
        <ele>744</ele>
        <time>2014-08-24T10:58:58.66</time>
      </trkpt>
      <trkpt lat="38.342895" lon="-2.2272">
        <ele>745</ele>
        <time>2014-08-24T10:59:00.66</time>
      </trkpt>
      <trkpt lat="38.342995" lon="-2.227175">
        <ele>746</ele>
        <time>2014-08-24T10:59:02.66</time>
      </trkpt>
      <trkpt lat="38.343095" lon="-2.22715">
        <ele>746</ele>
        <time>2014-08-24T10:59:04.66</time>
      </trkpt>
      <trkpt lat="38.3432" lon="-2.227125">
        <ele>747</ele>
        <time>2014-08-24T10:59:06.61</time>
      </trkpt>
      <trkpt lat="38.34329" lon="-2.22711">
        <ele>748</ele>
        <time>2014-08-24T10:59:08.61</time>
      </trkpt>
      <trkpt lat="38.34338" lon="-2.22708">
        <ele>747</ele>
        <time>2014-08-24T10:59:10.61</time>
      </trkpt>
      <trkpt lat="38.343475" lon="-2.22706">
        <ele>747</ele>
        <time>2014-08-24T10:59:12.61</time>
      </trkpt>
      <trkpt lat="38.34357" lon="-2.227045">
        <ele>747</ele>
        <time>2014-08-24T10:59:14.66</time>
      </trkpt>
      <trkpt lat="38.34366" lon="-2.227015">
        <ele>747</ele>
        <time>2014-08-24T10:59:16.66</time>
      </trkpt>
      <trkpt lat="38.343745" lon="-2.226995">
        <ele>748</ele>
        <time>2014-08-24T10:59:18.66</time>
      </trkpt>
      <trkpt lat="38.34384" lon="-2.226985">
        <ele>748</ele>
        <time>2014-08-24T10:59:20.61</time>
      </trkpt>
      <trkpt lat="38.34393" lon="-2.226955">
        <ele>749</ele>
        <time>2014-08-24T10:59:22.61</time>
      </trkpt>
      <trkpt lat="38.34402" lon="-2.22694">
        <ele>749</ele>
        <time>2014-08-24T10:59:24.66</time>
      </trkpt>
      <trkpt lat="38.344115" lon="-2.22693">
        <ele>750</ele>
        <time>2014-08-24T10:59:26.60</time>
      </trkpt>
      <trkpt lat="38.344205" lon="-2.2269083333333333">
        <ele>751</ele>
        <time>2014-08-24T10:59:28.66</time>
      </trkpt>
      <trkpt lat="38.34429333333333" lon="-2.22689">
        <ele>752</ele>
        <time>2014-08-24T10:59:30.66</time>
      </trkpt>
      <trkpt lat="38.344375" lon="-2.226865">
        <ele>751</ele>
        <time>2014-08-24T10:59:32.66</time>
      </trkpt>
      <trkpt lat="38.344465" lon="-2.226855">
        <ele>752</ele>
        <time>2014-08-24T10:59:34.66</time>
      </trkpt>
      <trkpt lat="38.34453833333333" lon="-2.226845">
        <ele>752</ele>
        <time>2014-08-24T10:59:36.66</time>
      </trkpt>
      <trkpt lat="38.344645" lon="-2.226825">
        <ele>753</ele>
        <time>2014-08-24T10:59:39.66</time>
      </trkpt>
      <trkpt lat="38.34472" lon="-2.226801666666667">
        <ele>752</ele>
        <time>2014-08-24T10:59:41.66</time>
      </trkpt>
      <trkpt lat="38.344795" lon="-2.226785">
        <ele>753</ele>
        <time>2014-08-24T10:59:43.66</time>
      </trkpt>
      <trkpt lat="38.344875" lon="-2.22677">
        <ele>753</ele>
        <time>2014-08-24T10:59:45.66</time>
      </trkpt>
      <trkpt lat="38.344955" lon="-2.22676">
        <ele>753</ele>
        <time>2014-08-24T10:59:47.66</time>
      </trkpt>
      <trkpt lat="38.34503" lon="-2.22674">
        <ele>754</ele>
        <time>2014-08-24T10:59:49.66</time>
      </trkpt>
      <trkpt lat="38.34511" lon="-2.226715">
        <ele>754</ele>
        <time>2014-08-24T10:59:51.66</time>
      </trkpt>
      <trkpt lat="38.345185" lon="-2.22669">
        <ele>755</ele>
        <time>2014-08-24T10:59:53.66</time>
      </trkpt>
      <trkpt lat="38.34527" lon="-2.226655">
        <ele>754</ele>
        <time>2014-08-24T10:59:55.66</time>
      </trkpt>
      <trkpt lat="38.34536833333333" lon="-2.226615">
        <ele>754</ele>
        <time>2014-08-24T10:59:57.66</time>
      </trkpt>
      <trkpt lat="38.345465" lon="-2.226575">
        <ele>754</ele>
        <time>2014-08-24T10:59:59.66</time>
      </trkpt>
      <trkpt lat="38.34556" lon="-2.2265266666666665">
        <ele>754</ele>
        <time>2014-08-24T11:00:01.67</time>
      </trkpt>
      <trkpt lat="38.34565" lon="-2.2265">
        <ele>754</ele>
        <time>2014-08-24T11:00:03.66</time>
      </trkpt>
      <trkpt lat="38.34573" lon="-2.22647">
        <ele>755</ele>
        <time>2014-08-24T11:00:05.66</time>
      </trkpt>
      <trkpt lat="38.345815" lon="-2.2264383333333333">
        <ele>755</ele>
        <time>2014-08-24T11:00:07.67</time>
      </trkpt>
      <trkpt lat="38.3459" lon="-2.2264">
        <ele>756</ele>
        <time>2014-08-24T11:00:09.66</time>
      </trkpt>
      <trkpt lat="38.34599" lon="-2.226365">
        <ele>756</ele>
        <time>2014-08-24T11:00:11.66</time>
      </trkpt>
      <trkpt lat="38.346075" lon="-2.226335">
        <ele>757</ele>
        <time>2014-08-24T11:00:13.65</time>
      </trkpt>
      <trkpt lat="38.34616" lon="-2.22629">
        <ele>757</ele>
        <time>2014-08-24T11:00:15.66</time>
      </trkpt>
      <trkpt lat="38.346245" lon="-2.22625">
        <ele>757</ele>
        <time>2014-08-24T11:00:17.65</time>
      </trkpt>
      <trkpt lat="38.34633" lon="-2.226205">
        <ele>758</ele>
        <time>2014-08-24T11:00:19.66</time>
      </trkpt>
      <trkpt lat="38.346415" lon="-2.22615">
        <ele>758</ele>
        <time>2014-08-24T11:00:21.66</time>
      </trkpt>
      <trkpt lat="38.346505" lon="-2.2260883333333332">
        <ele>757</ele>
        <time>2014-08-24T11:00:23.65</time>
      </trkpt>
      <trkpt lat="38.3466" lon="-2.226025">
        <ele>757</ele>
        <time>2014-08-24T11:00:25.66</time>
      </trkpt>
      <trkpt lat="38.346705" lon="-2.225965">
        <ele>757</ele>
        <time>2014-08-24T11:00:27.65</time>
      </trkpt>
      <trkpt lat="38.346805" lon="-2.22592">
        <ele>757</ele>
        <time>2014-08-24T11:00:29.65</time>
      </trkpt>
      <trkpt lat="38.3469" lon="-2.225865">
        <ele>758</ele>
        <time>2014-08-24T11:00:31.66</time>
      </trkpt>
      <trkpt lat="38.34698" lon="-2.2258166666666668">
        <ele>760</ele>
        <time>2014-08-24T11:00:33.65</time>
      </trkpt>
      <trkpt lat="38.34705" lon="-2.22578">
        <ele>760</ele>
        <time>2014-08-24T11:00:35.65</time>
      </trkpt>
      <trkpt lat="38.34712" lon="-2.22574">
        <ele>760</ele>
        <time>2014-08-24T11:00:37.66</time>
      </trkpt>
      <trkpt lat="38.34721" lon="-2.225695">
        <ele>762</ele>
        <time>2014-08-24T11:00:40.65</time>
      </trkpt>
      <trkpt lat="38.34727" lon="-2.2256366666666665">
        <ele>761</ele>
        <time>2014-08-24T11:00:42.61</time>
      </trkpt>
      <trkpt lat="38.34737" lon="-2.22559">
        <ele>762</ele>
        <time>2014-08-24T11:00:45.66</time>
      </trkpt>
      <trkpt lat="38.34744" lon="-2.2255416666666665">
        <ele>762</ele>
        <time>2014-08-24T11:00:47.84</time>
      </trkpt>
      <trkpt lat="38.347505" lon="-2.2255">
        <ele>762</ele>
        <time>2014-08-24T11:00:49.65</time>
      </trkpt>
      <trkpt lat="38.347575" lon="-2.225455">
        <ele>763</ele>
        <time>2014-08-24T11:00:51.65</time>
      </trkpt>
      <trkpt lat="38.347645" lon="-2.22541">
        <ele>763</ele>
        <time>2014-08-24T11:00:53.66</time>
      </trkpt>
      <trkpt lat="38.34771833333333" lon="-2.225365">
        <ele>763</ele>
        <time>2014-08-24T11:00:55.65</time>
      </trkpt>
      <trkpt lat="38.3478" lon="-2.22531">
        <ele>763</ele>
        <time>2014-08-24T11:00:57.65</time>
      </trkpt>
      <trkpt lat="38.34787333333333" lon="-2.22525">
        <ele>764</ele>
        <time>2014-08-24T11:00:59.66</time>
      </trkpt>
      <trkpt lat="38.34795" lon="-2.2251833333333333">
        <ele>764</ele>
        <time>2014-08-24T11:01:01.65</time>
      </trkpt>
      <trkpt lat="38.348025" lon="-2.22512">
        <ele>765</ele>
        <time>2014-08-24T11:01:03.65</time>
      </trkpt>
      <trkpt lat="38.34809833333333" lon="-2.22505">
        <ele>766</ele>
        <time>2014-08-24T11:01:05.61</time>
      </trkpt>
      <trkpt lat="38.348175" lon="-2.22498">
        <ele>766</ele>
        <time>2014-08-24T11:01:07.60</time>
      </trkpt>
      <trkpt lat="38.348255" lon="-2.22491">
        <ele>767</ele>
        <time>2014-08-24T11:01:09.61</time>
      </trkpt>
      <trkpt lat="38.34832333333333" lon="-2.22484">
        <ele>767</ele>
        <time>2014-08-24T11:01:11.65</time>
      </trkpt>
      <trkpt lat="38.34839" lon="-2.22477">
        <ele>768</ele>
        <time>2014-08-24T11:01:13.65</time>
      </trkpt>
      <trkpt lat="38.348461666666665" lon="-2.22471">
        <ele>768</ele>
        <time>2014-08-24T11:01:15.65</time>
      </trkpt>
      <trkpt lat="38.34854" lon="-2.224635">
        <ele>769</ele>
        <time>2014-08-24T11:01:17.65</time>
      </trkpt>
      <trkpt lat="38.34861333333333" lon="-2.2245583333333334">
        <ele>769</ele>
        <time>2014-08-24T11:01:19.65</time>
      </trkpt>
      <trkpt lat="38.348695" lon="-2.224495">
        <ele>769</ele>
        <time>2014-08-24T11:01:21.65</time>
      </trkpt>
      <trkpt lat="38.34877" lon="-2.224425">
        <ele>769</ele>
        <time>2014-08-24T11:01:23.65</time>
      </trkpt>
      <trkpt lat="38.34884" lon="-2.22435">
        <ele>770</ele>
        <time>2014-08-24T11:01:25.65</time>
      </trkpt>
      <trkpt lat="38.34892" lon="-2.224275">
        <ele>769</ele>
        <time>2014-08-24T11:01:27.65</time>
      </trkpt>
      <trkpt lat="38.34899" lon="-2.224195">
        <ele>768</ele>
        <time>2014-08-24T11:01:29.66</time>
      </trkpt>
      <trkpt lat="38.349075" lon="-2.22411">
        <ele>768</ele>
        <time>2014-08-24T11:01:31.66</time>
      </trkpt>
      <trkpt lat="38.349155" lon="-2.22404">
        <ele>769</ele>
        <time>2014-08-24T11:01:33.66</time>
      </trkpt>
      <trkpt lat="38.34923" lon="-2.223975">
        <ele>768</ele>
        <time>2014-08-24T11:01:35.65</time>
      </trkpt>
      <trkpt lat="38.349305" lon="-2.223905">
        <ele>769</ele>
        <time>2014-08-24T11:01:37.79</time>
      </trkpt>
      <trkpt lat="38.349375" lon="-2.22385">
        <ele>769</ele>
        <time>2014-08-24T11:01:39.66</time>
      </trkpt>
      <trkpt lat="38.349445" lon="-2.22378">
        <ele>769</ele>
        <time>2014-08-24T11:01:41.65</time>
      </trkpt>
      <trkpt lat="38.34953" lon="-2.223705">
        <ele>771</ele>
        <time>2014-08-24T11:01:43.65</time>
      </trkpt>
      <trkpt lat="38.34961" lon="-2.2236">
        <ele>770</ele>
        <time>2014-08-24T11:01:45.65</time>
      </trkpt>
      <trkpt lat="38.349715" lon="-2.223475">
        <ele>770</ele>
        <time>2014-08-24T11:01:47.65</time>
      </trkpt>
      <trkpt lat="38.349775" lon="-2.2234133333333332">
        <ele>770</ele>
        <time>2014-08-24T11:01:48.65</time>
      </trkpt>
      <trkpt lat="38.349828333333335" lon="-2.223355">
        <ele>770</ele>
        <time>2014-08-24T11:01:49.65</time>
      </trkpt>
      <trkpt lat="38.34994" lon="-2.22324">
        <ele>770</ele>
        <time>2014-08-24T11:01:51.66</time>
      </trkpt>
      <trkpt lat="38.350035" lon="-2.223135">
        <ele>771</ele>
        <time>2014-08-24T11:01:53.66</time>
      </trkpt>
      <trkpt lat="38.35013" lon="-2.2230333333333334">
        <ele>772</ele>
        <time>2014-08-24T11:01:55.65</time>
      </trkpt>
      <trkpt lat="38.350205" lon="-2.2229433333333333">
        <ele>772</ele>
        <time>2014-08-24T11:01:57.65</time>
      </trkpt>
      <trkpt lat="38.35026" lon="-2.22283">
        <ele>772</ele>
        <time>2014-08-24T11:01:59.65</time>
      </trkpt>
      <trkpt lat="38.35029" lon="-2.2226833333333333">
        <ele>772</ele>
        <time>2014-08-24T11:02:01.81</time>
      </trkpt>
      <trkpt lat="38.3503" lon="-2.22254">
        <ele>771</ele>
        <time>2014-08-24T11:02:03.68</time>
      </trkpt>
      <trkpt lat="38.35031" lon="-2.22238">
        <ele>770</ele>
        <time>2014-08-24T11:02:05.66</time>
      </trkpt>
      <trkpt lat="38.350345" lon="-2.2222233333333334">
        <ele>771</ele>
        <time>2014-08-24T11:02:07.79</time>
      </trkpt>
      <trkpt lat="38.35046" lon="-2.22214">
        <ele>771</ele>
        <time>2014-08-24T11:02:09.65</time>
      </trkpt>
      <trkpt lat="38.35058" lon="-2.222125">
        <ele>770</ele>
        <time>2014-08-24T11:02:11.65</time>
      </trkpt>
      <trkpt lat="38.350695" lon="-2.222085">
        <ele>771</ele>
        <time>2014-08-24T11:02:13.84</time>
      </trkpt>
      <trkpt lat="38.3508" lon="-2.222025">
        <ele>771</ele>
        <time>2014-08-24T11:02:15.65</time>
      </trkpt>
      <trkpt lat="38.350915" lon="-2.221945">
        <ele>769</ele>
        <time>2014-08-24T11:02:17.65</time>
      </trkpt>
      <trkpt lat="38.351036666666666" lon="-2.2219">
        <ele>768</ele>
        <time>2014-08-24T11:02:19.49</time>
      </trkpt>
      <trkpt lat="38.351175" lon="-2.2218716666666665">
        <ele>769</ele>
        <time>2014-08-24T11:02:20.96</time>
      </trkpt>
      <trkpt lat="38.35129" lon="-2.22186">
        <ele>769</ele>
        <time>2014-08-24T11:02:22.96</time>
      </trkpt>
      <trkpt lat="38.351395" lon="-2.22181">
        <ele>768</ele>
        <time>2014-08-24T11:02:24.98</time>
      </trkpt>
      <trkpt lat="38.351486666666666" lon="-2.22173">
        <ele>767</ele>
        <time>2014-08-24T11:02:27.10</time>
      </trkpt>
      <trkpt lat="38.35158" lon="-2.221635">
        <ele>768</ele>
        <time>2014-08-24T11:02:29.18</time>
      </trkpt>
      <trkpt lat="38.35165833333333" lon="-2.22152">
        <ele>769</ele>
        <time>2014-08-24T11:02:31.98</time>
      </trkpt>
      <trkpt lat="38.351725" lon="-2.221385">
        <ele>769</ele>
        <time>2014-08-24T11:02:32.97</time>
      </trkpt>
      <trkpt lat="38.35179" lon="-2.2212383333333334">
        <ele>769</ele>
        <time>2014-08-24T11:02:35.18</time>
      </trkpt>
      <trkpt lat="38.351825" lon="-2.2210783333333333">
        <ele>769</ele>
        <time>2014-08-24T11:02:37.8</time>
      </trkpt>
      <trkpt lat="38.351825" lon="-2.220915">
        <ele>769</ele>
        <time>2014-08-24T11:02:39.18</time>
      </trkpt>
      <trkpt lat="38.351805" lon="-2.22075">
        <ele>768</ele>
        <time>2014-08-24T11:02:41.24</time>
      </trkpt>
      <trkpt lat="38.351775" lon="-2.220585">
        <ele>767</ele>
        <time>2014-08-24T11:02:43.28</time>
      </trkpt>
      <trkpt lat="38.351765" lon="-2.220415">
        <ele>766</ele>
        <time>2014-08-24T11:02:44.98</time>
      </trkpt>
      <trkpt lat="38.351845" lon="-2.220285">
        <ele>765</ele>
        <time>2014-08-24T11:02:47.18</time>
      </trkpt>
      <trkpt lat="38.35197" lon="-2.220225">
        <ele>766</ele>
        <time>2014-08-24T11:02:49.8</time>
      </trkpt>
      <trkpt lat="38.35208" lon="-2.22019">
        <ele>767</ele>
        <time>2014-08-24T11:02:51.18</time>
      </trkpt>
      <trkpt lat="38.352175" lon="-2.220155">
        <ele>769</ele>
        <time>2014-08-24T11:02:53.28</time>
      </trkpt>
      <trkpt lat="38.35227" lon="-2.22012">
        <ele>769</ele>
        <time>2014-08-24T11:02:55.18</time>
      </trkpt>
      <trkpt lat="38.352355" lon="-2.220075">
        <ele>771</ele>
        <time>2014-08-24T11:02:57.18</time>
      </trkpt>
      <trkpt lat="38.35244" lon="-2.22002">
        <ele>772</ele>
        <time>2014-08-24T11:02:59.8</time>
      </trkpt>
      <trkpt lat="38.35251" lon="-2.219955">
        <ele>773</ele>
        <time>2014-08-24T11:03:01.18</time>
      </trkpt>
      <trkpt lat="38.35258" lon="-2.219865">
        <ele>773</ele>
        <time>2014-08-24T11:03:03.8</time>
      </trkpt>
      <trkpt lat="38.35264333333333" lon="-2.219775">
        <ele>773</ele>
        <time>2014-08-24T11:03:04.96</time>
      </trkpt>
      <trkpt lat="38.352725" lon="-2.21969">
        <ele>773</ele>
        <time>2014-08-24T11:03:07.8</time>
      </trkpt>
      <trkpt lat="38.352795" lon="-2.2196">
        <ele>773</ele>
        <time>2014-08-24T11:03:09.8</time>
      </trkpt>
      <trkpt lat="38.352851666666666" lon="-2.219515">
        <ele>774</ele>
        <time>2014-08-24T11:03:11.18</time>
      </trkpt>
      <trkpt lat="38.35291" lon="-2.219435">
        <ele>775</ele>
        <time>2014-08-24T11:03:13.18</time>
      </trkpt>
      <trkpt lat="38.352965" lon="-2.21935">
        <ele>777</ele>
        <time>2014-08-24T11:03:15.28</time>
      </trkpt>
      <trkpt lat="38.353003333333334" lon="-2.219265">
        <ele>778</ele>
        <time>2014-08-24T11:03:17.8</time>
      </trkpt>
      <trkpt lat="38.35304" lon="-2.2191733333333334">
        <ele>778</ele>
        <time>2014-08-24T11:03:19.38</time>
      </trkpt>
      <trkpt lat="38.35307" lon="-2.21907">
        <ele>780</ele>
        <time>2014-08-24T11:03:21.38</time>
      </trkpt>
      <trkpt lat="38.35311" lon="-2.21897">
        <ele>781</ele>
        <time>2014-08-24T11:03:23.28</time>
      </trkpt>
      <trkpt lat="38.35315" lon="-2.21885">
        <ele>781</ele>
        <time>2014-08-24T11:03:25.28</time>
      </trkpt>
      <trkpt lat="38.35319" lon="-2.218735">
        <ele>782</ele>
        <time>2014-08-24T11:03:27.18</time>
      </trkpt>
      <trkpt lat="38.35322" lon="-2.218625">
        <ele>781</ele>
        <time>2014-08-24T11:03:29.18</time>
      </trkpt>
      <trkpt lat="38.353265" lon="-2.2185">
        <ele>781</ele>
        <time>2014-08-24T11:03:31.18</time>
      </trkpt>
      <trkpt lat="38.3533" lon="-2.218365">
        <ele>781</ele>
        <time>2014-08-24T11:03:33.18</time>
      </trkpt>
      <trkpt lat="38.35334" lon="-2.218235">
        <ele>781</ele>
        <time>2014-08-24T11:03:35.18</time>
      </trkpt>
      <trkpt lat="38.353375" lon="-2.21809">
        <ele>780</ele>
        <time>2014-08-24T11:03:37.18</time>
      </trkpt>
      <trkpt lat="38.35340333333333" lon="-2.21793">
        <ele>778</ele>
        <time>2014-08-24T11:03:39.18</time>
      </trkpt>
      <trkpt lat="38.35342" lon="-2.217775">
        <ele>778</ele>
        <time>2014-08-24T11:03:41.18</time>
      </trkpt>
      <trkpt lat="38.353395" lon="-2.217615">
        <ele>778</ele>
        <time>2014-08-24T11:03:43.18</time>
      </trkpt>
      <trkpt lat="38.353355" lon="-2.21747">
        <ele>777</ele>
        <time>2014-08-24T11:03:45.18</time>
      </trkpt>
      <trkpt lat="38.3533" lon="-2.21733">
        <ele>777</ele>
        <time>2014-08-24T11:03:47.18</time>
      </trkpt>
      <trkpt lat="38.35324" lon="-2.217175">
        <ele>777</ele>
        <time>2014-08-24T11:03:49.8</time>
      </trkpt>
      <trkpt lat="38.353231666666666" lon="-2.21702">
        <ele>777</ele>
        <time>2014-08-24T11:03:51.18</time>
      </trkpt>
      <trkpt lat="38.3533" lon="-2.21689">
        <ele>777</ele>
        <time>2014-08-24T11:03:53.18</time>
      </trkpt>
      <trkpt lat="38.353375" lon="-2.21678">
        <ele>777</ele>
        <time>2014-08-24T11:03:55.18</time>
      </trkpt>
      <trkpt lat="38.353445" lon="-2.21666">
        <ele>777</ele>
        <time>2014-08-24T11:03:57.11</time>
      </trkpt>
      <trkpt lat="38.353495" lon="-2.21652">
        <ele>777</ele>
        <time>2014-08-24T11:03:59.45</time>
      </trkpt>
      <trkpt lat="38.35353" lon="-2.21637">
        <ele>776</ele>
        <time>2014-08-24T11:04:01.22</time>
      </trkpt>
      <trkpt lat="38.353565" lon="-2.216225">
        <ele>777</ele>
        <time>2014-08-24T11:04:03.28</time>
      </trkpt>
      <trkpt lat="38.353595" lon="-2.216085">
        <ele>778</ele>
        <time>2014-08-24T11:04:05.24</time>
      </trkpt>
      <trkpt lat="38.353625" lon="-2.215945">
        <ele>779</ele>
        <time>2014-08-24T11:04:07.24</time>
      </trkpt>
      <trkpt lat="38.353635" lon="-2.215815">
        <ele>780</ele>
        <time>2014-08-24T11:04:09.28</time>
      </trkpt>
      <trkpt lat="38.35363" lon="-2.215665">
        <ele>781</ele>
        <time>2014-08-24T11:04:11.27</time>
      </trkpt>
      <trkpt lat="38.35362" lon="-2.21553">
        <ele>781</ele>
        <time>2014-08-24T11:04:13.39</time>
      </trkpt>
      <trkpt lat="38.353605" lon="-2.2154066666666665">
        <ele>782</ele>
        <time>2014-08-24T11:04:15.27</time>
      </trkpt>
      <trkpt lat="38.353611666666666" lon="-2.21529">
        <ele>782</ele>
        <time>2014-08-24T11:04:17.27</time>
      </trkpt>
      <trkpt lat="38.35369333333333" lon="-2.215225">
        <ele>781</ele>
        <time>2014-08-24T11:04:19.27</time>
      </trkpt>
      <trkpt lat="38.353805" lon="-2.21522">
        <ele>781</ele>
        <time>2014-08-24T11:04:21.27</time>
      </trkpt>
      <trkpt lat="38.35388" lon="-2.215255">
        <ele>781</ele>
        <time>2014-08-24T11:04:23.27</time>
      </trkpt>
      <trkpt lat="38.353988333333334" lon="-2.215335">
        <ele>784</ele>
        <time>2014-08-24T11:04:25.27</time>
      </trkpt>
      <trkpt lat="38.354075" lon="-2.21536">
        <ele>785</ele>
        <time>2014-08-24T11:04:27.27</time>
      </trkpt>
      <trkpt lat="38.354175" lon="-2.215395">
        <ele>785</ele>
        <time>2014-08-24T11:04:29.28</time>
      </trkpt>
      <trkpt lat="38.354285" lon="-2.2154066666666665">
        <ele>785</ele>
        <time>2014-08-24T11:04:31.42</time>
      </trkpt>
      <trkpt lat="38.3544" lon="-2.215415">
        <ele>785</ele>
        <time>2014-08-24T11:04:33.28</time>
      </trkpt>
      <trkpt lat="38.354515" lon="-2.215395">
        <ele>786</ele>
        <time>2014-08-24T11:04:35.28</time>
      </trkpt>
      <trkpt lat="38.35463" lon="-2.215345">
        <ele>787</ele>
        <time>2014-08-24T11:04:37.27</time>
      </trkpt>
      <trkpt lat="38.354735" lon="-2.215315">
        <ele>787</ele>
        <time>2014-08-24T11:04:39.28</time>
      </trkpt>
      <trkpt lat="38.35483" lon="-2.21529">
        <ele>788</ele>
        <time>2014-08-24T11:04:41.28</time>
      </trkpt>
      <trkpt lat="38.354915" lon="-2.215265">
        <ele>790</ele>
        <time>2014-08-24T11:04:43.30</time>
      </trkpt>
      <trkpt lat="38.35499333333333" lon="-2.21524">
        <ele>791</ele>
        <time>2014-08-24T11:04:45.28</time>
      </trkpt>
      <trkpt lat="38.35507" lon="-2.215215">
        <ele>792</ele>
        <time>2014-08-24T11:04:47.28</time>
      </trkpt>
      <trkpt lat="38.35514833333333" lon="-2.215195">
        <ele>795</ele>
        <time>2014-08-24T11:04:49.45</time>
      </trkpt>
      <trkpt lat="38.355235" lon="-2.21517">
        <ele>796</ele>
        <time>2014-08-24T11:04:51.31</time>
      </trkpt>
      <trkpt lat="38.355315" lon="-2.215135">
        <ele>796</ele>
        <time>2014-08-24T11:04:53.28</time>
      </trkpt>
      <trkpt lat="38.355395" lon="-2.215095">
        <ele>797</ele>
        <time>2014-08-24T11:04:55.28</time>
      </trkpt>
      <trkpt lat="38.35548" lon="-2.215035">
        <ele>798</ele>
        <time>2014-08-24T11:04:57.27</time>
      </trkpt>
      <trkpt lat="38.355555" lon="-2.214975">
        <ele>799</ele>
        <time>2014-08-24T11:04:59.28</time>
      </trkpt>
      <trkpt lat="38.35563" lon="-2.21491">
        <ele>800</ele>
        <time>2014-08-24T11:05:01.28</time>
      </trkpt>
      <trkpt lat="38.355695" lon="-2.214845">
        <ele>800</ele>
        <time>2014-08-24T11:05:03.28</time>
      </trkpt>
      <trkpt lat="38.355755" lon="-2.2147783333333333">
        <ele>801</ele>
        <time>2014-08-24T11:05:05.29</time>
      </trkpt>
      <trkpt lat="38.35582333333333" lon="-2.214705">
        <ele>801</ele>
        <time>2014-08-24T11:05:07.27</time>
      </trkpt>
      <trkpt lat="38.355885" lon="-2.21463">
        <ele>801</ele>
        <time>2014-08-24T11:05:09.28</time>
      </trkpt>
      <trkpt lat="38.35595" lon="-2.214545">
        <ele>802</ele>
        <time>2014-08-24T11:05:11.28</time>
      </trkpt>
      <trkpt lat="38.356005" lon="-2.21447">
        <ele>802</ele>
        <time>2014-08-24T11:05:13.30</time>
      </trkpt>
      <trkpt lat="38.35606" lon="-2.21439">
        <ele>801</ele>
        <time>2014-08-24T11:05:15.28</time>
      </trkpt>
      <trkpt lat="38.35611" lon="-2.214315">
        <ele>802</ele>
        <time>2014-08-24T11:05:17.27</time>
      </trkpt>
      <trkpt lat="38.35617" lon="-2.21424">
        <ele>802</ele>
        <time>2014-08-24T11:05:19.28</time>
      </trkpt>
      <trkpt lat="38.356215" lon="-2.2141533333333334">
        <ele>802</ele>
        <time>2014-08-24T11:05:21.28</time>
      </trkpt>
      <trkpt lat="38.35626666666667" lon="-2.21408">
        <ele>802</ele>
        <time>2014-08-24T11:05:23.28</time>
      </trkpt>
      <trkpt lat="38.356325" lon="-2.2139933333333333">
        <ele>803</ele>
        <time>2014-08-24T11:05:25.28</time>
      </trkpt>
      <trkpt lat="38.35638" lon="-2.213915">
        <ele>803</ele>
        <time>2014-08-24T11:05:27.29</time>
      </trkpt>
      <trkpt lat="38.35644" lon="-2.21383">
        <ele>803</ele>
        <time>2014-08-24T11:05:29.28</time>
      </trkpt>
      <trkpt lat="38.356495" lon="-2.21375">
        <ele>803</ele>
        <time>2014-08-24T11:05:31.29</time>
      </trkpt>
      <trkpt lat="38.356555" lon="-2.21367">
        <ele>804</ele>
        <time>2014-08-24T11:05:33.28</time>
      </trkpt>
      <trkpt lat="38.35661" lon="-2.213595">
        <ele>805</ele>
        <time>2014-08-24T11:05:35.27</time>
      </trkpt>
      <trkpt lat="38.35666" lon="-2.213515">
        <ele>803</ele>
        <time>2014-08-24T11:05:37.29</time>
      </trkpt>
      <trkpt lat="38.356715" lon="-2.21345">
        <ele>805</ele>
        <time>2014-08-24T11:05:39.27</time>
      </trkpt>
      <trkpt lat="38.356765" lon="-2.21338">
        <ele>806</ele>
        <time>2014-08-24T11:05:41.28</time>
      </trkpt>
      <trkpt lat="38.35682" lon="-2.213315">
        <ele>807</ele>
        <time>2014-08-24T11:05:43.30</time>
      </trkpt>
      <trkpt lat="38.35687166666666" lon="-2.21325">
        <ele>807</ele>
        <time>2014-08-24T11:05:45.26</time>
      </trkpt>
      <trkpt lat="38.35693" lon="-2.21318">
        <ele>808</ele>
        <time>2014-08-24T11:05:47.30</time>
      </trkpt>
      <trkpt lat="38.356985" lon="-2.213105">
        <ele>808</ele>
        <time>2014-08-24T11:05:48.68</time>
      </trkpt>
      <trkpt lat="38.357045" lon="-2.213035">
        <ele>808</ele>
        <time>2014-08-24T11:05:50.69</time>
      </trkpt>
      <trkpt lat="38.357115" lon="-2.212965">
        <ele>808</ele>
        <time>2014-08-24T11:05:52.69</time>
      </trkpt>
      <trkpt lat="38.35718833333333" lon="-2.212895">
        <ele>808</ele>
        <time>2014-08-24T11:05:54.69</time>
      </trkpt>
      <trkpt lat="38.35729" lon="-2.21287">
        <ele>810</ele>
        <time>2014-08-24T11:05:56.69</time>
      </trkpt>
      <trkpt lat="38.35737" lon="-2.212825">
        <ele>809</ele>
        <time>2014-08-24T11:05:58.69</time>
      </trkpt>
      <trkpt lat="38.35745" lon="-2.2128">
        <ele>810</ele>
        <time>2014-08-24T11:06:00.81</time>
      </trkpt>
      <trkpt lat="38.357525" lon="-2.21277">
        <ele>809</ele>
        <time>2014-08-24T11:06:02.71</time>
      </trkpt>
      <trkpt lat="38.357605" lon="-2.212735">
        <ele>808</ele>
        <time>2014-08-24T11:06:04.71</time>
      </trkpt>
      <trkpt lat="38.357705" lon="-2.21269">
        <ele>810</ele>
        <time>2014-08-24T11:06:07.81</time>
      </trkpt>
      <trkpt lat="38.357785" lon="-2.212665">
        <ele>809</ele>
        <time>2014-08-24T11:06:09.71</time>
      </trkpt>
      <trkpt lat="38.357861666666665" lon="-2.212641666666667">
        <ele>810</ele>
        <time>2014-08-24T11:06:11.70</time>
      </trkpt>
      <trkpt lat="38.357945" lon="-2.212625">
        <ele>810</ele>
        <time>2014-08-24T11:06:13.69</time>
      </trkpt>
      <trkpt lat="38.35803" lon="-2.212595">
        <ele>810</ele>
        <time>2014-08-24T11:06:15.69</time>
      </trkpt>
      <trkpt lat="38.35811" lon="-2.212565">
        <ele>811</ele>
        <time>2014-08-24T11:06:17.69</time>
      </trkpt>
      <trkpt lat="38.35819" lon="-2.21254">
        <ele>812</ele>
        <time>2014-08-24T11:06:19.69</time>
      </trkpt>
      <trkpt lat="38.35826" lon="-2.212515">
        <ele>812</ele>
        <time>2014-08-24T11:06:21.69</time>
      </trkpt>
      <trkpt lat="38.358335" lon="-2.21249">
        <ele>813</ele>
        <time>2014-08-24T11:06:23.70</time>
      </trkpt>
      <trkpt lat="38.3584" lon="-2.212445">
        <ele>813</ele>
        <time>2014-08-24T11:06:25.64</time>
      </trkpt>
      <trkpt lat="38.35846333333333" lon="-2.212385">
        <ele>812</ele>
        <time>2014-08-24T11:06:27.69</time>
      </trkpt>
      <trkpt lat="38.35853" lon="-2.21232">
        <ele>813</ele>
        <time>2014-08-24T11:06:29.68</time>
      </trkpt>
      <trkpt lat="38.358585" lon="-2.212255">
        <ele>814</ele>
        <time>2014-08-24T11:06:31.69</time>
      </trkpt>
      <trkpt lat="38.35864" lon="-2.2121833333333334">
        <ele>815</ele>
        <time>2014-08-24T11:06:33.69</time>
      </trkpt>
      <trkpt lat="38.3587" lon="-2.212125">
        <ele>814</ele>
        <time>2014-08-24T11:06:35.69</time>
      </trkpt>
      <trkpt lat="38.358761666666666" lon="-2.21207">
        <ele>814</ele>
        <time>2014-08-24T11:06:37.69</time>
      </trkpt>
      <trkpt lat="38.358845" lon="-2.21202">
        <ele>813</ele>
        <time>2014-08-24T11:06:39.69</time>
      </trkpt>
      <trkpt lat="38.358965" lon="-2.211995">
        <ele>813</ele>
        <time>2014-08-24T11:06:41.69</time>
      </trkpt>
      <trkpt lat="38.35909" lon="-2.211955">
        <ele>813</ele>
        <time>2014-08-24T11:06:43.71</time>
      </trkpt>
      <trkpt lat="38.35916" lon="-2.2119283333333333">
        <ele>813</ele>
        <time>2014-08-24T11:06:44.69</time>
      </trkpt>
      <trkpt lat="38.359228333333334" lon="-2.2119">
        <ele>813</ele>
        <time>2014-08-24T11:06:45.73</time>
      </trkpt>
      <trkpt lat="38.359305" lon="-2.21189">
        <ele>812</ele>
        <time>2014-08-24T11:06:46.64</time>
      </trkpt>
      <trkpt lat="38.35944" lon="-2.21184">
        <ele>811</ele>
        <time>2014-08-24T11:06:48.70</time>
      </trkpt>
      <trkpt lat="38.359515" lon="-2.2118233333333333">
        <ele>811</ele>
        <time>2014-08-24T11:06:49.69</time>
      </trkpt>
      <trkpt lat="38.35965" lon="-2.21178">
        <ele>811</ele>
        <time>2014-08-24T11:06:51.69</time>
      </trkpt>
      <trkpt lat="38.35979" lon="-2.211725">
        <ele>809</ele>
        <time>2014-08-24T11:06:53.70</time>
      </trkpt>
      <trkpt lat="38.35987" lon="-2.2117">
        <ele>808</ele>
        <time>2014-08-24T11:06:54.69</time>
      </trkpt>
      <trkpt lat="38.359945" lon="-2.21166">
        <ele>808</ele>
        <time>2014-08-24T11:06:55.81</time>
      </trkpt>
      <trkpt lat="38.36003" lon="-2.21162">
        <ele>807</ele>
        <time>2014-08-24T11:06:56.73</time>
      </trkpt>
      <trkpt lat="38.36011" lon="-2.21156">
        <ele>807</ele>
        <time>2014-08-24T11:06:57.71</time>
      </trkpt>
      <trkpt lat="38.360185" lon="-2.2115">
        <ele>808</ele>
        <time>2014-08-24T11:06:58.64</time>
      </trkpt>
      <trkpt lat="38.360245" lon="-2.211415">
        <ele>807</ele>
        <time>2014-08-24T11:06:59.64</time>
      </trkpt>
      <trkpt lat="38.36029" lon="-2.21132">
        <ele>808</ele>
        <time>2014-08-24T11:07:00.69</time>
      </trkpt>
      <trkpt lat="38.36033" lon="-2.21123">
        <ele>808</ele>
        <time>2014-08-24T11:07:01.69</time>
      </trkpt>
      <trkpt lat="38.360368333333334" lon="-2.21113">
        <ele>808</ele>
        <time>2014-08-24T11:07:02.69</time>
      </trkpt>
      <trkpt lat="38.360405" lon="-2.211045">
        <ele>809</ele>
        <time>2014-08-24T11:07:03.69</time>
      </trkpt>
      <trkpt lat="38.360445" lon="-2.21096">
        <ele>809</ele>
        <time>2014-08-24T11:07:04.64</time>
      </trkpt>
      <trkpt lat="38.360485" lon="-2.21088">
        <ele>809</ele>
        <time>2014-08-24T11:07:06.42</time>
      </trkpt>
      <trkpt lat="38.36052" lon="-2.2108">
        <ele>810</ele>
        <time>2014-08-24T11:07:07.40</time>
      </trkpt>
      <trkpt lat="38.36058666666667" lon="-2.21065">
        <ele>810</ele>
        <time>2014-08-24T11:07:09.46</time>
      </trkpt>
      <trkpt lat="38.360645" lon="-2.21052">
        <ele>813</ele>
        <time>2014-08-24T11:07:11.48</time>
      </trkpt>
      <trkpt lat="38.360695" lon="-2.2104033333333333">
        <ele>814</ele>
        <time>2014-08-24T11:07:13.48</time>
      </trkpt>
      <trkpt lat="38.36074" lon="-2.2103">
        <ele>815</ele>
        <time>2014-08-24T11:07:15.47</time>
      </trkpt>
      <trkpt lat="38.360795" lon="-2.2102033333333333">
        <ele>816</ele>
        <time>2014-08-24T11:07:17.47</time>
      </trkpt>
      <trkpt lat="38.360855" lon="-2.210125">
        <ele>817</ele>
        <time>2014-08-24T11:07:19.47</time>
      </trkpt>
      <trkpt lat="38.360925" lon="-2.21005">
        <ele>817</ele>
        <time>2014-08-24T11:07:21.47</time>
      </trkpt>
      <trkpt lat="38.360995" lon="-2.209975">
        <ele>818</ele>
        <time>2014-08-24T11:07:23.46</time>
      </trkpt>
      <trkpt lat="38.36107" lon="-2.209895">
        <ele>819</ele>
        <time>2014-08-24T11:07:25.47</time>
      </trkpt>
      <trkpt lat="38.36115" lon="-2.20982">
        <ele>819</ele>
        <time>2014-08-24T11:07:27.48</time>
      </trkpt>
      <trkpt lat="38.36123" lon="-2.20975">
        <ele>820</ele>
        <time>2014-08-24T11:07:29.52</time>
      </trkpt>
      <trkpt lat="38.361315" lon="-2.20967">
        <ele>819</ele>
        <time>2014-08-24T11:07:31.48</time>
      </trkpt>
      <trkpt lat="38.361405" lon="-2.2095783333333334">
        <ele>819</ele>
        <time>2014-08-24T11:07:33.48</time>
      </trkpt>
      <trkpt lat="38.3615" lon="-2.209495">
        <ele>820</ele>
        <time>2014-08-24T11:07:35.50</time>
      </trkpt>
      <trkpt lat="38.361595" lon="-2.2094016666666665">
        <ele>819</ele>
        <time>2014-08-24T11:07:37.47</time>
      </trkpt>
      <trkpt lat="38.361685" lon="-2.2093133333333332">
        <ele>820</ele>
        <time>2014-08-24T11:07:39.52</time>
      </trkpt>
      <trkpt lat="38.36177" lon="-2.209235">
        <ele>820</ele>
        <time>2014-08-24T11:07:41.47</time>
      </trkpt>
      <trkpt lat="38.36185" lon="-2.209145">
        <ele>821</ele>
        <time>2014-08-24T11:07:43.47</time>
      </trkpt>
      <trkpt lat="38.361935" lon="-2.209065">
        <ele>821</ele>
        <time>2014-08-24T11:07:45.47</time>
      </trkpt>
      <trkpt lat="38.36201" lon="-2.208985">
        <ele>822</ele>
        <time>2014-08-24T11:07:47.47</time>
      </trkpt>
      <trkpt lat="38.36208" lon="-2.20892">
        <ele>821</ele>
        <time>2014-08-24T11:07:49.47</time>
      </trkpt>
      <trkpt lat="38.362165" lon="-2.208855">
        <ele>822</ele>
        <time>2014-08-24T11:07:51.40</time>
      </trkpt>
      <trkpt lat="38.36225" lon="-2.20879">
        <ele>823</ele>
        <time>2014-08-24T11:07:53.47</time>
      </trkpt>
      <trkpt lat="38.36235" lon="-2.20875">
        <ele>823</ele>
        <time>2014-08-24T11:07:55.54</time>
      </trkpt>
      <trkpt lat="38.36245" lon="-2.208705">
        <ele>823</ele>
        <time>2014-08-24T11:07:57.55</time>
      </trkpt>
      <trkpt lat="38.362545" lon="-2.2086866666666665">
        <ele>824</ele>
        <time>2014-08-24T11:07:59.52</time>
      </trkpt>
      <trkpt lat="38.362645" lon="-2.208665">
        <ele>824</ele>
        <time>2014-08-24T11:08:01.53</time>
      </trkpt>
      <trkpt lat="38.36276" lon="-2.208655">
        <ele>823</ele>
        <time>2014-08-24T11:08:03.55</time>
      </trkpt>
      <trkpt lat="38.362858333333335" lon="-2.20865">
        <ele>823</ele>
        <time>2014-08-24T11:08:05.47</time>
      </trkpt>
      <trkpt lat="38.362975" lon="-2.208645">
        <ele>824</ele>
        <time>2014-08-24T11:08:07.47</time>
      </trkpt>
      <trkpt lat="38.36309" lon="-2.20865">
        <ele>823</ele>
        <time>2014-08-24T11:08:09.47</time>
      </trkpt>
      <trkpt lat="38.363205" lon="-2.208655">
        <ele>823</ele>
        <time>2014-08-24T11:08:11.47</time>
      </trkpt>
      <trkpt lat="38.36332" lon="-2.208675">
        <ele>822</ele>
        <time>2014-08-24T11:08:13.47</time>
      </trkpt>
      <trkpt lat="38.36343" lon="-2.20875">
        <ele>822</ele>
        <time>2014-08-24T11:08:15.47</time>
      </trkpt>
      <trkpt lat="38.36352" lon="-2.20886">
        <ele>821</ele>
        <time>2014-08-24T11:08:17.47</time>
      </trkpt>
      <trkpt lat="38.3636" lon="-2.208995">
        <ele>821</ele>
        <time>2014-08-24T11:08:19.47</time>
      </trkpt>
      <trkpt lat="38.363685" lon="-2.209125">
        <ele>821</ele>
        <time>2014-08-24T11:08:21.53</time>
      </trkpt>
      <trkpt lat="38.36375" lon="-2.20927">
        <ele>821</ele>
        <time>2014-08-24T11:08:23.55</time>
      </trkpt>
      <trkpt lat="38.363835" lon="-2.209416666666667">
        <ele>821</ele>
        <time>2014-08-24T11:08:25.48</time>
      </trkpt>
      <trkpt lat="38.363905" lon="-2.209575">
        <ele>821</ele>
        <time>2014-08-24T11:08:27.47</time>
      </trkpt>
      <trkpt lat="38.363955" lon="-2.20964">
        <ele>820</ele>
        <time>2014-08-24T11:08:28.48</time>
      </trkpt>
      <trkpt lat="38.364035" lon="-2.20978">
        <ele>821</ele>
        <time>2014-08-24T11:08:30.53</time>
      </trkpt>
      <trkpt lat="38.36412" lon="-2.209915">
        <ele>820</ele>
        <time>2014-08-24T11:08:32.48</time>
      </trkpt>
      <trkpt lat="38.364205" lon="-2.21005">
        <ele>821</ele>
        <time>2014-08-24T11:08:34.47</time>
      </trkpt>
      <trkpt lat="38.36429" lon="-2.210175">
        <ele>822</ele>
        <time>2014-08-24T11:08:36.47</time>
      </trkpt>
      <trkpt lat="38.364376666666665" lon="-2.210305">
        <ele>823</ele>
        <time>2014-08-24T11:08:38.47</time>
      </trkpt>
      <trkpt lat="38.36446333333333" lon="-2.210425">
        <ele>824</ele>
        <time>2014-08-24T11:08:40.47</time>
      </trkpt>
      <trkpt lat="38.364545" lon="-2.21054">
        <ele>825</ele>
        <time>2014-08-24T11:08:42.47</time>
      </trkpt>
      <trkpt lat="38.364625" lon="-2.210645">
        <ele>825</ele>
        <time>2014-08-24T11:08:44.47</time>
      </trkpt>
      <trkpt lat="38.3647" lon="-2.21075">
        <ele>826</ele>
        <time>2014-08-24T11:08:46.47</time>
      </trkpt>
      <trkpt lat="38.36478" lon="-2.210846666666667">
        <ele>826</ele>
        <time>2014-08-24T11:08:48.47</time>
      </trkpt>
      <trkpt lat="38.364865" lon="-2.21095">
        <ele>826</ele>
        <time>2014-08-24T11:08:50.48</time>
      </trkpt>
      <trkpt lat="38.36495" lon="-2.21104">
        <ele>827</ele>
        <time>2014-08-24T11:08:52.48</time>
      </trkpt>
      <trkpt lat="38.365045" lon="-2.211115">
        <ele>827</ele>
        <time>2014-08-24T11:08:54.48</time>
      </trkpt>
      <trkpt lat="38.365135" lon="-2.21119">
        <ele>827</ele>
        <time>2014-08-24T11:08:56.47</time>
      </trkpt>
      <trkpt lat="38.36522" lon="-2.211275">
        <ele>827</ele>
        <time>2014-08-24T11:08:58.48</time>
      </trkpt>
      <trkpt lat="38.365293333333334" lon="-2.21136">
        <ele>827</ele>
        <time>2014-08-24T11:09:00.48</time>
      </trkpt>
      <trkpt lat="38.365385" lon="-2.211435">
        <ele>828</ele>
        <time>2014-08-24T11:09:02.48</time>
      </trkpt>
      <trkpt lat="38.36549" lon="-2.21151">
        <ele>827</ele>
        <time>2014-08-24T11:09:04.48</time>
      </trkpt>
      <trkpt lat="38.365595" lon="-2.2115533333333333">
        <ele>827</ele>
        <time>2014-08-24T11:09:06.48</time>
      </trkpt>
      <trkpt lat="38.36571" lon="-2.211595">
        <ele>826</ele>
        <time>2014-08-24T11:09:08.63</time>
      </trkpt>
      <trkpt lat="38.36583" lon="-2.211585">
        <ele>826</ele>
        <time>2014-08-24T11:09:10.50</time>
      </trkpt>
      <trkpt lat="38.36591" lon="-2.21149">
        <ele>827</ele>
        <time>2014-08-24T11:09:12.48</time>
      </trkpt>
      <trkpt lat="38.365945" lon="-2.21136">
        <ele>828</ele>
        <time>2014-08-24T11:09:14.47</time>
      </trkpt>
      <trkpt lat="38.36598" lon="-2.21124">
        <ele>829</ele>
        <time>2014-08-24T11:09:16.47</time>
      </trkpt>
      <trkpt lat="38.366025" lon="-2.211135">
        <ele>829</ele>
        <time>2014-08-24T11:09:18.55</time>
      </trkpt>
      <trkpt lat="38.366075" lon="-2.21105">
        <ele>830</ele>
        <time>2014-08-24T11:09:20.42</time>
      </trkpt>
      <trkpt lat="38.366145" lon="-2.21101">
        <ele>831</ele>
        <time>2014-08-24T11:09:22.47</time>
      </trkpt>
      <trkpt lat="38.36622" lon="-2.2110133333333333">
        <ele>833</ele>
        <time>2014-08-24T11:09:24.47</time>
      </trkpt>
      <trkpt lat="38.36631" lon="-2.211065">
        <ele>834</ele>
        <time>2014-08-24T11:09:27.48</time>
      </trkpt>
      <trkpt lat="38.366415" lon="-2.21107">
        <ele>835</ele>
        <time>2014-08-24T11:09:30.48</time>
      </trkpt>
      <trkpt lat="38.36652" lon="-2.21105">
        <ele>837</ele>
        <time>2014-08-24T11:09:33.53</time>
      </trkpt>
      <trkpt lat="38.36661" lon="-2.21099">
        <ele>837</ele>
        <time>2014-08-24T11:09:36.54</time>
      </trkpt>
      <trkpt lat="38.366655" lon="-2.21092">
        <ele>838</ele>
        <time>2014-08-24T11:09:38.48</time>
      </trkpt>
      <trkpt lat="38.366695" lon="-2.2108333333333334">
        <ele>839</ele>
        <time>2014-08-24T11:09:40.48</time>
      </trkpt>
      <trkpt lat="38.36672333333333" lon="-2.210735">
        <ele>839</ele>
        <time>2014-08-24T11:09:42.48</time>
      </trkpt>
      <trkpt lat="38.36674" lon="-2.210615">
        <ele>840</ele>
        <time>2014-08-24T11:09:44.48</time>
      </trkpt>
      <trkpt lat="38.366755" lon="-2.2105">
        <ele>840</ele>
        <time>2014-08-24T11:09:46.48</time>
      </trkpt>
      <trkpt lat="38.36678" lon="-2.210395">
        <ele>840</ele>
        <time>2014-08-24T11:09:48.48</time>
      </trkpt>
      <trkpt lat="38.366805" lon="-2.2102933333333334">
        <ele>841</ele>
        <time>2014-08-24T11:09:50.48</time>
      </trkpt>
      <trkpt lat="38.366845" lon="-2.2102">
        <ele>842</ele>
        <time>2014-08-24T11:09:52.48</time>
      </trkpt>
      <trkpt lat="38.36687666666667" lon="-2.210105">
        <ele>842</ele>
        <time>2014-08-24T11:09:54.48</time>
      </trkpt>
      <trkpt lat="38.366925" lon="-2.210015">
        <ele>842</ele>
        <time>2014-08-24T11:09:56.48</time>
      </trkpt>
      <trkpt lat="38.366975" lon="-2.209925">
        <ele>842</ele>
        <time>2014-08-24T11:09:58.58</time>
      </trkpt>
      <trkpt lat="38.36703" lon="-2.209845">
        <ele>843</ele>
        <time>2014-08-24T11:10:00.48</time>
      </trkpt>
      <trkpt lat="38.367095" lon="-2.209766666666667">
        <ele>844</ele>
        <time>2014-08-24T11:10:02.48</time>
      </trkpt>
      <trkpt lat="38.36716" lon="-2.2097">
        <ele>845</ele>
        <time>2014-08-24T11:10:04.50</time>
      </trkpt>
      <trkpt lat="38.36723" lon="-2.209635">
        <ele>846</ele>
        <time>2014-08-24T11:10:06.42</time>
      </trkpt>
      <trkpt lat="38.367305" lon="-2.2095783333333334">
        <ele>846</ele>
        <time>2014-08-24T11:10:08.48</time>
      </trkpt>
      <trkpt lat="38.36738" lon="-2.20953">
        <ele>846</ele>
        <time>2014-08-24T11:10:10.52</time>
      </trkpt>
      <trkpt lat="38.36746" lon="-2.20948">
        <ele>846</ele>
        <time>2014-08-24T11:10:12.54</time>
      </trkpt>
      <trkpt lat="38.36754" lon="-2.209435">
        <ele>847</ele>
        <time>2014-08-24T11:10:14.50</time>
      </trkpt>
      <trkpt lat="38.36762" lon="-2.209395">
        <ele>847</ele>
        <time>2014-08-24T11:10:16.48</time>
      </trkpt>
      <trkpt lat="38.367705" lon="-2.209365">
        <ele>848</ele>
        <time>2014-08-24T11:10:18.48</time>
      </trkpt>
      <trkpt lat="38.36779" lon="-2.209355">
        <ele>848</ele>
        <time>2014-08-24T11:10:20.48</time>
      </trkpt>
      <trkpt lat="38.36788" lon="-2.20935">
        <ele>849</ele>
        <time>2014-08-24T11:10:22.48</time>
      </trkpt>
      <trkpt lat="38.367965" lon="-2.20935">
        <ele>850</ele>
        <time>2014-08-24T11:10:24.48</time>
      </trkpt>
      <trkpt lat="38.36805" lon="-2.209345">
        <ele>850</ele>
        <time>2014-08-24T11:10:26.48</time>
      </trkpt>
      <trkpt lat="38.368135" lon="-2.209345">
        <ele>851</ele>
        <time>2014-08-24T11:10:28.48</time>
      </trkpt>
      <trkpt lat="38.36822" lon="-2.209345">
        <ele>851</ele>
        <time>2014-08-24T11:10:30.47</time>
      </trkpt>
      <trkpt lat="38.368305" lon="-2.209345">
        <ele>852</ele>
        <time>2014-08-24T11:10:32.48</time>
      </trkpt>
      <trkpt lat="38.368388333333336" lon="-2.209335">
        <ele>853</ele>
        <time>2014-08-24T11:10:34.42</time>
      </trkpt>
      <trkpt lat="38.36848" lon="-2.209325">
        <ele>854</ele>
        <time>2014-08-24T11:10:36.55</time>
      </trkpt>
      <trkpt lat="38.36856" lon="-2.2093066666666665">
        <ele>854</ele>
        <time>2014-08-24T11:10:38.51</time>
      </trkpt>
      <trkpt lat="38.368645" lon="-2.20929">
        <ele>854</ele>
        <time>2014-08-24T11:10:40.48</time>
      </trkpt>
      <trkpt lat="38.36873" lon="-2.20924">
        <ele>855</ele>
        <time>2014-08-24T11:10:42.48</time>
      </trkpt>
      <trkpt lat="38.368795" lon="-2.209165">
        <ele>855</ele>
        <time>2014-08-24T11:10:44.59</time>
      </trkpt>
      <trkpt lat="38.36885" lon="-2.20908">
        <ele>856</ele>
        <time>2014-08-24T11:10:46.48</time>
      </trkpt>
      <trkpt lat="38.3689" lon="-2.20899">
        <ele>856</ele>
        <time>2014-08-24T11:10:48.47</time>
      </trkpt>
      <trkpt lat="38.368945" lon="-2.208885">
        <ele>857</ele>
        <time>2014-08-24T11:10:50.47</time>
      </trkpt>
      <trkpt lat="38.36899" lon="-2.20878">
        <ele>858</ele>
        <time>2014-08-24T11:10:52.48</time>
      </trkpt>
      <trkpt lat="38.36904" lon="-2.208675">
        <ele>858</ele>
        <time>2014-08-24T11:10:54.48</time>
      </trkpt>
      <trkpt lat="38.369085" lon="-2.20857">
        <ele>858</ele>
        <time>2014-08-24T11:10:56.48</time>
      </trkpt>
      <trkpt lat="38.369125" lon="-2.20846">
        <ele>859</ele>
        <time>2014-08-24T11:10:58.47</time>
      </trkpt>
      <trkpt lat="38.36916" lon="-2.20835">
        <ele>859</ele>
        <time>2014-08-24T11:11:00.48</time>
      </trkpt>
      <trkpt lat="38.369185" lon="-2.2082333333333333">
        <ele>860</ele>
        <time>2014-08-24T11:11:02.48</time>
      </trkpt>
      <trkpt lat="38.36921" lon="-2.208115">
        <ele>861</ele>
        <time>2014-08-24T11:11:04.48</time>
      </trkpt>
      <trkpt lat="38.36922" lon="-2.207995">
        <ele>861</ele>
        <time>2014-08-24T11:11:06.46</time>
      </trkpt>
      <trkpt lat="38.369225" lon="-2.207875">
        <ele>862</ele>
        <time>2014-08-24T11:11:08.48</time>
      </trkpt>
      <trkpt lat="38.369215" lon="-2.20775">
        <ele>863</ele>
        <time>2014-08-24T11:11:10.42</time>
      </trkpt>
      <trkpt lat="38.36921" lon="-2.20763">
        <ele>864</ele>
        <time>2014-08-24T11:11:12.48</time>
      </trkpt>
      <trkpt lat="38.369195" lon="-2.2075">
        <ele>865</ele>
        <time>2014-08-24T11:11:14.48</time>
      </trkpt>
      <trkpt lat="38.369185" lon="-2.20737">
        <ele>866</ele>
        <time>2014-08-24T11:11:16.48</time>
      </trkpt>
      <trkpt lat="38.369165" lon="-2.2072483333333333">
        <ele>865</ele>
        <time>2014-08-24T11:11:18.48</time>
      </trkpt>
      <trkpt lat="38.36916" lon="-2.20712">
        <ele>867</ele>
        <time>2014-08-24T11:11:20.47</time>
      </trkpt>
      <trkpt lat="38.369155" lon="-2.206995">
        <ele>866</ele>
        <time>2014-08-24T11:11:22.48</time>
      </trkpt>
      <trkpt lat="38.36916" lon="-2.20686">
        <ele>866</ele>
        <time>2014-08-24T11:11:24.47</time>
      </trkpt>
      <trkpt lat="38.36918" lon="-2.206735">
        <ele>865</ele>
        <time>2014-08-24T11:11:26.47</time>
      </trkpt>
      <trkpt lat="38.369225" lon="-2.20662">
        <ele>866</ele>
        <time>2014-08-24T11:11:28.48</time>
      </trkpt>
      <trkpt lat="38.369275" lon="-2.206515">
        <ele>866</ele>
        <time>2014-08-24T11:11:30.48</time>
      </trkpt>
      <trkpt lat="38.36934" lon="-2.20642">
        <ele>866</ele>
        <time>2014-08-24T11:11:32.52</time>
      </trkpt>
      <trkpt lat="38.36943" lon="-2.20636">
        <ele>867</ele>
        <time>2014-08-24T11:11:34.51</time>
      </trkpt>
      <trkpt lat="38.369526666666665" lon="-2.206305">
        <ele>866</ele>
        <time>2014-08-24T11:11:36.53</time>
      </trkpt>
      <trkpt lat="38.36963" lon="-2.206235">
        <ele>866</ele>
        <time>2014-08-24T11:11:38.48</time>
      </trkpt>
      <trkpt lat="38.36972" lon="-2.20614">
        <ele>866</ele>
        <time>2014-08-24T11:11:40.47</time>
      </trkpt>
      <trkpt lat="38.36978" lon="-2.206015">
        <ele>866</ele>
        <time>2014-08-24T11:11:42.48</time>
      </trkpt>
      <trkpt lat="38.36981" lon="-2.205875">
        <ele>867</ele>
        <time>2014-08-24T11:11:44.47</time>
      </trkpt>
      <trkpt lat="38.369835" lon="-2.20574">
        <ele>868</ele>
        <time>2014-08-24T11:11:46.47</time>
      </trkpt>
      <trkpt lat="38.36988" lon="-2.205615">
        <ele>868</ele>
        <time>2014-08-24T11:11:48.48</time>
      </trkpt>
      <trkpt lat="38.369955" lon="-2.205515">
        <ele>867</ele>
        <time>2014-08-24T11:11:50.48</time>
      </trkpt>
      <trkpt lat="38.370045" lon="-2.205435">
        <ele>868</ele>
        <time>2014-08-24T11:11:52.48</time>
      </trkpt>
      <trkpt lat="38.370128333333334" lon="-2.205355">
        <ele>868</ele>
        <time>2014-08-24T11:11:54.48</time>
      </trkpt>
      <trkpt lat="38.370215" lon="-2.2052716666666665">
        <ele>869</ele>
        <time>2014-08-24T11:11:56.52</time>
      </trkpt>
      <trkpt lat="38.37030166666667" lon="-2.20518">
        <ele>870</ele>
        <time>2014-08-24T11:11:58.71</time>
      </trkpt>
      <trkpt lat="38.370385" lon="-2.205075">
        <ele>870</ele>
        <time>2014-08-24T11:12:00.54</time>
      </trkpt>
      <trkpt lat="38.370465" lon="-2.204955">
        <ele>871</ele>
        <time>2014-08-24T11:12:02.48</time>
      </trkpt>
      <trkpt lat="38.37054" lon="-2.20484">
        <ele>871</ele>
        <time>2014-08-24T11:12:04.48</time>
      </trkpt>
      <trkpt lat="38.370615" lon="-2.20473">
        <ele>872</ele>
        <time>2014-08-24T11:12:06.48</time>
      </trkpt>
      <trkpt lat="38.37068" lon="-2.204625">
        <ele>873</ele>
        <time>2014-08-24T11:12:08.48</time>
      </trkpt>
      <trkpt lat="38.37075" lon="-2.20453">
        <ele>874</ele>
        <time>2014-08-24T11:12:10.48</time>
      </trkpt>
      <trkpt lat="38.37083" lon="-2.20444">
        <ele>874</ele>
        <time>2014-08-24T11:12:12.48</time>
      </trkpt>
      <trkpt lat="38.370925" lon="-2.20437">
        <ele>874</ele>
        <time>2014-08-24T11:12:14.48</time>
      </trkpt>
      <trkpt lat="38.371035" lon="-2.20432">
        <ele>874</ele>
        <time>2014-08-24T11:12:16.48</time>
      </trkpt>
      <trkpt lat="38.371135" lon="-2.204315">
        <ele>874</ele>
        <time>2014-08-24T11:12:18.48</time>
      </trkpt>
      <trkpt lat="38.371235" lon="-2.204295">
        <ele>872</ele>
        <time>2014-08-24T11:12:20.42</time>
      </trkpt>
      <trkpt lat="38.37135" lon="-2.204275">
        <ele>872</ele>
        <time>2014-08-24T11:12:22.52</time>
      </trkpt>
      <trkpt lat="38.371465" lon="-2.20425">
        <ele>871</ele>
        <time>2014-08-24T11:12:24.48</time>
      </trkpt>
      <trkpt lat="38.371595" lon="-2.20424">
        <ele>870</ele>
        <time>2014-08-24T11:12:26.47</time>
      </trkpt>
      <trkpt lat="38.371715" lon="-2.204235">
        <ele>869</ele>
        <time>2014-08-24T11:12:28.47</time>
      </trkpt>
      <trkpt lat="38.371835" lon="-2.20427">
        <ele>868</ele>
        <time>2014-08-24T11:12:30.47</time>
      </trkpt>
      <trkpt lat="38.37194" lon="-2.204371666666667">
        <ele>868</ele>
        <time>2014-08-24T11:12:32.47</time>
      </trkpt>
      <trkpt lat="38.372" lon="-2.20453">
        <ele>868</ele>
        <time>2014-08-24T11:12:34.47</time>
      </trkpt>
      <trkpt lat="38.37201" lon="-2.204625">
        <ele>867</ele>
        <time>2014-08-24T11:12:35.53</time>
      </trkpt>
      <trkpt lat="38.372005" lon="-2.204725">
        <ele>867</ele>
        <time>2014-08-24T11:12:36.54</time>
      </trkpt>
      <trkpt lat="38.37199" lon="-2.204815">
        <ele>866</ele>
        <time>2014-08-24T11:12:37.63</time>
      </trkpt>
      <trkpt lat="38.37197" lon="-2.2049133333333333">
        <ele>866</ele>
        <time>2014-08-24T11:12:38.48</time>
      </trkpt>
      <trkpt lat="38.371946666666666" lon="-2.205015">
        <ele>866</ele>
        <time>2014-08-24T11:12:39.48</time>
      </trkpt>
      <trkpt lat="38.37192" lon="-2.205111666666667">
        <ele>866</ele>
        <time>2014-08-24T11:12:40.47</time>
      </trkpt>
      <trkpt lat="38.37189166666667" lon="-2.205225">
        <ele>866</ele>
        <time>2014-08-24T11:12:41.47</time>
      </trkpt>
      <trkpt lat="38.37187333333333" lon="-2.205335">
        <ele>866</ele>
        <time>2014-08-24T11:12:42.47</time>
      </trkpt>
      <trkpt lat="38.371875" lon="-2.20545">
        <ele>865</ele>
        <time>2014-08-24T11:12:43.47</time>
      </trkpt>
      <trkpt lat="38.37189" lon="-2.205565">
        <ele>865</ele>
        <time>2014-08-24T11:12:44.47</time>
      </trkpt>
      <trkpt lat="38.371915" lon="-2.205675">
        <ele>865</ele>
        <time>2014-08-24T11:12:45.47</time>
      </trkpt>
      <trkpt lat="38.371946666666666" lon="-2.20578">
        <ele>865</ele>
        <time>2014-08-24T11:12:46.47</time>
      </trkpt>
      <trkpt lat="38.372005" lon="-2.205865">
        <ele>865</ele>
        <time>2014-08-24T11:12:47.47</time>
      </trkpt>
      <trkpt lat="38.37207" lon="-2.205915">
        <ele>864</ele>
        <time>2014-08-24T11:12:48.47</time>
      </trkpt>
      <trkpt lat="38.37215" lon="-2.205935">
        <ele>864</ele>
        <time>2014-08-24T11:12:49.43</time>
      </trkpt>
      <trkpt lat="38.372235" lon="-2.205915">
        <ele>864</ele>
        <time>2014-08-24T11:12:50.47</time>
      </trkpt>
      <trkpt lat="38.372305" lon="-2.20585">
        <ele>864</ele>
        <time>2014-08-24T11:12:51.47</time>
      </trkpt>
      <trkpt lat="38.37236" lon="-2.205775">
        <ele>864</ele>
        <time>2014-08-24T11:12:52.47</time>
      </trkpt>
      <trkpt lat="38.3724" lon="-2.205675">
        <ele>864</ele>
        <time>2014-08-24T11:12:53.47</time>
      </trkpt>
      <trkpt lat="38.372425" lon="-2.20558">
        <ele>864</ele>
        <time>2014-08-24T11:12:54.59</time>
      </trkpt>
      <trkpt lat="38.372455" lon="-2.205485">
        <ele>864</ele>
        <time>2014-08-24T11:12:55.47</time>
      </trkpt>
      <trkpt lat="38.372495" lon="-2.2054">
        <ele>864</ele>
        <time>2014-08-24T11:12:56.47</time>
      </trkpt>
      <trkpt lat="38.37254" lon="-2.20532">
        <ele>865</ele>
        <time>2014-08-24T11:12:57.47</time>
      </trkpt>
      <trkpt lat="38.37263333333333" lon="-2.205191666666667">
        <ele>865</ele>
        <time>2014-08-24T11:12:59.48</time>
      </trkpt>
      <trkpt lat="38.37273" lon="-2.205075">
        <ele>866</ele>
        <time>2014-08-24T11:13:01.47</time>
      </trkpt>
      <trkpt lat="38.372825" lon="-2.20496">
        <ele>867</ele>
        <time>2014-08-24T11:13:03.47</time>
      </trkpt>
      <trkpt lat="38.372915" lon="-2.2048433333333333">
        <ele>868</ele>
        <time>2014-08-24T11:13:05.47</time>
      </trkpt>
      <trkpt lat="38.373005" lon="-2.2047316666666665">
        <ele>869</ele>
        <time>2014-08-24T11:13:07.42</time>
      </trkpt>
      <trkpt lat="38.37310333333333" lon="-2.20466">
        <ele>870</ele>
        <time>2014-08-24T11:13:09.43</time>
      </trkpt>
      <trkpt lat="38.37322" lon="-2.204615">
        <ele>869</ele>
        <time>2014-08-24T11:13:11.47</time>
      </trkpt>
      <trkpt lat="38.373345" lon="-2.20458">
        <ele>870</ele>
        <time>2014-08-24T11:13:13.42</time>
      </trkpt>
      <trkpt lat="38.373468333333335" lon="-2.204545">
        <ele>868</ele>
        <time>2014-08-24T11:13:15.52</time>
      </trkpt>
      <trkpt lat="38.373595" lon="-2.20451">
        <ele>869</ele>
        <time>2014-08-24T11:13:17.48</time>
      </trkpt>
      <trkpt lat="38.373715" lon="-2.2044683333333333">
        <ele>869</ele>
        <time>2014-08-24T11:13:19.48</time>
      </trkpt>
      <trkpt lat="38.37382" lon="-2.204475">
        <ele>870</ele>
        <time>2014-08-24T11:13:21.48</time>
      </trkpt>
      <trkpt lat="38.373915" lon="-2.204545">
        <ele>871</ele>
        <time>2014-08-24T11:13:23.64</time>
      </trkpt>
      <trkpt lat="38.37399" lon="-2.20466">
        <ele>872</ele>
        <time>2014-08-24T11:13:25.48</time>
      </trkpt>
      <trkpt lat="38.374035" lon="-2.2048">
        <ele>873</ele>
        <time>2014-08-24T11:13:27.48</time>
      </trkpt>
      <trkpt lat="38.374065" lon="-2.204955">
        <ele>873</ele>
        <time>2014-08-24T11:13:29.48</time>
      </trkpt>
      <trkpt lat="38.3741" lon="-2.20511">
        <ele>872</ele>
        <time>2014-08-24T11:13:31.48</time>
      </trkpt>
      <trkpt lat="38.374125" lon="-2.205265">
        <ele>872</ele>
        <time>2014-08-24T11:13:33.47</time>
      </trkpt>
      <trkpt lat="38.374155" lon="-2.205425">
        <ele>873</ele>
        <time>2014-08-24T11:13:35.48</time>
      </trkpt>
      <trkpt lat="38.374175" lon="-2.20559">
        <ele>874</ele>
        <time>2014-08-24T11:13:37.48</time>
      </trkpt>
      <trkpt lat="38.37421" lon="-2.205765">
        <ele>873</ele>
        <time>2014-08-24T11:13:39.47</time>
      </trkpt>
      <trkpt lat="38.374235" lon="-2.20594">
        <ele>873</ele>
        <time>2014-08-24T11:13:41.47</time>
      </trkpt>
      <trkpt lat="38.37425" lon="-2.206105">
        <ele>873</ele>
        <time>2014-08-24T11:13:43.47</time>
      </trkpt>
      <trkpt lat="38.374275" lon="-2.20629">
        <ele>873</ele>
        <time>2014-08-24T11:13:45.47</time>
      </trkpt>
      <trkpt lat="38.37431" lon="-2.206385">
        <ele>874</ele>
        <time>2014-08-24T11:13:46.47</time>
      </trkpt>
      <trkpt lat="38.374381666666665" lon="-2.20655">
        <ele>874</ele>
        <time>2014-08-24T11:13:48.47</time>
      </trkpt>
      <trkpt lat="38.37444" lon="-2.20664">
        <ele>875</ele>
        <time>2014-08-24T11:13:49.47</time>
      </trkpt>
      <trkpt lat="38.374495" lon="-2.206715">
        <ele>875</ele>
        <time>2014-08-24T11:13:50.47</time>
      </trkpt>
      <trkpt lat="38.37456" lon="-2.20677">
        <ele>875</ele>
        <time>2014-08-24T11:13:51.47</time>
      </trkpt>
      <trkpt lat="38.37464" lon="-2.20681">
        <ele>876</ele>
        <time>2014-08-24T11:13:52.47</time>
      </trkpt>
      <trkpt lat="38.374715" lon="-2.20684">
        <ele>876</ele>
        <time>2014-08-24T11:13:53.47</time>
      </trkpt>
      <trkpt lat="38.374795" lon="-2.20686">
        <ele>876</ele>
        <time>2014-08-24T11:13:54.47</time>
      </trkpt>
      <trkpt lat="38.374875" lon="-2.206885">
        <ele>876</ele>
        <time>2014-08-24T11:13:55.47</time>
      </trkpt>
      <trkpt lat="38.37495" lon="-2.20691">
        <ele>876</ele>
        <time>2014-08-24T11:13:56.46</time>
      </trkpt>
      <trkpt lat="38.37502" lon="-2.20695">
        <ele>876</ele>
        <time>2014-08-24T11:13:57.46</time>
      </trkpt>
      <trkpt lat="38.37509" lon="-2.20702">
        <ele>877</ele>
        <time>2014-08-24T11:13:58.47</time>
      </trkpt>
      <trkpt lat="38.37514" lon="-2.20709">
        <ele>875</ele>
        <time>2014-08-24T11:13:59.47</time>
      </trkpt>
      <trkpt lat="38.37518" lon="-2.2071633333333334">
        <ele>875</ele>
        <time>2014-08-24T11:14:00.47</time>
      </trkpt>
      <trkpt lat="38.375225" lon="-2.207255">
        <ele>874</ele>
        <time>2014-08-24T11:14:01.47</time>
      </trkpt>
      <trkpt lat="38.375265" lon="-2.207365">
        <ele>873</ele>
        <time>2014-08-24T11:14:02.47</time>
      </trkpt>
      <trkpt lat="38.375305" lon="-2.20747">
        <ele>872</ele>
        <time>2014-08-24T11:14:03.60</time>
      </trkpt>
      <trkpt lat="38.375345" lon="-2.207575">
        <ele>872</ele>
        <time>2014-08-24T11:14:04.47</time>
      </trkpt>
      <trkpt lat="38.375405" lon="-2.207685">
        <ele>872</ele>
        <time>2014-08-24T11:14:05.47</time>
      </trkpt>
      <trkpt lat="38.375465" lon="-2.20778">
        <ele>872</ele>
        <time>2014-08-24T11:14:06.47</time>
      </trkpt>
      <trkpt lat="38.37554" lon="-2.20786">
        <ele>870</ele>
        <time>2014-08-24T11:14:07.46</time>
      </trkpt>
      <trkpt lat="38.37562" lon="-2.207905">
        <ele>869</ele>
        <time>2014-08-24T11:14:08.46</time>
      </trkpt>
      <trkpt lat="38.37572" lon="-2.2078933333333333">
        <ele>869</ele>
        <time>2014-08-24T11:14:09.47</time>
      </trkpt>
      <trkpt lat="38.375815" lon="-2.207875">
        <ele>869</ele>
        <time>2014-08-24T11:14:10.46</time>
      </trkpt>
      <trkpt lat="38.3759" lon="-2.207815">
        <ele>869</ele>
        <time>2014-08-24T11:14:11.46</time>
      </trkpt>
      <trkpt lat="38.37596" lon="-2.20771">
        <ele>868</ele>
        <time>2014-08-24T11:14:12.47</time>
      </trkpt>
      <trkpt lat="38.376025" lon="-2.207615">
        <ele>868</ele>
        <time>2014-08-24T11:14:13.45</time>
      </trkpt>
      <trkpt lat="38.376095" lon="-2.207526666666667">
        <ele>869</ele>
        <time>2014-08-24T11:14:14.46</time>
      </trkpt>
      <trkpt lat="38.376165" lon="-2.207445">
        <ele>870</ele>
        <time>2014-08-24T11:14:15.47</time>
      </trkpt>
      <trkpt lat="38.376235" lon="-2.207365">
        <ele>870</ele>
        <time>2014-08-24T11:14:16.46</time>
      </trkpt>
      <trkpt lat="38.376315" lon="-2.2073">
        <ele>870</ele>
        <time>2014-08-24T11:14:17.46</time>
      </trkpt>
      <trkpt lat="38.3764" lon="-2.20724">
        <ele>870</ele>
        <time>2014-08-24T11:14:18.46</time>
      </trkpt>
      <trkpt lat="38.37649" lon="-2.2072">
        <ele>869</ele>
        <time>2014-08-24T11:14:19.47</time>
      </trkpt>
      <trkpt lat="38.376576666666665" lon="-2.20715">
        <ele>869</ele>
        <time>2014-08-24T11:14:20.47</time>
      </trkpt>
      <trkpt lat="38.376675" lon="-2.207105">
        <ele>868</ele>
        <time>2014-08-24T11:14:21.62</time>
      </trkpt>
      <trkpt lat="38.376765" lon="-2.20706">
        <ele>868</ele>
        <time>2014-08-24T11:14:22.47</time>
      </trkpt>
      <trkpt lat="38.37686" lon="-2.20702">
        <ele>867</ele>
        <time>2014-08-24T11:14:23.50</time>
      </trkpt>
      <trkpt lat="38.376945" lon="-2.20696">
        <ele>867</ele>
        <time>2014-08-24T11:14:24.47</time>
      </trkpt>
      <trkpt lat="38.377015" lon="-2.206875">
        <ele>866</ele>
        <time>2014-08-24T11:14:25.48</time>
      </trkpt>
      <trkpt lat="38.377055" lon="-2.20676">
        <ele>866</ele>
        <time>2014-08-24T11:14:26.55</time>
      </trkpt>
      <trkpt lat="38.377065" lon="-2.2066216666666665">
        <ele>864</ele>
        <time>2014-08-24T11:14:27.46</time>
      </trkpt>
      <trkpt lat="38.37704" lon="-2.2065">
        <ele>865</ele>
        <time>2014-08-24T11:14:28.47</time>
      </trkpt>
      <trkpt lat="38.37701" lon="-2.20638">
        <ele>865</ele>
        <time>2014-08-24T11:14:29.47</time>
      </trkpt>
      <trkpt lat="38.37697" lon="-2.2062633333333332">
        <ele>864</ele>
        <time>2014-08-24T11:14:30.47</time>
      </trkpt>
      <trkpt lat="38.37692" lon="-2.20616">
        <ele>863</ele>
        <time>2014-08-24T11:14:31.47</time>
      </trkpt>
      <trkpt lat="38.37687" lon="-2.206055">
        <ele>862</ele>
        <time>2014-08-24T11:14:32.47</time>
      </trkpt>
      <trkpt lat="38.376815" lon="-2.205945">
        <ele>862</ele>
        <time>2014-08-24T11:14:33.62</time>
      </trkpt>
      <trkpt lat="38.37677" lon="-2.205835">
        <ele>861</ele>
        <time>2014-08-24T11:14:34.47</time>
      </trkpt>
      <trkpt lat="38.376731666666664" lon="-2.205715">
        <ele>860</ele>
        <time>2014-08-24T11:14:35.47</time>
      </trkpt>
      <trkpt lat="38.376715" lon="-2.20558">
        <ele>860</ele>
        <time>2014-08-24T11:14:36.53</time>
      </trkpt>
      <trkpt lat="38.376705" lon="-2.20544">
        <ele>859</ele>
        <time>2014-08-24T11:14:37.47</time>
      </trkpt>
      <trkpt lat="38.37671" lon="-2.205305">
        <ele>858</ele>
        <time>2014-08-24T11:14:38.51</time>
      </trkpt>
      <trkpt lat="38.37674" lon="-2.205175">
        <ele>858</ele>
        <time>2014-08-24T11:14:39.63</time>
      </trkpt>
      <trkpt lat="38.37679" lon="-2.205055">
        <ele>858</ele>
        <time>2014-08-24T11:14:40.47</time>
      </trkpt>
      <trkpt lat="38.37686" lon="-2.204945">
        <ele>858</ele>
        <time>2014-08-24T11:14:41.47</time>
      </trkpt>
      <trkpt lat="38.376945" lon="-2.20485">
        <ele>857</ele>
        <time>2014-08-24T11:14:42.46</time>
      </trkpt>
      <trkpt lat="38.377025" lon="-2.20477">
        <ele>856</ele>
        <time>2014-08-24T11:14:43.47</time>
      </trkpt>
      <trkpt lat="38.377105" lon="-2.204695">
        <ele>856</ele>
        <time>2014-08-24T11:14:44.47</time>
      </trkpt>
      <trkpt lat="38.377165" lon="-2.20461">
        <ele>854</ele>
        <time>2014-08-24T11:14:45.47</time>
      </trkpt>
      <trkpt lat="38.377195" lon="-2.20452">
        <ele>854</ele>
        <time>2014-08-24T11:14:46.47</time>
      </trkpt>
      <trkpt lat="38.37715" lon="-2.204405">
        <ele>854</ele>
        <time>2014-08-24T11:14:47.47</time>
      </trkpt>
      <trkpt lat="38.37710666666667" lon="-2.2043">
        <ele>854</ele>
        <time>2014-08-24T11:14:48.53</time>
      </trkpt>
      <trkpt lat="38.377055" lon="-2.20422">
        <ele>854</ele>
        <time>2014-08-24T11:14:49.63</time>
      </trkpt>
      <trkpt lat="38.37698" lon="-2.204145">
        <ele>854</ele>
        <time>2014-08-24T11:14:50.42</time>
      </trkpt>
      <trkpt lat="38.3769" lon="-2.204085">
        <ele>853</ele>
        <time>2014-08-24T11:14:51.48</time>
      </trkpt>
      <trkpt lat="38.37681666666667" lon="-2.2040166666666665">
        <ele>853</ele>
        <time>2014-08-24T11:14:52.48</time>
      </trkpt>
      <trkpt lat="38.37675" lon="-2.203945">
        <ele>853</ele>
        <time>2014-08-24T11:14:53.48</time>
      </trkpt>
      <trkpt lat="38.376695" lon="-2.2038416666666665">
        <ele>852</ele>
        <time>2014-08-24T11:14:54.55</time>
      </trkpt>
      <trkpt lat="38.376646666666666" lon="-2.20374">
        <ele>851</ele>
        <time>2014-08-24T11:14:55.42</time>
      </trkpt>
      <trkpt lat="38.376615" lon="-2.203625">
        <ele>851</ele>
        <time>2014-08-24T11:14:56.42</time>
      </trkpt>
      <trkpt lat="38.376576666666665" lon="-2.203505">
        <ele>851</ele>
        <time>2014-08-24T11:14:57.48</time>
      </trkpt>
      <trkpt lat="38.376545" lon="-2.203375">
        <ele>851</ele>
        <time>2014-08-24T11:14:58.54</time>
      </trkpt>
      <trkpt lat="38.376508333333334" lon="-2.203255">
        <ele>850</ele>
        <time>2014-08-24T11:14:59.47</time>
      </trkpt>
      <trkpt lat="38.37648" lon="-2.203125">
        <ele>849</ele>
        <time>2014-08-24T11:15:00.48</time>
      </trkpt>
      <trkpt lat="38.37645" lon="-2.20299">
        <ele>849</ele>
        <time>2014-08-24T11:15:01.48</time>
      </trkpt>
      <trkpt lat="38.376435" lon="-2.202855">
        <ele>848</ele>
        <time>2014-08-24T11:15:02.48</time>
      </trkpt>
      <trkpt lat="38.37642" lon="-2.202725">
        <ele>849</ele>
        <time>2014-08-24T11:15:03.48</time>
      </trkpt>
      <trkpt lat="38.376415" lon="-2.202595">
        <ele>849</ele>
        <time>2014-08-24T11:15:04.48</time>
      </trkpt>
      <trkpt lat="38.3764" lon="-2.20247">
        <ele>848</ele>
        <time>2014-08-24T11:15:05.48</time>
      </trkpt>
      <trkpt lat="38.376395" lon="-2.202345">
        <ele>847</ele>
        <time>2014-08-24T11:15:06.47</time>
      </trkpt>
      <trkpt lat="38.376415" lon="-2.20222">
        <ele>847</ele>
        <time>2014-08-24T11:15:07.47</time>
      </trkpt>
      <trkpt lat="38.37646" lon="-2.202105">
        <ele>846</ele>
        <time>2014-08-24T11:15:08.47</time>
      </trkpt>
      <trkpt lat="38.37653" lon="-2.202005">
        <ele>846</ele>
        <time>2014-08-24T11:15:09.46</time>
      </trkpt>
      <trkpt lat="38.376635" lon="-2.20193">
        <ele>846</ele>
        <time>2014-08-24T11:15:10.47</time>
      </trkpt>
      <trkpt lat="38.37674" lon="-2.2018716666666664">
        <ele>847</ele>
        <time>2014-08-24T11:15:11.48</time>
      </trkpt>
      <trkpt lat="38.37683" lon="-2.201805">
        <ele>847</ele>
        <time>2014-08-24T11:15:12.47</time>
      </trkpt>
      <trkpt lat="38.37692" lon="-2.201735">
        <ele>847</ele>
        <time>2014-08-24T11:15:13.47</time>
      </trkpt>
      <trkpt lat="38.377025" lon="-2.201665">
        <ele>844</ele>
        <time>2014-08-24T11:15:14.48</time>
      </trkpt>
      <trkpt lat="38.37712" lon="-2.2016183333333332">
        <ele>844</ele>
        <time>2014-08-24T11:15:15.48</time>
      </trkpt>
      <trkpt lat="38.377215" lon="-2.2015933333333333">
        <ele>843</ele>
        <time>2014-08-24T11:15:16.47</time>
      </trkpt>
      <trkpt lat="38.37732" lon="-2.20159">
        <ele>844</ele>
        <time>2014-08-24T11:15:17.47</time>
      </trkpt>
      <trkpt lat="38.37742" lon="-2.20158">
        <ele>843</ele>
        <time>2014-08-24T11:15:18.48</time>
      </trkpt>
      <trkpt lat="38.37752" lon="-2.20158">
        <ele>843</ele>
        <time>2014-08-24T11:15:19.59</time>
      </trkpt>
      <trkpt lat="38.37762" lon="-2.20159">
        <ele>843</ele>
        <time>2014-08-24T11:15:20.47</time>
      </trkpt>
      <trkpt lat="38.377725" lon="-2.2016">
        <ele>841</ele>
        <time>2014-08-24T11:15:21.67</time>
      </trkpt>
      <trkpt lat="38.377825" lon="-2.20161">
        <ele>841</ele>
        <time>2014-08-24T11:15:22.39</time>
      </trkpt>
      <trkpt lat="38.377925" lon="-2.201635">
        <ele>840</ele>
        <time>2014-08-24T11:15:23.44</time>
      </trkpt>
      <trkpt lat="38.37802" lon="-2.201655">
        <ele>840</ele>
        <time>2014-08-24T11:15:24.39</time>
      </trkpt>
      <trkpt lat="38.37811" lon="-2.2016883333333332">
        <ele>839</ele>
        <time>2014-08-24T11:15:25.39</time>
      </trkpt>
      <trkpt lat="38.378185" lon="-2.201755">
        <ele>839</ele>
        <time>2014-08-24T11:15:26.39</time>
      </trkpt>
      <trkpt lat="38.37825" lon="-2.20185">
        <ele>838</ele>
        <time>2014-08-24T11:15:27.39</time>
      </trkpt>
      <trkpt lat="38.37831" lon="-2.20195">
        <ele>838</ele>
        <time>2014-08-24T11:15:28.39</time>
      </trkpt>
      <trkpt lat="38.37836" lon="-2.202055">
        <ele>837</ele>
        <time>2014-08-24T11:15:29.39</time>
      </trkpt>
      <trkpt lat="38.378425" lon="-2.202165">
        <ele>837</ele>
        <time>2014-08-24T11:15:30.39</time>
      </trkpt>
      <trkpt lat="38.378475" lon="-2.202275">
        <ele>836</ele>
        <time>2014-08-24T11:15:31.47</time>
      </trkpt>
      <trkpt lat="38.37852" lon="-2.202385">
        <ele>836</ele>
        <time>2014-08-24T11:15:32.39</time>
      </trkpt>
      <trkpt lat="38.37857" lon="-2.2024983333333332">
        <ele>836</ele>
        <time>2014-08-24T11:15:33.42</time>
      </trkpt>
      <trkpt lat="38.378615" lon="-2.20261">
        <ele>835</ele>
        <time>2014-08-24T11:15:34.45</time>
      </trkpt>
      <trkpt lat="38.37867" lon="-2.202735">
        <ele>836</ele>
        <time>2014-08-24T11:15:35.45</time>
      </trkpt>
      <trkpt lat="38.378735" lon="-2.20283">
        <ele>836</ele>
        <time>2014-08-24T11:15:36.43</time>
      </trkpt>
      <trkpt lat="38.378825" lon="-2.2029">
        <ele>837</ele>
        <time>2014-08-24T11:15:37.52</time>
      </trkpt>
      <trkpt lat="38.37891" lon="-2.202925">
        <ele>838</ele>
        <time>2014-08-24T11:15:38.45</time>
      </trkpt>
      <trkpt lat="38.379005" lon="-2.202935">
        <ele>838</ele>
        <time>2014-08-24T11:15:39.44</time>
      </trkpt>
      <trkpt lat="38.379095" lon="-2.20291">
        <ele>837</ele>
        <time>2014-08-24T11:15:40.44</time>
      </trkpt>
      <trkpt lat="38.379153333333335" lon="-2.202795">
        <ele>838</ele>
        <time>2014-08-24T11:15:41.43</time>
      </trkpt>
      <trkpt lat="38.37922" lon="-2.202705">
        <ele>838</ele>
        <time>2014-08-24T11:15:42.44</time>
      </trkpt>
      <trkpt lat="38.3793" lon="-2.202635">
        <ele>838</ele>
        <time>2014-08-24T11:15:43.44</time>
      </trkpt>
      <trkpt lat="38.379385" lon="-2.202585">
        <ele>838</ele>
        <time>2014-08-24T11:15:44.42</time>
      </trkpt>
      <trkpt lat="38.379475" lon="-2.20255">
        <ele>838</ele>
        <time>2014-08-24T11:15:45.44</time>
      </trkpt>
      <trkpt lat="38.379585" lon="-2.20256">
        <ele>838</ele>
        <time>2014-08-24T11:15:46.44</time>
      </trkpt>
      <trkpt lat="38.379675" lon="-2.202585">
        <ele>838</ele>
        <time>2014-08-24T11:15:47.44</time>
      </trkpt>
      <trkpt lat="38.37977" lon="-2.20263">
        <ele>836</ele>
        <time>2014-08-24T11:15:48.46</time>
      </trkpt>
      <trkpt lat="38.379855" lon="-2.202681666666667">
        <ele>835</ele>
        <time>2014-08-24T11:15:49.50</time>
      </trkpt>
      <trkpt lat="38.379945" lon="-2.20276">
        <ele>834</ele>
        <time>2014-08-24T11:15:50.45</time>
      </trkpt>
      <trkpt lat="38.38003" lon="-2.20284">
        <ele>833</ele>
        <time>2014-08-24T11:15:51.47</time>
      </trkpt>
      <trkpt lat="38.380125" lon="-2.202895">
        <ele>833</ele>
        <time>2014-08-24T11:15:52.39</time>
      </trkpt>
      <trkpt lat="38.38022" lon="-2.202925">
        <ele>833</ele>
        <time>2014-08-24T11:15:53.39</time>
      </trkpt>
      <trkpt lat="38.38031" lon="-2.202925">
        <ele>832</ele>
        <time>2014-08-24T11:15:54.47</time>
      </trkpt>
      <trkpt lat="38.38039" lon="-2.20289">
        <ele>831</ele>
        <time>2014-08-24T11:15:55.61</time>
      </trkpt>
      <trkpt lat="38.380475" lon="-2.20284">
        <ele>830</ele>
        <time>2014-08-24T11:15:56.56</time>
      </trkpt>
      <trkpt lat="38.38055" lon="-2.20276">
        <ele>829</ele>
        <time>2014-08-24T11:15:57.47</time>
      </trkpt>
      <trkpt lat="38.38062" lon="-2.2026683333333335">
        <ele>828</ele>
        <time>2014-08-24T11:15:58.46</time>
      </trkpt>
      <trkpt lat="38.380671666666665" lon="-2.20256">
        <ele>828</ele>
        <time>2014-08-24T11:15:59.46</time>
      </trkpt>
      <trkpt lat="38.38072" lon="-2.202445">
        <ele>828</ele>
        <time>2014-08-24T11:16:00.46</time>
      </trkpt>
      <trkpt lat="38.380765" lon="-2.20233">
        <ele>828</ele>
        <time>2014-08-24T11:16:01.50</time>
      </trkpt>
      <trkpt lat="38.380811666666666" lon="-2.20221">
        <ele>827</ele>
        <time>2014-08-24T11:16:02.46</time>
      </trkpt>
      <trkpt lat="38.380865" lon="-2.202095">
        <ele>826</ele>
        <time>2014-08-24T11:16:03.47</time>
      </trkpt>
      <trkpt lat="38.380925" lon="-2.201975">
        <ele>826</ele>
        <time>2014-08-24T11:16:04.46</time>
      </trkpt>
      <trkpt lat="38.38098333333333" lon="-2.20187">
        <ele>826</ele>
        <time>2014-08-24T11:16:05.46</time>
      </trkpt>
      <trkpt lat="38.381045" lon="-2.20176">
        <ele>826</ele>
        <time>2014-08-24T11:16:06.43</time>
      </trkpt>
      <trkpt lat="38.381105" lon="-2.201675">
        <ele>825</ele>
        <time>2014-08-24T11:16:07.39</time>
      </trkpt>
      <trkpt lat="38.381175" lon="-2.2016">
        <ele>825</ele>
        <time>2014-08-24T11:16:08.39</time>
      </trkpt>
      <trkpt lat="38.381245" lon="-2.20153">
        <ele>824</ele>
        <time>2014-08-24T11:16:09.39</time>
      </trkpt>
      <trkpt lat="38.381325" lon="-2.20148">
        <ele>824</ele>
        <time>2014-08-24T11:16:10.46</time>
      </trkpt>
      <trkpt lat="38.38142" lon="-2.20145">
        <ele>824</ele>
        <time>2014-08-24T11:16:11.58</time>
      </trkpt>
      <trkpt lat="38.3815" lon="-2.201435">
        <ele>823</ele>
        <time>2014-08-24T11:16:12.47</time>
      </trkpt>
      <trkpt lat="38.38162" lon="-2.20145">
        <ele>824</ele>
        <time>2014-08-24T11:16:13.47</time>
      </trkpt>
      <trkpt lat="38.38171" lon="-2.201455">
        <ele>824</ele>
        <time>2014-08-24T11:16:14.47</time>
      </trkpt>
      <trkpt lat="38.381805" lon="-2.201475">
        <ele>823</ele>
        <time>2014-08-24T11:16:15.46</time>
      </trkpt>
      <trkpt lat="38.381905" lon="-2.2015">
        <ele>823</ele>
        <time>2014-08-24T11:16:16.47</time>
      </trkpt>
      <trkpt lat="38.381995" lon="-2.20152">
        <ele>822</ele>
        <time>2014-08-24T11:16:17.47</time>
      </trkpt>
      <trkpt lat="38.38209" lon="-2.201545">
        <ele>822</ele>
        <time>2014-08-24T11:16:18.47</time>
      </trkpt>
      <trkpt lat="38.38219" lon="-2.20157">
        <ele>822</ele>
        <time>2014-08-24T11:16:19.47</time>
      </trkpt>
      <trkpt lat="38.38227" lon="-2.20158">
        <ele>819</ele>
        <time>2014-08-24T11:16:20.47</time>
      </trkpt>
      <trkpt lat="38.38237" lon="-2.20159">
        <ele>817</ele>
        <time>2014-08-24T11:16:21.47</time>
      </trkpt>
      <trkpt lat="38.38247" lon="-2.2016183333333332">
        <ele>817</ele>
        <time>2014-08-24T11:16:22.47</time>
      </trkpt>
      <trkpt lat="38.382565" lon="-2.201645">
        <ele>817</ele>
        <time>2014-08-24T11:16:23.46</time>
      </trkpt>
      <trkpt lat="38.382665" lon="-2.201655">
        <ele>815</ele>
        <time>2014-08-24T11:16:24.47</time>
      </trkpt>
      <trkpt lat="38.38276" lon="-2.20168">
        <ele>815</ele>
        <time>2014-08-24T11:16:25.46</time>
      </trkpt>
      <trkpt lat="38.382855" lon="-2.201725">
        <ele>814</ele>
        <time>2014-08-24T11:16:26.46</time>
      </trkpt>
      <trkpt lat="38.382935" lon="-2.201765">
        <ele>814</ele>
        <time>2014-08-24T11:16:27.46</time>
      </trkpt>
      <trkpt lat="38.382995" lon="-2.201835">
        <ele>813</ele>
        <time>2014-08-24T11:16:28.46</time>
      </trkpt>
      <trkpt lat="38.38303" lon="-2.20193">
        <ele>814</ele>
        <time>2014-08-24T11:16:29.46</time>
      </trkpt>
      <trkpt lat="38.38304" lon="-2.20203">
        <ele>814</ele>
        <time>2014-08-24T11:16:30.46</time>
      </trkpt>
      <trkpt lat="38.38304" lon="-2.20213">
        <ele>813</ele>
        <time>2014-08-24T11:16:31.46</time>
      </trkpt>
      <trkpt lat="38.383015" lon="-2.20223">
        <ele>812</ele>
        <time>2014-08-24T11:16:32.46</time>
      </trkpt>
      <trkpt lat="38.38297" lon="-2.20233">
        <ele>812</ele>
        <time>2014-08-24T11:16:33.47</time>
      </trkpt>
      <trkpt lat="38.38291" lon="-2.2024">
        <ele>811</ele>
        <time>2014-08-24T11:16:34.46</time>
      </trkpt>
      <trkpt lat="38.382855" lon="-2.20249">
        <ele>810</ele>
        <time>2014-08-24T11:16:35.46</time>
      </trkpt>
      <trkpt lat="38.38276" lon="-2.20254">
        <ele>810</ele>
        <time>2014-08-24T11:16:36.47</time>
      </trkpt>
      <trkpt lat="38.38268" lon="-2.2026">
        <ele>809</ele>
        <time>2014-08-24T11:16:37.46</time>
      </trkpt>
      <trkpt lat="38.38261" lon="-2.20268">
        <ele>809</ele>
        <time>2014-08-24T11:16:38.52</time>
      </trkpt>
      <trkpt lat="38.382545" lon="-2.20279">
        <ele>809</ele>
        <time>2014-08-24T11:16:39.46</time>
      </trkpt>
      <trkpt lat="38.3825" lon="-2.2029">
        <ele>808</ele>
        <time>2014-08-24T11:16:40.46</time>
      </trkpt>
      <trkpt lat="38.382475" lon="-2.2030316666666665">
        <ele>808</ele>
        <time>2014-08-24T11:16:41.46</time>
      </trkpt>
      <trkpt lat="38.382465" lon="-2.203175">
        <ele>806</ele>
        <time>2014-08-24T11:16:42.47</time>
      </trkpt>
      <trkpt lat="38.382455" lon="-2.20331">
        <ele>806</ele>
        <time>2014-08-24T11:16:43.46</time>
      </trkpt>
      <trkpt lat="38.38245" lon="-2.203445">
        <ele>805</ele>
        <time>2014-08-24T11:16:44.47</time>
      </trkpt>
      <trkpt lat="38.382445" lon="-2.20358">
        <ele>805</ele>
        <time>2014-08-24T11:16:45.46</time>
      </trkpt>
      <trkpt lat="38.38243" lon="-2.203715">
        <ele>805</ele>
        <time>2014-08-24T11:16:46.46</time>
      </trkpt>
      <trkpt lat="38.382415" lon="-2.20385">
        <ele>805</ele>
        <time>2014-08-24T11:16:47.46</time>
      </trkpt>
      <trkpt lat="38.382385" lon="-2.20398">
        <ele>804</ele>
        <time>2014-08-24T11:16:48.46</time>
      </trkpt>
      <trkpt lat="38.382355" lon="-2.2041">
        <ele>803</ele>
        <time>2014-08-24T11:16:49.46</time>
      </trkpt>
      <trkpt lat="38.38232" lon="-2.20422">
        <ele>803</ele>
        <time>2014-08-24T11:16:50.46</time>
      </trkpt>
      <trkpt lat="38.382275" lon="-2.204325">
        <ele>803</ele>
        <time>2014-08-24T11:16:51.46</time>
      </trkpt>
      <trkpt lat="38.382205" lon="-2.20442">
        <ele>802</ele>
        <time>2014-08-24T11:16:52.46</time>
      </trkpt>
      <trkpt lat="38.38213" lon="-2.2045">
        <ele>802</ele>
        <time>2014-08-24T11:16:53.47</time>
      </trkpt>
      <trkpt lat="38.38205" lon="-2.204565">
        <ele>801</ele>
        <time>2014-08-24T11:16:54.46</time>
      </trkpt>
      <trkpt lat="38.381965" lon="-2.2046">
        <ele>801</ele>
        <time>2014-08-24T11:16:55.46</time>
      </trkpt>
      <trkpt lat="38.38186" lon="-2.204615">
        <ele>802</ele>
        <time>2014-08-24T11:16:56.46</time>
      </trkpt>
      <trkpt lat="38.38177" lon="-2.204641666666667">
        <ele>802</ele>
        <time>2014-08-24T11:16:57.46</time>
      </trkpt>
      <trkpt lat="38.381685" lon="-2.20469">
        <ele>802</ele>
        <time>2014-08-24T11:16:58.46</time>
      </trkpt>
      <trkpt lat="38.381615" lon="-2.20477">
        <ele>799</ele>
        <time>2014-08-24T11:16:59.47</time>
      </trkpt>
      <trkpt lat="38.381545" lon="-2.204865">
        <ele>798</ele>
        <time>2014-08-24T11:17:00.42</time>
      </trkpt>
      <trkpt lat="38.381465" lon="-2.204965">
        <ele>797</ele>
        <time>2014-08-24T11:17:01.42</time>
      </trkpt>
      <trkpt lat="38.381405" lon="-2.20507">
        <ele>797</ele>
        <time>2014-08-24T11:17:02.39</time>
      </trkpt>
      <trkpt lat="38.38133" lon="-2.205165">
        <ele>797</ele>
        <time>2014-08-24T11:17:03.39</time>
      </trkpt>
      <trkpt lat="38.38127" lon="-2.205315">
        <ele>793</ele>
        <time>2014-08-24T11:17:04.42</time>
      </trkpt>
      <trkpt lat="38.38122" lon="-2.20544">
        <ele>793</ele>
        <time>2014-08-24T11:17:05.54</time>
      </trkpt>
      <trkpt lat="38.3812" lon="-2.205585">
        <ele>792</ele>
        <time>2014-08-24T11:17:06.39</time>
      </trkpt>
      <trkpt lat="38.381185" lon="-2.20573">
        <ele>792</ele>
        <time>2014-08-24T11:17:07.46</time>
      </trkpt>
      <trkpt lat="38.38116" lon="-2.205885">
        <ele>792</ele>
        <time>2014-08-24T11:17:08.48</time>
      </trkpt>
      <trkpt lat="38.381135" lon="-2.20605">
        <ele>791</ele>
        <time>2014-08-24T11:17:09.46</time>
      </trkpt>
      <trkpt lat="38.381115" lon="-2.20622">
        <ele>791</ele>
        <time>2014-08-24T11:17:10.46</time>
      </trkpt>
      <trkpt lat="38.38107" lon="-2.206455">
        <ele>791</ele>
        <time>2014-08-24T11:17:11.51</time>
      </trkpt>
      <trkpt lat="38.38118" lon="-2.20657">
        <ele>789</ele>
        <time>2014-08-24T11:17:12.39</time>
      </trkpt>
      <trkpt lat="38.38119" lon="-2.206725">
        <ele>788</ele>
        <time>2014-08-24T11:17:13.39</time>
      </trkpt>
      <trkpt lat="38.38121" lon="-2.206885">
        <ele>787</ele>
        <time>2014-08-24T11:17:14.39</time>
      </trkpt>
      <trkpt lat="38.381225" lon="-2.206995">
        <ele>786</ele>
        <time>2014-08-24T11:17:15.46</time>
      </trkpt>
      <trkpt lat="38.38127" lon="-2.207095">
        <ele>784</ele>
        <time>2014-08-24T11:17:16.46</time>
      </trkpt>
      <trkpt lat="38.38133" lon="-2.207175">
        <ele>783</ele>
        <time>2014-08-24T11:17:17.46</time>
      </trkpt>
      <trkpt lat="38.38142" lon="-2.20723">
        <ele>784</ele>
        <time>2014-08-24T11:17:18.46</time>
      </trkpt>
      <trkpt lat="38.38153" lon="-2.207265">
        <ele>784</ele>
        <time>2014-08-24T11:17:19.46</time>
      </trkpt>
      <trkpt lat="38.381635" lon="-2.2073">
        <ele>784</ele>
        <time>2014-08-24T11:17:20.46</time>
      </trkpt>
      <trkpt lat="38.38174" lon="-2.207325">
        <ele>783</ele>
        <time>2014-08-24T11:17:21.47</time>
      </trkpt>
      <trkpt lat="38.38185" lon="-2.207325">
        <ele>782</ele>
        <time>2014-08-24T11:17:22.46</time>
      </trkpt>
      <trkpt lat="38.38196" lon="-2.20731">
        <ele>781</ele>
        <time>2014-08-24T11:17:23.46</time>
      </trkpt>
      <trkpt lat="38.382055" lon="-2.207255">
        <ele>780</ele>
        <time>2014-08-24T11:17:24.46</time>
      </trkpt>
      <trkpt lat="38.38212333333333" lon="-2.20719">
        <ele>780</ele>
        <time>2014-08-24T11:17:25.46</time>
      </trkpt>
      <trkpt lat="38.382175" lon="-2.20711">
        <ele>779</ele>
        <time>2014-08-24T11:17:26.46</time>
      </trkpt>
      <trkpt lat="38.38221" lon="-2.20698">
        <ele>776</ele>
        <time>2014-08-24T11:17:27.47</time>
      </trkpt>
      <trkpt lat="38.38222" lon="-2.206865">
        <ele>774</ele>
        <time>2014-08-24T11:17:28.46</time>
      </trkpt>
      <trkpt lat="38.382235" lon="-2.20674">
        <ele>771</ele>
        <time>2014-08-24T11:17:29.46</time>
      </trkpt>
      <trkpt lat="38.38224" lon="-2.20662">
        <ele>770</ele>
        <time>2014-08-24T11:17:30.46</time>
      </trkpt>
      <trkpt lat="38.382255" lon="-2.20649">
        <ele>769</ele>
        <time>2014-08-24T11:17:31.46</time>
      </trkpt>
      <trkpt lat="38.38226" lon="-2.20635">
        <ele>768</ele>
        <time>2014-08-24T11:17:32.47</time>
      </trkpt>
      <trkpt lat="38.382261666666665" lon="-2.20622">
        <ele>768</ele>
        <time>2014-08-24T11:17:33.48</time>
      </trkpt>
      <trkpt lat="38.38228" lon="-2.20611">
        <ele>768</ele>
        <time>2014-08-24T11:17:34.46</time>
      </trkpt>
      <trkpt lat="38.382315" lon="-2.206015">
        <ele>767</ele>
        <time>2014-08-24T11:17:35.46</time>
      </trkpt>
      <trkpt lat="38.382375" lon="-2.20593">
        <ele>767</ele>
        <time>2014-08-24T11:17:36.50</time>
      </trkpt>
      <trkpt lat="38.38245" lon="-2.20586">
        <ele>766</ele>
        <time>2014-08-24T11:17:37.46</time>
      </trkpt>
      <trkpt lat="38.382535" lon="-2.205795">
        <ele>765</ele>
        <time>2014-08-24T11:17:38.47</time>
      </trkpt>
      <trkpt lat="38.38262" lon="-2.20573">
        <ele>764</ele>
        <time>2014-08-24T11:17:39.46</time>
      </trkpt>
      <trkpt lat="38.382706666666664" lon="-2.20566">
        <ele>764</ele>
        <time>2014-08-24T11:17:40.46</time>
      </trkpt>
      <trkpt lat="38.3828" lon="-2.205595">
        <ele>763</ele>
        <time>2014-08-24T11:17:41.53</time>
      </trkpt>
      <trkpt lat="38.38289" lon="-2.20553">
        <ele>762</ele>
        <time>2014-08-24T11:17:42.46</time>
      </trkpt>
      <trkpt lat="38.38296" lon="-2.2054533333333333">
        <ele>762</ele>
        <time>2014-08-24T11:17:43.48</time>
      </trkpt>
      <trkpt lat="38.38301" lon="-2.205365">
        <ele>762</ele>
        <time>2014-08-24T11:17:44.46</time>
      </trkpt>
      <trkpt lat="38.383045" lon="-2.205265">
        <ele>762</ele>
        <time>2014-08-24T11:17:45.46</time>
      </trkpt>
      <trkpt lat="38.383070000000004" lon="-2.205145">
        <ele>760</ele>
        <time>2014-08-24T11:17:46.46</time>
      </trkpt>
      <trkpt lat="38.383085" lon="-2.2050183333333333">
        <ele>759</ele>
        <time>2014-08-24T11:17:47.46</time>
      </trkpt>
      <trkpt lat="38.383085" lon="-2.20488">
        <ele>758</ele>
        <time>2014-08-24T11:17:48.46</time>
      </trkpt>
      <trkpt lat="38.383085" lon="-2.204745">
        <ele>759</ele>
        <time>2014-08-24T11:17:49.46</time>
      </trkpt>
      <trkpt lat="38.383093333333335" lon="-2.204615">
        <ele>757</ele>
        <time>2014-08-24T11:17:50.42</time>
      </trkpt>
      <trkpt lat="38.383105" lon="-2.20449">
        <ele>757</ele>
        <time>2014-08-24T11:17:51.48</time>
      </trkpt>
      <trkpt lat="38.383115" lon="-2.204355">
        <ele>757</ele>
        <time>2014-08-24T11:17:52.46</time>
      </trkpt>
      <trkpt lat="38.383145" lon="-2.20423">
        <ele>757</ele>
        <time>2014-08-24T11:17:53.46</time>
      </trkpt>
      <trkpt lat="38.383175" lon="-2.204105">
        <ele>756</ele>
        <time>2014-08-24T11:17:54.46</time>
      </trkpt>
      <trkpt lat="38.383215" lon="-2.20398">
        <ele>757</ele>
        <time>2014-08-24T11:17:55.46</time>
      </trkpt>
      <trkpt lat="38.38324333333333" lon="-2.203856666666667">
        <ele>756</ele>
        <time>2014-08-24T11:17:56.47</time>
      </trkpt>
      <trkpt lat="38.383275" lon="-2.20373">
        <ele>755</ele>
        <time>2014-08-24T11:17:57.46</time>
      </trkpt>
      <trkpt lat="38.38331" lon="-2.203605">
        <ele>754</ele>
        <time>2014-08-24T11:17:58.53</time>
      </trkpt>
      <trkpt lat="38.38335" lon="-2.20349">
        <ele>753</ele>
        <time>2014-08-24T11:17:59.46</time>
      </trkpt>
      <trkpt lat="38.3834" lon="-2.20339">
        <ele>753</ele>
        <time>2014-08-24T11:18:00.46</time>
      </trkpt>
      <trkpt lat="38.38346" lon="-2.2033">
        <ele>752</ele>
        <time>2014-08-24T11:18:01.46</time>
      </trkpt>
      <trkpt lat="38.383525" lon="-2.203215">
        <ele>752</ele>
        <time>2014-08-24T11:18:02.46</time>
      </trkpt>
      <trkpt lat="38.383585" lon="-2.203135">
        <ele>751</ele>
        <time>2014-08-24T11:18:03.46</time>
      </trkpt>
      <trkpt lat="38.38365" lon="-2.203055">
        <ele>751</ele>
        <time>2014-08-24T11:18:04.46</time>
      </trkpt>
      <trkpt lat="38.38371166666667" lon="-2.20298">
        <ele>751</ele>
        <time>2014-08-24T11:18:05.46</time>
      </trkpt>
      <trkpt lat="38.383783333333334" lon="-2.202915">
        <ele>752</ele>
        <time>2014-08-24T11:18:06.39</time>
      </trkpt>
      <trkpt lat="38.383851666666665" lon="-2.2028566666666665">
        <ele>751</ele>
        <time>2014-08-24T11:18:07.45</time>
      </trkpt>
      <trkpt lat="38.38393666666666" lon="-2.202845">
        <ele>751</ele>
        <time>2014-08-24T11:18:08.45</time>
      </trkpt>
      <trkpt lat="38.384035" lon="-2.202835">
        <ele>751</ele>
        <time>2014-08-24T11:18:09.46</time>
      </trkpt>
      <trkpt lat="38.38413" lon="-2.20282">
        <ele>751</ele>
        <time>2014-08-24T11:18:10.45</time>
      </trkpt>
      <trkpt lat="38.38422" lon="-2.2028">
        <ele>750</ele>
        <time>2014-08-24T11:18:11.45</time>
      </trkpt>
      <trkpt lat="38.38431666666666" lon="-2.20278">
        <ele>750</ele>
        <time>2014-08-24T11:18:12.45</time>
      </trkpt>
      <trkpt lat="38.384415" lon="-2.20276">
        <ele>750</ele>
        <time>2014-08-24T11:18:13.45</time>
      </trkpt>
      <trkpt lat="38.384515" lon="-2.202735">
        <ele>749</ele>
        <time>2014-08-24T11:18:14.45</time>
      </trkpt>
      <trkpt lat="38.38462" lon="-2.20272">
        <ele>748</ele>
        <time>2014-08-24T11:18:15.45</time>
      </trkpt>
      <trkpt lat="38.38472" lon="-2.2027">
        <ele>747</ele>
        <time>2014-08-24T11:18:16.45</time>
      </trkpt>
      <trkpt lat="38.38482" lon="-2.20268">
        <ele>747</ele>
        <time>2014-08-24T11:18:17.45</time>
      </trkpt>
      <trkpt lat="38.384905" lon="-2.20265">
        <ele>746</ele>
        <time>2014-08-24T11:18:18.45</time>
      </trkpt>
      <trkpt lat="38.38498" lon="-2.2026">
        <ele>745</ele>
        <time>2014-08-24T11:18:19.45</time>
      </trkpt>
      <trkpt lat="38.38505" lon="-2.202535">
        <ele>744</ele>
        <time>2014-08-24T11:18:20.46</time>
      </trkpt>
      <trkpt lat="38.38511" lon="-2.20246">
        <ele>744</ele>
        <time>2014-08-24T11:18:21.45</time>
      </trkpt>
      <trkpt lat="38.38514" lon="-2.202345">
        <ele>743</ele>
        <time>2014-08-24T11:18:22.45</time>
      </trkpt>
      <trkpt lat="38.385175" lon="-2.202215">
        <ele>740</ele>
        <time>2014-08-24T11:18:23.45</time>
      </trkpt>
      <trkpt lat="38.3852" lon="-2.202095">
        <ele>739</ele>
        <time>2014-08-24T11:18:24.45</time>
      </trkpt>
      <trkpt lat="38.38521333333333" lon="-2.2019683333333333">
        <ele>739</ele>
        <time>2014-08-24T11:18:25.45</time>
      </trkpt>
      <trkpt lat="38.385235" lon="-2.201845">
        <ele>738</ele>
        <time>2014-08-24T11:18:26.46</time>
      </trkpt>
      <trkpt lat="38.385245" lon="-2.201715">
        <ele>737</ele>
        <time>2014-08-24T11:18:27.45</time>
      </trkpt>
      <trkpt lat="38.38526" lon="-2.20158">
        <ele>737</ele>
        <time>2014-08-24T11:18:28.45</time>
      </trkpt>
      <trkpt lat="38.38527" lon="-2.201445">
        <ele>737</ele>
        <time>2014-08-24T11:18:29.45</time>
      </trkpt>
      <trkpt lat="38.385295" lon="-2.20132">
        <ele>737</ele>
        <time>2014-08-24T11:18:30.45</time>
      </trkpt>
      <trkpt lat="38.38533" lon="-2.2012">
        <ele>737</ele>
        <time>2014-08-24T11:18:31.45</time>
      </trkpt>
      <trkpt lat="38.38537" lon="-2.20111">
        <ele>736</ele>
        <time>2014-08-24T11:18:32.45</time>
      </trkpt>
      <trkpt lat="38.38543666666666" lon="-2.201045">
        <ele>736</ele>
        <time>2014-08-24T11:18:33.45</time>
      </trkpt>
      <trkpt lat="38.385525" lon="-2.201015">
        <ele>736</ele>
        <time>2014-08-24T11:18:34.45</time>
      </trkpt>
      <trkpt lat="38.385605" lon="-2.200981666666667">
        <ele>736</ele>
        <time>2014-08-24T11:18:35.45</time>
      </trkpt>
      <trkpt lat="38.38569" lon="-2.20099">
        <ele>734</ele>
        <time>2014-08-24T11:18:36.59</time>
      </trkpt>
      <trkpt lat="38.38578" lon="-2.2009666666666665">
        <ele>734</ele>
        <time>2014-08-24T11:18:37.46</time>
      </trkpt>
      <trkpt lat="38.385885" lon="-2.20095">
        <ele>734</ele>
        <time>2014-08-24T11:18:38.46</time>
      </trkpt>
      <trkpt lat="38.38597" lon="-2.200915">
        <ele>734</ele>
        <time>2014-08-24T11:18:39.46</time>
      </trkpt>
      <trkpt lat="38.38608" lon="-2.20091">
        <ele>734</ele>
        <time>2014-08-24T11:18:40.46</time>
      </trkpt>
      <trkpt lat="38.38618" lon="-2.20094">
        <ele>734</ele>
        <time>2014-08-24T11:18:41.46</time>
      </trkpt>
      <trkpt lat="38.38628" lon="-2.200965">
        <ele>733</ele>
        <time>2014-08-24T11:18:42.46</time>
      </trkpt>
      <trkpt lat="38.38638" lon="-2.20098">
        <ele>732</ele>
        <time>2014-08-24T11:18:43.46</time>
      </trkpt>
      <trkpt lat="38.38649" lon="-2.20099">
        <ele>732</ele>
        <time>2014-08-24T11:18:44.46</time>
      </trkpt>
      <trkpt lat="38.3866" lon="-2.200985">
        <ele>731</ele>
        <time>2014-08-24T11:18:45.46</time>
      </trkpt>
      <trkpt lat="38.38671" lon="-2.2009666666666665">
        <ele>730</ele>
        <time>2014-08-24T11:18:46.46</time>
      </trkpt>
      <trkpt lat="38.386815" lon="-2.200925">
        <ele>729</ele>
        <time>2014-08-24T11:18:47.47</time>
      </trkpt>
      <trkpt lat="38.386915" lon="-2.20087">
        <ele>729</ele>
        <time>2014-08-24T11:18:48.46</time>
      </trkpt>
      <trkpt lat="38.38702" lon="-2.20082">
        <ele>728</ele>
        <time>2014-08-24T11:18:49.45</time>
      </trkpt>
      <trkpt lat="38.38713" lon="-2.200785">
        <ele>727</ele>
        <time>2014-08-24T11:18:50.46</time>
      </trkpt>
      <trkpt lat="38.387245" lon="-2.20077">
        <ele>727</ele>
        <time>2014-08-24T11:18:51.46</time>
      </trkpt>
      <trkpt lat="38.387365" lon="-2.200765">
        <ele>726</ele>
        <time>2014-08-24T11:18:52.46</time>
      </trkpt>
      <trkpt lat="38.387475" lon="-2.200765">
        <ele>725</ele>
        <time>2014-08-24T11:18:53.46</time>
      </trkpt>
      <trkpt lat="38.387585" lon="-2.200755">
        <ele>725</ele>
        <time>2014-08-24T11:18:54.46</time>
      </trkpt>
      <trkpt lat="38.387695" lon="-2.20074">
        <ele>724</ele>
        <time>2014-08-24T11:18:55.46</time>
      </trkpt>
      <trkpt lat="38.387805" lon="-2.20071">
        <ele>723</ele>
        <time>2014-08-24T11:18:56.46</time>
      </trkpt>
      <trkpt lat="38.38792" lon="-2.20066">
        <ele>722</ele>
        <time>2014-08-24T11:18:57.46</time>
      </trkpt>
      <trkpt lat="38.388025" lon="-2.2006">
        <ele>721</ele>
        <time>2014-08-24T11:18:58.46</time>
      </trkpt>
      <trkpt lat="38.388125" lon="-2.200535">
        <ele>721</ele>
        <time>2014-08-24T11:18:59.46</time>
      </trkpt>
      <trkpt lat="38.38822" lon="-2.200465">
        <ele>720</ele>
        <time>2014-08-24T11:19:00.46</time>
      </trkpt>
      <trkpt lat="38.388325" lon="-2.200405">
        <ele>719</ele>
        <time>2014-08-24T11:19:01.47</time>
      </trkpt>
      <trkpt lat="38.388435" lon="-2.200355">
        <ele>719</ele>
        <time>2014-08-24T11:19:02.45</time>
      </trkpt>
      <trkpt lat="38.38855" lon="-2.200315">
        <ele>718</ele>
        <time>2014-08-24T11:19:03.46</time>
      </trkpt>
      <trkpt lat="38.38866" lon="-2.200285">
        <ele>716</ele>
        <time>2014-08-24T11:19:04.46</time>
      </trkpt>
      <trkpt lat="38.38877" lon="-2.20025">
        <ele>715</ele>
        <time>2014-08-24T11:19:05.47</time>
      </trkpt>
      <trkpt lat="38.38888" lon="-2.200215">
        <ele>714</ele>
        <time>2014-08-24T11:19:06.39</time>
      </trkpt>
      <trkpt lat="38.388995" lon="-2.2001733333333333">
        <ele>713</ele>
        <time>2014-08-24T11:19:07.39</time>
      </trkpt>
      <trkpt lat="38.3891" lon="-2.20013">
        <ele>713</ele>
        <time>2014-08-24T11:19:08.39</time>
      </trkpt>
      <trkpt lat="38.389205" lon="-2.200065">
        <ele>713</ele>
        <time>2014-08-24T11:19:09.42</time>
      </trkpt>
      <trkpt lat="38.38932" lon="-2.20001">
        <ele>711</ele>
        <time>2014-08-24T11:19:10.44</time>
      </trkpt>
      <trkpt lat="38.389435" lon="-2.199955">
        <ele>711</ele>
        <time>2014-08-24T11:19:11.46</time>
      </trkpt>
      <trkpt lat="38.38955" lon="-2.19992">
        <ele>710</ele>
        <time>2014-08-24T11:19:12.47</time>
      </trkpt>
      <trkpt lat="38.38967" lon="-2.1999">
        <ele>709</ele>
        <time>2014-08-24T11:19:13.46</time>
      </trkpt>
      <trkpt lat="38.38979" lon="-2.1998933333333333">
        <ele>709</ele>
        <time>2014-08-24T11:19:14.46</time>
      </trkpt>
      <trkpt lat="38.38991333333333" lon="-2.199885">
        <ele>708</ele>
        <time>2014-08-24T11:19:15.46</time>
      </trkpt>
      <trkpt lat="38.390025" lon="-2.19988">
        <ele>707</ele>
        <time>2014-08-24T11:19:16.46</time>
      </trkpt>
      <trkpt lat="38.390125" lon="-2.199875">
        <ele>707</ele>
        <time>2014-08-24T11:19:17.45</time>
      </trkpt>
      <trkpt lat="38.39022" lon="-2.19987">
        <ele>706</ele>
        <time>2014-08-24T11:19:18.48</time>
      </trkpt>
      <trkpt lat="38.390315" lon="-2.199865">
        <ele>707</ele>
        <time>2014-08-24T11:19:19.45</time>
      </trkpt>
      <trkpt lat="38.39041" lon="-2.199865">
        <ele>706</ele>
        <time>2014-08-24T11:19:20.46</time>
      </trkpt>
      <trkpt lat="38.39049" lon="-2.199885">
        <ele>706</ele>
        <time>2014-08-24T11:19:21.47</time>
      </trkpt>
      <trkpt lat="38.390565" lon="-2.199925">
        <ele>706</ele>
        <time>2014-08-24T11:19:22.47</time>
      </trkpt>
      <trkpt lat="38.390685" lon="-2.200015">
        <ele>704</ele>
        <time>2014-08-24T11:19:24.47</time>
      </trkpt>
      <trkpt lat="38.39072" lon="-2.20013">
        <ele>702</ele>
        <time>2014-08-24T11:19:25.46</time>
      </trkpt>
      <trkpt lat="38.390755" lon="-2.20023">
        <ele>699</ele>
        <time>2014-08-24T11:19:26.46</time>
      </trkpt>
      <trkpt lat="38.39078" lon="-2.2003383333333333">
        <ele>698</ele>
        <time>2014-08-24T11:19:27.46</time>
      </trkpt>
      <trkpt lat="38.390805" lon="-2.20048">
        <ele>697</ele>
        <time>2014-08-24T11:19:28.46</time>
      </trkpt>
      <trkpt lat="38.390818333333335" lon="-2.200595">
        <ele>696</ele>
        <time>2014-08-24T11:19:29.46</time>
      </trkpt>
      <trkpt lat="38.39083333333333" lon="-2.20071">
        <ele>695</ele>
        <time>2014-08-24T11:19:30.46</time>
      </trkpt>
      <trkpt lat="38.390855" lon="-2.20083">
        <ele>695</ele>
        <time>2014-08-24T11:19:31.45</time>
      </trkpt>
      <trkpt lat="38.39087" lon="-2.20094">
        <ele>693</ele>
        <time>2014-08-24T11:19:32.46</time>
      </trkpt>
      <trkpt lat="38.39089" lon="-2.20106">
        <ele>692</ele>
        <time>2014-08-24T11:19:33.46</time>
      </trkpt>
      <trkpt lat="38.390903333333334" lon="-2.20118">
        <ele>691</ele>
        <time>2014-08-24T11:19:34.61</time>
      </trkpt>
      <trkpt lat="38.390935" lon="-2.2013">
        <ele>690</ele>
        <time>2014-08-24T11:19:35.46</time>
      </trkpt>
      <trkpt lat="38.390971666666665" lon="-2.2014116666666665">
        <ele>688</ele>
        <time>2014-08-24T11:19:36.48</time>
      </trkpt>
      <trkpt lat="38.391025" lon="-2.20152">
        <ele>687</ele>
        <time>2014-08-24T11:19:37.46</time>
      </trkpt>
      <trkpt lat="38.391085" lon="-2.20163">
        <ele>686</ele>
        <time>2014-08-24T11:19:38.46</time>
      </trkpt>
      <trkpt lat="38.39114" lon="-2.201735">
        <ele>686</ele>
        <time>2014-08-24T11:19:39.46</time>
      </trkpt>
      <trkpt lat="38.39118" lon="-2.20185">
        <ele>685</ele>
        <time>2014-08-24T11:19:40.46</time>
      </trkpt>
      <trkpt lat="38.391195" lon="-2.201965">
        <ele>685</ele>
        <time>2014-08-24T11:19:41.46</time>
      </trkpt>
      <trkpt lat="38.39121" lon="-2.202085">
        <ele>684</ele>
        <time>2014-08-24T11:19:42.46</time>
      </trkpt>
      <trkpt lat="38.39121333333333" lon="-2.202185">
        <ele>683</ele>
        <time>2014-08-24T11:19:43.46</time>
      </trkpt>
      <trkpt lat="38.391225" lon="-2.202285">
        <ele>683</ele>
        <time>2014-08-24T11:19:44.46</time>
      </trkpt>
      <trkpt lat="38.39123" lon="-2.20238">
        <ele>682</ele>
        <time>2014-08-24T11:19:45.46</time>
      </trkpt>
      <trkpt lat="38.39122" lon="-2.202485">
        <ele>682</ele>
        <time>2014-08-24T11:19:46.46</time>
      </trkpt>
      <trkpt lat="38.391195" lon="-2.20258">
        <ele>682</ele>
        <time>2014-08-24T11:19:47.46</time>
      </trkpt>
      <trkpt lat="38.39116" lon="-2.2026666666666666">
        <ele>681</ele>
        <time>2014-08-24T11:19:48.46</time>
      </trkpt>
      <trkpt lat="38.39112" lon="-2.2027633333333334">
        <ele>681</ele>
        <time>2014-08-24T11:19:49.46</time>
      </trkpt>
      <trkpt lat="38.391085" lon="-2.202865">
        <ele>680</ele>
        <time>2014-08-24T11:19:50.46</time>
      </trkpt>
      <trkpt lat="38.39105" lon="-2.202965">
        <ele>679</ele>
        <time>2014-08-24T11:19:51.47</time>
      </trkpt>
      <trkpt lat="38.39103" lon="-2.203065">
        <ele>678</ele>
        <time>2014-08-24T11:19:52.46</time>
      </trkpt>
      <trkpt lat="38.391015" lon="-2.203165">
        <ele>677</ele>
        <time>2014-08-24T11:19:53.44</time>
      </trkpt>
      <trkpt lat="38.39102" lon="-2.203285">
        <ele>676</ele>
        <time>2014-08-24T11:19:54.46</time>
      </trkpt>
      <trkpt lat="38.391015" lon="-2.203395">
        <ele>675</ele>
        <time>2014-08-24T11:19:55.46</time>
      </trkpt>
      <trkpt lat="38.391015" lon="-2.20351">
        <ele>674</ele>
        <time>2014-08-24T11:19:56.46</time>
      </trkpt>
      <trkpt lat="38.391015" lon="-2.203625">
        <ele>673</ele>
        <time>2014-08-24T11:19:57.46</time>
      </trkpt>
      <trkpt lat="38.391" lon="-2.20374">
        <ele>673</ele>
        <time>2014-08-24T11:19:58.48</time>
      </trkpt>
      <trkpt lat="38.390985" lon="-2.20385">
        <ele>673</ele>
        <time>2014-08-24T11:19:59.46</time>
      </trkpt>
      <trkpt lat="38.390971666666665" lon="-2.20395">
        <ele>673</ele>
        <time>2014-08-24T11:20:00.46</time>
      </trkpt>
      <trkpt lat="38.390965" lon="-2.20406">
        <ele>672</ele>
        <time>2014-08-24T11:20:01.47</time>
      </trkpt>
      <trkpt lat="38.390955" lon="-2.204175">
        <ele>672</ele>
        <time>2014-08-24T11:20:02.48</time>
      </trkpt>
      <trkpt lat="38.390955" lon="-2.204295">
        <ele>671</ele>
        <time>2014-08-24T11:20:03.46</time>
      </trkpt>
      <trkpt lat="38.390955" lon="-2.20442">
        <ele>670</ele>
        <time>2014-08-24T11:20:04.46</time>
      </trkpt>
      <trkpt lat="38.390955" lon="-2.204545">
        <ele>669</ele>
        <time>2014-08-24T11:20:05.46</time>
      </trkpt>
      <trkpt lat="38.39096" lon="-2.20467">
        <ele>668</ele>
        <time>2014-08-24T11:20:06.46</time>
      </trkpt>
      <trkpt lat="38.390955" lon="-2.2048">
        <ele>667</ele>
        <time>2014-08-24T11:20:07.46</time>
      </trkpt>
      <trkpt lat="38.390955" lon="-2.20491">
        <ele>667</ele>
        <time>2014-08-24T11:20:08.46</time>
      </trkpt>
      <trkpt lat="38.39095" lon="-2.205015">
        <ele>666</ele>
        <time>2014-08-24T11:20:09.46</time>
      </trkpt>
      <trkpt lat="38.390955" lon="-2.205125">
        <ele>666</ele>
        <time>2014-08-24T11:20:10.47</time>
      </trkpt>
      <trkpt lat="38.39096833333333" lon="-2.20522">
        <ele>666</ele>
        <time>2014-08-24T11:20:11.47</time>
      </trkpt>
      <trkpt lat="38.39099" lon="-2.20531">
        <ele>665</ele>
        <time>2014-08-24T11:20:12.55</time>
      </trkpt>
      <trkpt lat="38.39103" lon="-2.2054">
        <ele>665</ele>
        <time>2014-08-24T11:20:13.42</time>
      </trkpt>
      <trkpt lat="38.391065" lon="-2.205485">
        <ele>664</ele>
        <time>2014-08-24T11:20:14.39</time>
      </trkpt>
      <trkpt lat="38.39111" lon="-2.20557">
        <ele>663</ele>
        <time>2014-08-24T11:20:15.47</time>
      </trkpt>
      <trkpt lat="38.39116" lon="-2.205651666666667">
        <ele>662</ele>
        <time>2014-08-24T11:20:16.46</time>
      </trkpt>
      <trkpt lat="38.39121" lon="-2.20574">
        <ele>662</ele>
        <time>2014-08-24T11:20:17.46</time>
      </trkpt>
      <trkpt lat="38.391265" lon="-2.205825">
        <ele>661</ele>
        <time>2014-08-24T11:20:18.60</time>
      </trkpt>
      <trkpt lat="38.391325" lon="-2.2059083333333334">
        <ele>661</ele>
        <time>2014-08-24T11:20:19.46</time>
      </trkpt>
      <trkpt lat="38.39138" lon="-2.205995">
        <ele>660</ele>
        <time>2014-08-24T11:20:20.46</time>
      </trkpt>
      <trkpt lat="38.391435" lon="-2.20608">
        <ele>659</ele>
        <time>2014-08-24T11:20:21.46</time>
      </trkpt>
      <trkpt lat="38.391495" lon="-2.20616">
        <ele>659</ele>
        <time>2014-08-24T11:20:22.46</time>
      </trkpt>
      <trkpt lat="38.391545" lon="-2.20624">
        <ele>658</ele>
        <time>2014-08-24T11:20:23.46</time>
      </trkpt>
      <trkpt lat="38.39159" lon="-2.206335">
        <ele>657</ele>
        <time>2014-08-24T11:20:24.46</time>
      </trkpt>
      <trkpt lat="38.391661666666664" lon="-2.20647">
        <ele>656</ele>
        <time>2014-08-24T11:20:26.46</time>
      </trkpt>
      <trkpt lat="38.39174833333333" lon="-2.20656">
        <ele>655</ele>
        <time>2014-08-24T11:20:28.46</time>
      </trkpt>
      <trkpt lat="38.391835" lon="-2.206645">
        <ele>655</ele>
        <time>2014-08-24T11:20:30.46</time>
      </trkpt>
      <trkpt lat="38.391865" lon="-2.206785">
        <ele>655</ele>
        <time>2014-08-24T11:20:32.46</time>
      </trkpt>
      <trkpt lat="38.391815" lon="-2.206925">
        <ele>655</ele>
        <time>2014-08-24T11:20:34.46</time>
      </trkpt>
      <trkpt lat="38.391755" lon="-2.207045">
        <ele>655</ele>
        <time>2014-08-24T11:20:36.48</time>
      </trkpt>
      <trkpt lat="38.39167" lon="-2.20712">
        <ele>655</ele>
        <time>2014-08-24T11:20:38.50</time>
      </trkpt>
      <trkpt lat="38.391615" lon="-2.207215">
        <ele>656</ele>
        <time>2014-08-24T11:20:40.46</time>
      </trkpt>
      <trkpt lat="38.39156" lon="-2.20732">
        <ele>656</ele>
        <time>2014-08-24T11:20:43.46</time>
      </trkpt>
      <trkpt lat="38.391506666666665" lon="-2.2074">
        <ele>656</ele>
        <time>2014-08-24T11:20:46.46</time>
      </trkpt>
      <trkpt lat="38.39147" lon="-2.207485">
        <ele>656</ele>
        <time>2014-08-24T11:20:49.46</time>
      </trkpt>
      <trkpt lat="38.39146" lon="-2.2075183333333332">
        <ele>656</ele>
        <time>2014-08-24T11:20:56.48</time>
      </trkpt>
      <trkpt lat="38.39146" lon="-2.207535">
        <ele>656</ele>
        <time>2014-08-24T11:21:00.46</time>
      </trkpt>
      <trkpt lat="38.391455" lon="-2.207545">
        <ele>658</ele>
        <time>2014-08-24T11:21:08.59</time>
      </trkpt>
      <trkpt lat="38.391455" lon="-2.207545">
        <ele>659</ele>
        <time>2014-08-24T11:21:09.46</time>
      </trkpt>
      <trkpt lat="38.391455" lon="-2.20757">
        <ele>657</ele>
        <time>2014-08-24T11:21:19.46</time>
      </trkpt>
      <trkpt lat="38.391455" lon="-2.20757">
        <ele>658</ele>
        <time>2014-08-24T11:21:20.46</time>
      </trkpt>
      <trkpt lat="38.39143" lon="-2.20759">
        <ele>658</ele>
        <time>2014-08-24T11:21:36.51</time>
      </trkpt>
      <trkpt lat="38.391435" lon="-2.20759">
        <ele>658</ele>
        <time>2014-08-24T11:21:38.46</time>
      </trkpt>
      <trkpt lat="38.391435" lon="-2.20764">
        <ele>652</ele>
        <time>2014-08-24T11:21:58.52</time>
      </trkpt>
      <trkpt lat="38.391435" lon="-2.20764">
        <ele>651</ele>
        <time>2014-08-24T11:21:59.47</time>
      </trkpt>
      <trkpt lat="38.391435" lon="-2.20766">
        <ele>650</ele>
        <time>2014-08-24T11:22:09.39</time>
      </trkpt>
      <trkpt lat="38.39143833333333" lon="-2.20766">
        <ele>650</ele>
        <time>2014-08-24T11:22:10.44</time>
      </trkpt>
      <trkpt lat="38.391445" lon="-2.20767">
        <ele>653</ele>
        <time>2014-08-24T11:22:21.46</time>
      </trkpt>
      <trkpt lat="38.391445" lon="-2.207665">
        <ele>653</ele>
        <time>2014-08-24T11:22:22.46</time>
      </trkpt>
      <trkpt lat="38.39139" lon="-2.20776">
        <ele>655</ele>
        <time>2014-08-24T11:22:30.46</time>
      </trkpt>
      <trkpt lat="38.39135" lon="-2.2078766666666665">
        <ele>655</ele>
        <time>2014-08-24T11:22:33.46</time>
      </trkpt>
      <trkpt lat="38.39134" lon="-2.20797">
        <ele>654</ele>
        <time>2014-08-24T11:22:35.46</time>
      </trkpt>
      <trkpt lat="38.391325" lon="-2.208065">
        <ele>654</ele>
        <time>2014-08-24T11:22:37.62</time>
      </trkpt>
      <trkpt lat="38.39131" lon="-2.2081633333333333">
        <ele>654</ele>
        <time>2014-08-24T11:22:39.48</time>
      </trkpt>
      <trkpt lat="38.3913" lon="-2.20826">
        <ele>654</ele>
        <time>2014-08-24T11:22:41.46</time>
      </trkpt>
      <trkpt lat="38.39129" lon="-2.20836">
        <ele>654</ele>
        <time>2014-08-24T11:22:43.50</time>
      </trkpt>
      <trkpt lat="38.391285" lon="-2.208455">
        <ele>654</ele>
        <time>2014-08-24T11:22:45.47</time>
      </trkpt>
      <trkpt lat="38.39129" lon="-2.208545">
        <ele>654</ele>
        <time>2014-08-24T11:22:47.47</time>
      </trkpt>
      <trkpt lat="38.391295" lon="-2.2086783333333333">
        <ele>655</ele>
        <time>2014-08-24T11:22:50.46</time>
      </trkpt>
      <trkpt lat="38.3913" lon="-2.208795">
        <ele>654</ele>
        <time>2014-08-24T11:22:53.46</time>
      </trkpt>
      <trkpt lat="38.39131" lon="-2.2089">
        <ele>655</ele>
        <time>2014-08-24T11:22:56.46</time>
      </trkpt>
      <trkpt lat="38.39133" lon="-2.209015">
        <ele>656</ele>
        <time>2014-08-24T11:22:59.46</time>
      </trkpt>
      <trkpt lat="38.39139" lon="-2.209105">
        <ele>655</ele>
        <time>2014-08-24T11:23:02.45</time>
      </trkpt>
      <trkpt lat="38.391465" lon="-2.209145">
        <ele>656</ele>
        <time>2014-08-24T11:23:05.46</time>
      </trkpt>
      <trkpt lat="38.39142" lon="-2.209115">
        <ele>655</ele>
        <time>2014-08-24T11:23:12.46</time>
      </trkpt>
      <trkpt lat="38.391415" lon="-2.20911">
        <ele>655</ele>
        <time>2014-08-24T11:23:14.45</time>
      </trkpt>
      <trkpt lat="38.39143" lon="-2.20913">
        <ele>656</ele>
        <time>2014-08-24T11:23:24.46</time>
      </trkpt>
      <trkpt lat="38.391435" lon="-2.2091316666666665">
        <ele>657</ele>
        <time>2014-08-24T11:23:25.46</time>
      </trkpt>
      <trkpt lat="38.391445" lon="-2.20914">
        <ele>657</ele>
        <time>2014-08-24T11:23:40.45</time>
      </trkpt>
      <trkpt lat="38.391445" lon="-2.20914">
        <ele>657</ele>
        <time>2014-08-24T11:23:41.51</time>
      </trkpt>
      <trkpt lat="38.391465" lon="-2.209035">
        <ele>666</ele>
        <time>2014-08-24T11:24:05.45</time>
      </trkpt>
      <trkpt lat="38.39146" lon="-2.209035">
        <ele>665</ele>
        <time>2014-08-24T11:24:12.45</time>
      </trkpt>
      <trkpt lat="38.391475" lon="-2.20905">
        <ele>664</ele>
        <time>2014-08-24T11:24:22.39</time>
      </trkpt>
      <trkpt lat="38.39148" lon="-2.20905">
        <ele>665</ele>
        <time>2014-08-24T11:24:23.44</time>
      </trkpt>
      <trkpt lat="38.391506666666665" lon="-2.209035">
        <ele>667</ele>
        <time>2014-08-24T11:24:31.44</time>
      </trkpt>
      <trkpt lat="38.391505" lon="-2.209035">
        <ele>668</ele>
        <time>2014-08-24T11:24:32.39</time>
      </trkpt>
      <trkpt lat="38.39153" lon="-2.209035">
        <ele>667</ele>
        <time>2014-08-24T11:24:41.42</time>
      </trkpt>
      <trkpt lat="38.39153" lon="-2.209035">
        <ele>667</ele>
        <time>2014-08-24T11:24:42.43</time>
      </trkpt>
      <trkpt lat="38.39154" lon="-2.209025">
        <ele>667</ele>
        <time>2014-08-24T11:24:56.43</time>
      </trkpt>
      <trkpt lat="38.391515" lon="-2.209005">
        <ele>670</ele>
        <time>2014-08-24T11:25:03.39</time>
      </trkpt>
      <trkpt lat="38.391505" lon="-2.209">
        <ele>668</ele>
        <time>2014-08-24T11:25:10.39</time>
      </trkpt>
      <trkpt lat="38.39150166666667" lon="-2.209005">
        <ele>667</ele>
        <time>2014-08-24T11:25:12.39</time>
      </trkpt>
      <trkpt lat="38.39145" lon="-2.209075">
        <ele>671</ele>
        <time>2014-08-24T11:25:16.22</time>
      </trkpt>
      <trkpt lat="38.391455" lon="-2.209075">
        <ele>670</ele>
        <time>2014-08-24T11:25:19.18</time>
      </trkpt>
      <trkpt lat="38.3915" lon="-2.20911">
        <ele>672</ele>
        <time>2014-08-24T11:25:29.22</time>
      </trkpt>
      <trkpt lat="38.39150333333333" lon="-2.209095">
        <ele>671</ele>
        <time>2014-08-24T11:25:35.22</time>
      </trkpt>
      <trkpt lat="38.39161" lon="-2.209085">
        <ele>667</ele>
        <time>2014-08-24T11:25:44.22</time>
      </trkpt>
      <trkpt lat="38.391695" lon="-2.20909">
        <ele>668</ele>
        <time>2014-08-24T11:25:46.23</time>
      </trkpt>
      <trkpt lat="38.39179" lon="-2.20911">
        <ele>668</ele>
        <time>2014-08-24T11:25:48.23</time>
      </trkpt>
      <trkpt lat="38.39188" lon="-2.209145">
        <ele>668</ele>
        <time>2014-08-24T11:25:50.22</time>
      </trkpt>
      <trkpt lat="38.39195333333333" lon="-2.20917">
        <ele>665</ele>
        <time>2014-08-24T11:25:52.23</time>
      </trkpt>
      <trkpt lat="38.392025" lon="-2.209215">
        <ele>667</ele>
        <time>2014-08-24T11:25:55.22</time>
      </trkpt>
      <trkpt lat="38.39212" lon="-2.20925">
        <ele>667</ele>
        <time>2014-08-24T11:25:59.23</time>
      </trkpt>
      <trkpt lat="38.392195" lon="-2.209275">
        <ele>665</ele>
        <time>2014-08-24T11:26:02.23</time>
      </trkpt>
      <trkpt lat="38.392295" lon="-2.20932">
        <ele>663</ele>
        <time>2014-08-24T11:26:05.22</time>
      </trkpt>
      <trkpt lat="38.392375" lon="-2.20937">
        <ele>664</ele>
        <time>2014-08-24T11:26:07.22</time>
      </trkpt>
      <trkpt lat="38.39246" lon="-2.209425">
        <ele>664</ele>
        <time>2014-08-24T11:26:09.22</time>
      </trkpt>
      <trkpt lat="38.392545" lon="-2.209465">
        <ele>664</ele>
        <time>2014-08-24T11:26:11.23</time>
      </trkpt>
      <trkpt lat="38.39264" lon="-2.209505">
        <ele>664</ele>
        <time>2014-08-24T11:26:13.22</time>
      </trkpt>
      <trkpt lat="38.392745" lon="-2.20954">
        <ele>668</ele>
        <time>2014-08-24T11:26:15.23</time>
      </trkpt>
      <trkpt lat="38.392835" lon="-2.209535">
        <ele>670</ele>
        <time>2014-08-24T11:26:16.18</time>
      </trkpt>
      <trkpt lat="38.392915" lon="-2.20956">
        <ele>669</ele>
        <time>2014-08-24T11:26:18.22</time>
      </trkpt>
      <trkpt lat="38.39301" lon="-2.2095833333333332">
        <ele>670</ele>
        <time>2014-08-24T11:26:20.22</time>
      </trkpt>
      <trkpt lat="38.39311" lon="-2.209605">
        <ele>668</ele>
        <time>2014-08-24T11:26:22.23</time>
      </trkpt>
      <trkpt lat="38.393215" lon="-2.209635">
        <ele>669</ele>
        <time>2014-08-24T11:26:24.22</time>
      </trkpt>
      <trkpt lat="38.39329" lon="-2.209695">
        <ele>668</ele>
        <time>2014-08-24T11:26:26.22</time>
      </trkpt>
      <trkpt lat="38.393335" lon="-2.20981">
        <ele>665</ele>
        <time>2014-08-24T11:26:29.22</time>
      </trkpt>
      <trkpt lat="38.39338" lon="-2.209895">
        <ele>668</ele>
        <time>2014-08-24T11:26:31.17</time>
      </trkpt>
      <trkpt lat="38.39340833333333" lon="-2.20999">
        <ele>669</ele>
        <time>2014-08-24T11:26:33.17</time>
      </trkpt>
      <trkpt lat="38.393475" lon="-2.2101">
        <ele>670</ele>
        <time>2014-08-24T11:26:35.22</time>
      </trkpt>
      <trkpt lat="38.393543333333334" lon="-2.21017">
        <ele>671</ele>
        <time>2014-08-24T11:26:37.23</time>
      </trkpt>
      <trkpt lat="38.39364" lon="-2.21024">
        <ele>671</ele>
        <time>2014-08-24T11:26:39.33</time>
      </trkpt>
      <trkpt lat="38.393725" lon="-2.210275">
        <ele>670</ele>
        <time>2014-08-24T11:26:41.17</time>
      </trkpt>
      <trkpt lat="38.393835" lon="-2.210305">
        <ele>671</ele>
        <time>2014-08-24T11:26:43.22</time>
      </trkpt>
      <trkpt lat="38.39392" lon="-2.21032">
        <ele>672</ele>
        <time>2014-08-24T11:26:45.18</time>
      </trkpt>
      <trkpt lat="38.394015" lon="-2.21035">
        <ele>672</ele>
        <time>2014-08-24T11:26:47.21</time>
      </trkpt>
      <trkpt lat="38.3941" lon="-2.21036">
        <ele>672</ele>
        <time>2014-08-24T11:26:49.27</time>
      </trkpt>
      <trkpt lat="38.39418" lon="-2.210375">
        <ele>672</ele>
        <time>2014-08-24T11:26:51.23</time>
      </trkpt>
      <trkpt lat="38.39426" lon="-2.210385">
        <ele>675</ele>
        <time>2014-08-24T11:26:53.29</time>
      </trkpt>
      <trkpt lat="38.39435" lon="-2.210415">
        <ele>675</ele>
        <time>2014-08-24T11:26:55.36</time>
      </trkpt>
      <trkpt lat="38.394425" lon="-2.210465">
        <ele>676</ele>
        <time>2014-08-24T11:26:57.22</time>
      </trkpt>
      <trkpt lat="38.394495" lon="-2.210535">
        <ele>676</ele>
        <time>2014-08-24T11:26:59.22</time>
      </trkpt>
      <trkpt lat="38.39454833333333" lon="-2.210635">
        <ele>675</ele>
        <time>2014-08-24T11:27:01.22</time>
      </trkpt>
      <trkpt lat="38.394615" lon="-2.21076">
        <ele>675</ele>
        <time>2014-08-24T11:27:03.22</time>
      </trkpt>
      <trkpt lat="38.39468333333333" lon="-2.2108333333333334">
        <ele>675</ele>
        <time>2014-08-24T11:27:05.22</time>
      </trkpt>
      <trkpt lat="38.394755" lon="-2.210915">
        <ele>674</ele>
        <time>2014-08-24T11:27:07.22</time>
      </trkpt>
      <trkpt lat="38.39481" lon="-2.210985">
        <ele>672</ele>
        <time>2014-08-24T11:27:09.22</time>
      </trkpt>
      <trkpt lat="38.394841666666665" lon="-2.2111">
        <ele>672</ele>
        <time>2014-08-24T11:27:11.22</time>
      </trkpt>
      <trkpt lat="38.39487" lon="-2.21122">
        <ele>672</ele>
        <time>2014-08-24T11:27:13.22</time>
      </trkpt>
      <trkpt lat="38.39486" lon="-2.211335">
        <ele>673</ele>
        <time>2014-08-24T11:27:15.22</time>
      </trkpt>
      <trkpt lat="38.39485" lon="-2.21148">
        <ele>674</ele>
        <time>2014-08-24T11:27:17.22</time>
      </trkpt>
      <trkpt lat="38.39483" lon="-2.21161">
        <ele>675</ele>
        <time>2014-08-24T11:27:19.22</time>
      </trkpt>
      <trkpt lat="38.394825" lon="-2.211705">
        <ele>677</ele>
        <time>2014-08-24T11:27:21.22</time>
      </trkpt>
      <trkpt lat="38.39483833333333" lon="-2.2118">
        <ele>679</ele>
        <time>2014-08-24T11:27:23.21</time>
      </trkpt>
      <trkpt lat="38.394935" lon="-2.21191">
        <ele>678</ele>
        <time>2014-08-24T11:27:25.21</time>
      </trkpt>
      <trkpt lat="38.395005" lon="-2.21202">
        <ele>678</ele>
        <time>2014-08-24T11:27:27.22</time>
      </trkpt>
      <trkpt lat="38.39505" lon="-2.212115">
        <ele>679</ele>
        <time>2014-08-24T11:27:29.22</time>
      </trkpt>
      <trkpt lat="38.395105" lon="-2.212215">
        <ele>680</ele>
        <time>2014-08-24T11:27:31.21</time>
      </trkpt>
      <trkpt lat="38.39515" lon="-2.212315">
        <ele>682</ele>
        <time>2014-08-24T11:27:33.21</time>
      </trkpt>
      <trkpt lat="38.3952" lon="-2.212435">
        <ele>682</ele>
        <time>2014-08-24T11:27:35.22</time>
      </trkpt>
      <trkpt lat="38.39524" lon="-2.212525">
        <ele>683</ele>
        <time>2014-08-24T11:27:37.22</time>
      </trkpt>
      <trkpt lat="38.395285" lon="-2.212625">
        <ele>682</ele>
        <time>2014-08-24T11:27:39.22</time>
      </trkpt>
      <trkpt lat="38.39533" lon="-2.212755">
        <ele>682</ele>
        <time>2014-08-24T11:27:41.21</time>
      </trkpt>
      <trkpt lat="38.39536" lon="-2.21288">
        <ele>681</ele>
        <time>2014-08-24T11:27:43.21</time>
      </trkpt>
      <trkpt lat="38.39539" lon="-2.213005">
        <ele>682</ele>
        <time>2014-08-24T11:27:45.21</time>
      </trkpt>
      <trkpt lat="38.395405" lon="-2.21313">
        <ele>682</ele>
        <time>2014-08-24T11:27:47.21</time>
      </trkpt>
      <trkpt lat="38.39543" lon="-2.2132533333333333">
        <ele>682</ele>
        <time>2014-08-24T11:27:49.22</time>
      </trkpt>
      <trkpt lat="38.395425" lon="-2.21338">
        <ele>683</ele>
        <time>2014-08-24T11:27:51.22</time>
      </trkpt>
      <trkpt lat="38.395415" lon="-2.21353">
        <ele>684</ele>
        <time>2014-08-24T11:27:53.21</time>
      </trkpt>
      <trkpt lat="38.39536" lon="-2.213655">
        <ele>685</ele>
        <time>2014-08-24T11:27:55.23</time>
      </trkpt>
      <trkpt lat="38.3953" lon="-2.213785">
        <ele>684</ele>
        <time>2014-08-24T11:27:57.21</time>
      </trkpt>
      <trkpt lat="38.39525" lon="-2.213865">
        <ele>684</ele>
        <time>2014-08-24T11:27:58.21</time>
      </trkpt>
      <trkpt lat="38.395185" lon="-2.21399">
        <ele>683</ele>
        <time>2014-08-24T11:28:00.22</time>
      </trkpt>
      <trkpt lat="38.395145" lon="-2.214125">
        <ele>682</ele>
        <time>2014-08-24T11:28:02.21</time>
      </trkpt>
      <trkpt lat="38.3951" lon="-2.2142483333333334">
        <ele>684</ele>
        <time>2014-08-24T11:28:04.17</time>
      </trkpt>
      <trkpt lat="38.395085" lon="-2.21438">
        <ele>685</ele>
        <time>2014-08-24T11:28:06.22</time>
      </trkpt>
      <trkpt lat="38.39506333333333" lon="-2.21453">
        <ele>685</ele>
        <time>2014-08-24T11:28:08.23</time>
      </trkpt>
      <trkpt lat="38.39506333333333" lon="-2.214665">
        <ele>686</ele>
        <time>2014-08-24T11:28:10.22</time>
      </trkpt>
      <trkpt lat="38.395055" lon="-2.21481">
        <ele>687</ele>
        <time>2014-08-24T11:28:12.22</time>
      </trkpt>
      <trkpt lat="38.395085" lon="-2.21497">
        <ele>687</ele>
        <time>2014-08-24T11:28:14.27</time>
      </trkpt>
      <trkpt lat="38.395105" lon="-2.2151">
        <ele>688</ele>
        <time>2014-08-24T11:28:16.22</time>
      </trkpt>
      <trkpt lat="38.395105" lon="-2.215255">
        <ele>686</ele>
        <time>2014-08-24T11:28:18.22</time>
      </trkpt>
      <trkpt lat="38.395105" lon="-2.215395">
        <ele>686</ele>
        <time>2014-08-24T11:28:20.22</time>
      </trkpt>
      <trkpt lat="38.39509" lon="-2.215515">
        <ele>685</ele>
        <time>2014-08-24T11:28:22.23</time>
      </trkpt>
      <trkpt lat="38.3951" lon="-2.21566">
        <ele>686</ele>
        <time>2014-08-24T11:28:24.22</time>
      </trkpt>
      <trkpt lat="38.395125" lon="-2.215785">
        <ele>686</ele>
        <time>2014-08-24T11:28:26.22</time>
      </trkpt>
      <trkpt lat="38.395195" lon="-2.21589">
        <ele>687</ele>
        <time>2014-08-24T11:28:28.23</time>
      </trkpt>
      <trkpt lat="38.395275" lon="-2.216015">
        <ele>688</ele>
        <time>2014-08-24T11:28:30.22</time>
      </trkpt>
      <trkpt lat="38.39537" lon="-2.216105">
        <ele>688</ele>
        <time>2014-08-24T11:28:32.23</time>
      </trkpt>
      <trkpt lat="38.39546" lon="-2.21617">
        <ele>688</ele>
        <time>2014-08-24T11:28:34.22</time>
      </trkpt>
      <trkpt lat="38.395575" lon="-2.2162">
        <ele>687</ele>
        <time>2014-08-24T11:28:36.23</time>
      </trkpt>
      <trkpt lat="38.395665" lon="-2.216325">
        <ele>690</ele>
        <time>2014-08-24T11:28:38.22</time>
      </trkpt>
      <trkpt lat="38.395685" lon="-2.216435">
        <ele>692</ele>
        <time>2014-08-24T11:28:40.23</time>
      </trkpt>
      <trkpt lat="38.395715" lon="-2.216555">
        <ele>693</ele>
        <time>2014-08-24T11:28:42.23</time>
      </trkpt>
      <trkpt lat="38.395695" lon="-2.21665">
        <ele>692</ele>
        <time>2014-08-24T11:28:44.23</time>
      </trkpt>
      <trkpt lat="38.395735" lon="-2.216765">
        <ele>690</ele>
        <time>2014-08-24T11:28:46.18</time>
      </trkpt>
      <trkpt lat="38.395715" lon="-2.21688">
        <ele>692</ele>
        <time>2014-08-24T11:28:48.31</time>
      </trkpt>
      <trkpt lat="38.39568" lon="-2.217">
        <ele>693</ele>
        <time>2014-08-24T11:28:50.23</time>
      </trkpt>
      <trkpt lat="38.395655" lon="-2.217121666666667">
        <ele>693</ele>
        <time>2014-08-24T11:28:52.36</time>
      </trkpt>
      <trkpt lat="38.39562" lon="-2.2172066666666668">
        <ele>694</ele>
        <time>2014-08-24T11:28:54.23</time>
      </trkpt>
      <trkpt lat="38.39558" lon="-2.217285">
        <ele>697</ele>
        <time>2014-08-24T11:28:57.23</time>
      </trkpt>
      <trkpt lat="38.39555" lon="-2.2173766666666666">
        <ele>700</ele>
        <time>2014-08-24T11:29:00.23</time>
      </trkpt>
      <trkpt lat="38.395516666666666" lon="-2.21747">
        <ele>701</ele>
        <time>2014-08-24T11:29:02.23</time>
      </trkpt>
      <trkpt lat="38.395455" lon="-2.2175666666666665">
        <ele>699</ele>
        <time>2014-08-24T11:29:04.33</time>
      </trkpt>
      <trkpt lat="38.395385" lon="-2.21764">
        <ele>699</ele>
        <time>2014-08-24T11:29:05.23</time>
      </trkpt>
      <trkpt lat="38.3953" lon="-2.2177416666666665">
        <ele>697</ele>
        <time>2014-08-24T11:29:07.23</time>
      </trkpt>
      <trkpt lat="38.395205" lon="-2.21782">
        <ele>697</ele>
        <time>2014-08-24T11:29:09.22</time>
      </trkpt>
      <trkpt lat="38.395138333333335" lon="-2.217895">
        <ele>697</ele>
        <time>2014-08-24T11:29:11.22</time>
      </trkpt>
      <trkpt lat="38.39506" lon="-2.217965">
        <ele>699</ele>
        <time>2014-08-24T11:29:13.22</time>
      </trkpt>
      <trkpt lat="38.39499" lon="-2.218035">
        <ele>699</ele>
        <time>2014-08-24T11:29:15.22</time>
      </trkpt>
      <trkpt lat="38.39492" lon="-2.2181216666666668">
        <ele>697</ele>
        <time>2014-08-24T11:29:17.22</time>
      </trkpt>
      <trkpt lat="38.394841666666665" lon="-2.218215">
        <ele>697</ele>
        <time>2014-08-24T11:29:19.18</time>
      </trkpt>
      <trkpt lat="38.39478" lon="-2.2183">
        <ele>697</ele>
        <time>2014-08-24T11:29:21.17</time>
      </trkpt>
      <trkpt lat="38.3947" lon="-2.21841">
        <ele>697</ele>
        <time>2014-08-24T11:29:23.18</time>
      </trkpt>
      <trkpt lat="38.39464" lon="-2.2185">
        <ele>698</ele>
        <time>2014-08-24T11:29:25.22</time>
      </trkpt>
      <trkpt lat="38.394605" lon="-2.218615">
        <ele>699</ele>
        <time>2014-08-24T11:29:27.33</time>
      </trkpt>
      <trkpt lat="38.39454666666666" lon="-2.218735">
        <ele>700</ele>
        <time>2014-08-24T11:29:29.22</time>
      </trkpt>
      <trkpt lat="38.39451" lon="-2.21886">
        <ele>700</ele>
        <time>2014-08-24T11:29:31.23</time>
      </trkpt>
      <trkpt lat="38.39447" lon="-2.21897">
        <ele>701</ele>
        <time>2014-08-24T11:29:33.23</time>
      </trkpt>
      <trkpt lat="38.394445" lon="-2.2190933333333334">
        <ele>701</ele>
        <time>2014-08-24T11:29:35.22</time>
      </trkpt>
      <trkpt lat="38.39441" lon="-2.219205">
        <ele>702</ele>
        <time>2014-08-24T11:29:37.22</time>
      </trkpt>
      <trkpt lat="38.394375" lon="-2.219305">
        <ele>703</ele>
        <time>2014-08-24T11:29:39.22</time>
      </trkpt>
      <trkpt lat="38.394385" lon="-2.2194416666666665">
        <ele>701</ele>
        <time>2014-08-24T11:29:41.22</time>
      </trkpt>
      <trkpt lat="38.394378333333336" lon="-2.21958">
        <ele>703</ele>
        <time>2014-08-24T11:29:43.23</time>
      </trkpt>
      <trkpt lat="38.394385" lon="-2.219695">
        <ele>702</ele>
        <time>2014-08-24T11:29:45.22</time>
      </trkpt>
      <trkpt lat="38.394445" lon="-2.21983">
        <ele>702</ele>
        <time>2014-08-24T11:29:47.22</time>
      </trkpt>
      <trkpt lat="38.394505" lon="-2.21993">
        <ele>703</ele>
        <time>2014-08-24T11:29:49.22</time>
      </trkpt>
      <trkpt lat="38.394575" lon="-2.220045">
        <ele>704</ele>
        <time>2014-08-24T11:29:51.23</time>
      </trkpt>
      <trkpt lat="38.394635" lon="-2.220125">
        <ele>703</ele>
        <time>2014-08-24T11:29:53.22</time>
      </trkpt>
      <trkpt lat="38.39472" lon="-2.220185">
        <ele>703</ele>
        <time>2014-08-24T11:29:55.22</time>
      </trkpt>
      <trkpt lat="38.394805" lon="-2.22024">
        <ele>703</ele>
        <time>2014-08-24T11:29:57.22</time>
      </trkpt>
      <trkpt lat="38.394905" lon="-2.2202683333333333">
        <ele>702</ele>
        <time>2014-08-24T11:29:59.22</time>
      </trkpt>
      <trkpt lat="38.395005" lon="-2.220295">
        <ele>702</ele>
        <time>2014-08-24T11:30:01.22</time>
      </trkpt>
      <trkpt lat="38.3951" lon="-2.2203383333333333">
        <ele>702</ele>
        <time>2014-08-24T11:30:03.22</time>
      </trkpt>
      <trkpt lat="38.395195" lon="-2.22041">
        <ele>703</ele>
        <time>2014-08-24T11:30:05.22</time>
      </trkpt>
      <trkpt lat="38.39527" lon="-2.22048">
        <ele>704</ele>
        <time>2014-08-24T11:30:07.18</time>
      </trkpt>
      <trkpt lat="38.39533" lon="-2.22057">
        <ele>704</ele>
        <time>2014-08-24T11:30:09.22</time>
      </trkpt>
      <trkpt lat="38.39537" lon="-2.220675">
        <ele>705</ele>
        <time>2014-08-24T11:30:11.22</time>
      </trkpt>
      <trkpt lat="38.395395" lon="-2.220785">
        <ele>705</ele>
        <time>2014-08-24T11:30:13.22</time>
      </trkpt>
      <trkpt lat="38.395405" lon="-2.2209">
        <ele>705</ele>
        <time>2014-08-24T11:30:15.22</time>
      </trkpt>
      <trkpt lat="38.39541" lon="-2.221025">
        <ele>705</ele>
        <time>2014-08-24T11:30:17.23</time>
      </trkpt>
      <trkpt lat="38.39543" lon="-2.22114">
        <ele>705</ele>
        <time>2014-08-24T11:30:19.22</time>
      </trkpt>
      <trkpt lat="38.39549" lon="-2.2212533333333333">
        <ele>704</ele>
        <time>2014-08-24T11:30:21.22</time>
      </trkpt>
      <trkpt lat="38.39558" lon="-2.2213333333333334">
        <ele>704</ele>
        <time>2014-08-24T11:30:23.22</time>
      </trkpt>
      <trkpt lat="38.39568" lon="-2.221375">
        <ele>706</ele>
        <time>2014-08-24T11:30:25.22</time>
      </trkpt>
      <trkpt lat="38.3958" lon="-2.221375">
        <ele>706</ele>
        <time>2014-08-24T11:30:27.22</time>
      </trkpt>
      <trkpt lat="38.395898333333335" lon="-2.221355">
        <ele>707</ele>
        <time>2014-08-24T11:30:29.22</time>
      </trkpt>
      <trkpt lat="38.396015" lon="-2.22136">
        <ele>706</ele>
        <time>2014-08-24T11:30:31.22</time>
      </trkpt>
      <trkpt lat="38.39611" lon="-2.22133">
        <ele>707</ele>
        <time>2014-08-24T11:30:33.23</time>
      </trkpt>
      <trkpt lat="38.396195" lon="-2.2212533333333333">
        <ele>708</ele>
        <time>2014-08-24T11:30:35.22</time>
      </trkpt>
      <trkpt lat="38.39629166666667" lon="-2.221195">
        <ele>707</ele>
        <time>2014-08-24T11:30:37.28</time>
      </trkpt>
      <trkpt lat="38.396395" lon="-2.22118">
        <ele>708</ele>
        <time>2014-08-24T11:30:39.29</time>
      </trkpt>
      <trkpt lat="38.396485" lon="-2.221175">
        <ele>707</ele>
        <time>2014-08-24T11:30:41.27</time>
      </trkpt>
      <trkpt lat="38.39658" lon="-2.221195">
        <ele>708</ele>
        <time>2014-08-24T11:30:43.23</time>
      </trkpt>
      <trkpt lat="38.39668" lon="-2.221215">
        <ele>709</ele>
        <time>2014-08-24T11:30:45.23</time>
      </trkpt>
      <trkpt lat="38.39678" lon="-2.221215">
        <ele>709</ele>
        <time>2014-08-24T11:30:47.21</time>
      </trkpt>
      <trkpt lat="38.39687833333333" lon="-2.22125">
        <ele>711</ele>
        <time>2014-08-24T11:30:49.27</time>
      </trkpt>
      <trkpt lat="38.39696" lon="-2.22134">
        <ele>715</ele>
        <time>2014-08-24T11:30:51.22</time>
      </trkpt>
      <trkpt lat="38.397015" lon="-2.221435">
        <ele>716</ele>
        <time>2014-08-24T11:30:53.22</time>
      </trkpt>
      <trkpt lat="38.39707" lon="-2.221545">
        <ele>716</ele>
        <time>2014-08-24T11:30:55.28</time>
      </trkpt>
      <trkpt lat="38.397105" lon="-2.221665">
        <ele>716</ele>
        <time>2014-08-24T11:30:57.37</time>
      </trkpt>
      <trkpt lat="38.397155" lon="-2.2218">
        <ele>716</ele>
        <time>2014-08-24T11:30:59.27</time>
      </trkpt>
      <trkpt lat="38.39716" lon="-2.22195">
        <ele>717</ele>
        <time>2014-08-24T11:31:01.27</time>
      </trkpt>
      <trkpt lat="38.397193333333334" lon="-2.22209">
        <ele>718</ele>
        <time>2014-08-24T11:31:03.28</time>
      </trkpt>
      <trkpt lat="38.39721" lon="-2.2222233333333334">
        <ele>718</ele>
        <time>2014-08-24T11:31:05.26</time>
      </trkpt>
      <trkpt lat="38.39722" lon="-2.22235">
        <ele>717</ele>
        <time>2014-08-24T11:31:07.22</time>
      </trkpt>
      <trkpt lat="38.397215" lon="-2.22249">
        <ele>716</ele>
        <time>2014-08-24T11:31:09.23</time>
      </trkpt>
      <trkpt lat="38.39717" lon="-2.222601666666667">
        <ele>716</ele>
        <time>2014-08-24T11:31:11.23</time>
      </trkpt>
      <trkpt lat="38.39712" lon="-2.22273">
        <ele>719</ele>
        <time>2014-08-24T11:31:13.22</time>
      </trkpt>
      <trkpt lat="38.397105" lon="-2.22288">
        <ele>720</ele>
        <time>2014-08-24T11:31:15.22</time>
      </trkpt>
      <trkpt lat="38.39714" lon="-2.223045">
        <ele>719</ele>
        <time>2014-08-24T11:31:17.22</time>
      </trkpt>
      <trkpt lat="38.3972" lon="-2.22318">
        <ele>720</ele>
        <time>2014-08-24T11:31:19.23</time>
      </trkpt>
      <trkpt lat="38.39726" lon="-2.223245">
        <ele>722</ele>
        <time>2014-08-24T11:31:20.17</time>
      </trkpt>
      <trkpt lat="38.39733" lon="-2.223365">
        <ele>722</ele>
        <time>2014-08-24T11:31:22.22</time>
      </trkpt>
      <trkpt lat="38.397385" lon="-2.223475">
        <ele>723</ele>
        <time>2014-08-24T11:31:24.25</time>
      </trkpt>
      <trkpt lat="38.39745" lon="-2.223585">
        <ele>724</ele>
        <time>2014-08-24T11:31:26.22</time>
      </trkpt>
      <trkpt lat="38.39752" lon="-2.2236833333333332">
        <ele>724</ele>
        <time>2014-08-24T11:31:28.22</time>
      </trkpt>
      <trkpt lat="38.397585" lon="-2.223785">
        <ele>724</ele>
        <time>2014-08-24T11:31:30.22</time>
      </trkpt>
      <trkpt lat="38.39767" lon="-2.22387">
        <ele>724</ele>
        <time>2014-08-24T11:31:32.22</time>
      </trkpt>
      <trkpt lat="38.397775" lon="-2.2239283333333333">
        <ele>724</ele>
        <time>2014-08-24T11:31:34.22</time>
      </trkpt>
      <trkpt lat="38.39788" lon="-2.223965">
        <ele>724</ele>
        <time>2014-08-24T11:31:36.23</time>
      </trkpt>
      <trkpt lat="38.397985" lon="-2.223975">
        <ele>723</ele>
        <time>2014-08-24T11:31:38.23</time>
      </trkpt>
      <trkpt lat="38.398085" lon="-2.224">
        <ele>723</ele>
        <time>2014-08-24T11:31:40.22</time>
      </trkpt>
      <trkpt lat="38.39817" lon="-2.224055">
        <ele>723</ele>
        <time>2014-08-24T11:31:42.36</time>
      </trkpt>
      <trkpt lat="38.39824" lon="-2.224135">
        <ele>725</ele>
        <time>2014-08-24T11:31:44.23</time>
      </trkpt>
      <trkpt lat="38.39829" lon="-2.22426">
        <ele>725</ele>
        <time>2014-08-24T11:31:46.26</time>
      </trkpt>
      <trkpt lat="38.398295" lon="-2.22437">
        <ele>726</ele>
        <time>2014-08-24T11:31:48.37</time>
      </trkpt>
      <trkpt lat="38.39834" lon="-2.224485">
        <ele>727</ele>
        <time>2014-08-24T11:31:50.27</time>
      </trkpt>
      <trkpt lat="38.39838" lon="-2.22462">
        <ele>726</ele>
        <time>2014-08-24T11:31:52.25</time>
      </trkpt>
      <trkpt lat="38.398445" lon="-2.22473">
        <ele>726</ele>
        <time>2014-08-24T11:31:54.26</time>
      </trkpt>
      <trkpt lat="38.398525" lon="-2.224825">
        <ele>724</ele>
        <time>2014-08-24T11:31:56.23</time>
      </trkpt>
      <trkpt lat="38.39858" lon="-2.224965">
        <ele>727</ele>
        <time>2014-08-24T11:31:58.22</time>
      </trkpt>
      <trkpt lat="38.39862" lon="-2.225085">
        <ele>730</ele>
        <time>2014-08-24T11:32:00.23</time>
      </trkpt>
      <trkpt lat="38.39865" lon="-2.22522">
        <ele>730</ele>
        <time>2014-08-24T11:32:02.25</time>
      </trkpt>
      <trkpt lat="38.39869" lon="-2.225365">
        <ele>729</ele>
        <time>2014-08-24T11:32:04.23</time>
      </trkpt>
      <trkpt lat="38.39875" lon="-2.225495">
        <ele>729</ele>
        <time>2014-08-24T11:32:06.22</time>
      </trkpt>
      <trkpt lat="38.398815" lon="-2.225605">
        <ele>731</ele>
        <time>2014-08-24T11:32:08.22</time>
      </trkpt>
      <trkpt lat="38.39889" lon="-2.22571">
        <ele>731</ele>
        <time>2014-08-24T11:32:10.23</time>
      </trkpt>
      <trkpt lat="38.39896" lon="-2.225825">
        <ele>729</ele>
        <time>2014-08-24T11:32:12.22</time>
      </trkpt>
      <trkpt lat="38.39903" lon="-2.22593">
        <ele>729</ele>
        <time>2014-08-24T11:32:14.28</time>
      </trkpt>
      <trkpt lat="38.399105" lon="-2.22605">
        <ele>728</ele>
        <time>2014-08-24T11:32:16.22</time>
      </trkpt>
      <trkpt lat="38.399161666666664" lon="-2.226175">
        <ele>729</ele>
        <time>2014-08-24T11:32:18.22</time>
      </trkpt>
      <trkpt lat="38.399226666666664" lon="-2.22629">
        <ele>730</ele>
        <time>2014-08-24T11:32:20.22</time>
      </trkpt>
      <trkpt lat="38.399285" lon="-2.226415">
        <ele>729</ele>
        <time>2014-08-24T11:32:22.22</time>
      </trkpt>
      <trkpt lat="38.399335" lon="-2.22654">
        <ele>730</ele>
        <time>2014-08-24T11:32:24.22</time>
      </trkpt>
      <trkpt lat="38.39937" lon="-2.22668">
        <ele>731</ele>
        <time>2014-08-24T11:32:26.22</time>
      </trkpt>
      <trkpt lat="38.39941" lon="-2.22681">
        <ele>731</ele>
        <time>2014-08-24T11:32:28.23</time>
      </trkpt>
      <trkpt lat="38.399453333333334" lon="-2.226945">
        <ele>732</ele>
        <time>2014-08-24T11:32:30.22</time>
      </trkpt>
      <trkpt lat="38.399495" lon="-2.22708">
        <ele>733</ele>
        <time>2014-08-24T11:32:32.22</time>
      </trkpt>
      <trkpt lat="38.39954" lon="-2.227215">
        <ele>732</ele>
        <time>2014-08-24T11:32:34.22</time>
      </trkpt>
      <trkpt lat="38.399585" lon="-2.2273366666666665">
        <ele>732</ele>
        <time>2014-08-24T11:32:36.22</time>
      </trkpt>
      <trkpt lat="38.399645" lon="-2.22747">
        <ele>733</ele>
        <time>2014-08-24T11:32:38.31</time>
      </trkpt>
      <trkpt lat="38.39971" lon="-2.227575">
        <ele>734</ele>
        <time>2014-08-24T11:32:40.22</time>
      </trkpt>
      <trkpt lat="38.39982" lon="-2.227635">
        <ele>734</ele>
        <time>2014-08-24T11:32:42.26</time>
      </trkpt>
      <trkpt lat="38.39994" lon="-2.22765">
        <ele>733</ele>
        <time>2014-08-24T11:32:44.22</time>
      </trkpt>
      <trkpt lat="38.400055" lon="-2.227595">
        <ele>732</ele>
        <time>2014-08-24T11:32:46.17</time>
      </trkpt>
      <trkpt lat="38.40016" lon="-2.227525">
        <ele>732</ele>
        <time>2014-08-24T11:32:48.27</time>
      </trkpt>
      <trkpt lat="38.400225" lon="-2.227485">
        <ele>731</ele>
        <time>2014-08-24T11:32:49.29</time>
      </trkpt>
      <trkpt lat="38.400315" lon="-2.2274316666666665">
        <ele>732</ele>
        <time>2014-08-24T11:32:51.25</time>
      </trkpt>
      <trkpt lat="38.400465" lon="-2.227385">
        <ele>730</ele>
        <time>2014-08-24T11:32:53.27</time>
      </trkpt>
      <trkpt lat="38.400575" lon="-2.227395">
        <ele>728</ele>
        <time>2014-08-24T11:32:55.28</time>
      </trkpt>
      <trkpt lat="38.400695" lon="-2.227395">
        <ele>728</ele>
        <time>2014-08-24T11:32:57.22</time>
      </trkpt>
      <trkpt lat="38.40082" lon="-2.2274">
        <ele>728</ele>
        <time>2014-08-24T11:32:59.27</time>
      </trkpt>
      <trkpt lat="38.400935" lon="-2.22742">
        <ele>729</ele>
        <time>2014-08-24T11:33:01.23</time>
      </trkpt>
      <trkpt lat="38.401048333333335" lon="-2.22747">
        <ele>727</ele>
        <time>2014-08-24T11:33:03.25</time>
      </trkpt>
      <trkpt lat="38.40114" lon="-2.227595">
        <ele>729</ele>
        <time>2014-08-24T11:33:05.23</time>
      </trkpt>
      <trkpt lat="38.40121" lon="-2.227735">
        <ele>727</ele>
        <time>2014-08-24T11:33:07.23</time>
      </trkpt>
      <trkpt lat="38.40125" lon="-2.227885">
        <ele>727</ele>
        <time>2014-08-24T11:33:09.23</time>
      </trkpt>
      <trkpt lat="38.40128833333333" lon="-2.22804">
        <ele>728</ele>
        <time>2014-08-24T11:33:11.22</time>
      </trkpt>
      <trkpt lat="38.40133" lon="-2.22818">
        <ele>729</ele>
        <time>2014-08-24T11:33:13.23</time>
      </trkpt>
      <trkpt lat="38.40138" lon="-2.22832">
        <ele>728</ele>
        <time>2014-08-24T11:33:15.22</time>
      </trkpt>
      <trkpt lat="38.40139" lon="-2.228415">
        <ele>729</ele>
        <time>2014-08-24T11:33:16.22</time>
      </trkpt>
      <trkpt lat="38.401423333333334" lon="-2.228501666666667">
        <ele>728</ele>
        <time>2014-08-24T11:33:17.22</time>
      </trkpt>
      <trkpt lat="38.401475" lon="-2.228655">
        <ele>727</ele>
        <time>2014-08-24T11:33:19.22</time>
      </trkpt>
      <trkpt lat="38.40153" lon="-2.22881">
        <ele>728</ele>
        <time>2014-08-24T11:33:21.28</time>
      </trkpt>
      <trkpt lat="38.40161" lon="-2.22894">
        <ele>728</ele>
        <time>2014-08-24T11:33:23.38</time>
      </trkpt>
      <trkpt lat="38.401685" lon="-2.22905">
        <ele>728</ele>
        <time>2014-08-24T11:33:25.28</time>
      </trkpt>
      <trkpt lat="38.40176" lon="-2.229145">
        <ele>729</ele>
        <time>2014-08-24T11:33:27.27</time>
      </trkpt>
      <trkpt lat="38.401845" lon="-2.229235">
        <ele>728</ele>
        <time>2014-08-24T11:33:29.28</time>
      </trkpt>
      <trkpt lat="38.40193" lon="-2.22933">
        <ele>728</ele>
        <time>2014-08-24T11:33:31.27</time>
      </trkpt>
      <trkpt lat="38.401985" lon="-2.229445">
        <ele>729</ele>
        <time>2014-08-24T11:33:33.27</time>
      </trkpt>
      <trkpt lat="38.40206" lon="-2.22955">
        <ele>730</ele>
        <time>2014-08-24T11:33:35.23</time>
      </trkpt>
      <trkpt lat="38.402125" lon="-2.22963">
        <ele>730</ele>
        <time>2014-08-24T11:33:37.22</time>
      </trkpt>
      <trkpt lat="38.40221" lon="-2.2297">
        <ele>731</ele>
        <time>2014-08-24T11:33:40.23</time>
      </trkpt>
      <trkpt lat="38.402315" lon="-2.22972">
        <ele>731</ele>
        <time>2014-08-24T11:33:43.23</time>
      </trkpt>
      <trkpt lat="38.402405" lon="-2.2297">
        <ele>731</ele>
        <time>2014-08-24T11:33:45.22</time>
      </trkpt>
      <trkpt lat="38.40249" lon="-2.229665">
        <ele>732</ele>
        <time>2014-08-24T11:33:47.27</time>
      </trkpt>
      <trkpt lat="38.402566666666665" lon="-2.229625">
        <ele>732</ele>
        <time>2014-08-24T11:33:49.28</time>
      </trkpt>
      <trkpt lat="38.40265333333333" lon="-2.229581666666667">
        <ele>732</ele>
        <time>2014-08-24T11:33:51.23</time>
      </trkpt>
      <trkpt lat="38.40274" lon="-2.229525">
        <ele>732</ele>
        <time>2014-08-24T11:33:53.22</time>
      </trkpt>
      <trkpt lat="38.402785" lon="-2.229495">
        <ele>734</ele>
        <time>2014-08-24T11:34:00.26</time>
      </trkpt>
      <trkpt lat="38.402785" lon="-2.22952">
        <ele>734</ele>
        <time>2014-08-24T11:34:07.23</time>
      </trkpt>
      <trkpt lat="38.402775" lon="-2.229511666666667">
        <ele>735</ele>
        <time>2014-08-24T11:34:10.22</time>
      </trkpt>
      <trkpt lat="38.402775" lon="-2.229525">
        <ele>739</ele>
        <time>2014-08-24T11:34:31.22</time>
      </trkpt>
      <trkpt lat="38.40278" lon="-2.229525">
        <ele>740</ele>
        <time>2014-08-24T11:34:32.23</time>
      </trkpt>
      <trkpt lat="38.4028" lon="-2.229495">
        <ele>739</ele>
        <time>2014-08-24T11:34:45.18</time>
      </trkpt>
      <trkpt lat="38.402805" lon="-2.229495">
        <ele>738</ele>
        <time>2014-08-24T11:34:46.18</time>
      </trkpt>
      <trkpt lat="38.402786666666664" lon="-2.229485">
        <ele>742</ele>
        <time>2014-08-24T11:35:05.21</time>
      </trkpt>
      <trkpt lat="38.402785" lon="-2.229485">
        <ele>742</ele>
        <time>2014-08-24T11:35:06.27</time>
      </trkpt>
      <trkpt lat="38.402785" lon="-2.2294966666666665">
        <ele>744</ele>
        <time>2014-08-24T11:35:29.22</time>
      </trkpt>
      <trkpt lat="38.402785" lon="-2.2294966666666665">
        <ele>744</ele>
        <time>2014-08-24T11:35:30.22</time>
      </trkpt>
      <trkpt lat="38.402775" lon="-2.229505">
        <ele>741</ele>
        <time>2014-08-24T11:35:51.26</time>
      </trkpt>
      <trkpt lat="38.402775" lon="-2.229505">
        <ele>741</ele>
        <time>2014-08-24T11:35:52.22</time>
      </trkpt>
      <trkpt lat="38.402785" lon="-2.22952">
        <ele>741</ele>
        <time>2014-08-24T11:36:56.28</time>
      </trkpt>
      <trkpt lat="38.402785" lon="-2.229525">
        <ele>740</ele>
        <time>2014-08-24T11:36:57.25</time>
      </trkpt>
      <trkpt lat="38.40278" lon="-2.229535">
        <ele>739</ele>
        <time>2014-08-24T11:37:54.21</time>
      </trkpt>
      <trkpt lat="38.40278" lon="-2.229535">
        <ele>739</ele>
        <time>2014-08-24T11:37:55.21</time>
      </trkpt>
      <trkpt lat="38.40277" lon="-2.2294966666666665">
        <ele>739</ele>
        <time>2014-08-24T11:38:16.21</time>
      </trkpt>
      <trkpt lat="38.402765" lon="-2.229495">
        <ele>739</ele>
        <time>2014-08-24T11:38:17.17</time>
      </trkpt>
      <trkpt lat="38.40284" lon="-2.229465">
        <ele>739</ele>
        <time>2014-08-24T11:38:30.21</time>
      </trkpt>
      <trkpt lat="38.402915" lon="-2.229425">
        <ele>737</ele>
        <time>2014-08-24T11:38:33.21</time>
      </trkpt>
      <trkpt lat="38.403" lon="-2.229385">
        <ele>737</ele>
        <time>2014-08-24T11:38:36.21</time>
      </trkpt>
      <trkpt lat="38.40307" lon="-2.22935">
        <ele>738</ele>
        <time>2014-08-24T11:38:38.21</time>
      </trkpt>
      <trkpt lat="38.40315" lon="-2.229311666666667">
        <ele>736</ele>
        <time>2014-08-24T11:38:40.23</time>
      </trkpt>
      <trkpt lat="38.40323" lon="-2.22927">
        <ele>735</ele>
        <time>2014-08-24T11:38:42.21</time>
      </trkpt>
      <trkpt lat="38.403305" lon="-2.229225">
        <ele>736</ele>
        <time>2014-08-24T11:38:44.21</time>
      </trkpt>
      <trkpt lat="38.403385" lon="-2.22919">
        <ele>735</ele>
        <time>2014-08-24T11:38:46.23</time>
      </trkpt>
      <trkpt lat="38.40346" lon="-2.2291483333333333">
        <ele>735</ele>
        <time>2014-08-24T11:38:48.25</time>
      </trkpt>
      <trkpt lat="38.40354" lon="-2.22911">
        <ele>735</ele>
        <time>2014-08-24T11:38:50.25</time>
      </trkpt>
      <trkpt lat="38.40362" lon="-2.22907">
        <ele>733</ele>
        <time>2014-08-24T11:38:52.27</time>
      </trkpt>
      <trkpt lat="38.403695" lon="-2.22903">
        <ele>733</ele>
        <time>2014-08-24T11:38:54.22</time>
      </trkpt>
      <trkpt lat="38.40379" lon="-2.22898">
        <ele>732</ele>
        <time>2014-08-24T11:38:57.21</time>
      </trkpt>
      <trkpt lat="38.40389" lon="-2.228925">
        <ele>737</ele>
        <time>2014-08-24T11:39:00.26</time>
      </trkpt>
      <trkpt lat="38.403965" lon="-2.228885">
        <ele>737</ele>
        <time>2014-08-24T11:39:02.26</time>
      </trkpt>
      <trkpt lat="38.404044999999996" lon="-2.228845">
        <ele>738</ele>
        <time>2014-08-24T11:39:04.23</time>
      </trkpt>
      <trkpt lat="38.404125" lon="-2.22881">
        <ele>738</ele>
        <time>2014-08-24T11:39:06.26</time>
      </trkpt>
      <trkpt lat="38.404205" lon="-2.228771666666667">
        <ele>740</ele>
        <time>2014-08-24T11:39:08.22</time>
      </trkpt>
      <trkpt lat="38.40428" lon="-2.228735">
        <ele>741</ele>
        <time>2014-08-24T11:39:10.21</time>
      </trkpt>
      <trkpt lat="38.404355" lon="-2.228685">
        <ele>742</ele>
        <time>2014-08-24T11:39:12.23</time>
      </trkpt>
      <trkpt lat="38.404435" lon="-2.22864">
        <ele>742</ele>
        <time>2014-08-24T11:39:14.20</time>
      </trkpt>
      <trkpt lat="38.40452" lon="-2.2285916666666665">
        <ele>743</ele>
        <time>2014-08-24T11:39:16.27</time>
      </trkpt>
      <trkpt lat="38.4046" lon="-2.22855">
        <ele>742</ele>
        <time>2014-08-24T11:39:18.23</time>
      </trkpt>
      <trkpt lat="38.40468" lon="-2.22851">
        <ele>741</ele>
        <time>2014-08-24T11:39:20.19</time>
      </trkpt>
      <trkpt lat="38.404775" lon="-2.228485">
        <ele>746</ele>
        <time>2014-08-24T11:39:23.23</time>
      </trkpt>
      <trkpt lat="38.40487" lon="-2.22846">
        <ele>747</ele>
        <time>2014-08-24T11:39:26.22</time>
      </trkpt>
      <trkpt lat="38.40496" lon="-2.22845">
        <ele>747</ele>
        <time>2014-08-24T11:39:29.28</time>
      </trkpt>
      <trkpt lat="38.404995" lon="-2.22854">
        <ele>749</ele>
        <time>2014-08-24T11:39:34.23</time>
      </trkpt>
      <trkpt lat="38.404986666666666" lon="-2.22857">
        <ele>748</ele>
        <time>2014-08-24T11:39:41.22</time>
      </trkpt>
      <trkpt lat="38.404985" lon="-2.228565">
        <ele>748</ele>
        <time>2014-08-24T11:39:42.22</time>
      </trkpt>
      <trkpt lat="38.404975" lon="-2.22855">
        <ele>747</ele>
        <time>2014-08-24T11:40:00.22</time>
      </trkpt>
      <trkpt lat="38.404975" lon="-2.22855">
        <ele>748</ele>
        <time>2014-08-24T11:40:01.22</time>
      </trkpt>
      <trkpt lat="38.404986666666666" lon="-2.228545">
        <ele>746</ele>
        <time>2014-08-24T11:40:15.21</time>
      </trkpt>
      <trkpt lat="38.404985" lon="-2.22854">
        <ele>746</ele>
        <time>2014-08-24T11:40:16.22</time>
      </trkpt>
      <trkpt lat="38.405" lon="-2.228535">
        <ele>747</ele>
        <time>2014-08-24T11:41:38.22</time>
      </trkpt>
      <trkpt lat="38.405" lon="-2.228535">
        <ele>747</ele>
        <time>2014-08-24T11:41:39.22</time>
      </trkpt>
      <trkpt lat="38.40505" lon="-2.22855">
        <ele>745</ele>
        <time>2014-08-24T11:41:57.22</time>
      </trkpt>
      <trkpt lat="38.40507" lon="-2.228565">
        <ele>743</ele>
        <time>2014-08-24T11:42:04.22</time>
      </trkpt>
      <trkpt lat="38.40507" lon="-2.228565">
        <ele>743</ele>
        <time>2014-08-24T11:42:05.21</time>
      </trkpt>
      <trkpt lat="38.40506666666667" lon="-2.228545">
        <ele>744</ele>
        <time>2014-08-24T11:42:16.14</time>
      </trkpt>
      <trkpt lat="38.40506833333333" lon="-2.228545">
        <ele>744</ele>
        <time>2014-08-24T11:42:17.18</time>
      </trkpt>
      <trkpt lat="38.40505" lon="-2.22854">
        <ele>747</ele>
        <time>2014-08-24T11:42:27.20</time>
      </trkpt>
      <trkpt lat="38.40505" lon="-2.22854">
        <ele>748</ele>
        <time>2014-08-24T11:42:28.29</time>
      </trkpt>
      <trkpt lat="38.40505" lon="-2.228555">
        <ele>745</ele>
        <time>2014-08-24T11:43:06.22</time>
      </trkpt>
      <trkpt lat="38.40505" lon="-2.228555">
        <ele>744</ele>
        <time>2014-08-24T11:43:07.44</time>
      </trkpt>
      <trkpt lat="38.40503" lon="-2.2285266666666668">
        <ele>748</ele>
        <time>2014-08-24T11:43:19.30</time>
      </trkpt>
      <trkpt lat="38.40503" lon="-2.228525">
        <ele>748</ele>
        <time>2014-08-24T11:43:20.22</time>
      </trkpt>
      <trkpt lat="38.405045" lon="-2.2285283333333332">
        <ele>745</ele>
        <time>2014-08-24T11:43:34.21</time>
      </trkpt>
      <trkpt lat="38.405045" lon="-2.2285283333333332">
        <ele>745</ele>
        <time>2014-08-24T11:43:35.21</time>
      </trkpt>
      <trkpt lat="38.40505" lon="-2.228535">
        <ele>744</ele>
        <time>2014-08-24T11:43:47.20</time>
      </trkpt>
      <trkpt lat="38.40505" lon="-2.228535">
        <ele>744</ele>
        <time>2014-08-24T11:43:48.20</time>
      </trkpt>
      <trkpt lat="38.40505" lon="-2.22857">
        <ele>745</ele>
        <time>2014-08-24T11:44:12.20</time>
      </trkpt>
      <trkpt lat="38.405055" lon="-2.228575">
        <ele>745</ele>
        <time>2014-08-24T11:44:13.20</time>
      </trkpt>
      <trkpt lat="38.40507" lon="-2.22856">
        <ele>746</ele>
        <time>2014-08-24T11:44:36.26</time>
      </trkpt>
      <trkpt lat="38.405073333333334" lon="-2.22856">
        <ele>746</ele>
        <time>2014-08-24T11:44:37.29</time>
      </trkpt>
      <trkpt lat="38.405095" lon="-2.228565">
        <ele>746</ele>
        <time>2014-08-24T11:44:49.19</time>
      </trkpt>
      <trkpt lat="38.405095" lon="-2.228565">
        <ele>746</ele>
        <time>2014-08-24T11:44:50.20</time>
      </trkpt>
      <trkpt lat="38.405115" lon="-2.228565">
        <ele>748</ele>
        <time>2014-08-24T11:45:15.16</time>
      </trkpt>
      <trkpt lat="38.40512" lon="-2.228565">
        <ele>748</ele>
        <time>2014-08-24T11:45:16.20</time>
      </trkpt>
      <trkpt lat="38.405105" lon="-2.228555">
        <ele>747</ele>
        <time>2014-08-24T11:45:26.20</time>
      </trkpt>
      <trkpt lat="38.405105" lon="-2.22855">
        <ele>747</ele>
        <time>2014-08-24T11:45:27.20</time>
      </trkpt>
      <trkpt lat="38.40511" lon="-2.228545">
        <ele>748</ele>
        <time>2014-08-24T11:45:40.16</time>
      </trkpt>
      <trkpt lat="38.405105" lon="-2.22854">
        <ele>748</ele>
        <time>2014-08-24T11:45:41.17</time>
      </trkpt>
      <trkpt lat="38.40506" lon="-2.228445">
        <ele>748</ele>
        <time>2014-08-24T11:45:48.17</time>
      </trkpt>
      <trkpt lat="38.405085" lon="-2.22836">
        <ele>749</ele>
        <time>2014-08-24T11:45:51.19</time>
      </trkpt>
      <trkpt lat="38.40515" lon="-2.228295">
        <ele>749</ele>
        <time>2014-08-24T11:45:54.17</time>
      </trkpt>
      <trkpt lat="38.405225" lon="-2.228255">
        <ele>749</ele>
        <time>2014-08-24T11:45:56.16</time>
      </trkpt>
      <trkpt lat="38.405315" lon="-2.228185">
        <ele>748</ele>
        <time>2014-08-24T11:45:58.21</time>
      </trkpt>
      <trkpt lat="38.40543" lon="-2.228115">
        <ele>746</ele>
        <time>2014-08-24T11:46:00.16</time>
      </trkpt>
      <trkpt lat="38.40553833333333" lon="-2.22802">
        <ele>747</ele>
        <time>2014-08-24T11:46:02.20</time>
      </trkpt>
      <trkpt lat="38.405605" lon="-2.22797">
        <ele>746</ele>
        <time>2014-08-24T11:46:03.17</time>
      </trkpt>
      <trkpt lat="38.40567" lon="-2.22793">
        <ele>746</ele>
        <time>2014-08-24T11:46:04.17</time>
      </trkpt>
      <trkpt lat="38.405735" lon="-2.227885">
        <ele>746</ele>
        <time>2014-08-24T11:46:05.15</time>
      </trkpt>
      <trkpt lat="38.40581" lon="-2.227835">
        <ele>746</ele>
        <time>2014-08-24T11:46:06.24</time>
      </trkpt>
      <trkpt lat="38.40588" lon="-2.22779">
        <ele>746</ele>
        <time>2014-08-24T11:46:07.15</time>
      </trkpt>
      <trkpt lat="38.405965" lon="-2.22773">
        <ele>746</ele>
        <time>2014-08-24T11:46:08.15</time>
      </trkpt>
      <trkpt lat="38.40605" lon="-2.227675">
        <ele>746</ele>
        <time>2014-08-24T11:46:09.16</time>
      </trkpt>
      <trkpt lat="38.406115" lon="-2.22763">
        <ele>745</ele>
        <time>2014-08-24T11:46:10.20</time>
      </trkpt>
      <trkpt lat="38.406205" lon="-2.22757">
        <ele>745</ele>
        <time>2014-08-24T11:46:11.19</time>
      </trkpt>
      <trkpt lat="38.40629" lon="-2.227516666666667">
        <ele>745</ele>
        <time>2014-08-24T11:46:12.32</time>
      </trkpt>
      <trkpt lat="38.406365" lon="-2.22746">
        <ele>745</ele>
        <time>2014-08-24T11:46:13.20</time>
      </trkpt>
      <trkpt lat="38.40646" lon="-2.22739">
        <ele>744</ele>
        <time>2014-08-24T11:46:14.26</time>
      </trkpt>
      <trkpt lat="38.40656" lon="-2.227325">
        <ele>744</ele>
        <time>2014-08-24T11:46:15.20</time>
      </trkpt>
      <trkpt lat="38.406655" lon="-2.227255">
        <ele>743</ele>
        <time>2014-08-24T11:46:16.21</time>
      </trkpt>
      <trkpt lat="38.40672" lon="-2.2272">
        <ele>741</ele>
        <time>2014-08-24T11:46:17.20</time>
      </trkpt>
      <trkpt lat="38.406805" lon="-2.22714">
        <ele>740</ele>
        <time>2014-08-24T11:46:18.30</time>
      </trkpt>
      <trkpt lat="38.406886666666665" lon="-2.22708">
        <ele>740</ele>
        <time>2014-08-24T11:46:19.21</time>
      </trkpt>
      <trkpt lat="38.407005" lon="-2.2269866666666664">
        <ele>739</ele>
        <time>2014-08-24T11:46:20.20</time>
      </trkpt>
      <trkpt lat="38.407105" lon="-2.226925">
        <ele>739</ele>
        <time>2014-08-24T11:46:21.21</time>
      </trkpt>
      <trkpt lat="38.407195" lon="-2.226855">
        <ele>737</ele>
        <time>2014-08-24T11:46:22.21</time>
      </trkpt>
      <trkpt lat="38.40729" lon="-2.22678">
        <ele>736</ele>
        <time>2014-08-24T11:46:23.21</time>
      </trkpt>
      <trkpt lat="38.407375" lon="-2.2267166666666665">
        <ele>736</ele>
        <time>2014-08-24T11:46:24.33</time>
      </trkpt>
      <trkpt lat="38.407475" lon="-2.226635">
        <ele>733</ele>
        <time>2014-08-24T11:46:25.20</time>
      </trkpt>
      <trkpt lat="38.40756" lon="-2.226565">
        <ele>733</ele>
        <time>2014-08-24T11:46:26.24</time>
      </trkpt>
      <trkpt lat="38.407655" lon="-2.226515">
        <ele>733</ele>
        <time>2014-08-24T11:46:27.20</time>
      </trkpt>
      <trkpt lat="38.40775" lon="-2.226455">
        <ele>734</ele>
        <time>2014-08-24T11:46:28.20</time>
      </trkpt>
      <trkpt lat="38.40783" lon="-2.22641">
        <ele>734</ele>
        <time>2014-08-24T11:46:29.23</time>
      </trkpt>
      <trkpt lat="38.407895" lon="-2.226345">
        <ele>735</ele>
        <time>2014-08-24T11:46:30.20</time>
      </trkpt>
      <trkpt lat="38.40798" lon="-2.22629">
        <ele>734</ele>
        <time>2014-08-24T11:46:31.20</time>
      </trkpt>
      <trkpt lat="38.40806" lon="-2.226225">
        <ele>733</ele>
        <time>2014-08-24T11:46:32.20</time>
      </trkpt>
      <trkpt lat="38.40815" lon="-2.226165">
        <ele>733</ele>
        <time>2014-08-24T11:46:33.20</time>
      </trkpt>
      <trkpt lat="38.408245" lon="-2.2260983333333333">
        <ele>731</ele>
        <time>2014-08-24T11:46:34.21</time>
      </trkpt>
      <trkpt lat="38.40833" lon="-2.226035">
        <ele>729</ele>
        <time>2014-08-24T11:46:35.20</time>
      </trkpt>
      <trkpt lat="38.408395" lon="-2.22599">
        <ele>730</ele>
        <time>2014-08-24T11:46:36.20</time>
      </trkpt>
      <trkpt lat="38.408465" lon="-2.225945">
        <ele>731</ele>
        <time>2014-08-24T11:46:37.28</time>
      </trkpt>
      <trkpt lat="38.40853" lon="-2.22589">
        <ele>731</ele>
        <time>2014-08-24T11:46:38.20</time>
      </trkpt>
      <trkpt lat="38.4086" lon="-2.225845">
        <ele>729</ele>
        <time>2014-08-24T11:46:39.20</time>
      </trkpt>
      <trkpt lat="38.408675" lon="-2.22578">
        <ele>727</ele>
        <time>2014-08-24T11:46:40.20</time>
      </trkpt>
      <trkpt lat="38.408735" lon="-2.2257233333333333">
        <ele>727</ele>
        <time>2014-08-24T11:46:41.21</time>
      </trkpt>
      <trkpt lat="38.408856666666665" lon="-2.225635">
        <ele>727</ele>
        <time>2014-08-24T11:46:43.20</time>
      </trkpt>
      <trkpt lat="38.408985" lon="-2.225575">
        <ele>728</ele>
        <time>2014-08-24T11:46:45.20</time>
      </trkpt>
      <trkpt lat="38.409045" lon="-2.22552">
        <ele>730</ele>
        <time>2014-08-24T11:46:46.16</time>
      </trkpt>
      <trkpt lat="38.409145" lon="-2.22544">
        <ele>730</ele>
        <time>2014-08-24T11:46:48.25</time>
      </trkpt>
      <trkpt lat="38.409245" lon="-2.225365">
        <ele>732</ele>
        <time>2014-08-24T11:46:50.27</time>
      </trkpt>
      <trkpt lat="38.409355" lon="-2.22527">
        <ele>733</ele>
        <time>2014-08-24T11:46:52.19</time>
      </trkpt>
      <trkpt lat="38.40946" lon="-2.22517">
        <ele>735</ele>
        <time>2014-08-24T11:46:54.26</time>
      </trkpt>
      <trkpt lat="38.409525" lon="-2.225095">
        <ele>732</ele>
        <time>2014-08-24T11:46:55.20</time>
      </trkpt>
      <trkpt lat="38.40965" lon="-2.225065">
        <ele>733</ele>
        <time>2014-08-24T11:46:57.20</time>
      </trkpt>
      <trkpt lat="38.409765" lon="-2.224975">
        <ele>734</ele>
        <time>2014-08-24T11:46:59.23</time>
      </trkpt>
      <trkpt lat="38.409865" lon="-2.22491">
        <ele>734</ele>
        <time>2014-08-24T11:47:01.20</time>
      </trkpt>
      <trkpt lat="38.409935" lon="-2.22485">
        <ele>733</ele>
        <time>2014-08-24T11:47:02.20</time>
      </trkpt>
      <trkpt lat="38.41003" lon="-2.22477">
        <ele>733</ele>
        <time>2014-08-24T11:47:04.20</time>
      </trkpt>
      <trkpt lat="38.410145" lon="-2.224705">
        <ele>733</ele>
        <time>2014-08-24T11:47:06.20</time>
      </trkpt>
      <trkpt lat="38.410255" lon="-2.224615">
        <ele>735</ele>
        <time>2014-08-24T11:47:08.30</time>
      </trkpt>
      <trkpt lat="38.410376666666664" lon="-2.22455">
        <ele>735</ele>
        <time>2014-08-24T11:47:10.41</time>
      </trkpt>
      <trkpt lat="38.41047" lon="-2.224465">
        <ele>734</ele>
        <time>2014-08-24T11:47:12.24</time>
      </trkpt>
      <trkpt lat="38.410555" lon="-2.224395">
        <ele>736</ele>
        <time>2014-08-24T11:47:14.31</time>
      </trkpt>
      <trkpt lat="38.41064" lon="-2.22432">
        <ele>736</ele>
        <time>2014-08-24T11:47:16.20</time>
      </trkpt>
      <trkpt lat="38.41075" lon="-2.22426">
        <ele>737</ele>
        <time>2014-08-24T11:47:18.27</time>
      </trkpt>
      <trkpt lat="38.410835" lon="-2.224195">
        <ele>738</ele>
        <time>2014-08-24T11:47:20.24</time>
      </trkpt>
      <trkpt lat="38.41092" lon="-2.224145">
        <ele>740</ele>
        <time>2014-08-24T11:47:22.20</time>
      </trkpt>
      <trkpt lat="38.41101" lon="-2.2241">
        <ele>741</ele>
        <time>2014-08-24T11:47:24.27</time>
      </trkpt>
      <trkpt lat="38.411095" lon="-2.22405">
        <ele>741</ele>
        <time>2014-08-24T11:47:26.24</time>
      </trkpt>
      <trkpt lat="38.411185" lon="-2.224005">
        <ele>739</ele>
        <time>2014-08-24T11:47:28.26</time>
      </trkpt>
      <trkpt lat="38.411275" lon="-2.223965">
        <ele>740</ele>
        <time>2014-08-24T11:47:30.20</time>
      </trkpt>
      <trkpt lat="38.411375" lon="-2.22392">
        <ele>740</ele>
        <time>2014-08-24T11:47:32.21</time>
      </trkpt>
      <trkpt lat="38.41146" lon="-2.22388">
        <ele>741</ele>
        <time>2014-08-24T11:47:34.20</time>
      </trkpt>
      <trkpt lat="38.411555" lon="-2.22384">
        <ele>741</ele>
        <time>2014-08-24T11:47:36.20</time>
      </trkpt>
      <trkpt lat="38.411655" lon="-2.223805">
        <ele>740</ele>
        <time>2014-08-24T11:47:38.21</time>
      </trkpt>
      <trkpt lat="38.41176" lon="-2.2237633333333333">
        <ele>739</ele>
        <time>2014-08-24T11:47:40.21</time>
      </trkpt>
      <trkpt lat="38.41186" lon="-2.223725">
        <ele>738</ele>
        <time>2014-08-24T11:47:42.20</time>
      </trkpt>
      <trkpt lat="38.411955" lon="-2.2236683333333334">
        <ele>738</ele>
        <time>2014-08-24T11:47:44.26</time>
      </trkpt>
      <trkpt lat="38.41203333333333" lon="-2.223645">
        <ele>742</ele>
        <time>2014-08-24T11:47:46.18</time>
      </trkpt>
      <trkpt lat="38.41214" lon="-2.223585">
        <ele>747</ele>
        <time>2014-08-24T11:47:49.23</time>
      </trkpt>
      <trkpt lat="38.41223" lon="-2.223545">
        <ele>747</ele>
        <time>2014-08-24T11:47:51.21</time>
      </trkpt>
      <trkpt lat="38.41231" lon="-2.223505">
        <ele>747</ele>
        <time>2014-08-24T11:47:53.21</time>
      </trkpt>
      <trkpt lat="38.412385" lon="-2.22347">
        <ele>747</ele>
        <time>2014-08-24T11:47:55.20</time>
      </trkpt>
      <trkpt lat="38.412465" lon="-2.22344">
        <ele>746</ele>
        <time>2014-08-24T11:47:57.25</time>
      </trkpt>
      <trkpt lat="38.412555" lon="-2.22337">
        <ele>747</ele>
        <time>2014-08-24T11:48:00.20</time>
      </trkpt>
      <trkpt lat="38.41262" lon="-2.2233016666666665">
        <ele>748</ele>
        <time>2014-08-24T11:48:02.20</time>
      </trkpt>
      <trkpt lat="38.4127" lon="-2.223235">
        <ele>749</ele>
        <time>2014-08-24T11:48:05.30</time>
      </trkpt>
      <trkpt lat="38.412805" lon="-2.223255">
        <ele>750</ele>
        <time>2014-08-24T11:48:08.28</time>
      </trkpt>
      <trkpt lat="38.41284" lon="-2.22337">
        <ele>754</ele>
        <time>2014-08-24T11:48:10.24</time>
      </trkpt>
      <trkpt lat="38.41281" lon="-2.223515">
        <ele>753</ele>
        <time>2014-08-24T11:48:11.24</time>
      </trkpt>
      <trkpt lat="38.412775" lon="-2.223655">
        <ele>753</ele>
        <time>2014-08-24T11:48:13.26</time>
      </trkpt>
      <trkpt lat="38.412745" lon="-2.223795">
        <ele>753</ele>
        <time>2014-08-24T11:48:15.19</time>
      </trkpt>
      <trkpt lat="38.412705" lon="-2.223935">
        <ele>754</ele>
        <time>2014-08-24T11:48:17.23</time>
      </trkpt>
      <trkpt lat="38.412655" lon="-2.22406">
        <ele>755</ele>
        <time>2014-08-24T11:48:19.27</time>
      </trkpt>
      <trkpt lat="38.412615" lon="-2.22419">
        <ele>756</ele>
        <time>2014-08-24T11:48:21.23</time>
      </trkpt>
      <trkpt lat="38.412585" lon="-2.22435">
        <ele>754</ele>
        <time>2014-08-24T11:48:23.26</time>
      </trkpt>
      <trkpt lat="38.412565" lon="-2.224515">
        <ele>754</ele>
        <time>2014-08-24T11:48:25.27</time>
      </trkpt>
      <trkpt lat="38.412535" lon="-2.22468">
        <ele>754</ele>
        <time>2014-08-24T11:48:27.27</time>
      </trkpt>
      <trkpt lat="38.412485" lon="-2.22484">
        <ele>753</ele>
        <time>2014-08-24T11:48:29.24</time>
      </trkpt>
      <trkpt lat="38.41247" lon="-2.224945">
        <ele>752</ele>
        <time>2014-08-24T11:48:30.25</time>
      </trkpt>
      <trkpt lat="38.41243333333333" lon="-2.22511">
        <ele>750</ele>
        <time>2014-08-24T11:48:32.26</time>
      </trkpt>
      <trkpt lat="38.41241333333333" lon="-2.2252">
        <ele>750</ele>
        <time>2014-08-24T11:48:33.27</time>
      </trkpt>
      <trkpt lat="38.41237" lon="-2.225365">
        <ele>749</ele>
        <time>2014-08-24T11:48:35.20</time>
      </trkpt>
      <trkpt lat="38.41233" lon="-2.225535">
        <ele>750</ele>
        <time>2014-08-24T11:48:37.26</time>
      </trkpt>
      <trkpt lat="38.41231" lon="-2.225625">
        <ele>750</ele>
        <time>2014-08-24T11:48:38.26</time>
      </trkpt>
      <trkpt lat="38.41229" lon="-2.22572">
        <ele>749</ele>
        <time>2014-08-24T11:48:39.27</time>
      </trkpt>
      <trkpt lat="38.412275" lon="-2.2258116666666665">
        <ele>748</ele>
        <time>2014-08-24T11:48:40.27</time>
      </trkpt>
      <trkpt lat="38.412245" lon="-2.2259083333333334">
        <ele>749</ele>
        <time>2014-08-24T11:48:41.24</time>
      </trkpt>
      <trkpt lat="38.41222" lon="-2.22601">
        <ele>749</ele>
        <time>2014-08-24T11:48:42.20</time>
      </trkpt>
      <trkpt lat="38.4122" lon="-2.22611">
        <ele>749</ele>
        <time>2014-08-24T11:48:43.25</time>
      </trkpt>
      <trkpt lat="38.41218" lon="-2.226205">
        <ele>748</ele>
        <time>2014-08-24T11:48:44.25</time>
      </trkpt>
      <trkpt lat="38.412155" lon="-2.22631">
        <ele>748</ele>
        <time>2014-08-24T11:48:45.26</time>
      </trkpt>
      <trkpt lat="38.41213" lon="-2.22641">
        <ele>748</ele>
        <time>2014-08-24T11:48:46.23</time>
      </trkpt>
      <trkpt lat="38.4121" lon="-2.226505">
        <ele>748</ele>
        <time>2014-08-24T11:48:47.16</time>
      </trkpt>
      <trkpt lat="38.41207" lon="-2.226605">
        <ele>748</ele>
        <time>2014-08-24T11:48:48.16</time>
      </trkpt>
      <trkpt lat="38.412045" lon="-2.22671">
        <ele>747</ele>
        <time>2014-08-24T11:48:49.16</time>
      </trkpt>
      <trkpt lat="38.41202" lon="-2.226805">
        <ele>748</ele>
        <time>2014-08-24T11:48:50.21</time>
      </trkpt>
      <trkpt lat="38.411995" lon="-2.2268933333333334">
        <ele>747</ele>
        <time>2014-08-24T11:48:51.25</time>
      </trkpt>
      <trkpt lat="38.411985" lon="-2.22701">
        <ele>746</ele>
        <time>2014-08-24T11:48:52.26</time>
      </trkpt>
      <trkpt lat="38.411955" lon="-2.22719">
        <ele>746</ele>
        <time>2014-08-24T11:48:54.27</time>
      </trkpt>
      <trkpt lat="38.41193" lon="-2.227285">
        <ele>746</ele>
        <time>2014-08-24T11:48:55.21</time>
      </trkpt>
      <trkpt lat="38.41191" lon="-2.22737">
        <ele>747</ele>
        <time>2014-08-24T11:48:56.21</time>
      </trkpt>
      <trkpt lat="38.41187" lon="-2.22755">
        <ele>747</ele>
        <time>2014-08-24T11:48:58.28</time>
      </trkpt>
      <trkpt lat="38.411855" lon="-2.22764">
        <ele>746</ele>
        <time>2014-08-24T11:48:59.20</time>
      </trkpt>
      <trkpt lat="38.41182" lon="-2.227795">
        <ele>748</ele>
        <time>2014-08-24T11:49:01.26</time>
      </trkpt>
      <trkpt lat="38.411775" lon="-2.22798">
        <ele>747</ele>
        <time>2014-08-24T11:49:03.23</time>
      </trkpt>
      <trkpt lat="38.411741666666664" lon="-2.228145">
        <ele>745</ele>
        <time>2014-08-24T11:49:05.24</time>
      </trkpt>
      <trkpt lat="38.411695" lon="-2.2283383333333333">
        <ele>745</ele>
        <time>2014-08-24T11:49:07.22</time>
      </trkpt>
      <trkpt lat="38.411651666666664" lon="-2.2285116666666664">
        <ele>744</ele>
        <time>2014-08-24T11:49:09.18</time>
      </trkpt>
      <trkpt lat="38.411615" lon="-2.228625">
        <ele>745</ele>
        <time>2014-08-24T11:49:10.24</time>
      </trkpt>
      <trkpt lat="38.4116" lon="-2.228735">
        <ele>744</ele>
        <time>2014-08-24T11:49:11.27</time>
      </trkpt>
      <trkpt lat="38.411585" lon="-2.22883">
        <ele>743</ele>
        <time>2014-08-24T11:49:12.15</time>
      </trkpt>
      <trkpt lat="38.411565" lon="-2.228915">
        <ele>742</ele>
        <time>2014-08-24T11:49:13.22</time>
      </trkpt>
      <trkpt lat="38.411545" lon="-2.229005">
        <ele>742</ele>
        <time>2014-08-24T11:49:14.25</time>
      </trkpt>
      <trkpt lat="38.41152" lon="-2.2291">
        <ele>741</ele>
        <time>2014-08-24T11:49:15.20</time>
      </trkpt>
      <trkpt lat="38.411495" lon="-2.2292">
        <ele>742</ele>
        <time>2014-08-24T11:49:16.26</time>
      </trkpt>
      <trkpt lat="38.41147" lon="-2.2293">
        <ele>742</ele>
        <time>2014-08-24T11:49:17.28</time>
      </trkpt>
      <trkpt lat="38.411445" lon="-2.22941">
        <ele>741</ele>
        <time>2014-08-24T11:49:18.28</time>
      </trkpt>
      <trkpt lat="38.411415" lon="-2.22951">
        <ele>741</ele>
        <time>2014-08-24T11:49:19.19</time>
      </trkpt>
      <trkpt lat="38.41139" lon="-2.2296">
        <ele>741</ele>
        <time>2014-08-24T11:49:20.19</time>
      </trkpt>
      <trkpt lat="38.41134" lon="-2.229775">
        <ele>743</ele>
        <time>2014-08-24T11:49:22.17</time>
      </trkpt>
      <trkpt lat="38.411315" lon="-2.22988">
        <ele>743</ele>
        <time>2014-08-24T11:49:23.26</time>
      </trkpt>
      <trkpt lat="38.41129" lon="-2.229975">
        <ele>743</ele>
        <time>2014-08-24T11:49:24.27</time>
      </trkpt>
      <trkpt lat="38.411265" lon="-2.230065">
        <ele>743</ele>
        <time>2014-08-24T11:49:25.28</time>
      </trkpt>
      <trkpt lat="38.411235" lon="-2.23016">
        <ele>743</ele>
        <time>2014-08-24T11:49:26.24</time>
      </trkpt>
      <trkpt lat="38.41120333333333" lon="-2.230255">
        <ele>743</ele>
        <time>2014-08-24T11:49:27.20</time>
      </trkpt>
      <trkpt lat="38.41117" lon="-2.23035">
        <ele>743</ele>
        <time>2014-08-24T11:49:28.16</time>
      </trkpt>
      <trkpt lat="38.411135" lon="-2.230445">
        <ele>744</ele>
        <time>2014-08-24T11:49:29.21</time>
      </trkpt>
      <trkpt lat="38.411085" lon="-2.230535">
        <ele>744</ele>
        <time>2014-08-24T11:49:30.21</time>
      </trkpt>
      <trkpt lat="38.411045" lon="-2.23063">
        <ele>743</ele>
        <time>2014-08-24T11:49:31.28</time>
      </trkpt>
      <trkpt lat="38.41101" lon="-2.230725">
        <ele>743</ele>
        <time>2014-08-24T11:49:32.25</time>
      </trkpt>
      <trkpt lat="38.410965" lon="-2.230815">
        <ele>743</ele>
        <time>2014-08-24T11:49:33.25</time>
      </trkpt>
      <trkpt lat="38.410925" lon="-2.230905">
        <ele>742</ele>
        <time>2014-08-24T11:49:34.30</time>
      </trkpt>
      <trkpt lat="38.410885" lon="-2.23102">
        <ele>741</ele>
        <time>2014-08-24T11:49:35.21</time>
      </trkpt>
      <trkpt lat="38.41084333333333" lon="-2.231115">
        <ele>742</ele>
        <time>2014-08-24T11:49:36.22</time>
      </trkpt>
      <trkpt lat="38.4108" lon="-2.2312133333333333">
        <ele>741</ele>
        <time>2014-08-24T11:49:37.22</time>
      </trkpt>
      <trkpt lat="38.410765" lon="-2.231325">
        <ele>739</ele>
        <time>2014-08-24T11:49:38.22</time>
      </trkpt>
      <trkpt lat="38.410735" lon="-2.23143">
        <ele>738</ele>
        <time>2014-08-24T11:49:39.20</time>
      </trkpt>
      <trkpt lat="38.410705" lon="-2.23153">
        <ele>737</ele>
        <time>2014-08-24T11:49:40.21</time>
      </trkpt>
      <trkpt lat="38.41067" lon="-2.23162">
        <ele>738</ele>
        <time>2014-08-24T11:49:41.16</time>
      </trkpt>
      <trkpt lat="38.41066" lon="-2.23173">
        <ele>738</ele>
        <time>2014-08-24T11:49:42.16</time>
      </trkpt>
      <trkpt lat="38.410665" lon="-2.23185">
        <ele>738</ele>
        <time>2014-08-24T11:49:43.16</time>
      </trkpt>
      <trkpt lat="38.41067" lon="-2.23197">
        <ele>738</ele>
        <time>2014-08-24T11:49:44.16</time>
      </trkpt>
      <trkpt lat="38.41068833333333" lon="-2.232091666666667">
        <ele>738</ele>
        <time>2014-08-24T11:49:45.16</time>
      </trkpt>
      <trkpt lat="38.410715" lon="-2.232215">
        <ele>738</ele>
        <time>2014-08-24T11:49:46.21</time>
      </trkpt>
      <trkpt lat="38.41074" lon="-2.232345">
        <ele>738</ele>
        <time>2014-08-24T11:49:47.17</time>
      </trkpt>
      <trkpt lat="38.41076" lon="-2.2324683333333333">
        <ele>738</ele>
        <time>2014-08-24T11:49:48.15</time>
      </trkpt>
      <trkpt lat="38.410785" lon="-2.23259">
        <ele>738</ele>
        <time>2014-08-24T11:49:49.24</time>
      </trkpt>
      <trkpt lat="38.410815" lon="-2.232715">
        <ele>737</ele>
        <time>2014-08-24T11:49:50.24</time>
      </trkpt>
      <trkpt lat="38.41084" lon="-2.2328183333333333">
        <ele>736</ele>
        <time>2014-08-24T11:49:51.26</time>
      </trkpt>
      <trkpt lat="38.41087" lon="-2.23295">
        <ele>736</ele>
        <time>2014-08-24T11:49:52.26</time>
      </trkpt>
      <trkpt lat="38.410895" lon="-2.23307">
        <ele>736</ele>
        <time>2014-08-24T11:49:53.27</time>
      </trkpt>
      <trkpt lat="38.410911666666664" lon="-2.233195">
        <ele>736</ele>
        <time>2014-08-24T11:49:54.44</time>
      </trkpt>
      <trkpt lat="38.410935" lon="-2.233305">
        <ele>736</ele>
        <time>2014-08-24T11:49:55.16</time>
      </trkpt>
      <trkpt lat="38.410965" lon="-2.233415">
        <ele>735</ele>
        <time>2014-08-24T11:49:56.19</time>
      </trkpt>
      <trkpt lat="38.410983333333334" lon="-2.23353">
        <ele>735</ele>
        <time>2014-08-24T11:49:57.20</time>
      </trkpt>
      <trkpt lat="38.41101" lon="-2.233645">
        <ele>735</ele>
        <time>2014-08-24T11:49:58.16</time>
      </trkpt>
      <trkpt lat="38.411035" lon="-2.23375">
        <ele>735</ele>
        <time>2014-08-24T11:49:59.20</time>
      </trkpt>
      <trkpt lat="38.411051666666665" lon="-2.233845">
        <ele>735</ele>
        <time>2014-08-24T11:50:00.20</time>
      </trkpt>
      <trkpt lat="38.41109" lon="-2.23399">
        <ele>734</ele>
        <time>2014-08-24T11:50:02.25</time>
      </trkpt>
      <trkpt lat="38.41109" lon="-2.23402">
        <ele>733</ele>
        <time>2014-08-24T11:50:09.23</time>
      </trkpt>
      <trkpt lat="38.411095" lon="-2.233925">
        <ele>732</ele>
        <time>2014-08-24T11:50:11.37</time>
      </trkpt>
      <trkpt lat="38.41104833333333" lon="-2.23385">
        <ele>732</ele>
        <time>2014-08-24T11:50:13.21</time>
      </trkpt>
      <trkpt lat="38.410975" lon="-2.233845">
        <ele>732</ele>
        <time>2014-08-24T11:50:15.20</time>
      </trkpt>
      <trkpt lat="38.41095" lon="-2.234005">
        <ele>732</ele>
        <time>2014-08-24T11:50:17.20</time>
      </trkpt>
      <trkpt lat="38.410965" lon="-2.234165">
        <ele>731</ele>
        <time>2014-08-24T11:50:19.21</time>
      </trkpt>
      <trkpt lat="38.41096" lon="-2.23426">
        <ele>730</ele>
        <time>2014-08-24T11:50:20.21</time>
      </trkpt>
      <trkpt lat="38.410955" lon="-2.2343583333333332">
        <ele>730</ele>
        <time>2014-08-24T11:50:21.19</time>
      </trkpt>
      <trkpt lat="38.410955" lon="-2.23447">
        <ele>730</ele>
        <time>2014-08-24T11:50:22.16</time>
      </trkpt>
      <trkpt lat="38.410965" lon="-2.23458">
        <ele>728</ele>
        <time>2014-08-24T11:50:23.20</time>
      </trkpt>
      <trkpt lat="38.41096" lon="-2.23469">
        <ele>728</ele>
        <time>2014-08-24T11:50:24.20</time>
      </trkpt>
      <trkpt lat="38.410955" lon="-2.234815">
        <ele>728</ele>
        <time>2014-08-24T11:50:25.20</time>
      </trkpt>
      <trkpt lat="38.41095" lon="-2.234945">
        <ele>727</ele>
        <time>2014-08-24T11:50:26.20</time>
      </trkpt>
      <trkpt lat="38.410945" lon="-2.235065">
        <ele>727</ele>
        <time>2014-08-24T11:50:27.20</time>
      </trkpt>
      <trkpt lat="38.41094" lon="-2.235185">
        <ele>726</ele>
        <time>2014-08-24T11:50:28.20</time>
      </trkpt>
      <trkpt lat="38.410935" lon="-2.235315">
        <ele>726</ele>
        <time>2014-08-24T11:50:29.20</time>
      </trkpt>
      <trkpt lat="38.410935" lon="-2.235435">
        <ele>726</ele>
        <time>2014-08-24T11:50:30.20</time>
      </trkpt>
      <trkpt lat="38.41093" lon="-2.23554">
        <ele>726</ele>
        <time>2014-08-24T11:50:31.21</time>
      </trkpt>
      <trkpt lat="38.41092" lon="-2.23565">
        <ele>725</ele>
        <time>2014-08-24T11:50:32.20</time>
      </trkpt>
      <trkpt lat="38.410895" lon="-2.23575">
        <ele>726</ele>
        <time>2014-08-24T11:50:33.20</time>
      </trkpt>
      <trkpt lat="38.410875" lon="-2.23585">
        <ele>726</ele>
        <time>2014-08-24T11:50:34.20</time>
      </trkpt>
      <trkpt lat="38.41085" lon="-2.235945">
        <ele>725</ele>
        <time>2014-08-24T11:50:35.20</time>
      </trkpt>
      <trkpt lat="38.41081" lon="-2.2360416666666665">
        <ele>726</ele>
        <time>2014-08-24T11:50:36.20</time>
      </trkpt>
      <trkpt lat="38.4108" lon="-2.236145">
        <ele>723</ele>
        <time>2014-08-24T11:50:37.20</time>
      </trkpt>
      <trkpt lat="38.410765" lon="-2.23625">
        <ele>724</ele>
        <time>2014-08-24T11:50:38.21</time>
      </trkpt>
      <trkpt lat="38.41073" lon="-2.23637">
        <ele>724</ele>
        <time>2014-08-24T11:50:39.20</time>
      </trkpt>
      <trkpt lat="38.410705" lon="-2.2365">
        <ele>723</ele>
        <time>2014-08-24T11:50:40.20</time>
      </trkpt>
      <trkpt lat="38.410665" lon="-2.23661">
        <ele>723</ele>
        <time>2014-08-24T11:50:41.20</time>
      </trkpt>
      <trkpt lat="38.41063" lon="-2.23673">
        <ele>722</ele>
        <time>2014-08-24T11:50:42.23</time>
      </trkpt>
      <trkpt lat="38.41059833333333" lon="-2.23686">
        <ele>722</ele>
        <time>2014-08-24T11:50:43.26</time>
      </trkpt>
      <trkpt lat="38.41057" lon="-2.23699">
        <ele>721</ele>
        <time>2014-08-24T11:50:44.37</time>
      </trkpt>
      <trkpt lat="38.41053" lon="-2.237111666666667">
        <ele>722</ele>
        <time>2014-08-24T11:50:45.27</time>
      </trkpt>
      <trkpt lat="38.410495" lon="-2.237255">
        <ele>721</ele>
        <time>2014-08-24T11:50:46.17</time>
      </trkpt>
      <trkpt lat="38.41046" lon="-2.23739">
        <ele>720</ele>
        <time>2014-08-24T11:50:47.21</time>
      </trkpt>
      <trkpt lat="38.41044" lon="-2.23753">
        <ele>719</ele>
        <time>2014-08-24T11:50:48.20</time>
      </trkpt>
      <trkpt lat="38.4104" lon="-2.237675">
        <ele>718</ele>
        <time>2014-08-24T11:50:49.24</time>
      </trkpt>
      <trkpt lat="38.41037333333333" lon="-2.237825">
        <ele>717</ele>
        <time>2014-08-24T11:50:50.25</time>
      </trkpt>
      <trkpt lat="38.41034" lon="-2.237975">
        <ele>718</ele>
        <time>2014-08-24T11:50:51.26</time>
      </trkpt>
      <trkpt lat="38.410325" lon="-2.238121666666667">
        <ele>714</ele>
        <time>2014-08-24T11:50:52.26</time>
      </trkpt>
      <trkpt lat="38.4103" lon="-2.23828">
        <ele>713</ele>
        <time>2014-08-24T11:50:53.21</time>
      </trkpt>
      <trkpt lat="38.41028" lon="-2.238425">
        <ele>712</ele>
        <time>2014-08-24T11:50:54.21</time>
      </trkpt>
      <trkpt lat="38.41027" lon="-2.238585">
        <ele>709</ele>
        <time>2014-08-24T11:50:55.20</time>
      </trkpt>
      <trkpt lat="38.410245" lon="-2.2387333333333332">
        <ele>709</ele>
        <time>2014-08-24T11:50:56.21</time>
      </trkpt>
      <trkpt lat="38.41021833333333" lon="-2.23889">
        <ele>709</ele>
        <time>2014-08-24T11:50:57.21</time>
      </trkpt>
      <trkpt lat="38.4102" lon="-2.23905">
        <ele>710</ele>
        <time>2014-08-24T11:50:58.21</time>
      </trkpt>
      <trkpt lat="38.41018" lon="-2.239205">
        <ele>709</ele>
        <time>2014-08-24T11:50:59.21</time>
      </trkpt>
      <trkpt lat="38.41015" lon="-2.23936">
        <ele>709</ele>
        <time>2014-08-24T11:51:00.21</time>
      </trkpt>
      <trkpt lat="38.41011" lon="-2.23952">
        <ele>710</ele>
        <time>2014-08-24T11:51:01.21</time>
      </trkpt>
      <trkpt lat="38.41008166666667" lon="-2.23969">
        <ele>709</ele>
        <time>2014-08-24T11:51:02.20</time>
      </trkpt>
      <trkpt lat="38.410055" lon="-2.23986">
        <ele>710</ele>
        <time>2014-08-24T11:51:03.21</time>
      </trkpt>
      <trkpt lat="38.410035" lon="-2.24002">
        <ele>708</ele>
        <time>2014-08-24T11:51:04.24</time>
      </trkpt>
      <trkpt lat="38.410005" lon="-2.240185">
        <ele>709</ele>
        <time>2014-08-24T11:51:05.20</time>
      </trkpt>
      <trkpt lat="38.409975" lon="-2.24034">
        <ele>709</ele>
        <time>2014-08-24T11:51:06.21</time>
      </trkpt>
      <trkpt lat="38.40995" lon="-2.2405">
        <ele>708</ele>
        <time>2014-08-24T11:51:07.22</time>
      </trkpt>
      <trkpt lat="38.409911666666666" lon="-2.24067">
        <ele>708</ele>
        <time>2014-08-24T11:51:08.20</time>
      </trkpt>
      <trkpt lat="38.40987" lon="-2.24082">
        <ele>708</ele>
        <time>2014-08-24T11:51:09.23</time>
      </trkpt>
      <trkpt lat="38.409825" lon="-2.24096">
        <ele>708</ele>
        <time>2014-08-24T11:51:10.21</time>
      </trkpt>
      <trkpt lat="38.409771666666664" lon="-2.24112">
        <ele>708</ele>
        <time>2014-08-24T11:51:11.21</time>
      </trkpt>
      <trkpt lat="38.409735" lon="-2.241275">
        <ele>707</ele>
        <time>2014-08-24T11:51:12.21</time>
      </trkpt>
      <trkpt lat="38.409685" lon="-2.2414283333333334">
        <ele>706</ele>
        <time>2014-08-24T11:51:13.21</time>
      </trkpt>
      <trkpt lat="38.409645" lon="-2.241585">
        <ele>707</ele>
        <time>2014-08-24T11:51:14.31</time>
      </trkpt>
      <trkpt lat="38.409605" lon="-2.24172">
        <ele>706</ele>
        <time>2014-08-24T11:51:15.20</time>
      </trkpt>
      <trkpt lat="38.409555" lon="-2.24187">
        <ele>707</ele>
        <time>2014-08-24T11:51:16.20</time>
      </trkpt>
      <trkpt lat="38.40951" lon="-2.242025">
        <ele>706</ele>
        <time>2014-08-24T11:51:17.21</time>
      </trkpt>
      <trkpt lat="38.409461666666665" lon="-2.24218">
        <ele>705</ele>
        <time>2014-08-24T11:51:18.21</time>
      </trkpt>
      <trkpt lat="38.40942" lon="-2.242315">
        <ele>706</ele>
        <time>2014-08-24T11:51:19.25</time>
      </trkpt>
      <trkpt lat="38.409375" lon="-2.24246">
        <ele>705</ele>
        <time>2014-08-24T11:51:20.21</time>
      </trkpt>
      <trkpt lat="38.409335" lon="-2.242595">
        <ele>705</ele>
        <time>2014-08-24T11:51:21.20</time>
      </trkpt>
      <trkpt lat="38.409285" lon="-2.242745">
        <ele>706</ele>
        <time>2014-08-24T11:51:22.20</time>
      </trkpt>
      <trkpt lat="38.40923" lon="-2.24288">
        <ele>705</ele>
        <time>2014-08-24T11:51:23.22</time>
      </trkpt>
      <trkpt lat="38.409175" lon="-2.243015">
        <ele>705</ele>
        <time>2014-08-24T11:51:24.24</time>
      </trkpt>
      <trkpt lat="38.409115" lon="-2.243145">
        <ele>705</ele>
        <time>2014-08-24T11:51:25.37</time>
      </trkpt>
      <trkpt lat="38.409065" lon="-2.24329">
        <ele>704</ele>
        <time>2014-08-24T11:51:26.25</time>
      </trkpt>
      <trkpt lat="38.40900833333333" lon="-2.24343">
        <ele>703</ele>
        <time>2014-08-24T11:51:27.25</time>
      </trkpt>
      <trkpt lat="38.408955" lon="-2.24357">
        <ele>703</ele>
        <time>2014-08-24T11:51:28.20</time>
      </trkpt>
      <trkpt lat="38.4089" lon="-2.24371">
        <ele>703</ele>
        <time>2014-08-24T11:51:29.26</time>
      </trkpt>
      <trkpt lat="38.40885" lon="-2.24383">
        <ele>702</ele>
        <time>2014-08-24T11:51:30.23</time>
      </trkpt>
      <trkpt lat="38.408785" lon="-2.243965">
        <ele>702</ele>
        <time>2014-08-24T11:51:31.23</time>
      </trkpt>
      <trkpt lat="38.408698333333334" lon="-2.244055">
        <ele>701</ele>
        <time>2014-08-24T11:51:32.23</time>
      </trkpt>
      <trkpt lat="38.40862" lon="-2.244145">
        <ele>702</ele>
        <time>2014-08-24T11:51:33.25</time>
      </trkpt>
      <trkpt lat="38.408525" lon="-2.24422">
        <ele>701</ele>
        <time>2014-08-24T11:51:34.20</time>
      </trkpt>
      <trkpt lat="38.408425" lon="-2.244275">
        <ele>703</ele>
        <time>2014-08-24T11:51:35.21</time>
      </trkpt>
      <trkpt lat="38.4083" lon="-2.244335">
        <ele>704</ele>
        <time>2014-08-24T11:51:36.26</time>
      </trkpt>
      <trkpt lat="38.408195" lon="-2.24439">
        <ele>705</ele>
        <time>2014-08-24T11:51:37.23</time>
      </trkpt>
      <trkpt lat="38.408105" lon="-2.244465">
        <ele>704</ele>
        <time>2014-08-24T11:51:38.23</time>
      </trkpt>
      <trkpt lat="38.408005" lon="-2.24454">
        <ele>704</ele>
        <time>2014-08-24T11:51:39.25</time>
      </trkpt>
      <trkpt lat="38.407905" lon="-2.244605">
        <ele>703</ele>
        <time>2014-08-24T11:51:40.20</time>
      </trkpt>
      <trkpt lat="38.407815" lon="-2.244685">
        <ele>702</ele>
        <time>2014-08-24T11:51:41.21</time>
      </trkpt>
      <trkpt lat="38.40774" lon="-2.244785">
        <ele>702</ele>
        <time>2014-08-24T11:51:42.23</time>
      </trkpt>
      <trkpt lat="38.40768" lon="-2.24488">
        <ele>702</ele>
        <time>2014-08-24T11:51:43.38</time>
      </trkpt>
      <trkpt lat="38.407605" lon="-2.24498">
        <ele>703</ele>
        <time>2014-08-24T11:51:44.22</time>
      </trkpt>
      <trkpt lat="38.407525" lon="-2.24508">
        <ele>703</ele>
        <time>2014-08-24T11:51:45.24</time>
      </trkpt>
      <trkpt lat="38.407455" lon="-2.2452">
        <ele>702</ele>
        <time>2014-08-24T11:51:46.20</time>
      </trkpt>
      <trkpt lat="38.40737" lon="-2.2453">
        <ele>704</ele>
        <time>2014-08-24T11:51:47.24</time>
      </trkpt>
      <trkpt lat="38.4073" lon="-2.245405">
        <ele>704</ele>
        <time>2014-08-24T11:51:48.19</time>
      </trkpt>
      <trkpt lat="38.407235" lon="-2.245505">
        <ele>705</ele>
        <time>2014-08-24T11:51:49.40</time>
      </trkpt>
      <trkpt lat="38.407175" lon="-2.245615">
        <ele>705</ele>
        <time>2014-08-24T11:51:50.23</time>
      </trkpt>
      <trkpt lat="38.407125" lon="-2.245725">
        <ele>705</ele>
        <time>2014-08-24T11:51:51.24</time>
      </trkpt>
      <trkpt lat="38.40708" lon="-2.24586">
        <ele>703</ele>
        <time>2014-08-24T11:51:52.23</time>
      </trkpt>
      <trkpt lat="38.407025" lon="-2.24597">
        <ele>703</ele>
        <time>2014-08-24T11:51:53.26</time>
      </trkpt>
      <trkpt lat="38.406985" lon="-2.24609">
        <ele>702</ele>
        <time>2014-08-24T11:51:54.24</time>
      </trkpt>
      <trkpt lat="38.40693" lon="-2.24622">
        <ele>702</ele>
        <time>2014-08-24T11:51:55.21</time>
      </trkpt>
      <trkpt lat="38.406875" lon="-2.24635">
        <ele>703</ele>
        <time>2014-08-24T11:51:56.23</time>
      </trkpt>
      <trkpt lat="38.406835" lon="-2.24646">
        <ele>701</ele>
        <time>2014-08-24T11:51:57.24</time>
      </trkpt>
      <trkpt lat="38.406765" lon="-2.246565">
        <ele>701</ele>
        <time>2014-08-24T11:51:58.24</time>
      </trkpt>
      <trkpt lat="38.40669" lon="-2.246655">
        <ele>701</ele>
        <time>2014-08-24T11:51:59.24</time>
      </trkpt>
      <trkpt lat="38.406595" lon="-2.2467333333333332">
        <ele>699</ele>
        <time>2014-08-24T11:52:00.25</time>
      </trkpt>
      <trkpt lat="38.406505" lon="-2.2468">
        <ele>699</ele>
        <time>2014-08-24T11:52:01.21</time>
      </trkpt>
      <trkpt lat="38.406415" lon="-2.246855">
        <ele>697</ele>
        <time>2014-08-24T11:52:02.25</time>
      </trkpt>
      <trkpt lat="38.40632" lon="-2.246915">
        <ele>697</ele>
        <time>2014-08-24T11:52:03.24</time>
      </trkpt>
      <trkpt lat="38.40623" lon="-2.246995">
        <ele>696</ele>
        <time>2014-08-24T11:52:04.23</time>
      </trkpt>
      <trkpt lat="38.40614" lon="-2.24709">
        <ele>695</ele>
        <time>2014-08-24T11:52:05.25</time>
      </trkpt>
      <trkpt lat="38.40607" lon="-2.2472">
        <ele>695</ele>
        <time>2014-08-24T11:52:06.25</time>
      </trkpt>
      <trkpt lat="38.40603" lon="-2.24733">
        <ele>694</ele>
        <time>2014-08-24T11:52:07.25</time>
      </trkpt>
      <trkpt lat="38.405985" lon="-2.247465">
        <ele>694</ele>
        <time>2014-08-24T11:52:08.21</time>
      </trkpt>
      <trkpt lat="38.40594" lon="-2.2476">
        <ele>694</ele>
        <time>2014-08-24T11:52:09.27</time>
      </trkpt>
      <trkpt lat="38.405895" lon="-2.24773">
        <ele>694</ele>
        <time>2014-08-24T11:52:10.23</time>
      </trkpt>
      <trkpt lat="38.40586" lon="-2.247865">
        <ele>692</ele>
        <time>2014-08-24T11:52:11.24</time>
      </trkpt>
      <trkpt lat="38.405795" lon="-2.247995">
        <ele>692</ele>
        <time>2014-08-24T11:52:12.24</time>
      </trkpt>
      <trkpt lat="38.40574" lon="-2.24812">
        <ele>690</ele>
        <time>2014-08-24T11:52:13.39</time>
      </trkpt>
      <trkpt lat="38.405685" lon="-2.248235">
        <ele>690</ele>
        <time>2014-08-24T11:52:14.24</time>
      </trkpt>
      <trkpt lat="38.40562" lon="-2.24836">
        <ele>689</ele>
        <time>2014-08-24T11:52:15.17</time>
      </trkpt>
      <trkpt lat="38.405575" lon="-2.24848">
        <ele>688</ele>
        <time>2014-08-24T11:52:16.23</time>
      </trkpt>
      <trkpt lat="38.40553666666667" lon="-2.2485933333333334">
        <ele>688</ele>
        <time>2014-08-24T11:52:17.23</time>
      </trkpt>
      <trkpt lat="38.40551" lon="-2.248735">
        <ele>687</ele>
        <time>2014-08-24T11:52:18.24</time>
      </trkpt>
      <trkpt lat="38.40549" lon="-2.24886">
        <ele>687</ele>
        <time>2014-08-24T11:52:19.30</time>
      </trkpt>
      <trkpt lat="38.40547" lon="-2.249005">
        <ele>686</ele>
        <time>2014-08-24T11:52:20.26</time>
      </trkpt>
      <trkpt lat="38.40546" lon="-2.2491483333333333">
        <ele>685</ele>
        <time>2014-08-24T11:52:21.22</time>
      </trkpt>
      <trkpt lat="38.405445" lon="-2.249295">
        <ele>686</ele>
        <time>2014-08-24T11:52:22.22</time>
      </trkpt>
      <trkpt lat="38.40544833333333" lon="-2.24944">
        <ele>685</ele>
        <time>2014-08-24T11:52:23.23</time>
      </trkpt>
      <trkpt lat="38.405465" lon="-2.24959">
        <ele>684</ele>
        <time>2014-08-24T11:52:24.23</time>
      </trkpt>
      <trkpt lat="38.405475" lon="-2.249735">
        <ele>683</ele>
        <time>2014-08-24T11:52:25.24</time>
      </trkpt>
      <trkpt lat="38.40548" lon="-2.249895">
        <ele>682</ele>
        <time>2014-08-24T11:52:26.24</time>
      </trkpt>
      <trkpt lat="38.40549" lon="-2.250045">
        <ele>682</ele>
        <time>2014-08-24T11:52:27.20</time>
      </trkpt>
      <trkpt lat="38.4055" lon="-2.2502">
        <ele>681</ele>
        <time>2014-08-24T11:52:28.20</time>
      </trkpt>
      <trkpt lat="38.40551" lon="-2.250355">
        <ele>680</ele>
        <time>2014-08-24T11:52:29.20</time>
      </trkpt>
      <trkpt lat="38.40553" lon="-2.250515">
        <ele>679</ele>
        <time>2014-08-24T11:52:30.20</time>
      </trkpt>
      <trkpt lat="38.40555" lon="-2.25068">
        <ele>678</ele>
        <time>2014-08-24T11:52:31.21</time>
      </trkpt>
      <trkpt lat="38.40558" lon="-2.250835">
        <ele>678</ele>
        <time>2014-08-24T11:52:32.21</time>
      </trkpt>
      <trkpt lat="38.405615" lon="-2.250985">
        <ele>677</ele>
        <time>2014-08-24T11:52:33.20</time>
      </trkpt>
      <trkpt lat="38.40564" lon="-2.25113">
        <ele>676</ele>
        <time>2014-08-24T11:52:34.20</time>
      </trkpt>
      <trkpt lat="38.405685" lon="-2.25128">
        <ele>676</ele>
        <time>2014-08-24T11:52:35.20</time>
      </trkpt>
      <trkpt lat="38.405725" lon="-2.2514250000000002">
        <ele>675</ele>
        <time>2014-08-24T11:52:36.25</time>
      </trkpt>
      <trkpt lat="38.40577" lon="-2.25156">
        <ele>675</ele>
        <time>2014-08-24T11:52:37.26</time>
      </trkpt>
      <trkpt lat="38.405818333333336" lon="-2.2517">
        <ele>675</ele>
        <time>2014-08-24T11:52:38.22</time>
      </trkpt>
      <trkpt lat="38.405865" lon="-2.251845">
        <ele>675</ele>
        <time>2014-08-24T11:52:39.20</time>
      </trkpt>
      <trkpt lat="38.405915" lon="-2.25199">
        <ele>675</ele>
        <time>2014-08-24T11:52:40.20</time>
      </trkpt>
      <trkpt lat="38.405965" lon="-2.25213">
        <ele>676</ele>
        <time>2014-08-24T11:52:41.19</time>
      </trkpt>
      <trkpt lat="38.406015" lon="-2.25227">
        <ele>676</ele>
        <time>2014-08-24T11:52:42.20</time>
      </trkpt>
      <trkpt lat="38.406065" lon="-2.2524100000000002">
        <ele>676</ele>
        <time>2014-08-24T11:52:43.20</time>
      </trkpt>
      <trkpt lat="38.40612" lon="-2.252545">
        <ele>676</ele>
        <time>2014-08-24T11:52:44.20</time>
      </trkpt>
      <trkpt lat="38.40617" lon="-2.25269">
        <ele>676</ele>
        <time>2014-08-24T11:52:45.20</time>
      </trkpt>
      <trkpt lat="38.40622" lon="-2.252816666666667">
        <ele>675</ele>
        <time>2014-08-24T11:52:46.15</time>
      </trkpt>
      <trkpt lat="38.40627666666666" lon="-2.2529500000000002">
        <ele>676</ele>
        <time>2014-08-24T11:52:47.33</time>
      </trkpt>
      <trkpt lat="38.406325" lon="-2.253075">
        <ele>677</ele>
        <time>2014-08-24T11:52:48.19</time>
      </trkpt>
      <trkpt lat="38.406405" lon="-2.253171666666667">
        <ele>674</ele>
        <time>2014-08-24T11:52:49.26</time>
      </trkpt>
      <trkpt lat="38.406465" lon="-2.25329">
        <ele>674</ele>
        <time>2014-08-24T11:52:50.20</time>
      </trkpt>
      <trkpt lat="38.40653" lon="-2.253415">
        <ele>673</ele>
        <time>2014-08-24T11:52:51.20</time>
      </trkpt>
      <trkpt lat="38.406585" lon="-2.25354">
        <ele>674</ele>
        <time>2014-08-24T11:52:52.20</time>
      </trkpt>
      <trkpt lat="38.40664" lon="-2.253655">
        <ele>674</ele>
        <time>2014-08-24T11:52:53.21</time>
      </trkpt>
      <trkpt lat="38.4067" lon="-2.25377">
        <ele>673</ele>
        <time>2014-08-24T11:52:54.20</time>
      </trkpt>
      <trkpt lat="38.406755" lon="-2.25388">
        <ele>674</ele>
        <time>2014-08-24T11:52:55.22</time>
      </trkpt>
      <trkpt lat="38.406805" lon="-2.254">
        <ele>673</ele>
        <time>2014-08-24T11:52:56.25</time>
      </trkpt>
      <trkpt lat="38.40686" lon="-2.25413">
        <ele>674</ele>
        <time>2014-08-24T11:52:57.27</time>
      </trkpt>
      <trkpt lat="38.406915" lon="-2.2542400000000002">
        <ele>673</ele>
        <time>2014-08-24T11:52:58.23</time>
      </trkpt>
      <trkpt lat="38.40699" lon="-2.2543333333333333">
        <ele>671</ele>
        <time>2014-08-24T11:52:59.19</time>
      </trkpt>
      <trkpt lat="38.407035" lon="-2.25446">
        <ele>672</ele>
        <time>2014-08-24T11:53:00.19</time>
      </trkpt>
      <trkpt lat="38.40708" lon="-2.254575">
        <ele>672</ele>
        <time>2014-08-24T11:53:01.19</time>
      </trkpt>
      <trkpt lat="38.407125" lon="-2.254685">
        <ele>672</ele>
        <time>2014-08-24T11:53:02.24</time>
      </trkpt>
      <trkpt lat="38.40717" lon="-2.2548">
        <ele>672</ele>
        <time>2014-08-24T11:53:03.30</time>
      </trkpt>
      <trkpt lat="38.40721" lon="-2.25492">
        <ele>672</ele>
        <time>2014-08-24T11:53:04.25</time>
      </trkpt>
      <trkpt lat="38.407255" lon="-2.255025">
        <ele>672</ele>
        <time>2014-08-24T11:53:05.22</time>
      </trkpt>
      <trkpt lat="38.40729" lon="-2.25515">
        <ele>673</ele>
        <time>2014-08-24T11:53:06.23</time>
      </trkpt>
      <trkpt lat="38.407325" lon="-2.25526">
        <ele>674</ele>
        <time>2014-08-24T11:53:07.23</time>
      </trkpt>
      <trkpt lat="38.407365" lon="-2.255365">
        <ele>675</ele>
        <time>2014-08-24T11:53:08.19</time>
      </trkpt>
      <trkpt lat="38.407405" lon="-2.255475">
        <ele>675</ele>
        <time>2014-08-24T11:53:09.25</time>
      </trkpt>
      <trkpt lat="38.40745" lon="-2.255585">
        <ele>675</ele>
        <time>2014-08-24T11:53:10.21</time>
      </trkpt>
      <trkpt lat="38.4075" lon="-2.255675">
        <ele>675</ele>
        <time>2014-08-24T11:53:11.15</time>
      </trkpt>
      <trkpt lat="38.407555" lon="-2.2557650000000002">
        <ele>674</ele>
        <time>2014-08-24T11:53:12.15</time>
      </trkpt>
      <trkpt lat="38.407615" lon="-2.255855">
        <ele>676</ele>
        <time>2014-08-24T11:53:13.21</time>
      </trkpt>
      <trkpt lat="38.40769" lon="-2.25592">
        <ele>676</ele>
        <time>2014-08-24T11:53:14.27</time>
      </trkpt>
      <trkpt lat="38.407765" lon="-2.25598">
        <ele>675</ele>
        <time>2014-08-24T11:53:15.22</time>
      </trkpt>
      <trkpt lat="38.40783" lon="-2.25604">
        <ele>676</ele>
        <time>2014-08-24T11:53:16.36</time>
      </trkpt>
      <trkpt lat="38.407905" lon="-2.25611">
        <ele>676</ele>
        <time>2014-08-24T11:53:17.25</time>
      </trkpt>
      <trkpt lat="38.40798" lon="-2.256165">
        <ele>675</ele>
        <time>2014-08-24T11:53:18.25</time>
      </trkpt>
      <trkpt lat="38.40806" lon="-2.25621">
        <ele>676</ele>
        <time>2014-08-24T11:53:19.22</time>
      </trkpt>
      <trkpt lat="38.408145" lon="-2.256245">
        <ele>675</ele>
        <time>2014-08-24T11:53:20.20</time>
      </trkpt>
      <trkpt lat="38.40822" lon="-2.2562699999999998">
        <ele>678</ele>
        <time>2014-08-24T11:53:21.20</time>
      </trkpt>
      <trkpt lat="38.40831" lon="-2.25628">
        <ele>677</ele>
        <time>2014-08-24T11:53:22.23</time>
      </trkpt>
      <trkpt lat="38.408395" lon="-2.256265">
        <ele>677</ele>
        <time>2014-08-24T11:53:23.25</time>
      </trkpt>
      <trkpt lat="38.408485" lon="-2.25623">
        <ele>676</ele>
        <time>2014-08-24T11:53:24.25</time>
      </trkpt>
      <trkpt lat="38.40857" lon="-2.25619">
        <ele>675</ele>
        <time>2014-08-24T11:53:25.26</time>
      </trkpt>
      <trkpt lat="38.408655" lon="-2.25615">
        <ele>676</ele>
        <time>2014-08-24T11:53:26.22</time>
      </trkpt>
      <trkpt lat="38.408735" lon="-2.256105">
        <ele>677</ele>
        <time>2014-08-24T11:53:27.20</time>
      </trkpt>
      <trkpt lat="38.40883" lon="-2.256065">
        <ele>677</ele>
        <time>2014-08-24T11:53:28.20</time>
      </trkpt>
      <trkpt lat="38.408905" lon="-2.256005">
        <ele>678</ele>
        <time>2014-08-24T11:53:29.25</time>
      </trkpt>
      <trkpt lat="38.408985" lon="-2.255945">
        <ele>678</ele>
        <time>2014-08-24T11:53:30.25</time>
      </trkpt>
      <trkpt lat="38.40907833333333" lon="-2.2558683333333334">
        <ele>676</ele>
        <time>2014-08-24T11:53:31.22</time>
      </trkpt>
      <trkpt lat="38.40915" lon="-2.255805">
        <ele>677</ele>
        <time>2014-08-24T11:53:32.22</time>
      </trkpt>
      <trkpt lat="38.40923333333333" lon="-2.255735">
        <ele>677</ele>
        <time>2014-08-24T11:53:33.23</time>
      </trkpt>
      <trkpt lat="38.40936" lon="-2.255625">
        <ele>678</ele>
        <time>2014-08-24T11:53:35.23</time>
      </trkpt>
      <trkpt lat="38.409435" lon="-2.255595">
        <ele>678</ele>
        <time>2014-08-24T11:53:36.19</time>
      </trkpt>
      <trkpt lat="38.40957" lon="-2.25549">
        <ele>675</ele>
        <time>2014-08-24T11:53:38.19</time>
      </trkpt>
      <trkpt lat="38.40971" lon="-2.2553900000000002">
        <ele>676</ele>
        <time>2014-08-24T11:53:40.34</time>
      </trkpt>
      <trkpt lat="38.409773333333334" lon="-2.2553283333333334">
        <ele>675</ele>
        <time>2014-08-24T11:53:41.25</time>
      </trkpt>
      <trkpt lat="38.40985833333333" lon="-2.25528">
        <ele>674</ele>
        <time>2014-08-24T11:53:42.25</time>
      </trkpt>
      <trkpt lat="38.40994" lon="-2.255255">
        <ele>674</ele>
        <time>2014-08-24T11:53:43.23</time>
      </trkpt>
      <trkpt lat="38.41003" lon="-2.255205">
        <ele>673</ele>
        <time>2014-08-24T11:53:44.22</time>
      </trkpt>
      <trkpt lat="38.410105" lon="-2.255165">
        <ele>673</ele>
        <time>2014-08-24T11:53:45.20</time>
      </trkpt>
      <trkpt lat="38.4102" lon="-2.255105">
        <ele>672</ele>
        <time>2014-08-24T11:53:46.17</time>
      </trkpt>
      <trkpt lat="38.41029" lon="-2.255055">
        <ele>671</ele>
        <time>2014-08-24T11:53:47.19</time>
      </trkpt>
      <trkpt lat="38.410395" lon="-2.255005">
        <ele>672</ele>
        <time>2014-08-24T11:53:48.16</time>
      </trkpt>
      <trkpt lat="38.41053" lon="-2.2548983333333332">
        <ele>670</ele>
        <time>2014-08-24T11:53:50.19</time>
      </trkpt>
      <trkpt lat="38.410615" lon="-2.254835">
        <ele>670</ele>
        <time>2014-08-24T11:53:51.18</time>
      </trkpt>
      <trkpt lat="38.410715" lon="-2.25475">
        <ele>668</ele>
        <time>2014-08-24T11:53:52.23</time>
      </trkpt>
      <trkpt lat="38.41084" lon="-2.25469">
        <ele>669</ele>
        <time>2014-08-24T11:53:53.24</time>
      </trkpt>
      <trkpt lat="38.41094" lon="-2.25462">
        <ele>669</ele>
        <time>2014-08-24T11:53:54.21</time>
      </trkpt>
      <trkpt lat="38.411035" lon="-2.2545450000000002">
        <ele>668</ele>
        <time>2014-08-24T11:53:55.23</time>
      </trkpt>
      <trkpt lat="38.41112" lon="-2.254385">
        <ele>666</ele>
        <time>2014-08-24T11:53:57.24</time>
      </trkpt>
      <trkpt lat="38.411175" lon="-2.25433">
        <ele>667</ele>
        <time>2014-08-24T11:53:58.23</time>
      </trkpt>
      <trkpt lat="38.41127" lon="-2.25426">
        <ele>668</ele>
        <time>2014-08-24T11:53:59.25</time>
      </trkpt>
      <trkpt lat="38.411355" lon="-2.254195">
        <ele>670</ele>
        <time>2014-08-24T11:54:00.25</time>
      </trkpt>
      <trkpt lat="38.411425" lon="-2.25415">
        <ele>668</ele>
        <time>2014-08-24T11:54:01.20</time>
      </trkpt>
      <trkpt lat="38.411515" lon="-2.2540633333333333">
        <ele>667</ele>
        <time>2014-08-24T11:54:02.22</time>
      </trkpt>
      <trkpt lat="38.41158333333333" lon="-2.25401">
        <ele>666</ele>
        <time>2014-08-24T11:54:03.23</time>
      </trkpt>
      <trkpt lat="38.41165" lon="-2.253945">
        <ele>666</ele>
        <time>2014-08-24T11:54:04.24</time>
      </trkpt>
      <trkpt lat="38.411785" lon="-2.253825">
        <ele>663</ele>
        <time>2014-08-24T11:54:06.25</time>
      </trkpt>
      <trkpt lat="38.41187" lon="-2.2537599999999998">
        <ele>663</ele>
        <time>2014-08-24T11:54:07.22</time>
      </trkpt>
      <trkpt lat="38.41196" lon="-2.253705">
        <ele>664</ele>
        <time>2014-08-24T11:54:08.19</time>
      </trkpt>
      <trkpt lat="38.412025" lon="-2.25366">
        <ele>663</ele>
        <time>2014-08-24T11:54:09.21</time>
      </trkpt>
      <trkpt lat="38.412115" lon="-2.253615">
        <ele>662</ele>
        <time>2014-08-24T11:54:10.21</time>
      </trkpt>
      <trkpt lat="38.4122" lon="-2.25357">
        <ele>662</ele>
        <time>2014-08-24T11:54:11.25</time>
      </trkpt>
      <trkpt lat="38.412275" lon="-2.2535">
        <ele>663</ele>
        <time>2014-08-24T11:54:12.20</time>
      </trkpt>
      <trkpt lat="38.41234333333333" lon="-2.25343">
        <ele>663</ele>
        <time>2014-08-24T11:54:13.21</time>
      </trkpt>
      <trkpt lat="38.41243" lon="-2.253346666666667">
        <ele>662</ele>
        <time>2014-08-24T11:54:14.28</time>
      </trkpt>
      <trkpt lat="38.412485" lon="-2.25326">
        <ele>663</ele>
        <time>2014-08-24T11:54:15.18</time>
      </trkpt>
      <trkpt lat="38.41258" lon="-2.25319">
        <ele>662</ele>
        <time>2014-08-24T11:54:16.19</time>
      </trkpt>
      <trkpt lat="38.41267" lon="-2.25312">
        <ele>663</ele>
        <time>2014-08-24T11:54:17.25</time>
      </trkpt>
      <trkpt lat="38.41277" lon="-2.253035">
        <ele>661</ele>
        <time>2014-08-24T11:54:18.20</time>
      </trkpt>
      <trkpt lat="38.41283" lon="-2.25297">
        <ele>663</ele>
        <time>2014-08-24T11:54:19.26</time>
      </trkpt>
      <trkpt lat="38.412935" lon="-2.25289">
        <ele>664</ele>
        <time>2014-08-24T11:54:21.20</time>
      </trkpt>
      <trkpt lat="38.413055" lon="-2.2528083333333333">
        <ele>664</ele>
        <time>2014-08-24T11:54:23.20</time>
      </trkpt>
      <trkpt lat="38.41313" lon="-2.252765">
        <ele>664</ele>
        <time>2014-08-24T11:54:24.24</time>
      </trkpt>
      <trkpt lat="38.413245" lon="-2.252695">
        <ele>664</ele>
        <time>2014-08-24T11:54:26.22</time>
      </trkpt>
      <trkpt lat="38.41332" lon="-2.252655">
        <ele>661</ele>
        <time>2014-08-24T11:54:27.22</time>
      </trkpt>
      <trkpt lat="38.413435" lon="-2.252575">
        <ele>661</ele>
        <time>2014-08-24T11:54:29.24</time>
      </trkpt>
      <trkpt lat="38.41351" lon="-2.252536666666667">
        <ele>662</ele>
        <time>2014-08-24T11:54:30.19</time>
      </trkpt>
      <trkpt lat="38.41358" lon="-2.25248">
        <ele>662</ele>
        <time>2014-08-24T11:54:31.38</time>
      </trkpt>
      <trkpt lat="38.41364" lon="-2.25243">
        <ele>663</ele>
        <time>2014-08-24T11:54:32.25</time>
      </trkpt>
      <trkpt lat="38.41373" lon="-2.252315">
        <ele>661</ele>
        <time>2014-08-24T11:54:34.20</time>
      </trkpt>
      <trkpt lat="38.41382" lon="-2.252175">
        <ele>662</ele>
        <time>2014-08-24T11:54:36.24</time>
      </trkpt>
      <trkpt lat="38.413935" lon="-2.252085">
        <ele>664</ele>
        <time>2014-08-24T11:54:38.24</time>
      </trkpt>
      <trkpt lat="38.414006666666666" lon="-2.25205">
        <ele>664</ele>
        <time>2014-08-24T11:54:39.23</time>
      </trkpt>
      <trkpt lat="38.414093333333334" lon="-2.252015">
        <ele>665</ele>
        <time>2014-08-24T11:54:40.20</time>
      </trkpt>
      <trkpt lat="38.414175" lon="-2.251975">
        <ele>665</ele>
        <time>2014-08-24T11:54:41.20</time>
      </trkpt>
      <trkpt lat="38.41426" lon="-2.25194">
        <ele>665</ele>
        <time>2014-08-24T11:54:42.23</time>
      </trkpt>
      <trkpt lat="38.41434" lon="-2.251885">
        <ele>666</ele>
        <time>2014-08-24T11:54:43.25</time>
      </trkpt>
      <trkpt lat="38.41441" lon="-2.25184">
        <ele>665</ele>
        <time>2014-08-24T11:54:44.25</time>
      </trkpt>
      <trkpt lat="38.41449" lon="-2.25182">
        <ele>663</ele>
        <time>2014-08-24T11:54:45.22</time>
      </trkpt>
      <trkpt lat="38.41462833333333" lon="-2.251715">
        <ele>661</ele>
        <time>2014-08-24T11:54:47.20</time>
      </trkpt>
      <trkpt lat="38.414725" lon="-2.2516583333333333">
        <ele>660</ele>
        <time>2014-08-24T11:54:49.25</time>
      </trkpt>
      <trkpt lat="38.414835" lon="-2.251655">
        <ele>661</ele>
        <time>2014-08-24T11:54:51.23</time>
      </trkpt>
      <trkpt lat="38.41489" lon="-2.25179">
        <ele>661</ele>
        <time>2014-08-24T11:54:52.21</time>
      </trkpt>
      <trkpt lat="38.41495" lon="-2.2519">
        <ele>660</ele>
        <time>2014-08-24T11:54:54.20</time>
      </trkpt>
      <trkpt lat="38.414985" lon="-2.252005">
        <ele>660</ele>
        <time>2014-08-24T11:54:55.20</time>
      </trkpt>
      <trkpt lat="38.415035" lon="-2.25217">
        <ele>661</ele>
        <time>2014-08-24T11:54:57.20</time>
      </trkpt>
      <trkpt lat="38.41505" lon="-2.252275">
        <ele>662</ele>
        <time>2014-08-24T11:54:58.23</time>
      </trkpt>
      <trkpt lat="38.41506" lon="-2.252361666666667">
        <ele>661</ele>
        <time>2014-08-24T11:54:59.24</time>
      </trkpt>
      <trkpt lat="38.415063333333336" lon="-2.2524533333333334">
        <ele>661</ele>
        <time>2014-08-24T11:55:00.33</time>
      </trkpt>
      <trkpt lat="38.41507" lon="-2.25256">
        <ele>661</ele>
        <time>2014-08-24T11:55:01.26</time>
      </trkpt>
      <trkpt lat="38.41505" lon="-2.252735">
        <ele>662</ele>
        <time>2014-08-24T11:55:03.20</time>
      </trkpt>
      <trkpt lat="38.415035" lon="-2.25289">
        <ele>657</ele>
        <time>2014-08-24T11:55:05.21</time>
      </trkpt>
      <trkpt lat="38.41500666666666" lon="-2.25298">
        <ele>659</ele>
        <time>2014-08-24T11:55:06.25</time>
      </trkpt>
      <trkpt lat="38.41496" lon="-2.25305">
        <ele>661</ele>
        <time>2014-08-24T11:55:07.25</time>
      </trkpt>
      <trkpt lat="38.414875" lon="-2.253195">
        <ele>660</ele>
        <time>2014-08-24T11:55:09.21</time>
      </trkpt>
      <trkpt lat="38.41478333333333" lon="-2.253315">
        <ele>660</ele>
        <time>2014-08-24T11:55:11.23</time>
      </trkpt>
      <trkpt lat="38.41468" lon="-2.25341">
        <ele>661</ele>
        <time>2014-08-24T11:55:13.25</time>
      </trkpt>
      <trkpt lat="38.41458" lon="-2.25351">
        <ele>661</ele>
        <time>2014-08-24T11:55:15.20</time>
      </trkpt>
      <trkpt lat="38.41447333333333" lon="-2.253585">
        <ele>663</ele>
        <time>2014-08-24T11:55:17.19</time>
      </trkpt>
      <trkpt lat="38.414365" lon="-2.253685">
        <ele>664</ele>
        <time>2014-08-24T11:55:19.25</time>
      </trkpt>
      <trkpt lat="38.41429" lon="-2.253795">
        <ele>663</ele>
        <time>2014-08-24T11:55:21.17</time>
      </trkpt>
      <trkpt lat="38.4142" lon="-2.25387">
        <ele>664</ele>
        <time>2014-08-24T11:55:23.19</time>
      </trkpt>
      <trkpt lat="38.414115" lon="-2.253945">
        <ele>666</ele>
        <time>2014-08-24T11:55:25.20</time>
      </trkpt>
      <trkpt lat="38.414035" lon="-2.254055">
        <ele>666</ele>
        <time>2014-08-24T11:55:27.15</time>
      </trkpt>
      <trkpt lat="38.41393" lon="-2.254165">
        <ele>667</ele>
        <time>2014-08-24T11:55:29.19</time>
      </trkpt>
      <trkpt lat="38.41385" lon="-2.254285">
        <ele>667</ele>
        <time>2014-08-24T11:55:31.19</time>
      </trkpt>
      <trkpt lat="38.41378" lon="-2.2544">
        <ele>668</ele>
        <time>2014-08-24T11:55:33.19</time>
      </trkpt>
      <trkpt lat="38.4137" lon="-2.254525">
        <ele>668</ele>
        <time>2014-08-24T11:55:35.20</time>
      </trkpt>
      <trkpt lat="38.413615" lon="-2.25464">
        <ele>668</ele>
        <time>2014-08-24T11:55:37.17</time>
      </trkpt>
      <trkpt lat="38.41353" lon="-2.25472">
        <ele>669</ele>
        <time>2014-08-24T11:55:39.16</time>
      </trkpt>
      <trkpt lat="38.41346" lon="-2.254855">
        <ele>671</ele>
        <time>2014-08-24T11:55:41.19</time>
      </trkpt>
      <trkpt lat="38.413385" lon="-2.254955">
        <ele>673</ele>
        <time>2014-08-24T11:55:43.21</time>
      </trkpt>
      <trkpt lat="38.41332" lon="-2.25509">
        <ele>674</ele>
        <time>2014-08-24T11:55:45.20</time>
      </trkpt>
      <trkpt lat="38.41326" lon="-2.255215">
        <ele>674</ele>
        <time>2014-08-24T11:55:47.25</time>
      </trkpt>
      <trkpt lat="38.413195" lon="-2.2553433333333333">
        <ele>674</ele>
        <time>2014-08-24T11:55:49.25</time>
      </trkpt>
      <trkpt lat="38.413135" lon="-2.25549">
        <ele>674</ele>
        <time>2014-08-24T11:55:51.26</time>
      </trkpt>
      <trkpt lat="38.413065" lon="-2.25564">
        <ele>674</ele>
        <time>2014-08-24T11:55:53.23</time>
      </trkpt>
      <trkpt lat="38.413005" lon="-2.25575">
        <ele>676</ele>
        <time>2014-08-24T11:55:55.25</time>
      </trkpt>
      <trkpt lat="38.412925" lon="-2.255885">
        <ele>677</ele>
        <time>2014-08-24T11:55:57.22</time>
      </trkpt>
      <trkpt lat="38.412885" lon="-2.25603">
        <ele>676</ele>
        <time>2014-08-24T11:55:59.23</time>
      </trkpt>
      <trkpt lat="38.412825" lon="-2.256175">
        <ele>676</ele>
        <time>2014-08-24T11:56:01.14</time>
      </trkpt>
      <trkpt lat="38.41277" lon="-2.256325">
        <ele>677</ele>
        <time>2014-08-24T11:56:03.19</time>
      </trkpt>
      <trkpt lat="38.412725" lon="-2.25647">
        <ele>676</ele>
        <time>2014-08-24T11:56:05.19</time>
      </trkpt>
      <trkpt lat="38.41268" lon="-2.256635">
        <ele>676</ele>
        <time>2014-08-24T11:56:07.19</time>
      </trkpt>
      <trkpt lat="38.41263" lon="-2.2568">
        <ele>675</ele>
        <time>2014-08-24T11:56:09.19</time>
      </trkpt>
      <trkpt lat="38.41258" lon="-2.256945">
        <ele>675</ele>
        <time>2014-08-24T11:56:11.19</time>
      </trkpt>
      <trkpt lat="38.412545" lon="-2.2571">
        <ele>676</ele>
        <time>2014-08-24T11:56:13.19</time>
      </trkpt>
      <trkpt lat="38.412495" lon="-2.25725">
        <ele>676</ele>
        <time>2014-08-24T11:56:15.15</time>
      </trkpt>
      <trkpt lat="38.412465" lon="-2.257425">
        <ele>676</ele>
        <time>2014-08-24T11:56:17.26</time>
      </trkpt>
      <trkpt lat="38.41243" lon="-2.25759">
        <ele>676</ele>
        <time>2014-08-24T11:56:19.40</time>
      </trkpt>
      <trkpt lat="38.4124" lon="-2.257755">
        <ele>677</ele>
        <time>2014-08-24T11:56:21.20</time>
      </trkpt>
      <trkpt lat="38.41237" lon="-2.25792">
        <ele>677</ele>
        <time>2014-08-24T11:56:23.26</time>
      </trkpt>
      <trkpt lat="38.412348333333334" lon="-2.25801">
        <ele>676</ele>
        <time>2014-08-24T11:56:24.22</time>
      </trkpt>
      <trkpt lat="38.412335" lon="-2.258105">
        <ele>677</ele>
        <time>2014-08-24T11:56:25.39</time>
      </trkpt>
      <trkpt lat="38.412315" lon="-2.2581933333333333">
        <ele>677</ele>
        <time>2014-08-24T11:56:26.23</time>
      </trkpt>
      <trkpt lat="38.4123" lon="-2.25836">
        <ele>675</ele>
        <time>2014-08-24T11:56:28.24</time>
      </trkpt>
      <trkpt lat="38.41227666666666" lon="-2.258455">
        <ele>675</ele>
        <time>2014-08-24T11:56:29.26</time>
      </trkpt>
      <trkpt lat="38.412255" lon="-2.2585533333333334">
        <ele>677</ele>
        <time>2014-08-24T11:56:30.26</time>
      </trkpt>
      <trkpt lat="38.412245" lon="-2.258655">
        <ele>677</ele>
        <time>2014-08-24T11:56:31.23</time>
      </trkpt>
      <trkpt lat="38.41223" lon="-2.25876">
        <ele>676</ele>
        <time>2014-08-24T11:56:32.20</time>
      </trkpt>
      <trkpt lat="38.412215" lon="-2.25886">
        <ele>676</ele>
        <time>2014-08-24T11:56:33.20</time>
      </trkpt>
      <trkpt lat="38.41221" lon="-2.25896">
        <ele>676</ele>
        <time>2014-08-24T11:56:34.20</time>
      </trkpt>
      <trkpt lat="38.4122" lon="-2.25906">
        <ele>676</ele>
        <time>2014-08-24T11:56:35.19</time>
      </trkpt>
      <trkpt lat="38.41219" lon="-2.259165">
        <ele>675</ele>
        <time>2014-08-24T11:56:36.19</time>
      </trkpt>
      <trkpt lat="38.41218833333333" lon="-2.259265">
        <ele>675</ele>
        <time>2014-08-24T11:56:37.19</time>
      </trkpt>
      <trkpt lat="38.41218833333333" lon="-2.259455">
        <ele>676</ele>
        <time>2014-08-24T11:56:39.24</time>
      </trkpt>
      <trkpt lat="38.412185" lon="-2.25956">
        <ele>675</ele>
        <time>2014-08-24T11:56:40.24</time>
      </trkpt>
      <trkpt lat="38.41218" lon="-2.25967">
        <ele>675</ele>
        <time>2014-08-24T11:56:41.25</time>
      </trkpt>
      <trkpt lat="38.41218" lon="-2.259775">
        <ele>676</ele>
        <time>2014-08-24T11:56:42.38</time>
      </trkpt>
      <trkpt lat="38.41218" lon="-2.25989">
        <ele>675</ele>
        <time>2014-08-24T11:56:43.21</time>
      </trkpt>
      <trkpt lat="38.41217" lon="-2.260005">
        <ele>675</ele>
        <time>2014-08-24T11:56:44.23</time>
      </trkpt>
      <trkpt lat="38.412155" lon="-2.260105">
        <ele>675</ele>
        <time>2014-08-24T11:56:45.24</time>
      </trkpt>
      <trkpt lat="38.41215" lon="-2.26022">
        <ele>675</ele>
        <time>2014-08-24T11:56:46.19</time>
      </trkpt>
      <trkpt lat="38.412145" lon="-2.260335">
        <ele>674</ele>
        <time>2014-08-24T11:56:47.20</time>
      </trkpt>
      <trkpt lat="38.412135" lon="-2.26044">
        <ele>674</ele>
        <time>2014-08-24T11:56:48.16</time>
      </trkpt>
      <trkpt lat="38.41213" lon="-2.260536666666667">
        <ele>673</ele>
        <time>2014-08-24T11:56:49.21</time>
      </trkpt>
      <trkpt lat="38.412106666666666" lon="-2.26065">
        <ele>674</ele>
        <time>2014-08-24T11:56:50.19</time>
      </trkpt>
      <trkpt lat="38.41208" lon="-2.26075">
        <ele>674</ele>
        <time>2014-08-24T11:56:51.19</time>
      </trkpt>
      <trkpt lat="38.41205" lon="-2.26084">
        <ele>673</ele>
        <time>2014-08-24T11:56:52.20</time>
      </trkpt>
      <trkpt lat="38.412015" lon="-2.260935">
        <ele>671</ele>
        <time>2014-08-24T11:56:53.21</time>
      </trkpt>
      <trkpt lat="38.411966666666665" lon="-2.26103">
        <ele>671</ele>
        <time>2014-08-24T11:56:54.20</time>
      </trkpt>
      <trkpt lat="38.411925" lon="-2.26112">
        <ele>670</ele>
        <time>2014-08-24T11:56:55.20</time>
      </trkpt>
      <trkpt lat="38.411881666666666" lon="-2.26122">
        <ele>669</ele>
        <time>2014-08-24T11:56:56.26</time>
      </trkpt>
      <trkpt lat="38.41187" lon="-2.26133">
        <ele>669</ele>
        <time>2014-08-24T11:56:57.24</time>
      </trkpt>
      <trkpt lat="38.41187" lon="-2.26144">
        <ele>669</ele>
        <time>2014-08-24T11:56:58.24</time>
      </trkpt>
      <trkpt lat="38.41188" lon="-2.261545">
        <ele>669</ele>
        <time>2014-08-24T11:56:59.25</time>
      </trkpt>
      <trkpt lat="38.411883333333336" lon="-2.26165">
        <ele>669</ele>
        <time>2014-08-24T11:57:00.35</time>
      </trkpt>
      <trkpt lat="38.411895" lon="-2.26175">
        <ele>670</ele>
        <time>2014-08-24T11:57:01.20</time>
      </trkpt>
      <trkpt lat="38.41189833333333" lon="-2.26185">
        <ele>672</ele>
        <time>2014-08-24T11:57:02.20</time>
      </trkpt>
      <trkpt lat="38.41192" lon="-2.261956666666667">
        <ele>672</ele>
        <time>2014-08-24T11:57:03.21</time>
      </trkpt>
      <trkpt lat="38.411935" lon="-2.26206">
        <ele>673</ele>
        <time>2014-08-24T11:57:04.26</time>
      </trkpt>
      <trkpt lat="38.41195" lon="-2.2621700000000002">
        <ele>674</ele>
        <time>2014-08-24T11:57:05.27</time>
      </trkpt>
      <trkpt lat="38.41196333333333" lon="-2.262275">
        <ele>672</ele>
        <time>2014-08-24T11:57:06.36</time>
      </trkpt>
      <trkpt lat="38.41198" lon="-2.262375">
        <ele>672</ele>
        <time>2014-08-24T11:57:07.20</time>
      </trkpt>
      <trkpt lat="38.41198" lon="-2.26248">
        <ele>671</ele>
        <time>2014-08-24T11:57:08.24</time>
      </trkpt>
      <trkpt lat="38.411975" lon="-2.262585">
        <ele>672</ele>
        <time>2014-08-24T11:57:09.20</time>
      </trkpt>
      <trkpt lat="38.41196" lon="-2.26268">
        <ele>672</ele>
        <time>2014-08-24T11:57:10.19</time>
      </trkpt>
      <trkpt lat="38.41195" lon="-2.262785">
        <ele>671</ele>
        <time>2014-08-24T11:57:11.26</time>
      </trkpt>
      <trkpt lat="38.411935" lon="-2.2628733333333333">
        <ele>673</ele>
        <time>2014-08-24T11:57:12.34</time>
      </trkpt>
      <trkpt lat="38.411925" lon="-2.263065">
        <ele>673</ele>
        <time>2014-08-24T11:57:14.25</time>
      </trkpt>
      <trkpt lat="38.41192" lon="-2.263165">
        <ele>673</ele>
        <time>2014-08-24T11:57:15.19</time>
      </trkpt>
      <trkpt lat="38.411925" lon="-2.26327">
        <ele>674</ele>
        <time>2014-08-24T11:57:16.23</time>
      </trkpt>
      <trkpt lat="38.41194" lon="-2.26336">
        <ele>675</ele>
        <time>2014-08-24T11:57:17.24</time>
      </trkpt>
      <trkpt lat="38.411985" lon="-2.26344">
        <ele>675</ele>
        <time>2014-08-24T11:57:18.19</time>
      </trkpt>
      <trkpt lat="38.412035" lon="-2.263516666666667">
        <ele>675</ele>
        <time>2014-08-24T11:57:19.25</time>
      </trkpt>
      <trkpt lat="38.412105" lon="-2.2635716666666665">
        <ele>675</ele>
        <time>2014-08-24T11:57:20.27</time>
      </trkpt>
      <trkpt lat="38.41217" lon="-2.263625">
        <ele>675</ele>
        <time>2014-08-24T11:57:21.22</time>
      </trkpt>
      <trkpt lat="38.412235" lon="-2.263675">
        <ele>675</ele>
        <time>2014-08-24T11:57:22.23</time>
      </trkpt>
      <trkpt lat="38.412295" lon="-2.263735">
        <ele>675</ele>
        <time>2014-08-24T11:57:23.22</time>
      </trkpt>
      <trkpt lat="38.412345" lon="-2.26388">
        <ele>675</ele>
        <time>2014-08-24T11:57:25.26</time>
      </trkpt>
      <trkpt lat="38.412365" lon="-2.264055">
        <ele>675</ele>
        <time>2014-08-24T11:57:27.21</time>
      </trkpt>
      <trkpt lat="38.412335" lon="-2.264155">
        <ele>675</ele>
        <time>2014-08-24T11:57:28.22</time>
      </trkpt>
      <trkpt lat="38.412315" lon="-2.264245">
        <ele>674</ele>
        <time>2014-08-24T11:57:29.25</time>
      </trkpt>
      <trkpt lat="38.41229" lon="-2.26433">
        <ele>675</ele>
        <time>2014-08-24T11:57:30.24</time>
      </trkpt>
      <trkpt lat="38.41227" lon="-2.26451">
        <ele>673</ele>
        <time>2014-08-24T11:57:32.21</time>
      </trkpt>
      <trkpt lat="38.41227" lon="-2.264605">
        <ele>673</ele>
        <time>2014-08-24T11:57:33.24</time>
      </trkpt>
      <trkpt lat="38.412285" lon="-2.264705">
        <ele>673</ele>
        <time>2014-08-24T11:57:34.20</time>
      </trkpt>
      <trkpt lat="38.4123" lon="-2.2648">
        <ele>673</ele>
        <time>2014-08-24T11:57:35.20</time>
      </trkpt>
      <trkpt lat="38.412335" lon="-2.264895">
        <ele>673</ele>
        <time>2014-08-24T11:57:36.20</time>
      </trkpt>
      <trkpt lat="38.412375" lon="-2.2649850000000002">
        <ele>673</ele>
        <time>2014-08-24T11:57:37.26</time>
      </trkpt>
      <trkpt lat="38.412405" lon="-2.265075">
        <ele>674</ele>
        <time>2014-08-24T11:57:38.26</time>
      </trkpt>
      <trkpt lat="38.41244" lon="-2.265165">
        <ele>675</ele>
        <time>2014-08-24T11:57:39.26</time>
      </trkpt>
      <trkpt lat="38.412485" lon="-2.265255">
        <ele>674</ele>
        <time>2014-08-24T11:57:40.23</time>
      </trkpt>
      <trkpt lat="38.41252" lon="-2.26534">
        <ele>675</ele>
        <time>2014-08-24T11:57:41.22</time>
      </trkpt>
      <trkpt lat="38.412565" lon="-2.26541">
        <ele>674</ele>
        <time>2014-08-24T11:57:42.24</time>
      </trkpt>
      <trkpt lat="38.41261" lon="-2.265495">
        <ele>674</ele>
        <time>2014-08-24T11:57:43.21</time>
      </trkpt>
      <trkpt lat="38.412643333333335" lon="-2.265585">
        <ele>674</ele>
        <time>2014-08-24T11:57:44.31</time>
      </trkpt>
      <trkpt lat="38.41268" lon="-2.26567">
        <ele>675</ele>
        <time>2014-08-24T11:57:45.26</time>
      </trkpt>
      <trkpt lat="38.41272" lon="-2.26576">
        <ele>675</ele>
        <time>2014-08-24T11:57:46.15</time>
      </trkpt>
      <trkpt lat="38.412785" lon="-2.2659233333333333">
        <ele>675</ele>
        <time>2014-08-24T11:57:48.23</time>
      </trkpt>
      <trkpt lat="38.412825" lon="-2.266105">
        <ele>675</ele>
        <time>2014-08-24T11:57:50.25</time>
      </trkpt>
      <trkpt lat="38.41281333333333" lon="-2.26628">
        <ele>676</ele>
        <time>2014-08-24T11:57:52.23</time>
      </trkpt>
      <trkpt lat="38.41279333333333" lon="-2.266375">
        <ele>675</ele>
        <time>2014-08-24T11:57:53.35</time>
      </trkpt>
      <trkpt lat="38.412745" lon="-2.26655">
        <ele>675</ele>
        <time>2014-08-24T11:57:55.24</time>
      </trkpt>
      <trkpt lat="38.412705" lon="-2.2666383333333333">
        <ele>675</ele>
        <time>2014-08-24T11:57:56.19</time>
      </trkpt>
      <trkpt lat="38.41268" lon="-2.26673">
        <ele>674</ele>
        <time>2014-08-24T11:57:57.26</time>
      </trkpt>
      <trkpt lat="38.412655" lon="-2.2668116666666664">
        <ele>673</ele>
        <time>2014-08-24T11:57:58.20</time>
      </trkpt>
      <trkpt lat="38.412636666666664" lon="-2.267">
        <ele>673</ele>
        <time>2014-08-24T11:58:00.19</time>
      </trkpt>
      <trkpt lat="38.412665" lon="-2.26709">
        <ele>673</ele>
        <time>2014-08-24T11:58:01.19</time>
      </trkpt>
      <trkpt lat="38.412705" lon="-2.267175">
        <ele>672</ele>
        <time>2014-08-24T11:58:02.21</time>
      </trkpt>
      <trkpt lat="38.41275" lon="-2.2672566666666665">
        <ele>672</ele>
        <time>2014-08-24T11:58:03.20</time>
      </trkpt>
      <trkpt lat="38.41279333333333" lon="-2.267335">
        <ele>672</ele>
        <time>2014-08-24T11:58:04.20</time>
      </trkpt>
      <trkpt lat="38.412845" lon="-2.26741">
        <ele>673</ele>
        <time>2014-08-24T11:58:05.20</time>
      </trkpt>
      <trkpt lat="38.41289" lon="-2.26748">
        <ele>673</ele>
        <time>2014-08-24T11:58:06.20</time>
      </trkpt>
      <trkpt lat="38.41297" lon="-2.26764">
        <ele>673</ele>
        <time>2014-08-24T11:58:08.20</time>
      </trkpt>
      <trkpt lat="38.412995" lon="-2.2677300000000002">
        <ele>674</ele>
        <time>2014-08-24T11:58:09.25</time>
      </trkpt>
      <trkpt lat="38.412951666666665" lon="-2.26789">
        <ele>677</ele>
        <time>2014-08-24T11:58:11.26</time>
      </trkpt>
      <trkpt lat="38.41291" lon="-2.267985">
        <ele>678</ele>
        <time>2014-08-24T11:58:12.23</time>
      </trkpt>
      <trkpt lat="38.41286" lon="-2.26813">
        <ele>675</ele>
        <time>2014-08-24T11:58:14.25</time>
      </trkpt>
      <trkpt lat="38.412825" lon="-2.268225">
        <ele>675</ele>
        <time>2014-08-24T11:58:15.21</time>
      </trkpt>
      <trkpt lat="38.41281" lon="-2.268325">
        <ele>674</ele>
        <time>2014-08-24T11:58:16.25</time>
      </trkpt>
      <trkpt lat="38.412825" lon="-2.26851">
        <ele>674</ele>
        <time>2014-08-24T11:58:18.21</time>
      </trkpt>
      <trkpt lat="38.41284" lon="-2.268615">
        <ele>673</ele>
        <time>2014-08-24T11:58:19.26</time>
      </trkpt>
      <trkpt lat="38.41286" lon="-2.26871">
        <ele>674</ele>
        <time>2014-08-24T11:58:20.20</time>
      </trkpt>
      <trkpt lat="38.412866666666666" lon="-2.26881">
        <ele>674</ele>
        <time>2014-08-24T11:58:21.23</time>
      </trkpt>
      <trkpt lat="38.41289" lon="-2.268905">
        <ele>674</ele>
        <time>2014-08-24T11:58:22.25</time>
      </trkpt>
      <trkpt lat="38.412905" lon="-2.268995">
        <ele>673</ele>
        <time>2014-08-24T11:58:23.25</time>
      </trkpt>
      <trkpt lat="38.412945" lon="-2.269175">
        <ele>673</ele>
        <time>2014-08-24T11:58:25.22</time>
      </trkpt>
      <trkpt lat="38.41294833333333" lon="-2.26929">
        <ele>674</ele>
        <time>2014-08-24T11:58:26.23</time>
      </trkpt>
      <trkpt lat="38.412965" lon="-2.2694">
        <ele>674</ele>
        <time>2014-08-24T11:58:27.20</time>
      </trkpt>
      <trkpt lat="38.412965" lon="-2.269495">
        <ele>674</ele>
        <time>2014-08-24T11:58:28.18</time>
      </trkpt>
      <trkpt lat="38.41297" lon="-2.26959">
        <ele>675</ele>
        <time>2014-08-24T11:58:29.26</time>
      </trkpt>
      <trkpt lat="38.412995" lon="-2.269685">
        <ele>674</ele>
        <time>2014-08-24T11:58:30.25</time>
      </trkpt>
      <trkpt lat="38.413015" lon="-2.2698">
        <ele>675</ele>
        <time>2014-08-24T11:58:31.26</time>
      </trkpt>
      <trkpt lat="38.41301833333333" lon="-2.2699">
        <ele>675</ele>
        <time>2014-08-24T11:58:32.23</time>
      </trkpt>
      <trkpt lat="38.413035" lon="-2.27001">
        <ele>676</ele>
        <time>2014-08-24T11:58:33.33</time>
      </trkpt>
      <trkpt lat="38.413055" lon="-2.27012">
        <ele>675</ele>
        <time>2014-08-24T11:58:34.20</time>
      </trkpt>
      <trkpt lat="38.413065" lon="-2.270226666666667">
        <ele>675</ele>
        <time>2014-08-24T11:58:35.25</time>
      </trkpt>
      <trkpt lat="38.41308" lon="-2.270335">
        <ele>676</ele>
        <time>2014-08-24T11:58:36.29</time>
      </trkpt>
      <trkpt lat="38.4131" lon="-2.27045">
        <ele>676</ele>
        <time>2014-08-24T11:58:37.26</time>
      </trkpt>
      <trkpt lat="38.413115" lon="-2.270555">
        <ele>675</ele>
        <time>2014-08-24T11:58:38.26</time>
      </trkpt>
      <trkpt lat="38.41313" lon="-2.27065">
        <ele>675</ele>
        <time>2014-08-24T11:58:39.37</time>
      </trkpt>
      <trkpt lat="38.413145" lon="-2.27075">
        <ele>675</ele>
        <time>2014-08-24T11:58:40.20</time>
      </trkpt>
      <trkpt lat="38.413165" lon="-2.2708483333333334">
        <ele>674</ele>
        <time>2014-08-24T11:58:41.20</time>
      </trkpt>
      <trkpt lat="38.413185" lon="-2.27096">
        <ele>673</ele>
        <time>2014-08-24T11:58:42.21</time>
      </trkpt>
      <trkpt lat="38.413195" lon="-2.271065">
        <ele>673</ele>
        <time>2014-08-24T11:58:43.26</time>
      </trkpt>
      <trkpt lat="38.413215" lon="-2.27116">
        <ele>673</ele>
        <time>2014-08-24T11:58:44.20</time>
      </trkpt>
      <trkpt lat="38.413225" lon="-2.271275">
        <ele>673</ele>
        <time>2014-08-24T11:58:45.21</time>
      </trkpt>
      <trkpt lat="38.413245" lon="-2.27137">
        <ele>672</ele>
        <time>2014-08-24T11:58:46.18</time>
      </trkpt>
      <trkpt lat="38.41327" lon="-2.2714683333333334">
        <ele>671</ele>
        <time>2014-08-24T11:58:47.22</time>
      </trkpt>
      <trkpt lat="38.41328" lon="-2.27157">
        <ele>671</ele>
        <time>2014-08-24T11:58:48.20</time>
      </trkpt>
      <trkpt lat="38.4133" lon="-2.271675">
        <ele>670</ele>
        <time>2014-08-24T11:58:49.26</time>
      </trkpt>
      <trkpt lat="38.41332" lon="-2.27178">
        <ele>671</ele>
        <time>2014-08-24T11:58:50.23</time>
      </trkpt>
      <trkpt lat="38.413315" lon="-2.27187">
        <ele>672</ele>
        <time>2014-08-24T11:58:51.19</time>
      </trkpt>
      <trkpt lat="38.413325" lon="-2.271975">
        <ele>673</ele>
        <time>2014-08-24T11:58:52.21</time>
      </trkpt>
      <trkpt lat="38.413335000000004" lon="-2.272065">
        <ele>674</ele>
        <time>2014-08-24T11:58:53.24</time>
      </trkpt>
      <trkpt lat="38.413345" lon="-2.272165">
        <ele>675</ele>
        <time>2014-08-24T11:58:54.25</time>
      </trkpt>
      <trkpt lat="38.41337" lon="-2.27227">
        <ele>674</ele>
        <time>2014-08-24T11:58:55.21</time>
      </trkpt>
      <trkpt lat="38.413395" lon="-2.27237">
        <ele>674</ele>
        <time>2014-08-24T11:58:56.36</time>
      </trkpt>
      <trkpt lat="38.41341833333333" lon="-2.272465">
        <ele>674</ele>
        <time>2014-08-24T11:58:57.23</time>
      </trkpt>
      <trkpt lat="38.413445" lon="-2.27256">
        <ele>675</ele>
        <time>2014-08-24T11:58:58.20</time>
      </trkpt>
      <trkpt lat="38.413485" lon="-2.27265">
        <ele>675</ele>
        <time>2014-08-24T11:58:59.28</time>
      </trkpt>
      <trkpt lat="38.413525" lon="-2.27275">
        <ele>674</ele>
        <time>2014-08-24T11:59:00.24</time>
      </trkpt>
      <trkpt lat="38.41357" lon="-2.2728450000000002">
        <ele>674</ele>
        <time>2014-08-24T11:59:01.19</time>
      </trkpt>
      <trkpt lat="38.413615" lon="-2.27294">
        <ele>674</ele>
        <time>2014-08-24T11:59:02.40</time>
      </trkpt>
      <trkpt lat="38.41366" lon="-2.27303">
        <ele>674</ele>
        <time>2014-08-24T11:59:03.20</time>
      </trkpt>
      <trkpt lat="38.41371" lon="-2.27312">
        <ele>674</ele>
        <time>2014-08-24T11:59:04.22</time>
      </trkpt>
      <trkpt lat="38.413765" lon="-2.27321">
        <ele>674</ele>
        <time>2014-08-24T11:59:05.19</time>
      </trkpt>
      <trkpt lat="38.413815" lon="-2.2733">
        <ele>674</ele>
        <time>2014-08-24T11:59:06.23</time>
      </trkpt>
      <trkpt lat="38.41386833333333" lon="-2.27339">
        <ele>674</ele>
        <time>2014-08-24T11:59:07.22</time>
      </trkpt>
      <trkpt lat="38.413925" lon="-2.273465">
        <ele>674</ele>
        <time>2014-08-24T11:59:08.25</time>
      </trkpt>
      <trkpt lat="38.413995" lon="-2.273545">
        <ele>673</ele>
        <time>2014-08-24T11:59:09.25</time>
      </trkpt>
      <trkpt lat="38.41406" lon="-2.27361">
        <ele>673</ele>
        <time>2014-08-24T11:59:10.20</time>
      </trkpt>
      <trkpt lat="38.414135" lon="-2.273675">
        <ele>673</ele>
        <time>2014-08-24T11:59:11.20</time>
      </trkpt>
      <trkpt lat="38.4142" lon="-2.273735">
        <ele>674</ele>
        <time>2014-08-24T11:59:12.21</time>
      </trkpt>
      <trkpt lat="38.41426" lon="-2.2738">
        <ele>675</ele>
        <time>2014-08-24T11:59:13.23</time>
      </trkpt>
      <trkpt lat="38.41433" lon="-2.27386">
        <ele>674</ele>
        <time>2014-08-24T11:59:14.32</time>
      </trkpt>
      <trkpt lat="38.4144" lon="-2.2739133333333332">
        <ele>674</ele>
        <time>2014-08-24T11:59:15.17</time>
      </trkpt>
      <trkpt lat="38.41447" lon="-2.27397">
        <ele>674</ele>
        <time>2014-08-24T11:59:16.25</time>
      </trkpt>
      <trkpt lat="38.41453666666666" lon="-2.274025">
        <ele>673</ele>
        <time>2014-08-24T11:59:17.21</time>
      </trkpt>
      <trkpt lat="38.414605" lon="-2.2740733333333334">
        <ele>673</ele>
        <time>2014-08-24T11:59:18.21</time>
      </trkpt>
      <trkpt lat="38.41467" lon="-2.27413">
        <ele>673</ele>
        <time>2014-08-24T11:59:19.30</time>
      </trkpt>
      <trkpt lat="38.41475" lon="-2.2741833333333332">
        <ele>671</ele>
        <time>2014-08-24T11:59:20.23</time>
      </trkpt>
      <trkpt lat="38.414805" lon="-2.2742466666666665">
        <ele>672</ele>
        <time>2014-08-24T11:59:21.24</time>
      </trkpt>
      <trkpt lat="38.41487" lon="-2.274305">
        <ele>672</ele>
        <time>2014-08-24T11:59:22.24</time>
      </trkpt>
      <trkpt lat="38.41493" lon="-2.274375">
        <ele>675</ele>
        <time>2014-08-24T11:59:23.25</time>
      </trkpt>
      <trkpt lat="38.414991666666666" lon="-2.274435">
        <ele>674</ele>
        <time>2014-08-24T11:59:24.21</time>
      </trkpt>
      <trkpt lat="38.415061666666666" lon="-2.27449">
        <ele>674</ele>
        <time>2014-08-24T11:59:25.19</time>
      </trkpt>
      <trkpt lat="38.415175" lon="-2.27458">
        <ele>675</ele>
        <time>2014-08-24T11:59:27.19</time>
      </trkpt>
      <trkpt lat="38.41523" lon="-2.27465">
        <ele>675</ele>
        <time>2014-08-24T11:59:28.19</time>
      </trkpt>
      <trkpt lat="38.415285" lon="-2.274725">
        <ele>675</ele>
        <time>2014-08-24T11:59:29.23</time>
      </trkpt>
      <trkpt lat="38.415365" lon="-2.27487">
        <ele>676</ele>
        <time>2014-08-24T11:59:31.23</time>
      </trkpt>
      <trkpt lat="38.415415" lon="-2.27496">
        <ele>676</ele>
        <time>2014-08-24T11:59:32.21</time>
      </trkpt>
      <trkpt lat="38.415465" lon="-2.27504">
        <ele>676</ele>
        <time>2014-08-24T11:59:33.24</time>
      </trkpt>
      <trkpt lat="38.41551" lon="-2.2751200000000003">
        <ele>675</ele>
        <time>2014-08-24T11:59:34.24</time>
      </trkpt>
      <trkpt lat="38.41556" lon="-2.275195">
        <ele>675</ele>
        <time>2014-08-24T11:59:35.25</time>
      </trkpt>
      <trkpt lat="38.41561" lon="-2.275275">
        <ele>675</ele>
        <time>2014-08-24T11:59:36.33</time>
      </trkpt>
      <trkpt lat="38.415655" lon="-2.275365">
        <ele>676</ele>
        <time>2014-08-24T11:59:37.22</time>
      </trkpt>
      <trkpt lat="38.4157" lon="-2.275455">
        <ele>677</ele>
        <time>2014-08-24T11:59:38.20</time>
      </trkpt>
      <trkpt lat="38.415746666666664" lon="-2.275545">
        <ele>678</ele>
        <time>2014-08-24T11:59:39.23</time>
      </trkpt>
      <trkpt lat="38.4158" lon="-2.27562">
        <ele>678</ele>
        <time>2014-08-24T11:59:40.24</time>
      </trkpt>
      <trkpt lat="38.415855" lon="-2.275705">
        <ele>678</ele>
        <time>2014-08-24T11:59:41.25</time>
      </trkpt>
      <trkpt lat="38.415925" lon="-2.27581">
        <ele>677</ele>
        <time>2014-08-24T11:59:42.24</time>
      </trkpt>
      <trkpt lat="38.415976666666666" lon="-2.275875">
        <ele>677</ele>
        <time>2014-08-24T11:59:43.26</time>
      </trkpt>
      <trkpt lat="38.416015" lon="-2.2759633333333333">
        <ele>677</ele>
        <time>2014-08-24T11:59:44.22</time>
      </trkpt>
      <trkpt lat="38.41606" lon="-2.2760416666666665">
        <ele>677</ele>
        <time>2014-08-24T11:59:45.19</time>
      </trkpt>
      <trkpt lat="38.41612" lon="-2.276125">
        <ele>677</ele>
        <time>2014-08-24T11:59:46.18</time>
      </trkpt>
      <trkpt lat="38.416175" lon="-2.27621">
        <ele>676</ele>
        <time>2014-08-24T11:59:47.18</time>
      </trkpt>
      <trkpt lat="38.41623" lon="-2.27629">
        <ele>677</ele>
        <time>2014-08-24T11:59:48.18</time>
      </trkpt>
      <trkpt lat="38.416295" lon="-2.27636">
        <ele>675</ele>
        <time>2014-08-24T11:59:49.20</time>
      </trkpt>
      <trkpt lat="38.416355" lon="-2.27642">
        <ele>676</ele>
        <time>2014-08-24T11:59:50.18</time>
      </trkpt>
      <trkpt lat="38.41641" lon="-2.276485">
        <ele>675</ele>
        <time>2014-08-24T11:59:51.19</time>
      </trkpt>
      <trkpt lat="38.416475" lon="-2.276535">
        <ele>674</ele>
        <time>2014-08-24T11:59:52.21</time>
      </trkpt>
      <trkpt lat="38.416595" lon="-2.27663">
        <ele>674</ele>
        <time>2014-08-24T11:59:54.24</time>
      </trkpt>
      <trkpt lat="38.41666" lon="-2.276675">
        <ele>674</ele>
        <time>2014-08-24T11:59:55.25</time>
      </trkpt>
      <trkpt lat="38.41672" lon="-2.276725">
        <ele>673</ele>
        <time>2014-08-24T11:59:56.21</time>
      </trkpt>
      <trkpt lat="38.41678" lon="-2.27678">
        <ele>675</ele>
        <time>2014-08-24T11:59:57.22</time>
      </trkpt>
      <trkpt lat="38.41689" lon="-2.2769">
        <ele>675</ele>
        <time>2014-08-24T11:59:59.23</time>
      </trkpt>
      <trkpt lat="38.41698" lon="-2.2770266666666665">
        <ele>677</ele>
        <time>2014-08-24T12:00:01.24</time>
      </trkpt>
      <trkpt lat="38.417025" lon="-2.27711">
        <ele>676</ele>
        <time>2014-08-24T12:00:02.21</time>
      </trkpt>
      <trkpt lat="38.417045" lon="-2.277205">
        <ele>678</ele>
        <time>2014-08-24T12:00:03.22</time>
      </trkpt>
      <trkpt lat="38.417075" lon="-2.2772966666666665">
        <ele>677</ele>
        <time>2014-08-24T12:00:04.19</time>
      </trkpt>
      <trkpt lat="38.4171" lon="-2.2773916666666665">
        <ele>677</ele>
        <time>2014-08-24T12:00:05.19</time>
      </trkpt>
      <trkpt lat="38.41711" lon="-2.277505">
        <ele>678</ele>
        <time>2014-08-24T12:00:06.23</time>
      </trkpt>
      <trkpt lat="38.41714" lon="-2.277595">
        <ele>678</ele>
        <time>2014-08-24T12:00:07.24</time>
      </trkpt>
      <trkpt lat="38.41717" lon="-2.277695">
        <ele>677</ele>
        <time>2014-08-24T12:00:08.21</time>
      </trkpt>
      <trkpt lat="38.417188333333335" lon="-2.277785">
        <ele>676</ele>
        <time>2014-08-24T12:00:09.22</time>
      </trkpt>
      <trkpt lat="38.417225" lon="-2.277875">
        <ele>676</ele>
        <time>2014-08-24T12:00:10.29</time>
      </trkpt>
      <trkpt lat="38.41726" lon="-2.27797">
        <ele>678</ele>
        <time>2014-08-24T12:00:11.20</time>
      </trkpt>
      <trkpt lat="38.41731" lon="-2.278055">
        <ele>677</ele>
        <time>2014-08-24T12:00:12.22</time>
      </trkpt>
      <trkpt lat="38.417355" lon="-2.27814">
        <ele>676</ele>
        <time>2014-08-24T12:00:13.25</time>
      </trkpt>
      <trkpt lat="38.417395" lon="-2.278235">
        <ele>677</ele>
        <time>2014-08-24T12:00:14.26</time>
      </trkpt>
      <trkpt lat="38.41744" lon="-2.278325">
        <ele>679</ele>
        <time>2014-08-24T12:00:15.22</time>
      </trkpt>
      <trkpt lat="38.41748" lon="-2.2784050000000002">
        <ele>678</ele>
        <time>2014-08-24T12:00:16.22</time>
      </trkpt>
      <trkpt lat="38.417525" lon="-2.278495">
        <ele>678</ele>
        <time>2014-08-24T12:00:17.37</time>
      </trkpt>
      <trkpt lat="38.417566666666666" lon="-2.278575">
        <ele>678</ele>
        <time>2014-08-24T12:00:18.19</time>
      </trkpt>
      <trkpt lat="38.417615" lon="-2.2786633333333333">
        <ele>678</ele>
        <time>2014-08-24T12:00:19.24</time>
      </trkpt>
      <trkpt lat="38.41765" lon="-2.27876">
        <ele>677</ele>
        <time>2014-08-24T12:00:20.25</time>
      </trkpt>
      <trkpt lat="38.417695" lon="-2.278855">
        <ele>677</ele>
        <time>2014-08-24T12:00:21.22</time>
      </trkpt>
      <trkpt lat="38.417735" lon="-2.27894">
        <ele>676</ele>
        <time>2014-08-24T12:00:22.23</time>
      </trkpt>
      <trkpt lat="38.41777" lon="-2.279035">
        <ele>675</ele>
        <time>2014-08-24T12:00:23.24</time>
      </trkpt>
      <trkpt lat="38.41779" lon="-2.27914">
        <ele>675</ele>
        <time>2014-08-24T12:00:24.19</time>
      </trkpt>
      <trkpt lat="38.417805" lon="-2.27925">
        <ele>674</ele>
        <time>2014-08-24T12:00:25.21</time>
      </trkpt>
      <trkpt lat="38.41779" lon="-2.279355">
        <ele>675</ele>
        <time>2014-08-24T12:00:26.25</time>
      </trkpt>
      <trkpt lat="38.417785" lon="-2.27947">
        <ele>676</ele>
        <time>2014-08-24T12:00:27.22</time>
      </trkpt>
      <trkpt lat="38.417775" lon="-2.27956">
        <ele>676</ele>
        <time>2014-08-24T12:00:28.22</time>
      </trkpt>
      <trkpt lat="38.417765" lon="-2.27966">
        <ele>677</ele>
        <time>2014-08-24T12:00:29.23</time>
      </trkpt>
      <trkpt lat="38.41775" lon="-2.27977">
        <ele>675</ele>
        <time>2014-08-24T12:00:30.23</time>
      </trkpt>
      <trkpt lat="38.417745" lon="-2.279875">
        <ele>675</ele>
        <time>2014-08-24T12:00:31.21</time>
      </trkpt>
      <trkpt lat="38.41773" lon="-2.27997">
        <ele>676</ele>
        <time>2014-08-24T12:00:32.23</time>
      </trkpt>
      <trkpt lat="38.41771833333333" lon="-2.2800833333333332">
        <ele>676</ele>
        <time>2014-08-24T12:00:33.19</time>
      </trkpt>
      <trkpt lat="38.417735" lon="-2.28018">
        <ele>676</ele>
        <time>2014-08-24T12:00:34.24</time>
      </trkpt>
      <trkpt lat="38.417765" lon="-2.28028">
        <ele>674</ele>
        <time>2014-08-24T12:00:35.23</time>
      </trkpt>
      <trkpt lat="38.41779" lon="-2.28038">
        <ele>673</ele>
        <time>2014-08-24T12:00:36.24</time>
      </trkpt>
      <trkpt lat="38.41782" lon="-2.280475">
        <ele>673</ele>
        <time>2014-08-24T12:00:37.25</time>
      </trkpt>
      <trkpt lat="38.417855" lon="-2.28057">
        <ele>673</ele>
        <time>2014-08-24T12:00:38.19</time>
      </trkpt>
      <trkpt lat="38.417876666666665" lon="-2.280665">
        <ele>674</ele>
        <time>2014-08-24T12:00:39.22</time>
      </trkpt>
      <trkpt lat="38.41791" lon="-2.280755">
        <ele>673</ele>
        <time>2014-08-24T12:00:40.22</time>
      </trkpt>
      <trkpt lat="38.417955" lon="-2.2808450000000002">
        <ele>672</ele>
        <time>2014-08-24T12:00:41.23</time>
      </trkpt>
      <trkpt lat="38.418" lon="-2.280935">
        <ele>674</ele>
        <time>2014-08-24T12:00:42.24</time>
      </trkpt>
      <trkpt lat="38.41805" lon="-2.281015">
        <ele>675</ele>
        <time>2014-08-24T12:00:43.26</time>
      </trkpt>
      <trkpt lat="38.41811" lon="-2.281095">
        <ele>675</ele>
        <time>2014-08-24T12:00:44.22</time>
      </trkpt>
      <trkpt lat="38.41816" lon="-2.2811733333333333">
        <ele>676</ele>
        <time>2014-08-24T12:00:45.22</time>
      </trkpt>
      <trkpt lat="38.418215000000004" lon="-2.281265">
        <ele>675</ele>
        <time>2014-08-24T12:00:46.17</time>
      </trkpt>
      <trkpt lat="38.41827" lon="-2.281355">
        <ele>676</ele>
        <time>2014-08-24T12:00:47.23</time>
      </trkpt>
      <trkpt lat="38.41832" lon="-2.2814266666666665">
        <ele>678</ele>
        <time>2014-08-24T12:00:48.24</time>
      </trkpt>
      <trkpt lat="38.41838" lon="-2.281505">
        <ele>678</ele>
        <time>2014-08-24T12:00:49.25</time>
      </trkpt>
      <trkpt lat="38.418455" lon="-2.28157">
        <ele>674</ele>
        <time>2014-08-24T12:00:50.24</time>
      </trkpt>
      <trkpt lat="38.4185" lon="-2.2816533333333333">
        <ele>676</ele>
        <time>2014-08-24T12:00:51.21</time>
      </trkpt>
      <trkpt lat="38.41854" lon="-2.28175">
        <ele>676</ele>
        <time>2014-08-24T12:00:52.21</time>
      </trkpt>
      <trkpt lat="38.418585" lon="-2.28184">
        <ele>672</ele>
        <time>2014-08-24T12:00:53.23</time>
      </trkpt>
      <trkpt lat="38.418595" lon="-2.281955">
        <ele>672</ele>
        <time>2014-08-24T12:00:54.23</time>
      </trkpt>
      <trkpt lat="38.41853" lon="-2.2821350000000002">
        <ele>673</ele>
        <time>2014-08-24T12:00:56.37</time>
      </trkpt>
      <trkpt lat="38.41847" lon="-2.28221">
        <ele>673</ele>
        <time>2014-08-24T12:00:57.23</time>
      </trkpt>
      <trkpt lat="38.418395" lon="-2.282261666666667">
        <ele>675</ele>
        <time>2014-08-24T12:00:58.19</time>
      </trkpt>
      <trkpt lat="38.41832333333333" lon="-2.2823233333333333">
        <ele>674</ele>
        <time>2014-08-24T12:00:59.22</time>
      </trkpt>
      <trkpt lat="38.41825" lon="-2.28238">
        <ele>675</ele>
        <time>2014-08-24T12:01:00.23</time>
      </trkpt>
      <trkpt lat="38.418185" lon="-2.2824400000000002">
        <ele>675</ele>
        <time>2014-08-24T12:01:01.24</time>
      </trkpt>
      <trkpt lat="38.418125" lon="-2.282505">
        <ele>673</ele>
        <time>2014-08-24T12:01:02.38</time>
      </trkpt>
      <trkpt lat="38.41806" lon="-2.282565">
        <ele>673</ele>
        <time>2014-08-24T12:01:03.25</time>
      </trkpt>
      <trkpt lat="38.418005" lon="-2.28264">
        <ele>673</ele>
        <time>2014-08-24T12:01:04.23</time>
      </trkpt>
      <trkpt lat="38.417955" lon="-2.28274">
        <ele>672</ele>
        <time>2014-08-24T12:01:05.20</time>
      </trkpt>
      <trkpt lat="38.41791" lon="-2.28284">
        <ele>672</ele>
        <time>2014-08-24T12:01:06.23</time>
      </trkpt>
      <trkpt lat="38.417865" lon="-2.282945">
        <ele>672</ele>
        <time>2014-08-24T12:01:07.24</time>
      </trkpt>
      <trkpt lat="38.41782" lon="-2.283045">
        <ele>673</ele>
        <time>2014-08-24T12:01:08.25</time>
      </trkpt>
      <trkpt lat="38.417775" lon="-2.28314">
        <ele>674</ele>
        <time>2014-08-24T12:01:09.25</time>
      </trkpt>
      <trkpt lat="38.417735" lon="-2.28325">
        <ele>674</ele>
        <time>2014-08-24T12:01:10.22</time>
      </trkpt>
      <trkpt lat="38.417705" lon="-2.2833550000000002">
        <ele>673</ele>
        <time>2014-08-24T12:01:11.20</time>
      </trkpt>
      <trkpt lat="38.41766" lon="-2.28346">
        <ele>673</ele>
        <time>2014-08-24T12:01:12.23</time>
      </trkpt>
      <trkpt lat="38.41762" lon="-2.28357">
        <ele>672</ele>
        <time>2014-08-24T12:01:13.24</time>
      </trkpt>
      <trkpt lat="38.417575" lon="-2.2836683333333334">
        <ele>672</ele>
        <time>2014-08-24T12:01:14.37</time>
      </trkpt>
      <trkpt lat="38.417535" lon="-2.2837783333333332">
        <ele>671</ele>
        <time>2014-08-24T12:01:15.20</time>
      </trkpt>
      <trkpt lat="38.417495" lon="-2.28388">
        <ele>672</ele>
        <time>2014-08-24T12:01:16.22</time>
      </trkpt>
      <trkpt lat="38.417465" lon="-2.28399">
        <ele>673</ele>
        <time>2014-08-24T12:01:17.19</time>
      </trkpt>
      <trkpt lat="38.41744" lon="-2.284105">
        <ele>672</ele>
        <time>2014-08-24T12:01:18.19</time>
      </trkpt>
      <trkpt lat="38.417435" lon="-2.2842233333333333">
        <ele>672</ele>
        <time>2014-08-24T12:01:19.18</time>
      </trkpt>
      <trkpt lat="38.417435" lon="-2.2843400000000003">
        <ele>672</ele>
        <time>2014-08-24T12:01:20.19</time>
      </trkpt>
      <trkpt lat="38.417435" lon="-2.28446">
        <ele>672</ele>
        <time>2014-08-24T12:01:21.19</time>
      </trkpt>
      <trkpt lat="38.417455" lon="-2.28457">
        <ele>671</ele>
        <time>2014-08-24T12:01:22.19</time>
      </trkpt>
      <trkpt lat="38.417505" lon="-2.284665">
        <ele>671</ele>
        <time>2014-08-24T12:01:23.19</time>
      </trkpt>
      <trkpt lat="38.41756" lon="-2.284745">
        <ele>671</ele>
        <time>2014-08-24T12:01:24.19</time>
      </trkpt>
      <trkpt lat="38.41763" lon="-2.2848100000000002">
        <ele>671</ele>
        <time>2014-08-24T12:01:25.31</time>
      </trkpt>
      <trkpt lat="38.4177" lon="-2.2848683333333333">
        <ele>671</ele>
        <time>2014-08-24T12:01:26.19</time>
      </trkpt>
      <trkpt lat="38.417765" lon="-2.284935">
        <ele>671</ele>
        <time>2014-08-24T12:01:27.19</time>
      </trkpt>
      <trkpt lat="38.417815" lon="-2.285">
        <ele>671</ele>
        <time>2014-08-24T12:01:28.19</time>
      </trkpt>
      <trkpt lat="38.41782" lon="-2.285125">
        <ele>672</ele>
        <time>2014-08-24T12:01:29.23</time>
      </trkpt>
      <trkpt lat="38.41779" lon="-2.28532">
        <ele>673</ele>
        <time>2014-08-24T12:01:31.19</time>
      </trkpt>
      <trkpt lat="38.417755" lon="-2.285405">
        <ele>672</ele>
        <time>2014-08-24T12:01:32.19</time>
      </trkpt>
      <trkpt lat="38.417735" lon="-2.285495">
        <ele>670</ele>
        <time>2014-08-24T12:01:33.19</time>
      </trkpt>
      <trkpt lat="38.417715" lon="-2.285585">
        <ele>669</ele>
        <time>2014-08-24T12:01:34.20</time>
      </trkpt>
      <trkpt lat="38.41771" lon="-2.285685">
        <ele>669</ele>
        <time>2014-08-24T12:01:35.19</time>
      </trkpt>
      <trkpt lat="38.41773" lon="-2.2857833333333333">
        <ele>669</ele>
        <time>2014-08-24T12:01:36.19</time>
      </trkpt>
      <trkpt lat="38.41776" lon="-2.285885">
        <ele>669</ele>
        <time>2014-08-24T12:01:37.19</time>
      </trkpt>
      <trkpt lat="38.417791666666666" lon="-2.285985">
        <ele>668</ele>
        <time>2014-08-24T12:01:38.19</time>
      </trkpt>
      <trkpt lat="38.417825" lon="-2.28608">
        <ele>668</ele>
        <time>2014-08-24T12:01:39.19</time>
      </trkpt>
      <trkpt lat="38.41786" lon="-2.286175">
        <ele>668</ele>
        <time>2014-08-24T12:01:40.19</time>
      </trkpt>
      <trkpt lat="38.4179" lon="-2.28627">
        <ele>667</ele>
        <time>2014-08-24T12:01:41.38</time>
      </trkpt>
      <trkpt lat="38.417935" lon="-2.286366666666667">
        <ele>667</ele>
        <time>2014-08-24T12:01:42.19</time>
      </trkpt>
      <trkpt lat="38.41797" lon="-2.28647">
        <ele>667</ele>
        <time>2014-08-24T12:01:43.21</time>
      </trkpt>
      <trkpt lat="38.418015" lon="-2.28657">
        <ele>667</ele>
        <time>2014-08-24T12:01:44.21</time>
      </trkpt>
      <trkpt lat="38.41805" lon="-2.286665">
        <ele>666</ele>
        <time>2014-08-24T12:01:45.22</time>
      </trkpt>
      <trkpt lat="38.41809" lon="-2.28676">
        <ele>666</ele>
        <time>2014-08-24T12:01:46.14</time>
      </trkpt>
      <trkpt lat="38.418125" lon="-2.286855">
        <ele>665</ele>
        <time>2014-08-24T12:01:47.19</time>
      </trkpt>
      <trkpt lat="38.418165" lon="-2.286955">
        <ele>665</ele>
        <time>2014-08-24T12:01:48.25</time>
      </trkpt>
      <trkpt lat="38.418205" lon="-2.28706">
        <ele>665</ele>
        <time>2014-08-24T12:01:49.25</time>
      </trkpt>
      <trkpt lat="38.41824" lon="-2.28715">
        <ele>665</ele>
        <time>2014-08-24T12:01:50.25</time>
      </trkpt>
      <trkpt lat="38.41829" lon="-2.287235">
        <ele>664</ele>
        <time>2014-08-24T12:01:51.20</time>
      </trkpt>
      <trkpt lat="38.41836" lon="-2.28729">
        <ele>663</ele>
        <time>2014-08-24T12:01:52.35</time>
      </trkpt>
      <trkpt lat="38.41844" lon="-2.2873200000000002">
        <ele>664</ele>
        <time>2014-08-24T12:01:53.24</time>
      </trkpt>
      <trkpt lat="38.41852" lon="-2.287341666666667">
        <ele>664</ele>
        <time>2014-08-24T12:01:54.19</time>
      </trkpt>
      <trkpt lat="38.418595" lon="-2.28731">
        <ele>664</ele>
        <time>2014-08-24T12:01:55.25</time>
      </trkpt>
      <trkpt lat="38.418675" lon="-2.2872733333333333">
        <ele>664</ele>
        <time>2014-08-24T12:01:56.19</time>
      </trkpt>
      <trkpt lat="38.418775" lon="-2.28723">
        <ele>663</ele>
        <time>2014-08-24T12:01:57.19</time>
      </trkpt>
      <trkpt lat="38.418875" lon="-2.287195">
        <ele>663</ele>
        <time>2014-08-24T12:01:58.19</time>
      </trkpt>
      <trkpt lat="38.418975" lon="-2.2871449999999998">
        <ele>663</ele>
        <time>2014-08-24T12:01:59.19</time>
      </trkpt>
      <trkpt lat="38.41908" lon="-2.287095">
        <ele>661</ele>
        <time>2014-08-24T12:02:00.19</time>
      </trkpt>
      <trkpt lat="38.419200000000004" lon="-2.28704">
        <ele>659</ele>
        <time>2014-08-24T12:02:01.19</time>
      </trkpt>
      <trkpt lat="38.4193" lon="-2.287">
        <ele>659</ele>
        <time>2014-08-24T12:02:02.19</time>
      </trkpt>
      <trkpt lat="38.41941" lon="-2.28696">
        <ele>658</ele>
        <time>2014-08-24T12:02:03.19</time>
      </trkpt>
      <trkpt lat="38.419505" lon="-2.28693">
        <ele>657</ele>
        <time>2014-08-24T12:02:04.30</time>
      </trkpt>
      <trkpt lat="38.419595" lon="-2.28692">
        <ele>658</ele>
        <time>2014-08-24T12:02:05.19</time>
      </trkpt>
      <trkpt lat="38.419705" lon="-2.286915">
        <ele>659</ele>
        <time>2014-08-24T12:02:06.19</time>
      </trkpt>
      <trkpt lat="38.41982" lon="-2.286935">
        <ele>659</ele>
        <time>2014-08-24T12:02:07.19</time>
      </trkpt>
      <trkpt lat="38.419975" lon="-2.28692">
        <ele>660</ele>
        <time>2014-08-24T12:02:09.19</time>
      </trkpt>
      <trkpt lat="38.42008" lon="-2.28693">
        <ele>661</ele>
        <time>2014-08-24T12:02:10.19</time>
      </trkpt>
      <trkpt lat="38.420165" lon="-2.28692">
        <ele>660</ele>
        <time>2014-08-24T12:02:11.19</time>
      </trkpt>
      <trkpt lat="38.42024" lon="-2.286925">
        <ele>662</ele>
        <time>2014-08-24T12:02:12.19</time>
      </trkpt>
      <trkpt lat="38.420335" lon="-2.28695">
        <ele>661</ele>
        <time>2014-08-24T12:02:13.19</time>
      </trkpt>
      <trkpt lat="38.42038" lon="-2.28702">
        <ele>661</ele>
        <time>2014-08-24T12:02:14.27</time>
      </trkpt>
      <trkpt lat="38.42043" lon="-2.28712">
        <ele>661</ele>
        <time>2014-08-24T12:02:15.15</time>
      </trkpt>
      <trkpt lat="38.420475" lon="-2.28727">
        <ele>662</ele>
        <time>2014-08-24T12:02:16.20</time>
      </trkpt>
      <trkpt lat="38.420495" lon="-2.2873783333333333">
        <ele>663</ele>
        <time>2014-08-24T12:02:17.20</time>
      </trkpt>
      <trkpt lat="38.420465" lon="-2.28747">
        <ele>664</ele>
        <time>2014-08-24T12:02:18.19</time>
      </trkpt>
      <trkpt lat="38.42042" lon="-2.2875550000000002">
        <ele>664</ele>
        <time>2014-08-24T12:02:19.18</time>
      </trkpt>
      <trkpt lat="38.420355" lon="-2.2876">
        <ele>666</ele>
        <time>2014-08-24T12:02:20.19</time>
      </trkpt>
      <trkpt lat="38.42026" lon="-2.2876133333333333">
        <ele>667</ele>
        <time>2014-08-24T12:02:21.19</time>
      </trkpt>
      <trkpt lat="38.420155" lon="-2.287665">
        <ele>668</ele>
        <time>2014-08-24T12:02:23.19</time>
      </trkpt>
      <trkpt lat="38.42012" lon="-2.28785">
        <ele>668</ele>
        <time>2014-08-24T12:02:26.19</time>
      </trkpt>
      <trkpt lat="38.41995" lon="-2.2878600000000002">
        <ele>668</ele>
        <time>2014-08-24T12:02:27.19</time>
      </trkpt>
      <trkpt lat="38.41983" lon="-2.28787">
        <ele>669</ele>
        <time>2014-08-24T12:02:29.19</time>
      </trkpt>
      <trkpt lat="38.41975" lon="-2.28787">
        <ele>670</ele>
        <time>2014-08-24T12:02:30.19</time>
      </trkpt>
      <trkpt lat="38.41964" lon="-2.2878833333333333">
        <ele>671</ele>
        <time>2014-08-24T12:02:32.33</time>
      </trkpt>
      <trkpt lat="38.41955" lon="-2.287935">
        <ele>668</ele>
        <time>2014-08-24T12:02:33.22</time>
      </trkpt>
      <trkpt lat="38.419485" lon="-2.287965">
        <ele>669</ele>
        <time>2014-08-24T12:02:34.19</time>
      </trkpt>
      <trkpt lat="38.41939" lon="-2.288095">
        <ele>665</ele>
        <time>2014-08-24T12:02:36.19</time>
      </trkpt>
      <trkpt lat="38.419305" lon="-2.28819">
        <ele>666</ele>
        <time>2014-08-24T12:02:38.19</time>
      </trkpt>
      <trkpt lat="38.41923" lon="-2.2882949999999997">
        <ele>663</ele>
        <time>2014-08-24T12:02:40.19</time>
      </trkpt>
      <trkpt lat="38.419145" lon="-2.28838">
        <ele>666</ele>
        <time>2014-08-24T12:02:42.19</time>
      </trkpt>
      <trkpt lat="38.419035" lon="-2.28846">
        <ele>668</ele>
        <time>2014-08-24T12:02:44.20</time>
      </trkpt>
      <trkpt lat="38.41894" lon="-2.2885400000000002">
        <ele>669</ele>
        <time>2014-08-24T12:02:46.15</time>
      </trkpt>
      <trkpt lat="38.41885" lon="-2.28865">
        <ele>669</ele>
        <time>2014-08-24T12:02:48.14</time>
      </trkpt>
      <trkpt lat="38.418805" lon="-2.2887983333333333">
        <ele>668</ele>
        <time>2014-08-24T12:02:50.18</time>
      </trkpt>
      <trkpt lat="38.41877" lon="-2.2889566666666665">
        <ele>667</ele>
        <time>2014-08-24T12:02:52.19</time>
      </trkpt>
      <trkpt lat="38.418745" lon="-2.289105">
        <ele>666</ele>
        <time>2014-08-24T12:02:54.24</time>
      </trkpt>
      <trkpt lat="38.41873" lon="-2.28926">
        <ele>667</ele>
        <time>2014-08-24T12:02:56.18</time>
      </trkpt>
      <trkpt lat="38.418715" lon="-2.28943">
        <ele>667</ele>
        <time>2014-08-24T12:02:58.19</time>
      </trkpt>
      <trkpt lat="38.41869" lon="-2.2895933333333334">
        <ele>667</ele>
        <time>2014-08-24T12:03:00.18</time>
      </trkpt>
      <trkpt lat="38.41868" lon="-2.289695">
        <ele>668</ele>
        <time>2014-08-24T12:03:01.18</time>
      </trkpt>
      <trkpt lat="38.41866" lon="-2.289875">
        <ele>669</ele>
        <time>2014-08-24T12:03:03.19</time>
      </trkpt>
      <trkpt lat="38.418645" lon="-2.29005">
        <ele>669</ele>
        <time>2014-08-24T12:03:05.18</time>
      </trkpt>
      <trkpt lat="38.41863166666667" lon="-2.29014">
        <ele>668</ele>
        <time>2014-08-24T12:03:06.19</time>
      </trkpt>
      <trkpt lat="38.418605" lon="-2.290305">
        <ele>670</ele>
        <time>2014-08-24T12:03:08.19</time>
      </trkpt>
      <trkpt lat="38.41859" lon="-2.290495">
        <ele>669</ele>
        <time>2014-08-24T12:03:10.19</time>
      </trkpt>
      <trkpt lat="38.41857" lon="-2.2906633333333333">
        <ele>669</ele>
        <time>2014-08-24T12:03:12.19</time>
      </trkpt>
      <trkpt lat="38.41856666666666" lon="-2.29076">
        <ele>670</ele>
        <time>2014-08-24T12:03:13.19</time>
      </trkpt>
      <trkpt lat="38.418553333333335" lon="-2.290855">
        <ele>671</ele>
        <time>2014-08-24T12:03:14.21</time>
      </trkpt>
      <trkpt lat="38.418545" lon="-2.29095">
        <ele>670</ele>
        <time>2014-08-24T12:03:15.18</time>
      </trkpt>
      <trkpt lat="38.418535" lon="-2.2910500000000003">
        <ele>671</ele>
        <time>2014-08-24T12:03:16.19</time>
      </trkpt>
      <trkpt lat="38.418545" lon="-2.29115">
        <ele>668</ele>
        <time>2014-08-24T12:03:17.26</time>
      </trkpt>
      <trkpt lat="38.418525" lon="-2.29124">
        <ele>669</ele>
        <time>2014-08-24T12:03:18.16</time>
      </trkpt>
      <trkpt lat="38.41851" lon="-2.29133">
        <ele>669</ele>
        <time>2014-08-24T12:03:19.30</time>
      </trkpt>
      <trkpt lat="38.418505" lon="-2.29142">
        <ele>668</ele>
        <time>2014-08-24T12:03:20.20</time>
      </trkpt>
      <trkpt lat="38.418483333333334" lon="-2.291525">
        <ele>669</ele>
        <time>2014-08-24T12:03:21.24</time>
      </trkpt>
      <trkpt lat="38.418465" lon="-2.291615">
        <ele>670</ele>
        <time>2014-08-24T12:03:22.25</time>
      </trkpt>
      <trkpt lat="38.418455" lon="-2.29171">
        <ele>670</ele>
        <time>2014-08-24T12:03:23.26</time>
      </trkpt>
      <trkpt lat="38.41844" lon="-2.291805">
        <ele>670</ele>
        <time>2014-08-24T12:03:24.22</time>
      </trkpt>
      <trkpt lat="38.41843" lon="-2.2918950000000002">
        <ele>671</ele>
        <time>2014-08-24T12:03:25.20</time>
      </trkpt>
      <trkpt lat="38.41841333333333" lon="-2.29199">
        <ele>670</ele>
        <time>2014-08-24T12:03:26.20</time>
      </trkpt>
      <trkpt lat="38.418398333333336" lon="-2.29209">
        <ele>670</ele>
        <time>2014-08-24T12:03:27.23</time>
      </trkpt>
      <trkpt lat="38.41839" lon="-2.292185">
        <ele>668</ele>
        <time>2014-08-24T12:03:28.20</time>
      </trkpt>
      <trkpt lat="38.418375" lon="-2.292275">
        <ele>669</ele>
        <time>2014-08-24T12:03:29.20</time>
      </trkpt>
      <trkpt lat="38.418365" lon="-2.29237">
        <ele>669</ele>
        <time>2014-08-24T12:03:30.25</time>
      </trkpt>
      <trkpt lat="38.418355" lon="-2.292466666666667">
        <ele>669</ele>
        <time>2014-08-24T12:03:31.20</time>
      </trkpt>
      <trkpt lat="38.41834" lon="-2.29257">
        <ele>669</ele>
        <time>2014-08-24T12:03:32.23</time>
      </trkpt>
      <trkpt lat="38.41832333333333" lon="-2.2926583333333332">
        <ele>670</ele>
        <time>2014-08-24T12:03:33.23</time>
      </trkpt>
      <trkpt lat="38.41831" lon="-2.29276">
        <ele>670</ele>
        <time>2014-08-24T12:03:34.21</time>
      </trkpt>
      <trkpt lat="38.41829" lon="-2.292855">
        <ele>670</ele>
        <time>2014-08-24T12:03:35.24</time>
      </trkpt>
      <trkpt lat="38.418285" lon="-2.292955">
        <ele>669</ele>
        <time>2014-08-24T12:03:36.24</time>
      </trkpt>
      <trkpt lat="38.418275" lon="-2.29305">
        <ele>668</ele>
        <time>2014-08-24T12:03:37.22</time>
      </trkpt>
      <trkpt lat="38.418265" lon="-2.29314">
        <ele>668</ele>
        <time>2014-08-24T12:03:38.20</time>
      </trkpt>
      <trkpt lat="38.41825" lon="-2.29323">
        <ele>668</ele>
        <time>2014-08-24T12:03:39.23</time>
      </trkpt>
      <trkpt lat="38.418235" lon="-2.29333">
        <ele>668</ele>
        <time>2014-08-24T12:03:40.23</time>
      </trkpt>
      <trkpt lat="38.418225" lon="-2.29343">
        <ele>668</ele>
        <time>2014-08-24T12:03:41.25</time>
      </trkpt>
      <trkpt lat="38.41821" lon="-2.293525">
        <ele>668</ele>
        <time>2014-08-24T12:03:42.25</time>
      </trkpt>
      <trkpt lat="38.418195" lon="-2.2936199999999998">
        <ele>668</ele>
        <time>2014-08-24T12:03:43.22</time>
      </trkpt>
      <trkpt lat="38.418173333333336" lon="-2.2938">
        <ele>666</ele>
        <time>2014-08-24T12:03:45.22</time>
      </trkpt>
      <trkpt lat="38.418165" lon="-2.29391">
        <ele>668</ele>
        <time>2014-08-24T12:03:46.18</time>
      </trkpt>
      <trkpt lat="38.41817" lon="-2.29401">
        <ele>669</ele>
        <time>2014-08-24T12:03:47.22</time>
      </trkpt>
      <trkpt lat="38.418171666666666" lon="-2.29411">
        <ele>669</ele>
        <time>2014-08-24T12:03:48.25</time>
      </trkpt>
      <trkpt lat="38.418185" lon="-2.29422">
        <ele>669</ele>
        <time>2014-08-24T12:03:49.25</time>
      </trkpt>
      <trkpt lat="38.418205" lon="-2.29432">
        <ele>669</ele>
        <time>2014-08-24T12:03:50.20</time>
      </trkpt>
      <trkpt lat="38.41823" lon="-2.294425">
        <ele>668</ele>
        <time>2014-08-24T12:03:51.28</time>
      </trkpt>
      <trkpt lat="38.418255" lon="-2.29453">
        <ele>669</ele>
        <time>2014-08-24T12:03:52.23</time>
      </trkpt>
      <trkpt lat="38.418285" lon="-2.294635">
        <ele>669</ele>
        <time>2014-08-24T12:03:53.24</time>
      </trkpt>
      <trkpt lat="38.41831" lon="-2.29474">
        <ele>669</ele>
        <time>2014-08-24T12:03:54.24</time>
      </trkpt>
      <trkpt lat="38.418321666666664" lon="-2.2948399999999998">
        <ele>669</ele>
        <time>2014-08-24T12:03:55.25</time>
      </trkpt>
      <trkpt lat="38.41832333333333" lon="-2.294935">
        <ele>669</ele>
        <time>2014-08-24T12:03:56.26</time>
      </trkpt>
      <trkpt lat="38.418275" lon="-2.29503">
        <ele>670</ele>
        <time>2014-08-24T12:03:57.22</time>
      </trkpt>
      <trkpt lat="38.41815" lon="-2.295125">
        <ele>667</ele>
        <time>2014-08-24T12:03:59.24</time>
      </trkpt>
      <trkpt lat="38.41807" lon="-2.295125">
        <ele>667</ele>
        <time>2014-08-24T12:04:00.24</time>
      </trkpt>
      <trkpt lat="38.417985" lon="-2.295105">
        <ele>668</ele>
        <time>2014-08-24T12:04:01.25</time>
      </trkpt>
      <trkpt lat="38.41783" lon="-2.295035">
        <ele>669</ele>
        <time>2014-08-24T12:04:03.23</time>
      </trkpt>
      <trkpt lat="38.417755" lon="-2.295">
        <ele>669</ele>
        <time>2014-08-24T12:04:04.20</time>
      </trkpt>
      <trkpt lat="38.41767" lon="-2.295">
        <ele>670</ele>
        <time>2014-08-24T12:04:05.23</time>
      </trkpt>
      <trkpt lat="38.417525" lon="-2.29507">
        <ele>669</ele>
        <time>2014-08-24T12:04:07.24</time>
      </trkpt>
      <trkpt lat="38.41746" lon="-2.29513">
        <ele>668</ele>
        <time>2014-08-24T12:04:08.26</time>
      </trkpt>
      <trkpt lat="38.417395" lon="-2.2952">
        <ele>670</ele>
        <time>2014-08-24T12:04:09.38</time>
      </trkpt>
      <trkpt lat="38.41733833333333" lon="-2.295265">
        <ele>670</ele>
        <time>2014-08-24T12:04:10.22</time>
      </trkpt>
      <trkpt lat="38.41728" lon="-2.2953283333333334">
        <ele>670</ele>
        <time>2014-08-24T12:04:11.19</time>
      </trkpt>
      <trkpt lat="38.417225" lon="-2.295395">
        <ele>670</ele>
        <time>2014-08-24T12:04:12.24</time>
      </trkpt>
      <trkpt lat="38.41716" lon="-2.2954499999999998">
        <ele>671</ele>
        <time>2014-08-24T12:04:13.21</time>
      </trkpt>
      <trkpt lat="38.417105" lon="-2.295516666666667">
        <ele>670</ele>
        <time>2014-08-24T12:04:14.25</time>
      </trkpt>
      <trkpt lat="38.417045" lon="-2.29559">
        <ele>671</ele>
        <time>2014-08-24T12:04:15.17</time>
      </trkpt>
      <trkpt lat="38.417" lon="-2.295665">
        <ele>671</ele>
        <time>2014-08-24T12:04:16.22</time>
      </trkpt>
      <trkpt lat="38.416955" lon="-2.295745">
        <ele>672</ele>
        <time>2014-08-24T12:04:17.20</time>
      </trkpt>
      <trkpt lat="38.416925" lon="-2.29584">
        <ele>673</ele>
        <time>2014-08-24T12:04:18.22</time>
      </trkpt>
      <trkpt lat="38.4169" lon="-2.29594">
        <ele>673</ele>
        <time>2014-08-24T12:04:19.25</time>
      </trkpt>
      <trkpt lat="38.41688" lon="-2.29603">
        <ele>673</ele>
        <time>2014-08-24T12:04:20.19</time>
      </trkpt>
      <trkpt lat="38.416875" lon="-2.296145">
        <ele>672</ele>
        <time>2014-08-24T12:04:21.16</time>
      </trkpt>
      <trkpt lat="38.416865" lon="-2.296255">
        <ele>671</ele>
        <time>2014-08-24T12:04:22.15</time>
      </trkpt>
      <trkpt lat="38.41685" lon="-2.29636">
        <ele>672</ele>
        <time>2014-08-24T12:04:23.21</time>
      </trkpt>
      <trkpt lat="38.416835" lon="-2.296455">
        <ele>671</ele>
        <time>2014-08-24T12:04:24.20</time>
      </trkpt>
      <trkpt lat="38.416815" lon="-2.29656">
        <ele>671</ele>
        <time>2014-08-24T12:04:25.38</time>
      </trkpt>
      <trkpt lat="38.41678" lon="-2.296655">
        <ele>670</ele>
        <time>2014-08-24T12:04:26.21</time>
      </trkpt>
      <trkpt lat="38.416735" lon="-2.296735">
        <ele>670</ele>
        <time>2014-08-24T12:04:27.24</time>
      </trkpt>
      <trkpt lat="38.41668" lon="-2.29682">
        <ele>669</ele>
        <time>2014-08-24T12:04:28.24</time>
      </trkpt>
      <trkpt lat="38.41663" lon="-2.296895">
        <ele>668</ele>
        <time>2014-08-24T12:04:29.26</time>
      </trkpt>
      <trkpt lat="38.416575" lon="-2.296971666666667">
        <ele>667</ele>
        <time>2014-08-24T12:04:30.19</time>
      </trkpt>
      <trkpt lat="38.416525" lon="-2.29706">
        <ele>667</ele>
        <time>2014-08-24T12:04:31.19</time>
      </trkpt>
      <trkpt lat="38.41647" lon="-2.29712">
        <ele>668</ele>
        <time>2014-08-24T12:04:32.27</time>
      </trkpt>
      <trkpt lat="38.4164" lon="-2.297195">
        <ele>668</ele>
        <time>2014-08-24T12:04:33.18</time>
      </trkpt>
      <trkpt lat="38.41633" lon="-2.297265">
        <ele>668</ele>
        <time>2014-08-24T12:04:34.14</time>
      </trkpt>
      <trkpt lat="38.416255" lon="-2.2973133333333333">
        <ele>669</ele>
        <time>2014-08-24T12:04:35.24</time>
      </trkpt>
      <trkpt lat="38.416175" lon="-2.29736">
        <ele>669</ele>
        <time>2014-08-24T12:04:36.32</time>
      </trkpt>
      <trkpt lat="38.416105" lon="-2.297425">
        <ele>668</ele>
        <time>2014-08-24T12:04:37.21</time>
      </trkpt>
      <trkpt lat="38.416035" lon="-2.297485">
        <ele>667</ele>
        <time>2014-08-24T12:04:38.23</time>
      </trkpt>
      <trkpt lat="38.41595" lon="-2.297535">
        <ele>667</ele>
        <time>2014-08-24T12:04:39.22</time>
      </trkpt>
      <trkpt lat="38.41588" lon="-2.29759">
        <ele>668</ele>
        <time>2014-08-24T12:04:40.24</time>
      </trkpt>
      <trkpt lat="38.415815" lon="-2.297645">
        <ele>668</ele>
        <time>2014-08-24T12:04:41.23</time>
      </trkpt>
      <trkpt lat="38.415765" lon="-2.29771">
        <ele>668</ele>
        <time>2014-08-24T12:04:42.19</time>
      </trkpt>
      <trkpt lat="38.415715" lon="-2.297795">
        <ele>668</ele>
        <time>2014-08-24T12:04:43.20</time>
      </trkpt>
      <trkpt lat="38.415665" lon="-2.29787">
        <ele>668</ele>
        <time>2014-08-24T12:04:44.20</time>
      </trkpt>
      <trkpt lat="38.415615" lon="-2.297945">
        <ele>669</ele>
        <time>2014-08-24T12:04:45.20</time>
      </trkpt>
      <trkpt lat="38.415575" lon="-2.298025">
        <ele>670</ele>
        <time>2014-08-24T12:04:46.25</time>
      </trkpt>
      <trkpt lat="38.41552166666666" lon="-2.2982016666666665">
        <ele>670</ele>
        <time>2014-08-24T12:04:48.23</time>
      </trkpt>
      <trkpt lat="38.415505" lon="-2.29831">
        <ele>669</ele>
        <time>2014-08-24T12:04:49.22</time>
      </trkpt>
      <trkpt lat="38.41545833333333" lon="-2.2983833333333332">
        <ele>668</ele>
        <time>2014-08-24T12:04:50.23</time>
      </trkpt>
      <trkpt lat="38.415415" lon="-2.298485">
        <ele>669</ele>
        <time>2014-08-24T12:04:51.20</time>
      </trkpt>
      <trkpt lat="38.41536" lon="-2.2985583333333333">
        <ele>669</ele>
        <time>2014-08-24T12:04:52.25</time>
      </trkpt>
      <trkpt lat="38.415295" lon="-2.29862">
        <ele>668</ele>
        <time>2014-08-24T12:04:53.19</time>
      </trkpt>
      <trkpt lat="38.41524" lon="-2.29869">
        <ele>668</ele>
        <time>2014-08-24T12:04:54.19</time>
      </trkpt>
      <trkpt lat="38.415185" lon="-2.29878">
        <ele>667</ele>
        <time>2014-08-24T12:04:55.19</time>
      </trkpt>
      <trkpt lat="38.415135" lon="-2.29887">
        <ele>669</ele>
        <time>2014-08-24T12:04:56.19</time>
      </trkpt>
      <trkpt lat="38.415125" lon="-2.298975">
        <ele>669</ele>
        <time>2014-08-24T12:04:57.19</time>
      </trkpt>
      <trkpt lat="38.41513" lon="-2.299105">
        <ele>666</ele>
        <time>2014-08-24T12:04:58.19</time>
      </trkpt>
      <trkpt lat="38.41514333333333" lon="-2.2992150000000002">
        <ele>666</ele>
        <time>2014-08-24T12:04:59.19</time>
      </trkpt>
      <trkpt lat="38.41516" lon="-2.299335">
        <ele>665</ele>
        <time>2014-08-24T12:05:00.19</time>
      </trkpt>
      <trkpt lat="38.415185" lon="-2.29943">
        <ele>665</ele>
        <time>2014-08-24T12:05:01.19</time>
      </trkpt>
      <trkpt lat="38.415205" lon="-2.29954">
        <ele>664</ele>
        <time>2014-08-24T12:05:02.19</time>
      </trkpt>
      <trkpt lat="38.41523333333333" lon="-2.299665">
        <ele>664</ele>
        <time>2014-08-24T12:05:03.19</time>
      </trkpt>
      <trkpt lat="38.415235" lon="-2.29979">
        <ele>664</ele>
        <time>2014-08-24T12:05:04.20</time>
      </trkpt>
      <trkpt lat="38.41524" lon="-2.299908333333333">
        <ele>665</ele>
        <time>2014-08-24T12:05:05.35</time>
      </trkpt>
      <trkpt lat="38.41523" lon="-2.3000249999999998">
        <ele>664</ele>
        <time>2014-08-24T12:05:06.26</time>
      </trkpt>
      <trkpt lat="38.41521" lon="-2.30014">
        <ele>665</ele>
        <time>2014-08-24T12:05:07.23</time>
      </trkpt>
      <trkpt lat="38.415205" lon="-2.3002683333333334">
        <ele>665</ele>
        <time>2014-08-24T12:05:08.22</time>
      </trkpt>
      <trkpt lat="38.41519" lon="-2.30039">
        <ele>664</ele>
        <time>2014-08-24T12:05:09.24</time>
      </trkpt>
      <trkpt lat="38.41517" lon="-2.300525">
        <ele>665</ele>
        <time>2014-08-24T12:05:10.19</time>
      </trkpt>
      <trkpt lat="38.415165" lon="-2.300655">
        <ele>664</ele>
        <time>2014-08-24T12:05:11.19</time>
      </trkpt>
      <trkpt lat="38.415155" lon="-2.300785">
        <ele>663</ele>
        <time>2014-08-24T12:05:12.19</time>
      </trkpt>
      <trkpt lat="38.415115" lon="-2.3008866666666665">
        <ele>662</ele>
        <time>2014-08-24T12:05:13.19</time>
      </trkpt>
      <trkpt lat="38.41503" lon="-2.300965">
        <ele>662</ele>
        <time>2014-08-24T12:05:14.31</time>
      </trkpt>
      <trkpt lat="38.41495" lon="-2.301035">
        <ele>662</ele>
        <time>2014-08-24T12:05:15.17</time>
      </trkpt>
      <trkpt lat="38.41487" lon="-2.3011150000000002">
        <ele>661</ele>
        <time>2014-08-24T12:05:16.22</time>
      </trkpt>
      <trkpt lat="38.414789999999996" lon="-2.3012">
        <ele>661</ele>
        <time>2014-08-24T12:05:17.19</time>
      </trkpt>
      <trkpt lat="38.414715" lon="-2.301295">
        <ele>661</ele>
        <time>2014-08-24T12:05:18.19</time>
      </trkpt>
      <trkpt lat="38.41464" lon="-2.30139">
        <ele>662</ele>
        <time>2014-08-24T12:05:19.22</time>
      </trkpt>
      <trkpt lat="38.414565" lon="-2.3014900000000003">
        <ele>660</ele>
        <time>2014-08-24T12:05:20.24</time>
      </trkpt>
      <trkpt lat="38.414495" lon="-2.301585">
        <ele>661</ele>
        <time>2014-08-24T12:05:21.25</time>
      </trkpt>
      <trkpt lat="38.414425" lon="-2.301685">
        <ele>661</ele>
        <time>2014-08-24T12:05:22.19</time>
      </trkpt>
      <trkpt lat="38.414355" lon="-2.301781666666667">
        <ele>661</ele>
        <time>2014-08-24T12:05:23.19</time>
      </trkpt>
      <trkpt lat="38.41428" lon="-2.301885">
        <ele>661</ele>
        <time>2014-08-24T12:05:24.19</time>
      </trkpt>
      <trkpt lat="38.414205" lon="-2.30198">
        <ele>661</ele>
        <time>2014-08-24T12:05:25.21</time>
      </trkpt>
      <trkpt lat="38.414125" lon="-2.30207">
        <ele>662</ele>
        <time>2014-08-24T12:05:26.19</time>
      </trkpt>
      <trkpt lat="38.414055" lon="-2.302155">
        <ele>662</ele>
        <time>2014-08-24T12:05:27.19</time>
      </trkpt>
      <trkpt lat="38.413975" lon="-2.3022366666666665">
        <ele>662</ele>
        <time>2014-08-24T12:05:28.19</time>
      </trkpt>
      <trkpt lat="38.413885" lon="-2.302315">
        <ele>662</ele>
        <time>2014-08-24T12:05:29.19</time>
      </trkpt>
      <trkpt lat="38.41381" lon="-2.3023933333333333">
        <ele>663</ele>
        <time>2014-08-24T12:05:30.24</time>
      </trkpt>
      <trkpt lat="38.413735" lon="-2.30248">
        <ele>662</ele>
        <time>2014-08-24T12:05:31.19</time>
      </trkpt>
      <trkpt lat="38.413655" lon="-2.302555">
        <ele>662</ele>
        <time>2014-08-24T12:05:32.19</time>
      </trkpt>
      <trkpt lat="38.413575" lon="-2.30263">
        <ele>662</ele>
        <time>2014-08-24T12:05:33.19</time>
      </trkpt>
      <trkpt lat="38.41349" lon="-2.302695">
        <ele>662</ele>
        <time>2014-08-24T12:05:34.19</time>
      </trkpt>
      <trkpt lat="38.41341" lon="-2.3027683333333333">
        <ele>661</ele>
        <time>2014-08-24T12:05:35.19</time>
      </trkpt>
      <trkpt lat="38.41332" lon="-2.30282">
        <ele>661</ele>
        <time>2014-08-24T12:05:36.19</time>
      </trkpt>
      <trkpt lat="38.413225" lon="-2.30287">
        <ele>661</ele>
        <time>2014-08-24T12:05:37.19</time>
      </trkpt>
      <trkpt lat="38.41314" lon="-2.30293">
        <ele>661</ele>
        <time>2014-08-24T12:05:38.19</time>
      </trkpt>
      <trkpt lat="38.413055" lon="-2.30299">
        <ele>660</ele>
        <time>2014-08-24T12:05:39.19</time>
      </trkpt>
      <trkpt lat="38.412965" lon="-2.303035">
        <ele>661</ele>
        <time>2014-08-24T12:05:40.18</time>
      </trkpt>
      <trkpt lat="38.412875" lon="-2.3031">
        <ele>660</ele>
        <time>2014-08-24T12:05:41.22</time>
      </trkpt>
      <trkpt lat="38.412785" lon="-2.303155">
        <ele>659</ele>
        <time>2014-08-24T12:05:42.23</time>
      </trkpt>
      <trkpt lat="38.4127" lon="-2.30321">
        <ele>659</ele>
        <time>2014-08-24T12:05:43.19</time>
      </trkpt>
      <trkpt lat="38.412595" lon="-2.30323">
        <ele>661</ele>
        <time>2014-08-24T12:05:44.19</time>
      </trkpt>
      <trkpt lat="38.4125" lon="-2.303315">
        <ele>658</ele>
        <time>2014-08-24T12:05:45.20</time>
      </trkpt>
      <trkpt lat="38.412415" lon="-2.303376666666667">
        <ele>657</ele>
        <time>2014-08-24T12:05:46.28</time>
      </trkpt>
      <trkpt lat="38.412325" lon="-2.30344">
        <ele>658</ele>
        <time>2014-08-24T12:05:47.14</time>
      </trkpt>
      <trkpt lat="38.412245" lon="-2.303525">
        <ele>656</ele>
        <time>2014-08-24T12:05:48.14</time>
      </trkpt>
      <trkpt lat="38.412165" lon="-2.303611666666667">
        <ele>657</ele>
        <time>2014-08-24T12:05:49.14</time>
      </trkpt>
      <trkpt lat="38.412105" lon="-2.303745">
        <ele>653</ele>
        <time>2014-08-24T12:05:50.19</time>
      </trkpt>
      <trkpt lat="38.412025" lon="-2.303835">
        <ele>653</ele>
        <time>2014-08-24T12:05:51.21</time>
      </trkpt>
      <trkpt lat="38.41196" lon="-2.303935">
        <ele>653</ele>
        <time>2014-08-24T12:05:52.23</time>
      </trkpt>
      <trkpt lat="38.41188" lon="-2.304015">
        <ele>655</ele>
        <time>2014-08-24T12:05:53.19</time>
      </trkpt>
      <trkpt lat="38.411811666666665" lon="-2.304105">
        <ele>656</ele>
        <time>2014-08-24T12:05:54.19</time>
      </trkpt>
      <trkpt lat="38.41176" lon="-2.30422">
        <ele>656</ele>
        <time>2014-08-24T12:05:55.19</time>
      </trkpt>
      <trkpt lat="38.4117" lon="-2.304325">
        <ele>657</ele>
        <time>2014-08-24T12:05:56.19</time>
      </trkpt>
      <trkpt lat="38.41165" lon="-2.30444">
        <ele>656</ele>
        <time>2014-08-24T12:05:57.19</time>
      </trkpt>
      <trkpt lat="38.411595" lon="-2.304555">
        <ele>656</ele>
        <time>2014-08-24T12:05:58.19</time>
      </trkpt>
      <trkpt lat="38.411545" lon="-2.304675">
        <ele>656</ele>
        <time>2014-08-24T12:05:59.19</time>
      </trkpt>
      <trkpt lat="38.411495" lon="-2.304785">
        <ele>655</ele>
        <time>2014-08-24T12:06:00.19</time>
      </trkpt>
      <trkpt lat="38.41144833333333" lon="-2.304895">
        <ele>655</ele>
        <time>2014-08-24T12:06:01.14</time>
      </trkpt>
      <trkpt lat="38.4114" lon="-2.305015">
        <ele>655</ele>
        <time>2014-08-24T12:06:02.14</time>
      </trkpt>
      <trkpt lat="38.41135833333333" lon="-2.3051383333333333">
        <ele>655</ele>
        <time>2014-08-24T12:06:03.19</time>
      </trkpt>
      <trkpt lat="38.41132" lon="-2.30526">
        <ele>655</ele>
        <time>2014-08-24T12:06:04.19</time>
      </trkpt>
      <trkpt lat="38.411285" lon="-2.305371666666667">
        <ele>655</ele>
        <time>2014-08-24T12:06:05.22</time>
      </trkpt>
      <trkpt lat="38.411255" lon="-2.305495">
        <ele>655</ele>
        <time>2014-08-24T12:06:06.19</time>
      </trkpt>
      <trkpt lat="38.411225" lon="-2.305625">
        <ele>655</ele>
        <time>2014-08-24T12:06:07.19</time>
      </trkpt>
      <trkpt lat="38.411205" lon="-2.30574">
        <ele>657</ele>
        <time>2014-08-24T12:06:08.20</time>
      </trkpt>
      <trkpt lat="38.411205" lon="-2.305855">
        <ele>656</ele>
        <time>2014-08-24T12:06:09.25</time>
      </trkpt>
      <trkpt lat="38.41120333333333" lon="-2.305975">
        <ele>656</ele>
        <time>2014-08-24T12:06:10.19</time>
      </trkpt>
      <trkpt lat="38.411215" lon="-2.306085">
        <ele>657</ele>
        <time>2014-08-24T12:06:11.19</time>
      </trkpt>
      <trkpt lat="38.41124" lon="-2.3061833333333333">
        <ele>659</ele>
        <time>2014-08-24T12:06:12.21</time>
      </trkpt>
      <trkpt lat="38.41127" lon="-2.306295">
        <ele>658</ele>
        <time>2014-08-24T12:06:13.20</time>
      </trkpt>
      <trkpt lat="38.411305" lon="-2.30639">
        <ele>659</ele>
        <time>2014-08-24T12:06:14.25</time>
      </trkpt>
      <trkpt lat="38.411325" lon="-2.30649">
        <ele>660</ele>
        <time>2014-08-24T12:06:15.23</time>
      </trkpt>
      <trkpt lat="38.41136" lon="-2.306585">
        <ele>660</ele>
        <time>2014-08-24T12:06:16.19</time>
      </trkpt>
      <trkpt lat="38.411375" lon="-2.30669">
        <ele>660</ele>
        <time>2014-08-24T12:06:17.19</time>
      </trkpt>
      <trkpt lat="38.4114" lon="-2.30679">
        <ele>658</ele>
        <time>2014-08-24T12:06:18.14</time>
      </trkpt>
      <trkpt lat="38.4114" lon="-2.306885">
        <ele>657</ele>
        <time>2014-08-24T12:06:19.31</time>
      </trkpt>
      <trkpt lat="38.41138" lon="-2.3069800000000003">
        <ele>657</ele>
        <time>2014-08-24T12:06:20.28</time>
      </trkpt>
      <trkpt lat="38.41133" lon="-2.307135">
        <ele>658</ele>
        <time>2014-08-24T12:06:22.22</time>
      </trkpt>
      <trkpt lat="38.411255" lon="-2.30727">
        <ele>657</ele>
        <time>2014-08-24T12:06:24.19</time>
      </trkpt>
      <trkpt lat="38.411165" lon="-2.307395">
        <ele>657</ele>
        <time>2014-08-24T12:06:26.19</time>
      </trkpt>
      <trkpt lat="38.411065" lon="-2.307495">
        <ele>659</ele>
        <time>2014-08-24T12:06:28.19</time>
      </trkpt>
      <trkpt lat="38.41095" lon="-2.307565">
        <ele>658</ele>
        <time>2014-08-24T12:06:30.31</time>
      </trkpt>
      <trkpt lat="38.41084" lon="-2.307635">
        <ele>659</ele>
        <time>2014-08-24T12:06:32.18</time>
      </trkpt>
      <trkpt lat="38.41072" lon="-2.30768">
        <ele>661</ele>
        <time>2014-08-24T12:06:34.24</time>
      </trkpt>
      <trkpt lat="38.410615" lon="-2.30773">
        <ele>661</ele>
        <time>2014-08-24T12:06:36.26</time>
      </trkpt>
      <trkpt lat="38.41053" lon="-2.30782">
        <ele>662</ele>
        <time>2014-08-24T12:06:38.21</time>
      </trkpt>
      <trkpt lat="38.41046" lon="-2.307945">
        <ele>662</ele>
        <time>2014-08-24T12:06:40.23</time>
      </trkpt>
      <trkpt lat="38.41041" lon="-2.308035">
        <ele>663</ele>
        <time>2014-08-24T12:06:42.20</time>
      </trkpt>
      <trkpt lat="38.410395" lon="-2.30817">
        <ele>662</ele>
        <time>2014-08-24T12:06:44.19</time>
      </trkpt>
      <trkpt lat="38.41039" lon="-2.3083">
        <ele>663</ele>
        <time>2014-08-24T12:06:46.18</time>
      </trkpt>
      <trkpt lat="38.410415" lon="-2.30842">
        <ele>665</ele>
        <time>2014-08-24T12:06:48.23</time>
      </trkpt>
      <trkpt lat="38.41048" lon="-2.308555">
        <ele>665</ele>
        <time>2014-08-24T12:06:50.20</time>
      </trkpt>
      <trkpt lat="38.410545" lon="-2.308665">
        <ele>665</ele>
        <time>2014-08-24T12:06:52.20</time>
      </trkpt>
      <trkpt lat="38.410601666666665" lon="-2.308765">
        <ele>664</ele>
        <time>2014-08-24T12:06:54.24</time>
      </trkpt>
      <trkpt lat="38.410668333333334" lon="-2.3088683333333333">
        <ele>665</ele>
        <time>2014-08-24T12:06:56.18</time>
      </trkpt>
      <trkpt lat="38.41074" lon="-2.308955">
        <ele>668</ele>
        <time>2014-08-24T12:06:58.22</time>
      </trkpt>
      <trkpt lat="38.4108" lon="-2.309075">
        <ele>669</ele>
        <time>2014-08-24T12:07:00.20</time>
      </trkpt>
      <trkpt lat="38.41085" lon="-2.309205">
        <ele>669</ele>
        <time>2014-08-24T12:07:02.18</time>
      </trkpt>
      <trkpt lat="38.41088" lon="-2.3093500000000002">
        <ele>671</ele>
        <time>2014-08-24T12:07:04.17</time>
      </trkpt>
      <trkpt lat="38.41092" lon="-2.3094900000000003">
        <ele>671</ele>
        <time>2014-08-24T12:07:06.17</time>
      </trkpt>
      <trkpt lat="38.410965" lon="-2.3096550000000002">
        <ele>672</ele>
        <time>2014-08-24T12:07:08.18</time>
      </trkpt>
      <trkpt lat="38.411005" lon="-2.30974">
        <ele>672</ele>
        <time>2014-08-24T12:07:09.17</time>
      </trkpt>
      <trkpt lat="38.41104833333333" lon="-2.30982">
        <ele>671</ele>
        <time>2014-08-24T12:07:10.17</time>
      </trkpt>
      <trkpt lat="38.411105" lon="-2.3099">
        <ele>670</ele>
        <time>2014-08-24T12:07:11.17</time>
      </trkpt>
      <trkpt lat="38.41115" lon="-2.309995">
        <ele>670</ele>
        <time>2014-08-24T12:07:12.17</time>
      </trkpt>
      <trkpt lat="38.411205" lon="-2.310085">
        <ele>669</ele>
        <time>2014-08-24T12:07:13.17</time>
      </trkpt>
      <trkpt lat="38.411245" lon="-2.31019">
        <ele>670</ele>
        <time>2014-08-24T12:07:14.23</time>
      </trkpt>
      <trkpt lat="38.411265" lon="-2.310305">
        <ele>672</ele>
        <time>2014-08-24T12:07:15.14</time>
      </trkpt>
      <trkpt lat="38.411275" lon="-2.31041">
        <ele>671</ele>
        <time>2014-08-24T12:07:16.17</time>
      </trkpt>
      <trkpt lat="38.411278333333335" lon="-2.31053">
        <ele>672</ele>
        <time>2014-08-24T12:07:17.17</time>
      </trkpt>
      <trkpt lat="38.411255" lon="-2.31067">
        <ele>671</ele>
        <time>2014-08-24T12:07:18.17</time>
      </trkpt>
      <trkpt lat="38.41123" lon="-2.310805">
        <ele>670</ele>
        <time>2014-08-24T12:07:19.17</time>
      </trkpt>
      <trkpt lat="38.4112" lon="-2.31092">
        <ele>670</ele>
        <time>2014-08-24T12:07:20.17</time>
      </trkpt>
      <trkpt lat="38.411175" lon="-2.31106">
        <ele>671</ele>
        <time>2014-08-24T12:07:21.17</time>
      </trkpt>
      <trkpt lat="38.41115" lon="-2.311175">
        <ele>670</ele>
        <time>2014-08-24T12:07:22.17</time>
      </trkpt>
      <trkpt lat="38.41112" lon="-2.311305">
        <ele>670</ele>
        <time>2014-08-24T12:07:23.17</time>
      </trkpt>
      <trkpt lat="38.41111" lon="-2.31141">
        <ele>668</ele>
        <time>2014-08-24T12:07:24.17</time>
      </trkpt>
      <trkpt lat="38.41109" lon="-2.31153">
        <ele>668</ele>
        <time>2014-08-24T12:07:25.17</time>
      </trkpt>
      <trkpt lat="38.41108" lon="-2.31167">
        <ele>668</ele>
        <time>2014-08-24T12:07:26.18</time>
      </trkpt>
      <trkpt lat="38.41109" lon="-2.311785">
        <ele>668</ele>
        <time>2014-08-24T12:07:27.16</time>
      </trkpt>
      <trkpt lat="38.41109" lon="-2.3119">
        <ele>670</ele>
        <time>2014-08-24T12:07:28.13</time>
      </trkpt>
      <trkpt lat="38.4111" lon="-2.31202">
        <ele>670</ele>
        <time>2014-08-24T12:07:29.17</time>
      </trkpt>
      <trkpt lat="38.411115" lon="-2.312125">
        <ele>668</ele>
        <time>2014-08-24T12:07:30.19</time>
      </trkpt>
      <trkpt lat="38.41112" lon="-2.31225">
        <ele>666</ele>
        <time>2014-08-24T12:07:31.17</time>
      </trkpt>
      <trkpt lat="38.41109" lon="-2.312335">
        <ele>666</ele>
        <time>2014-08-24T12:07:32.22</time>
      </trkpt>
      <trkpt lat="38.411035" lon="-2.31257">
        <ele>662</ele>
        <time>2014-08-24T12:07:34.17</time>
      </trkpt>
      <trkpt lat="38.41099" lon="-2.31269">
        <ele>663</ele>
        <time>2014-08-24T12:07:35.17</time>
      </trkpt>
      <trkpt lat="38.410975" lon="-2.312805">
        <ele>663</ele>
        <time>2014-08-24T12:07:36.17</time>
      </trkpt>
      <trkpt lat="38.410975" lon="-2.3129033333333333">
        <ele>667</ele>
        <time>2014-08-24T12:07:37.17</time>
      </trkpt>
      <trkpt lat="38.41099" lon="-2.313065">
        <ele>665</ele>
        <time>2014-08-24T12:07:38.17</time>
      </trkpt>
      <trkpt lat="38.41101" lon="-2.313205">
        <ele>664</ele>
        <time>2014-08-24T12:07:39.17</time>
      </trkpt>
      <trkpt lat="38.411045" lon="-2.313335">
        <ele>663</ele>
        <time>2014-08-24T12:07:40.17</time>
      </trkpt>
      <trkpt lat="38.41108" lon="-2.3134683333333332">
        <ele>659</ele>
        <time>2014-08-24T12:07:41.17</time>
      </trkpt>
      <trkpt lat="38.41111" lon="-2.313605">
        <ele>660</ele>
        <time>2014-08-24T12:07:42.17</time>
      </trkpt>
      <trkpt lat="38.411145" lon="-2.3137383333333332">
        <ele>660</ele>
        <time>2014-08-24T12:07:43.19</time>
      </trkpt>
      <trkpt lat="38.41118" lon="-2.31388">
        <ele>660</ele>
        <time>2014-08-24T12:07:44.17</time>
      </trkpt>
      <trkpt lat="38.41122" lon="-2.31402">
        <ele>660</ele>
        <time>2014-08-24T12:07:45.17</time>
      </trkpt>
      <trkpt lat="38.41126" lon="-2.31416">
        <ele>661</ele>
        <time>2014-08-24T12:07:46.17</time>
      </trkpt>
      <trkpt lat="38.41129" lon="-2.314245">
        <ele>664</ele>
        <time>2014-08-24T12:07:47.13</time>
      </trkpt>
      <trkpt lat="38.411345" lon="-2.314375">
        <ele>663</ele>
        <time>2014-08-24T12:07:48.17</time>
      </trkpt>
      <trkpt lat="38.411385" lon="-2.31446">
        <ele>664</ele>
        <time>2014-08-24T12:07:49.13</time>
      </trkpt>
      <trkpt lat="38.411445" lon="-2.314585">
        <ele>666</ele>
        <time>2014-08-24T12:07:50.13</time>
      </trkpt>
      <trkpt lat="38.411503333333336" lon="-2.314695">
        <ele>665</ele>
        <time>2014-08-24T12:07:51.17</time>
      </trkpt>
      <trkpt lat="38.41158" lon="-2.314785">
        <ele>666</ele>
        <time>2014-08-24T12:07:52.17</time>
      </trkpt>
      <trkpt lat="38.411655" lon="-2.31488">
        <ele>665</ele>
        <time>2014-08-24T12:07:53.17</time>
      </trkpt>
      <trkpt lat="38.41173" lon="-2.314966666666667">
        <ele>665</ele>
        <time>2014-08-24T12:07:54.31</time>
      </trkpt>
      <trkpt lat="38.41181" lon="-2.3150583333333334">
        <ele>665</ele>
        <time>2014-08-24T12:07:55.17</time>
      </trkpt>
      <trkpt lat="38.41189" lon="-2.3151450000000002">
        <ele>667</ele>
        <time>2014-08-24T12:07:56.17</time>
      </trkpt>
      <trkpt lat="38.411955" lon="-2.315236666666667">
        <ele>670</ele>
        <time>2014-08-24T12:07:57.17</time>
      </trkpt>
      <trkpt lat="38.412035" lon="-2.3153266666666665">
        <ele>667</ele>
        <time>2014-08-24T12:07:58.17</time>
      </trkpt>
      <trkpt lat="38.41217" lon="-2.31546">
        <ele>669</ele>
        <time>2014-08-24T12:08:00.17</time>
      </trkpt>
      <trkpt lat="38.41225" lon="-2.31554">
        <ele>670</ele>
        <time>2014-08-24T12:08:01.18</time>
      </trkpt>
      <trkpt lat="38.41234333333333" lon="-2.315625">
        <ele>668</ele>
        <time>2014-08-24T12:08:02.22</time>
      </trkpt>
      <trkpt lat="38.412416666666665" lon="-2.315715">
        <ele>671</ele>
        <time>2014-08-24T12:08:03.17</time>
      </trkpt>
      <trkpt lat="38.412495" lon="-2.315811666666667">
        <ele>671</ele>
        <time>2014-08-24T12:08:04.17</time>
      </trkpt>
      <trkpt lat="38.41254" lon="-2.31589">
        <ele>671</ele>
        <time>2014-08-24T12:08:05.25</time>
      </trkpt>
      <trkpt lat="38.41258" lon="-2.315995">
        <ele>670</ele>
        <time>2014-08-24T12:08:06.20</time>
      </trkpt>
      <trkpt lat="38.4127" lon="-2.316035">
        <ele>661</ele>
        <time>2014-08-24T12:08:07.21</time>
      </trkpt>
      <trkpt lat="38.41268" lon="-2.31621">
        <ele>661</ele>
        <time>2014-08-24T12:08:08.21</time>
      </trkpt>
      <trkpt lat="38.412641666666666" lon="-2.31635">
        <ele>661</ele>
        <time>2014-08-24T12:08:09.22</time>
      </trkpt>
      <trkpt lat="38.412615" lon="-2.31647">
        <ele>662</ele>
        <time>2014-08-24T12:08:10.17</time>
      </trkpt>
      <trkpt lat="38.412585" lon="-2.316586666666667">
        <ele>662</ele>
        <time>2014-08-24T12:08:11.13</time>
      </trkpt>
      <trkpt lat="38.41254" lon="-2.316726666666667">
        <ele>662</ele>
        <time>2014-08-24T12:08:12.13</time>
      </trkpt>
      <trkpt lat="38.412486666666666" lon="-2.31685">
        <ele>661</ele>
        <time>2014-08-24T12:08:13.17</time>
      </trkpt>
      <trkpt lat="38.41241" lon="-2.31697">
        <ele>663</ele>
        <time>2014-08-24T12:08:14.24</time>
      </trkpt>
      <trkpt lat="38.41235" lon="-2.31707">
        <ele>664</ele>
        <time>2014-08-24T12:08:15.16</time>
      </trkpt>
      <trkpt lat="38.41229" lon="-2.3171749999999998">
        <ele>665</ele>
        <time>2014-08-24T12:08:16.12</time>
      </trkpt>
      <trkpt lat="38.41224" lon="-2.317275">
        <ele>665</ele>
        <time>2014-08-24T12:08:17.17</time>
      </trkpt>
      <trkpt lat="38.41218" lon="-2.317365">
        <ele>665</ele>
        <time>2014-08-24T12:08:18.22</time>
      </trkpt>
      <trkpt lat="38.41213" lon="-2.31745">
        <ele>665</ele>
        <time>2014-08-24T12:08:19.22</time>
      </trkpt>
      <trkpt lat="38.412065" lon="-2.3175499999999998">
        <ele>667</ele>
        <time>2014-08-24T12:08:20.23</time>
      </trkpt>
      <trkpt lat="38.41202" lon="-2.31763">
        <ele>668</ele>
        <time>2014-08-24T12:08:21.17</time>
      </trkpt>
      <trkpt lat="38.411975" lon="-2.3177133333333333">
        <ele>667</ele>
        <time>2014-08-24T12:08:22.34</time>
      </trkpt>
      <trkpt lat="38.411935" lon="-2.317805">
        <ele>667</ele>
        <time>2014-08-24T12:08:23.17</time>
      </trkpt>
      <trkpt lat="38.41188" lon="-2.317905">
        <ele>666</ele>
        <time>2014-08-24T12:08:24.19</time>
      </trkpt>
      <trkpt lat="38.411825" lon="-2.318">
        <ele>667</ele>
        <time>2014-08-24T12:08:25.22</time>
      </trkpt>
      <trkpt lat="38.41178" lon="-2.318085">
        <ele>668</ele>
        <time>2014-08-24T12:08:26.18</time>
      </trkpt>
      <trkpt lat="38.41173" lon="-2.31817">
        <ele>668</ele>
        <time>2014-08-24T12:08:27.18</time>
      </trkpt>
      <trkpt lat="38.411675" lon="-2.31826">
        <ele>668</ele>
        <time>2014-08-24T12:08:28.37</time>
      </trkpt>
      <trkpt lat="38.411635" lon="-2.318365">
        <ele>668</ele>
        <time>2014-08-24T12:08:29.21</time>
      </trkpt>
      <trkpt lat="38.41155" lon="-2.318525">
        <ele>668</ele>
        <time>2014-08-24T12:08:31.17</time>
      </trkpt>
      <trkpt lat="38.41151" lon="-2.318615">
        <ele>670</ele>
        <time>2014-08-24T12:08:32.17</time>
      </trkpt>
      <trkpt lat="38.41149" lon="-2.318715">
        <ele>669</ele>
        <time>2014-08-24T12:08:33.17</time>
      </trkpt>
      <trkpt lat="38.41145" lon="-2.31882">
        <ele>669</ele>
        <time>2014-08-24T12:08:34.17</time>
      </trkpt>
      <trkpt lat="38.41142833333333" lon="-2.318915">
        <ele>669</ele>
        <time>2014-08-24T12:08:35.17</time>
      </trkpt>
      <trkpt lat="38.411415" lon="-2.31902">
        <ele>670</ele>
        <time>2014-08-24T12:08:36.17</time>
      </trkpt>
      <trkpt lat="38.41137" lon="-2.3192033333333333">
        <ele>669</ele>
        <time>2014-08-24T12:08:38.17</time>
      </trkpt>
      <trkpt lat="38.41135" lon="-2.319325">
        <ele>671</ele>
        <time>2014-08-24T12:08:39.17</time>
      </trkpt>
      <trkpt lat="38.41132" lon="-2.31943">
        <ele>671</ele>
        <time>2014-08-24T12:08:40.16</time>
      </trkpt>
      <trkpt lat="38.411295" lon="-2.31954">
        <ele>671</ele>
        <time>2014-08-24T12:08:41.17</time>
      </trkpt>
      <trkpt lat="38.411275" lon="-2.3196383333333332">
        <ele>668</ele>
        <time>2014-08-24T12:08:42.17</time>
      </trkpt>
      <trkpt lat="38.41125" lon="-2.319735">
        <ele>668</ele>
        <time>2014-08-24T12:08:43.17</time>
      </trkpt>
      <trkpt lat="38.411215" lon="-2.319835">
        <ele>668</ele>
        <time>2014-08-24T12:08:44.17</time>
      </trkpt>
      <trkpt lat="38.4112" lon="-2.31993">
        <ele>666</ele>
        <time>2014-08-24T12:08:45.34</time>
      </trkpt>
      <trkpt lat="38.41118" lon="-2.320035">
        <ele>663</ele>
        <time>2014-08-24T12:08:46.17</time>
      </trkpt>
      <trkpt lat="38.411145" lon="-2.32015">
        <ele>665</ele>
        <time>2014-08-24T12:08:47.13</time>
      </trkpt>
      <trkpt lat="38.411115" lon="-2.32024">
        <ele>666</ele>
        <time>2014-08-24T12:08:48.17</time>
      </trkpt>
      <trkpt lat="38.411105" lon="-2.320351666666667">
        <ele>667</ele>
        <time>2014-08-24T12:08:49.18</time>
      </trkpt>
      <trkpt lat="38.411095" lon="-2.320455">
        <ele>665</ele>
        <time>2014-08-24T12:08:50.14</time>
      </trkpt>
      <trkpt lat="38.411075" lon="-2.32058">
        <ele>664</ele>
        <time>2014-08-24T12:08:51.30</time>
      </trkpt>
      <trkpt lat="38.411051666666665" lon="-2.32068">
        <ele>664</ele>
        <time>2014-08-24T12:08:52.16</time>
      </trkpt>
      <trkpt lat="38.411035" lon="-2.320785">
        <ele>664</ele>
        <time>2014-08-24T12:08:53.17</time>
      </trkpt>
      <trkpt lat="38.41101" lon="-2.320875">
        <ele>665</ele>
        <time>2014-08-24T12:08:54.17</time>
      </trkpt>
      <trkpt lat="38.41099" lon="-2.32098">
        <ele>665</ele>
        <time>2014-08-24T12:08:55.17</time>
      </trkpt>
      <trkpt lat="38.410975" lon="-2.32109">
        <ele>666</ele>
        <time>2014-08-24T12:08:56.17</time>
      </trkpt>
      <trkpt lat="38.410955" lon="-2.321195">
        <ele>665</ele>
        <time>2014-08-24T12:08:57.17</time>
      </trkpt>
      <trkpt lat="38.41094" lon="-2.321295">
        <ele>666</ele>
        <time>2014-08-24T12:08:58.17</time>
      </trkpt>
      <trkpt lat="38.410898333333336" lon="-2.321395">
        <ele>666</ele>
        <time>2014-08-24T12:08:59.17</time>
      </trkpt>
      <trkpt lat="38.410885" lon="-2.321485">
        <ele>666</ele>
        <time>2014-08-24T12:09:00.17</time>
      </trkpt>
      <trkpt lat="38.41087" lon="-2.32158">
        <ele>667</ele>
        <time>2014-08-24T12:09:01.17</time>
      </trkpt>
      <trkpt lat="38.41088" lon="-2.321685">
        <ele>663</ele>
        <time>2014-08-24T12:09:02.17</time>
      </trkpt>
      <trkpt lat="38.41086" lon="-2.321865">
        <ele>663</ele>
        <time>2014-08-24T12:09:04.17</time>
      </trkpt>
      <trkpt lat="38.41087" lon="-2.321975">
        <ele>662</ele>
        <time>2014-08-24T12:09:05.17</time>
      </trkpt>
      <trkpt lat="38.41085" lon="-2.3220783333333332">
        <ele>662</ele>
        <time>2014-08-24T12:09:06.17</time>
      </trkpt>
      <trkpt lat="38.410835" lon="-2.322175">
        <ele>662</ele>
        <time>2014-08-24T12:09:07.18</time>
      </trkpt>
      <trkpt lat="38.410815" lon="-2.322275">
        <ele>663</ele>
        <time>2014-08-24T12:09:08.17</time>
      </trkpt>
      <trkpt lat="38.410795" lon="-2.32239">
        <ele>664</ele>
        <time>2014-08-24T12:09:09.17</time>
      </trkpt>
      <trkpt lat="38.410758333333334" lon="-2.32249">
        <ele>665</ele>
        <time>2014-08-24T12:09:10.17</time>
      </trkpt>
      <trkpt lat="38.410725" lon="-2.322585">
        <ele>666</ele>
        <time>2014-08-24T12:09:11.17</time>
      </trkpt>
      <trkpt lat="38.41066" lon="-2.322745">
        <ele>667</ele>
        <time>2014-08-24T12:09:13.18</time>
      </trkpt>
      <trkpt lat="38.410615" lon="-2.3228400000000002">
        <ele>668</ele>
        <time>2014-08-24T12:09:14.22</time>
      </trkpt>
      <trkpt lat="38.41058" lon="-2.322935">
        <ele>668</ele>
        <time>2014-08-24T12:09:15.17</time>
      </trkpt>
      <trkpt lat="38.41054" lon="-2.323055">
        <ele>667</ele>
        <time>2014-08-24T12:09:16.17</time>
      </trkpt>
      <trkpt lat="38.410455" lon="-2.3232033333333333">
        <ele>668</ele>
        <time>2014-08-24T12:09:18.13</time>
      </trkpt>
      <trkpt lat="38.41039" lon="-2.32329">
        <ele>668</ele>
        <time>2014-08-24T12:09:19.29</time>
      </trkpt>
      <trkpt lat="38.41029" lon="-2.323435">
        <ele>669</ele>
        <time>2014-08-24T12:09:21.17</time>
      </trkpt>
      <trkpt lat="38.41024" lon="-2.32354">
        <ele>669</ele>
        <time>2014-08-24T12:09:22.17</time>
      </trkpt>
      <trkpt lat="38.41019" lon="-2.323625">
        <ele>670</ele>
        <time>2014-08-24T12:09:23.17</time>
      </trkpt>
      <trkpt lat="38.410105" lon="-2.3237783333333333">
        <ele>669</ele>
        <time>2014-08-24T12:09:25.17</time>
      </trkpt>
      <trkpt lat="38.410055" lon="-2.323855">
        <ele>668</ele>
        <time>2014-08-24T12:09:26.17</time>
      </trkpt>
      <trkpt lat="38.41001" lon="-2.323941666666667">
        <ele>667</ele>
        <time>2014-08-24T12:09:27.17</time>
      </trkpt>
      <trkpt lat="38.409405" lon="-2.325255">
        <ele>670</ele>
        <time>2014-08-24T12:09:44.11</time>
      </trkpt>
      <trkpt lat="38.409345" lon="-2.325371666666667">
        <ele>671</ele>
        <time>2014-08-24T12:09:45.17</time>
      </trkpt>
      <trkpt lat="38.409275" lon="-2.32552">
        <ele>673</ele>
        <time>2014-08-24T12:09:47.22</time>
      </trkpt>
      <trkpt lat="38.40923" lon="-2.32563">
        <ele>674</ele>
        <time>2014-08-24T12:09:49.17</time>
      </trkpt>
      <trkpt lat="38.409175" lon="-2.3257133333333333">
        <ele>678</ele>
        <time>2014-08-24T12:09:51.16</time>
      </trkpt>
      <trkpt lat="38.409135" lon="-2.325795">
        <ele>680</ele>
        <time>2014-08-24T12:09:53.17</time>
      </trkpt>
      <trkpt lat="38.409076666666664" lon="-2.32591">
        <ele>681</ele>
        <time>2014-08-24T12:09:56.17</time>
      </trkpt>
      <trkpt lat="38.409045" lon="-2.3260016666666665">
        <ele>680</ele>
        <time>2014-08-24T12:09:58.17</time>
      </trkpt>
      <trkpt lat="38.409" lon="-2.3260966666666665">
        <ele>683</ele>
        <time>2014-08-24T12:10:01.17</time>
      </trkpt>
      <trkpt lat="38.408975" lon="-2.32621">
        <ele>681</ele>
        <time>2014-08-24T12:10:04.17</time>
      </trkpt>
      <trkpt lat="38.40897" lon="-2.32613">
        <ele>681</ele>
        <time>2014-08-24T12:10:11.18</time>
      </trkpt>
      <trkpt lat="38.409081666666665" lon="-2.32599">
        <ele>682</ele>
        <time>2014-08-24T12:10:13.17</time>
      </trkpt>
      <trkpt lat="38.409105" lon="-2.325841666666667">
        <ele>681</ele>
        <time>2014-08-24T12:10:15.18</time>
      </trkpt>
      <trkpt lat="38.40914" lon="-2.32576">
        <ele>680</ele>
        <time>2014-08-24T12:10:16.17</time>
      </trkpt>
      <trkpt lat="38.409225" lon="-2.3257133333333333">
        <ele>680</ele>
        <time>2014-08-24T12:10:17.17</time>
      </trkpt>
      <trkpt lat="38.409305" lon="-2.325565">
        <ele>678</ele>
        <time>2014-08-24T12:10:19.17</time>
      </trkpt>
      <trkpt lat="38.40935" lon="-2.3254683333333332">
        <ele>677</ele>
        <time>2014-08-24T12:10:20.17</time>
      </trkpt>
      <trkpt lat="38.40938" lon="-2.32538">
        <ele>678</ele>
        <time>2014-08-24T12:10:21.17</time>
      </trkpt>
      <trkpt lat="38.40941" lon="-2.325285">
        <ele>677</ele>
        <time>2014-08-24T12:10:22.17</time>
      </trkpt>
      <trkpt lat="38.40938" lon="-2.32517">
        <ele>677</ele>
        <time>2014-08-24T12:10:23.17</time>
      </trkpt>
      <trkpt lat="38.409275" lon="-2.3251">
        <ele>676</ele>
        <time>2014-08-24T12:10:24.17</time>
      </trkpt>
      <trkpt lat="38.409135" lon="-2.32506">
        <ele>676</ele>
        <time>2014-08-24T12:10:25.17</time>
      </trkpt>
      <trkpt lat="38.409" lon="-2.32498">
        <ele>676</ele>
        <time>2014-08-24T12:10:27.17</time>
      </trkpt>
      <trkpt lat="38.40887" lon="-2.324865">
        <ele>676</ele>
        <time>2014-08-24T12:10:29.17</time>
      </trkpt>
      <trkpt lat="38.408785" lon="-2.3248100000000003">
        <ele>677</ele>
        <time>2014-08-24T12:10:30.17</time>
      </trkpt>
      <trkpt lat="38.408695" lon="-2.324795">
        <ele>678</ele>
        <time>2014-08-24T12:10:31.17</time>
      </trkpt>
      <trkpt lat="38.40862" lon="-2.324815">
        <ele>679</ele>
        <time>2014-08-24T12:10:32.17</time>
      </trkpt>
      <trkpt lat="38.408545" lon="-2.324865">
        <ele>677</ele>
        <time>2014-08-24T12:10:33.17</time>
      </trkpt>
      <trkpt lat="38.408485" lon="-2.32492">
        <ele>679</ele>
        <time>2014-08-24T12:10:34.17</time>
      </trkpt>
      <trkpt lat="38.408425" lon="-2.324995">
        <ele>681</ele>
        <time>2014-08-24T12:10:35.17</time>
      </trkpt>
      <trkpt lat="38.40837" lon="-2.325095">
        <ele>679</ele>
        <time>2014-08-24T12:10:36.17</time>
      </trkpt>
      <trkpt lat="38.40833" lon="-2.32526">
        <ele>678</ele>
        <time>2014-08-24T12:10:38.17</time>
      </trkpt>
      <trkpt lat="38.40832" lon="-2.32538">
        <ele>679</ele>
        <time>2014-08-24T12:10:40.17</time>
      </trkpt>
      <trkpt lat="38.408323333333335" lon="-2.325476666666667">
        <ele>679</ele>
        <time>2014-08-24T12:10:42.17</time>
      </trkpt>
      <trkpt lat="38.408315" lon="-2.32561">
        <ele>681</ele>
        <time>2014-08-24T12:10:45.18</time>
      </trkpt>
      <trkpt lat="38.40831" lon="-2.32571">
        <ele>680</ele>
        <time>2014-08-24T12:10:47.14</time>
      </trkpt>
      <trkpt lat="38.40828" lon="-2.3258">
        <ele>680</ele>
        <time>2014-08-24T12:10:49.16</time>
      </trkpt>
      <trkpt lat="38.408235" lon="-2.32588">
        <ele>680</ele>
        <time>2014-08-24T12:10:51.27</time>
      </trkpt>
      <trkpt lat="38.40818" lon="-2.32597">
        <ele>682</ele>
        <time>2014-08-24T12:10:54.17</time>
      </trkpt>
      <trkpt lat="38.408105" lon="-2.326025">
        <ele>680</ele>
        <time>2014-08-24T12:10:57.29</time>
      </trkpt>
      <trkpt lat="38.40802" lon="-2.326065">
        <ele>681</ele>
        <time>2014-08-24T12:11:00.17</time>
      </trkpt>
      <trkpt lat="38.407915" lon="-2.326095">
        <ele>681</ele>
        <time>2014-08-24T12:11:03.17</time>
      </trkpt>
      <trkpt lat="38.40784" lon="-2.32611">
        <ele>682</ele>
        <time>2014-08-24T12:11:05.17</time>
      </trkpt>
      <trkpt lat="38.407745" lon="-2.3260966666666665">
        <ele>684</ele>
        <time>2014-08-24T12:11:08.17</time>
      </trkpt>
      <trkpt lat="38.40766" lon="-2.326065">
        <ele>687</ele>
        <time>2014-08-24T12:11:11.17</time>
      </trkpt>
      <trkpt lat="38.407585" lon="-2.3260083333333332">
        <ele>691</ele>
        <time>2014-08-24T12:11:13.17</time>
      </trkpt>
      <trkpt lat="38.4075" lon="-2.325945">
        <ele>690</ele>
        <time>2014-08-24T12:11:16.16</time>
      </trkpt>
      <trkpt lat="38.40747" lon="-2.325855">
        <ele>692</ele>
        <time>2014-08-24T12:11:18.17</time>
      </trkpt>
      <trkpt lat="38.40749" lon="-2.3257316666666665">
        <ele>693</ele>
        <time>2014-08-24T12:11:20.21</time>
      </trkpt>
      <trkpt lat="38.407535" lon="-2.325635">
        <ele>692</ele>
        <time>2014-08-24T12:11:22.16</time>
      </trkpt>
      <trkpt lat="38.40759" lon="-2.325545">
        <ele>694</ele>
        <time>2014-08-24T12:11:24.17</time>
      </trkpt>
      <trkpt lat="38.407665" lon="-2.3254683333333332">
        <ele>692</ele>
        <time>2014-08-24T12:11:26.17</time>
      </trkpt>
      <trkpt lat="38.40773333333333" lon="-2.32539">
        <ele>689</ele>
        <time>2014-08-24T12:11:28.17</time>
      </trkpt>
      <trkpt lat="38.407785" lon="-2.3253">
        <ele>687</ele>
        <time>2014-08-24T12:11:30.18</time>
      </trkpt>
      <trkpt lat="38.407825" lon="-2.325205">
        <ele>685</ele>
        <time>2014-08-24T12:11:32.17</time>
      </trkpt>
      <trkpt lat="38.40786" lon="-2.3251116666666665">
        <ele>689</ele>
        <time>2014-08-24T12:11:34.17</time>
      </trkpt>
      <trkpt lat="38.407895" lon="-2.32503">
        <ele>690</ele>
        <time>2014-08-24T12:11:36.17</time>
      </trkpt>
      <trkpt lat="38.40793" lon="-2.324905">
        <ele>692</ele>
        <time>2014-08-24T12:11:39.16</time>
      </trkpt>
      <trkpt lat="38.407995" lon="-2.324795">
        <ele>693</ele>
        <time>2014-08-24T12:11:42.18</time>
      </trkpt>
      <trkpt lat="38.40805" lon="-2.32468">
        <ele>692</ele>
        <time>2014-08-24T12:11:45.26</time>
      </trkpt>
      <trkpt lat="38.408125" lon="-2.324585">
        <ele>689</ele>
        <time>2014-08-24T12:11:48.13</time>
      </trkpt>
      <trkpt lat="38.40818" lon="-2.32447">
        <ele>688</ele>
        <time>2014-08-24T12:11:51.16</time>
      </trkpt>
      <trkpt lat="38.408225" lon="-2.32435">
        <ele>689</ele>
        <time>2014-08-24T12:11:54.18</time>
      </trkpt>
      <trkpt lat="38.40825" lon="-2.3242599999999998">
        <ele>692</ele>
        <time>2014-08-24T12:11:56.17</time>
      </trkpt>
      <trkpt lat="38.40828" lon="-2.324175">
        <ele>695</ele>
        <time>2014-08-24T12:11:58.16</time>
      </trkpt>
      <trkpt lat="38.408305" lon="-2.32409">
        <ele>698</ele>
        <time>2014-08-24T12:12:00.17</time>
      </trkpt>
      <trkpt lat="38.408335" lon="-2.323995">
        <ele>699</ele>
        <time>2014-08-24T12:12:02.16</time>
      </trkpt>
      <trkpt lat="38.40835" lon="-2.3238833333333333">
        <ele>697</ele>
        <time>2014-08-24T12:12:04.17</time>
      </trkpt>
      <trkpt lat="38.408355" lon="-2.323775">
        <ele>696</ele>
        <time>2014-08-24T12:12:06.16</time>
      </trkpt>
      <trkpt lat="38.408335" lon="-2.323665">
        <ele>696</ele>
        <time>2014-08-24T12:12:08.16</time>
      </trkpt>
      <trkpt lat="38.408315" lon="-2.323555">
        <ele>698</ele>
        <time>2014-08-24T12:12:10.16</time>
      </trkpt>
      <trkpt lat="38.408305" lon="-2.323455">
        <ele>698</ele>
        <time>2014-08-24T12:12:12.16</time>
      </trkpt>
      <trkpt lat="38.40824833333333" lon="-2.323355">
        <ele>698</ele>
        <time>2014-08-24T12:12:14.25</time>
      </trkpt>
      <trkpt lat="38.40819" lon="-2.323271666666667">
        <ele>698</ele>
        <time>2014-08-24T12:12:16.16</time>
      </trkpt>
      <trkpt lat="38.40814" lon="-2.323185">
        <ele>700</ele>
        <time>2014-08-24T12:12:18.12</time>
      </trkpt>
      <trkpt lat="38.408105" lon="-2.323095">
        <ele>698</ele>
        <time>2014-08-24T12:12:20.16</time>
      </trkpt>
      <trkpt lat="38.408085" lon="-2.323">
        <ele>700</ele>
        <time>2014-08-24T12:12:22.16</time>
      </trkpt>
      <trkpt lat="38.408075" lon="-2.322905">
        <ele>700</ele>
        <time>2014-08-24T12:12:24.16</time>
      </trkpt>
      <trkpt lat="38.408098333333335" lon="-2.322815">
        <ele>702</ele>
        <time>2014-08-24T12:12:26.16</time>
      </trkpt>
      <trkpt lat="38.40814" lon="-2.322725">
        <ele>702</ele>
        <time>2014-08-24T12:12:28.17</time>
      </trkpt>
      <trkpt lat="38.40821" lon="-2.32265">
        <ele>704</ele>
        <time>2014-08-24T12:12:30.16</time>
      </trkpt>
      <trkpt lat="38.408295" lon="-2.32259">
        <ele>706</ele>
        <time>2014-08-24T12:12:32.16</time>
      </trkpt>
      <trkpt lat="38.40836" lon="-2.32252">
        <ele>708</ele>
        <time>2014-08-24T12:12:34.16</time>
      </trkpt>
      <trkpt lat="38.40841" lon="-2.322445">
        <ele>711</ele>
        <time>2014-08-24T12:12:36.17</time>
      </trkpt>
      <trkpt lat="38.408465" lon="-2.32237">
        <ele>714</ele>
        <time>2014-08-24T12:12:38.17</time>
      </trkpt>
      <trkpt lat="38.40851" lon="-2.3223000000000003">
        <ele>718</ele>
        <time>2014-08-24T12:12:40.17</time>
      </trkpt>
      <trkpt lat="38.408555" lon="-2.32222">
        <ele>718</ele>
        <time>2014-08-24T12:12:42.16</time>
      </trkpt>
      <trkpt lat="38.40859" lon="-2.32213">
        <ele>717</ele>
        <time>2014-08-24T12:12:44.17</time>
      </trkpt>
      <trkpt lat="38.40862" lon="-2.322035">
        <ele>715</ele>
        <time>2014-08-24T12:12:46.16</time>
      </trkpt>
      <trkpt lat="38.40864" lon="-2.32194">
        <ele>715</ele>
        <time>2014-08-24T12:12:48.16</time>
      </trkpt>
      <trkpt lat="38.40865" lon="-2.32184">
        <ele>714</ele>
        <time>2014-08-24T12:12:50.21</time>
      </trkpt>
      <trkpt lat="38.408615" lon="-2.32174">
        <ele>716</ele>
        <time>2014-08-24T12:12:52.16</time>
      </trkpt>
      <trkpt lat="38.40856" lon="-2.321655">
        <ele>716</ele>
        <time>2014-08-24T12:12:54.16</time>
      </trkpt>
      <trkpt lat="38.40849333333333" lon="-2.321585">
        <ele>718</ele>
        <time>2014-08-24T12:12:56.17</time>
      </trkpt>
      <trkpt lat="38.40842" lon="-2.32153">
        <ele>717</ele>
        <time>2014-08-24T12:12:58.16</time>
      </trkpt>
      <trkpt lat="38.408335" lon="-2.32149">
        <ele>719</ele>
        <time>2014-08-24T12:13:00.17</time>
      </trkpt>
      <trkpt lat="38.408245" lon="-2.321455">
        <ele>721</ele>
        <time>2014-08-24T12:13:02.16</time>
      </trkpt>
      <trkpt lat="38.408166666666666" lon="-2.32142">
        <ele>720</ele>
        <time>2014-08-24T12:13:04.16</time>
      </trkpt>
      <trkpt lat="38.408105" lon="-2.3213616666666668">
        <ele>721</ele>
        <time>2014-08-24T12:13:06.17</time>
      </trkpt>
      <trkpt lat="38.408045" lon="-2.321266666666667">
        <ele>722</ele>
        <time>2014-08-24T12:13:08.16</time>
      </trkpt>
      <trkpt lat="38.408075" lon="-2.321115">
        <ele>722</ele>
        <time>2014-08-24T12:13:10.17</time>
      </trkpt>
      <trkpt lat="38.408095" lon="-2.3210100000000002">
        <ele>720</ele>
        <time>2014-08-24T12:13:12.16</time>
      </trkpt>
      <trkpt lat="38.408145" lon="-2.32093">
        <ele>720</ele>
        <time>2014-08-24T12:13:14.20</time>
      </trkpt>
      <trkpt lat="38.408175" lon="-2.3208349999999998">
        <ele>717</ele>
        <time>2014-08-24T12:13:16.16</time>
      </trkpt>
      <trkpt lat="38.408135" lon="-2.320735">
        <ele>717</ele>
        <time>2014-08-24T12:13:18.16</time>
      </trkpt>
      <trkpt lat="38.40807" lon="-2.320645">
        <ele>718</ele>
        <time>2014-08-24T12:13:21.16</time>
      </trkpt>
      <trkpt lat="38.408" lon="-2.32056">
        <ele>720</ele>
        <time>2014-08-24T12:13:24.16</time>
      </trkpt>
      <trkpt lat="38.40794" lon="-2.320495">
        <ele>720</ele>
        <time>2014-08-24T12:13:26.16</time>
      </trkpt>
      <trkpt lat="38.4079" lon="-2.320415">
        <ele>721</ele>
        <time>2014-08-24T12:13:28.16</time>
      </trkpt>
      <trkpt lat="38.407865" lon="-2.320325">
        <ele>721</ele>
        <time>2014-08-24T12:13:30.16</time>
      </trkpt>
      <trkpt lat="38.407855" lon="-2.32023">
        <ele>720</ele>
        <time>2014-08-24T12:13:32.17</time>
      </trkpt>
      <trkpt lat="38.407855" lon="-2.32013">
        <ele>721</ele>
        <time>2014-08-24T12:13:34.18</time>
      </trkpt>
      <trkpt lat="38.40784" lon="-2.32003">
        <ele>723</ele>
        <time>2014-08-24T12:13:36.29</time>
      </trkpt>
      <trkpt lat="38.40781" lon="-2.319935">
        <ele>722</ele>
        <time>2014-08-24T12:13:38.16</time>
      </trkpt>
      <trkpt lat="38.40777" lon="-2.319845">
        <ele>722</ele>
        <time>2014-08-24T12:13:40.16</time>
      </trkpt>
      <trkpt lat="38.407725" lon="-2.319775">
        <ele>725</ele>
        <time>2014-08-24T12:13:42.16</time>
      </trkpt>
      <trkpt lat="38.407675" lon="-2.3197">
        <ele>728</ele>
        <time>2014-08-24T12:13:44.16</time>
      </trkpt>
      <trkpt lat="38.40763" lon="-2.3196149999999998">
        <ele>728</ele>
        <time>2014-08-24T12:13:46.16</time>
      </trkpt>
      <trkpt lat="38.40762" lon="-2.3195">
        <ele>730</ele>
        <time>2014-08-24T12:13:48.16</time>
      </trkpt>
      <trkpt lat="38.407705" lon="-2.31945">
        <ele>732</ele>
        <time>2014-08-24T12:13:50.16</time>
      </trkpt>
      <trkpt lat="38.40774" lon="-2.319355">
        <ele>734</ele>
        <time>2014-08-24T12:13:52.16</time>
      </trkpt>
      <trkpt lat="38.407801666666664" lon="-2.31928">
        <ele>735</ele>
        <time>2014-08-24T12:13:54.16</time>
      </trkpt>
      <trkpt lat="38.407825" lon="-2.319185">
        <ele>736</ele>
        <time>2014-08-24T12:13:56.16</time>
      </trkpt>
      <trkpt lat="38.407865" lon="-2.319085">
        <ele>736</ele>
        <time>2014-08-24T12:13:58.16</time>
      </trkpt>
      <trkpt lat="38.40788833333333" lon="-2.318985">
        <ele>735</ele>
        <time>2014-08-24T12:14:00.21</time>
      </trkpt>
      <trkpt lat="38.407915" lon="-2.31889">
        <ele>735</ele>
        <time>2014-08-24T12:14:02.12</time>
      </trkpt>
      <trkpt lat="38.407935" lon="-2.31879">
        <ele>736</ele>
        <time>2014-08-24T12:14:04.12</time>
      </trkpt>
      <trkpt lat="38.40794" lon="-2.31869">
        <ele>733</ele>
        <time>2014-08-24T12:14:06.17</time>
      </trkpt>
      <trkpt lat="38.407935" lon="-2.31859">
        <ele>735</ele>
        <time>2014-08-24T12:14:08.17</time>
      </trkpt>
      <trkpt lat="38.407935" lon="-2.3184883333333333">
        <ele>735</ele>
        <time>2014-08-24T12:14:10.16</time>
      </trkpt>
      <trkpt lat="38.407925" lon="-2.31839">
        <ele>734</ele>
        <time>2014-08-24T12:14:12.16</time>
      </trkpt>
      <trkpt lat="38.407915" lon="-2.318295">
        <ele>733</ele>
        <time>2014-08-24T12:14:14.18</time>
      </trkpt>
      <trkpt lat="38.40792" lon="-2.3181950000000002">
        <ele>733</ele>
        <time>2014-08-24T12:14:16.14</time>
      </trkpt>
      <trkpt lat="38.407925" lon="-2.31808">
        <ele>735</ele>
        <time>2014-08-24T12:14:18.17</time>
      </trkpt>
      <trkpt lat="38.407941666666666" lon="-2.31797">
        <ele>734</ele>
        <time>2014-08-24T12:14:20.17</time>
      </trkpt>
      <trkpt lat="38.40797" lon="-2.317865">
        <ele>734</ele>
        <time>2014-08-24T12:14:22.16</time>
      </trkpt>
      <trkpt lat="38.408005" lon="-2.31777">
        <ele>734</ele>
        <time>2014-08-24T12:14:24.16</time>
      </trkpt>
      <trkpt lat="38.408045" lon="-2.317675">
        <ele>732</ele>
        <time>2014-08-24T12:14:26.16</time>
      </trkpt>
      <trkpt lat="38.40805" lon="-2.3175683333333335">
        <ele>733</ele>
        <time>2014-08-24T12:14:28.12</time>
      </trkpt>
      <trkpt lat="38.407336666666666" lon="-2.3171283333333332">
        <ele>751</ele>
        <time>2014-08-24T12:14:47.15</time>
      </trkpt>
      <trkpt lat="38.407285" lon="-2.317205">
        <ele>753</ele>
        <time>2014-08-24T12:14:49.14</time>
      </trkpt>
      <trkpt lat="38.40723" lon="-2.31729">
        <ele>753</ele>
        <time>2014-08-24T12:14:51.16</time>
      </trkpt>
      <trkpt lat="38.40717" lon="-2.317365">
        <ele>754</ele>
        <time>2014-08-24T12:14:53.16</time>
      </trkpt>
      <trkpt lat="38.407085" lon="-2.3173983333333332">
        <ele>753</ele>
        <time>2014-08-24T12:14:56.16</time>
      </trkpt>
      <trkpt lat="38.406985" lon="-2.317385">
        <ele>753</ele>
        <time>2014-08-24T12:14:59.16</time>
      </trkpt>
      <trkpt lat="38.40692" lon="-2.317311666666667">
        <ele>754</ele>
        <time>2014-08-24T12:15:01.16</time>
      </trkpt>
      <trkpt lat="38.406885" lon="-2.31721">
        <ele>755</ele>
        <time>2014-08-24T12:15:03.16</time>
      </trkpt>
      <trkpt lat="38.406855" lon="-2.31711">
        <ele>757</ele>
        <time>2014-08-24T12:15:05.16</time>
      </trkpt>
      <trkpt lat="38.406815" lon="-2.31702">
        <ele>757</ele>
        <time>2014-08-24T12:15:07.12</time>
      </trkpt>
      <trkpt lat="38.40677" lon="-2.3169399999999998">
        <ele>756</ele>
        <time>2014-08-24T12:15:09.12</time>
      </trkpt>
      <trkpt lat="38.406715" lon="-2.316875">
        <ele>756</ele>
        <time>2014-08-24T12:15:11.16</time>
      </trkpt>
      <trkpt lat="38.40665" lon="-2.316825">
        <ele>755</ele>
        <time>2014-08-24T12:15:13.28</time>
      </trkpt>
      <trkpt lat="38.406575" lon="-2.3167983333333333">
        <ele>755</ele>
        <time>2014-08-24T12:15:15.16</time>
      </trkpt>
      <trkpt lat="38.4065" lon="-2.316785">
        <ele>753</ele>
        <time>2014-08-24T12:15:17.16</time>
      </trkpt>
      <trkpt lat="38.40642" lon="-2.316755">
        <ele>754</ele>
        <time>2014-08-24T12:15:19.27</time>
      </trkpt>
      <trkpt lat="38.406351666666666" lon="-2.3167">
        <ele>755</ele>
        <time>2014-08-24T12:15:21.16</time>
      </trkpt>
      <trkpt lat="38.4063" lon="-2.316625">
        <ele>754</ele>
        <time>2014-08-24T12:15:23.16</time>
      </trkpt>
      <trkpt lat="38.406275" lon="-2.316525">
        <ele>757</ele>
        <time>2014-08-24T12:15:25.16</time>
      </trkpt>
      <trkpt lat="38.406281666666665" lon="-2.316415">
        <ele>752</ele>
        <time>2014-08-24T12:15:27.16</time>
      </trkpt>
      <trkpt lat="38.40632" lon="-2.3163116666666665">
        <ele>752</ele>
        <time>2014-08-24T12:15:29.16</time>
      </trkpt>
      <trkpt lat="38.406385" lon="-2.3162233333333333">
        <ele>753</ele>
        <time>2014-08-24T12:15:31.14</time>
      </trkpt>
      <trkpt lat="38.40645" lon="-2.3161416666666668">
        <ele>754</ele>
        <time>2014-08-24T12:15:33.16</time>
      </trkpt>
      <trkpt lat="38.40652" lon="-2.316055">
        <ele>755</ele>
        <time>2014-08-24T12:15:35.16</time>
      </trkpt>
      <trkpt lat="38.40659333333333" lon="-2.315935">
        <ele>755</ele>
        <time>2014-08-24T12:15:37.16</time>
      </trkpt>
      <trkpt lat="38.406655" lon="-2.31582">
        <ele>755</ele>
        <time>2014-08-24T12:15:39.16</time>
      </trkpt>
      <trkpt lat="38.40669" lon="-2.315705">
        <ele>755</ele>
        <time>2014-08-24T12:15:41.16</time>
      </trkpt>
      <trkpt lat="38.406745" lon="-2.315601666666667">
        <ele>755</ele>
        <time>2014-08-24T12:15:43.16</time>
      </trkpt>
      <trkpt lat="38.40678" lon="-2.31548">
        <ele>756</ele>
        <time>2014-08-24T12:15:45.16</time>
      </trkpt>
      <trkpt lat="38.406815" lon="-2.3153433333333333">
        <ele>756</ele>
        <time>2014-08-24T12:15:47.15</time>
      </trkpt>
      <trkpt lat="38.40683" lon="-2.3152150000000002">
        <ele>758</ele>
        <time>2014-08-24T12:15:49.16</time>
      </trkpt>
      <trkpt lat="38.406815" lon="-2.315065">
        <ele>757</ele>
        <time>2014-08-24T12:15:51.16</time>
      </trkpt>
      <trkpt lat="38.40677" lon="-2.31494">
        <ele>758</ele>
        <time>2014-08-24T12:15:53.16</time>
      </trkpt>
      <trkpt lat="38.406705" lon="-2.31483">
        <ele>759</ele>
        <time>2014-08-24T12:15:55.12</time>
      </trkpt>
      <trkpt lat="38.406635" lon="-2.31472">
        <ele>760</ele>
        <time>2014-08-24T12:15:57.16</time>
      </trkpt>
      <trkpt lat="38.406575" lon="-2.3146">
        <ele>764</ele>
        <time>2014-08-24T12:15:59.16</time>
      </trkpt>
      <trkpt lat="38.40652" lon="-2.314485">
        <ele>764</ele>
        <time>2014-08-24T12:16:01.20</time>
      </trkpt>
      <trkpt lat="38.40652" lon="-2.314356666666667">
        <ele>766</ele>
        <time>2014-08-24T12:16:03.16</time>
      </trkpt>
      <trkpt lat="38.406515" lon="-2.314225">
        <ele>772</ele>
        <time>2014-08-24T12:16:05.16</time>
      </trkpt>
      <trkpt lat="38.40652333333333" lon="-2.314095">
        <ele>772</ele>
        <time>2014-08-24T12:16:07.16</time>
      </trkpt>
      <trkpt lat="38.406545" lon="-2.31397">
        <ele>770</ele>
        <time>2014-08-24T12:16:09.16</time>
      </trkpt>
      <trkpt lat="38.406535" lon="-2.313865">
        <ele>770</ele>
        <time>2014-08-24T12:16:11.16</time>
      </trkpt>
      <trkpt lat="38.406495" lon="-2.31377">
        <ele>772</ele>
        <time>2014-08-24T12:16:13.16</time>
      </trkpt>
      <trkpt lat="38.406445" lon="-2.31367">
        <ele>774</ele>
        <time>2014-08-24T12:16:15.32</time>
      </trkpt>
      <trkpt lat="38.40639" lon="-2.313585">
        <ele>773</ele>
        <time>2014-08-24T12:16:17.20</time>
      </trkpt>
      <trkpt lat="38.40627833333333" lon="-2.313495">
        <ele>774</ele>
        <time>2014-08-24T12:16:19.21</time>
      </trkpt>
      <trkpt lat="38.406225" lon="-2.31344">
        <ele>775</ele>
        <time>2014-08-24T12:16:21.20</time>
      </trkpt>
      <trkpt lat="38.40616" lon="-2.31338">
        <ele>773</ele>
        <time>2014-08-24T12:16:23.16</time>
      </trkpt>
      <trkpt lat="38.406085" lon="-2.31333">
        <ele>771</ele>
        <time>2014-08-24T12:16:25.16</time>
      </trkpt>
      <trkpt lat="38.406" lon="-2.313275">
        <ele>775</ele>
        <time>2014-08-24T12:16:27.16</time>
      </trkpt>
      <trkpt lat="38.405885" lon="-2.313206666666667">
        <ele>778</ele>
        <time>2014-08-24T12:16:29.15</time>
      </trkpt>
      <trkpt lat="38.40577" lon="-2.313155">
        <ele>777</ele>
        <time>2014-08-24T12:16:32.25</time>
      </trkpt>
      <trkpt lat="38.405685" lon="-2.31313">
        <ele>779</ele>
        <time>2014-08-24T12:16:34.16</time>
      </trkpt>
      <trkpt lat="38.40559" lon="-2.31317">
        <ele>776</ele>
        <time>2014-08-24T12:16:36.16</time>
      </trkpt>
      <trkpt lat="38.40551" lon="-2.31322">
        <ele>777</ele>
        <time>2014-08-24T12:16:38.16</time>
      </trkpt>
      <trkpt lat="38.40541" lon="-2.313245">
        <ele>778</ele>
        <time>2014-08-24T12:16:40.12</time>
      </trkpt>
      <trkpt lat="38.405335" lon="-2.3133150000000002">
        <ele>780</ele>
        <time>2014-08-24T12:16:42.16</time>
      </trkpt>
      <trkpt lat="38.405265" lon="-2.31339">
        <ele>779</ele>
        <time>2014-08-24T12:16:44.16</time>
      </trkpt>
      <trkpt lat="38.40519" lon="-2.3134533333333334">
        <ele>781</ele>
        <time>2014-08-24T12:16:46.16</time>
      </trkpt>
      <trkpt lat="38.405115" lon="-2.31351">
        <ele>778</ele>
        <time>2014-08-24T12:16:48.16</time>
      </trkpt>
      <trkpt lat="38.405035" lon="-2.313525">
        <ele>775</ele>
        <time>2014-08-24T12:16:50.16</time>
      </trkpt>
      <trkpt lat="38.40496" lon="-2.313495">
        <ele>772</ele>
        <time>2014-08-24T12:16:52.16</time>
      </trkpt>
      <trkpt lat="38.404895" lon="-2.31342">
        <ele>775</ele>
        <time>2014-08-24T12:16:54.16</time>
      </trkpt>
      <trkpt lat="38.40494" lon="-2.313235">
        <ele>776</ele>
        <time>2014-08-24T12:16:56.16</time>
      </trkpt>
      <trkpt lat="38.405015" lon="-2.313136666666667">
        <ele>776</ele>
        <time>2014-08-24T12:16:58.16</time>
      </trkpt>
      <trkpt lat="38.40507" lon="-2.31303">
        <ele>776</ele>
        <time>2014-08-24T12:17:00.16</time>
      </trkpt>
      <trkpt lat="38.405125" lon="-2.31292">
        <ele>778</ele>
        <time>2014-08-24T12:17:02.16</time>
      </trkpt>
      <trkpt lat="38.405141666666665" lon="-2.312815">
        <ele>776</ele>
        <time>2014-08-24T12:17:04.16</time>
      </trkpt>
      <trkpt lat="38.405125" lon="-2.3127">
        <ele>779</ele>
        <time>2014-08-24T12:17:06.16</time>
      </trkpt>
      <trkpt lat="38.405065" lon="-2.31258">
        <ele>780</ele>
        <time>2014-08-24T12:17:08.16</time>
      </trkpt>
      <trkpt lat="38.405015" lon="-2.312485">
        <ele>780</ele>
        <time>2014-08-24T12:17:10.16</time>
      </trkpt>
      <trkpt lat="38.40495" lon="-2.312405">
        <ele>781</ele>
        <time>2014-08-24T12:17:12.16</time>
      </trkpt>
      <trkpt lat="38.40486" lon="-2.31236">
        <ele>782</ele>
        <time>2014-08-24T12:17:14.24</time>
      </trkpt>
      <trkpt lat="38.404785" lon="-2.31234">
        <ele>783</ele>
        <time>2014-08-24T12:17:16.12</time>
      </trkpt>
      <trkpt lat="38.40471" lon="-2.31232">
        <ele>785</ele>
        <time>2014-08-24T12:17:18.16</time>
      </trkpt>
      <trkpt lat="38.40464" lon="-2.3123">
        <ele>784</ele>
        <time>2014-08-24T12:17:20.16</time>
      </trkpt>
      <trkpt lat="38.40457" lon="-2.312265">
        <ele>786</ele>
        <time>2014-08-24T12:17:22.16</time>
      </trkpt>
      <trkpt lat="38.40451" lon="-2.312205">
        <ele>787</ele>
        <time>2014-08-24T12:17:24.16</time>
      </trkpt>
      <trkpt lat="38.40446" lon="-2.31213">
        <ele>787</ele>
        <time>2014-08-24T12:17:26.21</time>
      </trkpt>
      <trkpt lat="38.40442" lon="-2.31204">
        <ele>788</ele>
        <time>2014-08-24T12:17:28.16</time>
      </trkpt>
      <trkpt lat="38.404355" lon="-2.31195">
        <ele>789</ele>
        <time>2014-08-24T12:17:31.16</time>
      </trkpt>
      <trkpt lat="38.40427" lon="-2.31194">
        <ele>791</ele>
        <time>2014-08-24T12:17:34.16</time>
      </trkpt>
      <trkpt lat="38.4042" lon="-2.312035">
        <ele>790</ele>
        <time>2014-08-24T12:17:37.16</time>
      </trkpt>
      <trkpt lat="38.40418" lon="-2.312125">
        <ele>789</ele>
        <time>2014-08-24T12:17:39.16</time>
      </trkpt>
      <trkpt lat="38.40418" lon="-2.312221666666667">
        <ele>790</ele>
        <time>2014-08-24T12:17:41.17</time>
      </trkpt>
      <trkpt lat="38.404185" lon="-2.312315">
        <ele>791</ele>
        <time>2014-08-24T12:17:43.16</time>
      </trkpt>
      <trkpt lat="38.404185" lon="-2.31241">
        <ele>790</ele>
        <time>2014-08-24T12:17:45.16</time>
      </trkpt>
      <trkpt lat="38.40418" lon="-2.31251">
        <ele>791</ele>
        <time>2014-08-24T12:17:47.14</time>
      </trkpt>
      <trkpt lat="38.40417" lon="-2.312605">
        <ele>792</ele>
        <time>2014-08-24T12:17:49.14</time>
      </trkpt>
      <trkpt lat="38.40415333333333" lon="-2.312695">
        <ele>794</ele>
        <time>2014-08-24T12:17:51.16</time>
      </trkpt>
      <trkpt lat="38.404115" lon="-2.312815">
        <ele>794</ele>
        <time>2014-08-24T12:17:54.17</time>
      </trkpt>
      <trkpt lat="38.40407" lon="-2.312935">
        <ele>791</ele>
        <time>2014-08-24T12:17:57.16</time>
      </trkpt>
      <trkpt lat="38.40406" lon="-2.3130699999999997">
        <ele>792</ele>
        <time>2014-08-24T12:18:00.16</time>
      </trkpt>
      <trkpt lat="38.40408" lon="-2.313205">
        <ele>792</ele>
        <time>2014-08-24T12:18:03.16</time>
      </trkpt>
      <trkpt lat="38.404105" lon="-2.313335">
        <ele>792</ele>
        <time>2014-08-24T12:18:06.16</time>
      </trkpt>
      <trkpt lat="38.404135" lon="-2.3134533333333334">
        <ele>798</ele>
        <time>2014-08-24T12:18:09.16</time>
      </trkpt>
      <trkpt lat="38.40415" lon="-2.31359">
        <ele>794</ele>
        <time>2014-08-24T12:18:12.16</time>
      </trkpt>
      <trkpt lat="38.40413" lon="-2.313675">
        <ele>794</ele>
        <time>2014-08-24T12:18:14.17</time>
      </trkpt>
      <trkpt lat="38.404065" lon="-2.31377">
        <ele>797</ele>
        <time>2014-08-24T12:18:17.16</time>
      </trkpt>
      <trkpt lat="38.40399" lon="-2.313775">
        <ele>797</ele>
        <time>2014-08-24T12:18:19.15</time>
      </trkpt>
      <trkpt lat="38.40392" lon="-2.31374">
        <ele>798</ele>
        <time>2014-08-24T12:18:21.20</time>
      </trkpt>
      <trkpt lat="38.40386" lon="-2.31367">
        <ele>802</ele>
        <time>2014-08-24T12:18:23.16</time>
      </trkpt>
      <trkpt lat="38.403815" lon="-2.313575">
        <ele>805</ele>
        <time>2014-08-24T12:18:25.16</time>
      </trkpt>
      <trkpt lat="38.403785" lon="-2.31346">
        <ele>806</ele>
        <time>2014-08-24T12:18:27.17</time>
      </trkpt>
      <trkpt lat="38.40375" lon="-2.31335">
        <ele>807</ele>
        <time>2014-08-24T12:18:29.17</time>
      </trkpt>
      <trkpt lat="38.403706666666665" lon="-2.31324">
        <ele>810</ele>
        <time>2014-08-24T12:18:31.17</time>
      </trkpt>
      <trkpt lat="38.403675" lon="-2.313135">
        <ele>811</ele>
        <time>2014-08-24T12:18:33.17</time>
      </trkpt>
      <trkpt lat="38.403636666666664" lon="-2.313035">
        <ele>811</ele>
        <time>2014-08-24T12:18:35.16</time>
      </trkpt>
      <trkpt lat="38.40361" lon="-2.312935">
        <ele>813</ele>
        <time>2014-08-24T12:18:37.16</time>
      </trkpt>
      <trkpt lat="38.4036" lon="-2.31284">
        <ele>817</ele>
        <time>2014-08-24T12:18:39.16</time>
      </trkpt>
      <trkpt lat="38.4036" lon="-2.312735">
        <ele>815</ele>
        <time>2014-08-24T12:18:41.16</time>
      </trkpt>
      <trkpt lat="38.40361" lon="-2.312635">
        <ele>817</ele>
        <time>2014-08-24T12:18:43.18</time>
      </trkpt>
      <trkpt lat="38.403623333333336" lon="-2.3125283333333333">
        <ele>815</ele>
        <time>2014-08-24T12:18:45.16</time>
      </trkpt>
      <trkpt lat="38.40365" lon="-2.31242">
        <ele>816</ele>
        <time>2014-08-24T12:18:47.12</time>
      </trkpt>
      <trkpt lat="38.40367" lon="-2.31231">
        <ele>817</ele>
        <time>2014-08-24T12:18:49.16</time>
      </trkpt>
      <trkpt lat="38.403665" lon="-2.3121983333333334">
        <ele>817</ele>
        <time>2014-08-24T12:18:51.16</time>
      </trkpt>
      <trkpt lat="38.403636666666664" lon="-2.312085">
        <ele>815</ele>
        <time>2014-08-24T12:18:53.16</time>
      </trkpt>
      <trkpt lat="38.403595" lon="-2.311975">
        <ele>813</ele>
        <time>2014-08-24T12:18:55.16</time>
      </trkpt>
      <trkpt lat="38.403525" lon="-2.31191">
        <ele>814</ele>
        <time>2014-08-24T12:18:57.16</time>
      </trkpt>
      <trkpt lat="38.40344" lon="-2.311905">
        <ele>814</ele>
        <time>2014-08-24T12:18:59.16</time>
      </trkpt>
      <trkpt lat="38.403345" lon="-2.311965">
        <ele>816</ele>
        <time>2014-08-24T12:19:02.16</time>
      </trkpt>
      <trkpt lat="38.40331" lon="-2.312055">
        <ele>814</ele>
        <time>2014-08-24T12:19:04.16</time>
      </trkpt>
      <trkpt lat="38.4033" lon="-2.31216">
        <ele>812</ele>
        <time>2014-08-24T12:19:06.16</time>
      </trkpt>
      <trkpt lat="38.40331" lon="-2.312265">
        <ele>812</ele>
        <time>2014-08-24T12:19:08.16</time>
      </trkpt>
      <trkpt lat="38.403325" lon="-2.31236">
        <ele>812</ele>
        <time>2014-08-24T12:19:10.16</time>
      </trkpt>
      <trkpt lat="38.40332166666666" lon="-2.312465">
        <ele>812</ele>
        <time>2014-08-24T12:19:12.16</time>
      </trkpt>
      <trkpt lat="38.40331" lon="-2.31257">
        <ele>812</ele>
        <time>2014-08-24T12:19:14.16</time>
      </trkpt>
      <trkpt lat="38.4033" lon="-2.312675">
        <ele>812</ele>
        <time>2014-08-24T12:19:16.12</time>
      </trkpt>
      <trkpt lat="38.40328" lon="-2.31279">
        <ele>812</ele>
        <time>2014-08-24T12:19:18.17</time>
      </trkpt>
      <trkpt lat="38.403265" lon="-2.312895">
        <ele>813</ele>
        <time>2014-08-24T12:19:20.16</time>
      </trkpt>
      <trkpt lat="38.403255" lon="-2.313005">
        <ele>815</ele>
        <time>2014-08-24T12:19:22.16</time>
      </trkpt>
      <trkpt lat="38.403255" lon="-2.31311">
        <ele>813</ele>
        <time>2014-08-24T12:19:24.29</time>
      </trkpt>
      <trkpt lat="38.403255" lon="-2.313245">
        <ele>809</ele>
        <time>2014-08-24T12:19:26.16</time>
      </trkpt>
      <trkpt lat="38.40324" lon="-2.313355">
        <ele>809</ele>
        <time>2014-08-24T12:19:28.16</time>
      </trkpt>
      <trkpt lat="38.403255" lon="-2.31345">
        <ele>810</ele>
        <time>2014-08-24T12:19:30.11</time>
      </trkpt>
      <trkpt lat="38.403425" lon="-2.3141833333333333">
        <ele>820</ele>
        <time>2014-08-24T12:19:46.78</time>
      </trkpt>
      <trkpt lat="38.40342" lon="-2.314315">
        <ele>819</ele>
        <time>2014-08-24T12:19:48.16</time>
      </trkpt>
      <trkpt lat="38.40341" lon="-2.314415">
        <ele>822</ele>
        <time>2014-08-24T12:19:50.16</time>
      </trkpt>
      <trkpt lat="38.40341" lon="-2.314515">
        <ele>824</ele>
        <time>2014-08-24T12:19:52.22</time>
      </trkpt>
      <trkpt lat="38.40341333333333" lon="-2.31461">
        <ele>823</ele>
        <time>2014-08-24T12:19:54.28</time>
      </trkpt>
      <trkpt lat="38.40342" lon="-2.314705">
        <ele>824</ele>
        <time>2014-08-24T12:19:56.16</time>
      </trkpt>
      <trkpt lat="38.403425" lon="-2.3148">
        <ele>826</ele>
        <time>2014-08-24T12:19:58.16</time>
      </trkpt>
      <trkpt lat="38.40342" lon="-2.31494">
        <ele>827</ele>
        <time>2014-08-24T12:20:01.16</time>
      </trkpt>
      <trkpt lat="38.40341" lon="-2.31503">
        <ele>827</ele>
        <time>2014-08-24T12:20:03.16</time>
      </trkpt>
      <trkpt lat="38.40338" lon="-2.3151450000000002">
        <ele>830</ele>
        <time>2014-08-24T12:20:06.16</time>
      </trkpt>
      <trkpt lat="38.403345" lon="-2.31526">
        <ele>830</ele>
        <time>2014-08-24T12:20:09.16</time>
      </trkpt>
      <trkpt lat="38.403325" lon="-2.315385">
        <ele>831</ele>
        <time>2014-08-24T12:20:12.16</time>
      </trkpt>
      <trkpt lat="38.403325" lon="-2.315515">
        <ele>826</ele>
        <time>2014-08-24T12:20:15.16</time>
      </trkpt>
      <trkpt lat="38.40334" lon="-2.31564">
        <ele>829</ele>
        <time>2014-08-24T12:20:18.21</time>
      </trkpt>
      <trkpt lat="38.403345" lon="-2.31576">
        <ele>833</ele>
        <time>2014-08-24T12:20:21.19</time>
      </trkpt>
      <trkpt lat="38.40338" lon="-2.3158833333333333">
        <ele>833</ele>
        <time>2014-08-24T12:20:24.16</time>
      </trkpt>
      <trkpt lat="38.403465" lon="-2.315975">
        <ele>836</ele>
        <time>2014-08-24T12:20:27.17</time>
      </trkpt>
      <trkpt lat="38.403515" lon="-2.316035">
        <ele>836</ele>
        <time>2014-08-24T12:20:29.29</time>
      </trkpt>
      <trkpt lat="38.403585" lon="-2.3161383333333334">
        <ele>837</ele>
        <time>2014-08-24T12:20:32.16</time>
      </trkpt>
      <trkpt lat="38.40361" lon="-2.31623">
        <ele>838</ele>
        <time>2014-08-24T12:20:34.17</time>
      </trkpt>
      <trkpt lat="38.403605" lon="-2.3163183333333333">
        <ele>840</ele>
        <time>2014-08-24T12:20:36.17</time>
      </trkpt>
      <trkpt lat="38.40358" lon="-2.3164066666666665">
        <ele>841</ele>
        <time>2014-08-24T12:20:38.16</time>
      </trkpt>
      <trkpt lat="38.403545" lon="-2.3165">
        <ele>845</ele>
        <time>2014-08-24T12:20:40.16</time>
      </trkpt>
      <trkpt lat="38.403505" lon="-2.3165816666666665">
        <ele>843</ele>
        <time>2014-08-24T12:20:42.16</time>
      </trkpt>
      <trkpt lat="38.403465" lon="-2.3166700000000002">
        <ele>844</ele>
        <time>2014-08-24T12:20:44.16</time>
      </trkpt>
      <trkpt lat="38.40341" lon="-2.316735">
        <ele>842</ele>
        <time>2014-08-24T12:20:46.16</time>
      </trkpt>
      <trkpt lat="38.403345" lon="-2.316785">
        <ele>842</ele>
        <time>2014-08-24T12:20:48.12</time>
      </trkpt>
      <trkpt lat="38.403285" lon="-2.31684">
        <ele>842</ele>
        <time>2014-08-24T12:20:50.12</time>
      </trkpt>
      <trkpt lat="38.40321" lon="-2.316925">
        <ele>839</ele>
        <time>2014-08-24T12:20:53.16</time>
      </trkpt>
      <trkpt lat="38.403155" lon="-2.317025">
        <ele>837</ele>
        <time>2014-08-24T12:20:56.16</time>
      </trkpt>
      <trkpt lat="38.40315" lon="-2.317165">
        <ele>837</ele>
        <time>2014-08-24T12:20:59.16</time>
      </trkpt>
      <trkpt lat="38.40318" lon="-2.3172449999999998">
        <ele>840</ele>
        <time>2014-08-24T12:21:01.16</time>
      </trkpt>
      <trkpt lat="38.403235" lon="-2.31736">
        <ele>842</ele>
        <time>2014-08-24T12:21:04.16</time>
      </trkpt>
      <trkpt lat="38.403295" lon="-2.317465">
        <ele>843</ele>
        <time>2014-08-24T12:21:07.16</time>
      </trkpt>
      <trkpt lat="38.403355" lon="-2.317565">
        <ele>844</ele>
        <time>2014-08-24T12:21:10.16</time>
      </trkpt>
      <trkpt lat="38.403405" lon="-2.317675">
        <ele>845</ele>
        <time>2014-08-24T12:21:13.16</time>
      </trkpt>
      <trkpt lat="38.403465" lon="-2.31777">
        <ele>847</ele>
        <time>2014-08-24T12:21:16.16</time>
      </trkpt>
      <trkpt lat="38.40353" lon="-2.31786">
        <ele>848</ele>
        <time>2014-08-24T12:21:19.16</time>
      </trkpt>
      <trkpt lat="38.4036" lon="-2.317965">
        <ele>845</ele>
        <time>2014-08-24T12:21:22.18</time>
      </trkpt>
      <trkpt lat="38.403635" lon="-2.318041666666667">
        <ele>844</ele>
        <time>2014-08-24T12:21:24.16</time>
      </trkpt>
      <trkpt lat="38.403655" lon="-2.318175">
        <ele>844</ele>
        <time>2014-08-24T12:21:27.16</time>
      </trkpt>
      <trkpt lat="38.40364" lon="-2.3182650000000002">
        <ele>844</ele>
        <time>2014-08-24T12:21:29.16</time>
      </trkpt>
      <trkpt lat="38.403615" lon="-2.31835">
        <ele>846</ele>
        <time>2014-08-24T12:21:31.16</time>
      </trkpt>
      <trkpt lat="38.403575000000004" lon="-2.3184733333333334">
        <ele>848</ele>
        <time>2014-08-24T12:21:34.16</time>
      </trkpt>
      <trkpt lat="38.40355" lon="-2.318605">
        <ele>849</ele>
        <time>2014-08-24T12:21:37.16</time>
      </trkpt>
      <trkpt lat="38.40353" lon="-2.318725">
        <ele>854</ele>
        <time>2014-08-24T12:21:40.16</time>
      </trkpt>
      <trkpt lat="38.4035" lon="-2.31885">
        <ele>851</ele>
        <time>2014-08-24T12:21:43.16</time>
      </trkpt>
      <trkpt lat="38.40349" lon="-2.318985">
        <ele>849</ele>
        <time>2014-08-24T12:21:46.16</time>
      </trkpt>
      <trkpt lat="38.403495" lon="-2.31912">
        <ele>850</ele>
        <time>2014-08-24T12:21:49.16</time>
      </trkpt>
      <trkpt lat="38.40352" lon="-2.319245">
        <ele>850</ele>
        <time>2014-08-24T12:21:52.16</time>
      </trkpt>
      <trkpt lat="38.40355" lon="-2.31933">
        <ele>849</ele>
        <time>2014-08-24T12:21:54.16</time>
      </trkpt>
      <trkpt lat="38.403595" lon="-2.31942">
        <ele>847</ele>
        <time>2014-08-24T12:21:56.16</time>
      </trkpt>
      <trkpt lat="38.403655" lon="-2.31949">
        <ele>847</ele>
        <time>2014-08-24T12:21:58.18</time>
      </trkpt>
      <trkpt lat="38.40373" lon="-2.31954">
        <ele>847</ele>
        <time>2014-08-24T12:22:00.16</time>
      </trkpt>
      <trkpt lat="38.40381" lon="-2.31956">
        <ele>850</ele>
        <time>2014-08-24T12:22:02.16</time>
      </trkpt>
      <trkpt lat="38.403885" lon="-2.31953">
        <ele>850</ele>
        <time>2014-08-24T12:22:04.16</time>
      </trkpt>
      <trkpt lat="38.403965" lon="-2.31948">
        <ele>850</ele>
        <time>2014-08-24T12:22:06.16</time>
      </trkpt>
      <trkpt lat="38.40404" lon="-2.319425">
        <ele>851</ele>
        <time>2014-08-24T12:22:08.16</time>
      </trkpt>
      <trkpt lat="38.40412" lon="-2.319395">
        <ele>854</ele>
        <time>2014-08-24T12:22:10.16</time>
      </trkpt>
      <trkpt lat="38.4042" lon="-2.319375">
        <ele>855</ele>
        <time>2014-08-24T12:22:12.16</time>
      </trkpt>
      <trkpt lat="38.404285" lon="-2.3193683333333333">
        <ele>855</ele>
        <time>2014-08-24T12:22:14.21</time>
      </trkpt>
      <trkpt lat="38.40437" lon="-2.319385">
        <ele>857</ele>
        <time>2014-08-24T12:22:16.16</time>
      </trkpt>
      <trkpt lat="38.404445" lon="-2.319445">
        <ele>859</ele>
        <time>2014-08-24T12:22:18.20</time>
      </trkpt>
      <trkpt lat="38.40449" lon="-2.31955">
        <ele>859</ele>
        <time>2014-08-24T12:22:20.15</time>
      </trkpt>
      <trkpt lat="38.404495" lon="-2.31966">
        <ele>860</ele>
        <time>2014-08-24T12:22:22.16</time>
      </trkpt>
      <trkpt lat="38.40446" lon="-2.31977">
        <ele>862</ele>
        <time>2014-08-24T12:22:24.16</time>
      </trkpt>
      <trkpt lat="38.404395" lon="-2.31984">
        <ele>863</ele>
        <time>2014-08-24T12:22:26.16</time>
      </trkpt>
      <trkpt lat="38.404325" lon="-2.319865">
        <ele>864</ele>
        <time>2014-08-24T12:22:28.16</time>
      </trkpt>
      <trkpt lat="38.40425" lon="-2.3198600000000003">
        <ele>865</ele>
        <time>2014-08-24T12:22:30.19</time>
      </trkpt>
      <trkpt lat="38.40417333333333" lon="-2.3198383333333332">
        <ele>867</ele>
        <time>2014-08-24T12:22:32.22</time>
      </trkpt>
      <trkpt lat="38.4041" lon="-2.3198233333333333">
        <ele>869</ele>
        <time>2014-08-24T12:22:34.17</time>
      </trkpt>
      <trkpt lat="38.404" lon="-2.3198366666666668">
        <ele>871</ele>
        <time>2014-08-24T12:22:37.33</time>
      </trkpt>
      <trkpt lat="38.4039" lon="-2.31988">
        <ele>872</ele>
        <time>2014-08-24T12:22:40.16</time>
      </trkpt>
      <trkpt lat="38.403805" lon="-2.319925">
        <ele>874</ele>
        <time>2014-08-24T12:22:43.16</time>
      </trkpt>
      <trkpt lat="38.403725" lon="-2.319995">
        <ele>874</ele>
        <time>2014-08-24T12:22:46.15</time>
      </trkpt>
      <trkpt lat="38.403635" lon="-2.320055">
        <ele>875</ele>
        <time>2014-08-24T12:22:49.15</time>
      </trkpt>
      <trkpt lat="38.403545" lon="-2.32011">
        <ele>875</ele>
        <time>2014-08-24T12:22:52.18</time>
      </trkpt>
      <trkpt lat="38.403455" lon="-2.3201650000000003">
        <ele>875</ele>
        <time>2014-08-24T12:22:55.16</time>
      </trkpt>
      <trkpt lat="38.40336" lon="-2.320215">
        <ele>877</ele>
        <time>2014-08-24T12:22:58.16</time>
      </trkpt>
      <trkpt lat="38.403285" lon="-2.3203">
        <ele>868</ele>
        <time>2014-08-24T12:23:01.15</time>
      </trkpt>
      <trkpt lat="38.403205" lon="-2.32038">
        <ele>870</ele>
        <time>2014-08-24T12:23:04.31</time>
      </trkpt>
      <trkpt lat="38.403135" lon="-2.320465">
        <ele>874</ele>
        <time>2014-08-24T12:23:07.19</time>
      </trkpt>
      <trkpt lat="38.40307" lon="-2.320565">
        <ele>874</ele>
        <time>2014-08-24T12:23:10.21</time>
      </trkpt>
      <trkpt lat="38.403015" lon="-2.32068">
        <ele>874</ele>
        <time>2014-08-24T12:23:13.16</time>
      </trkpt>
      <trkpt lat="38.402965" lon="-2.320795">
        <ele>876</ele>
        <time>2014-08-24T12:23:16.21</time>
      </trkpt>
      <trkpt lat="38.402925" lon="-2.320915">
        <ele>874</ele>
        <time>2014-08-24T12:23:19.17</time>
      </trkpt>
      <trkpt lat="38.402885" lon="-2.321035">
        <ele>872</ele>
        <time>2014-08-24T12:23:22.16</time>
      </trkpt>
      <trkpt lat="38.40283" lon="-2.321155">
        <ele>873</ele>
        <time>2014-08-24T12:23:25.19</time>
      </trkpt>
      <trkpt lat="38.40278" lon="-2.32126">
        <ele>871</ele>
        <time>2014-08-24T12:23:28.17</time>
      </trkpt>
      <trkpt lat="38.40273" lon="-2.32137">
        <ele>871</ele>
        <time>2014-08-24T12:23:31.16</time>
      </trkpt>
      <trkpt lat="38.40268" lon="-2.321475">
        <ele>871</ele>
        <time>2014-08-24T12:23:34.16</time>
      </trkpt>
      <trkpt lat="38.402625" lon="-2.32158">
        <ele>875</ele>
        <time>2014-08-24T12:23:37.20</time>
      </trkpt>
      <trkpt lat="38.40256333333333" lon="-2.321676666666667">
        <ele>873</ele>
        <time>2014-08-24T12:23:40.16</time>
      </trkpt>
      <trkpt lat="38.40252" lon="-2.321785">
        <ele>874</ele>
        <time>2014-08-24T12:23:43.17</time>
      </trkpt>
      <trkpt lat="38.402475" lon="-2.3219">
        <ele>877</ele>
        <time>2014-08-24T12:23:46.15</time>
      </trkpt>
      <trkpt lat="38.402435" lon="-2.32202">
        <ele>878</ele>
        <time>2014-08-24T12:23:49.11</time>
      </trkpt>
      <trkpt lat="38.40242" lon="-2.3221483333333333">
        <ele>880</ele>
        <time>2014-08-24T12:23:52.18</time>
      </trkpt>
      <trkpt lat="38.402395" lon="-2.32227">
        <ele>881</ele>
        <time>2014-08-24T12:23:55.16</time>
      </trkpt>
      <trkpt lat="38.40237" lon="-2.322395">
        <ele>881</ele>
        <time>2014-08-24T12:23:58.18</time>
      </trkpt>
      <trkpt lat="38.40235" lon="-2.32252">
        <ele>881</ele>
        <time>2014-08-24T12:24:01.17</time>
      </trkpt>
      <trkpt lat="38.402335" lon="-2.322645">
        <ele>881</ele>
        <time>2014-08-24T12:24:04.17</time>
      </trkpt>
      <trkpt lat="38.4023" lon="-2.322755">
        <ele>883</ele>
        <time>2014-08-24T12:24:07.19</time>
      </trkpt>
      <trkpt lat="38.402265" lon="-2.32287">
        <ele>884</ele>
        <time>2014-08-24T12:24:10.17</time>
      </trkpt>
      <trkpt lat="38.40223" lon="-2.322985">
        <ele>886</ele>
        <time>2014-08-24T12:24:13.15</time>
      </trkpt>
      <trkpt lat="38.402195" lon="-2.323105">
        <ele>887</ele>
        <time>2014-08-24T12:24:16.16</time>
      </trkpt>
      <trkpt lat="38.402145" lon="-2.3232150000000003">
        <ele>889</ele>
        <time>2014-08-24T12:24:19.16</time>
      </trkpt>
      <trkpt lat="38.40211166666667" lon="-2.323316666666667">
        <ele>887</ele>
        <time>2014-08-24T12:24:22.17</time>
      </trkpt>
      <trkpt lat="38.402095" lon="-2.32342">
        <ele>888</ele>
        <time>2014-08-24T12:24:25.21</time>
      </trkpt>
      <trkpt lat="38.402055" lon="-2.323506666666667">
        <ele>888</ele>
        <time>2014-08-24T12:24:28.15</time>
      </trkpt>
      <trkpt lat="38.401855" lon="-2.324075">
        <ele>894</ele>
        <time>2014-08-24T12:24:46.14</time>
      </trkpt>
      <trkpt lat="38.40182333333333" lon="-2.32417">
        <ele>895</ele>
        <time>2014-08-24T12:24:48.31</time>
      </trkpt>
      <trkpt lat="38.40179" lon="-2.324275">
        <ele>896</ele>
        <time>2014-08-24T12:24:51.15</time>
      </trkpt>
      <trkpt lat="38.40173333333333" lon="-2.324375">
        <ele>894</ele>
        <time>2014-08-24T12:24:54.24</time>
      </trkpt>
      <trkpt lat="38.40167" lon="-2.324465">
        <ele>895</ele>
        <time>2014-08-24T12:24:57.15</time>
      </trkpt>
      <trkpt lat="38.401595" lon="-2.324545">
        <ele>896</ele>
        <time>2014-08-24T12:25:00.15</time>
      </trkpt>
      <trkpt lat="38.401513333333334" lon="-2.324615">
        <ele>895</ele>
        <time>2014-08-24T12:25:03.15</time>
      </trkpt>
      <trkpt lat="38.401435" lon="-2.32469">
        <ele>896</ele>
        <time>2014-08-24T12:25:06.15</time>
      </trkpt>
      <trkpt lat="38.401355" lon="-2.324761666666667">
        <ele>898</ele>
        <time>2014-08-24T12:25:09.15</time>
      </trkpt>
      <trkpt lat="38.401271666666666" lon="-2.32482">
        <ele>899</ele>
        <time>2014-08-24T12:25:12.15</time>
      </trkpt>
      <trkpt lat="38.40119" lon="-2.324865">
        <ele>900</ele>
        <time>2014-08-24T12:25:15.15</time>
      </trkpt>
      <trkpt lat="38.40111" lon="-2.324925">
        <ele>898</ele>
        <time>2014-08-24T12:25:18.15</time>
      </trkpt>
      <trkpt lat="38.401035" lon="-2.325">
        <ele>899</ele>
        <time>2014-08-24T12:25:21.15</time>
      </trkpt>
      <trkpt lat="38.400965" lon="-2.32508">
        <ele>898</ele>
        <time>2014-08-24T12:25:24.15</time>
      </trkpt>
      <trkpt lat="38.4009" lon="-2.325185">
        <ele>902</ele>
        <time>2014-08-24T12:25:27.15</time>
      </trkpt>
      <trkpt lat="38.40085" lon="-2.3253">
        <ele>902</ele>
        <time>2014-08-24T12:25:30.15</time>
      </trkpt>
      <trkpt lat="38.400785" lon="-2.325405">
        <ele>905</ele>
        <time>2014-08-24T12:25:33.15</time>
      </trkpt>
      <trkpt lat="38.400715" lon="-2.3255">
        <ele>904</ele>
        <time>2014-08-24T12:25:36.15</time>
      </trkpt>
      <trkpt lat="38.400665" lon="-2.32557">
        <ele>905</ele>
        <time>2014-08-24T12:25:38.15</time>
      </trkpt>
      <trkpt lat="38.400585" lon="-2.32566">
        <ele>905</ele>
        <time>2014-08-24T12:25:41.15</time>
      </trkpt>
      <trkpt lat="38.400525" lon="-2.325765">
        <ele>909</ele>
        <time>2014-08-24T12:25:44.15</time>
      </trkpt>
      <trkpt lat="38.400465" lon="-2.32587">
        <ele>912</ele>
        <time>2014-08-24T12:25:47.15</time>
      </trkpt>
      <trkpt lat="38.400405" lon="-2.32597">
        <ele>914</ele>
        <time>2014-08-24T12:25:50.15</time>
      </trkpt>
      <trkpt lat="38.40035" lon="-2.326075">
        <ele>914</ele>
        <time>2014-08-24T12:25:53.15</time>
      </trkpt>
      <trkpt lat="38.400305" lon="-2.32619">
        <ele>915</ele>
        <time>2014-08-24T12:25:56.15</time>
      </trkpt>
      <trkpt lat="38.40025" lon="-2.326295">
        <ele>917</ele>
        <time>2014-08-24T12:25:59.15</time>
      </trkpt>
      <trkpt lat="38.40019" lon="-2.32639">
        <ele>919</ele>
        <time>2014-08-24T12:26:02.16</time>
      </trkpt>
      <trkpt lat="38.400115" lon="-2.32648">
        <ele>923</ele>
        <time>2014-08-24T12:26:05.16</time>
      </trkpt>
      <trkpt lat="38.40004" lon="-2.3265700000000002">
        <ele>924</ele>
        <time>2014-08-24T12:26:08.15</time>
      </trkpt>
      <trkpt lat="38.399945" lon="-2.326605">
        <ele>924</ele>
        <time>2014-08-24T12:26:11.15</time>
      </trkpt>
      <trkpt lat="38.39985" lon="-2.3265583333333333">
        <ele>925</ele>
        <time>2014-08-24T12:26:14.15</time>
      </trkpt>
      <trkpt lat="38.3998" lon="-2.32649">
        <ele>925</ele>
        <time>2014-08-24T12:26:16.15</time>
      </trkpt>
      <trkpt lat="38.399775" lon="-2.3264">
        <ele>924</ele>
        <time>2014-08-24T12:26:18.15</time>
      </trkpt>
      <trkpt lat="38.39978" lon="-2.3263">
        <ele>927</ele>
        <time>2014-08-24T12:26:20.15</time>
      </trkpt>
      <trkpt lat="38.3998" lon="-2.326205">
        <ele>928</ele>
        <time>2014-08-24T12:26:22.15</time>
      </trkpt>
      <trkpt lat="38.39983333333333" lon="-2.32612">
        <ele>925</ele>
        <time>2014-08-24T12:26:24.15</time>
      </trkpt>
      <trkpt lat="38.39989" lon="-2.32605">
        <ele>927</ele>
        <time>2014-08-24T12:26:26.15</time>
      </trkpt>
      <trkpt lat="38.39995" lon="-2.32599">
        <ele>926</ele>
        <time>2014-08-24T12:26:28.15</time>
      </trkpt>
      <trkpt lat="38.400015" lon="-2.325935">
        <ele>927</ele>
        <time>2014-08-24T12:26:30.16</time>
      </trkpt>
      <trkpt lat="38.40007" lon="-2.32587">
        <ele>930</ele>
        <time>2014-08-24T12:26:32.15</time>
      </trkpt>
      <trkpt lat="38.40013" lon="-2.32581">
        <ele>929</ele>
        <time>2014-08-24T12:26:34.11</time>
      </trkpt>
      <trkpt lat="38.4002" lon="-2.325755">
        <ele>930</ele>
        <time>2014-08-24T12:26:36.16</time>
      </trkpt>
      <trkpt lat="38.400265" lon="-2.325685">
        <ele>930</ele>
        <time>2014-08-24T12:26:38.16</time>
      </trkpt>
      <trkpt lat="38.400315" lon="-2.3256">
        <ele>934</ele>
        <time>2014-08-24T12:26:40.15</time>
      </trkpt>
      <trkpt lat="38.40033" lon="-2.325505">
        <ele>934</ele>
        <time>2014-08-24T12:26:42.15</time>
      </trkpt>
      <trkpt lat="38.400255" lon="-2.325405">
        <ele>932</ele>
        <time>2014-08-24T12:26:45.11</time>
      </trkpt>
      <trkpt lat="38.40018" lon="-2.325395">
        <ele>932</ele>
        <time>2014-08-24T12:26:47.12</time>
      </trkpt>
      <trkpt lat="38.4001" lon="-2.3254200000000003">
        <ele>934</ele>
        <time>2014-08-24T12:26:49.12</time>
      </trkpt>
      <trkpt lat="38.40004" lon="-2.325475">
        <ele>934</ele>
        <time>2014-08-24T12:26:51.14</time>
      </trkpt>
      <trkpt lat="38.399985" lon="-2.32554">
        <ele>936</ele>
        <time>2014-08-24T12:26:53.15</time>
      </trkpt>
      <trkpt lat="38.39993" lon="-2.3256">
        <ele>936</ele>
        <time>2014-08-24T12:26:55.15</time>
      </trkpt>
      <trkpt lat="38.399865" lon="-2.32565">
        <ele>935</ele>
        <time>2014-08-24T12:26:57.15</time>
      </trkpt>
      <trkpt lat="38.39979" lon="-2.325665">
        <ele>935</ele>
        <time>2014-08-24T12:26:59.15</time>
      </trkpt>
      <trkpt lat="38.39969" lon="-2.325605">
        <ele>934</ele>
        <time>2014-08-24T12:27:02.15</time>
      </trkpt>
      <trkpt lat="38.39964" lon="-2.32554">
        <ele>934</ele>
        <time>2014-08-24T12:27:04.15</time>
      </trkpt>
      <trkpt lat="38.399595" lon="-2.3254616666666665">
        <ele>934</ele>
        <time>2014-08-24T12:27:06.16</time>
      </trkpt>
      <trkpt lat="38.399555" lon="-2.32539">
        <ele>934</ele>
        <time>2014-08-24T12:27:08.29</time>
      </trkpt>
      <trkpt lat="38.399495" lon="-2.325325">
        <ele>935</ele>
        <time>2014-08-24T12:27:10.15</time>
      </trkpt>
      <trkpt lat="38.39943" lon="-2.3252800000000002">
        <ele>934</ele>
        <time>2014-08-24T12:27:12.15</time>
      </trkpt>
      <trkpt lat="38.399365" lon="-2.32524">
        <ele>939</ele>
        <time>2014-08-24T12:27:14.23</time>
      </trkpt>
      <trkpt lat="38.3993" lon="-2.3251916666666665">
        <ele>939</ele>
        <time>2014-08-24T12:27:16.15</time>
      </trkpt>
      <trkpt lat="38.399205" lon="-2.325135">
        <ele>940</ele>
        <time>2014-08-24T12:27:19.15</time>
      </trkpt>
      <trkpt lat="38.399105" lon="-2.32509">
        <ele>940</ele>
        <time>2014-08-24T12:27:22.15</time>
      </trkpt>
      <trkpt lat="38.399006666666665" lon="-2.32504">
        <ele>942</ele>
        <time>2014-08-24T12:27:25.15</time>
      </trkpt>
      <trkpt lat="38.39891" lon="-2.324995">
        <ele>942</ele>
        <time>2014-08-24T12:27:28.15</time>
      </trkpt>
      <trkpt lat="38.39881" lon="-2.324965">
        <ele>941</ele>
        <time>2014-08-24T12:27:31.16</time>
      </trkpt>
      <trkpt lat="38.39871" lon="-2.324945">
        <ele>943</ele>
        <time>2014-08-24T12:27:34.15</time>
      </trkpt>
      <trkpt lat="38.39862" lon="-2.32491">
        <ele>944</ele>
        <time>2014-08-24T12:27:37.16</time>
      </trkpt>
      <trkpt lat="38.39853" lon="-2.32489">
        <ele>943</ele>
        <time>2014-08-24T12:27:40.15</time>
      </trkpt>
      <trkpt lat="38.39843" lon="-2.324885">
        <ele>945</ele>
        <time>2014-08-24T12:27:43.15</time>
      </trkpt>
      <trkpt lat="38.39833" lon="-2.324865">
        <ele>949</ele>
        <time>2014-08-24T12:27:46.15</time>
      </trkpt>
      <trkpt lat="38.39823" lon="-2.324856666666667">
        <ele>945</ele>
        <time>2014-08-24T12:27:49.15</time>
      </trkpt>
      <trkpt lat="38.39814" lon="-2.324875">
        <ele>946</ele>
        <time>2014-08-24T12:27:52.15</time>
      </trkpt>
      <trkpt lat="38.398045" lon="-2.3249">
        <ele>947</ele>
        <time>2014-08-24T12:27:55.14</time>
      </trkpt>
      <trkpt lat="38.397965" lon="-2.324985">
        <ele>948</ele>
        <time>2014-08-24T12:27:58.14</time>
      </trkpt>
      <trkpt lat="38.3979" lon="-2.32503">
        <ele>948</ele>
        <time>2014-08-24T12:28:00.16</time>
      </trkpt>
      <trkpt lat="38.39781" lon="-2.325085">
        <ele>944</ele>
        <time>2014-08-24T12:28:03.14</time>
      </trkpt>
      <trkpt lat="38.397710000000004" lon="-2.325101666666667">
        <ele>946</ele>
        <time>2014-08-24T12:28:06.10</time>
      </trkpt>
      <trkpt lat="38.397615" lon="-2.325125">
        <ele>947</ele>
        <time>2014-08-24T12:28:09.14</time>
      </trkpt>
      <trkpt lat="38.397515" lon="-2.325135">
        <ele>949</ele>
        <time>2014-08-24T12:28:12.14</time>
      </trkpt>
      <trkpt lat="38.39741" lon="-2.3251133333333334">
        <ele>953</ele>
        <time>2014-08-24T12:28:15.14</time>
      </trkpt>
      <trkpt lat="38.397315" lon="-2.325075">
        <ele>956</ele>
        <time>2014-08-24T12:28:18.15</time>
      </trkpt>
      <trkpt lat="38.397225" lon="-2.325023333333333">
        <ele>956</ele>
        <time>2014-08-24T12:28:21.15</time>
      </trkpt>
      <trkpt lat="38.397135" lon="-2.32498">
        <ele>958</ele>
        <time>2014-08-24T12:28:24.15</time>
      </trkpt>
      <trkpt lat="38.39705" lon="-2.324935">
        <ele>959</ele>
        <time>2014-08-24T12:28:27.15</time>
      </trkpt>
      <trkpt lat="38.39696" lon="-2.324915">
        <ele>959</ele>
        <time>2014-08-24T12:28:30.15</time>
      </trkpt>
      <trkpt lat="38.396865" lon="-2.32493">
        <ele>960</ele>
        <time>2014-08-24T12:28:33.15</time>
      </trkpt>
      <trkpt lat="38.396775" lon="-2.32499">
        <ele>961</ele>
        <time>2014-08-24T12:28:36.15</time>
      </trkpt>
      <trkpt lat="38.39669" lon="-2.32505">
        <ele>961</ele>
        <time>2014-08-24T12:28:39.13</time>
      </trkpt>
      <trkpt lat="38.396615" lon="-2.325125">
        <ele>962</ele>
        <time>2014-08-24T12:28:42.15</time>
      </trkpt>
      <trkpt lat="38.39653" lon="-2.325185">
        <ele>964</ele>
        <time>2014-08-24T12:28:45.15</time>
      </trkpt>
      <trkpt lat="38.39645" lon="-2.32526">
        <ele>963</ele>
        <time>2014-08-24T12:28:48.15</time>
      </trkpt>
      <trkpt lat="38.396375" lon="-2.3253399999999997">
        <ele>964</ele>
        <time>2014-08-24T12:28:51.15</time>
      </trkpt>
      <trkpt lat="38.3963" lon="-2.325425">
        <ele>963</ele>
        <time>2014-08-24T12:28:54.15</time>
      </trkpt>
      <trkpt lat="38.39622" lon="-2.32549">
        <ele>963</ele>
        <time>2014-08-24T12:28:57.15</time>
      </trkpt>
      <trkpt lat="38.39613" lon="-2.32555">
        <ele>964</ele>
        <time>2014-08-24T12:29:00.15</time>
      </trkpt>
      <trkpt lat="38.39604666666666" lon="-2.325615">
        <ele>967</ele>
        <time>2014-08-24T12:29:03.15</time>
      </trkpt>
      <trkpt lat="38.395966666666666" lon="-2.3256683333333332">
        <ele>965</ele>
        <time>2014-08-24T12:29:06.15</time>
      </trkpt>
      <trkpt lat="38.395895" lon="-2.325745">
        <ele>966</ele>
        <time>2014-08-24T12:29:09.16</time>
      </trkpt>
      <trkpt lat="38.39582333333333" lon="-2.32582">
        <ele>967</ele>
        <time>2014-08-24T12:29:12.15</time>
      </trkpt>
      <trkpt lat="38.395765" lon="-2.325905">
        <ele>968</ele>
        <time>2014-08-24T12:29:15.16</time>
      </trkpt>
      <trkpt lat="38.395715" lon="-2.326">
        <ele>969</ele>
        <time>2014-08-24T12:29:18.15</time>
      </trkpt>
      <trkpt lat="38.39566833333333" lon="-2.326105">
        <ele>967</ele>
        <time>2014-08-24T12:29:21.16</time>
      </trkpt>
      <trkpt lat="38.3956" lon="-2.3262">
        <ele>968</ele>
        <time>2014-08-24T12:29:24.15</time>
      </trkpt>
      <trkpt lat="38.395518333333335" lon="-2.326285">
        <ele>971</ele>
        <time>2014-08-24T12:29:27.14</time>
      </trkpt>
      <trkpt lat="38.39544" lon="-2.32636">
        <ele>969</ele>
        <time>2014-08-24T12:29:30.17</time>
      </trkpt>
      <trkpt lat="38.395345" lon="-2.3263949999999998">
        <ele>971</ele>
        <time>2014-08-24T12:29:33.18</time>
      </trkpt>
      <trkpt lat="38.39525" lon="-2.32643">
        <ele>972</ele>
        <time>2014-08-24T12:29:36.16</time>
      </trkpt>
      <trkpt lat="38.39515166666666" lon="-2.32646">
        <ele>974</ele>
        <time>2014-08-24T12:29:39.16</time>
      </trkpt>
      <trkpt lat="38.39506333333333" lon="-2.32651">
        <ele>972</ele>
        <time>2014-08-24T12:29:42.15</time>
      </trkpt>
      <trkpt lat="38.39498" lon="-2.32658">
        <ele>971</ele>
        <time>2014-08-24T12:29:45.15</time>
      </trkpt>
      <trkpt lat="38.394885" lon="-2.3266400000000003">
        <ele>972</ele>
        <time>2014-08-24T12:29:48.10</time>
      </trkpt>
      <trkpt lat="38.3948" lon="-2.326715">
        <ele>973</ele>
        <time>2014-08-24T12:29:51.17</time>
      </trkpt>
      <trkpt lat="38.39472" lon="-2.32678">
        <ele>974</ele>
        <time>2014-08-24T12:29:54.30</time>
      </trkpt>
      <trkpt lat="38.394635" lon="-2.326845">
        <ele>974</ele>
        <time>2014-08-24T12:29:57.16</time>
      </trkpt>
      <trkpt lat="38.394545" lon="-2.326905">
        <ele>974</ele>
        <time>2014-08-24T12:30:00.18</time>
      </trkpt>
      <trkpt lat="38.394461666666665" lon="-2.3269866666666665">
        <ele>978</ele>
        <time>2014-08-24T12:30:03.16</time>
      </trkpt>
      <trkpt lat="38.39439" lon="-2.32708">
        <ele>979</ele>
        <time>2014-08-24T12:30:06.15</time>
      </trkpt>
      <trkpt lat="38.394308333333335" lon="-2.327166666666667">
        <ele>981</ele>
        <time>2014-08-24T12:30:09.16</time>
      </trkpt>
      <trkpt lat="38.39423" lon="-2.3272500000000003">
        <ele>980</ele>
        <time>2014-08-24T12:30:12.16</time>
      </trkpt>
      <trkpt lat="38.39414" lon="-2.327325">
        <ele>980</ele>
        <time>2014-08-24T12:30:15.16</time>
      </trkpt>
      <trkpt lat="38.39405" lon="-2.32739">
        <ele>982</ele>
        <time>2014-08-24T12:30:18.22</time>
      </trkpt>
      <trkpt lat="38.393975" lon="-2.32749">
        <ele>982</ele>
        <time>2014-08-24T12:30:21.15</time>
      </trkpt>
      <trkpt lat="38.39395" lon="-2.327575">
        <ele>984</ele>
        <time>2014-08-24T12:30:23.16</time>
      </trkpt>
      <trkpt lat="38.39395" lon="-2.3277083333333333">
        <ele>985</ele>
        <time>2014-08-24T12:30:26.18</time>
      </trkpt>
      <trkpt lat="38.39394" lon="-2.327835">
        <ele>987</ele>
        <time>2014-08-24T12:30:29.29</time>
      </trkpt>
      <trkpt lat="38.393895" lon="-2.32793">
        <ele>988</ele>
        <time>2014-08-24T12:30:32.18</time>
      </trkpt>
      <trkpt lat="38.393805" lon="-2.32797">
        <ele>992</ele>
        <time>2014-08-24T12:30:35.19</time>
      </trkpt>
      <trkpt lat="38.39369833333333" lon="-2.327945">
        <ele>993</ele>
        <time>2014-08-24T12:30:38.16</time>
      </trkpt>
      <trkpt lat="38.39363" lon="-2.327905">
        <ele>994</ele>
        <time>2014-08-24T12:30:40.16</time>
      </trkpt>
      <trkpt lat="38.39356166666666" lon="-2.32788">
        <ele>994</ele>
        <time>2014-08-24T12:30:42.16</time>
      </trkpt>
      <trkpt lat="38.39346" lon="-2.327845">
        <ele>993</ele>
        <time>2014-08-24T12:30:45.18</time>
      </trkpt>
      <trkpt lat="38.39336" lon="-2.32781">
        <ele>993</ele>
        <time>2014-08-24T12:30:48.15</time>
      </trkpt>
      <trkpt lat="38.39326" lon="-2.32777">
        <ele>992</ele>
        <time>2014-08-24T12:30:51.15</time>
      </trkpt>
      <trkpt lat="38.393155" lon="-2.327735">
        <ele>992</ele>
        <time>2014-08-24T12:30:54.16</time>
      </trkpt>
      <trkpt lat="38.393085" lon="-2.3277166666666664">
        <ele>993</ele>
        <time>2014-08-24T12:30:56.16</time>
      </trkpt>
      <trkpt lat="38.39298" lon="-2.3277083333333333">
        <ele>993</ele>
        <time>2014-08-24T12:30:59.15</time>
      </trkpt>
      <trkpt lat="38.392905" lon="-2.327715">
        <ele>993</ele>
        <time>2014-08-24T12:31:01.16</time>
      </trkpt>
      <trkpt lat="38.3928" lon="-2.327715">
        <ele>992</ele>
        <time>2014-08-24T12:31:04.16</time>
      </trkpt>
      <trkpt lat="38.3927" lon="-2.327715">
        <ele>994</ele>
        <time>2014-08-24T12:31:07.16</time>
      </trkpt>
      <trkpt lat="38.392615" lon="-2.3277">
        <ele>995</ele>
        <time>2014-08-24T12:31:10.16</time>
      </trkpt>
      <trkpt lat="38.392535" lon="-2.32769">
        <ele>995</ele>
        <time>2014-08-24T12:31:13.16</time>
      </trkpt>
      <trkpt lat="38.39245" lon="-2.32769">
        <ele>997</ele>
        <time>2014-08-24T12:31:16.16</time>
      </trkpt>
      <trkpt lat="38.392345" lon="-2.327675">
        <ele>997</ele>
        <time>2014-08-24T12:31:19.16</time>
      </trkpt>
      <trkpt lat="38.392245" lon="-2.327645">
        <ele>997</ele>
        <time>2014-08-24T12:31:22.16</time>
      </trkpt>
      <trkpt lat="38.39215" lon="-2.3276149999999998">
        <ele>998</ele>
        <time>2014-08-24T12:31:25.17</time>
      </trkpt>
      <trkpt lat="38.39205" lon="-2.327585">
        <ele>998</ele>
        <time>2014-08-24T12:31:28.16</time>
      </trkpt>
      <trkpt lat="38.39195" lon="-2.327565">
        <ele>999</ele>
        <time>2014-08-24T12:31:31.16</time>
      </trkpt>
      <trkpt lat="38.39185" lon="-2.3275433333333333">
        <ele>1002</ele>
        <time>2014-08-24T12:31:34.16</time>
      </trkpt>
      <trkpt lat="38.391745" lon="-2.327565">
        <ele>1004</ele>
        <time>2014-08-24T12:31:37.15</time>
      </trkpt>
      <trkpt lat="38.39166" lon="-2.32761">
        <ele>1005</ele>
        <time>2014-08-24T12:31:40.15</time>
      </trkpt>
      <trkpt lat="38.39159" lon="-2.327675">
        <ele>1003</ele>
        <time>2014-08-24T12:31:43.16</time>
      </trkpt>
      <trkpt lat="38.39152" lon="-2.327765">
        <ele>1003</ele>
        <time>2014-08-24T12:31:46.16</time>
      </trkpt>
      <trkpt lat="38.391485" lon="-2.32784">
        <ele>1003</ele>
        <time>2014-08-24T12:31:48.16</time>
      </trkpt>
      <trkpt lat="38.39146" lon="-2.327935">
        <ele>1004</ele>
        <time>2014-08-24T12:31:50.15</time>
      </trkpt>
      <trkpt lat="38.391465" lon="-2.32803">
        <ele>1004</ele>
        <time>2014-08-24T12:31:52.16</time>
      </trkpt>
      <trkpt lat="38.391485" lon="-2.32812">
        <ele>1007</ele>
        <time>2014-08-24T12:31:54.15</time>
      </trkpt>
      <trkpt lat="38.39152" lon="-2.32823">
        <ele>1010</ele>
        <time>2014-08-24T12:31:57.22</time>
      </trkpt>
      <trkpt lat="38.39154" lon="-2.32835">
        <ele>1010</ele>
        <time>2014-08-24T12:32:00.15</time>
      </trkpt>
      <trkpt lat="38.391535" lon="-2.328475">
        <ele>1012</ele>
        <time>2014-08-24T12:32:03.16</time>
      </trkpt>
      <trkpt lat="38.391506666666665" lon="-2.328605">
        <ele>1010</ele>
        <time>2014-08-24T12:32:06.16</time>
      </trkpt>
      <trkpt lat="38.39146" lon="-2.328725">
        <ele>1010</ele>
        <time>2014-08-24T12:32:09.15</time>
      </trkpt>
      <trkpt lat="38.39142" lon="-2.328805">
        <ele>1011</ele>
        <time>2014-08-24T12:32:11.17</time>
      </trkpt>
      <trkpt lat="38.39138" lon="-2.328875">
        <ele>1012</ele>
        <time>2014-08-24T12:32:13.10</time>
      </trkpt>
      <trkpt lat="38.39134" lon="-2.328955">
        <ele>1011</ele>
        <time>2014-08-24T12:32:15.11</time>
      </trkpt>
      <trkpt lat="38.391295" lon="-2.329075">
        <ele>1015</ele>
        <time>2014-08-24T12:32:18.10</time>
      </trkpt>
      <trkpt lat="38.391255" lon="-2.329195">
        <ele>1015</ele>
        <time>2014-08-24T12:32:21.10</time>
      </trkpt>
      <trkpt lat="38.391225" lon="-2.32932">
        <ele>1016</ele>
        <time>2014-08-24T12:32:24.10</time>
      </trkpt>
      <trkpt lat="38.391195" lon="-2.3294433333333333">
        <ele>1017</ele>
        <time>2014-08-24T12:32:27.15</time>
      </trkpt>
      <trkpt lat="38.391175" lon="-2.32957">
        <ele>1018</ele>
        <time>2014-08-24T12:32:30.11</time>
      </trkpt>
      <trkpt lat="38.391145" lon="-2.329695">
        <ele>1020</ele>
        <time>2014-08-24T12:32:33.10</time>
      </trkpt>
      <trkpt lat="38.391115" lon="-2.329815">
        <ele>1021</ele>
        <time>2014-08-24T12:32:36.10</time>
      </trkpt>
      <trkpt lat="38.3911" lon="-2.329945">
        <ele>1018</ele>
        <time>2014-08-24T12:32:39.11</time>
      </trkpt>
      <trkpt lat="38.39107" lon="-2.33007">
        <ele>1019</ele>
        <time>2014-08-24T12:32:42.11</time>
      </trkpt>
      <trkpt lat="38.391043333333336" lon="-2.330195">
        <ele>1019</ele>
        <time>2014-08-24T12:32:45.10</time>
      </trkpt>
      <trkpt lat="38.391015" lon="-2.3303066666666665">
        <ele>1019</ele>
        <time>2014-08-24T12:32:48.10</time>
      </trkpt>
      <trkpt lat="38.39095" lon="-2.3304">
        <ele>1018</ele>
        <time>2014-08-24T12:32:51.10</time>
      </trkpt>
      <trkpt lat="38.390855" lon="-2.3304650000000002">
        <ele>1019</ele>
        <time>2014-08-24T12:32:54.10</time>
      </trkpt>
      <trkpt lat="38.390755" lon="-2.330515">
        <ele>1020</ele>
        <time>2014-08-24T12:32:57.10</time>
      </trkpt>
      <trkpt lat="38.39069" lon="-2.33055">
        <ele>1019</ele>
        <time>2014-08-24T12:32:59.10</time>
      </trkpt>
      <trkpt lat="38.390585" lon="-2.330575">
        <ele>1020</ele>
        <time>2014-08-24T12:33:02.10</time>
      </trkpt>
      <trkpt lat="38.39051" lon="-2.330591666666667">
        <ele>1018</ele>
        <time>2014-08-24T12:33:04.10</time>
      </trkpt>
      <trkpt lat="38.390435" lon="-2.330615">
        <ele>1017</ele>
        <time>2014-08-24T12:33:06.11</time>
      </trkpt>
      <trkpt lat="38.390355" lon="-2.33064">
        <ele>1018</ele>
        <time>2014-08-24T12:33:08.10</time>
      </trkpt>
      <trkpt lat="38.39028" lon="-2.33067">
        <ele>1018</ele>
        <time>2014-08-24T12:33:10.10</time>
      </trkpt>
      <trkpt lat="38.390205" lon="-2.3307">
        <ele>1019</ele>
        <time>2014-08-24T12:33:12.10</time>
      </trkpt>
      <trkpt lat="38.390135" lon="-2.330725">
        <ele>1019</ele>
        <time>2014-08-24T12:33:14.11</time>
      </trkpt>
      <trkpt lat="38.390058333333336" lon="-2.330745">
        <ele>1021</ele>
        <time>2014-08-24T12:33:16.10</time>
      </trkpt>
      <trkpt lat="38.38997" lon="-2.33078">
        <ele>1022</ele>
        <time>2014-08-24T12:33:19.11</time>
      </trkpt>
      <trkpt lat="38.389875" lon="-2.330795">
        <ele>1023</ele>
        <time>2014-08-24T12:33:22.11</time>
      </trkpt>
      <trkpt lat="38.389775" lon="-2.3308">
        <ele>1027</ele>
        <time>2014-08-24T12:33:25.11</time>
      </trkpt>
      <trkpt lat="38.389675" lon="-2.330815">
        <ele>1027</ele>
        <time>2014-08-24T12:33:28.16</time>
      </trkpt>
      <trkpt lat="38.38958" lon="-2.330845">
        <ele>1028</ele>
        <time>2014-08-24T12:33:31.10</time>
      </trkpt>
      <trkpt lat="38.389485" lon="-2.33087">
        <ele>1030</ele>
        <time>2014-08-24T12:33:34.10</time>
      </trkpt>
      <trkpt lat="38.389383333333335" lon="-2.33088">
        <ele>1030</ele>
        <time>2014-08-24T12:33:37.11</time>
      </trkpt>
      <trkpt lat="38.389295" lon="-2.3308999999999997">
        <ele>1031</ele>
        <time>2014-08-24T12:33:40.11</time>
      </trkpt>
      <trkpt lat="38.38921" lon="-2.33095">
        <ele>1033</ele>
        <time>2014-08-24T12:33:43.11</time>
      </trkpt>
      <trkpt lat="38.38912" lon="-2.33099">
        <ele>1035</ele>
        <time>2014-08-24T12:33:46.10</time>
      </trkpt>
      <trkpt lat="38.389035" lon="-2.331055">
        <ele>1038</ele>
        <time>2014-08-24T12:33:49.10</time>
      </trkpt>
      <trkpt lat="38.38895" lon="-2.331115">
        <ele>1041</ele>
        <time>2014-08-24T12:33:52.11</time>
      </trkpt>
      <trkpt lat="38.38887" lon="-2.331185">
        <ele>1039</ele>
        <time>2014-08-24T12:33:55.11</time>
      </trkpt>
      <trkpt lat="38.388805" lon="-2.3312733333333333">
        <ele>1040</ele>
        <time>2014-08-24T12:33:58.10</time>
      </trkpt>
      <trkpt lat="38.38874" lon="-2.331375">
        <ele>1042</ele>
        <time>2014-08-24T12:34:01.10</time>
      </trkpt>
      <trkpt lat="38.388685" lon="-2.3314733333333333">
        <ele>1044</ele>
        <time>2014-08-24T12:34:04.10</time>
      </trkpt>
      <trkpt lat="38.38863" lon="-2.331585">
        <ele>1045</ele>
        <time>2014-08-24T12:34:07.10</time>
      </trkpt>
      <trkpt lat="38.388595" lon="-2.331665">
        <ele>1045</ele>
        <time>2014-08-24T12:34:09.11</time>
      </trkpt>
      <trkpt lat="38.388565" lon="-2.33175">
        <ele>1045</ele>
        <time>2014-08-24T12:34:11.11</time>
      </trkpt>
      <trkpt lat="38.388515" lon="-2.331865">
        <ele>1045</ele>
        <time>2014-08-24T12:34:14.12</time>
      </trkpt>
      <trkpt lat="38.388455" lon="-2.331975">
        <ele>1047</ele>
        <time>2014-08-24T12:34:17.10</time>
      </trkpt>
      <trkpt lat="38.38839" lon="-2.332075">
        <ele>1048</ele>
        <time>2014-08-24T12:34:20.10</time>
      </trkpt>
      <trkpt lat="38.388325" lon="-2.332155">
        <ele>1049</ele>
        <time>2014-08-24T12:34:23.10</time>
      </trkpt>
      <trkpt lat="38.388255" lon="-2.33225">
        <ele>1050</ele>
        <time>2014-08-24T12:34:26.10</time>
      </trkpt>
      <trkpt lat="38.3882" lon="-2.33236">
        <ele>1047</ele>
        <time>2014-08-24T12:34:29.10</time>
      </trkpt>
      <trkpt lat="38.388155" lon="-2.3324350000000003">
        <ele>1048</ele>
        <time>2014-08-24T12:34:31.15</time>
      </trkpt>
      <trkpt lat="38.38811" lon="-2.332505">
        <ele>1049</ele>
        <time>2014-08-24T12:34:33.10</time>
      </trkpt>
      <trkpt lat="38.388065" lon="-2.332585">
        <ele>1049</ele>
        <time>2014-08-24T12:34:35.10</time>
      </trkpt>
      <trkpt lat="38.388005" lon="-2.3327">
        <ele>1048</ele>
        <time>2014-08-24T12:34:38.10</time>
      </trkpt>
      <trkpt lat="38.387965" lon="-2.332775">
        <ele>1048</ele>
        <time>2014-08-24T12:34:40.10</time>
      </trkpt>
      <trkpt lat="38.38792" lon="-2.332845">
        <ele>1048</ele>
        <time>2014-08-24T12:34:42.14</time>
      </trkpt>
      <trkpt lat="38.38786" lon="-2.33291">
        <ele>1049</ele>
        <time>2014-08-24T12:34:44.10</time>
      </trkpt>
      <trkpt lat="38.387815" lon="-2.332985">
        <ele>1049</ele>
        <time>2014-08-24T12:34:46.10</time>
      </trkpt>
      <trkpt lat="38.387765" lon="-2.33306">
        <ele>1049</ele>
        <time>2014-08-24T12:34:48.30</time>
      </trkpt>
      <trkpt lat="38.387705" lon="-2.333125">
        <ele>1050</ele>
        <time>2014-08-24T12:34:50.11</time>
      </trkpt>
      <trkpt lat="38.38765" lon="-2.33318">
        <ele>1051</ele>
        <time>2014-08-24T12:34:52.11</time>
      </trkpt>
      <trkpt lat="38.387585" lon="-2.33322">
        <ele>1051</ele>
        <time>2014-08-24T12:34:54.17</time>
      </trkpt>
      <trkpt lat="38.387515" lon="-2.33325">
        <ele>1052</ele>
        <time>2014-08-24T12:34:56.11</time>
      </trkpt>
      <trkpt lat="38.38744" lon="-2.333275">
        <ele>1052</ele>
        <time>2014-08-24T12:34:58.15</time>
      </trkpt>
      <trkpt lat="38.38737" lon="-2.33329">
        <ele>1054</ele>
        <time>2014-08-24T12:35:00.11</time>
      </trkpt>
      <trkpt lat="38.38727333333333" lon="-2.33332">
        <ele>1054</ele>
        <time>2014-08-24T12:35:03.15</time>
      </trkpt>
      <trkpt lat="38.387186666666665" lon="-2.333345">
        <ele>1051</ele>
        <time>2014-08-24T12:35:06.16</time>
      </trkpt>
      <trkpt lat="38.38711" lon="-2.33337">
        <ele>1050</ele>
        <time>2014-08-24T12:35:09.11</time>
      </trkpt>
      <trkpt lat="38.38704" lon="-2.33342">
        <ele>1044</ele>
        <time>2014-08-24T12:35:12.16</time>
      </trkpt>
      <trkpt lat="38.386961666666664" lon="-2.333465">
        <ele>1044</ele>
        <time>2014-08-24T12:35:15.16</time>
      </trkpt>
      <trkpt lat="38.386876666666666" lon="-2.33352">
        <ele>1047</ele>
        <time>2014-08-24T12:35:18.16</time>
      </trkpt>
      <trkpt lat="38.386806666666665" lon="-2.33356">
        <ele>1046</ele>
        <time>2014-08-24T12:35:20.11</time>
      </trkpt>
      <trkpt lat="38.386745" lon="-2.3336">
        <ele>1044</ele>
        <time>2014-08-24T12:35:22.12</time>
      </trkpt>
      <trkpt lat="38.386665" lon="-2.3336266666666665">
        <ele>1046</ele>
        <time>2014-08-24T12:35:24.13</time>
      </trkpt>
      <trkpt lat="38.38659" lon="-2.33365">
        <ele>1046</ele>
        <time>2014-08-24T12:35:26.16</time>
      </trkpt>
      <trkpt lat="38.386505" lon="-2.33367">
        <ele>1046</ele>
        <time>2014-08-24T12:35:28.16</time>
      </trkpt>
      <trkpt lat="38.386425" lon="-2.333695">
        <ele>1047</ele>
        <time>2014-08-24T12:35:30.16</time>
      </trkpt>
      <trkpt lat="38.386325" lon="-2.33373">
        <ele>1046</ele>
        <time>2014-08-24T12:35:32.16</time>
      </trkpt>
      <trkpt lat="38.38623" lon="-2.3338">
        <ele>1041</ele>
        <time>2014-08-24T12:35:34.16</time>
      </trkpt>
      <trkpt lat="38.386145" lon="-2.333845">
        <ele>1043</ele>
        <time>2014-08-24T12:35:36.16</time>
      </trkpt>
      <trkpt lat="38.386065" lon="-2.333903333333333">
        <ele>1045</ele>
        <time>2014-08-24T12:35:38.16</time>
      </trkpt>
      <trkpt lat="38.38602" lon="-2.33403">
        <ele>1044</ele>
        <time>2014-08-24T12:35:41.16</time>
      </trkpt>
      <trkpt lat="38.38597333333333" lon="-2.3340733333333334">
        <ele>1048</ele>
        <time>2014-08-24T12:35:48.11</time>
      </trkpt>
      <trkpt lat="38.385978333333334" lon="-2.334085">
        <ele>1048</ele>
        <time>2014-08-24T12:35:54.16</time>
      </trkpt>
      <trkpt lat="38.385975" lon="-2.3341">
        <ele>1049</ele>
        <time>2014-08-24T12:36:05.31</time>
      </trkpt>
      <trkpt lat="38.385985" lon="-2.334095">
        <ele>1048</ele>
        <time>2014-08-24T12:36:06.16</time>
      </trkpt>
      <trkpt lat="38.385995" lon="-2.3340883333333333">
        <ele>1050</ele>
        <time>2014-08-24T12:36:42.12</time>
      </trkpt>
      <trkpt lat="38.385995" lon="-2.3340883333333333">
        <ele>1050</ele>
        <time>2014-08-24T12:36:43.15</time>
      </trkpt>
      <trkpt lat="38.385945" lon="-2.334095">
        <ele>1044</ele>
        <time>2014-08-24T12:37:34.15</time>
      </trkpt>
      <trkpt lat="38.38593" lon="-2.334095">
        <ele>1043</ele>
        <time>2014-08-24T12:37:36.15</time>
      </trkpt>
      <trkpt lat="38.385915" lon="-2.334095">
        <ele>1042</ele>
        <time>2014-08-24T12:37:45.15</time>
      </trkpt>
      <trkpt lat="38.385915" lon="-2.334095">
        <ele>1042</ele>
        <time>2014-08-24T12:37:46.15</time>
      </trkpt>
      <trkpt lat="38.385945" lon="-2.334085">
        <ele>1042</ele>
        <time>2014-08-24T12:38:34.15</time>
      </trkpt>
      <trkpt lat="38.385945" lon="-2.334085">
        <ele>1042</ele>
        <time>2014-08-24T12:38:35.16</time>
      </trkpt>
      <trkpt lat="38.385935" lon="-2.3340183333333333">
        <ele>1041</ele>
        <time>2014-08-24T12:39:16.16</time>
      </trkpt>
      <trkpt lat="38.385935" lon="-2.33403">
        <ele>1045</ele>
        <time>2014-08-24T12:39:18.15</time>
      </trkpt>
      <trkpt lat="38.38594" lon="-2.33405">
        <ele>1043</ele>
        <time>2014-08-24T12:39:27.15</time>
      </trkpt>
      <trkpt lat="38.38594" lon="-2.33405">
        <ele>1043</ele>
        <time>2014-08-24T12:39:28.12</time>
      </trkpt>
      <trkpt lat="38.38594" lon="-2.334065">
        <ele>1044</ele>
        <time>2014-08-24T12:40:33.15</time>
      </trkpt>
      <trkpt lat="38.38594" lon="-2.334065">
        <ele>1044</ele>
        <time>2014-08-24T12:40:34.15</time>
      </trkpt>
      <trkpt lat="38.38312" lon="-2.338105">
        <ele>1049</ele>
        <time>2014-08-24T12:42:43.13</time>
      </trkpt>
      <trkpt lat="38.383075" lon="-2.33826">
        <ele>1049</ele>
        <time>2014-08-24T12:42:45.15</time>
      </trkpt>
      <trkpt lat="38.38301" lon="-2.338415">
        <ele>1048</ele>
        <time>2014-08-24T12:42:47.19</time>
      </trkpt>
      <trkpt lat="38.382936666666666" lon="-2.33859">
        <ele>1049</ele>
        <time>2014-08-24T12:42:49.23</time>
      </trkpt>
      <trkpt lat="38.38289" lon="-2.3386633333333333">
        <ele>1046</ele>
        <time>2014-08-24T12:42:50.15</time>
      </trkpt>
      <trkpt lat="38.38285" lon="-2.3387416666666665">
        <ele>1046</ele>
        <time>2014-08-24T12:42:51.13</time>
      </trkpt>
      <trkpt lat="38.382805" lon="-2.338825">
        <ele>1046</ele>
        <time>2014-08-24T12:42:52.15</time>
      </trkpt>
      <trkpt lat="38.382755" lon="-2.33891">
        <ele>1046</ele>
        <time>2014-08-24T12:42:53.13</time>
      </trkpt>
      <trkpt lat="38.382665" lon="-2.33905">
        <ele>1046</ele>
        <time>2014-08-24T12:42:55.18</time>
      </trkpt>
      <trkpt lat="38.382605" lon="-2.33913">
        <ele>1045</ele>
        <time>2014-08-24T12:42:56.14</time>
      </trkpt>
      <trkpt lat="38.382554999999996" lon="-2.3392033333333333">
        <ele>1046</ele>
        <time>2014-08-24T12:42:57.17</time>
      </trkpt>
      <trkpt lat="38.3825" lon="-2.339295">
        <ele>1046</ele>
        <time>2014-08-24T12:42:58.14</time>
      </trkpt>
      <trkpt lat="38.382455" lon="-2.339385">
        <ele>1045</ele>
        <time>2014-08-24T12:42:59.15</time>
      </trkpt>
      <trkpt lat="38.3824" lon="-2.339485">
        <ele>1044</ele>
        <time>2014-08-24T12:43:00.25</time>
      </trkpt>
      <trkpt lat="38.382355" lon="-2.339585">
        <ele>1044</ele>
        <time>2014-08-24T12:43:01.16</time>
      </trkpt>
      <trkpt lat="38.382315" lon="-2.3396850000000002">
        <ele>1043</ele>
        <time>2014-08-24T12:43:02.13</time>
      </trkpt>
      <trkpt lat="38.38228" lon="-2.33979">
        <ele>1043</ele>
        <time>2014-08-24T12:43:03.14</time>
      </trkpt>
      <trkpt lat="38.382235" lon="-2.3399016666666665">
        <ele>1044</ele>
        <time>2014-08-24T12:43:04.14</time>
      </trkpt>
      <trkpt lat="38.382185" lon="-2.34001">
        <ele>1045</ele>
        <time>2014-08-24T12:43:05.13</time>
      </trkpt>
      <trkpt lat="38.38213" lon="-2.34014">
        <ele>1043</ele>
        <time>2014-08-24T12:43:06.14</time>
      </trkpt>
      <trkpt lat="38.38209" lon="-2.340245">
        <ele>1044</ele>
        <time>2014-08-24T12:43:07.14</time>
      </trkpt>
      <trkpt lat="38.38203" lon="-2.34034">
        <ele>1044</ele>
        <time>2014-08-24T12:43:08.13</time>
      </trkpt>
      <trkpt lat="38.38196" lon="-2.34041">
        <ele>1045</ele>
        <time>2014-08-24T12:43:09.14</time>
      </trkpt>
      <trkpt lat="38.38188" lon="-2.3404433333333334">
        <ele>1045</ele>
        <time>2014-08-24T12:43:10.16</time>
      </trkpt>
      <trkpt lat="38.38179" lon="-2.34048">
        <ele>1045</ele>
        <time>2014-08-24T12:43:11.19</time>
      </trkpt>
      <trkpt lat="38.381705" lon="-2.34052">
        <ele>1043</ele>
        <time>2014-08-24T12:43:12.32</time>
      </trkpt>
      <trkpt lat="38.38162" lon="-2.34059">
        <ele>1042</ele>
        <time>2014-08-24T12:43:13.13</time>
      </trkpt>
      <trkpt lat="38.381555" lon="-2.340695">
        <ele>1041</ele>
        <time>2014-08-24T12:43:14.22</time>
      </trkpt>
      <trkpt lat="38.38149" lon="-2.340805">
        <ele>1041</ele>
        <time>2014-08-24T12:43:15.20</time>
      </trkpt>
      <trkpt lat="38.381433333333334" lon="-2.34092">
        <ele>1040</ele>
        <time>2014-08-24T12:43:16.19</time>
      </trkpt>
      <trkpt lat="38.381375" lon="-2.341031666666667">
        <ele>1040</ele>
        <time>2014-08-24T12:43:17.20</time>
      </trkpt>
      <trkpt lat="38.381315" lon="-2.34113">
        <ele>1039</ele>
        <time>2014-08-24T12:43:18.21</time>
      </trkpt>
      <trkpt lat="38.38123" lon="-2.341225">
        <ele>1038</ele>
        <time>2014-08-24T12:43:19.19</time>
      </trkpt>
      <trkpt lat="38.381135" lon="-2.341295">
        <ele>1039</ele>
        <time>2014-08-24T12:43:20.19</time>
      </trkpt>
      <trkpt lat="38.381035" lon="-2.34136">
        <ele>1039</ele>
        <time>2014-08-24T12:43:21.19</time>
      </trkpt>
      <trkpt lat="38.380945" lon="-2.3414099999999998">
        <ele>1041</ele>
        <time>2014-08-24T12:43:22.36</time>
      </trkpt>
      <trkpt lat="38.38086" lon="-2.34145">
        <ele>1042</ele>
        <time>2014-08-24T12:43:23.18</time>
      </trkpt>
      <trkpt lat="38.380795" lon="-2.3415">
        <ele>1041</ele>
        <time>2014-08-24T12:43:24.18</time>
      </trkpt>
      <trkpt lat="38.380765" lon="-2.34168">
        <ele>1039</ele>
        <time>2014-08-24T12:43:26.13</time>
      </trkpt>
      <trkpt lat="38.38079" lon="-2.34185">
        <ele>1040</ele>
        <time>2014-08-24T12:43:28.14</time>
      </trkpt>
      <trkpt lat="38.38085" lon="-2.34192">
        <ele>1040</ele>
        <time>2014-08-24T12:43:29.18</time>
      </trkpt>
      <trkpt lat="38.38092" lon="-2.341955">
        <ele>1039</ele>
        <time>2014-08-24T12:43:30.18</time>
      </trkpt>
      <trkpt lat="38.38104833333333" lon="-2.34199">
        <ele>1040</ele>
        <time>2014-08-24T12:43:32.18</time>
      </trkpt>
      <trkpt lat="38.381175" lon="-2.34204">
        <ele>1039</ele>
        <time>2014-08-24T12:43:34.13</time>
      </trkpt>
      <trkpt lat="38.381275" lon="-2.342155">
        <ele>1042</ele>
        <time>2014-08-24T12:43:36.13</time>
      </trkpt>
      <trkpt lat="38.381305" lon="-2.3422416666666668">
        <ele>1041</ele>
        <time>2014-08-24T12:43:37.13</time>
      </trkpt>
      <trkpt lat="38.38132" lon="-2.34234">
        <ele>1041</ele>
        <time>2014-08-24T12:43:38.18</time>
      </trkpt>
      <trkpt lat="38.381325" lon="-2.342435">
        <ele>1042</ele>
        <time>2014-08-24T12:43:39.29</time>
      </trkpt>
      <trkpt lat="38.381343333333334" lon="-2.3426299999999998">
        <ele>1041</ele>
        <time>2014-08-24T12:43:41.18</time>
      </trkpt>
      <trkpt lat="38.38136" lon="-2.34272">
        <ele>1041</ele>
        <time>2014-08-24T12:43:42.14</time>
      </trkpt>
      <trkpt lat="38.381375" lon="-2.3428733333333334">
        <ele>1042</ele>
        <time>2014-08-24T12:43:44.18</time>
      </trkpt>
      <trkpt lat="38.381385" lon="-2.3429666666666664">
        <ele>1041</ele>
        <time>2014-08-24T12:43:45.13</time>
      </trkpt>
      <trkpt lat="38.38136" lon="-2.343125">
        <ele>1042</ele>
        <time>2014-08-24T12:43:47.22</time>
      </trkpt>
      <trkpt lat="38.381315" lon="-2.343265">
        <ele>1043</ele>
        <time>2014-08-24T12:43:49.18</time>
      </trkpt>
      <trkpt lat="38.38125" lon="-2.3434">
        <ele>1042</ele>
        <time>2014-08-24T12:43:51.23</time>
      </trkpt>
      <trkpt lat="38.38113" lon="-2.34349">
        <ele>1041</ele>
        <time>2014-08-24T12:43:53.12</time>
      </trkpt>
      <trkpt lat="38.381025" lon="-2.34357">
        <ele>1041</ele>
        <time>2014-08-24T12:43:55.18</time>
      </trkpt>
      <trkpt lat="38.38095" lon="-2.343585">
        <ele>1041</ele>
        <time>2014-08-24T12:43:56.18</time>
      </trkpt>
      <trkpt lat="38.38081" lon="-2.3436500000000002">
        <ele>1042</ele>
        <time>2014-08-24T12:43:58.18</time>
      </trkpt>
      <trkpt lat="38.380736666666664" lon="-2.343695">
        <ele>1042</ele>
        <time>2014-08-24T12:43:59.19</time>
      </trkpt>
      <trkpt lat="38.380665" lon="-2.343725">
        <ele>1043</ele>
        <time>2014-08-24T12:44:00.18</time>
      </trkpt>
      <trkpt lat="38.3806" lon="-2.3437666666666668">
        <ele>1043</ele>
        <time>2014-08-24T12:44:01.30</time>
      </trkpt>
      <trkpt lat="38.380525" lon="-2.343825">
        <ele>1042</ele>
        <time>2014-08-24T12:44:02.18</time>
      </trkpt>
      <trkpt lat="38.380448333333334" lon="-2.343855">
        <ele>1043</ele>
        <time>2014-08-24T12:44:03.18</time>
      </trkpt>
      <trkpt lat="38.380375" lon="-2.34392">
        <ele>1043</ele>
        <time>2014-08-24T12:44:04.18</time>
      </trkpt>
      <trkpt lat="38.38033" lon="-2.3440133333333333">
        <ele>1042</ele>
        <time>2014-08-24T12:44:05.21</time>
      </trkpt>
      <trkpt lat="38.380285" lon="-2.34409">
        <ele>1043</ele>
        <time>2014-08-24T12:44:06.17</time>
      </trkpt>
      <trkpt lat="38.38024" lon="-2.34416">
        <ele>1044</ele>
        <time>2014-08-24T12:44:07.20</time>
      </trkpt>
      <trkpt lat="38.380145" lon="-2.3443">
        <ele>1045</ele>
        <time>2014-08-24T12:44:09.17</time>
      </trkpt>
      <trkpt lat="38.3801" lon="-2.3443883333333333">
        <ele>1045</ele>
        <time>2014-08-24T12:44:10.21</time>
      </trkpt>
      <trkpt lat="38.38006166666667" lon="-2.3444783333333334">
        <ele>1044</ele>
        <time>2014-08-24T12:44:11.18</time>
      </trkpt>
      <trkpt lat="38.38001" lon="-2.3445650000000002">
        <ele>1042</ele>
        <time>2014-08-24T12:44:12.17</time>
      </trkpt>
      <trkpt lat="38.37997" lon="-2.3446583333333333">
        <ele>1040</ele>
        <time>2014-08-24T12:44:13.17</time>
      </trkpt>
      <trkpt lat="38.37990666666666" lon="-2.344825">
        <ele>1041</ele>
        <time>2014-08-24T12:44:15.18</time>
      </trkpt>
      <trkpt lat="38.379835" lon="-2.34498">
        <ele>1041</ele>
        <time>2014-08-24T12:44:17.18</time>
      </trkpt>
      <trkpt lat="38.37977166666667" lon="-2.345125">
        <ele>1041</ele>
        <time>2014-08-24T12:44:19.17</time>
      </trkpt>
      <trkpt lat="38.37973" lon="-2.345285">
        <ele>1041</ele>
        <time>2014-08-24T12:44:21.17</time>
      </trkpt>
      <trkpt lat="38.37968" lon="-2.345455">
        <ele>1040</ele>
        <time>2014-08-24T12:44:23.18</time>
      </trkpt>
      <trkpt lat="38.379665" lon="-2.3455500000000002">
        <ele>1040</ele>
        <time>2014-08-24T12:44:24.18</time>
      </trkpt>
      <trkpt lat="38.37965" lon="-2.34569">
        <ele>1041</ele>
        <time>2014-08-24T12:44:26.18</time>
      </trkpt>
      <trkpt lat="38.379585" lon="-2.3458">
        <ele>1043</ele>
        <time>2014-08-24T12:44:28.25</time>
      </trkpt>
      <trkpt lat="38.37954833333333" lon="-2.34593">
        <ele>1043</ele>
        <time>2014-08-24T12:44:30.17</time>
      </trkpt>
      <trkpt lat="38.37949" lon="-2.34603">
        <ele>1043</ele>
        <time>2014-08-24T12:44:32.17</time>
      </trkpt>
      <trkpt lat="38.379425" lon="-2.34611">
        <ele>1045</ele>
        <time>2014-08-24T12:44:34.18</time>
      </trkpt>
      <trkpt lat="38.379365" lon="-2.346205">
        <ele>1044</ele>
        <time>2014-08-24T12:44:36.18</time>
      </trkpt>
      <trkpt lat="38.3793" lon="-2.3463">
        <ele>1045</ele>
        <time>2014-08-24T12:44:38.17</time>
      </trkpt>
      <trkpt lat="38.379235" lon="-2.3464">
        <ele>1045</ele>
        <time>2014-08-24T12:44:40.18</time>
      </trkpt>
      <trkpt lat="38.379165" lon="-2.34649">
        <ele>1045</ele>
        <time>2014-08-24T12:44:42.17</time>
      </trkpt>
      <trkpt lat="38.37909" lon="-2.34658">
        <ele>1044</ele>
        <time>2014-08-24T12:44:44.17</time>
      </trkpt>
      <trkpt lat="38.37901166666666" lon="-2.34666">
        <ele>1045</ele>
        <time>2014-08-24T12:44:46.17</time>
      </trkpt>
      <trkpt lat="38.378926666666665" lon="-2.34675">
        <ele>1044</ele>
        <time>2014-08-24T12:44:48.17</time>
      </trkpt>
      <trkpt lat="38.378855" lon="-2.346835">
        <ele>1045</ele>
        <time>2014-08-24T12:44:50.17</time>
      </trkpt>
      <trkpt lat="38.37878" lon="-2.34692">
        <ele>1046</ele>
        <time>2014-08-24T12:44:52.17</time>
      </trkpt>
      <trkpt lat="38.378715" lon="-2.347025">
        <ele>1046</ele>
        <time>2014-08-24T12:44:54.17</time>
      </trkpt>
      <trkpt lat="38.378655" lon="-2.347088333333333">
        <ele>1046</ele>
        <time>2014-08-24T12:44:56.17</time>
      </trkpt>
      <trkpt lat="38.378575" lon="-2.3470866666666668">
        <ele>1046</ele>
        <time>2014-08-24T12:44:57.17</time>
      </trkpt>
      <trkpt lat="38.378575" lon="-2.347185">
        <ele>1046</ele>
        <time>2014-08-24T12:44:58.17</time>
      </trkpt>
      <trkpt lat="38.378515" lon="-2.34729">
        <ele>1050</ele>
        <time>2014-08-24T12:45:00.18</time>
      </trkpt>
      <trkpt lat="38.37851" lon="-2.3474">
        <ele>1049</ele>
        <time>2014-08-24T12:45:02.18</time>
      </trkpt>
      <trkpt lat="38.37853" lon="-2.3475099999999998">
        <ele>1051</ele>
        <time>2014-08-24T12:45:04.18</time>
      </trkpt>
      <trkpt lat="38.378476666666664" lon="-2.34759">
        <ele>1052</ele>
        <time>2014-08-24T12:45:06.18</time>
      </trkpt>
      <trkpt lat="38.378475" lon="-2.3476850000000002">
        <ele>1052</ele>
        <time>2014-08-24T12:45:07.17</time>
      </trkpt>
      <trkpt lat="38.37847" lon="-2.34784">
        <ele>1053</ele>
        <time>2014-08-24T12:45:09.17</time>
      </trkpt>
      <trkpt lat="38.37847" lon="-2.347935">
        <ele>1053</ele>
        <time>2014-08-24T12:45:10.31</time>
      </trkpt>
      <trkpt lat="38.37846" lon="-2.3480666666666665">
        <ele>1053</ele>
        <time>2014-08-24T12:45:12.17</time>
      </trkpt>
      <trkpt lat="38.37843" lon="-2.348215">
        <ele>1056</ele>
        <time>2014-08-24T12:45:14.18</time>
      </trkpt>
      <trkpt lat="38.3784" lon="-2.348325">
        <ele>1057</ele>
        <time>2014-08-24T12:45:16.17</time>
      </trkpt>
      <trkpt lat="38.378323333333334" lon="-2.34842">
        <ele>1058</ele>
        <time>2014-08-24T12:45:18.19</time>
      </trkpt>
      <trkpt lat="38.378225" lon="-2.348475">
        <ele>1057</ele>
        <time>2014-08-24T12:45:20.18</time>
      </trkpt>
      <trkpt lat="38.378115" lon="-2.348515">
        <ele>1057</ele>
        <time>2014-08-24T12:45:22.24</time>
      </trkpt>
      <trkpt lat="38.378" lon="-2.348545">
        <ele>1057</ele>
        <time>2014-08-24T12:45:24.22</time>
      </trkpt>
      <trkpt lat="38.37789" lon="-2.348575">
        <ele>1058</ele>
        <time>2014-08-24T12:45:26.23</time>
      </trkpt>
      <trkpt lat="38.37778" lon="-2.3486000000000002">
        <ele>1058</ele>
        <time>2014-08-24T12:45:28.18</time>
      </trkpt>
      <trkpt lat="38.377665" lon="-2.348605">
        <ele>1060</ele>
        <time>2014-08-24T12:45:30.17</time>
      </trkpt>
      <trkpt lat="38.37755" lon="-2.348613333333333">
        <ele>1059</ele>
        <time>2014-08-24T12:45:32.17</time>
      </trkpt>
      <trkpt lat="38.37744" lon="-2.34864">
        <ele>1058</ele>
        <time>2014-08-24T12:45:34.17</time>
      </trkpt>
      <trkpt lat="38.377325" lon="-2.348605">
        <ele>1057</ele>
        <time>2014-08-24T12:45:36.17</time>
      </trkpt>
      <trkpt lat="38.377215" lon="-2.34854">
        <ele>1057</ele>
        <time>2014-08-24T12:45:38.17</time>
      </trkpt>
      <trkpt lat="38.37713" lon="-2.3484333333333334">
        <ele>1057</ele>
        <time>2014-08-24T12:45:40.17</time>
      </trkpt>
      <trkpt lat="38.377035" lon="-2.34832">
        <ele>1057</ele>
        <time>2014-08-24T12:45:42.18</time>
      </trkpt>
      <trkpt lat="38.376985" lon="-2.34816">
        <ele>1060</ele>
        <time>2014-08-24T12:45:44.12</time>
      </trkpt>
      <trkpt lat="38.37692" lon="-2.34803">
        <ele>1060</ele>
        <time>2014-08-24T12:45:46.12</time>
      </trkpt>
      <trkpt lat="38.376825" lon="-2.347935">
        <ele>1060</ele>
        <time>2014-08-24T12:45:48.22</time>
      </trkpt>
      <trkpt lat="38.37671" lon="-2.34796">
        <ele>1059</ele>
        <time>2014-08-24T12:45:50.32</time>
      </trkpt>
      <trkpt lat="38.37661" lon="-2.3480683333333334">
        <ele>1058</ele>
        <time>2014-08-24T12:45:52.22</time>
      </trkpt>
      <trkpt lat="38.37657" lon="-2.34815">
        <ele>1058</ele>
        <time>2014-08-24T12:45:53.13</time>
      </trkpt>
      <trkpt lat="38.376505" lon="-2.34831">
        <ele>1058</ele>
        <time>2014-08-24T12:45:55.19</time>
      </trkpt>
      <trkpt lat="38.376485" lon="-2.3484">
        <ele>1058</ele>
        <time>2014-08-24T12:45:56.23</time>
      </trkpt>
      <trkpt lat="38.376455" lon="-2.34849">
        <ele>1057</ele>
        <time>2014-08-24T12:45:57.24</time>
      </trkpt>
      <trkpt lat="38.376415" lon="-2.3486583333333333">
        <ele>1057</ele>
        <time>2014-08-24T12:45:59.22</time>
      </trkpt>
      <trkpt lat="38.37639" lon="-2.348745">
        <ele>1057</ele>
        <time>2014-08-24T12:46:00.18</time>
      </trkpt>
      <trkpt lat="38.37635" lon="-2.348925">
        <ele>1057</ele>
        <time>2014-08-24T12:46:02.13</time>
      </trkpt>
      <trkpt lat="38.376315" lon="-2.349085">
        <ele>1058</ele>
        <time>2014-08-24T12:46:04.18</time>
      </trkpt>
      <trkpt lat="38.376268333333336" lon="-2.349175">
        <ele>1058</ele>
        <time>2014-08-24T12:46:05.21</time>
      </trkpt>
      <trkpt lat="38.376225" lon="-2.34925">
        <ele>1058</ele>
        <time>2014-08-24T12:46:06.18</time>
      </trkpt>
      <trkpt lat="38.37617" lon="-2.34932">
        <ele>1059</ele>
        <time>2014-08-24T12:46:07.17</time>
      </trkpt>
      <trkpt lat="38.376105" lon="-2.34939">
        <ele>1059</ele>
        <time>2014-08-24T12:46:08.35</time>
      </trkpt>
      <trkpt lat="38.376038333333334" lon="-2.349455">
        <ele>1060</ele>
        <time>2014-08-24T12:46:09.23</time>
      </trkpt>
      <trkpt lat="38.37597" lon="-2.349535">
        <ele>1059</ele>
        <time>2014-08-24T12:46:10.21</time>
      </trkpt>
      <trkpt lat="38.375925" lon="-2.34963">
        <ele>1059</ele>
        <time>2014-08-24T12:46:11.20</time>
      </trkpt>
      <trkpt lat="38.375885" lon="-2.349725">
        <ele>1059</ele>
        <time>2014-08-24T12:46:12.16</time>
      </trkpt>
      <trkpt lat="38.37586" lon="-2.349825">
        <ele>1059</ele>
        <time>2014-08-24T12:46:13.11</time>
      </trkpt>
      <trkpt lat="38.375835" lon="-2.349925">
        <ele>1060</ele>
        <time>2014-08-24T12:46:14.17</time>
      </trkpt>
      <trkpt lat="38.375845" lon="-2.350025">
        <ele>1059</ele>
        <time>2014-08-24T12:46:15.19</time>
      </trkpt>
      <trkpt lat="38.37585" lon="-2.3501250000000002">
        <ele>1057</ele>
        <time>2014-08-24T12:46:16.22</time>
      </trkpt>
      <trkpt lat="38.37585" lon="-2.350225">
        <ele>1056</ele>
        <time>2014-08-24T12:46:17.24</time>
      </trkpt>
      <trkpt lat="38.37586" lon="-2.35038">
        <ele>1057</ele>
        <time>2014-08-24T12:46:19.18</time>
      </trkpt>
      <trkpt lat="38.37584" lon="-2.350535">
        <ele>1058</ele>
        <time>2014-08-24T12:46:21.18</time>
      </trkpt>
      <trkpt lat="38.375816666666665" lon="-2.3507">
        <ele>1058</ele>
        <time>2014-08-24T12:46:23.18</time>
      </trkpt>
      <trkpt lat="38.375785" lon="-2.35083">
        <ele>1058</ele>
        <time>2014-08-24T12:46:25.23</time>
      </trkpt>
      <trkpt lat="38.37572" lon="-2.35094">
        <ele>1058</ele>
        <time>2014-08-24T12:46:27.18</time>
      </trkpt>
      <trkpt lat="38.375661666666666" lon="-2.3510516666666668">
        <ele>1058</ele>
        <time>2014-08-24T12:46:29.18</time>
      </trkpt>
      <trkpt lat="38.3756" lon="-2.351175">
        <ele>1058</ele>
        <time>2014-08-24T12:46:31.19</time>
      </trkpt>
      <trkpt lat="38.375515" lon="-2.35129">
        <ele>1057</ele>
        <time>2014-08-24T12:46:33.17</time>
      </trkpt>
      <trkpt lat="38.375405" lon="-2.3514">
        <ele>1055</ele>
        <time>2014-08-24T12:46:35.17</time>
      </trkpt>
      <trkpt lat="38.37534" lon="-2.35145">
        <ele>1054</ele>
        <time>2014-08-24T12:46:36.22</time>
      </trkpt>
      <trkpt lat="38.37527" lon="-2.351515">
        <ele>1054</ele>
        <time>2014-08-24T12:46:37.23</time>
      </trkpt>
      <trkpt lat="38.37520833333333" lon="-2.35159">
        <ele>1054</ele>
        <time>2014-08-24T12:46:38.23</time>
      </trkpt>
      <trkpt lat="38.37516" lon="-2.351685">
        <ele>1053</ele>
        <time>2014-08-24T12:46:39.25</time>
      </trkpt>
      <trkpt lat="38.375135" lon="-2.351795">
        <ele>1053</ele>
        <time>2014-08-24T12:46:40.18</time>
      </trkpt>
      <trkpt lat="38.375115" lon="-2.351905">
        <ele>1054</ele>
        <time>2014-08-24T12:46:41.18</time>
      </trkpt>
      <trkpt lat="38.375115" lon="-2.3520383333333332">
        <ele>1053</ele>
        <time>2014-08-24T12:46:42.17</time>
      </trkpt>
      <trkpt lat="38.375135" lon="-2.3521549999999998">
        <ele>1054</ele>
        <time>2014-08-24T12:46:43.17</time>
      </trkpt>
      <trkpt lat="38.375135" lon="-2.352275">
        <ele>1055</ele>
        <time>2014-08-24T12:46:44.18</time>
      </trkpt>
      <trkpt lat="38.375125" lon="-2.35237">
        <ele>1054</ele>
        <time>2014-08-24T12:46:45.18</time>
      </trkpt>
      <trkpt lat="38.375125" lon="-2.3524666666666665">
        <ele>1054</ele>
        <time>2014-08-24T12:46:46.18</time>
      </trkpt>
      <trkpt lat="38.375105" lon="-2.352575">
        <ele>1053</ele>
        <time>2014-08-24T12:46:47.18</time>
      </trkpt>
      <trkpt lat="38.37507333333333" lon="-2.35268">
        <ele>1053</ele>
        <time>2014-08-24T12:46:48.18</time>
      </trkpt>
      <trkpt lat="38.37504" lon="-2.3528000000000002">
        <ele>1052</ele>
        <time>2014-08-24T12:46:49.19</time>
      </trkpt>
      <trkpt lat="38.374988333333334" lon="-2.35291">
        <ele>1051</ele>
        <time>2014-08-24T12:46:50.18</time>
      </trkpt>
      <trkpt lat="38.37495" lon="-2.353015">
        <ele>1051</ele>
        <time>2014-08-24T12:46:51.18</time>
      </trkpt>
      <trkpt lat="38.374901666666666" lon="-2.35313">
        <ele>1051</ele>
        <time>2014-08-24T12:46:52.18</time>
      </trkpt>
      <trkpt lat="38.37486" lon="-2.3532450000000003">
        <ele>1050</ele>
        <time>2014-08-24T12:46:53.18</time>
      </trkpt>
      <trkpt lat="38.37481" lon="-2.353355">
        <ele>1050</ele>
        <time>2014-08-24T12:46:54.17</time>
      </trkpt>
      <trkpt lat="38.374761666666664" lon="-2.3534800000000002">
        <ele>1049</ele>
        <time>2014-08-24T12:46:55.18</time>
      </trkpt>
      <trkpt lat="38.374735" lon="-2.3536099999999998">
        <ele>1049</ele>
        <time>2014-08-24T12:46:56.18</time>
      </trkpt>
      <trkpt lat="38.374725" lon="-2.353745">
        <ele>1049</ele>
        <time>2014-08-24T12:46:57.18</time>
      </trkpt>
      <trkpt lat="38.374725" lon="-2.35388">
        <ele>1047</ele>
        <time>2014-08-24T12:46:58.18</time>
      </trkpt>
      <trkpt lat="38.37471" lon="-2.354006666666667">
        <ele>1047</ele>
        <time>2014-08-24T12:46:59.18</time>
      </trkpt>
      <trkpt lat="38.37471" lon="-2.354155">
        <ele>1047</ele>
        <time>2014-08-24T12:47:00.18</time>
      </trkpt>
      <trkpt lat="38.374705" lon="-2.354295">
        <ele>1047</ele>
        <time>2014-08-24T12:47:01.21</time>
      </trkpt>
      <trkpt lat="38.3747" lon="-2.354435">
        <ele>1048</ele>
        <time>2014-08-24T12:47:02.22</time>
      </trkpt>
      <trkpt lat="38.37469" lon="-2.354555">
        <ele>1048</ele>
        <time>2014-08-24T12:47:03.17</time>
      </trkpt>
      <trkpt lat="38.374685" lon="-2.354705">
        <ele>1048</ele>
        <time>2014-08-24T12:47:04.18</time>
      </trkpt>
      <trkpt lat="38.3747" lon="-2.354801666666667">
        <ele>1048</ele>
        <time>2014-08-24T12:47:05.18</time>
      </trkpt>
      <trkpt lat="38.374735" lon="-2.354925">
        <ele>1049</ele>
        <time>2014-08-24T12:47:06.18</time>
      </trkpt>
      <trkpt lat="38.37475833333333" lon="-2.35503">
        <ele>1050</ele>
        <time>2014-08-24T12:47:07.17</time>
      </trkpt>
      <trkpt lat="38.374775" lon="-2.3551333333333333">
        <ele>1049</ele>
        <time>2014-08-24T12:47:08.17</time>
      </trkpt>
      <trkpt lat="38.374755" lon="-2.35523">
        <ele>1046</ele>
        <time>2014-08-24T12:47:09.18</time>
      </trkpt>
      <trkpt lat="38.37473" lon="-2.35533">
        <ele>1046</ele>
        <time>2014-08-24T12:47:10.21</time>
      </trkpt>
      <trkpt lat="38.37469" lon="-2.355435">
        <ele>1045</ele>
        <time>2014-08-24T12:47:11.12</time>
      </trkpt>
      <trkpt lat="38.374645" lon="-2.35553">
        <ele>1045</ele>
        <time>2014-08-24T12:47:12.12</time>
      </trkpt>
      <trkpt lat="38.3746" lon="-2.355645">
        <ele>1045</ele>
        <time>2014-08-24T12:47:13.17</time>
      </trkpt>
      <trkpt lat="38.37455" lon="-2.35575">
        <ele>1044</ele>
        <time>2014-08-24T12:47:14.17</time>
      </trkpt>
      <trkpt lat="38.3745" lon="-2.35586">
        <ele>1044</ele>
        <time>2014-08-24T12:47:15.18</time>
      </trkpt>
      <trkpt lat="38.37444" lon="-2.355968333333333">
        <ele>1043</ele>
        <time>2014-08-24T12:47:16.22</time>
      </trkpt>
      <trkpt lat="38.374381666666665" lon="-2.35608">
        <ele>1043</ele>
        <time>2014-08-24T12:47:17.22</time>
      </trkpt>
      <trkpt lat="38.374325" lon="-2.35619">
        <ele>1042</ele>
        <time>2014-08-24T12:47:18.36</time>
      </trkpt>
      <trkpt lat="38.374275" lon="-2.356305">
        <ele>1041</ele>
        <time>2014-08-24T12:47:19.25</time>
      </trkpt>
      <trkpt lat="38.37421" lon="-2.35639">
        <ele>1040</ele>
        <time>2014-08-24T12:47:20.18</time>
      </trkpt>
      <trkpt lat="38.37413" lon="-2.356455">
        <ele>1039</ele>
        <time>2014-08-24T12:47:21.25</time>
      </trkpt>
      <trkpt lat="38.374065" lon="-2.3565183333333333">
        <ele>1040</ele>
        <time>2014-08-24T12:47:22.21</time>
      </trkpt>
      <trkpt lat="38.37401" lon="-2.35661">
        <ele>1040</ele>
        <time>2014-08-24T12:47:23.28</time>
      </trkpt>
      <trkpt lat="38.37396" lon="-2.3567">
        <ele>1040</ele>
        <time>2014-08-24T12:47:24.20</time>
      </trkpt>
      <trkpt lat="38.37395" lon="-2.35681">
        <ele>1039</ele>
        <time>2014-08-24T12:47:25.23</time>
      </trkpt>
      <trkpt lat="38.37398" lon="-2.35693">
        <ele>1039</ele>
        <time>2014-08-24T12:47:26.19</time>
      </trkpt>
      <trkpt lat="38.374025" lon="-2.35704">
        <ele>1038</ele>
        <time>2014-08-24T12:47:27.19</time>
      </trkpt>
      <trkpt lat="38.374095" lon="-2.35716">
        <ele>1038</ele>
        <time>2014-08-24T12:47:28.17</time>
      </trkpt>
      <trkpt lat="38.374165" lon="-2.357255">
        <ele>1039</ele>
        <time>2014-08-24T12:47:29.19</time>
      </trkpt>
      <trkpt lat="38.37422" lon="-2.3573399999999998">
        <ele>1038</ele>
        <time>2014-08-24T12:47:30.18</time>
      </trkpt>
      <trkpt lat="38.37426" lon="-2.35743">
        <ele>1037</ele>
        <time>2014-08-24T12:47:31.18</time>
      </trkpt>
      <trkpt lat="38.374295" lon="-2.35753">
        <ele>1036</ele>
        <time>2014-08-24T12:47:32.18</time>
      </trkpt>
      <trkpt lat="38.37429" lon="-2.3576633333333334">
        <ele>1037</ele>
        <time>2014-08-24T12:47:33.18</time>
      </trkpt>
      <trkpt lat="38.37428" lon="-2.3578">
        <ele>1036</ele>
        <time>2014-08-24T12:47:34.17</time>
      </trkpt>
      <trkpt lat="38.37427" lon="-2.3579316666666665">
        <ele>1035</ele>
        <time>2014-08-24T12:47:35.18</time>
      </trkpt>
      <trkpt lat="38.374255" lon="-2.358075">
        <ele>1035</ele>
        <time>2014-08-24T12:47:36.18</time>
      </trkpt>
      <trkpt lat="38.37422" lon="-2.358225">
        <ele>1033</ele>
        <time>2014-08-24T12:47:37.18</time>
      </trkpt>
      <trkpt lat="38.3742" lon="-2.35837">
        <ele>1032</ele>
        <time>2014-08-24T12:47:38.18</time>
      </trkpt>
      <trkpt lat="38.37422" lon="-2.358515">
        <ele>1032</ele>
        <time>2014-08-24T12:47:39.18</time>
      </trkpt>
      <trkpt lat="38.37425" lon="-2.358651666666667">
        <ele>1032</ele>
        <time>2014-08-24T12:47:40.18</time>
      </trkpt>
      <trkpt lat="38.37431" lon="-2.358765">
        <ele>1032</ele>
        <time>2014-08-24T12:47:41.18</time>
      </trkpt>
      <trkpt lat="38.3744" lon="-2.35886">
        <ele>1032</ele>
        <time>2014-08-24T12:47:42.18</time>
      </trkpt>
      <trkpt lat="38.37446833333333" lon="-2.35893">
        <ele>1033</ele>
        <time>2014-08-24T12:47:43.18</time>
      </trkpt>
      <trkpt lat="38.374545" lon="-2.358995">
        <ele>1034</ele>
        <time>2014-08-24T12:47:44.12</time>
      </trkpt>
      <trkpt lat="38.37463" lon="-2.359045">
        <ele>1034</ele>
        <time>2014-08-24T12:47:45.12</time>
      </trkpt>
      <trkpt lat="38.37476" lon="-2.359125">
        <ele>1033</ele>
        <time>2014-08-24T12:47:47.12</time>
      </trkpt>
      <trkpt lat="38.37482" lon="-2.3592">
        <ele>1033</ele>
        <time>2014-08-24T12:47:48.18</time>
      </trkpt>
      <trkpt lat="38.374895" lon="-2.359355">
        <ele>1031</ele>
        <time>2014-08-24T12:47:50.18</time>
      </trkpt>
      <trkpt lat="38.374945" lon="-2.35945">
        <ele>1032</ele>
        <time>2014-08-24T12:47:51.18</time>
      </trkpt>
      <trkpt lat="38.374975" lon="-2.3595516666666665">
        <ele>1032</ele>
        <time>2014-08-24T12:47:52.13</time>
      </trkpt>
      <trkpt lat="38.374995" lon="-2.35966">
        <ele>1031</ele>
        <time>2014-08-24T12:47:53.13</time>
      </trkpt>
      <trkpt lat="38.375035" lon="-2.359765">
        <ele>1031</ele>
        <time>2014-08-24T12:47:54.12</time>
      </trkpt>
      <trkpt lat="38.37508" lon="-2.35987">
        <ele>1032</ele>
        <time>2014-08-24T12:47:55.13</time>
      </trkpt>
      <trkpt lat="38.375115" lon="-2.359975">
        <ele>1032</ele>
        <time>2014-08-24T12:47:56.19</time>
      </trkpt>
      <trkpt lat="38.37515" lon="-2.36008">
        <ele>1031</ele>
        <time>2014-08-24T12:47:57.31</time>
      </trkpt>
      <trkpt lat="38.375175" lon="-2.360175">
        <ele>1030</ele>
        <time>2014-08-24T12:47:58.12</time>
      </trkpt>
      <trkpt lat="38.3752" lon="-2.3602716666666668">
        <ele>1030</ele>
        <time>2014-08-24T12:47:59.18</time>
      </trkpt>
      <trkpt lat="38.375245" lon="-2.36037">
        <ele>1030</ele>
        <time>2014-08-24T12:48:00.17</time>
      </trkpt>
      <trkpt lat="38.37528" lon="-2.360455">
        <ele>1030</ele>
        <time>2014-08-24T12:48:01.12</time>
      </trkpt>
      <trkpt lat="38.37531" lon="-2.36055">
        <ele>1030</ele>
        <time>2014-08-24T12:48:02.12</time>
      </trkpt>
      <trkpt lat="38.375366666666665" lon="-2.360665">
        <ele>1030</ele>
        <time>2014-08-24T12:48:03.12</time>
      </trkpt>
      <trkpt lat="38.37545" lon="-2.360845">
        <ele>1028</ele>
        <time>2014-08-24T12:48:05.18</time>
      </trkpt>
      <trkpt lat="38.375505" lon="-2.360945">
        <ele>1028</ele>
        <time>2014-08-24T12:48:06.18</time>
      </trkpt>
      <trkpt lat="38.375555" lon="-2.36104">
        <ele>1026</ele>
        <time>2014-08-24T12:48:07.16</time>
      </trkpt>
      <trkpt lat="38.37562" lon="-2.361145">
        <ele>1027</ele>
        <time>2014-08-24T12:48:08.19</time>
      </trkpt>
      <trkpt lat="38.375675" lon="-2.36125">
        <ele>1028</ele>
        <time>2014-08-24T12:48:09.23</time>
      </trkpt>
      <trkpt lat="38.375715" lon="-2.36137">
        <ele>1027</ele>
        <time>2014-08-24T12:48:10.29</time>
      </trkpt>
      <trkpt lat="38.37574" lon="-2.361505">
        <ele>1027</ele>
        <time>2014-08-24T12:48:11.18</time>
      </trkpt>
      <trkpt lat="38.375765" lon="-2.36166">
        <ele>1027</ele>
        <time>2014-08-24T12:48:12.19</time>
      </trkpt>
      <trkpt lat="38.375775" lon="-2.36178">
        <ele>1027</ele>
        <time>2014-08-24T12:48:13.18</time>
      </trkpt>
      <trkpt lat="38.375785" lon="-2.3619133333333333">
        <ele>1026</ele>
        <time>2014-08-24T12:48:14.17</time>
      </trkpt>
      <trkpt lat="38.375795" lon="-2.36206">
        <ele>1024</ele>
        <time>2014-08-24T12:48:15.17</time>
      </trkpt>
      <trkpt lat="38.375795" lon="-2.362215">
        <ele>1024</ele>
        <time>2014-08-24T12:48:16.17</time>
      </trkpt>
      <trkpt lat="38.375815" lon="-2.362375">
        <ele>1024</ele>
        <time>2014-08-24T12:48:17.17</time>
      </trkpt>
      <trkpt lat="38.375825" lon="-2.3625066666666665">
        <ele>1023</ele>
        <time>2014-08-24T12:48:18.17</time>
      </trkpt>
      <trkpt lat="38.37583" lon="-2.362655">
        <ele>1023</ele>
        <time>2014-08-24T12:48:19.18</time>
      </trkpt>
      <trkpt lat="38.37583" lon="-2.362805">
        <ele>1023</ele>
        <time>2014-08-24T12:48:20.17</time>
      </trkpt>
      <trkpt lat="38.37583" lon="-2.36296">
        <ele>1023</ele>
        <time>2014-08-24T12:48:21.24</time>
      </trkpt>
      <trkpt lat="38.37584" lon="-2.363115">
        <ele>1022</ele>
        <time>2014-08-24T12:48:22.17</time>
      </trkpt>
      <trkpt lat="38.375835" lon="-2.36326">
        <ele>1022</ele>
        <time>2014-08-24T12:48:23.17</time>
      </trkpt>
      <trkpt lat="38.37583" lon="-2.363425">
        <ele>1021</ele>
        <time>2014-08-24T12:48:24.18</time>
      </trkpt>
      <trkpt lat="38.37584" lon="-2.36358">
        <ele>1020</ele>
        <time>2014-08-24T12:48:25.22</time>
      </trkpt>
      <trkpt lat="38.375845" lon="-2.36375">
        <ele>1019</ele>
        <time>2014-08-24T12:48:26.18</time>
      </trkpt>
      <trkpt lat="38.37585" lon="-2.363915">
        <ele>1017</ele>
        <time>2014-08-24T12:48:27.17</time>
      </trkpt>
      <trkpt lat="38.37583333333333" lon="-2.364075">
        <ele>1017</ele>
        <time>2014-08-24T12:48:28.18</time>
      </trkpt>
      <trkpt lat="38.37583166666667" lon="-2.3642366666666668">
        <ele>1016</ele>
        <time>2014-08-24T12:48:29.18</time>
      </trkpt>
      <trkpt lat="38.37583" lon="-2.36441">
        <ele>1016</ele>
        <time>2014-08-24T12:48:30.18</time>
      </trkpt>
      <trkpt lat="38.37581" lon="-2.3645733333333334">
        <ele>1015</ele>
        <time>2014-08-24T12:48:31.17</time>
      </trkpt>
      <trkpt lat="38.375795" lon="-2.364735">
        <ele>1014</ele>
        <time>2014-08-24T12:48:32.18</time>
      </trkpt>
      <trkpt lat="38.375785" lon="-2.364891666666667">
        <ele>1013</ele>
        <time>2014-08-24T12:48:33.31</time>
      </trkpt>
      <trkpt lat="38.37577" lon="-2.36505">
        <ele>1013</ele>
        <time>2014-08-24T12:48:34.17</time>
      </trkpt>
      <trkpt lat="38.37574" lon="-2.3651983333333333">
        <ele>1013</ele>
        <time>2014-08-24T12:48:35.18</time>
      </trkpt>
      <trkpt lat="38.37567" lon="-2.3653399999999998">
        <ele>1012</ele>
        <time>2014-08-24T12:48:36.18</time>
      </trkpt>
      <trkpt lat="38.37558" lon="-2.36546">
        <ele>1011</ele>
        <time>2014-08-24T12:48:37.18</time>
      </trkpt>
      <trkpt lat="38.375495" lon="-2.36557">
        <ele>1010</ele>
        <time>2014-08-24T12:48:38.25</time>
      </trkpt>
      <trkpt lat="38.37538" lon="-2.36566">
        <ele>1009</ele>
        <time>2014-08-24T12:48:39.35</time>
      </trkpt>
      <trkpt lat="38.37527" lon="-2.3657500000000002">
        <ele>1009</ele>
        <time>2014-08-24T12:48:40.17</time>
      </trkpt>
      <trkpt lat="38.37517" lon="-2.365855">
        <ele>1009</ele>
        <time>2014-08-24T12:48:41.22</time>
      </trkpt>
      <trkpt lat="38.37507333333333" lon="-2.36596">
        <ele>1009</ele>
        <time>2014-08-24T12:48:42.23</time>
      </trkpt>
      <trkpt lat="38.375" lon="-2.366085">
        <ele>1009</ele>
        <time>2014-08-24T12:48:43.24</time>
      </trkpt>
      <trkpt lat="38.374935" lon="-2.366205">
        <ele>1009</ele>
        <time>2014-08-24T12:48:44.17</time>
      </trkpt>
      <trkpt lat="38.374865" lon="-2.36632">
        <ele>1009</ele>
        <time>2014-08-24T12:48:45.34</time>
      </trkpt>
      <trkpt lat="38.3748" lon="-2.36644">
        <ele>1009</ele>
        <time>2014-08-24T12:48:46.18</time>
      </trkpt>
      <trkpt lat="38.374735" lon="-2.366565">
        <ele>1008</ele>
        <time>2014-08-24T12:48:47.17</time>
      </trkpt>
      <trkpt lat="38.374655" lon="-2.366695">
        <ele>1007</ele>
        <time>2014-08-24T12:48:48.18</time>
      </trkpt>
      <trkpt lat="38.374585" lon="-2.366825">
        <ele>1006</ele>
        <time>2014-08-24T12:48:49.18</time>
      </trkpt>
      <trkpt lat="38.374521666666666" lon="-2.366965">
        <ele>1005</ele>
        <time>2014-08-24T12:48:50.19</time>
      </trkpt>
      <trkpt lat="38.37446" lon="-2.367095">
        <ele>1004</ele>
        <time>2014-08-24T12:48:51.35</time>
      </trkpt>
      <trkpt lat="38.3744" lon="-2.367225">
        <ele>1004</ele>
        <time>2014-08-24T12:48:52.23</time>
      </trkpt>
      <trkpt lat="38.374311666666664" lon="-2.36733">
        <ele>1005</ele>
        <time>2014-08-24T12:48:53.18</time>
      </trkpt>
      <trkpt lat="38.374225" lon="-2.36742">
        <ele>1005</ele>
        <time>2014-08-24T12:48:54.18</time>
      </trkpt>
      <trkpt lat="38.374135" lon="-2.36749">
        <ele>1004</ele>
        <time>2014-08-24T12:48:55.18</time>
      </trkpt>
      <trkpt lat="38.374025" lon="-2.36755">
        <ele>1004</ele>
        <time>2014-08-24T12:48:56.18</time>
      </trkpt>
      <trkpt lat="38.37391" lon="-2.36759">
        <ele>1003</ele>
        <time>2014-08-24T12:48:57.19</time>
      </trkpt>
      <trkpt lat="38.373805" lon="-2.36763">
        <ele>1004</ele>
        <time>2014-08-24T12:48:58.18</time>
      </trkpt>
      <trkpt lat="38.37369" lon="-2.36767">
        <ele>1004</ele>
        <time>2014-08-24T12:48:59.22</time>
      </trkpt>
      <trkpt lat="38.37358" lon="-2.367725">
        <ele>1002</ele>
        <time>2014-08-24T12:49:00.17</time>
      </trkpt>
      <trkpt lat="38.37348" lon="-2.36779">
        <ele>1002</ele>
        <time>2014-08-24T12:49:01.19</time>
      </trkpt>
      <trkpt lat="38.37338" lon="-2.3678850000000002">
        <ele>1001</ele>
        <time>2014-08-24T12:49:02.19</time>
      </trkpt>
      <trkpt lat="38.37329" lon="-2.367995">
        <ele>999</ele>
        <time>2014-08-24T12:49:03.18</time>
      </trkpt>
      <trkpt lat="38.37322" lon="-2.3681200000000002">
        <ele>999</ele>
        <time>2014-08-24T12:49:04.18</time>
      </trkpt>
      <trkpt lat="38.373145" lon="-2.368245">
        <ele>998</ele>
        <time>2014-08-24T12:49:05.18</time>
      </trkpt>
      <trkpt lat="38.373065" lon="-2.36837">
        <ele>998</ele>
        <time>2014-08-24T12:49:06.18</time>
      </trkpt>
      <trkpt lat="38.372985" lon="-2.3684950000000002">
        <ele>997</ele>
        <time>2014-08-24T12:49:07.21</time>
      </trkpt>
      <trkpt lat="38.372915" lon="-2.368621666666667">
        <ele>996</ele>
        <time>2014-08-24T12:49:08.18</time>
      </trkpt>
      <trkpt lat="38.37284" lon="-2.368765">
        <ele>995</ele>
        <time>2014-08-24T12:49:09.18</time>
      </trkpt>
      <trkpt lat="38.372775" lon="-2.368895">
        <ele>995</ele>
        <time>2014-08-24T12:49:10.20</time>
      </trkpt>
      <trkpt lat="38.372685" lon="-2.36903">
        <ele>994</ele>
        <time>2014-08-24T12:49:11.18</time>
      </trkpt>
      <trkpt lat="38.372615" lon="-2.36917">
        <ele>994</ele>
        <time>2014-08-24T12:49:12.17</time>
      </trkpt>
      <trkpt lat="38.37253" lon="-2.36931">
        <ele>994</ele>
        <time>2014-08-24T12:49:13.17</time>
      </trkpt>
      <trkpt lat="38.372445" lon="-2.369455">
        <ele>992</ele>
        <time>2014-08-24T12:49:14.33</time>
      </trkpt>
      <trkpt lat="38.372365" lon="-2.3695983333333333">
        <ele>991</ele>
        <time>2014-08-24T12:49:15.14</time>
      </trkpt>
      <trkpt lat="38.37227" lon="-2.36974">
        <ele>989</ele>
        <time>2014-08-24T12:49:16.12</time>
      </trkpt>
      <trkpt lat="38.372195" lon="-2.36989">
        <ele>989</ele>
        <time>2014-08-24T12:49:17.14</time>
      </trkpt>
      <trkpt lat="38.372125" lon="-2.370035">
        <ele>989</ele>
        <time>2014-08-24T12:49:18.17</time>
      </trkpt>
      <trkpt lat="38.372031666666665" lon="-2.370175">
        <ele>989</ele>
        <time>2014-08-24T12:49:19.17</time>
      </trkpt>
      <trkpt lat="38.371935" lon="-2.370305">
        <ele>989</ele>
        <time>2014-08-24T12:49:20.18</time>
      </trkpt>
      <trkpt lat="38.37182" lon="-2.3704183333333333">
        <ele>988</ele>
        <time>2014-08-24T12:49:21.17</time>
      </trkpt>
      <trkpt lat="38.371715" lon="-2.37053">
        <ele>987</ele>
        <time>2014-08-24T12:49:22.16</time>
      </trkpt>
      <trkpt lat="38.371581666666664" lon="-2.370655">
        <ele>985</ele>
        <time>2014-08-24T12:49:23.20</time>
      </trkpt>
      <trkpt lat="38.371475" lon="-2.370795">
        <ele>983</ele>
        <time>2014-08-24T12:49:24.17</time>
      </trkpt>
      <trkpt lat="38.371385" lon="-2.37094">
        <ele>983</ele>
        <time>2014-08-24T12:49:25.16</time>
      </trkpt>
      <trkpt lat="38.37128666666667" lon="-2.3711">
        <ele>981</ele>
        <time>2014-08-24T12:49:26.17</time>
      </trkpt>
      <trkpt lat="38.371205" lon="-2.371255">
        <ele>981</ele>
        <time>2014-08-24T12:49:27.17</time>
      </trkpt>
      <trkpt lat="38.37113" lon="-2.371415">
        <ele>981</ele>
        <time>2014-08-24T12:49:28.16</time>
      </trkpt>
      <trkpt lat="38.37106" lon="-2.371575">
        <ele>981</ele>
        <time>2014-08-24T12:49:29.17</time>
      </trkpt>
      <trkpt lat="38.370975" lon="-2.3717449999999998">
        <ele>979</ele>
        <time>2014-08-24T12:49:30.21</time>
      </trkpt>
      <trkpt lat="38.370925" lon="-2.3719">
        <ele>979</ele>
        <time>2014-08-24T12:49:31.35</time>
      </trkpt>
      <trkpt lat="38.370875" lon="-2.372045">
        <ele>979</ele>
        <time>2014-08-24T12:49:32.16</time>
      </trkpt>
      <trkpt lat="38.370795" lon="-2.372175">
        <ele>978</ele>
        <time>2014-08-24T12:49:33.16</time>
      </trkpt>
      <trkpt lat="38.3707" lon="-2.37229">
        <ele>977</ele>
        <time>2014-08-24T12:49:34.16</time>
      </trkpt>
      <trkpt lat="38.370635" lon="-2.372405">
        <ele>976</ele>
        <time>2014-08-24T12:49:35.16</time>
      </trkpt>
      <trkpt lat="38.370525" lon="-2.372465">
        <ele>976</ele>
        <time>2014-08-24T12:49:36.17</time>
      </trkpt>
      <trkpt lat="38.370415" lon="-2.372535">
        <ele>976</ele>
        <time>2014-08-24T12:49:37.16</time>
      </trkpt>
      <trkpt lat="38.370325" lon="-2.372615">
        <ele>976</ele>
        <time>2014-08-24T12:49:38.16</time>
      </trkpt>
      <trkpt lat="38.37023" lon="-2.372745">
        <ele>974</ele>
        <time>2014-08-24T12:49:39.17</time>
      </trkpt>
      <trkpt lat="38.370195" lon="-2.37287">
        <ele>974</ele>
        <time>2014-08-24T12:49:40.17</time>
      </trkpt>
      <trkpt lat="38.37028" lon="-2.37298">
        <ele>975</ele>
        <time>2014-08-24T12:49:41.29</time>
      </trkpt>
      <trkpt lat="38.370345" lon="-2.3730700000000002">
        <ele>974</ele>
        <time>2014-08-24T12:49:42.37</time>
      </trkpt>
      <trkpt lat="38.370525" lon="-2.3731283333333333">
        <ele>970</ele>
        <time>2014-08-24T12:49:43.20</time>
      </trkpt>
      <trkpt lat="38.370615" lon="-2.3731816666666665">
        <ele>969</ele>
        <time>2014-08-24T12:49:44.12</time>
      </trkpt>
      <trkpt lat="38.37072" lon="-2.373215">
        <ele>969</ele>
        <time>2014-08-24T12:49:45.12</time>
      </trkpt>
      <trkpt lat="38.370825" lon="-2.37326">
        <ele>969</ele>
        <time>2014-08-24T12:49:46.13</time>
      </trkpt>
      <trkpt lat="38.370945" lon="-2.373305">
        <ele>970</ele>
        <time>2014-08-24T12:49:47.16</time>
      </trkpt>
      <trkpt lat="38.371045" lon="-2.373355">
        <ele>970</ele>
        <time>2014-08-24T12:49:48.33</time>
      </trkpt>
      <trkpt lat="38.37116" lon="-2.37342">
        <ele>969</ele>
        <time>2014-08-24T12:49:49.23</time>
      </trkpt>
      <trkpt lat="38.37126" lon="-2.37349">
        <ele>969</ele>
        <time>2014-08-24T12:49:50.21</time>
      </trkpt>
      <trkpt lat="38.371355" lon="-2.3735633333333332">
        <ele>970</ele>
        <time>2014-08-24T12:49:51.17</time>
      </trkpt>
      <trkpt lat="38.371455" lon="-2.373641666666667">
        <ele>969</ele>
        <time>2014-08-24T12:49:52.21</time>
      </trkpt>
      <trkpt lat="38.371545" lon="-2.3737216666666665">
        <ele>969</ele>
        <time>2014-08-24T12:49:53.17</time>
      </trkpt>
      <trkpt lat="38.37165" lon="-2.373815">
        <ele>968</ele>
        <time>2014-08-24T12:49:54.22</time>
      </trkpt>
      <trkpt lat="38.371765" lon="-2.3738983333333334">
        <ele>967</ele>
        <time>2014-08-24T12:49:55.23</time>
      </trkpt>
      <trkpt lat="38.371865" lon="-2.37396">
        <ele>969</ele>
        <time>2014-08-24T12:49:56.20</time>
      </trkpt>
      <trkpt lat="38.371975" lon="-2.374035">
        <ele>968</ele>
        <time>2014-08-24T12:49:57.21</time>
      </trkpt>
      <trkpt lat="38.37205" lon="-2.374111666666667">
        <ele>970</ele>
        <time>2014-08-24T12:49:58.21</time>
      </trkpt>
      <trkpt lat="38.37209" lon="-2.37422">
        <ele>966</ele>
        <time>2014-08-24T12:49:59.20</time>
      </trkpt>
      <trkpt lat="38.372185" lon="-2.374305">
        <ele>967</ele>
        <time>2014-08-24T12:50:00.20</time>
      </trkpt>
      <trkpt lat="38.37222" lon="-2.374441666666667">
        <ele>967</ele>
        <time>2014-08-24T12:50:01.24</time>
      </trkpt>
      <trkpt lat="38.372258333333335" lon="-2.37457">
        <ele>966</ele>
        <time>2014-08-24T12:50:02.23</time>
      </trkpt>
      <trkpt lat="38.372285" lon="-2.3747083333333334">
        <ele>965</ele>
        <time>2014-08-24T12:50:03.21</time>
      </trkpt>
      <trkpt lat="38.372295" lon="-2.374865">
        <ele>965</ele>
        <time>2014-08-24T12:50:04.21</time>
      </trkpt>
      <trkpt lat="38.37227166666667" lon="-2.37499">
        <ele>964</ele>
        <time>2014-08-24T12:50:05.35</time>
      </trkpt>
      <trkpt lat="38.372245" lon="-2.375145">
        <ele>963</ele>
        <time>2014-08-24T12:50:06.18</time>
      </trkpt>
      <trkpt lat="38.372205" lon="-2.3752750000000002">
        <ele>963</ele>
        <time>2014-08-24T12:50:07.22</time>
      </trkpt>
      <trkpt lat="38.37217" lon="-2.37542">
        <ele>961</ele>
        <time>2014-08-24T12:50:08.23</time>
      </trkpt>
      <trkpt lat="38.37213" lon="-2.375555">
        <ele>961</ele>
        <time>2014-08-24T12:50:09.20</time>
      </trkpt>
      <trkpt lat="38.372065" lon="-2.37567">
        <ele>960</ele>
        <time>2014-08-24T12:50:10.22</time>
      </trkpt>
      <trkpt lat="38.372005" lon="-2.37578">
        <ele>960</ele>
        <time>2014-08-24T12:50:11.36</time>
      </trkpt>
      <trkpt lat="38.371946666666666" lon="-2.37589">
        <ele>958</ele>
        <time>2014-08-24T12:50:12.16</time>
      </trkpt>
      <trkpt lat="38.371915" lon="-2.376025">
        <ele>957</ele>
        <time>2014-08-24T12:50:13.16</time>
      </trkpt>
      <trkpt lat="38.371905" lon="-2.376151666666667">
        <ele>957</ele>
        <time>2014-08-24T12:50:14.17</time>
      </trkpt>
      <trkpt lat="38.371915" lon="-2.376295">
        <ele>957</ele>
        <time>2014-08-24T12:50:15.23</time>
      </trkpt>
      <trkpt lat="38.37197" lon="-2.376405">
        <ele>957</ele>
        <time>2014-08-24T12:50:16.20</time>
      </trkpt>
      <trkpt lat="38.37202833333333" lon="-2.3765083333333332">
        <ele>956</ele>
        <time>2014-08-24T12:50:17.36</time>
      </trkpt>
      <trkpt lat="38.372135" lon="-2.3765866666666664">
        <ele>954</ele>
        <time>2014-08-24T12:50:18.21</time>
      </trkpt>
      <trkpt lat="38.372245" lon="-2.37663">
        <ele>954</ele>
        <time>2014-08-24T12:50:19.23</time>
      </trkpt>
      <trkpt lat="38.37236" lon="-2.376681666666667">
        <ele>952</ele>
        <time>2014-08-24T12:50:20.16</time>
      </trkpt>
      <trkpt lat="38.372475" lon="-2.376705">
        <ele>952</ele>
        <time>2014-08-24T12:50:21.18</time>
      </trkpt>
      <trkpt lat="38.37259" lon="-2.37674">
        <ele>950</ele>
        <time>2014-08-24T12:50:22.17</time>
      </trkpt>
      <trkpt lat="38.3727" lon="-2.37676">
        <ele>950</ele>
        <time>2014-08-24T12:50:23.17</time>
      </trkpt>
      <trkpt lat="38.372791666666664" lon="-2.376795">
        <ele>948</ele>
        <time>2014-08-24T12:50:24.17</time>
      </trkpt>
      <trkpt lat="38.372895" lon="-2.376815">
        <ele>945</ele>
        <time>2014-08-24T12:50:25.24</time>
      </trkpt>
      <trkpt lat="38.372995" lon="-2.3768683333333334">
        <ele>945</ele>
        <time>2014-08-24T12:50:26.17</time>
      </trkpt>
      <trkpt lat="38.37305" lon="-2.37703">
        <ele>944</ele>
        <time>2014-08-24T12:50:27.20</time>
      </trkpt>
      <trkpt lat="38.373086666666666" lon="-2.37719">
        <ele>945</ele>
        <time>2014-08-24T12:50:28.17</time>
      </trkpt>
      <trkpt lat="38.373135" lon="-2.3773400000000002">
        <ele>943</ele>
        <time>2014-08-24T12:50:29.17</time>
      </trkpt>
      <trkpt lat="38.373195" lon="-2.377475">
        <ele>943</ele>
        <time>2014-08-24T12:50:30.17</time>
      </trkpt>
      <trkpt lat="38.373241666666665" lon="-2.37762">
        <ele>943</ele>
        <time>2014-08-24T12:50:31.17</time>
      </trkpt>
      <trkpt lat="38.373305" lon="-2.377745">
        <ele>944</ele>
        <time>2014-08-24T12:50:32.17</time>
      </trkpt>
      <trkpt lat="38.37332" lon="-2.377905">
        <ele>939</ele>
        <time>2014-08-24T12:50:33.18</time>
      </trkpt>
      <trkpt lat="38.373325" lon="-2.37805">
        <ele>940</ele>
        <time>2014-08-24T12:50:34.18</time>
      </trkpt>
      <trkpt lat="38.37329" lon="-2.37818">
        <ele>940</ele>
        <time>2014-08-24T12:50:35.17</time>
      </trkpt>
      <trkpt lat="38.37323833333333" lon="-2.37831">
        <ele>940</ele>
        <time>2014-08-24T12:50:36.18</time>
      </trkpt>
      <trkpt lat="38.373175" lon="-2.378425">
        <ele>939</ele>
        <time>2014-08-24T12:50:37.21</time>
      </trkpt>
      <trkpt lat="38.373115" lon="-2.378545">
        <ele>937</ele>
        <time>2014-08-24T12:50:38.18</time>
      </trkpt>
      <trkpt lat="38.373095" lon="-2.378675">
        <ele>936</ele>
        <time>2014-08-24T12:50:39.17</time>
      </trkpt>
      <trkpt lat="38.373135" lon="-2.37881">
        <ele>935</ele>
        <time>2014-08-24T12:50:40.16</time>
      </trkpt>
      <trkpt lat="38.37317" lon="-2.3789350000000002">
        <ele>935</ele>
        <time>2014-08-24T12:50:41.22</time>
      </trkpt>
      <trkpt lat="38.37325" lon="-2.3790633333333333">
        <ele>933</ele>
        <time>2014-08-24T12:50:42.23</time>
      </trkpt>
      <trkpt lat="38.373313333333336" lon="-2.379185">
        <ele>932</ele>
        <time>2014-08-24T12:50:43.24</time>
      </trkpt>
      <trkpt lat="38.373385" lon="-2.379305">
        <ele>929</ele>
        <time>2014-08-24T12:50:44.22</time>
      </trkpt>
      <trkpt lat="38.373475" lon="-2.37941">
        <ele>929</ele>
        <time>2014-08-24T12:50:45.21</time>
      </trkpt>
      <trkpt lat="38.373551666666664" lon="-2.379515">
        <ele>930</ele>
        <time>2014-08-24T12:50:46.17</time>
      </trkpt>
      <trkpt lat="38.37359" lon="-2.379646666666667">
        <ele>926</ele>
        <time>2014-08-24T12:50:47.21</time>
      </trkpt>
      <trkpt lat="38.37365" lon="-2.3797800000000002">
        <ele>927</ele>
        <time>2014-08-24T12:50:48.21</time>
      </trkpt>
      <trkpt lat="38.3737" lon="-2.379915">
        <ele>927</ele>
        <time>2014-08-24T12:50:49.23</time>
      </trkpt>
      <trkpt lat="38.37372" lon="-2.38009">
        <ele>926</ele>
        <time>2014-08-24T12:50:50.17</time>
      </trkpt>
      <trkpt lat="38.373735" lon="-2.380245">
        <ele>926</ele>
        <time>2014-08-24T12:50:51.17</time>
      </trkpt>
      <trkpt lat="38.37369" lon="-2.380395">
        <ele>924</ele>
        <time>2014-08-24T12:50:52.17</time>
      </trkpt>
      <trkpt lat="38.37367" lon="-2.38056">
        <ele>922</ele>
        <time>2014-08-24T12:50:53.17</time>
      </trkpt>
      <trkpt lat="38.37363" lon="-2.3807183333333333">
        <ele>920</ele>
        <time>2014-08-24T12:50:54.22</time>
      </trkpt>
      <trkpt lat="38.373605" lon="-2.38088">
        <ele>919</ele>
        <time>2014-08-24T12:50:55.23</time>
      </trkpt>
      <trkpt lat="38.373575" lon="-2.381045">
        <ele>920</ele>
        <time>2014-08-24T12:50:56.24</time>
      </trkpt>
      <trkpt lat="38.37352" lon="-2.381205">
        <ele>919</ele>
        <time>2014-08-24T12:50:57.24</time>
      </trkpt>
      <trkpt lat="38.373468333333335" lon="-2.381345">
        <ele>919</ele>
        <time>2014-08-24T12:50:58.32</time>
      </trkpt>
      <trkpt lat="38.37339" lon="-2.38149">
        <ele>918</ele>
        <time>2014-08-24T12:50:59.18</time>
      </trkpt>
      <trkpt lat="38.37331" lon="-2.38164">
        <ele>915</ele>
        <time>2014-08-24T12:51:00.17</time>
      </trkpt>
      <trkpt lat="38.37322" lon="-2.381745">
        <ele>915</ele>
        <time>2014-08-24T12:51:01.17</time>
      </trkpt>
      <trkpt lat="38.373115" lon="-2.381835">
        <ele>913</ele>
        <time>2014-08-24T12:51:02.18</time>
      </trkpt>
      <trkpt lat="38.372995" lon="-2.38192">
        <ele>912</ele>
        <time>2014-08-24T12:51:03.23</time>
      </trkpt>
      <trkpt lat="38.372875" lon="-2.381998333333333">
        <ele>911</ele>
        <time>2014-08-24T12:51:04.17</time>
      </trkpt>
      <trkpt lat="38.37276" lon="-2.38209">
        <ele>910</ele>
        <time>2014-08-24T12:51:05.20</time>
      </trkpt>
      <trkpt lat="38.37268" lon="-2.38219">
        <ele>909</ele>
        <time>2014-08-24T12:51:06.18</time>
      </trkpt>
      <trkpt lat="38.372605" lon="-2.3823">
        <ele>908</ele>
        <time>2014-08-24T12:51:07.17</time>
      </trkpt>
      <trkpt lat="38.372565" lon="-2.38241">
        <ele>908</ele>
        <time>2014-08-24T12:51:08.17</time>
      </trkpt>
      <trkpt lat="38.37256" lon="-2.38253">
        <ele>908</ele>
        <time>2014-08-24T12:51:09.17</time>
      </trkpt>
      <trkpt lat="38.37259" lon="-2.382651666666667">
        <ele>908</ele>
        <time>2014-08-24T12:51:10.29</time>
      </trkpt>
      <trkpt lat="38.37261" lon="-2.38277">
        <ele>907</ele>
        <time>2014-08-24T12:51:11.18</time>
      </trkpt>
      <trkpt lat="38.372685" lon="-2.38287">
        <ele>906</ele>
        <time>2014-08-24T12:51:12.17</time>
      </trkpt>
      <trkpt lat="38.37272" lon="-2.38298">
        <ele>906</ele>
        <time>2014-08-24T12:51:13.17</time>
      </trkpt>
      <trkpt lat="38.372735" lon="-2.38308">
        <ele>905</ele>
        <time>2014-08-24T12:51:14.17</time>
      </trkpt>
      <trkpt lat="38.37273" lon="-2.38319">
        <ele>904</ele>
        <time>2014-08-24T12:51:15.17</time>
      </trkpt>
      <trkpt lat="38.372735" lon="-2.38333">
        <ele>903</ele>
        <time>2014-08-24T12:51:16.17</time>
      </trkpt>
      <trkpt lat="38.372685" lon="-2.383495">
        <ele>900</ele>
        <time>2014-08-24T12:51:17.17</time>
      </trkpt>
      <trkpt lat="38.372655" lon="-2.383655">
        <ele>898</ele>
        <time>2014-08-24T12:51:18.17</time>
      </trkpt>
      <trkpt lat="38.372615" lon="-2.383805">
        <ele>897</ele>
        <time>2014-08-24T12:51:19.17</time>
      </trkpt>
      <trkpt lat="38.37256" lon="-2.383935">
        <ele>896</ele>
        <time>2014-08-24T12:51:20.17</time>
      </trkpt>
      <trkpt lat="38.372483333333335" lon="-2.384065">
        <ele>893</ele>
        <time>2014-08-24T12:51:21.18</time>
      </trkpt>
      <trkpt lat="38.372405" lon="-2.38416">
        <ele>892</ele>
        <time>2014-08-24T12:51:22.17</time>
      </trkpt>
      <trkpt lat="38.372305" lon="-2.38423">
        <ele>892</ele>
        <time>2014-08-24T12:51:23.18</time>
      </trkpt>
      <trkpt lat="38.372205" lon="-2.384295">
        <ele>892</ele>
        <time>2014-08-24T12:51:24.24</time>
      </trkpt>
      <trkpt lat="38.372096666666664" lon="-2.38439">
        <ele>891</ele>
        <time>2014-08-24T12:51:25.21</time>
      </trkpt>
      <trkpt lat="38.372005" lon="-2.384515">
        <ele>890</ele>
        <time>2014-08-24T12:51:26.17</time>
      </trkpt>
      <trkpt lat="38.371935" lon="-2.384645">
        <ele>890</ele>
        <time>2014-08-24T12:51:27.17</time>
      </trkpt>
      <trkpt lat="38.371855" lon="-2.384786666666667">
        <ele>889</ele>
        <time>2014-08-24T12:51:28.17</time>
      </trkpt>
      <trkpt lat="38.371795" lon="-2.384935">
        <ele>890</ele>
        <time>2014-08-24T12:51:29.17</time>
      </trkpt>
      <trkpt lat="38.37173" lon="-2.385085">
        <ele>889</ele>
        <time>2014-08-24T12:51:30.18</time>
      </trkpt>
      <trkpt lat="38.371675" lon="-2.385255">
        <ele>887</ele>
        <time>2014-08-24T12:51:31.23</time>
      </trkpt>
      <trkpt lat="38.37162" lon="-2.385425">
        <ele>887</ele>
        <time>2014-08-24T12:51:32.31</time>
      </trkpt>
      <trkpt lat="38.371555" lon="-2.385585">
        <ele>886</ele>
        <time>2014-08-24T12:51:33.17</time>
      </trkpt>
      <trkpt lat="38.371485" lon="-2.3857383333333333">
        <ele>885</ele>
        <time>2014-08-24T12:51:34.20</time>
      </trkpt>
      <trkpt lat="38.371405" lon="-2.385895">
        <ele>884</ele>
        <time>2014-08-24T12:51:35.21</time>
      </trkpt>
      <trkpt lat="38.371335" lon="-2.38605">
        <ele>884</ele>
        <time>2014-08-24T12:51:36.22</time>
      </trkpt>
      <trkpt lat="38.371265" lon="-2.38621">
        <ele>884</ele>
        <time>2014-08-24T12:51:37.23</time>
      </trkpt>
      <trkpt lat="38.371195" lon="-2.38638">
        <ele>884</ele>
        <time>2014-08-24T12:51:38.32</time>
      </trkpt>
      <trkpt lat="38.37113" lon="-2.3865483333333333">
        <ele>884</ele>
        <time>2014-08-24T12:51:39.18</time>
      </trkpt>
      <trkpt lat="38.37107" lon="-2.38672">
        <ele>883</ele>
        <time>2014-08-24T12:51:40.19</time>
      </trkpt>
      <trkpt lat="38.371025" lon="-2.386875">
        <ele>884</ele>
        <time>2014-08-24T12:51:41.17</time>
      </trkpt>
      <trkpt lat="38.370955" lon="-2.387015">
        <ele>881</ele>
        <time>2014-08-24T12:51:42.22</time>
      </trkpt>
      <trkpt lat="38.37088" lon="-2.387145">
        <ele>879</ele>
        <time>2014-08-24T12:51:43.23</time>
      </trkpt>
      <trkpt lat="38.37081" lon="-2.38725">
        <ele>878</ele>
        <time>2014-08-24T12:51:44.13</time>
      </trkpt>
      <trkpt lat="38.370725" lon="-2.38735">
        <ele>877</ele>
        <time>2014-08-24T12:51:45.12</time>
      </trkpt>
      <trkpt lat="38.370615" lon="-2.387445">
        <ele>877</ele>
        <time>2014-08-24T12:51:46.11</time>
      </trkpt>
      <trkpt lat="38.37049" lon="-2.387555">
        <ele>876</ele>
        <time>2014-08-24T12:51:47.11</time>
      </trkpt>
      <trkpt lat="38.37038" lon="-2.38767">
        <ele>875</ele>
        <time>2014-08-24T12:51:48.17</time>
      </trkpt>
      <trkpt lat="38.370288333333335" lon="-2.38776">
        <ele>876</ele>
        <time>2014-08-24T12:51:49.18</time>
      </trkpt>
      <trkpt lat="38.370218333333334" lon="-2.38788">
        <ele>876</ele>
        <time>2014-08-24T12:51:50.29</time>
      </trkpt>
      <trkpt lat="38.370175" lon="-2.387975">
        <ele>875</ele>
        <time>2014-08-24T12:51:51.17</time>
      </trkpt>
      <trkpt lat="38.370145" lon="-2.3880833333333333">
        <ele>876</ele>
        <time>2014-08-24T12:51:52.25</time>
      </trkpt>
      <trkpt lat="38.37014" lon="-2.38819">
        <ele>874</ele>
        <time>2014-08-24T12:51:53.18</time>
      </trkpt>
      <trkpt lat="38.370205" lon="-2.3882849999999998">
        <ele>875</ele>
        <time>2014-08-24T12:51:54.24</time>
      </trkpt>
      <trkpt lat="38.370255" lon="-2.38836">
        <ele>875</ele>
        <time>2014-08-24T12:51:55.20</time>
      </trkpt>
      <trkpt lat="38.37032" lon="-2.388425">
        <ele>875</ele>
        <time>2014-08-24T12:51:56.21</time>
      </trkpt>
      <trkpt lat="38.370395" lon="-2.388515">
        <ele>873</ele>
        <time>2014-08-24T12:51:57.18</time>
      </trkpt>
      <trkpt lat="38.37042" lon="-2.388635">
        <ele>872</ele>
        <time>2014-08-24T12:51:58.22</time>
      </trkpt>
      <trkpt lat="38.37047" lon="-2.38873">
        <ele>872</ele>
        <time>2014-08-24T12:51:59.21</time>
      </trkpt>
      <trkpt lat="38.37048" lon="-2.38886">
        <ele>871</ele>
        <time>2014-08-24T12:52:00.17</time>
      </trkpt>
      <trkpt lat="38.37048" lon="-2.38902">
        <ele>870</ele>
        <time>2014-08-24T12:52:01.18</time>
      </trkpt>
      <trkpt lat="38.370495" lon="-2.389175">
        <ele>870</ele>
        <time>2014-08-24T12:52:02.17</time>
      </trkpt>
      <trkpt lat="38.370525" lon="-2.38932">
        <ele>869</ele>
        <time>2014-08-24T12:52:03.17</time>
      </trkpt>
      <trkpt lat="38.370575" lon="-2.389465">
        <ele>868</ele>
        <time>2014-08-24T12:52:04.18</time>
      </trkpt>
      <trkpt lat="38.37062" lon="-2.389605">
        <ele>869</ele>
        <time>2014-08-24T12:52:05.17</time>
      </trkpt>
      <trkpt lat="38.37065" lon="-2.38976">
        <ele>869</ele>
        <time>2014-08-24T12:52:06.22</time>
      </trkpt>
      <trkpt lat="38.37066" lon="-2.3899">
        <ele>869</ele>
        <time>2014-08-24T12:52:07.17</time>
      </trkpt>
      <trkpt lat="38.37068" lon="-2.39006">
        <ele>865</ele>
        <time>2014-08-24T12:52:08.17</time>
      </trkpt>
      <trkpt lat="38.37071" lon="-2.3902200000000002">
        <ele>865</ele>
        <time>2014-08-24T12:52:09.17</time>
      </trkpt>
      <trkpt lat="38.370735" lon="-2.3903600000000003">
        <ele>866</ele>
        <time>2014-08-24T12:52:10.20</time>
      </trkpt>
      <trkpt lat="38.37076" lon="-2.39049">
        <ele>866</ele>
        <time>2014-08-24T12:52:11.17</time>
      </trkpt>
      <trkpt lat="38.3708" lon="-2.39062">
        <ele>867</ele>
        <time>2014-08-24T12:52:12.21</time>
      </trkpt>
      <trkpt lat="38.370815" lon="-2.390715">
        <ele>863</ele>
        <time>2014-08-24T12:52:13.17</time>
      </trkpt>
      <trkpt lat="38.370835" lon="-2.390805">
        <ele>862</ele>
        <time>2014-08-24T12:52:14.18</time>
      </trkpt>
      <trkpt lat="38.37082" lon="-2.390925">
        <ele>859</ele>
        <time>2014-08-24T12:52:15.16</time>
      </trkpt>
      <trkpt lat="38.370735" lon="-2.39102">
        <ele>856</ele>
        <time>2014-08-24T12:52:16.16</time>
      </trkpt>
      <trkpt lat="38.37069" lon="-2.391105">
        <ele>854</ele>
        <time>2014-08-24T12:52:17.16</time>
      </trkpt>
      <trkpt lat="38.37062" lon="-2.3912">
        <ele>854</ele>
        <time>2014-08-24T12:52:18.16</time>
      </trkpt>
      <trkpt lat="38.370555" lon="-2.39129">
        <ele>854</ele>
        <time>2014-08-24T12:52:19.16</time>
      </trkpt>
      <trkpt lat="38.370485" lon="-2.391385">
        <ele>852</ele>
        <time>2014-08-24T12:52:20.16</time>
      </trkpt>
      <trkpt lat="38.370405" lon="-2.39148">
        <ele>852</ele>
        <time>2014-08-24T12:52:21.17</time>
      </trkpt>
      <trkpt lat="38.370335" lon="-2.391565">
        <ele>853</ele>
        <time>2014-08-24T12:52:22.17</time>
      </trkpt>
      <trkpt lat="38.37025" lon="-2.391645">
        <ele>852</ele>
        <time>2014-08-24T12:52:23.16</time>
      </trkpt>
      <trkpt lat="38.37017" lon="-2.39172">
        <ele>852</ele>
        <time>2014-08-24T12:52:24.17</time>
      </trkpt>
      <trkpt lat="38.370105" lon="-2.3918033333333333">
        <ele>852</ele>
        <time>2014-08-24T12:52:25.16</time>
      </trkpt>
      <trkpt lat="38.370045" lon="-2.391895">
        <ele>853</ele>
        <time>2014-08-24T12:52:26.17</time>
      </trkpt>
      <trkpt lat="38.36999" lon="-2.392">
        <ele>852</ele>
        <time>2014-08-24T12:52:27.17</time>
      </trkpt>
      <trkpt lat="38.369975" lon="-2.392105">
        <ele>851</ele>
        <time>2014-08-24T12:52:28.11</time>
      </trkpt>
      <trkpt lat="38.36997" lon="-2.392225">
        <ele>851</ele>
        <time>2014-08-24T12:52:29.17</time>
      </trkpt>
      <trkpt lat="38.369906666666665" lon="-2.392325">
        <ele>851</ele>
        <time>2014-08-24T12:52:30.17</time>
      </trkpt>
      <trkpt lat="38.369855" lon="-2.39243">
        <ele>852</ele>
        <time>2014-08-24T12:52:31.17</time>
      </trkpt>
      <trkpt lat="38.369795" lon="-2.392525">
        <ele>851</ele>
        <time>2014-08-24T12:52:32.16</time>
      </trkpt>
      <trkpt lat="38.36975" lon="-2.392645">
        <ele>849</ele>
        <time>2014-08-24T12:52:33.16</time>
      </trkpt>
      <trkpt lat="38.36972" lon="-2.39276">
        <ele>847</ele>
        <time>2014-08-24T12:52:34.16</time>
      </trkpt>
      <trkpt lat="38.3697" lon="-2.392875">
        <ele>847</ele>
        <time>2014-08-24T12:52:35.17</time>
      </trkpt>
      <trkpt lat="38.369665" lon="-2.39299">
        <ele>845</ele>
        <time>2014-08-24T12:52:36.17</time>
      </trkpt>
      <trkpt lat="38.369645" lon="-2.3931">
        <ele>844</ele>
        <time>2014-08-24T12:52:37.30</time>
      </trkpt>
      <trkpt lat="38.369625" lon="-2.393195">
        <ele>843</ele>
        <time>2014-08-24T12:52:38.17</time>
      </trkpt>
      <trkpt lat="38.369575" lon="-2.393385">
        <ele>840</ele>
        <time>2014-08-24T12:52:40.17</time>
      </trkpt>
      <trkpt lat="38.36952" lon="-2.39346">
        <ele>840</ele>
        <time>2014-08-24T12:52:41.16</time>
      </trkpt>
      <trkpt lat="38.36942" lon="-2.393595">
        <ele>839</ele>
        <time>2014-08-24T12:52:43.16</time>
      </trkpt>
      <trkpt lat="38.36938" lon="-2.3937366666666664">
        <ele>839</ele>
        <time>2014-08-24T12:52:45.16</time>
      </trkpt>
      <trkpt lat="38.36941" lon="-2.3939033333333333">
        <ele>840</ele>
        <time>2014-08-24T12:52:47.16</time>
      </trkpt>
      <trkpt lat="38.369455" lon="-2.394045">
        <ele>838</ele>
        <time>2014-08-24T12:52:49.16</time>
      </trkpt>
      <trkpt lat="38.369495" lon="-2.394205">
        <ele>838</ele>
        <time>2014-08-24T12:52:51.17</time>
      </trkpt>
      <trkpt lat="38.369495" lon="-2.394305">
        <ele>838</ele>
        <time>2014-08-24T12:52:52.16</time>
      </trkpt>
      <trkpt lat="38.36949" lon="-2.39441">
        <ele>833</ele>
        <time>2014-08-24T12:52:53.16</time>
      </trkpt>
      <trkpt lat="38.369465" lon="-2.394515">
        <ele>830</ele>
        <time>2014-08-24T12:52:54.16</time>
      </trkpt>
      <trkpt lat="38.36943" lon="-2.394615">
        <ele>830</ele>
        <time>2014-08-24T12:52:55.16</time>
      </trkpt>
      <trkpt lat="38.369385" lon="-2.39472">
        <ele>831</ele>
        <time>2014-08-24T12:52:56.16</time>
      </trkpt>
      <trkpt lat="38.36933" lon="-2.39484">
        <ele>829</ele>
        <time>2014-08-24T12:52:57.16</time>
      </trkpt>
      <trkpt lat="38.36928" lon="-2.394945">
        <ele>827</ele>
        <time>2014-08-24T12:52:58.21</time>
      </trkpt>
      <trkpt lat="38.36923" lon="-2.39503">
        <ele>826</ele>
        <time>2014-08-24T12:52:59.22</time>
      </trkpt>
      <trkpt lat="38.36918" lon="-2.39511">
        <ele>826</ele>
        <time>2014-08-24T12:53:00.35</time>
      </trkpt>
      <trkpt lat="38.36914" lon="-2.3952633333333333">
        <ele>826</ele>
        <time>2014-08-24T12:53:02.16</time>
      </trkpt>
      <trkpt lat="38.36918" lon="-2.395435">
        <ele>826</ele>
        <time>2014-08-24T12:53:04.20</time>
      </trkpt>
      <trkpt lat="38.369205" lon="-2.39553">
        <ele>825</ele>
        <time>2014-08-24T12:53:05.22</time>
      </trkpt>
      <trkpt lat="38.369215" lon="-2.395625">
        <ele>824</ele>
        <time>2014-08-24T12:53:06.21</time>
      </trkpt>
      <trkpt lat="38.36922" lon="-2.395725">
        <ele>823</ele>
        <time>2014-08-24T12:53:07.22</time>
      </trkpt>
      <trkpt lat="38.369231666666664" lon="-2.39583">
        <ele>822</ele>
        <time>2014-08-24T12:53:08.22</time>
      </trkpt>
      <trkpt lat="38.36922" lon="-2.39594">
        <ele>822</ele>
        <time>2014-08-24T12:53:09.18</time>
      </trkpt>
      <trkpt lat="38.369205" lon="-2.39605">
        <ele>821</ele>
        <time>2014-08-24T12:53:10.20</time>
      </trkpt>
      <trkpt lat="38.369185" lon="-2.3961516666666665">
        <ele>822</ele>
        <time>2014-08-24T12:53:11.20</time>
      </trkpt>
      <trkpt lat="38.369145" lon="-2.396245">
        <ele>821</ele>
        <time>2014-08-24T12:53:12.16</time>
      </trkpt>
      <trkpt lat="38.369105" lon="-2.39635">
        <ele>820</ele>
        <time>2014-08-24T12:53:13.17</time>
      </trkpt>
      <trkpt lat="38.36907333333333" lon="-2.3964600000000003">
        <ele>820</ele>
        <time>2014-08-24T12:53:14.16</time>
      </trkpt>
      <trkpt lat="38.369065" lon="-2.39657">
        <ele>820</ele>
        <time>2014-08-24T12:53:15.23</time>
      </trkpt>
      <trkpt lat="38.36907" lon="-2.396715">
        <ele>816</ele>
        <time>2014-08-24T12:53:16.17</time>
      </trkpt>
      <trkpt lat="38.36907" lon="-2.3968233333333333">
        <ele>816</ele>
        <time>2014-08-24T12:53:17.16</time>
      </trkpt>
      <trkpt lat="38.36907333333333" lon="-2.396925">
        <ele>816</ele>
        <time>2014-08-24T12:53:18.17</time>
      </trkpt>
      <trkpt lat="38.36909" lon="-2.397025">
        <ele>816</ele>
        <time>2014-08-24T12:53:19.22</time>
      </trkpt>
      <trkpt lat="38.369115" lon="-2.397175">
        <ele>817</ele>
        <time>2014-08-24T12:53:21.19</time>
      </trkpt>
      <trkpt lat="38.369115" lon="-2.39729">
        <ele>817</ele>
        <time>2014-08-24T12:53:24.21</time>
      </trkpt>
      <trkpt lat="38.369135" lon="-2.39738">
        <ele>817</ele>
        <time>2014-08-24T12:53:26.16</time>
      </trkpt>
      <trkpt lat="38.36913" lon="-2.397485">
        <ele>815</ele>
        <time>2014-08-24T12:53:28.22</time>
      </trkpt>
      <trkpt lat="38.36916" lon="-2.39764">
        <ele>815</ele>
        <time>2014-08-24T12:53:31.19</time>
      </trkpt>
      <trkpt lat="38.369215" lon="-2.3978099999999998">
        <ele>818</ele>
        <time>2014-08-24T12:53:33.20</time>
      </trkpt>
      <trkpt lat="38.36921" lon="-2.39799">
        <ele>816</ele>
        <time>2014-08-24T12:53:35.22</time>
      </trkpt>
      <trkpt lat="38.36918" lon="-2.398145">
        <ele>818</ele>
        <time>2014-08-24T12:53:37.19</time>
      </trkpt>
      <trkpt lat="38.369175" lon="-2.398295">
        <ele>822</ele>
        <time>2014-08-24T12:53:39.20</time>
      </trkpt>
      <trkpt lat="38.36916333333333" lon="-2.3983933333333334">
        <ele>821</ele>
        <time>2014-08-24T12:53:40.21</time>
      </trkpt>
      <trkpt lat="38.369195" lon="-2.39856">
        <ele>821</ele>
        <time>2014-08-24T12:53:42.22</time>
      </trkpt>
      <trkpt lat="38.36923" lon="-2.39866">
        <ele>821</ele>
        <time>2014-08-24T12:53:43.22</time>
      </trkpt>
      <trkpt lat="38.36926" lon="-2.398765">
        <ele>821</ele>
        <time>2014-08-24T12:53:44.12</time>
      </trkpt>
      <trkpt lat="38.36929" lon="-2.398865">
        <ele>821</ele>
        <time>2014-08-24T12:53:45.14</time>
      </trkpt>
      <trkpt lat="38.369301666666665" lon="-2.3989583333333333">
        <ele>822</ele>
        <time>2014-08-24T12:53:46.16</time>
      </trkpt>
      <trkpt lat="38.369325" lon="-2.3990650000000002">
        <ele>821</ele>
        <time>2014-08-24T12:53:47.16</time>
      </trkpt>
      <trkpt lat="38.369335" lon="-2.39916">
        <ele>821</ele>
        <time>2014-08-24T12:53:48.17</time>
      </trkpt>
      <trkpt lat="38.36936" lon="-2.39926">
        <ele>820</ele>
        <time>2014-08-24T12:53:49.16</time>
      </trkpt>
      <trkpt lat="38.36937" lon="-2.399355">
        <ele>821</ele>
        <time>2014-08-24T12:53:50.16</time>
      </trkpt>
      <trkpt lat="38.369395" lon="-2.3994400000000002">
        <ele>822</ele>
        <time>2014-08-24T12:53:51.16</time>
      </trkpt>
      <trkpt lat="38.369415" lon="-2.39954">
        <ele>822</ele>
        <time>2014-08-24T12:53:52.16</time>
      </trkpt>
      <trkpt lat="38.369435" lon="-2.399635">
        <ele>822</ele>
        <time>2014-08-24T12:53:53.16</time>
      </trkpt>
      <trkpt lat="38.36945" lon="-2.399731666666667">
        <ele>823</ele>
        <time>2014-08-24T12:53:54.16</time>
      </trkpt>
      <trkpt lat="38.369485" lon="-2.3998216666666665">
        <ele>823</ele>
        <time>2014-08-24T12:53:55.16</time>
      </trkpt>
      <trkpt lat="38.369515" lon="-2.39991">
        <ele>823</ele>
        <time>2014-08-24T12:53:56.16</time>
      </trkpt>
      <trkpt lat="38.369575" lon="-2.40009">
        <ele>822</ele>
        <time>2014-08-24T12:53:58.16</time>
      </trkpt>
      <trkpt lat="38.369611666666664" lon="-2.400165">
        <ele>822</ele>
        <time>2014-08-24T12:53:59.16</time>
      </trkpt>
      <trkpt lat="38.369665" lon="-2.40033">
        <ele>820</ele>
        <time>2014-08-24T12:54:01.16</time>
      </trkpt>
      <trkpt lat="38.36971" lon="-2.40041">
        <ele>820</ele>
        <time>2014-08-24T12:54:02.16</time>
      </trkpt>
      <trkpt lat="38.36973" lon="-2.40052">
        <ele>818</ele>
        <time>2014-08-24T12:54:03.16</time>
      </trkpt>
      <trkpt lat="38.36969" lon="-2.400685">
        <ele>818</ele>
        <time>2014-08-24T12:54:05.18</time>
      </trkpt>
      <trkpt lat="38.36961" lon="-2.400805">
        <ele>817</ele>
        <time>2014-08-24T12:54:07.16</time>
      </trkpt>
      <trkpt lat="38.369485" lon="-2.40089">
        <ele>817</ele>
        <time>2014-08-24T12:54:09.16</time>
      </trkpt>
      <trkpt lat="38.369386666666664" lon="-2.40101">
        <ele>815</ele>
        <time>2014-08-24T12:54:11.16</time>
      </trkpt>
      <trkpt lat="38.369275" lon="-2.401075">
        <ele>815</ele>
        <time>2014-08-24T12:54:13.16</time>
      </trkpt>
      <trkpt lat="38.369175" lon="-2.40116">
        <ele>816</ele>
        <time>2014-08-24T12:54:15.16</time>
      </trkpt>
      <trkpt lat="38.36906" lon="-2.401245">
        <ele>820</ele>
        <time>2014-08-24T12:54:17.16</time>
      </trkpt>
      <trkpt lat="38.369005" lon="-2.4013">
        <ele>820</ele>
        <time>2014-08-24T12:54:18.16</time>
      </trkpt>
      <trkpt lat="38.3689" lon="-2.40141">
        <ele>820</ele>
        <time>2014-08-24T12:54:20.17</time>
      </trkpt>
      <trkpt lat="38.368766666666666" lon="-2.40149">
        <ele>819</ele>
        <time>2014-08-24T12:54:22.16</time>
      </trkpt>
      <trkpt lat="38.368655" lon="-2.401595">
        <ele>818</ele>
        <time>2014-08-24T12:54:24.16</time>
      </trkpt>
      <trkpt lat="38.36859" lon="-2.4016450000000003">
        <ele>817</ele>
        <time>2014-08-24T12:54:25.16</time>
      </trkpt>
      <trkpt lat="38.368525" lon="-2.40169">
        <ele>818</ele>
        <time>2014-08-24T12:54:26.30</time>
      </trkpt>
      <trkpt lat="38.36840333333333" lon="-2.40179">
        <ele>818</ele>
        <time>2014-08-24T12:54:28.20</time>
      </trkpt>
      <trkpt lat="38.36828" lon="-2.4018866666666665">
        <ele>820</ele>
        <time>2014-08-24T12:54:30.16</time>
      </trkpt>
      <trkpt lat="38.368225" lon="-2.401955">
        <ele>820</ele>
        <time>2014-08-24T12:54:31.16</time>
      </trkpt>
      <trkpt lat="38.368175" lon="-2.4020200000000003">
        <ele>820</ele>
        <time>2014-08-24T12:54:32.17</time>
      </trkpt>
      <trkpt lat="38.368125" lon="-2.40209">
        <ele>820</ele>
        <time>2014-08-24T12:54:33.16</time>
      </trkpt>
      <trkpt lat="38.368045" lon="-2.40222">
        <ele>822</ele>
        <time>2014-08-24T12:54:35.19</time>
      </trkpt>
      <trkpt lat="38.367995" lon="-2.4023">
        <ele>821</ele>
        <time>2014-08-24T12:54:36.18</time>
      </trkpt>
      <trkpt lat="38.367936666666665" lon="-2.40238">
        <ele>820</ele>
        <time>2014-08-24T12:54:37.22</time>
      </trkpt>
      <trkpt lat="38.367895" lon="-2.402465">
        <ele>820</ele>
        <time>2014-08-24T12:54:38.32</time>
      </trkpt>
      <trkpt lat="38.36786" lon="-2.402545">
        <ele>820</ele>
        <time>2014-08-24T12:54:39.19</time>
      </trkpt>
      <trkpt lat="38.367781666666666" lon="-2.402695">
        <ele>821</ele>
        <time>2014-08-24T12:54:41.16</time>
      </trkpt>
      <trkpt lat="38.36770666666666" lon="-2.40286">
        <ele>824</ele>
        <time>2014-08-24T12:54:43.16</time>
      </trkpt>
      <trkpt lat="38.367675" lon="-2.40295">
        <ele>823</ele>
        <time>2014-08-24T12:54:44.17</time>
      </trkpt>
      <trkpt lat="38.367655" lon="-2.403045">
        <ele>824</ele>
        <time>2014-08-24T12:54:45.18</time>
      </trkpt>
      <trkpt lat="38.367645" lon="-2.40314">
        <ele>824</ele>
        <time>2014-08-24T12:54:46.16</time>
      </trkpt>
      <trkpt lat="38.36768" lon="-2.403245">
        <ele>824</ele>
        <time>2014-08-24T12:54:47.17</time>
      </trkpt>
      <trkpt lat="38.367675" lon="-2.40341">
        <ele>826</ele>
        <time>2014-08-24T12:54:49.16</time>
      </trkpt>
      <trkpt lat="38.367605" lon="-2.403575">
        <ele>823</ele>
        <time>2014-08-24T12:54:51.16</time>
      </trkpt>
      <trkpt lat="38.367585" lon="-2.40367">
        <ele>823</ele>
        <time>2014-08-24T12:54:52.16</time>
      </trkpt>
      <trkpt lat="38.36761" lon="-2.4038383333333333">
        <ele>821</ele>
        <time>2014-08-24T12:54:54.16</time>
      </trkpt>
      <trkpt lat="38.36766" lon="-2.403915">
        <ele>821</ele>
        <time>2014-08-24T12:54:55.16</time>
      </trkpt>
      <trkpt lat="38.36779833333333" lon="-2.403985">
        <ele>819</ele>
        <time>2014-08-24T12:54:57.16</time>
      </trkpt>
      <trkpt lat="38.367914999999996" lon="-2.40406">
        <ele>818</ele>
        <time>2014-08-24T12:54:59.16</time>
      </trkpt>
      <trkpt lat="38.368005" lon="-2.404165">
        <ele>817</ele>
        <time>2014-08-24T12:55:01.16</time>
      </trkpt>
      <trkpt lat="38.368075" lon="-2.404325">
        <ele>818</ele>
        <time>2014-08-24T12:55:03.16</time>
      </trkpt>
      <trkpt lat="38.3681" lon="-2.404485">
        <ele>818</ele>
        <time>2014-08-24T12:55:05.16</time>
      </trkpt>
      <trkpt lat="38.36811" lon="-2.4045783333333333">
        <ele>819</ele>
        <time>2014-08-24T12:55:06.16</time>
      </trkpt>
      <trkpt lat="38.3681" lon="-2.40471">
        <ele>819</ele>
        <time>2014-08-24T12:55:08.16</time>
      </trkpt>
      <trkpt lat="38.36807" lon="-2.40481">
        <ele>821</ele>
        <time>2014-08-24T12:55:10.26</time>
      </trkpt>
      <trkpt lat="38.36804" lon="-2.404905">
        <ele>822</ele>
        <time>2014-08-24T12:55:12.16</time>
      </trkpt>
      <trkpt lat="38.367995" lon="-2.404995">
        <ele>822</ele>
        <time>2014-08-24T12:55:14.16</time>
      </trkpt>
      <trkpt lat="38.367965" lon="-2.405085">
        <ele>824</ele>
        <time>2014-08-24T12:55:16.15</time>
      </trkpt>
      <trkpt lat="38.367925" lon="-2.40519">
        <ele>824</ele>
        <time>2014-08-24T12:55:18.16</time>
      </trkpt>
      <trkpt lat="38.367875" lon="-2.40527">
        <ele>826</ele>
        <time>2014-08-24T12:55:20.16</time>
      </trkpt>
      <trkpt lat="38.367835" lon="-2.40536">
        <ele>827</ele>
        <time>2014-08-24T12:55:22.16</time>
      </trkpt>
      <trkpt lat="38.36778" lon="-2.405455">
        <ele>828</ele>
        <time>2014-08-24T12:55:24.16</time>
      </trkpt>
      <trkpt lat="38.367745" lon="-2.4055400000000002">
        <ele>829</ele>
        <time>2014-08-24T12:55:26.16</time>
      </trkpt>
      <trkpt lat="38.367695" lon="-2.40564">
        <ele>830</ele>
        <time>2014-08-24T12:55:28.16</time>
      </trkpt>
      <trkpt lat="38.367625" lon="-2.405725">
        <ele>831</ele>
        <time>2014-08-24T12:55:30.16</time>
      </trkpt>
      <trkpt lat="38.36757333333333" lon="-2.405815">
        <ele>832</ele>
        <time>2014-08-24T12:55:32.16</time>
      </trkpt>
      <trkpt lat="38.367535" lon="-2.405901666666667">
        <ele>832</ele>
        <time>2014-08-24T12:55:34.16</time>
      </trkpt>
      <trkpt lat="38.367495" lon="-2.405995">
        <ele>833</ele>
        <time>2014-08-24T12:55:36.16</time>
      </trkpt>
      <trkpt lat="38.367455" lon="-2.4060966666666666">
        <ele>832</ele>
        <time>2014-08-24T12:55:38.16</time>
      </trkpt>
      <trkpt lat="38.36743" lon="-2.406205">
        <ele>833</ele>
        <time>2014-08-24T12:55:40.16</time>
      </trkpt>
      <trkpt lat="38.36741" lon="-2.40632">
        <ele>833</ele>
        <time>2014-08-24T12:55:42.16</time>
      </trkpt>
      <trkpt lat="38.36741" lon="-2.40645">
        <ele>833</ele>
        <time>2014-08-24T12:55:44.11</time>
      </trkpt>
      <trkpt lat="38.367475" lon="-2.4065583333333334">
        <ele>833</ele>
        <time>2014-08-24T12:55:46.11</time>
      </trkpt>
      <trkpt lat="38.367505" lon="-2.40666">
        <ele>834</ele>
        <time>2014-08-24T12:55:48.15</time>
      </trkpt>
      <trkpt lat="38.36752" lon="-2.406765">
        <ele>836</ele>
        <time>2014-08-24T12:55:50.16</time>
      </trkpt>
      <trkpt lat="38.367565" lon="-2.40687">
        <ele>835</ele>
        <time>2014-08-24T12:55:52.22</time>
      </trkpt>
      <trkpt lat="38.367615" lon="-2.406965">
        <ele>836</ele>
        <time>2014-08-24T12:55:54.11</time>
      </trkpt>
      <trkpt lat="38.36762" lon="-2.40707">
        <ele>833</ele>
        <time>2014-08-24T12:55:56.16</time>
      </trkpt>
      <trkpt lat="38.367655" lon="-2.407175">
        <ele>833</ele>
        <time>2014-08-24T12:55:58.16</time>
      </trkpt>
      <trkpt lat="38.36769" lon="-2.4072716666666665">
        <ele>834</ele>
        <time>2014-08-24T12:56:00.20</time>
      </trkpt>
      <trkpt lat="38.367685" lon="-2.40738">
        <ele>836</ele>
        <time>2014-08-24T12:56:02.16</time>
      </trkpt>
      <trkpt lat="38.367655" lon="-2.40748">
        <ele>836</ele>
        <time>2014-08-24T12:56:04.16</time>
      </trkpt>
      <trkpt lat="38.367635" lon="-2.4075699999999998">
        <ele>837</ele>
        <time>2014-08-24T12:56:06.16</time>
      </trkpt>
      <trkpt lat="38.3676" lon="-2.407665">
        <ele>838</ele>
        <time>2014-08-24T12:56:08.16</time>
      </trkpt>
      <trkpt lat="38.36759" lon="-2.407765">
        <ele>836</ele>
        <time>2014-08-24T12:56:10.20</time>
      </trkpt>
      <trkpt lat="38.36754" lon="-2.40788">
        <ele>836</ele>
        <time>2014-08-24T12:56:12.17</time>
      </trkpt>
      <trkpt lat="38.36752" lon="-2.407995">
        <ele>837</ele>
        <time>2014-08-24T12:56:14.18</time>
      </trkpt>
      <trkpt lat="38.367505" lon="-2.408115">
        <ele>838</ele>
        <time>2014-08-24T12:56:16.19</time>
      </trkpt>
      <trkpt lat="38.3675" lon="-2.40823">
        <ele>839</ele>
        <time>2014-08-24T12:56:18.11</time>
      </trkpt>
      <trkpt lat="38.367495" lon="-2.408365">
        <ele>840</ele>
        <time>2014-08-24T12:56:20.18</time>
      </trkpt>
      <trkpt lat="38.367505" lon="-2.408515">
        <ele>839</ele>
        <time>2014-08-24T12:56:22.11</time>
      </trkpt>
      <trkpt lat="38.367488333333334" lon="-2.40867">
        <ele>840</ele>
        <time>2014-08-24T12:56:24.20</time>
      </trkpt>
      <trkpt lat="38.36747" lon="-2.408835">
        <ele>839</ele>
        <time>2014-08-24T12:56:26.21</time>
      </trkpt>
      <trkpt lat="38.36746" lon="-2.40893">
        <ele>838</ele>
        <time>2014-08-24T12:56:27.18</time>
      </trkpt>
      <trkpt lat="38.36748" lon="-2.40911">
        <ele>837</ele>
        <time>2014-08-24T12:56:29.18</time>
      </trkpt>
      <trkpt lat="38.3675" lon="-2.4093">
        <ele>835</ele>
        <time>2014-08-24T12:56:31.16</time>
      </trkpt>
      <trkpt lat="38.367495" lon="-2.40939">
        <ele>837</ele>
        <time>2014-08-24T12:56:32.26</time>
      </trkpt>
      <trkpt lat="38.367515" lon="-2.409495">
        <ele>837</ele>
        <time>2014-08-24T12:56:33.17</time>
      </trkpt>
      <trkpt lat="38.367535" lon="-2.409675">
        <ele>838</ele>
        <time>2014-08-24T12:56:35.16</time>
      </trkpt>
      <trkpt lat="38.367535" lon="-2.409765">
        <ele>837</ele>
        <time>2014-08-24T12:56:36.18</time>
      </trkpt>
      <trkpt lat="38.36757" lon="-2.409955">
        <ele>837</ele>
        <time>2014-08-24T12:56:38.32</time>
      </trkpt>
      <trkpt lat="38.3676" lon="-2.41011">
        <ele>838</ele>
        <time>2014-08-24T12:56:40.20</time>
      </trkpt>
      <trkpt lat="38.367626666666666" lon="-2.410265">
        <ele>837</ele>
        <time>2014-08-24T12:56:42.17</time>
      </trkpt>
      <trkpt lat="38.367665" lon="-2.410415">
        <ele>839</ele>
        <time>2014-08-24T12:56:44.12</time>
      </trkpt>
      <trkpt lat="38.36771" lon="-2.410565">
        <ele>839</ele>
        <time>2014-08-24T12:56:46.16</time>
      </trkpt>
      <trkpt lat="38.367745" lon="-2.41071">
        <ele>839</ele>
        <time>2014-08-24T12:56:48.16</time>
      </trkpt>
      <trkpt lat="38.36777" lon="-2.41086">
        <ele>840</ele>
        <time>2014-08-24T12:56:50.16</time>
      </trkpt>
      <trkpt lat="38.36778" lon="-2.411005">
        <ele>838</ele>
        <time>2014-08-24T12:56:52.15</time>
      </trkpt>
      <trkpt lat="38.36777" lon="-2.4111466666666668">
        <ele>841</ele>
        <time>2014-08-24T12:56:54.15</time>
      </trkpt>
      <trkpt lat="38.36784" lon="-2.41125">
        <ele>842</ele>
        <time>2014-08-24T12:56:56.29</time>
      </trkpt>
      <trkpt lat="38.367985" lon="-2.41133">
        <ele>841</ele>
        <time>2014-08-24T12:56:58.16</time>
      </trkpt>
      <trkpt lat="38.368075" lon="-2.41132">
        <ele>840</ele>
        <time>2014-08-24T12:56:59.16</time>
      </trkpt>
      <trkpt lat="38.36817" lon="-2.4113066666666665">
        <ele>840</ele>
        <time>2014-08-24T12:57:00.16</time>
      </trkpt>
      <trkpt lat="38.368245" lon="-2.41133">
        <ele>840</ele>
        <time>2014-08-24T12:57:01.16</time>
      </trkpt>
      <trkpt lat="38.368316666666665" lon="-2.4114">
        <ele>842</ele>
        <time>2014-08-24T12:57:02.17</time>
      </trkpt>
      <trkpt lat="38.368375" lon="-2.41148">
        <ele>841</ele>
        <time>2014-08-24T12:57:03.16</time>
      </trkpt>
      <trkpt lat="38.368425" lon="-2.411555">
        <ele>842</ele>
        <time>2014-08-24T12:57:04.16</time>
      </trkpt>
      <trkpt lat="38.36846833333333" lon="-2.4116400000000002">
        <ele>843</ele>
        <time>2014-08-24T12:57:05.16</time>
      </trkpt>
      <trkpt lat="38.36853" lon="-2.41174">
        <ele>842</ele>
        <time>2014-08-24T12:57:06.16</time>
      </trkpt>
      <trkpt lat="38.36858" lon="-2.411845">
        <ele>843</ele>
        <time>2014-08-24T12:57:07.16</time>
      </trkpt>
      <trkpt lat="38.368625" lon="-2.411955">
        <ele>843</ele>
        <time>2014-08-24T12:57:08.16</time>
      </trkpt>
      <trkpt lat="38.368645" lon="-2.41205">
        <ele>839</ele>
        <time>2014-08-24T12:57:09.16</time>
      </trkpt>
      <trkpt lat="38.368675" lon="-2.412165">
        <ele>838</ele>
        <time>2014-08-24T12:57:10.26</time>
      </trkpt>
      <trkpt lat="38.368735" lon="-2.412245">
        <ele>836</ele>
        <time>2014-08-24T12:57:11.16</time>
      </trkpt>
      <trkpt lat="38.368775" lon="-2.41236">
        <ele>835</ele>
        <time>2014-08-24T12:57:12.16</time>
      </trkpt>
      <trkpt lat="38.368815" lon="-2.41248">
        <ele>836</ele>
        <time>2014-08-24T12:57:13.16</time>
      </trkpt>
      <trkpt lat="38.36883" lon="-2.412585">
        <ele>836</ele>
        <time>2014-08-24T12:57:14.17</time>
      </trkpt>
      <trkpt lat="38.36892" lon="-2.41267">
        <ele>835</ele>
        <time>2014-08-24T12:57:15.16</time>
      </trkpt>
      <trkpt lat="38.36899" lon="-2.41277">
        <ele>835</ele>
        <time>2014-08-24T12:57:16.19</time>
      </trkpt>
      <trkpt lat="38.36905" lon="-2.41288">
        <ele>834</ele>
        <time>2014-08-24T12:57:17.16</time>
      </trkpt>
      <trkpt lat="38.369075" lon="-2.41298">
        <ele>831</ele>
        <time>2014-08-24T12:57:18.16</time>
      </trkpt>
      <trkpt lat="38.369145" lon="-2.413085">
        <ele>831</ele>
        <time>2014-08-24T12:57:19.17</time>
      </trkpt>
      <trkpt lat="38.369185" lon="-2.413195">
        <ele>830</ele>
        <time>2014-08-24T12:57:20.16</time>
      </trkpt>
      <trkpt lat="38.369275" lon="-2.41329">
        <ele>829</ele>
        <time>2014-08-24T12:57:21.16</time>
      </trkpt>
      <trkpt lat="38.3693" lon="-2.413405">
        <ele>827</ele>
        <time>2014-08-24T12:57:22.16</time>
      </trkpt>
      <trkpt lat="38.369345" lon="-2.41352">
        <ele>828</ele>
        <time>2014-08-24T12:57:23.19</time>
      </trkpt>
      <trkpt lat="38.369385" lon="-2.413615">
        <ele>828</ele>
        <time>2014-08-24T12:57:24.18</time>
      </trkpt>
      <trkpt lat="38.36945" lon="-2.41371">
        <ele>829</ele>
        <time>2014-08-24T12:57:25.35</time>
      </trkpt>
      <trkpt lat="38.369485" lon="-2.41381">
        <ele>829</ele>
        <time>2014-08-24T12:57:26.19</time>
      </trkpt>
      <trkpt lat="38.369526666666665" lon="-2.41391">
        <ele>830</ele>
        <time>2014-08-24T12:57:27.20</time>
      </trkpt>
      <trkpt lat="38.369575" lon="-2.414">
        <ele>830</ele>
        <time>2014-08-24T12:57:28.20</time>
      </trkpt>
      <trkpt lat="38.36961" lon="-2.4140866666666665">
        <ele>832</ele>
        <time>2014-08-24T12:57:29.20</time>
      </trkpt>
      <trkpt lat="38.369635" lon="-2.41418">
        <ele>831</ele>
        <time>2014-08-24T12:57:30.17</time>
      </trkpt>
      <trkpt lat="38.369705" lon="-2.41425">
        <ele>832</ele>
        <time>2014-08-24T12:57:31.18</time>
      </trkpt>
      <trkpt lat="38.369785" lon="-2.414315">
        <ele>831</ele>
        <time>2014-08-24T12:57:32.18</time>
      </trkpt>
      <trkpt lat="38.369805" lon="-2.414405">
        <ele>831</ele>
        <time>2014-08-24T12:57:33.20</time>
      </trkpt>
      <trkpt lat="38.369985" lon="-2.41453">
        <ele>827</ele>
        <time>2014-08-24T12:57:35.15</time>
      </trkpt>
      <trkpt lat="38.37005" lon="-2.414615">
        <ele>827</ele>
        <time>2014-08-24T12:57:36.17</time>
      </trkpt>
      <trkpt lat="38.370133333333335" lon="-2.4146900000000002">
        <ele>826</ele>
        <time>2014-08-24T12:57:37.18</time>
      </trkpt>
      <trkpt lat="38.37017" lon="-2.41478">
        <ele>826</ele>
        <time>2014-08-24T12:57:38.19</time>
      </trkpt>
      <trkpt lat="38.370255" lon="-2.41492">
        <ele>829</ele>
        <time>2014-08-24T12:57:40.19</time>
      </trkpt>
      <trkpt lat="38.370295" lon="-2.415015">
        <ele>829</ele>
        <time>2014-08-24T12:57:41.20</time>
      </trkpt>
      <trkpt lat="38.37031" lon="-2.415105">
        <ele>828</ele>
        <time>2014-08-24T12:57:42.34</time>
      </trkpt>
      <trkpt lat="38.37037" lon="-2.4152633333333333">
        <ele>829</ele>
        <time>2014-08-24T12:57:44.13</time>
      </trkpt>
      <trkpt lat="38.37041" lon="-2.4154">
        <ele>829</ele>
        <time>2014-08-24T12:57:46.18</time>
      </trkpt>
      <trkpt lat="38.370475" lon="-2.41554">
        <ele>831</ele>
        <time>2014-08-24T12:57:48.24</time>
      </trkpt>
      <trkpt lat="38.37054" lon="-2.41565">
        <ele>832</ele>
        <time>2014-08-24T12:57:50.24</time>
      </trkpt>
      <trkpt lat="38.37055" lon="-2.415775">
        <ele>833</ele>
        <time>2014-08-24T12:57:52.16</time>
      </trkpt>
      <trkpt lat="38.370635" lon="-2.415855">
        <ele>835</ele>
        <time>2014-08-24T12:57:54.15</time>
      </trkpt>
      <trkpt lat="38.37064" lon="-2.41595">
        <ele>837</ele>
        <time>2014-08-24T12:57:57.16</time>
      </trkpt>
      <trkpt lat="38.370595" lon="-2.416045">
        <ele>836</ele>
        <time>2014-08-24T12:57:59.16</time>
      </trkpt>
      <trkpt lat="38.370605" lon="-2.41614">
        <ele>836</ele>
        <time>2014-08-24T12:58:02.16</time>
      </trkpt>
      <trkpt lat="38.3706" lon="-2.41626">
        <ele>837</ele>
        <time>2014-08-24T12:58:05.17</time>
      </trkpt>
      <trkpt lat="38.3706" lon="-2.41637">
        <ele>839</ele>
        <time>2014-08-24T12:58:07.16</time>
      </trkpt>
      <trkpt lat="38.370605" lon="-2.41648">
        <ele>839</ele>
        <time>2014-08-24T12:58:09.16</time>
      </trkpt>
      <trkpt lat="38.370605" lon="-2.41658">
        <ele>839</ele>
        <time>2014-08-24T12:58:11.16</time>
      </trkpt>
      <trkpt lat="38.370605" lon="-2.416715">
        <ele>838</ele>
        <time>2014-08-24T12:58:14.16</time>
      </trkpt>
      <trkpt lat="38.370605" lon="-2.41685">
        <ele>838</ele>
        <time>2014-08-24T12:58:17.22</time>
      </trkpt>
      <trkpt lat="38.370595" lon="-2.41694">
        <ele>836</ele>
        <time>2014-08-24T12:58:19.16</time>
      </trkpt>
      <trkpt lat="38.37056" lon="-2.417035">
        <ele>836</ele>
        <time>2014-08-24T12:58:21.32</time>
      </trkpt>
      <trkpt lat="38.37051" lon="-2.41712">
        <ele>837</ele>
        <time>2014-08-24T12:58:23.17</time>
      </trkpt>
      <trkpt lat="38.37046" lon="-2.417195">
        <ele>837</ele>
        <time>2014-08-24T12:58:26.16</time>
      </trkpt>
      <trkpt lat="38.370415" lon="-2.4172700000000003">
        <ele>837</ele>
        <time>2014-08-24T12:58:30.16</time>
      </trkpt>
      <trkpt lat="38.370355" lon="-2.417325">
        <ele>838</ele>
        <time>2014-08-24T12:58:33.26</time>
      </trkpt>
      <trkpt lat="38.37026" lon="-2.417395">
        <ele>840</ele>
        <time>2014-08-24T12:58:36.21</time>
      </trkpt>
      <trkpt lat="38.3702" lon="-2.41747">
        <ele>840</ele>
        <time>2014-08-24T12:58:38.16</time>
      </trkpt>
      <trkpt lat="38.370125" lon="-2.417555">
        <ele>842</ele>
        <time>2014-08-24T12:58:41.21</time>
      </trkpt>
      <trkpt lat="38.370085" lon="-2.41764">
        <ele>850</ele>
        <time>2014-08-24T12:58:46.16</time>
      </trkpt>
      <trkpt lat="38.370035" lon="-2.417755">
        <ele>850</ele>
        <time>2014-08-24T12:58:50.16</time>
      </trkpt>
      <trkpt lat="38.37" lon="-2.417865">
        <ele>850</ele>
        <time>2014-08-24T12:58:53.16</time>
      </trkpt>
      <trkpt lat="38.369965" lon="-2.4179633333333332">
        <ele>850</ele>
        <time>2014-08-24T12:58:56.16</time>
      </trkpt>
      <trkpt lat="38.36992" lon="-2.41806">
        <ele>853</ele>
        <time>2014-08-24T12:58:59.17</time>
      </trkpt>
      <trkpt lat="38.369885" lon="-2.41817">
        <ele>850</ele>
        <time>2014-08-24T12:59:02.20</time>
      </trkpt>
      <trkpt lat="38.36983333333333" lon="-2.418225">
        <ele>855</ele>
        <time>2014-08-24T12:59:09.21</time>
      </trkpt>
      <trkpt lat="38.36987" lon="-2.41826">
        <ele>855</ele>
        <time>2014-08-24T12:59:16.16</time>
      </trkpt>
      <trkpt lat="38.369865" lon="-2.418265">
        <ele>855</ele>
        <time>2014-08-24T12:59:17.18</time>
      </trkpt>
      <trkpt lat="38.369865" lon="-2.418265">
        <ele>855</ele>
        <time>2014-08-24T12:59:23.19</time>
      </trkpt>
    </trkseg>
  </trk>
</gpx>